<?xml version="1.0" encoding="UTF-8" standalone="no" ?>
<gpx xmlns="http://www.topografix.com/GPX/1/1" xmlns:xsi="http://www.w3.org/2001/XMLSchema-instance" xsi:schemaLocation="http://www.topografix.com/GPX/1/1 http://www.topografix.com/GPX/1/1/gpx.xsd" version="1.1" creator="VisuGPX - https://www.visugpx.com">
  <metadata>
    <name>Plateau de Retord et Haut Bugey Mai 2026 #A (aller)</name>
    <desc><![CDATA[En 2025, lors d'un voyage à vélo empruntant la GTJ Gravel, nous n'avions pas terminé le dernier jour à cause d'une météo défavorable avant d'arriver sur le plateau de Retord.
Objectif : Boucles Gravel sur le plateau de Retord au départ de Hauteville-Lompnes. 
5 jours de vélo début mai 2026

Trajet aller de Bourg-en-Bresse vers Hauteville-Lompnes (principalement "vdr").]]></desc>
  </metadata>
  <trk>
    <name><![CDATA[Plateau de Retord et Haut Bugey Mai 2026 #A (aller)_1]]></name>
    <trkseg>
      <trkpt lat="46.19429" lon="5.2144">
        <ele>243</ele>
        <time>2026-05-09T10:21:11Z</time>
      </trkpt>
      <trkpt lat="46.19429" lon="5.21441">
        <ele>243</ele>
        <time>2026-05-09T10:21:12Z</time>
      </trkpt>
      <trkpt lat="46.19429" lon="5.21441">
        <ele>242.8</ele>
        <time>2026-05-09T10:21:13Z</time>
      </trkpt>
      <trkpt lat="46.1943" lon="5.21441">
        <ele>242.8</ele>
        <time>2026-05-09T10:21:14Z</time>
      </trkpt>
      <trkpt lat="46.19432" lon="5.21442">
        <ele>242.8</ele>
        <time>2026-05-09T10:21:18Z</time>
      </trkpt>
      <trkpt lat="46.19434" lon="5.21443">
        <ele>242.8</ele>
        <time>2026-05-09T10:21:19Z</time>
      </trkpt>
      <trkpt lat="46.19436" lon="5.21444">
        <ele>242.8</ele>
        <time>2026-05-09T10:21:20Z</time>
      </trkpt>
      <trkpt lat="46.19439" lon="5.21445">
        <ele>242.8</ele>
        <time>2026-05-09T10:21:21Z</time>
      </trkpt>
      <trkpt lat="46.19442" lon="5.21447">
        <ele>242.8</ele>
        <time>2026-05-09T10:21:22Z</time>
      </trkpt>
      <trkpt lat="46.19445" lon="5.21449">
        <ele>242.8</ele>
        <time>2026-05-09T10:21:23Z</time>
      </trkpt>
      <trkpt lat="46.19448" lon="5.2145">
        <ele>242.8</ele>
        <time>2026-05-09T10:21:24Z</time>
      </trkpt>
      <trkpt lat="46.19454" lon="5.21455">
        <ele>242.8</ele>
        <time>2026-05-09T10:21:25Z</time>
      </trkpt>
      <trkpt lat="46.19457" lon="5.21457">
        <ele>242.8</ele>
        <time>2026-05-09T10:21:26Z</time>
      </trkpt>
      <trkpt lat="46.1946" lon="5.21459">
        <ele>242.8</ele>
        <time>2026-05-09T10:21:27Z</time>
      </trkpt>
      <trkpt lat="46.19463" lon="5.21461">
        <ele>242.8</ele>
        <time>2026-05-09T10:21:28Z</time>
      </trkpt>
      <trkpt lat="46.19466" lon="5.21464">
        <ele>243</ele>
        <time>2026-05-09T10:21:29Z</time>
      </trkpt>
      <trkpt lat="46.1947" lon="5.21466">
        <ele>243</ele>
        <time>2026-05-09T10:21:30Z</time>
      </trkpt>
      <trkpt lat="46.19473" lon="5.21468">
        <ele>243</ele>
        <time>2026-05-09T10:21:31Z</time>
      </trkpt>
      <trkpt lat="46.19477" lon="5.2147">
        <ele>243</ele>
        <time>2026-05-09T10:21:32Z</time>
      </trkpt>
      <trkpt lat="46.1948" lon="5.21472">
        <ele>243</ele>
        <time>2026-05-09T10:21:33Z</time>
      </trkpt>
      <trkpt lat="46.19483" lon="5.21474">
        <ele>243</ele>
        <time>2026-05-09T10:21:34Z</time>
      </trkpt>
      <trkpt lat="46.19485" lon="5.21476">
        <ele>243.4</ele>
        <time>2026-05-09T10:21:35Z</time>
      </trkpt>
      <trkpt lat="46.19488" lon="5.21478">
        <ele>243.4</ele>
        <time>2026-05-09T10:21:36Z</time>
      </trkpt>
      <trkpt lat="46.19491" lon="5.2148">
        <ele>243.4</ele>
        <time>2026-05-09T10:21:37Z</time>
      </trkpt>
      <trkpt lat="46.19494" lon="5.21482">
        <ele>243.4</ele>
        <time>2026-05-09T10:21:38Z</time>
      </trkpt>
      <trkpt lat="46.19497" lon="5.21485">
        <ele>243.4</ele>
        <time>2026-05-09T10:21:39Z</time>
      </trkpt>
      <trkpt lat="46.195" lon="5.21488">
        <ele>243.4</ele>
        <time>2026-05-09T10:21:40Z</time>
      </trkpt>
      <trkpt lat="46.19502" lon="5.21492">
        <ele>243.8</ele>
        <time>2026-05-09T10:21:41Z</time>
      </trkpt>
      <trkpt lat="46.19506" lon="5.21495">
        <ele>243.8</ele>
        <time>2026-05-09T10:21:42Z</time>
      </trkpt>
      <trkpt lat="46.19509" lon="5.21498">
        <ele>243.8</ele>
        <time>2026-05-09T10:21:43Z</time>
      </trkpt>
      <trkpt lat="46.19511" lon="5.21501">
        <ele>244</ele>
        <time>2026-05-09T10:21:44Z</time>
      </trkpt>
      <trkpt lat="46.19513" lon="5.21503">
        <ele>244</ele>
        <time>2026-05-09T10:21:45Z</time>
      </trkpt>
      <trkpt lat="46.19516" lon="5.21506">
        <ele>244.2</ele>
        <time>2026-05-09T10:21:46Z</time>
      </trkpt>
      <trkpt lat="46.19518" lon="5.21508">
        <ele>244.2</ele>
        <time>2026-05-09T10:21:47Z</time>
      </trkpt>
      <trkpt lat="46.1952" lon="5.21511">
        <ele>244.2</ele>
        <time>2026-05-09T10:21:48Z</time>
      </trkpt>
      <trkpt lat="46.19522" lon="5.21514">
        <ele>244.2</ele>
        <time>2026-05-09T10:21:49Z</time>
      </trkpt>
      <trkpt lat="46.19524" lon="5.21517">
        <ele>244.8</ele>
        <time>2026-05-09T10:21:50Z</time>
      </trkpt>
      <trkpt lat="46.19526" lon="5.21521">
        <ele>245</ele>
        <time>2026-05-09T10:21:51Z</time>
      </trkpt>
      <trkpt lat="46.19528" lon="5.21524">
        <ele>245</ele>
        <time>2026-05-09T10:21:52Z</time>
      </trkpt>
      <trkpt lat="46.19531" lon="5.21528">
        <ele>245.4</ele>
        <time>2026-05-09T10:21:53Z</time>
      </trkpt>
      <trkpt lat="46.19533" lon="5.21532">
        <ele>245.4</ele>
        <time>2026-05-09T10:21:54Z</time>
      </trkpt>
      <trkpt lat="46.19536" lon="5.21536">
        <ele>245.6</ele>
        <time>2026-05-09T10:21:55Z</time>
      </trkpt>
      <trkpt lat="46.19538" lon="5.2154">
        <ele>245.6</ele>
        <time>2026-05-09T10:21:56Z</time>
      </trkpt>
      <trkpt lat="46.19541" lon="5.21544">
        <ele>246</ele>
        <time>2026-05-09T10:21:57Z</time>
      </trkpt>
      <trkpt lat="46.19543" lon="5.21548">
        <ele>246</ele>
        <time>2026-05-09T10:21:58Z</time>
      </trkpt>
      <trkpt lat="46.19545" lon="5.21553">
        <ele>246</ele>
        <time>2026-05-09T10:21:59Z</time>
      </trkpt>
      <trkpt lat="46.19547" lon="5.21557">
        <ele>246.2</ele>
        <time>2026-05-09T10:22:00Z</time>
      </trkpt>
      <trkpt lat="46.19549" lon="5.21561">
        <ele>246.2</ele>
        <time>2026-05-09T10:22:01Z</time>
      </trkpt>
      <trkpt lat="46.19551" lon="5.21565">
        <ele>246.2</ele>
        <time>2026-05-09T10:22:02Z</time>
      </trkpt>
      <trkpt lat="46.19553" lon="5.21569">
        <ele>246.6</ele>
        <time>2026-05-09T10:22:03Z</time>
      </trkpt>
      <trkpt lat="46.19555" lon="5.21574">
        <ele>247</ele>
        <time>2026-05-09T10:22:04Z</time>
      </trkpt>
      <trkpt lat="46.19556" lon="5.21578">
        <ele>247</ele>
        <time>2026-05-09T10:22:05Z</time>
      </trkpt>
      <trkpt lat="46.19557" lon="5.21582">
        <ele>247.2</ele>
        <time>2026-05-09T10:22:06Z</time>
      </trkpt>
      <trkpt lat="46.19559" lon="5.21586">
        <ele>247.4</ele>
        <time>2026-05-09T10:22:07Z</time>
      </trkpt>
      <trkpt lat="46.19561" lon="5.2159">
        <ele>247.4</ele>
        <time>2026-05-09T10:22:08Z</time>
      </trkpt>
      <trkpt lat="46.19562" lon="5.21594">
        <ele>247.6</ele>
        <time>2026-05-09T10:22:09Z</time>
      </trkpt>
      <trkpt lat="46.19564" lon="5.21598">
        <ele>247.6</ele>
        <time>2026-05-09T10:22:10Z</time>
      </trkpt>
      <trkpt lat="46.19566" lon="5.21603">
        <ele>247.6</ele>
        <time>2026-05-09T10:22:11Z</time>
      </trkpt>
      <trkpt lat="46.19567" lon="5.21607">
        <ele>248</ele>
        <time>2026-05-09T10:22:12Z</time>
      </trkpt>
      <trkpt lat="46.19569" lon="5.21612">
        <ele>248</ele>
        <time>2026-05-09T10:22:13Z</time>
      </trkpt>
      <trkpt lat="46.19571" lon="5.21616">
        <ele>248</ele>
        <time>2026-05-09T10:22:14Z</time>
      </trkpt>
      <trkpt lat="46.19573" lon="5.21621">
        <ele>248.4</ele>
        <time>2026-05-09T10:22:15Z</time>
      </trkpt>
      <trkpt lat="46.19574" lon="5.21625">
        <ele>248.4</ele>
        <time>2026-05-09T10:22:16Z</time>
      </trkpt>
      <trkpt lat="46.19576" lon="5.21629">
        <ele>248.4</ele>
        <time>2026-05-09T10:22:17Z</time>
      </trkpt>
      <trkpt lat="46.19577" lon="5.21631">
        <ele>248.4</ele>
        <time>2026-05-09T10:22:18Z</time>
      </trkpt>
      <trkpt lat="46.19578" lon="5.21634">
        <ele>248.4</ele>
        <time>2026-05-09T10:22:19Z</time>
      </trkpt>
      <trkpt lat="46.19581" lon="5.21636">
        <ele>248.4</ele>
        <time>2026-05-09T10:22:20Z</time>
      </trkpt>
      <trkpt lat="46.19584" lon="5.21637">
        <ele>248.4</ele>
        <time>2026-05-09T10:22:21Z</time>
      </trkpt>
      <trkpt lat="46.19588" lon="5.21636">
        <ele>248.4</ele>
        <time>2026-05-09T10:22:22Z</time>
      </trkpt>
      <trkpt lat="46.19591" lon="5.21636">
        <ele>248.4</ele>
        <time>2026-05-09T10:22:23Z</time>
      </trkpt>
      <trkpt lat="46.19596" lon="5.21636">
        <ele>248.2</ele>
        <time>2026-05-09T10:22:24Z</time>
      </trkpt>
      <trkpt lat="46.19599" lon="5.21638">
        <ele>248.2</ele>
        <time>2026-05-09T10:22:25Z</time>
      </trkpt>
      <trkpt lat="46.19603" lon="5.21641">
        <ele>248.2</ele>
        <time>2026-05-09T10:22:26Z</time>
      </trkpt>
      <trkpt lat="46.19607" lon="5.21643">
        <ele>248.2</ele>
        <time>2026-05-09T10:22:27Z</time>
      </trkpt>
      <trkpt lat="46.19611" lon="5.21644">
        <ele>248</ele>
        <time>2026-05-09T10:22:28Z</time>
      </trkpt>
      <trkpt lat="46.19615" lon="5.21644">
        <ele>248</ele>
        <time>2026-05-09T10:22:29Z</time>
      </trkpt>
      <trkpt lat="46.1962" lon="5.21644">
        <ele>247.4</ele>
        <time>2026-05-09T10:22:30Z</time>
      </trkpt>
      <trkpt lat="46.19625" lon="5.21644">
        <ele>247.2</ele>
        <time>2026-05-09T10:22:31Z</time>
      </trkpt>
      <trkpt lat="46.19631" lon="5.21642">
        <ele>247.2</ele>
        <time>2026-05-09T10:22:32Z</time>
      </trkpt>
      <trkpt lat="46.19638" lon="5.21641">
        <ele>247</ele>
        <time>2026-05-09T10:22:33Z</time>
      </trkpt>
      <trkpt lat="46.19644" lon="5.21639">
        <ele>246.6</ele>
        <time>2026-05-09T10:22:34Z</time>
      </trkpt>
      <trkpt lat="46.19651" lon="5.21638">
        <ele>246.4</ele>
        <time>2026-05-09T10:22:35Z</time>
      </trkpt>
      <trkpt lat="46.19651" lon="5.21638">
        <ele>245.8</ele>
        <time>2026-05-09T10:22:36Z</time>
      </trkpt>
      <trkpt lat="46.19664" lon="5.21636">
        <ele>245.8</ele>
        <time>2026-05-09T10:22:37Z</time>
      </trkpt>
      <trkpt lat="46.19664" lon="5.21636">
        <ele>245.8</ele>
        <time>2026-05-09T10:22:38Z</time>
      </trkpt>
      <trkpt lat="46.1967" lon="5.21634">
        <ele>245.4</ele>
        <time>2026-05-09T10:22:39Z</time>
      </trkpt>
      <trkpt lat="46.19677" lon="5.21633">
        <ele>245.4</ele>
        <time>2026-05-09T10:22:40Z</time>
      </trkpt>
      <trkpt lat="46.19683" lon="5.21632">
        <ele>245</ele>
        <time>2026-05-09T10:22:41Z</time>
      </trkpt>
      <trkpt lat="46.1969" lon="5.21631">
        <ele>244.8</ele>
        <time>2026-05-09T10:22:42Z</time>
      </trkpt>
      <trkpt lat="46.19697" lon="5.21631">
        <ele>244.4</ele>
        <time>2026-05-09T10:22:43Z</time>
      </trkpt>
      <trkpt lat="46.19704" lon="5.2163">
        <ele>244.2</ele>
        <time>2026-05-09T10:22:44Z</time>
      </trkpt>
      <trkpt lat="46.1971" lon="5.2163">
        <ele>244</ele>
        <time>2026-05-09T10:22:45Z</time>
      </trkpt>
      <trkpt lat="46.19716" lon="5.2163">
        <ele>244</ele>
        <time>2026-05-09T10:22:46Z</time>
      </trkpt>
      <trkpt lat="46.19721" lon="5.2163">
        <ele>243.6</ele>
        <time>2026-05-09T10:22:47Z</time>
      </trkpt>
      <trkpt lat="46.19727" lon="5.21629">
        <ele>243.4</ele>
        <time>2026-05-09T10:22:48Z</time>
      </trkpt>
      <trkpt lat="46.19731" lon="5.21628">
        <ele>243</ele>
        <time>2026-05-09T10:22:49Z</time>
      </trkpt>
      <trkpt lat="46.19734" lon="5.21627">
        <ele>242.8</ele>
        <time>2026-05-09T10:22:50Z</time>
      </trkpt>
      <trkpt lat="46.19735" lon="5.21628">
        <ele>242.8</ele>
        <time>2026-05-09T10:22:51Z</time>
      </trkpt>
      <trkpt lat="46.19737" lon="5.21628">
        <ele>242.4</ele>
        <time>2026-05-09T10:22:52Z</time>
      </trkpt>
      <trkpt lat="46.19738" lon="5.2163">
        <ele>242.4</ele>
        <time>2026-05-09T10:22:53Z</time>
      </trkpt>
      <trkpt lat="46.19738" lon="5.21631">
        <ele>242.4</ele>
        <time>2026-05-09T10:22:54Z</time>
      </trkpt>
      <trkpt lat="46.19738" lon="5.21632">
        <ele>242.4</ele>
        <time>2026-05-09T10:22:55Z</time>
      </trkpt>
      <trkpt lat="46.1974" lon="5.21631">
        <ele>242.4</ele>
        <time>2026-05-09T10:22:56Z</time>
      </trkpt>
      <trkpt lat="46.19742" lon="5.21631">
        <ele>242.4</ele>
        <time>2026-05-09T10:22:57Z</time>
      </trkpt>
      <trkpt lat="46.19744" lon="5.21632">
        <ele>242.2</ele>
        <time>2026-05-09T10:22:58Z</time>
      </trkpt>
      <trkpt lat="46.19748" lon="5.21632">
        <ele>242.2</ele>
        <time>2026-05-09T10:22:59Z</time>
      </trkpt>
      <trkpt lat="46.19751" lon="5.21632">
        <ele>242.2</ele>
        <time>2026-05-09T10:23:00Z</time>
      </trkpt>
      <trkpt lat="46.19756" lon="5.2163">
        <ele>242.2</ele>
        <time>2026-05-09T10:23:01Z</time>
      </trkpt>
      <trkpt lat="46.1976" lon="5.21627">
        <ele>242.2</ele>
        <time>2026-05-09T10:23:02Z</time>
      </trkpt>
      <trkpt lat="46.19765" lon="5.21626">
        <ele>242.4</ele>
        <time>2026-05-09T10:23:03Z</time>
      </trkpt>
      <trkpt lat="46.1977" lon="5.21624">
        <ele>242.4</ele>
        <time>2026-05-09T10:23:04Z</time>
      </trkpt>
      <trkpt lat="46.19775" lon="5.21622">
        <ele>242.4</ele>
        <time>2026-05-09T10:23:05Z</time>
      </trkpt>
      <trkpt lat="46.1978" lon="5.21621">
        <ele>242.4</ele>
        <time>2026-05-09T10:23:06Z</time>
      </trkpt>
      <trkpt lat="46.19784" lon="5.21619">
        <ele>242.4</ele>
        <time>2026-05-09T10:23:07Z</time>
      </trkpt>
      <trkpt lat="46.1979" lon="5.21617">
        <ele>242.4</ele>
        <time>2026-05-09T10:23:08Z</time>
      </trkpt>
      <trkpt lat="46.19794" lon="5.21617">
        <ele>242.2</ele>
        <time>2026-05-09T10:23:09Z</time>
      </trkpt>
      <trkpt lat="46.19797" lon="5.2162">
        <ele>242.2</ele>
        <time>2026-05-09T10:23:10Z</time>
      </trkpt>
      <trkpt lat="46.198" lon="5.21625">
        <ele>242.2</ele>
        <time>2026-05-09T10:23:11Z</time>
      </trkpt>
      <trkpt lat="46.19801" lon="5.21631">
        <ele>242.2</ele>
        <time>2026-05-09T10:23:12Z</time>
      </trkpt>
      <trkpt lat="46.198" lon="5.21637">
        <ele>242.2</ele>
        <time>2026-05-09T10:23:13Z</time>
      </trkpt>
      <trkpt lat="46.198" lon="5.21644">
        <ele>242.2</ele>
        <time>2026-05-09T10:23:14Z</time>
      </trkpt>
      <trkpt lat="46.19801" lon="5.2165">
        <ele>242.2</ele>
        <time>2026-05-09T10:23:15Z</time>
      </trkpt>
      <trkpt lat="46.19801" lon="5.21656">
        <ele>242.2</ele>
        <time>2026-05-09T10:23:16Z</time>
      </trkpt>
      <trkpt lat="46.19802" lon="5.21662">
        <ele>242.2</ele>
        <time>2026-05-09T10:23:17Z</time>
      </trkpt>
      <trkpt lat="46.19802" lon="5.21669">
        <ele>242.2</ele>
        <time>2026-05-09T10:23:18Z</time>
      </trkpt>
      <trkpt lat="46.19803" lon="5.21675">
        <ele>242.2</ele>
        <time>2026-05-09T10:23:19Z</time>
      </trkpt>
      <trkpt lat="46.19804" lon="5.21681">
        <ele>242.2</ele>
        <time>2026-05-09T10:23:20Z</time>
      </trkpt>
      <trkpt lat="46.19804" lon="5.21687">
        <ele>242.2</ele>
        <time>2026-05-09T10:23:21Z</time>
      </trkpt>
      <trkpt lat="46.19805" lon="5.21694">
        <ele>241.8</ele>
        <time>2026-05-09T10:23:22Z</time>
      </trkpt>
      <trkpt lat="46.19805" lon="5.21697">
        <ele>241.8</ele>
        <time>2026-05-09T10:23:23Z</time>
      </trkpt>
      <trkpt lat="46.19804" lon="5.217">
        <ele>241.8</ele>
        <time>2026-05-09T10:23:24Z</time>
      </trkpt>
      <trkpt lat="46.19803" lon="5.21702">
        <ele>241.8</ele>
        <time>2026-05-09T10:23:25Z</time>
      </trkpt>
      <trkpt lat="46.19802" lon="5.21704">
        <ele>241.8</ele>
        <time>2026-05-09T10:23:26Z</time>
      </trkpt>
      <trkpt lat="46.19802" lon="5.21707">
        <ele>241.6</ele>
        <time>2026-05-09T10:23:27Z</time>
      </trkpt>
      <trkpt lat="46.19802" lon="5.2171">
        <ele>241.6</ele>
        <time>2026-05-09T10:23:28Z</time>
      </trkpt>
      <trkpt lat="46.19804" lon="5.21714">
        <ele>241.6</ele>
        <time>2026-05-09T10:23:29Z</time>
      </trkpt>
      <trkpt lat="46.19806" lon="5.21718">
        <ele>241.4</ele>
        <time>2026-05-09T10:23:30Z</time>
      </trkpt>
      <trkpt lat="46.1981" lon="5.2172">
        <ele>241.4</ele>
        <time>2026-05-09T10:23:31Z</time>
      </trkpt>
      <trkpt lat="46.19813" lon="5.21723">
        <ele>241.4</ele>
        <time>2026-05-09T10:23:32Z</time>
      </trkpt>
      <trkpt lat="46.19817" lon="5.21726">
        <ele>241.4</ele>
        <time>2026-05-09T10:23:33Z</time>
      </trkpt>
      <trkpt lat="46.19822" lon="5.21728">
        <ele>240.4</ele>
        <time>2026-05-09T10:23:34Z</time>
      </trkpt>
      <trkpt lat="46.19827" lon="5.2173">
        <ele>240.4</ele>
        <time>2026-05-09T10:23:35Z</time>
      </trkpt>
      <trkpt lat="46.19831" lon="5.21733">
        <ele>240.8</ele>
        <time>2026-05-09T10:23:36Z</time>
      </trkpt>
      <trkpt lat="46.19835" lon="5.21736">
        <ele>240.8</ele>
        <time>2026-05-09T10:23:37Z</time>
      </trkpt>
      <trkpt lat="46.19839" lon="5.21738">
        <ele>240.4</ele>
        <time>2026-05-09T10:23:38Z</time>
      </trkpt>
      <trkpt lat="46.19843" lon="5.21741">
        <ele>241.2</ele>
        <time>2026-05-09T10:23:39Z</time>
      </trkpt>
      <trkpt lat="46.19848" lon="5.21743">
        <ele>241.4</ele>
        <time>2026-05-09T10:23:40Z</time>
      </trkpt>
      <trkpt lat="46.19852" lon="5.21746">
        <ele>241.4</ele>
        <time>2026-05-09T10:23:41Z</time>
      </trkpt>
      <trkpt lat="46.19856" lon="5.21749">
        <ele>241.4</ele>
        <time>2026-05-09T10:23:42Z</time>
      </trkpt>
      <trkpt lat="46.19858" lon="5.21753">
        <ele>241.8</ele>
        <time>2026-05-09T10:23:43Z</time>
      </trkpt>
      <trkpt lat="46.19863" lon="5.21756">
        <ele>241.8</ele>
        <time>2026-05-09T10:23:44Z</time>
      </trkpt>
      <trkpt lat="46.19867" lon="5.21758">
        <ele>241.8</ele>
        <time>2026-05-09T10:23:45Z</time>
      </trkpt>
      <trkpt lat="46.19871" lon="5.21761">
        <ele>241.8</ele>
        <time>2026-05-09T10:23:46Z</time>
      </trkpt>
      <trkpt lat="46.19875" lon="5.21765">
        <ele>241.8</ele>
        <time>2026-05-09T10:23:47Z</time>
      </trkpt>
      <trkpt lat="46.19879" lon="5.21767">
        <ele>241.8</ele>
        <time>2026-05-09T10:23:48Z</time>
      </trkpt>
      <trkpt lat="46.19883" lon="5.2177">
        <ele>241.8</ele>
        <time>2026-05-09T10:23:49Z</time>
      </trkpt>
      <trkpt lat="46.19887" lon="5.21773">
        <ele>241.8</ele>
        <time>2026-05-09T10:23:50Z</time>
      </trkpt>
      <trkpt lat="46.19891" lon="5.21776">
        <ele>242</ele>
        <time>2026-05-09T10:23:51Z</time>
      </trkpt>
      <trkpt lat="46.19895" lon="5.21779">
        <ele>242</ele>
        <time>2026-05-09T10:23:52Z</time>
      </trkpt>
      <trkpt lat="46.199" lon="5.21782">
        <ele>242</ele>
        <time>2026-05-09T10:23:53Z</time>
      </trkpt>
      <trkpt lat="46.19904" lon="5.21786">
        <ele>242</ele>
        <time>2026-05-09T10:23:54Z</time>
      </trkpt>
      <trkpt lat="46.19909" lon="5.2179">
        <ele>242</ele>
        <time>2026-05-09T10:23:55Z</time>
      </trkpt>
      <trkpt lat="46.19913" lon="5.21793">
        <ele>242</ele>
        <time>2026-05-09T10:23:56Z</time>
      </trkpt>
      <trkpt lat="46.19917" lon="5.21797">
        <ele>241.8</ele>
        <time>2026-05-09T10:23:57Z</time>
      </trkpt>
      <trkpt lat="46.19921" lon="5.21799">
        <ele>241.8</ele>
        <time>2026-05-09T10:23:58Z</time>
      </trkpt>
      <trkpt lat="46.19931" lon="5.21805">
        <ele>241.6</ele>
        <time>2026-05-09T10:23:59Z</time>
      </trkpt>
      <trkpt lat="46.19935" lon="5.21809">
        <ele>241.8</ele>
        <time>2026-05-09T10:24:00Z</time>
      </trkpt>
      <trkpt lat="46.19939" lon="5.21813">
        <ele>241.8</ele>
        <time>2026-05-09T10:24:01Z</time>
      </trkpt>
      <trkpt lat="46.19944" lon="5.21815">
        <ele>241.8</ele>
        <time>2026-05-09T10:24:02Z</time>
      </trkpt>
      <trkpt lat="46.19947" lon="5.2182">
        <ele>241.8</ele>
        <time>2026-05-09T10:24:03Z</time>
      </trkpt>
      <trkpt lat="46.19951" lon="5.21823">
        <ele>241.8</ele>
        <time>2026-05-09T10:24:04Z</time>
      </trkpt>
      <trkpt lat="46.19956" lon="5.21825">
        <ele>241.8</ele>
        <time>2026-05-09T10:24:05Z</time>
      </trkpt>
      <trkpt lat="46.1996" lon="5.21828">
        <ele>241.8</ele>
        <time>2026-05-09T10:24:06Z</time>
      </trkpt>
      <trkpt lat="46.19964" lon="5.21831">
        <ele>241.8</ele>
        <time>2026-05-09T10:24:07Z</time>
      </trkpt>
      <trkpt lat="46.19966" lon="5.21833">
        <ele>241.8</ele>
        <time>2026-05-09T10:24:08Z</time>
      </trkpt>
      <trkpt lat="46.1997" lon="5.21836">
        <ele>241.8</ele>
        <time>2026-05-09T10:24:09Z</time>
      </trkpt>
      <trkpt lat="46.19976" lon="5.21839">
        <ele>241.8</ele>
        <time>2026-05-09T10:24:10Z</time>
      </trkpt>
      <trkpt lat="46.19978" lon="5.21843">
        <ele>241.8</ele>
        <time>2026-05-09T10:24:11Z</time>
      </trkpt>
      <trkpt lat="46.19982" lon="5.21845">
        <ele>241.8</ele>
        <time>2026-05-09T10:24:12Z</time>
      </trkpt>
      <trkpt lat="46.19986" lon="5.21848">
        <ele>241.8</ele>
        <time>2026-05-09T10:24:13Z</time>
      </trkpt>
      <trkpt lat="46.19991" lon="5.21851">
        <ele>241.8</ele>
        <time>2026-05-09T10:24:14Z</time>
      </trkpt>
      <trkpt lat="46.19995" lon="5.21854">
        <ele>241.8</ele>
        <time>2026-05-09T10:24:15Z</time>
      </trkpt>
      <trkpt lat="46.2" lon="5.21857">
        <ele>241.8</ele>
        <time>2026-05-09T10:24:16Z</time>
      </trkpt>
      <trkpt lat="46.20004" lon="5.21861">
        <ele>242</ele>
        <time>2026-05-09T10:24:17Z</time>
      </trkpt>
      <trkpt lat="46.20008" lon="5.21865">
        <ele>242</ele>
        <time>2026-05-09T10:24:18Z</time>
      </trkpt>
      <trkpt lat="46.20012" lon="5.21868">
        <ele>242</ele>
        <time>2026-05-09T10:24:19Z</time>
      </trkpt>
      <trkpt lat="46.20016" lon="5.21869">
        <ele>242</ele>
        <time>2026-05-09T10:24:20Z</time>
      </trkpt>
      <trkpt lat="46.20022" lon="5.21874">
        <ele>242</ele>
        <time>2026-05-09T10:24:21Z</time>
      </trkpt>
      <trkpt lat="46.20027" lon="5.21877">
        <ele>242.6</ele>
        <time>2026-05-09T10:24:22Z</time>
      </trkpt>
      <trkpt lat="46.2003" lon="5.21881">
        <ele>243</ele>
        <time>2026-05-09T10:24:23Z</time>
      </trkpt>
      <trkpt lat="46.20034" lon="5.21882">
        <ele>243</ele>
        <time>2026-05-09T10:24:24Z</time>
      </trkpt>
      <trkpt lat="46.20037" lon="5.21885">
        <ele>242.6</ele>
        <time>2026-05-09T10:24:25Z</time>
      </trkpt>
      <trkpt lat="46.20041" lon="5.21888">
        <ele>242.6</ele>
        <time>2026-05-09T10:24:26Z</time>
      </trkpt>
      <trkpt lat="46.20045" lon="5.21893">
        <ele>242.6</ele>
        <time>2026-05-09T10:24:27Z</time>
      </trkpt>
      <trkpt lat="46.20048" lon="5.21897">
        <ele>242.6</ele>
        <time>2026-05-09T10:24:28Z</time>
      </trkpt>
      <trkpt lat="46.20052" lon="5.219">
        <ele>242.6</ele>
        <time>2026-05-09T10:24:29Z</time>
      </trkpt>
      <trkpt lat="46.20055" lon="5.21903">
        <ele>242.6</ele>
        <time>2026-05-09T10:24:30Z</time>
      </trkpt>
      <trkpt lat="46.20057" lon="5.21907">
        <ele>241.8</ele>
        <time>2026-05-09T10:24:31Z</time>
      </trkpt>
      <trkpt lat="46.20058" lon="5.21912">
        <ele>242</ele>
        <time>2026-05-09T10:24:32Z</time>
      </trkpt>
      <trkpt lat="46.20059" lon="5.21918">
        <ele>242</ele>
        <time>2026-05-09T10:24:33Z</time>
      </trkpt>
      <trkpt lat="46.20059" lon="5.21924">
        <ele>242</ele>
        <time>2026-05-09T10:24:34Z</time>
      </trkpt>
      <trkpt lat="46.20059" lon="5.21931">
        <ele>242</ele>
        <time>2026-05-09T10:24:35Z</time>
      </trkpt>
      <trkpt lat="46.2006" lon="5.21938">
        <ele>242</ele>
        <time>2026-05-09T10:24:36Z</time>
      </trkpt>
      <trkpt lat="46.2006" lon="5.21946">
        <ele>242</ele>
        <time>2026-05-09T10:24:37Z</time>
      </trkpt>
      <trkpt lat="46.20059" lon="5.21953">
        <ele>242</ele>
        <time>2026-05-09T10:24:38Z</time>
      </trkpt>
      <trkpt lat="46.2006" lon="5.21961">
        <ele>241.8</ele>
        <time>2026-05-09T10:24:39Z</time>
      </trkpt>
      <trkpt lat="46.2006" lon="5.2197">
        <ele>241.8</ele>
        <time>2026-05-09T10:24:40Z</time>
      </trkpt>
      <trkpt lat="46.2006" lon="5.21977">
        <ele>241.4</ele>
        <time>2026-05-09T10:24:41Z</time>
      </trkpt>
      <trkpt lat="46.20059" lon="5.21986">
        <ele>241.4</ele>
        <time>2026-05-09T10:24:42Z</time>
      </trkpt>
      <trkpt lat="46.20058" lon="5.21995">
        <ele>241.4</ele>
        <time>2026-05-09T10:24:43Z</time>
      </trkpt>
      <trkpt lat="46.20058" lon="5.22004">
        <ele>241</ele>
        <time>2026-05-09T10:24:44Z</time>
      </trkpt>
      <trkpt lat="46.20059" lon="5.22014">
        <ele>241</ele>
        <time>2026-05-09T10:24:45Z</time>
      </trkpt>
      <trkpt lat="46.2006" lon="5.22023">
        <ele>240.8</ele>
        <time>2026-05-09T10:24:46Z</time>
      </trkpt>
      <trkpt lat="46.2006" lon="5.22032">
        <ele>240.8</ele>
        <time>2026-05-09T10:24:47Z</time>
      </trkpt>
      <trkpt lat="46.2006" lon="5.22042">
        <ele>240.6</ele>
        <time>2026-05-09T10:24:48Z</time>
      </trkpt>
      <trkpt lat="46.20059" lon="5.22051">
        <ele>240.6</ele>
        <time>2026-05-09T10:24:49Z</time>
      </trkpt>
      <trkpt lat="46.2006" lon="5.2206">
        <ele>240.2</ele>
        <time>2026-05-09T10:24:50Z</time>
      </trkpt>
      <trkpt lat="46.2006" lon="5.22069">
        <ele>240.2</ele>
        <time>2026-05-09T10:24:51Z</time>
      </trkpt>
      <trkpt lat="46.20061" lon="5.22077">
        <ele>240.2</ele>
        <time>2026-05-09T10:24:52Z</time>
      </trkpt>
      <trkpt lat="46.2006" lon="5.22086">
        <ele>240.2</ele>
        <time>2026-05-09T10:24:53Z</time>
      </trkpt>
      <trkpt lat="46.20061" lon="5.22096">
        <ele>240.2</ele>
        <time>2026-05-09T10:24:54Z</time>
      </trkpt>
      <trkpt lat="46.20061" lon="5.22105">
        <ele>240.2</ele>
        <time>2026-05-09T10:24:55Z</time>
      </trkpt>
      <trkpt lat="46.20061" lon="5.22114">
        <ele>240.2</ele>
        <time>2026-05-09T10:24:56Z</time>
      </trkpt>
      <trkpt lat="46.20061" lon="5.22125">
        <ele>240</ele>
        <time>2026-05-09T10:24:57Z</time>
      </trkpt>
      <trkpt lat="46.2006" lon="5.22134">
        <ele>239.6</ele>
        <time>2026-05-09T10:24:58Z</time>
      </trkpt>
      <trkpt lat="46.20061" lon="5.22143">
        <ele>239.6</ele>
        <time>2026-05-09T10:24:59Z</time>
      </trkpt>
      <trkpt lat="46.20061" lon="5.22152">
        <ele>239.2</ele>
        <time>2026-05-09T10:25:00Z</time>
      </trkpt>
      <trkpt lat="46.2006" lon="5.22161">
        <ele>239.2</ele>
        <time>2026-05-09T10:25:01Z</time>
      </trkpt>
      <trkpt lat="46.2006" lon="5.2217">
        <ele>239</ele>
        <time>2026-05-09T10:25:02Z</time>
      </trkpt>
      <trkpt lat="46.2006" lon="5.2218">
        <ele>238.8</ele>
        <time>2026-05-09T10:25:03Z</time>
      </trkpt>
      <trkpt lat="46.20061" lon="5.22189">
        <ele>238.4</ele>
        <time>2026-05-09T10:25:04Z</time>
      </trkpt>
      <trkpt lat="46.20061" lon="5.22198">
        <ele>238.2</ele>
        <time>2026-05-09T10:25:05Z</time>
      </trkpt>
      <trkpt lat="46.20061" lon="5.22208">
        <ele>238</ele>
        <time>2026-05-09T10:25:06Z</time>
      </trkpt>
      <trkpt lat="46.20061" lon="5.22218">
        <ele>237.8</ele>
        <time>2026-05-09T10:25:07Z</time>
      </trkpt>
      <trkpt lat="46.20061" lon="5.22228">
        <ele>237.4</ele>
        <time>2026-05-09T10:25:08Z</time>
      </trkpt>
      <trkpt lat="46.2006" lon="5.22237">
        <ele>237.4</ele>
        <time>2026-05-09T10:25:09Z</time>
      </trkpt>
      <trkpt lat="46.2006" lon="5.22248">
        <ele>237</ele>
        <time>2026-05-09T10:25:10Z</time>
      </trkpt>
      <trkpt lat="46.2006" lon="5.22258">
        <ele>236.8</ele>
        <time>2026-05-09T10:25:11Z</time>
      </trkpt>
      <trkpt lat="46.20059" lon="5.22269">
        <ele>236.8</ele>
        <time>2026-05-09T10:25:12Z</time>
      </trkpt>
      <trkpt lat="46.2006" lon="5.22279">
        <ele>236.4</ele>
        <time>2026-05-09T10:25:13Z</time>
      </trkpt>
      <trkpt lat="46.2006" lon="5.22289">
        <ele>236.2</ele>
        <time>2026-05-09T10:25:14Z</time>
      </trkpt>
      <trkpt lat="46.2006" lon="5.22299">
        <ele>236.2</ele>
        <time>2026-05-09T10:25:15Z</time>
      </trkpt>
      <trkpt lat="46.2006" lon="5.22309">
        <ele>236.2</ele>
        <time>2026-05-09T10:25:16Z</time>
      </trkpt>
      <trkpt lat="46.20059" lon="5.22319">
        <ele>236</ele>
        <time>2026-05-09T10:25:17Z</time>
      </trkpt>
      <trkpt lat="46.20059" lon="5.2233">
        <ele>236</ele>
        <time>2026-05-09T10:25:18Z</time>
      </trkpt>
      <trkpt lat="46.20058" lon="5.2234">
        <ele>235.6</ele>
        <time>2026-05-09T10:25:19Z</time>
      </trkpt>
      <trkpt lat="46.20058" lon="5.2235">
        <ele>235.6</ele>
        <time>2026-05-09T10:25:20Z</time>
      </trkpt>
      <trkpt lat="46.20058" lon="5.2235">
        <ele>235.4</ele>
        <time>2026-05-09T10:25:21Z</time>
      </trkpt>
      <trkpt lat="46.20057" lon="5.22359">
        <ele>235</ele>
        <time>2026-05-09T10:25:22Z</time>
      </trkpt>
      <trkpt lat="46.20057" lon="5.22369">
        <ele>235</ele>
        <time>2026-05-09T10:25:23Z</time>
      </trkpt>
      <trkpt lat="46.20056" lon="5.22378">
        <ele>235</ele>
        <time>2026-05-09T10:25:24Z</time>
      </trkpt>
      <trkpt lat="46.20056" lon="5.22387">
        <ele>234.4</ele>
        <time>2026-05-09T10:25:25Z</time>
      </trkpt>
      <trkpt lat="46.20056" lon="5.22396">
        <ele>233.8</ele>
        <time>2026-05-09T10:25:26Z</time>
      </trkpt>
      <trkpt lat="46.20056" lon="5.22405">
        <ele>233.4</ele>
        <time>2026-05-09T10:25:27Z</time>
      </trkpt>
      <trkpt lat="46.20057" lon="5.22414">
        <ele>233</ele>
        <time>2026-05-09T10:25:28Z</time>
      </trkpt>
      <trkpt lat="46.20057" lon="5.22421">
        <ele>232.8</ele>
        <time>2026-05-09T10:25:29Z</time>
      </trkpt>
      <trkpt lat="46.20058" lon="5.22428">
        <ele>232.6</ele>
        <time>2026-05-09T10:25:30Z</time>
      </trkpt>
      <trkpt lat="46.20058" lon="5.22436">
        <ele>232.2</ele>
        <time>2026-05-09T10:25:31Z</time>
      </trkpt>
      <trkpt lat="46.20057" lon="5.22444">
        <ele>232.2</ele>
        <time>2026-05-09T10:25:32Z</time>
      </trkpt>
      <trkpt lat="46.20056" lon="5.22451">
        <ele>232</ele>
        <time>2026-05-09T10:25:33Z</time>
      </trkpt>
      <trkpt lat="46.20056" lon="5.22455">
        <ele>232</ele>
        <time>2026-05-09T10:25:34Z</time>
      </trkpt>
      <trkpt lat="46.20056" lon="5.22459">
        <ele>231.6</ele>
        <time>2026-05-09T10:25:35Z</time>
      </trkpt>
      <trkpt lat="46.20056" lon="5.22462">
        <ele>231.6</ele>
        <time>2026-05-09T10:25:36Z</time>
      </trkpt>
      <trkpt lat="46.20056" lon="5.22464">
        <ele>231.4</ele>
        <time>2026-05-09T10:25:37Z</time>
      </trkpt>
      <trkpt lat="46.20056" lon="5.22466">
        <ele>231.4</ele>
        <time>2026-05-09T10:25:38Z</time>
      </trkpt>
      <trkpt lat="46.20056" lon="5.22468">
        <ele>231</ele>
        <time>2026-05-09T10:25:39Z</time>
      </trkpt>
      <trkpt lat="46.20056" lon="5.22468">
        <ele>231</ele>
        <time>2026-05-09T10:25:40Z</time>
      </trkpt>
      <trkpt lat="46.20056" lon="5.22468">
        <ele>231</ele>
        <time>2026-05-09T10:25:41Z</time>
      </trkpt>
      <trkpt lat="46.20055" lon="5.22471">
        <ele>231</ele>
        <time>2026-05-09T10:25:45Z</time>
      </trkpt>
      <trkpt lat="46.20054" lon="5.22474">
        <ele>231</ele>
        <time>2026-05-09T10:25:46Z</time>
      </trkpt>
      <trkpt lat="46.20053" lon="5.22478">
        <ele>231</ele>
        <time>2026-05-09T10:25:47Z</time>
      </trkpt>
      <trkpt lat="46.20052" lon="5.22483">
        <ele>230.8</ele>
        <time>2026-05-09T10:25:48Z</time>
      </trkpt>
      <trkpt lat="46.2005" lon="5.22488">
        <ele>230.8</ele>
        <time>2026-05-09T10:25:49Z</time>
      </trkpt>
      <trkpt lat="46.20048" lon="5.22493">
        <ele>230.8</ele>
        <time>2026-05-09T10:25:50Z</time>
      </trkpt>
      <trkpt lat="46.20047" lon="5.22498">
        <ele>230.8</ele>
        <time>2026-05-09T10:25:51Z</time>
      </trkpt>
      <trkpt lat="46.20044" lon="5.22504">
        <ele>230.8</ele>
        <time>2026-05-09T10:25:52Z</time>
      </trkpt>
      <trkpt lat="46.20042" lon="5.22511">
        <ele>230.8</ele>
        <time>2026-05-09T10:25:53Z</time>
      </trkpt>
      <trkpt lat="46.2004" lon="5.22518">
        <ele>230.8</ele>
        <time>2026-05-09T10:25:54Z</time>
      </trkpt>
      <trkpt lat="46.20037" lon="5.22525">
        <ele>231.2</ele>
        <time>2026-05-09T10:25:55Z</time>
      </trkpt>
      <trkpt lat="46.20035" lon="5.22529">
        <ele>231.2</ele>
        <time>2026-05-09T10:25:56Z</time>
      </trkpt>
      <trkpt lat="46.20033" lon="5.22536">
        <ele>231.2</ele>
        <time>2026-05-09T10:25:57Z</time>
      </trkpt>
      <trkpt lat="46.20032" lon="5.22542">
        <ele>231.4</ele>
        <time>2026-05-09T10:25:58Z</time>
      </trkpt>
      <trkpt lat="46.2003" lon="5.22548">
        <ele>231.4</ele>
        <time>2026-05-09T10:25:59Z</time>
      </trkpt>
      <trkpt lat="46.20028" lon="5.22554">
        <ele>231.6</ele>
        <time>2026-05-09T10:26:00Z</time>
      </trkpt>
      <trkpt lat="46.20027" lon="5.2256">
        <ele>231.6</ele>
        <time>2026-05-09T10:26:01Z</time>
      </trkpt>
      <trkpt lat="46.20026" lon="5.22565">
        <ele>231.6</ele>
        <time>2026-05-09T10:26:02Z</time>
      </trkpt>
      <trkpt lat="46.20025" lon="5.2257">
        <ele>231.8</ele>
        <time>2026-05-09T10:26:03Z</time>
      </trkpt>
      <trkpt lat="46.20024" lon="5.22574">
        <ele>231.8</ele>
        <time>2026-05-09T10:26:04Z</time>
      </trkpt>
      <trkpt lat="46.20023" lon="5.22578">
        <ele>232</ele>
        <time>2026-05-09T10:26:05Z</time>
      </trkpt>
      <trkpt lat="46.20023" lon="5.2258">
        <ele>232</ele>
        <time>2026-05-09T10:26:06Z</time>
      </trkpt>
      <trkpt lat="46.20023" lon="5.22582">
        <ele>232</ele>
        <time>2026-05-09T10:26:07Z</time>
      </trkpt>
      <trkpt lat="46.20022" lon="5.22584">
        <ele>232</ele>
        <time>2026-05-09T10:26:08Z</time>
      </trkpt>
      <trkpt lat="46.20022" lon="5.22584">
        <ele>232</ele>
        <time>2026-05-09T10:26:09Z</time>
      </trkpt>
      <trkpt lat="46.20022" lon="5.22583">
        <ele>232</ele>
        <time>2026-05-09T10:26:10Z</time>
      </trkpt>
      <trkpt lat="46.20021" lon="5.22585">
        <ele>232</ele>
        <time>2026-05-09T10:26:24Z</time>
      </trkpt>
      <trkpt lat="46.20021" lon="5.22587">
        <ele>232</ele>
        <time>2026-05-09T10:26:25Z</time>
      </trkpt>
      <trkpt lat="46.2002" lon="5.22591">
        <ele>232</ele>
        <time>2026-05-09T10:26:26Z</time>
      </trkpt>
      <trkpt lat="46.2002" lon="5.22594">
        <ele>232</ele>
        <time>2026-05-09T10:26:27Z</time>
      </trkpt>
      <trkpt lat="46.20019" lon="5.22598">
        <ele>232</ele>
        <time>2026-05-09T10:26:28Z</time>
      </trkpt>
      <trkpt lat="46.20019" lon="5.22603">
        <ele>232</ele>
        <time>2026-05-09T10:26:29Z</time>
      </trkpt>
      <trkpt lat="46.20019" lon="5.22607">
        <ele>232</ele>
        <time>2026-05-09T10:26:30Z</time>
      </trkpt>
      <trkpt lat="46.20018" lon="5.22612">
        <ele>232</ele>
        <time>2026-05-09T10:26:31Z</time>
      </trkpt>
      <trkpt lat="46.20018" lon="5.22617">
        <ele>232.2</ele>
        <time>2026-05-09T10:26:32Z</time>
      </trkpt>
      <trkpt lat="46.20019" lon="5.22623">
        <ele>232.2</ele>
        <time>2026-05-09T10:26:33Z</time>
      </trkpt>
      <trkpt lat="46.20019" lon="5.22629">
        <ele>232.2</ele>
        <time>2026-05-09T10:26:34Z</time>
      </trkpt>
      <trkpt lat="46.20019" lon="5.22635">
        <ele>232.2</ele>
        <time>2026-05-09T10:26:35Z</time>
      </trkpt>
      <trkpt lat="46.20022" lon="5.2264">
        <ele>232.2</ele>
        <time>2026-05-09T10:26:36Z</time>
      </trkpt>
      <trkpt lat="46.20023" lon="5.22646">
        <ele>232.6</ele>
        <time>2026-05-09T10:26:37Z</time>
      </trkpt>
      <trkpt lat="46.20025" lon="5.22651">
        <ele>232.6</ele>
        <time>2026-05-09T10:26:38Z</time>
      </trkpt>
      <trkpt lat="46.20028" lon="5.22657">
        <ele>232.6</ele>
        <time>2026-05-09T10:26:39Z</time>
      </trkpt>
      <trkpt lat="46.20029" lon="5.22663">
        <ele>232.6</ele>
        <time>2026-05-09T10:26:40Z</time>
      </trkpt>
      <trkpt lat="46.20031" lon="5.22669">
        <ele>232.6</ele>
        <time>2026-05-09T10:26:41Z</time>
      </trkpt>
      <trkpt lat="46.20034" lon="5.22674">
        <ele>232.6</ele>
        <time>2026-05-09T10:26:42Z</time>
      </trkpt>
      <trkpt lat="46.20036" lon="5.22681">
        <ele>232.6</ele>
        <time>2026-05-09T10:26:43Z</time>
      </trkpt>
      <trkpt lat="46.20037" lon="5.22687">
        <ele>232.6</ele>
        <time>2026-05-09T10:26:44Z</time>
      </trkpt>
      <trkpt lat="46.20039" lon="5.22693">
        <ele>232.8</ele>
        <time>2026-05-09T10:26:45Z</time>
      </trkpt>
      <trkpt lat="46.20042" lon="5.22699">
        <ele>232.8</ele>
        <time>2026-05-09T10:26:46Z</time>
      </trkpt>
      <trkpt lat="46.20043" lon="5.22705">
        <ele>232.8</ele>
        <time>2026-05-09T10:26:47Z</time>
      </trkpt>
      <trkpt lat="46.20048" lon="5.22717">
        <ele>232.8</ele>
        <time>2026-05-09T10:26:48Z</time>
      </trkpt>
      <trkpt lat="46.2005" lon="5.22723">
        <ele>232.8</ele>
        <time>2026-05-09T10:26:49Z</time>
      </trkpt>
      <trkpt lat="46.20052" lon="5.22728">
        <ele>232.8</ele>
        <time>2026-05-09T10:26:50Z</time>
      </trkpt>
      <trkpt lat="46.20054" lon="5.22734">
        <ele>233.2</ele>
        <time>2026-05-09T10:26:51Z</time>
      </trkpt>
      <trkpt lat="46.20056" lon="5.22739">
        <ele>233.2</ele>
        <time>2026-05-09T10:26:52Z</time>
      </trkpt>
      <trkpt lat="46.20057" lon="5.22744">
        <ele>233.2</ele>
        <time>2026-05-09T10:26:53Z</time>
      </trkpt>
      <trkpt lat="46.20059" lon="5.2275">
        <ele>233.4</ele>
        <time>2026-05-09T10:26:54Z</time>
      </trkpt>
      <trkpt lat="46.20061" lon="5.22756">
        <ele>232</ele>
        <time>2026-05-09T10:26:55Z</time>
      </trkpt>
      <trkpt lat="46.20064" lon="5.22762">
        <ele>232.4</ele>
        <time>2026-05-09T10:26:56Z</time>
      </trkpt>
      <trkpt lat="46.20066" lon="5.22768">
        <ele>232.8</ele>
        <time>2026-05-09T10:26:57Z</time>
      </trkpt>
      <trkpt lat="46.20068" lon="5.22773">
        <ele>233.2</ele>
        <time>2026-05-09T10:26:58Z</time>
      </trkpt>
      <trkpt lat="46.2007" lon="5.22779">
        <ele>233.4</ele>
        <time>2026-05-09T10:26:59Z</time>
      </trkpt>
      <trkpt lat="46.20073" lon="5.22785">
        <ele>233.6</ele>
        <time>2026-05-09T10:27:00Z</time>
      </trkpt>
      <trkpt lat="46.20074" lon="5.2279">
        <ele>233.6</ele>
        <time>2026-05-09T10:27:01Z</time>
      </trkpt>
      <trkpt lat="46.20076" lon="5.22796">
        <ele>234</ele>
        <time>2026-05-09T10:27:02Z</time>
      </trkpt>
      <trkpt lat="46.20078" lon="5.22801">
        <ele>234</ele>
        <time>2026-05-09T10:27:03Z</time>
      </trkpt>
      <trkpt lat="46.2008" lon="5.22807">
        <ele>234</ele>
        <time>2026-05-09T10:27:04Z</time>
      </trkpt>
      <trkpt lat="46.20082" lon="5.22813">
        <ele>234.4</ele>
        <time>2026-05-09T10:27:05Z</time>
      </trkpt>
      <trkpt lat="46.20085" lon="5.22818">
        <ele>234.4</ele>
        <time>2026-05-09T10:27:06Z</time>
      </trkpt>
      <trkpt lat="46.20087" lon="5.22824">
        <ele>234.6</ele>
        <time>2026-05-09T10:27:07Z</time>
      </trkpt>
      <trkpt lat="46.20089" lon="5.22829">
        <ele>234.6</ele>
        <time>2026-05-09T10:27:08Z</time>
      </trkpt>
      <trkpt lat="46.2009" lon="5.22834">
        <ele>234.6</ele>
        <time>2026-05-09T10:27:09Z</time>
      </trkpt>
      <trkpt lat="46.20093" lon="5.22839">
        <ele>234.8</ele>
        <time>2026-05-09T10:27:10Z</time>
      </trkpt>
      <trkpt lat="46.20093" lon="5.22844">
        <ele>234.8</ele>
        <time>2026-05-09T10:27:11Z</time>
      </trkpt>
      <trkpt lat="46.20095" lon="5.2285">
        <ele>234.8</ele>
        <time>2026-05-09T10:27:12Z</time>
      </trkpt>
      <trkpt lat="46.20097" lon="5.22855">
        <ele>234.8</ele>
        <time>2026-05-09T10:27:13Z</time>
      </trkpt>
      <trkpt lat="46.20099" lon="5.22861">
        <ele>234.8</ele>
        <time>2026-05-09T10:27:14Z</time>
      </trkpt>
      <trkpt lat="46.201" lon="5.22866">
        <ele>235.2</ele>
        <time>2026-05-09T10:27:15Z</time>
      </trkpt>
      <trkpt lat="46.20102" lon="5.22872">
        <ele>235.2</ele>
        <time>2026-05-09T10:27:16Z</time>
      </trkpt>
      <trkpt lat="46.20104" lon="5.22878">
        <ele>235.2</ele>
        <time>2026-05-09T10:27:17Z</time>
      </trkpt>
      <trkpt lat="46.20106" lon="5.22883">
        <ele>235.4</ele>
        <time>2026-05-09T10:27:18Z</time>
      </trkpt>
      <trkpt lat="46.20108" lon="5.22888">
        <ele>235.6</ele>
        <time>2026-05-09T10:27:19Z</time>
      </trkpt>
      <trkpt lat="46.2011" lon="5.22893">
        <ele>235.6</ele>
        <time>2026-05-09T10:27:20Z</time>
      </trkpt>
      <trkpt lat="46.20112" lon="5.22898">
        <ele>235.6</ele>
        <time>2026-05-09T10:27:21Z</time>
      </trkpt>
      <trkpt lat="46.20114" lon="5.22904">
        <ele>235.6</ele>
        <time>2026-05-09T10:27:22Z</time>
      </trkpt>
      <trkpt lat="46.20115" lon="5.22909">
        <ele>235.6</ele>
        <time>2026-05-09T10:27:23Z</time>
      </trkpt>
      <trkpt lat="46.20117" lon="5.22915">
        <ele>236</ele>
        <time>2026-05-09T10:27:24Z</time>
      </trkpt>
      <trkpt lat="46.20119" lon="5.22921">
        <ele>236</ele>
        <time>2026-05-09T10:27:25Z</time>
      </trkpt>
      <trkpt lat="46.20121" lon="5.22926">
        <ele>236.2</ele>
        <time>2026-05-09T10:27:26Z</time>
      </trkpt>
      <trkpt lat="46.20123" lon="5.22932">
        <ele>236.2</ele>
        <time>2026-05-09T10:27:27Z</time>
      </trkpt>
      <trkpt lat="46.20125" lon="5.22938">
        <ele>236.2</ele>
        <time>2026-05-09T10:27:28Z</time>
      </trkpt>
      <trkpt lat="46.20127" lon="5.22943">
        <ele>236.2</ele>
        <time>2026-05-09T10:27:29Z</time>
      </trkpt>
      <trkpt lat="46.20129" lon="5.22949">
        <ele>236.2</ele>
        <time>2026-05-09T10:27:30Z</time>
      </trkpt>
      <trkpt lat="46.20131" lon="5.22954">
        <ele>236.4</ele>
        <time>2026-05-09T10:27:31Z</time>
      </trkpt>
      <trkpt lat="46.20133" lon="5.2296">
        <ele>236.4</ele>
        <time>2026-05-09T10:27:32Z</time>
      </trkpt>
      <trkpt lat="46.20135" lon="5.22966">
        <ele>236.4</ele>
        <time>2026-05-09T10:27:33Z</time>
      </trkpt>
      <trkpt lat="46.20136" lon="5.22971">
        <ele>236.4</ele>
        <time>2026-05-09T10:27:34Z</time>
      </trkpt>
      <trkpt lat="46.20138" lon="5.22977">
        <ele>236.8</ele>
        <time>2026-05-09T10:27:35Z</time>
      </trkpt>
      <trkpt lat="46.2014" lon="5.22983">
        <ele>237</ele>
        <time>2026-05-09T10:27:36Z</time>
      </trkpt>
      <trkpt lat="46.20142" lon="5.22988">
        <ele>237</ele>
        <time>2026-05-09T10:27:37Z</time>
      </trkpt>
      <trkpt lat="46.20144" lon="5.22994">
        <ele>237</ele>
        <time>2026-05-09T10:27:38Z</time>
      </trkpt>
      <trkpt lat="46.20146" lon="5.22999">
        <ele>237</ele>
        <time>2026-05-09T10:27:39Z</time>
      </trkpt>
      <trkpt lat="46.20148" lon="5.23005">
        <ele>237.2</ele>
        <time>2026-05-09T10:27:40Z</time>
      </trkpt>
      <trkpt lat="46.2015" lon="5.2301">
        <ele>237.2</ele>
        <time>2026-05-09T10:27:41Z</time>
      </trkpt>
      <trkpt lat="46.20153" lon="5.23016">
        <ele>237.2</ele>
        <time>2026-05-09T10:27:42Z</time>
      </trkpt>
      <trkpt lat="46.20155" lon="5.23022">
        <ele>237.2</ele>
        <time>2026-05-09T10:27:43Z</time>
      </trkpt>
      <trkpt lat="46.20156" lon="5.23027">
        <ele>237.2</ele>
        <time>2026-05-09T10:27:44Z</time>
      </trkpt>
      <trkpt lat="46.20159" lon="5.23033">
        <ele>237.2</ele>
        <time>2026-05-09T10:27:45Z</time>
      </trkpt>
      <trkpt lat="46.20161" lon="5.23039">
        <ele>237.2</ele>
        <time>2026-05-09T10:27:46Z</time>
      </trkpt>
      <trkpt lat="46.20164" lon="5.23046">
        <ele>237.2</ele>
        <time>2026-05-09T10:27:47Z</time>
      </trkpt>
      <trkpt lat="46.20165" lon="5.23052">
        <ele>237.2</ele>
        <time>2026-05-09T10:27:48Z</time>
      </trkpt>
      <trkpt lat="46.20168" lon="5.23058">
        <ele>237.2</ele>
        <time>2026-05-09T10:27:49Z</time>
      </trkpt>
      <trkpt lat="46.2017" lon="5.23064">
        <ele>237.2</ele>
        <time>2026-05-09T10:27:50Z</time>
      </trkpt>
      <trkpt lat="46.20172" lon="5.2307">
        <ele>237.2</ele>
        <time>2026-05-09T10:27:51Z</time>
      </trkpt>
      <trkpt lat="46.20175" lon="5.23076">
        <ele>237.2</ele>
        <time>2026-05-09T10:27:52Z</time>
      </trkpt>
      <trkpt lat="46.20177" lon="5.23084">
        <ele>237.2</ele>
        <time>2026-05-09T10:27:53Z</time>
      </trkpt>
      <trkpt lat="46.20179" lon="5.23092">
        <ele>237.2</ele>
        <time>2026-05-09T10:27:54Z</time>
      </trkpt>
      <trkpt lat="46.20181" lon="5.23099">
        <ele>237.2</ele>
        <time>2026-05-09T10:27:55Z</time>
      </trkpt>
      <trkpt lat="46.20184" lon="5.23106">
        <ele>236.6</ele>
        <time>2026-05-09T10:27:56Z</time>
      </trkpt>
      <trkpt lat="46.20186" lon="5.23113">
        <ele>236.6</ele>
        <time>2026-05-09T10:27:57Z</time>
      </trkpt>
      <trkpt lat="46.20189" lon="5.23121">
        <ele>236.2</ele>
        <time>2026-05-09T10:27:58Z</time>
      </trkpt>
      <trkpt lat="46.20192" lon="5.23129">
        <ele>236.2</ele>
        <time>2026-05-09T10:27:59Z</time>
      </trkpt>
      <trkpt lat="46.20195" lon="5.23136">
        <ele>235.8</ele>
        <time>2026-05-09T10:28:00Z</time>
      </trkpt>
      <trkpt lat="46.20198" lon="5.23144">
        <ele>235.6</ele>
        <time>2026-05-09T10:28:01Z</time>
      </trkpt>
      <trkpt lat="46.202" lon="5.23151">
        <ele>235.6</ele>
        <time>2026-05-09T10:28:02Z</time>
      </trkpt>
      <trkpt lat="46.20202" lon="5.23158">
        <ele>235.2</ele>
        <time>2026-05-09T10:28:03Z</time>
      </trkpt>
      <trkpt lat="46.20203" lon="5.23164">
        <ele>235</ele>
        <time>2026-05-09T10:28:04Z</time>
      </trkpt>
      <trkpt lat="46.202" lon="5.23171">
        <ele>234.8</ele>
        <time>2026-05-09T10:28:05Z</time>
      </trkpt>
      <trkpt lat="46.20197" lon="5.23176">
        <ele>234.8</ele>
        <time>2026-05-09T10:28:06Z</time>
      </trkpt>
      <trkpt lat="46.20194" lon="5.23181">
        <ele>234.4</ele>
        <time>2026-05-09T10:28:07Z</time>
      </trkpt>
      <trkpt lat="46.20188" lon="5.23185">
        <ele>234.4</ele>
        <time>2026-05-09T10:28:08Z</time>
      </trkpt>
      <trkpt lat="46.20183" lon="5.23189">
        <ele>234.4</ele>
        <time>2026-05-09T10:28:09Z</time>
      </trkpt>
      <trkpt lat="46.20177" lon="5.23195">
        <ele>234.2</ele>
        <time>2026-05-09T10:28:10Z</time>
      </trkpt>
      <trkpt lat="46.20173" lon="5.23199">
        <ele>234.2</ele>
        <time>2026-05-09T10:28:11Z</time>
      </trkpt>
      <trkpt lat="46.20169" lon="5.23204">
        <ele>234.2</ele>
        <time>2026-05-09T10:28:12Z</time>
      </trkpt>
      <trkpt lat="46.20165" lon="5.23209">
        <ele>234.2</ele>
        <time>2026-05-09T10:28:13Z</time>
      </trkpt>
      <trkpt lat="46.2016" lon="5.23212">
        <ele>234.2</ele>
        <time>2026-05-09T10:28:14Z</time>
      </trkpt>
      <trkpt lat="46.20156" lon="5.23216">
        <ele>234.2</ele>
        <time>2026-05-09T10:28:15Z</time>
      </trkpt>
      <trkpt lat="46.20151" lon="5.2322">
        <ele>234.2</ele>
        <time>2026-05-09T10:28:16Z</time>
      </trkpt>
      <trkpt lat="46.20146" lon="5.23223">
        <ele>234.2</ele>
        <time>2026-05-09T10:28:17Z</time>
      </trkpt>
      <trkpt lat="46.20142" lon="5.23227">
        <ele>234.2</ele>
        <time>2026-05-09T10:28:18Z</time>
      </trkpt>
      <trkpt lat="46.20138" lon="5.23231">
        <ele>234.2</ele>
        <time>2026-05-09T10:28:19Z</time>
      </trkpt>
      <trkpt lat="46.20133" lon="5.23234">
        <ele>234.2</ele>
        <time>2026-05-09T10:28:20Z</time>
      </trkpt>
      <trkpt lat="46.20129" lon="5.23237">
        <ele>234.2</ele>
        <time>2026-05-09T10:28:21Z</time>
      </trkpt>
      <trkpt lat="46.20124" lon="5.2324">
        <ele>234.2</ele>
        <time>2026-05-09T10:28:22Z</time>
      </trkpt>
      <trkpt lat="46.2012" lon="5.23243">
        <ele>234.2</ele>
        <time>2026-05-09T10:28:23Z</time>
      </trkpt>
      <trkpt lat="46.20115" lon="5.23245">
        <ele>234.2</ele>
        <time>2026-05-09T10:28:24Z</time>
      </trkpt>
      <trkpt lat="46.20111" lon="5.23248">
        <ele>234.6</ele>
        <time>2026-05-09T10:28:25Z</time>
      </trkpt>
      <trkpt lat="46.20107" lon="5.23252">
        <ele>234.6</ele>
        <time>2026-05-09T10:28:26Z</time>
      </trkpt>
      <trkpt lat="46.20102" lon="5.23256">
        <ele>234.6</ele>
        <time>2026-05-09T10:28:27Z</time>
      </trkpt>
      <trkpt lat="46.20098" lon="5.2326">
        <ele>234.6</ele>
        <time>2026-05-09T10:28:28Z</time>
      </trkpt>
      <trkpt lat="46.20094" lon="5.23264">
        <ele>234.6</ele>
        <time>2026-05-09T10:28:29Z</time>
      </trkpt>
      <trkpt lat="46.20094" lon="5.23264">
        <ele>234.6</ele>
        <time>2026-05-09T10:28:30Z</time>
      </trkpt>
      <trkpt lat="46.20091" lon="5.23264">
        <ele>234.6</ele>
        <time>2026-05-09T10:28:31Z</time>
      </trkpt>
      <trkpt lat="46.20087" lon="5.23265">
        <ele>234.6</ele>
        <time>2026-05-09T10:28:32Z</time>
      </trkpt>
      <trkpt lat="46.20085" lon="5.23266">
        <ele>234.6</ele>
        <time>2026-05-09T10:28:33Z</time>
      </trkpt>
      <trkpt lat="46.20082" lon="5.23267">
        <ele>234.6</ele>
        <time>2026-05-09T10:28:34Z</time>
      </trkpt>
      <trkpt lat="46.20079" lon="5.23268">
        <ele>234.6</ele>
        <time>2026-05-09T10:28:35Z</time>
      </trkpt>
      <trkpt lat="46.20076" lon="5.2327">
        <ele>234.6</ele>
        <time>2026-05-09T10:28:36Z</time>
      </trkpt>
      <trkpt lat="46.20076" lon="5.23271">
        <ele>234.2</ele>
        <time>2026-05-09T10:28:37Z</time>
      </trkpt>
      <trkpt lat="46.20075" lon="5.23273">
        <ele>234.2</ele>
        <time>2026-05-09T10:28:38Z</time>
      </trkpt>
      <trkpt lat="46.20076" lon="5.23272">
        <ele>234.2</ele>
        <time>2026-05-09T10:28:39Z</time>
      </trkpt>
      <trkpt lat="46.20076" lon="5.23271">
        <ele>234.2</ele>
        <time>2026-05-09T10:28:42Z</time>
      </trkpt>
      <trkpt lat="46.20076" lon="5.23271">
        <ele>234.2</ele>
        <time>2026-05-09T10:28:43Z</time>
      </trkpt>
      <trkpt lat="46.20077" lon="5.23271">
        <ele>234.2</ele>
        <time>2026-05-09T10:28:44Z</time>
      </trkpt>
      <trkpt lat="46.20077" lon="5.23271">
        <ele>234.2</ele>
        <time>2026-05-09T10:28:45Z</time>
      </trkpt>
      <trkpt lat="46.20078" lon="5.23271">
        <ele>234</ele>
        <time>2026-05-09T10:28:46Z</time>
      </trkpt>
      <trkpt lat="46.20078" lon="5.23272">
        <ele>233.6</ele>
        <time>2026-05-09T10:28:49Z</time>
      </trkpt>
      <trkpt lat="46.20079" lon="5.23272">
        <ele>233.6</ele>
        <time>2026-05-09T10:28:50Z</time>
      </trkpt>
      <trkpt lat="46.20076" lon="5.23272">
        <ele>234.8</ele>
        <time>2026-05-09T10:32:24Z</time>
      </trkpt>
      <trkpt lat="46.20077" lon="5.23273">
        <ele>234.8</ele>
        <time>2026-05-09T10:32:25Z</time>
      </trkpt>
      <trkpt lat="46.20077" lon="5.23273">
        <ele>234.8</ele>
        <time>2026-05-09T10:32:26Z</time>
      </trkpt>
      <trkpt lat="46.20078" lon="5.23275">
        <ele>234.6</ele>
        <time>2026-05-09T10:32:28Z</time>
      </trkpt>
      <trkpt lat="46.20078" lon="5.23275">
        <ele>234.6</ele>
        <time>2026-05-09T10:32:29Z</time>
      </trkpt>
      <trkpt lat="46.20076" lon="5.23277">
        <ele>234.6</ele>
        <time>2026-05-09T10:32:34Z</time>
      </trkpt>
      <trkpt lat="46.20075" lon="5.23278">
        <ele>234.6</ele>
        <time>2026-05-09T10:32:35Z</time>
      </trkpt>
      <trkpt lat="46.20074" lon="5.2328">
        <ele>234.6</ele>
        <time>2026-05-09T10:32:36Z</time>
      </trkpt>
      <trkpt lat="46.20072" lon="5.23282">
        <ele>234.6</ele>
        <time>2026-05-09T10:32:37Z</time>
      </trkpt>
      <trkpt lat="46.2007" lon="5.23284">
        <ele>234.6</ele>
        <time>2026-05-09T10:32:38Z</time>
      </trkpt>
      <trkpt lat="46.20068" lon="5.23286">
        <ele>234.6</ele>
        <time>2026-05-09T10:32:39Z</time>
      </trkpt>
      <trkpt lat="46.20065" lon="5.23289">
        <ele>234.6</ele>
        <time>2026-05-09T10:32:40Z</time>
      </trkpt>
      <trkpt lat="46.20063" lon="5.23291">
        <ele>234.6</ele>
        <time>2026-05-09T10:32:41Z</time>
      </trkpt>
      <trkpt lat="46.2006" lon="5.23293">
        <ele>234.6</ele>
        <time>2026-05-09T10:32:42Z</time>
      </trkpt>
      <trkpt lat="46.20058" lon="5.23295">
        <ele>234.6</ele>
        <time>2026-05-09T10:32:43Z</time>
      </trkpt>
      <trkpt lat="46.20055" lon="5.23298">
        <ele>234.6</ele>
        <time>2026-05-09T10:32:44Z</time>
      </trkpt>
      <trkpt lat="46.20053" lon="5.23301">
        <ele>234.6</ele>
        <time>2026-05-09T10:32:45Z</time>
      </trkpt>
      <trkpt lat="46.20051" lon="5.23303">
        <ele>234.6</ele>
        <time>2026-05-09T10:32:46Z</time>
      </trkpt>
      <trkpt lat="46.20048" lon="5.23306">
        <ele>234.6</ele>
        <time>2026-05-09T10:32:47Z</time>
      </trkpt>
      <trkpt lat="46.20046" lon="5.23308">
        <ele>234.6</ele>
        <time>2026-05-09T10:32:48Z</time>
      </trkpt>
      <trkpt lat="46.20043" lon="5.23311">
        <ele>234.6</ele>
        <time>2026-05-09T10:32:49Z</time>
      </trkpt>
      <trkpt lat="46.2004" lon="5.23313">
        <ele>234.6</ele>
        <time>2026-05-09T10:32:50Z</time>
      </trkpt>
      <trkpt lat="46.20037" lon="5.23315">
        <ele>234.6</ele>
        <time>2026-05-09T10:32:51Z</time>
      </trkpt>
      <trkpt lat="46.20034" lon="5.23318">
        <ele>234.6</ele>
        <time>2026-05-09T10:32:52Z</time>
      </trkpt>
      <trkpt lat="46.20031" lon="5.2332">
        <ele>234.6</ele>
        <time>2026-05-09T10:32:53Z</time>
      </trkpt>
      <trkpt lat="46.20027" lon="5.23323">
        <ele>234.6</ele>
        <time>2026-05-09T10:32:54Z</time>
      </trkpt>
      <trkpt lat="46.20024" lon="5.23326">
        <ele>234.6</ele>
        <time>2026-05-09T10:32:55Z</time>
      </trkpt>
      <trkpt lat="46.20021" lon="5.23329">
        <ele>234.6</ele>
        <time>2026-05-09T10:32:56Z</time>
      </trkpt>
      <trkpt lat="46.20017" lon="5.2333">
        <ele>234.8</ele>
        <time>2026-05-09T10:32:57Z</time>
      </trkpt>
      <trkpt lat="46.20013" lon="5.23333">
        <ele>234.8</ele>
        <time>2026-05-09T10:32:58Z</time>
      </trkpt>
      <trkpt lat="46.20009" lon="5.23335">
        <ele>234.8</ele>
        <time>2026-05-09T10:32:59Z</time>
      </trkpt>
      <trkpt lat="46.20009" lon="5.23335">
        <ele>234.8</ele>
        <time>2026-05-09T10:33:00Z</time>
      </trkpt>
      <trkpt lat="46.20009" lon="5.23335">
        <ele>235.2</ele>
        <time>2026-05-09T10:33:01Z</time>
      </trkpt>
      <trkpt lat="46.20002" lon="5.23341">
        <ele>235.2</ele>
        <time>2026-05-09T10:33:02Z</time>
      </trkpt>
      <trkpt lat="46.19999" lon="5.23343">
        <ele>235.2</ele>
        <time>2026-05-09T10:33:03Z</time>
      </trkpt>
      <trkpt lat="46.19996" lon="5.23346">
        <ele>235.2</ele>
        <time>2026-05-09T10:33:04Z</time>
      </trkpt>
      <trkpt lat="46.19992" lon="5.23348">
        <ele>235.2</ele>
        <time>2026-05-09T10:33:05Z</time>
      </trkpt>
      <trkpt lat="46.19989" lon="5.23351">
        <ele>235.2</ele>
        <time>2026-05-09T10:33:06Z</time>
      </trkpt>
      <trkpt lat="46.19986" lon="5.23354">
        <ele>235.4</ele>
        <time>2026-05-09T10:33:07Z</time>
      </trkpt>
      <trkpt lat="46.19983" lon="5.23356">
        <ele>235.4</ele>
        <time>2026-05-09T10:33:08Z</time>
      </trkpt>
      <trkpt lat="46.1998" lon="5.23359">
        <ele>235.4</ele>
        <time>2026-05-09T10:33:09Z</time>
      </trkpt>
      <trkpt lat="46.19977" lon="5.23362">
        <ele>235.4</ele>
        <time>2026-05-09T10:33:10Z</time>
      </trkpt>
      <trkpt lat="46.19973" lon="5.23364">
        <ele>235.6</ele>
        <time>2026-05-09T10:33:11Z</time>
      </trkpt>
      <trkpt lat="46.1997" lon="5.23367">
        <ele>235.6</ele>
        <time>2026-05-09T10:33:12Z</time>
      </trkpt>
      <trkpt lat="46.19967" lon="5.2337">
        <ele>235.6</ele>
        <time>2026-05-09T10:33:13Z</time>
      </trkpt>
      <trkpt lat="46.19964" lon="5.23372">
        <ele>235.8</ele>
        <time>2026-05-09T10:33:14Z</time>
      </trkpt>
      <trkpt lat="46.19961" lon="5.23374">
        <ele>235.8</ele>
        <time>2026-05-09T10:33:15Z</time>
      </trkpt>
      <trkpt lat="46.19958" lon="5.23377">
        <ele>236</ele>
        <time>2026-05-09T10:33:16Z</time>
      </trkpt>
      <trkpt lat="46.19954" lon="5.23379">
        <ele>236</ele>
        <time>2026-05-09T10:33:17Z</time>
      </trkpt>
      <trkpt lat="46.19951" lon="5.23382">
        <ele>236</ele>
        <time>2026-05-09T10:33:18Z</time>
      </trkpt>
      <trkpt lat="46.19947" lon="5.23385">
        <ele>236</ele>
        <time>2026-05-09T10:33:19Z</time>
      </trkpt>
      <trkpt lat="46.19943" lon="5.23388">
        <ele>236</ele>
        <time>2026-05-09T10:33:20Z</time>
      </trkpt>
      <trkpt lat="46.1994" lon="5.23392">
        <ele>236</ele>
        <time>2026-05-09T10:33:21Z</time>
      </trkpt>
      <trkpt lat="46.19936" lon="5.23394">
        <ele>236.4</ele>
        <time>2026-05-09T10:33:22Z</time>
      </trkpt>
      <trkpt lat="46.19932" lon="5.23398">
        <ele>236.6</ele>
        <time>2026-05-09T10:33:23Z</time>
      </trkpt>
      <trkpt lat="46.19928" lon="5.234">
        <ele>236.6</ele>
        <time>2026-05-09T10:33:24Z</time>
      </trkpt>
      <trkpt lat="46.19924" lon="5.23404">
        <ele>236.6</ele>
        <time>2026-05-09T10:33:25Z</time>
      </trkpt>
      <trkpt lat="46.19919" lon="5.23407">
        <ele>236.6</ele>
        <time>2026-05-09T10:33:26Z</time>
      </trkpt>
      <trkpt lat="46.19916" lon="5.23411">
        <ele>236.8</ele>
        <time>2026-05-09T10:33:27Z</time>
      </trkpt>
      <trkpt lat="46.19912" lon="5.23414">
        <ele>236.8</ele>
        <time>2026-05-09T10:33:28Z</time>
      </trkpt>
      <trkpt lat="46.19908" lon="5.23417">
        <ele>236.8</ele>
        <time>2026-05-09T10:33:29Z</time>
      </trkpt>
      <trkpt lat="46.19904" lon="5.23422">
        <ele>237.2</ele>
        <time>2026-05-09T10:33:30Z</time>
      </trkpt>
      <trkpt lat="46.19897" lon="5.23428">
        <ele>237.2</ele>
        <time>2026-05-09T10:33:31Z</time>
      </trkpt>
      <trkpt lat="46.19893" lon="5.23431">
        <ele>237.2</ele>
        <time>2026-05-09T10:33:32Z</time>
      </trkpt>
      <trkpt lat="46.19889" lon="5.23434">
        <ele>237.2</ele>
        <time>2026-05-09T10:33:33Z</time>
      </trkpt>
      <trkpt lat="46.19886" lon="5.23438">
        <ele>237.2</ele>
        <time>2026-05-09T10:33:34Z</time>
      </trkpt>
      <trkpt lat="46.19882" lon="5.23441">
        <ele>237.2</ele>
        <time>2026-05-09T10:33:35Z</time>
      </trkpt>
      <trkpt lat="46.19878" lon="5.23444">
        <ele>237.2</ele>
        <time>2026-05-09T10:33:36Z</time>
      </trkpt>
      <trkpt lat="46.19874" lon="5.23447">
        <ele>236.8</ele>
        <time>2026-05-09T10:33:37Z</time>
      </trkpt>
      <trkpt lat="46.1987" lon="5.2345">
        <ele>236.8</ele>
        <time>2026-05-09T10:33:38Z</time>
      </trkpt>
      <trkpt lat="46.19866" lon="5.23453">
        <ele>236.8</ele>
        <time>2026-05-09T10:33:39Z</time>
      </trkpt>
      <trkpt lat="46.19862" lon="5.23456">
        <ele>236.8</ele>
        <time>2026-05-09T10:33:40Z</time>
      </trkpt>
      <trkpt lat="46.19858" lon="5.23459">
        <ele>236.8</ele>
        <time>2026-05-09T10:33:41Z</time>
      </trkpt>
      <trkpt lat="46.19854" lon="5.23461">
        <ele>237</ele>
        <time>2026-05-09T10:33:42Z</time>
      </trkpt>
      <trkpt lat="46.19851" lon="5.23464">
        <ele>237</ele>
        <time>2026-05-09T10:33:43Z</time>
      </trkpt>
      <trkpt lat="46.19847" lon="5.23467">
        <ele>237</ele>
        <time>2026-05-09T10:33:44Z</time>
      </trkpt>
      <trkpt lat="46.19843" lon="5.2347">
        <ele>237.4</ele>
        <time>2026-05-09T10:33:45Z</time>
      </trkpt>
      <trkpt lat="46.1984" lon="5.23473">
        <ele>237.4</ele>
        <time>2026-05-09T10:33:46Z</time>
      </trkpt>
      <trkpt lat="46.19836" lon="5.23476">
        <ele>237.4</ele>
        <time>2026-05-09T10:33:47Z</time>
      </trkpt>
      <trkpt lat="46.19832" lon="5.23479">
        <ele>237.4</ele>
        <time>2026-05-09T10:33:48Z</time>
      </trkpt>
      <trkpt lat="46.19829" lon="5.23482">
        <ele>237.4</ele>
        <time>2026-05-09T10:33:49Z</time>
      </trkpt>
      <trkpt lat="46.19825" lon="5.23485">
        <ele>237.4</ele>
        <time>2026-05-09T10:33:50Z</time>
      </trkpt>
      <trkpt lat="46.19822" lon="5.23487">
        <ele>237.4</ele>
        <time>2026-05-09T10:33:51Z</time>
      </trkpt>
      <trkpt lat="46.19819" lon="5.2349">
        <ele>237.4</ele>
        <time>2026-05-09T10:33:52Z</time>
      </trkpt>
      <trkpt lat="46.19816" lon="5.23492">
        <ele>237.4</ele>
        <time>2026-05-09T10:33:53Z</time>
      </trkpt>
      <trkpt lat="46.19813" lon="5.23495">
        <ele>237.4</ele>
        <time>2026-05-09T10:33:54Z</time>
      </trkpt>
      <trkpt lat="46.1981" lon="5.23498">
        <ele>237.4</ele>
        <time>2026-05-09T10:33:55Z</time>
      </trkpt>
      <trkpt lat="46.19807" lon="5.23501">
        <ele>237</ele>
        <time>2026-05-09T10:33:56Z</time>
      </trkpt>
      <trkpt lat="46.19805" lon="5.23505">
        <ele>237</ele>
        <time>2026-05-09T10:33:57Z</time>
      </trkpt>
      <trkpt lat="46.19804" lon="5.23508">
        <ele>237</ele>
        <time>2026-05-09T10:33:58Z</time>
      </trkpt>
      <trkpt lat="46.19804" lon="5.23511">
        <ele>237</ele>
        <time>2026-05-09T10:33:59Z</time>
      </trkpt>
      <trkpt lat="46.19803" lon="5.23513">
        <ele>237</ele>
        <time>2026-05-09T10:34:00Z</time>
      </trkpt>
      <trkpt lat="46.19801" lon="5.23515">
        <ele>237</ele>
        <time>2026-05-09T10:34:01Z</time>
      </trkpt>
      <trkpt lat="46.198" lon="5.23517">
        <ele>237</ele>
        <time>2026-05-09T10:34:02Z</time>
      </trkpt>
      <trkpt lat="46.19799" lon="5.2352">
        <ele>237</ele>
        <time>2026-05-09T10:34:03Z</time>
      </trkpt>
      <trkpt lat="46.19799" lon="5.23523">
        <ele>237.2</ele>
        <time>2026-05-09T10:34:04Z</time>
      </trkpt>
      <trkpt lat="46.19799" lon="5.23526">
        <ele>237.2</ele>
        <time>2026-05-09T10:34:05Z</time>
      </trkpt>
      <trkpt lat="46.19799" lon="5.23529">
        <ele>237.2</ele>
        <time>2026-05-09T10:34:06Z</time>
      </trkpt>
      <trkpt lat="46.19798" lon="5.23531">
        <ele>237.2</ele>
        <time>2026-05-09T10:34:07Z</time>
      </trkpt>
      <trkpt lat="46.19797" lon="5.23533">
        <ele>237.2</ele>
        <time>2026-05-09T10:34:08Z</time>
      </trkpt>
      <trkpt lat="46.19796" lon="5.23534">
        <ele>237.2</ele>
        <time>2026-05-09T10:34:09Z</time>
      </trkpt>
      <trkpt lat="46.19796" lon="5.23535">
        <ele>237.2</ele>
        <time>2026-05-09T10:34:10Z</time>
      </trkpt>
      <trkpt lat="46.19796" lon="5.23535">
        <ele>237.2</ele>
        <time>2026-05-09T10:34:11Z</time>
      </trkpt>
      <trkpt lat="46.19796" lon="5.23535">
        <ele>237.2</ele>
        <time>2026-05-09T10:34:12Z</time>
      </trkpt>
      <trkpt lat="46.19795" lon="5.23536">
        <ele>236.6</ele>
        <time>2026-05-09T10:34:16Z</time>
      </trkpt>
      <trkpt lat="46.19794" lon="5.23537">
        <ele>237</ele>
        <time>2026-05-09T10:34:17Z</time>
      </trkpt>
      <trkpt lat="46.19793" lon="5.23538">
        <ele>237</ele>
        <time>2026-05-09T10:34:18Z</time>
      </trkpt>
      <trkpt lat="46.19792" lon="5.23539">
        <ele>237</ele>
        <time>2026-05-09T10:34:19Z</time>
      </trkpt>
      <trkpt lat="46.19791" lon="5.2354">
        <ele>237</ele>
        <time>2026-05-09T10:34:20Z</time>
      </trkpt>
      <trkpt lat="46.19791" lon="5.2354">
        <ele>237</ele>
        <time>2026-05-09T10:34:21Z</time>
      </trkpt>
      <trkpt lat="46.19791" lon="5.2354">
        <ele>237</ele>
        <time>2026-05-09T10:34:22Z</time>
      </trkpt>
      <trkpt lat="46.19791" lon="5.23541">
        <ele>237</ele>
        <time>2026-05-09T10:34:23Z</time>
      </trkpt>
      <trkpt lat="46.19791" lon="5.23542">
        <ele>237</ele>
        <time>2026-05-09T10:34:24Z</time>
      </trkpt>
      <trkpt lat="46.19791" lon="5.23544">
        <ele>237.4</ele>
        <time>2026-05-09T10:34:25Z</time>
      </trkpt>
      <trkpt lat="46.19793" lon="5.23545">
        <ele>237.4</ele>
        <time>2026-05-09T10:34:26Z</time>
      </trkpt>
      <trkpt lat="46.19794" lon="5.23545">
        <ele>237.4</ele>
        <time>2026-05-09T10:34:27Z</time>
      </trkpt>
      <trkpt lat="46.19796" lon="5.23545">
        <ele>237.4</ele>
        <time>2026-05-09T10:34:28Z</time>
      </trkpt>
      <trkpt lat="46.19797" lon="5.23545">
        <ele>237.4</ele>
        <time>2026-05-09T10:34:29Z</time>
      </trkpt>
      <trkpt lat="46.19798" lon="5.23546">
        <ele>237.4</ele>
        <time>2026-05-09T10:34:30Z</time>
      </trkpt>
      <trkpt lat="46.19799" lon="5.23546">
        <ele>237.4</ele>
        <time>2026-05-09T10:34:31Z</time>
      </trkpt>
      <trkpt lat="46.19801" lon="5.23547">
        <ele>237.4</ele>
        <time>2026-05-09T10:34:32Z</time>
      </trkpt>
      <trkpt lat="46.19802" lon="5.23549">
        <ele>237.4</ele>
        <time>2026-05-09T10:34:33Z</time>
      </trkpt>
      <trkpt lat="46.19803" lon="5.2355">
        <ele>237.4</ele>
        <time>2026-05-09T10:34:34Z</time>
      </trkpt>
      <trkpt lat="46.19804" lon="5.23551">
        <ele>237</ele>
        <time>2026-05-09T10:34:35Z</time>
      </trkpt>
      <trkpt lat="46.19805" lon="5.23551">
        <ele>237</ele>
        <time>2026-05-09T10:34:36Z</time>
      </trkpt>
      <trkpt lat="46.19807" lon="5.23552">
        <ele>237.4</ele>
        <time>2026-05-09T10:34:37Z</time>
      </trkpt>
      <trkpt lat="46.19808" lon="5.23552">
        <ele>237.4</ele>
        <time>2026-05-09T10:34:38Z</time>
      </trkpt>
      <trkpt lat="46.19809" lon="5.23553">
        <ele>237.4</ele>
        <time>2026-05-09T10:34:39Z</time>
      </trkpt>
      <trkpt lat="46.1981" lon="5.23554">
        <ele>237.6</ele>
        <time>2026-05-09T10:34:40Z</time>
      </trkpt>
      <trkpt lat="46.19811" lon="5.23554">
        <ele>237.6</ele>
        <time>2026-05-09T10:34:41Z</time>
      </trkpt>
      <trkpt lat="46.19812" lon="5.23555">
        <ele>237.4</ele>
        <time>2026-05-09T10:34:42Z</time>
      </trkpt>
      <trkpt lat="46.19814" lon="5.23556">
        <ele>237.4</ele>
        <time>2026-05-09T10:34:43Z</time>
      </trkpt>
      <trkpt lat="46.19814" lon="5.23556">
        <ele>237.4</ele>
        <time>2026-05-09T10:34:44Z</time>
      </trkpt>
      <trkpt lat="46.19815" lon="5.23557">
        <ele>237.4</ele>
        <time>2026-05-09T10:34:45Z</time>
      </trkpt>
      <trkpt lat="46.19816" lon="5.23558">
        <ele>237.4</ele>
        <time>2026-05-09T10:34:46Z</time>
      </trkpt>
      <trkpt lat="46.19816" lon="5.23559">
        <ele>237.4</ele>
        <time>2026-05-09T10:34:47Z</time>
      </trkpt>
      <trkpt lat="46.19816" lon="5.23559">
        <ele>237.4</ele>
        <time>2026-05-09T10:34:48Z</time>
      </trkpt>
      <trkpt lat="46.19816" lon="5.2356">
        <ele>237.4</ele>
        <time>2026-05-09T10:34:49Z</time>
      </trkpt>
      <trkpt lat="46.19816" lon="5.2356">
        <ele>237.4</ele>
        <time>2026-05-09T10:34:50Z</time>
      </trkpt>
      <trkpt lat="46.19819" lon="5.23559">
        <ele>238</ele>
        <time>2026-05-09T10:38:05Z</time>
      </trkpt>
      <trkpt lat="46.19819" lon="5.23559">
        <ele>238</ele>
        <time>2026-05-09T10:38:06Z</time>
      </trkpt>
      <trkpt lat="46.19819" lon="5.23559">
        <ele>237.8</ele>
        <time>2026-05-09T10:38:07Z</time>
      </trkpt>
      <trkpt lat="46.1982" lon="5.23557">
        <ele>237.8</ele>
        <time>2026-05-09T10:38:14Z</time>
      </trkpt>
      <trkpt lat="46.1982" lon="5.23557">
        <ele>237.6</ele>
        <time>2026-05-09T10:38:15Z</time>
      </trkpt>
      <trkpt lat="46.19822" lon="5.23557">
        <ele>237.6</ele>
        <time>2026-05-09T10:38:16Z</time>
      </trkpt>
      <trkpt lat="46.19824" lon="5.23557">
        <ele>237.6</ele>
        <time>2026-05-09T10:38:17Z</time>
      </trkpt>
      <trkpt lat="46.19826" lon="5.23557">
        <ele>237.6</ele>
        <time>2026-05-09T10:38:18Z</time>
      </trkpt>
      <trkpt lat="46.19829" lon="5.23556">
        <ele>237.6</ele>
        <time>2026-05-09T10:38:19Z</time>
      </trkpt>
      <trkpt lat="46.19832" lon="5.23555">
        <ele>237.4</ele>
        <time>2026-05-09T10:38:20Z</time>
      </trkpt>
      <trkpt lat="46.19834" lon="5.23554">
        <ele>237.4</ele>
        <time>2026-05-09T10:38:21Z</time>
      </trkpt>
      <trkpt lat="46.19837" lon="5.23552">
        <ele>237.4</ele>
        <time>2026-05-09T10:38:22Z</time>
      </trkpt>
      <trkpt lat="46.19839" lon="5.2355">
        <ele>237.4</ele>
        <time>2026-05-09T10:38:23Z</time>
      </trkpt>
      <trkpt lat="46.1984" lon="5.23547">
        <ele>237.4</ele>
        <time>2026-05-09T10:38:24Z</time>
      </trkpt>
      <trkpt lat="46.19841" lon="5.23542">
        <ele>237.4</ele>
        <time>2026-05-09T10:38:25Z</time>
      </trkpt>
      <trkpt lat="46.1984" lon="5.23536">
        <ele>237.4</ele>
        <time>2026-05-09T10:38:26Z</time>
      </trkpt>
      <trkpt lat="46.19839" lon="5.23531">
        <ele>237.4</ele>
        <time>2026-05-09T10:38:27Z</time>
      </trkpt>
      <trkpt lat="46.19839" lon="5.23531">
        <ele>237.4</ele>
        <time>2026-05-09T10:38:28Z</time>
      </trkpt>
      <trkpt lat="46.19837" lon="5.23527">
        <ele>237.4</ele>
        <time>2026-05-09T10:38:29Z</time>
      </trkpt>
      <trkpt lat="46.19835" lon="5.23522">
        <ele>237.4</ele>
        <time>2026-05-09T10:38:30Z</time>
      </trkpt>
      <trkpt lat="46.19834" lon="5.23518">
        <ele>237.4</ele>
        <time>2026-05-09T10:38:31Z</time>
      </trkpt>
      <trkpt lat="46.19832" lon="5.23513">
        <ele>237.4</ele>
        <time>2026-05-09T10:38:32Z</time>
      </trkpt>
      <trkpt lat="46.19831" lon="5.23509">
        <ele>237.4</ele>
        <time>2026-05-09T10:38:33Z</time>
      </trkpt>
      <trkpt lat="46.19829" lon="5.23505">
        <ele>237.4</ele>
        <time>2026-05-09T10:38:34Z</time>
      </trkpt>
      <trkpt lat="46.19828" lon="5.23502">
        <ele>237.4</ele>
        <time>2026-05-09T10:38:35Z</time>
      </trkpt>
      <trkpt lat="46.19827" lon="5.23499">
        <ele>237.4</ele>
        <time>2026-05-09T10:38:36Z</time>
      </trkpt>
      <trkpt lat="46.19827" lon="5.23497">
        <ele>237.4</ele>
        <time>2026-05-09T10:38:37Z</time>
      </trkpt>
      <trkpt lat="46.19826" lon="5.23496">
        <ele>237.4</ele>
        <time>2026-05-09T10:38:38Z</time>
      </trkpt>
      <trkpt lat="46.19825" lon="5.23495">
        <ele>237.4</ele>
        <time>2026-05-09T10:38:39Z</time>
      </trkpt>
      <trkpt lat="46.19825" lon="5.23494">
        <ele>237.6</ele>
        <time>2026-05-09T10:38:40Z</time>
      </trkpt>
      <trkpt lat="46.19825" lon="5.23494">
        <ele>237.6</ele>
        <time>2026-05-09T10:38:41Z</time>
      </trkpt>
      <trkpt lat="46.19825" lon="5.23494">
        <ele>237.6</ele>
        <time>2026-05-09T10:38:42Z</time>
      </trkpt>
      <trkpt lat="46.19823" lon="5.23493">
        <ele>237.6</ele>
        <time>2026-05-09T10:38:43Z</time>
      </trkpt>
      <trkpt lat="46.19821" lon="5.23492">
        <ele>237.6</ele>
        <time>2026-05-09T10:38:44Z</time>
      </trkpt>
      <trkpt lat="46.19819" lon="5.23492">
        <ele>237.6</ele>
        <time>2026-05-09T10:38:45Z</time>
      </trkpt>
      <trkpt lat="46.19816" lon="5.23493">
        <ele>237.6</ele>
        <time>2026-05-09T10:38:46Z</time>
      </trkpt>
      <trkpt lat="46.19813" lon="5.23495">
        <ele>237.6</ele>
        <time>2026-05-09T10:38:47Z</time>
      </trkpt>
      <trkpt lat="46.1981" lon="5.23497">
        <ele>237.6</ele>
        <time>2026-05-09T10:38:48Z</time>
      </trkpt>
      <trkpt lat="46.19807" lon="5.235">
        <ele>237.6</ele>
        <time>2026-05-09T10:38:49Z</time>
      </trkpt>
      <trkpt lat="46.19804" lon="5.23503">
        <ele>237.6</ele>
        <time>2026-05-09T10:38:50Z</time>
      </trkpt>
      <trkpt lat="46.198" lon="5.23506">
        <ele>237.6</ele>
        <time>2026-05-09T10:38:51Z</time>
      </trkpt>
      <trkpt lat="46.19797" lon="5.23509">
        <ele>237.6</ele>
        <time>2026-05-09T10:38:52Z</time>
      </trkpt>
      <trkpt lat="46.19793" lon="5.23513">
        <ele>237.8</ele>
        <time>2026-05-09T10:38:53Z</time>
      </trkpt>
      <trkpt lat="46.1979" lon="5.23516">
        <ele>237.8</ele>
        <time>2026-05-09T10:38:54Z</time>
      </trkpt>
      <trkpt lat="46.19787" lon="5.23519">
        <ele>237.8</ele>
        <time>2026-05-09T10:38:55Z</time>
      </trkpt>
      <trkpt lat="46.19784" lon="5.23522">
        <ele>237.8</ele>
        <time>2026-05-09T10:38:56Z</time>
      </trkpt>
      <trkpt lat="46.1978" lon="5.23524">
        <ele>238.2</ele>
        <time>2026-05-09T10:38:57Z</time>
      </trkpt>
      <trkpt lat="46.19778" lon="5.23527">
        <ele>238.6</ele>
        <time>2026-05-09T10:38:58Z</time>
      </trkpt>
      <trkpt lat="46.19775" lon="5.2353">
        <ele>238.6</ele>
        <time>2026-05-09T10:38:59Z</time>
      </trkpt>
      <trkpt lat="46.19772" lon="5.23532">
        <ele>238.6</ele>
        <time>2026-05-09T10:39:00Z</time>
      </trkpt>
      <trkpt lat="46.1977" lon="5.23535">
        <ele>238.6</ele>
        <time>2026-05-09T10:39:01Z</time>
      </trkpt>
      <trkpt lat="46.19767" lon="5.23537">
        <ele>238.6</ele>
        <time>2026-05-09T10:39:02Z</time>
      </trkpt>
      <trkpt lat="46.19765" lon="5.23538">
        <ele>238.6</ele>
        <time>2026-05-09T10:39:03Z</time>
      </trkpt>
      <trkpt lat="46.19764" lon="5.23539">
        <ele>238.4</ele>
        <time>2026-05-09T10:39:04Z</time>
      </trkpt>
      <trkpt lat="46.19762" lon="5.2354">
        <ele>238.4</ele>
        <time>2026-05-09T10:39:05Z</time>
      </trkpt>
      <trkpt lat="46.19761" lon="5.23542">
        <ele>238.4</ele>
        <time>2026-05-09T10:39:06Z</time>
      </trkpt>
      <trkpt lat="46.1976" lon="5.23542">
        <ele>238.4</ele>
        <time>2026-05-09T10:39:07Z</time>
      </trkpt>
      <trkpt lat="46.19759" lon="5.23543">
        <ele>237.8</ele>
        <time>2026-05-09T10:39:08Z</time>
      </trkpt>
      <trkpt lat="46.19757" lon="5.23544">
        <ele>237.8</ele>
        <time>2026-05-09T10:39:09Z</time>
      </trkpt>
      <trkpt lat="46.19755" lon="5.23546">
        <ele>237.8</ele>
        <time>2026-05-09T10:39:10Z</time>
      </trkpt>
      <trkpt lat="46.19753" lon="5.23549">
        <ele>237.8</ele>
        <time>2026-05-09T10:39:11Z</time>
      </trkpt>
      <trkpt lat="46.1975" lon="5.23551">
        <ele>237.4</ele>
        <time>2026-05-09T10:39:12Z</time>
      </trkpt>
      <trkpt lat="46.19747" lon="5.23553">
        <ele>237.4</ele>
        <time>2026-05-09T10:39:13Z</time>
      </trkpt>
      <trkpt lat="46.19744" lon="5.23555">
        <ele>237.4</ele>
        <time>2026-05-09T10:39:14Z</time>
      </trkpt>
      <trkpt lat="46.19741" lon="5.23557">
        <ele>237.4</ele>
        <time>2026-05-09T10:39:15Z</time>
      </trkpt>
      <trkpt lat="46.19738" lon="5.23559">
        <ele>237.6</ele>
        <time>2026-05-09T10:39:16Z</time>
      </trkpt>
      <trkpt lat="46.19735" lon="5.23561">
        <ele>237.4</ele>
        <time>2026-05-09T10:39:17Z</time>
      </trkpt>
      <trkpt lat="46.19732" lon="5.23563">
        <ele>237.4</ele>
        <time>2026-05-09T10:39:18Z</time>
      </trkpt>
      <trkpt lat="46.19729" lon="5.23566">
        <ele>237.4</ele>
        <time>2026-05-09T10:39:19Z</time>
      </trkpt>
      <trkpt lat="46.19726" lon="5.23569">
        <ele>237.4</ele>
        <time>2026-05-09T10:39:20Z</time>
      </trkpt>
      <trkpt lat="46.19723" lon="5.23573">
        <ele>237.4</ele>
        <time>2026-05-09T10:39:21Z</time>
      </trkpt>
      <trkpt lat="46.19719" lon="5.23576">
        <ele>237.4</ele>
        <time>2026-05-09T10:39:22Z</time>
      </trkpt>
      <trkpt lat="46.19716" lon="5.2358">
        <ele>237.8</ele>
        <time>2026-05-09T10:39:23Z</time>
      </trkpt>
      <trkpt lat="46.19713" lon="5.23583">
        <ele>237.8</ele>
        <time>2026-05-09T10:39:24Z</time>
      </trkpt>
      <trkpt lat="46.19709" lon="5.23587">
        <ele>237.8</ele>
        <time>2026-05-09T10:39:25Z</time>
      </trkpt>
      <trkpt lat="46.19706" lon="5.2359">
        <ele>237.8</ele>
        <time>2026-05-09T10:39:26Z</time>
      </trkpt>
      <trkpt lat="46.19703" lon="5.23593">
        <ele>237.8</ele>
        <time>2026-05-09T10:39:27Z</time>
      </trkpt>
      <trkpt lat="46.197" lon="5.23597">
        <ele>238</ele>
        <time>2026-05-09T10:39:28Z</time>
      </trkpt>
      <trkpt lat="46.19696" lon="5.23599">
        <ele>238</ele>
        <time>2026-05-09T10:39:29Z</time>
      </trkpt>
      <trkpt lat="46.19694" lon="5.23601">
        <ele>238</ele>
        <time>2026-05-09T10:39:30Z</time>
      </trkpt>
      <trkpt lat="46.1969" lon="5.23605">
        <ele>237.8</ele>
        <time>2026-05-09T10:39:31Z</time>
      </trkpt>
      <trkpt lat="46.19687" lon="5.23607">
        <ele>237.8</ele>
        <time>2026-05-09T10:39:32Z</time>
      </trkpt>
      <trkpt lat="46.19684" lon="5.23611">
        <ele>237.8</ele>
        <time>2026-05-09T10:39:33Z</time>
      </trkpt>
      <trkpt lat="46.19681" lon="5.23613">
        <ele>237.8</ele>
        <time>2026-05-09T10:39:34Z</time>
      </trkpt>
      <trkpt lat="46.19679" lon="5.23615">
        <ele>237.8</ele>
        <time>2026-05-09T10:39:35Z</time>
      </trkpt>
      <trkpt lat="46.19674" lon="5.23618">
        <ele>237.8</ele>
        <time>2026-05-09T10:39:36Z</time>
      </trkpt>
      <trkpt lat="46.19672" lon="5.2362">
        <ele>237.8</ele>
        <time>2026-05-09T10:39:37Z</time>
      </trkpt>
      <trkpt lat="46.19669" lon="5.23625">
        <ele>237.8</ele>
        <time>2026-05-09T10:39:38Z</time>
      </trkpt>
      <trkpt lat="46.19665" lon="5.23628">
        <ele>237.8</ele>
        <time>2026-05-09T10:39:39Z</time>
      </trkpt>
      <trkpt lat="46.19661" lon="5.23632">
        <ele>237.8</ele>
        <time>2026-05-09T10:39:40Z</time>
      </trkpt>
      <trkpt lat="46.19658" lon="5.23634">
        <ele>237.8</ele>
        <time>2026-05-09T10:39:41Z</time>
      </trkpt>
      <trkpt lat="46.19654" lon="5.23636">
        <ele>237.8</ele>
        <time>2026-05-09T10:39:42Z</time>
      </trkpt>
      <trkpt lat="46.1965" lon="5.23638">
        <ele>237.8</ele>
        <time>2026-05-09T10:39:43Z</time>
      </trkpt>
      <trkpt lat="46.19646" lon="5.23641">
        <ele>237.8</ele>
        <time>2026-05-09T10:39:44Z</time>
      </trkpt>
      <trkpt lat="46.19643" lon="5.23644">
        <ele>238</ele>
        <time>2026-05-09T10:39:45Z</time>
      </trkpt>
      <trkpt lat="46.19639" lon="5.23648">
        <ele>237.6</ele>
        <time>2026-05-09T10:39:46Z</time>
      </trkpt>
      <trkpt lat="46.19635" lon="5.23652">
        <ele>237.6</ele>
        <time>2026-05-09T10:39:47Z</time>
      </trkpt>
      <trkpt lat="46.19632" lon="5.23655">
        <ele>237.6</ele>
        <time>2026-05-09T10:39:48Z</time>
      </trkpt>
      <trkpt lat="46.19628" lon="5.23658">
        <ele>237.2</ele>
        <time>2026-05-09T10:39:49Z</time>
      </trkpt>
      <trkpt lat="46.19625" lon="5.23662">
        <ele>237.2</ele>
        <time>2026-05-09T10:39:50Z</time>
      </trkpt>
      <trkpt lat="46.19621" lon="5.23664">
        <ele>237.2</ele>
        <time>2026-05-09T10:39:51Z</time>
      </trkpt>
      <trkpt lat="46.19614" lon="5.2367">
        <ele>237.2</ele>
        <time>2026-05-09T10:39:52Z</time>
      </trkpt>
      <trkpt lat="46.1961" lon="5.23672">
        <ele>237.2</ele>
        <time>2026-05-09T10:39:53Z</time>
      </trkpt>
      <trkpt lat="46.19606" lon="5.23674">
        <ele>237</ele>
        <time>2026-05-09T10:39:54Z</time>
      </trkpt>
      <trkpt lat="46.19603" lon="5.23676">
        <ele>236.8</ele>
        <time>2026-05-09T10:39:55Z</time>
      </trkpt>
      <trkpt lat="46.196" lon="5.23679">
        <ele>236.8</ele>
        <time>2026-05-09T10:39:56Z</time>
      </trkpt>
      <trkpt lat="46.19597" lon="5.23682">
        <ele>236.6</ele>
        <time>2026-05-09T10:39:57Z</time>
      </trkpt>
      <trkpt lat="46.19594" lon="5.23685">
        <ele>236.6</ele>
        <time>2026-05-09T10:39:58Z</time>
      </trkpt>
      <trkpt lat="46.19591" lon="5.23688">
        <ele>236.6</ele>
        <time>2026-05-09T10:39:59Z</time>
      </trkpt>
      <trkpt lat="46.19589" lon="5.2369">
        <ele>236.6</ele>
        <time>2026-05-09T10:40:00Z</time>
      </trkpt>
      <trkpt lat="46.19586" lon="5.23693">
        <ele>236.6</ele>
        <time>2026-05-09T10:40:01Z</time>
      </trkpt>
      <trkpt lat="46.19585" lon="5.23696">
        <ele>236.6</ele>
        <time>2026-05-09T10:40:02Z</time>
      </trkpt>
      <trkpt lat="46.19585" lon="5.237">
        <ele>236.6</ele>
        <time>2026-05-09T10:40:03Z</time>
      </trkpt>
      <trkpt lat="46.19586" lon="5.23704">
        <ele>236.6</ele>
        <time>2026-05-09T10:40:04Z</time>
      </trkpt>
      <trkpt lat="46.19587" lon="5.23708">
        <ele>236.6</ele>
        <time>2026-05-09T10:40:05Z</time>
      </trkpt>
      <trkpt lat="46.19589" lon="5.23712">
        <ele>236.6</ele>
        <time>2026-05-09T10:40:06Z</time>
      </trkpt>
      <trkpt lat="46.19591" lon="5.23717">
        <ele>236.6</ele>
        <time>2026-05-09T10:40:07Z</time>
      </trkpt>
      <trkpt lat="46.19593" lon="5.23723">
        <ele>236.6</ele>
        <time>2026-05-09T10:40:08Z</time>
      </trkpt>
      <trkpt lat="46.19594" lon="5.23728">
        <ele>236.6</ele>
        <time>2026-05-09T10:40:09Z</time>
      </trkpt>
      <trkpt lat="46.19597" lon="5.23735">
        <ele>236.6</ele>
        <time>2026-05-09T10:40:10Z</time>
      </trkpt>
      <trkpt lat="46.196" lon="5.2374">
        <ele>236.6</ele>
        <time>2026-05-09T10:40:11Z</time>
      </trkpt>
      <trkpt lat="46.19601" lon="5.23747">
        <ele>236.2</ele>
        <time>2026-05-09T10:40:12Z</time>
      </trkpt>
      <trkpt lat="46.19604" lon="5.23752">
        <ele>236.2</ele>
        <time>2026-05-09T10:40:13Z</time>
      </trkpt>
      <trkpt lat="46.19606" lon="5.23758">
        <ele>236.2</ele>
        <time>2026-05-09T10:40:14Z</time>
      </trkpt>
      <trkpt lat="46.19609" lon="5.23764">
        <ele>236.2</ele>
        <time>2026-05-09T10:40:15Z</time>
      </trkpt>
      <trkpt lat="46.19611" lon="5.23769">
        <ele>236.6</ele>
        <time>2026-05-09T10:40:16Z</time>
      </trkpt>
      <trkpt lat="46.19614" lon="5.23774">
        <ele>236.6</ele>
        <time>2026-05-09T10:40:17Z</time>
      </trkpt>
      <trkpt lat="46.19616" lon="5.23779">
        <ele>236.6</ele>
        <time>2026-05-09T10:40:18Z</time>
      </trkpt>
      <trkpt lat="46.19619" lon="5.23784">
        <ele>236.6</ele>
        <time>2026-05-09T10:40:19Z</time>
      </trkpt>
      <trkpt lat="46.19622" lon="5.23789">
        <ele>236.6</ele>
        <time>2026-05-09T10:40:20Z</time>
      </trkpt>
      <trkpt lat="46.19624" lon="5.23793">
        <ele>236.6</ele>
        <time>2026-05-09T10:40:21Z</time>
      </trkpt>
      <trkpt lat="46.19627" lon="5.23798">
        <ele>236.6</ele>
        <time>2026-05-09T10:40:22Z</time>
      </trkpt>
      <trkpt lat="46.19629" lon="5.23804">
        <ele>236.6</ele>
        <time>2026-05-09T10:40:23Z</time>
      </trkpt>
      <trkpt lat="46.19632" lon="5.23809">
        <ele>236.4</ele>
        <time>2026-05-09T10:40:24Z</time>
      </trkpt>
      <trkpt lat="46.19635" lon="5.23814">
        <ele>236.4</ele>
        <time>2026-05-09T10:40:25Z</time>
      </trkpt>
      <trkpt lat="46.19638" lon="5.23819">
        <ele>236.4</ele>
        <time>2026-05-09T10:40:26Z</time>
      </trkpt>
      <trkpt lat="46.19641" lon="5.23824">
        <ele>236.4</ele>
        <time>2026-05-09T10:40:27Z</time>
      </trkpt>
      <trkpt lat="46.19645" lon="5.23829">
        <ele>236.4</ele>
        <time>2026-05-09T10:40:28Z</time>
      </trkpt>
      <trkpt lat="46.19648" lon="5.23833">
        <ele>236.4</ele>
        <time>2026-05-09T10:40:29Z</time>
      </trkpt>
      <trkpt lat="46.19652" lon="5.23838">
        <ele>236.4</ele>
        <time>2026-05-09T10:40:30Z</time>
      </trkpt>
      <trkpt lat="46.19655" lon="5.23842">
        <ele>236.4</ele>
        <time>2026-05-09T10:40:31Z</time>
      </trkpt>
      <trkpt lat="46.19659" lon="5.23846">
        <ele>236.4</ele>
        <time>2026-05-09T10:40:32Z</time>
      </trkpt>
      <trkpt lat="46.19662" lon="5.2385">
        <ele>236.4</ele>
        <time>2026-05-09T10:40:33Z</time>
      </trkpt>
      <trkpt lat="46.19666" lon="5.23854">
        <ele>236.6</ele>
        <time>2026-05-09T10:40:34Z</time>
      </trkpt>
      <trkpt lat="46.19669" lon="5.23857">
        <ele>236.6</ele>
        <time>2026-05-09T10:40:35Z</time>
      </trkpt>
      <trkpt lat="46.19673" lon="5.23861">
        <ele>236.6</ele>
        <time>2026-05-09T10:40:36Z</time>
      </trkpt>
      <trkpt lat="46.19677" lon="5.23864">
        <ele>236.6</ele>
        <time>2026-05-09T10:40:37Z</time>
      </trkpt>
      <trkpt lat="46.19682" lon="5.23868">
        <ele>236.6</ele>
        <time>2026-05-09T10:40:38Z</time>
      </trkpt>
      <trkpt lat="46.19686" lon="5.23871">
        <ele>236.6</ele>
        <time>2026-05-09T10:40:39Z</time>
      </trkpt>
      <trkpt lat="46.1969" lon="5.23875">
        <ele>236.6</ele>
        <time>2026-05-09T10:40:40Z</time>
      </trkpt>
      <trkpt lat="46.19694" lon="5.23877">
        <ele>236.6</ele>
        <time>2026-05-09T10:40:41Z</time>
      </trkpt>
      <trkpt lat="46.19699" lon="5.23881">
        <ele>237</ele>
        <time>2026-05-09T10:40:42Z</time>
      </trkpt>
      <trkpt lat="46.19703" lon="5.23883">
        <ele>237</ele>
        <time>2026-05-09T10:40:43Z</time>
      </trkpt>
      <trkpt lat="46.19707" lon="5.23886">
        <ele>237</ele>
        <time>2026-05-09T10:40:44Z</time>
      </trkpt>
      <trkpt lat="46.19711" lon="5.23888">
        <ele>237.2</ele>
        <time>2026-05-09T10:40:45Z</time>
      </trkpt>
      <trkpt lat="46.19716" lon="5.2389">
        <ele>237.2</ele>
        <time>2026-05-09T10:40:46Z</time>
      </trkpt>
      <trkpt lat="46.1972" lon="5.23892">
        <ele>237.2</ele>
        <time>2026-05-09T10:40:47Z</time>
      </trkpt>
      <trkpt lat="46.19724" lon="5.23895">
        <ele>237.2</ele>
        <time>2026-05-09T10:40:48Z</time>
      </trkpt>
      <trkpt lat="46.19728" lon="5.23897">
        <ele>237.2</ele>
        <time>2026-05-09T10:40:49Z</time>
      </trkpt>
      <trkpt lat="46.19733" lon="5.23899">
        <ele>237.2</ele>
        <time>2026-05-09T10:40:50Z</time>
      </trkpt>
      <trkpt lat="46.19737" lon="5.23901">
        <ele>237.2</ele>
        <time>2026-05-09T10:40:51Z</time>
      </trkpt>
      <trkpt lat="46.19741" lon="5.23903">
        <ele>237.2</ele>
        <time>2026-05-09T10:40:52Z</time>
      </trkpt>
      <trkpt lat="46.19745" lon="5.23905">
        <ele>237.2</ele>
        <time>2026-05-09T10:40:53Z</time>
      </trkpt>
      <trkpt lat="46.19749" lon="5.23907">
        <ele>237.2</ele>
        <time>2026-05-09T10:40:54Z</time>
      </trkpt>
      <trkpt lat="46.19753" lon="5.2391">
        <ele>237</ele>
        <time>2026-05-09T10:40:55Z</time>
      </trkpt>
      <trkpt lat="46.19757" lon="5.23912">
        <ele>237</ele>
        <time>2026-05-09T10:40:56Z</time>
      </trkpt>
      <trkpt lat="46.1976" lon="5.23914">
        <ele>237</ele>
        <time>2026-05-09T10:40:57Z</time>
      </trkpt>
      <trkpt lat="46.19764" lon="5.23916">
        <ele>237</ele>
        <time>2026-05-09T10:40:58Z</time>
      </trkpt>
      <trkpt lat="46.19767" lon="5.23919">
        <ele>237</ele>
        <time>2026-05-09T10:40:59Z</time>
      </trkpt>
      <trkpt lat="46.1977" lon="5.2392">
        <ele>237</ele>
        <time>2026-05-09T10:41:00Z</time>
      </trkpt>
      <trkpt lat="46.19773" lon="5.23921">
        <ele>237</ele>
        <time>2026-05-09T10:41:01Z</time>
      </trkpt>
      <trkpt lat="46.19775" lon="5.23922">
        <ele>237</ele>
        <time>2026-05-09T10:41:02Z</time>
      </trkpt>
      <trkpt lat="46.19776" lon="5.23923">
        <ele>237</ele>
        <time>2026-05-09T10:41:03Z</time>
      </trkpt>
      <trkpt lat="46.19777" lon="5.23925">
        <ele>237</ele>
        <time>2026-05-09T10:41:04Z</time>
      </trkpt>
      <trkpt lat="46.19778" lon="5.23929">
        <ele>236.8</ele>
        <time>2026-05-09T10:41:05Z</time>
      </trkpt>
      <trkpt lat="46.19777" lon="5.23932">
        <ele>236.8</ele>
        <time>2026-05-09T10:41:06Z</time>
      </trkpt>
      <trkpt lat="46.19776" lon="5.23935">
        <ele>236.8</ele>
        <time>2026-05-09T10:41:07Z</time>
      </trkpt>
      <trkpt lat="46.19775" lon="5.23937">
        <ele>237</ele>
        <time>2026-05-09T10:41:08Z</time>
      </trkpt>
      <trkpt lat="46.19776" lon="5.23939">
        <ele>237</ele>
        <time>2026-05-09T10:41:09Z</time>
      </trkpt>
      <trkpt lat="46.19777" lon="5.2394">
        <ele>237</ele>
        <time>2026-05-09T10:41:10Z</time>
      </trkpt>
      <trkpt lat="46.19778" lon="5.23941">
        <ele>237</ele>
        <time>2026-05-09T10:41:11Z</time>
      </trkpt>
      <trkpt lat="46.19779" lon="5.23942">
        <ele>237</ele>
        <time>2026-05-09T10:41:12Z</time>
      </trkpt>
      <trkpt lat="46.19779" lon="5.23941">
        <ele>237</ele>
        <time>2026-05-09T10:41:13Z</time>
      </trkpt>
      <trkpt lat="46.19779" lon="5.23941">
        <ele>237</ele>
        <time>2026-05-09T10:41:14Z</time>
      </trkpt>
      <trkpt lat="46.19779" lon="5.23941">
        <ele>237.2</ele>
        <time>2026-05-09T10:41:15Z</time>
      </trkpt>
      <trkpt lat="46.19778" lon="5.23945">
        <ele>236.6</ele>
        <time>2026-05-09T10:41:41Z</time>
      </trkpt>
      <trkpt lat="46.19778" lon="5.23948">
        <ele>236.6</ele>
        <time>2026-05-09T10:41:42Z</time>
      </trkpt>
      <trkpt lat="46.19776" lon="5.23952">
        <ele>236.4</ele>
        <time>2026-05-09T10:41:43Z</time>
      </trkpt>
      <trkpt lat="46.19773" lon="5.23955">
        <ele>236.4</ele>
        <time>2026-05-09T10:41:44Z</time>
      </trkpt>
      <trkpt lat="46.1977" lon="5.23957">
        <ele>236.4</ele>
        <time>2026-05-09T10:41:45Z</time>
      </trkpt>
      <trkpt lat="46.19766" lon="5.23958">
        <ele>236.4</ele>
        <time>2026-05-09T10:41:46Z</time>
      </trkpt>
      <trkpt lat="46.19763" lon="5.23961">
        <ele>236.8</ele>
        <time>2026-05-09T10:41:47Z</time>
      </trkpt>
      <trkpt lat="46.19761" lon="5.23964">
        <ele>236.8</ele>
        <time>2026-05-09T10:41:48Z</time>
      </trkpt>
      <trkpt lat="46.19759" lon="5.23967">
        <ele>237.2</ele>
        <time>2026-05-09T10:41:49Z</time>
      </trkpt>
      <trkpt lat="46.19757" lon="5.2397">
        <ele>237.2</ele>
        <time>2026-05-09T10:41:50Z</time>
      </trkpt>
      <trkpt lat="46.19757" lon="5.23973">
        <ele>237.2</ele>
        <time>2026-05-09T10:41:51Z</time>
      </trkpt>
      <trkpt lat="46.19757" lon="5.23977">
        <ele>237.6</ele>
        <time>2026-05-09T10:41:52Z</time>
      </trkpt>
      <trkpt lat="46.19758" lon="5.23982">
        <ele>237.6</ele>
        <time>2026-05-09T10:41:53Z</time>
      </trkpt>
      <trkpt lat="46.19759" lon="5.23987">
        <ele>237.6</ele>
        <time>2026-05-09T10:41:54Z</time>
      </trkpt>
      <trkpt lat="46.19762" lon="5.23991">
        <ele>237.6</ele>
        <time>2026-05-09T10:41:55Z</time>
      </trkpt>
      <trkpt lat="46.19765" lon="5.23996">
        <ele>237.8</ele>
        <time>2026-05-09T10:41:56Z</time>
      </trkpt>
      <trkpt lat="46.19768" lon="5.24">
        <ele>238.2</ele>
        <time>2026-05-09T10:41:57Z</time>
      </trkpt>
      <trkpt lat="46.19772" lon="5.24004">
        <ele>238.2</ele>
        <time>2026-05-09T10:41:58Z</time>
      </trkpt>
      <trkpt lat="46.19773" lon="5.24011">
        <ele>238.2</ele>
        <time>2026-05-09T10:41:59Z</time>
      </trkpt>
      <trkpt lat="46.19774" lon="5.24016">
        <ele>238.2</ele>
        <time>2026-05-09T10:42:00Z</time>
      </trkpt>
      <trkpt lat="46.19775" lon="5.24022">
        <ele>238.6</ele>
        <time>2026-05-09T10:42:01Z</time>
      </trkpt>
      <trkpt lat="46.19775" lon="5.24028">
        <ele>238.8</ele>
        <time>2026-05-09T10:42:02Z</time>
      </trkpt>
      <trkpt lat="46.19774" lon="5.24034">
        <ele>238.8</ele>
        <time>2026-05-09T10:42:03Z</time>
      </trkpt>
      <trkpt lat="46.19775" lon="5.24039">
        <ele>239.2</ele>
        <time>2026-05-09T10:42:04Z</time>
      </trkpt>
      <trkpt lat="46.19775" lon="5.24045">
        <ele>239.2</ele>
        <time>2026-05-09T10:42:05Z</time>
      </trkpt>
      <trkpt lat="46.19775" lon="5.24051">
        <ele>239.2</ele>
        <time>2026-05-09T10:42:06Z</time>
      </trkpt>
      <trkpt lat="46.19775" lon="5.24057">
        <ele>239.2</ele>
        <time>2026-05-09T10:42:07Z</time>
      </trkpt>
      <trkpt lat="46.19775" lon="5.24064">
        <ele>239.2</ele>
        <time>2026-05-09T10:42:08Z</time>
      </trkpt>
      <trkpt lat="46.19775" lon="5.2407">
        <ele>239.2</ele>
        <time>2026-05-09T10:42:09Z</time>
      </trkpt>
      <trkpt lat="46.19774" lon="5.24077">
        <ele>239.4</ele>
        <time>2026-05-09T10:42:10Z</time>
      </trkpt>
      <trkpt lat="46.19774" lon="5.24084">
        <ele>239.4</ele>
        <time>2026-05-09T10:42:11Z</time>
      </trkpt>
      <trkpt lat="46.19775" lon="5.2409">
        <ele>239.4</ele>
        <time>2026-05-09T10:42:12Z</time>
      </trkpt>
      <trkpt lat="46.19775" lon="5.24096">
        <ele>239.4</ele>
        <time>2026-05-09T10:42:13Z</time>
      </trkpt>
      <trkpt lat="46.19774" lon="5.24103">
        <ele>239.6</ele>
        <time>2026-05-09T10:42:14Z</time>
      </trkpt>
      <trkpt lat="46.19775" lon="5.24111">
        <ele>239.6</ele>
        <time>2026-05-09T10:42:15Z</time>
      </trkpt>
      <trkpt lat="46.19775" lon="5.24117">
        <ele>239.4</ele>
        <time>2026-05-09T10:42:16Z</time>
      </trkpt>
      <trkpt lat="46.19775" lon="5.24124">
        <ele>239.4</ele>
        <time>2026-05-09T10:42:17Z</time>
      </trkpt>
      <trkpt lat="46.19775" lon="5.24131">
        <ele>239.4</ele>
        <time>2026-05-09T10:42:18Z</time>
      </trkpt>
      <trkpt lat="46.19776" lon="5.24137">
        <ele>239.4</ele>
        <time>2026-05-09T10:42:19Z</time>
      </trkpt>
      <trkpt lat="46.19777" lon="5.24143">
        <ele>239.4</ele>
        <time>2026-05-09T10:42:20Z</time>
      </trkpt>
      <trkpt lat="46.19778" lon="5.2415">
        <ele>239.4</ele>
        <time>2026-05-09T10:42:21Z</time>
      </trkpt>
      <trkpt lat="46.19777" lon="5.24157">
        <ele>238.8</ele>
        <time>2026-05-09T10:42:22Z</time>
      </trkpt>
      <trkpt lat="46.19778" lon="5.24165">
        <ele>238.8</ele>
        <time>2026-05-09T10:42:23Z</time>
      </trkpt>
      <trkpt lat="46.19779" lon="5.24173">
        <ele>238.4</ele>
        <time>2026-05-09T10:42:24Z</time>
      </trkpt>
      <trkpt lat="46.1978" lon="5.24181">
        <ele>238.4</ele>
        <time>2026-05-09T10:42:25Z</time>
      </trkpt>
      <trkpt lat="46.19779" lon="5.2419">
        <ele>238.2</ele>
        <time>2026-05-09T10:42:26Z</time>
      </trkpt>
      <trkpt lat="46.19778" lon="5.24198">
        <ele>238.2</ele>
        <time>2026-05-09T10:42:27Z</time>
      </trkpt>
      <trkpt lat="46.19777" lon="5.24206">
        <ele>237.8</ele>
        <time>2026-05-09T10:42:28Z</time>
      </trkpt>
      <trkpt lat="46.19775" lon="5.24214">
        <ele>237.4</ele>
        <time>2026-05-09T10:42:29Z</time>
      </trkpt>
      <trkpt lat="46.19772" lon="5.24222">
        <ele>237</ele>
        <time>2026-05-09T10:42:30Z</time>
      </trkpt>
      <trkpt lat="46.19769" lon="5.24231">
        <ele>237</ele>
        <time>2026-05-09T10:42:31Z</time>
      </trkpt>
      <trkpt lat="46.19766" lon="5.2424">
        <ele>236.6</ele>
        <time>2026-05-09T10:42:32Z</time>
      </trkpt>
      <trkpt lat="46.19763" lon="5.2425">
        <ele>236.2</ele>
        <time>2026-05-09T10:42:33Z</time>
      </trkpt>
      <trkpt lat="46.1976" lon="5.2426">
        <ele>236.2</ele>
        <time>2026-05-09T10:42:34Z</time>
      </trkpt>
      <trkpt lat="46.19756" lon="5.2427">
        <ele>235.8</ele>
        <time>2026-05-09T10:42:35Z</time>
      </trkpt>
      <trkpt lat="46.19751" lon="5.2428">
        <ele>235.8</ele>
        <time>2026-05-09T10:42:36Z</time>
      </trkpt>
      <trkpt lat="46.19748" lon="5.24289">
        <ele>235.6</ele>
        <time>2026-05-09T10:42:37Z</time>
      </trkpt>
      <trkpt lat="46.19745" lon="5.24299">
        <ele>235.6</ele>
        <time>2026-05-09T10:42:38Z</time>
      </trkpt>
      <trkpt lat="46.19741" lon="5.24309">
        <ele>235.6</ele>
        <time>2026-05-09T10:42:39Z</time>
      </trkpt>
      <trkpt lat="46.19738" lon="5.24319">
        <ele>235.6</ele>
        <time>2026-05-09T10:42:40Z</time>
      </trkpt>
      <trkpt lat="46.19735" lon="5.24328">
        <ele>235.6</ele>
        <time>2026-05-09T10:42:41Z</time>
      </trkpt>
      <trkpt lat="46.19733" lon="5.24337">
        <ele>235.4</ele>
        <time>2026-05-09T10:42:42Z</time>
      </trkpt>
      <trkpt lat="46.1973" lon="5.24346">
        <ele>235.4</ele>
        <time>2026-05-09T10:42:43Z</time>
      </trkpt>
      <trkpt lat="46.19729" lon="5.24355">
        <ele>235.4</ele>
        <time>2026-05-09T10:42:44Z</time>
      </trkpt>
      <trkpt lat="46.19728" lon="5.24364">
        <ele>235.4</ele>
        <time>2026-05-09T10:42:45Z</time>
      </trkpt>
      <trkpt lat="46.19727" lon="5.24374">
        <ele>235.4</ele>
        <time>2026-05-09T10:42:46Z</time>
      </trkpt>
      <trkpt lat="46.19728" lon="5.24381">
        <ele>235.4</ele>
        <time>2026-05-09T10:42:47Z</time>
      </trkpt>
      <trkpt lat="46.19727" lon="5.2439">
        <ele>235.4</ele>
        <time>2026-05-09T10:42:48Z</time>
      </trkpt>
      <trkpt lat="46.19727" lon="5.24399">
        <ele>235.4</ele>
        <time>2026-05-09T10:42:49Z</time>
      </trkpt>
      <trkpt lat="46.19726" lon="5.24407">
        <ele>235.4</ele>
        <time>2026-05-09T10:42:50Z</time>
      </trkpt>
      <trkpt lat="46.19727" lon="5.24415">
        <ele>235.8</ele>
        <time>2026-05-09T10:42:51Z</time>
      </trkpt>
      <trkpt lat="46.19726" lon="5.24424">
        <ele>235.8</ele>
        <time>2026-05-09T10:42:52Z</time>
      </trkpt>
      <trkpt lat="46.19726" lon="5.24433">
        <ele>235.8</ele>
        <time>2026-05-09T10:42:53Z</time>
      </trkpt>
      <trkpt lat="46.19726" lon="5.24441">
        <ele>235.8</ele>
        <time>2026-05-09T10:42:54Z</time>
      </trkpt>
      <trkpt lat="46.19725" lon="5.2445">
        <ele>235.8</ele>
        <time>2026-05-09T10:42:55Z</time>
      </trkpt>
      <trkpt lat="46.19724" lon="5.24457">
        <ele>235.8</ele>
        <time>2026-05-09T10:42:56Z</time>
      </trkpt>
      <trkpt lat="46.19722" lon="5.24463">
        <ele>236</ele>
        <time>2026-05-09T10:42:57Z</time>
      </trkpt>
      <trkpt lat="46.19721" lon="5.24471">
        <ele>236</ele>
        <time>2026-05-09T10:42:58Z</time>
      </trkpt>
      <trkpt lat="46.1972" lon="5.2448">
        <ele>236</ele>
        <time>2026-05-09T10:42:59Z</time>
      </trkpt>
      <trkpt lat="46.19719" lon="5.24487">
        <ele>236</ele>
        <time>2026-05-09T10:43:00Z</time>
      </trkpt>
      <trkpt lat="46.19716" lon="5.24502">
        <ele>236</ele>
        <time>2026-05-09T10:43:01Z</time>
      </trkpt>
      <trkpt lat="46.19715" lon="5.2451">
        <ele>236</ele>
        <time>2026-05-09T10:43:02Z</time>
      </trkpt>
      <trkpt lat="46.19714" lon="5.24517">
        <ele>236</ele>
        <time>2026-05-09T10:43:03Z</time>
      </trkpt>
      <trkpt lat="46.19712" lon="5.24524">
        <ele>236</ele>
        <time>2026-05-09T10:43:04Z</time>
      </trkpt>
      <trkpt lat="46.19711" lon="5.24531">
        <ele>236</ele>
        <time>2026-05-09T10:43:05Z</time>
      </trkpt>
      <trkpt lat="46.19709" lon="5.24539">
        <ele>236</ele>
        <time>2026-05-09T10:43:06Z</time>
      </trkpt>
      <trkpt lat="46.19708" lon="5.24546">
        <ele>236</ele>
        <time>2026-05-09T10:43:07Z</time>
      </trkpt>
      <trkpt lat="46.19707" lon="5.24554">
        <ele>236.2</ele>
        <time>2026-05-09T10:43:08Z</time>
      </trkpt>
      <trkpt lat="46.19706" lon="5.24561">
        <ele>236.2</ele>
        <time>2026-05-09T10:43:09Z</time>
      </trkpt>
      <trkpt lat="46.19704" lon="5.24568">
        <ele>236.2</ele>
        <time>2026-05-09T10:43:10Z</time>
      </trkpt>
      <trkpt lat="46.19702" lon="5.24576">
        <ele>236.2</ele>
        <time>2026-05-09T10:43:11Z</time>
      </trkpt>
      <trkpt lat="46.19701" lon="5.24583">
        <ele>236.2</ele>
        <time>2026-05-09T10:43:12Z</time>
      </trkpt>
      <trkpt lat="46.19699" lon="5.2459">
        <ele>236.2</ele>
        <time>2026-05-09T10:43:13Z</time>
      </trkpt>
      <trkpt lat="46.19698" lon="5.24597">
        <ele>236.4</ele>
        <time>2026-05-09T10:43:14Z</time>
      </trkpt>
      <trkpt lat="46.19696" lon="5.24605">
        <ele>236.4</ele>
        <time>2026-05-09T10:43:15Z</time>
      </trkpt>
      <trkpt lat="46.19694" lon="5.24612">
        <ele>236.4</ele>
        <time>2026-05-09T10:43:16Z</time>
      </trkpt>
      <trkpt lat="46.19693" lon="5.24619">
        <ele>236.4</ele>
        <time>2026-05-09T10:43:17Z</time>
      </trkpt>
      <trkpt lat="46.19691" lon="5.24627">
        <ele>236.4</ele>
        <time>2026-05-09T10:43:18Z</time>
      </trkpt>
      <trkpt lat="46.1969" lon="5.24634">
        <ele>236.4</ele>
        <time>2026-05-09T10:43:19Z</time>
      </trkpt>
      <trkpt lat="46.19688" lon="5.24642">
        <ele>236.6</ele>
        <time>2026-05-09T10:43:20Z</time>
      </trkpt>
      <trkpt lat="46.19687" lon="5.24649">
        <ele>236.6</ele>
        <time>2026-05-09T10:43:21Z</time>
      </trkpt>
      <trkpt lat="46.19685" lon="5.24656">
        <ele>236.6</ele>
        <time>2026-05-09T10:43:22Z</time>
      </trkpt>
      <trkpt lat="46.19684" lon="5.24663">
        <ele>236.6</ele>
        <time>2026-05-09T10:43:23Z</time>
      </trkpt>
      <trkpt lat="46.19683" lon="5.24671">
        <ele>236.6</ele>
        <time>2026-05-09T10:43:24Z</time>
      </trkpt>
      <trkpt lat="46.19681" lon="5.24678">
        <ele>236.8</ele>
        <time>2026-05-09T10:43:25Z</time>
      </trkpt>
      <trkpt lat="46.1968" lon="5.24685">
        <ele>236.8</ele>
        <time>2026-05-09T10:43:26Z</time>
      </trkpt>
      <trkpt lat="46.19679" lon="5.24692">
        <ele>236.8</ele>
        <time>2026-05-09T10:43:27Z</time>
      </trkpt>
      <trkpt lat="46.19678" lon="5.24699">
        <ele>236.8</ele>
        <time>2026-05-09T10:43:28Z</time>
      </trkpt>
      <trkpt lat="46.19677" lon="5.24706">
        <ele>236.8</ele>
        <time>2026-05-09T10:43:29Z</time>
      </trkpt>
      <trkpt lat="46.19675" lon="5.24713">
        <ele>236.8</ele>
        <time>2026-05-09T10:43:30Z</time>
      </trkpt>
      <trkpt lat="46.19674" lon="5.2472">
        <ele>237</ele>
        <time>2026-05-09T10:43:31Z</time>
      </trkpt>
      <trkpt lat="46.19672" lon="5.24726">
        <ele>237</ele>
        <time>2026-05-09T10:43:32Z</time>
      </trkpt>
      <trkpt lat="46.19671" lon="5.24734">
        <ele>237</ele>
        <time>2026-05-09T10:43:33Z</time>
      </trkpt>
      <trkpt lat="46.1967" lon="5.24741">
        <ele>237</ele>
        <time>2026-05-09T10:43:34Z</time>
      </trkpt>
      <trkpt lat="46.19669" lon="5.24747">
        <ele>237.6</ele>
        <time>2026-05-09T10:43:35Z</time>
      </trkpt>
      <trkpt lat="46.19668" lon="5.24753">
        <ele>237.2</ele>
        <time>2026-05-09T10:43:36Z</time>
      </trkpt>
      <trkpt lat="46.19666" lon="5.2476">
        <ele>237.2</ele>
        <time>2026-05-09T10:43:37Z</time>
      </trkpt>
      <trkpt lat="46.19665" lon="5.24766">
        <ele>237.2</ele>
        <time>2026-05-09T10:43:38Z</time>
      </trkpt>
      <trkpt lat="46.19663" lon="5.24773">
        <ele>237.2</ele>
        <time>2026-05-09T10:43:39Z</time>
      </trkpt>
      <trkpt lat="46.19661" lon="5.24779">
        <ele>237.6</ele>
        <time>2026-05-09T10:43:40Z</time>
      </trkpt>
      <trkpt lat="46.19659" lon="5.24785">
        <ele>237.6</ele>
        <time>2026-05-09T10:43:41Z</time>
      </trkpt>
      <trkpt lat="46.19657" lon="5.24792">
        <ele>237.8</ele>
        <time>2026-05-09T10:43:42Z</time>
      </trkpt>
      <trkpt lat="46.19655" lon="5.24798">
        <ele>237.8</ele>
        <time>2026-05-09T10:43:43Z</time>
      </trkpt>
      <trkpt lat="46.19653" lon="5.24805">
        <ele>237.8</ele>
        <time>2026-05-09T10:43:44Z</time>
      </trkpt>
      <trkpt lat="46.19651" lon="5.2481">
        <ele>237.8</ele>
        <time>2026-05-09T10:43:45Z</time>
      </trkpt>
      <trkpt lat="46.19649" lon="5.24817">
        <ele>237.8</ele>
        <time>2026-05-09T10:43:46Z</time>
      </trkpt>
      <trkpt lat="46.19647" lon="5.24823">
        <ele>238</ele>
        <time>2026-05-09T10:43:47Z</time>
      </trkpt>
      <trkpt lat="46.19645" lon="5.24829">
        <ele>238</ele>
        <time>2026-05-09T10:43:48Z</time>
      </trkpt>
      <trkpt lat="46.19643" lon="5.24836">
        <ele>238.4</ele>
        <time>2026-05-09T10:43:49Z</time>
      </trkpt>
      <trkpt lat="46.19641" lon="5.24842">
        <ele>238.4</ele>
        <time>2026-05-09T10:43:50Z</time>
      </trkpt>
      <trkpt lat="46.19639" lon="5.24848">
        <ele>238.4</ele>
        <time>2026-05-09T10:43:51Z</time>
      </trkpt>
      <trkpt lat="46.19636" lon="5.24855">
        <ele>238.6</ele>
        <time>2026-05-09T10:43:52Z</time>
      </trkpt>
      <trkpt lat="46.19634" lon="5.24861">
        <ele>238.6</ele>
        <time>2026-05-09T10:43:53Z</time>
      </trkpt>
      <trkpt lat="46.19632" lon="5.24868">
        <ele>238.2</ele>
        <time>2026-05-09T10:43:54Z</time>
      </trkpt>
      <trkpt lat="46.1963" lon="5.24874">
        <ele>238.2</ele>
        <time>2026-05-09T10:43:55Z</time>
      </trkpt>
      <trkpt lat="46.19628" lon="5.2488">
        <ele>238.2</ele>
        <time>2026-05-09T10:43:56Z</time>
      </trkpt>
      <trkpt lat="46.19626" lon="5.24886">
        <ele>238.2</ele>
        <time>2026-05-09T10:43:57Z</time>
      </trkpt>
      <trkpt lat="46.19623" lon="5.24893">
        <ele>238.2</ele>
        <time>2026-05-09T10:43:58Z</time>
      </trkpt>
      <trkpt lat="46.1962" lon="5.24899">
        <ele>238.2</ele>
        <time>2026-05-09T10:43:59Z</time>
      </trkpt>
      <trkpt lat="46.19618" lon="5.24906">
        <ele>238.2</ele>
        <time>2026-05-09T10:44:00Z</time>
      </trkpt>
      <trkpt lat="46.19616" lon="5.24912">
        <ele>238.2</ele>
        <time>2026-05-09T10:44:01Z</time>
      </trkpt>
      <trkpt lat="46.19614" lon="5.24919">
        <ele>238.2</ele>
        <time>2026-05-09T10:44:02Z</time>
      </trkpt>
      <trkpt lat="46.19611" lon="5.24925">
        <ele>238.6</ele>
        <time>2026-05-09T10:44:03Z</time>
      </trkpt>
      <trkpt lat="46.19609" lon="5.24932">
        <ele>238.6</ele>
        <time>2026-05-09T10:44:04Z</time>
      </trkpt>
      <trkpt lat="46.19606" lon="5.24938">
        <ele>238.6</ele>
        <time>2026-05-09T10:44:05Z</time>
      </trkpt>
      <trkpt lat="46.19604" lon="5.24945">
        <ele>238.6</ele>
        <time>2026-05-09T10:44:06Z</time>
      </trkpt>
      <trkpt lat="46.19602" lon="5.24951">
        <ele>238.6</ele>
        <time>2026-05-09T10:44:07Z</time>
      </trkpt>
      <trkpt lat="46.19599" lon="5.24957">
        <ele>238.6</ele>
        <time>2026-05-09T10:44:08Z</time>
      </trkpt>
      <trkpt lat="46.19597" lon="5.24963">
        <ele>238.6</ele>
        <time>2026-05-09T10:44:09Z</time>
      </trkpt>
      <trkpt lat="46.19595" lon="5.24969">
        <ele>238.8</ele>
        <time>2026-05-09T10:44:10Z</time>
      </trkpt>
      <trkpt lat="46.19593" lon="5.24976">
        <ele>239</ele>
        <time>2026-05-09T10:44:11Z</time>
      </trkpt>
      <trkpt lat="46.19591" lon="5.24982">
        <ele>239</ele>
        <time>2026-05-09T10:44:12Z</time>
      </trkpt>
      <trkpt lat="46.1959" lon="5.24988">
        <ele>239</ele>
        <time>2026-05-09T10:44:13Z</time>
      </trkpt>
      <trkpt lat="46.19588" lon="5.24995">
        <ele>239</ele>
        <time>2026-05-09T10:44:14Z</time>
      </trkpt>
      <trkpt lat="46.19587" lon="5.25001">
        <ele>239.4</ele>
        <time>2026-05-09T10:44:15Z</time>
      </trkpt>
      <trkpt lat="46.19584" lon="5.25007">
        <ele>239.6</ele>
        <time>2026-05-09T10:44:16Z</time>
      </trkpt>
      <trkpt lat="46.19582" lon="5.25014">
        <ele>239.6</ele>
        <time>2026-05-09T10:44:17Z</time>
      </trkpt>
      <trkpt lat="46.19581" lon="5.2502">
        <ele>239.6</ele>
        <time>2026-05-09T10:44:18Z</time>
      </trkpt>
      <trkpt lat="46.19579" lon="5.25026">
        <ele>239.6</ele>
        <time>2026-05-09T10:44:19Z</time>
      </trkpt>
      <trkpt lat="46.19577" lon="5.25033">
        <ele>239.8</ele>
        <time>2026-05-09T10:44:20Z</time>
      </trkpt>
      <trkpt lat="46.19576" lon="5.25039">
        <ele>239.8</ele>
        <time>2026-05-09T10:44:21Z</time>
      </trkpt>
      <trkpt lat="46.19574" lon="5.25044">
        <ele>239.4</ele>
        <time>2026-05-09T10:44:22Z</time>
      </trkpt>
      <trkpt lat="46.19572" lon="5.2505">
        <ele>239.4</ele>
        <time>2026-05-09T10:44:23Z</time>
      </trkpt>
      <trkpt lat="46.19571" lon="5.25056">
        <ele>239.8</ele>
        <time>2026-05-09T10:44:24Z</time>
      </trkpt>
      <trkpt lat="46.19569" lon="5.25062">
        <ele>239.8</ele>
        <time>2026-05-09T10:44:25Z</time>
      </trkpt>
      <trkpt lat="46.19567" lon="5.25068">
        <ele>239.8</ele>
        <time>2026-05-09T10:44:26Z</time>
      </trkpt>
      <trkpt lat="46.19565" lon="5.25074">
        <ele>239.8</ele>
        <time>2026-05-09T10:44:27Z</time>
      </trkpt>
      <trkpt lat="46.19563" lon="5.2508">
        <ele>239.8</ele>
        <time>2026-05-09T10:44:28Z</time>
      </trkpt>
      <trkpt lat="46.19561" lon="5.25086">
        <ele>240</ele>
        <time>2026-05-09T10:44:29Z</time>
      </trkpt>
      <trkpt lat="46.1956" lon="5.25092">
        <ele>240.4</ele>
        <time>2026-05-09T10:44:30Z</time>
      </trkpt>
      <trkpt lat="46.19558" lon="5.25098">
        <ele>240.4</ele>
        <time>2026-05-09T10:44:31Z</time>
      </trkpt>
      <trkpt lat="46.19558" lon="5.25098">
        <ele>240.6</ele>
        <time>2026-05-09T10:44:32Z</time>
      </trkpt>
      <trkpt lat="46.19556" lon="5.25104">
        <ele>240.6</ele>
        <time>2026-05-09T10:44:33Z</time>
      </trkpt>
      <trkpt lat="46.19554" lon="5.25109">
        <ele>240.6</ele>
        <time>2026-05-09T10:44:34Z</time>
      </trkpt>
      <trkpt lat="46.19552" lon="5.25114">
        <ele>240.6</ele>
        <time>2026-05-09T10:44:35Z</time>
      </trkpt>
      <trkpt lat="46.19551" lon="5.25119">
        <ele>240.6</ele>
        <time>2026-05-09T10:44:36Z</time>
      </trkpt>
      <trkpt lat="46.19549" lon="5.25125">
        <ele>240.6</ele>
        <time>2026-05-09T10:44:37Z</time>
      </trkpt>
      <trkpt lat="46.19546" lon="5.2513">
        <ele>240.6</ele>
        <time>2026-05-09T10:44:38Z</time>
      </trkpt>
      <trkpt lat="46.19545" lon="5.25134">
        <ele>240.8</ele>
        <time>2026-05-09T10:44:39Z</time>
      </trkpt>
      <trkpt lat="46.19543" lon="5.25139">
        <ele>240.8</ele>
        <time>2026-05-09T10:44:40Z</time>
      </trkpt>
      <trkpt lat="46.19541" lon="5.25145">
        <ele>240.8</ele>
        <time>2026-05-09T10:44:41Z</time>
      </trkpt>
      <trkpt lat="46.19538" lon="5.2515">
        <ele>240.8</ele>
        <time>2026-05-09T10:44:42Z</time>
      </trkpt>
      <trkpt lat="46.19536" lon="5.25156">
        <ele>240.8</ele>
        <time>2026-05-09T10:44:43Z</time>
      </trkpt>
      <trkpt lat="46.19533" lon="5.25162">
        <ele>240.8</ele>
        <time>2026-05-09T10:44:44Z</time>
      </trkpt>
      <trkpt lat="46.1953" lon="5.25168">
        <ele>240.8</ele>
        <time>2026-05-09T10:44:45Z</time>
      </trkpt>
      <trkpt lat="46.19528" lon="5.25175">
        <ele>240.8</ele>
        <time>2026-05-09T10:44:46Z</time>
      </trkpt>
      <trkpt lat="46.19525" lon="5.25182">
        <ele>240.6</ele>
        <time>2026-05-09T10:44:47Z</time>
      </trkpt>
      <trkpt lat="46.19523" lon="5.25189">
        <ele>240.6</ele>
        <time>2026-05-09T10:44:48Z</time>
      </trkpt>
      <trkpt lat="46.1952" lon="5.25196">
        <ele>240.6</ele>
        <time>2026-05-09T10:44:49Z</time>
      </trkpt>
      <trkpt lat="46.19518" lon="5.25204">
        <ele>240.6</ele>
        <time>2026-05-09T10:44:50Z</time>
      </trkpt>
      <trkpt lat="46.19514" lon="5.2521">
        <ele>240.6</ele>
        <time>2026-05-09T10:44:51Z</time>
      </trkpt>
      <trkpt lat="46.19512" lon="5.25217">
        <ele>240.4</ele>
        <time>2026-05-09T10:44:52Z</time>
      </trkpt>
      <trkpt lat="46.19509" lon="5.25224">
        <ele>240.4</ele>
        <time>2026-05-09T10:44:53Z</time>
      </trkpt>
      <trkpt lat="46.19506" lon="5.2523">
        <ele>239.8</ele>
        <time>2026-05-09T10:44:54Z</time>
      </trkpt>
      <trkpt lat="46.19503" lon="5.25237">
        <ele>239.8</ele>
        <time>2026-05-09T10:44:55Z</time>
      </trkpt>
      <trkpt lat="46.195" lon="5.25243">
        <ele>239.8</ele>
        <time>2026-05-09T10:44:56Z</time>
      </trkpt>
      <trkpt lat="46.19497" lon="5.25249">
        <ele>239.8</ele>
        <time>2026-05-09T10:44:57Z</time>
      </trkpt>
      <trkpt lat="46.19495" lon="5.25255">
        <ele>239.8</ele>
        <time>2026-05-09T10:44:58Z</time>
      </trkpt>
      <trkpt lat="46.19491" lon="5.25262">
        <ele>239.8</ele>
        <time>2026-05-09T10:44:59Z</time>
      </trkpt>
      <trkpt lat="46.19488" lon="5.25267">
        <ele>239.8</ele>
        <time>2026-05-09T10:45:00Z</time>
      </trkpt>
      <trkpt lat="46.19484" lon="5.25273">
        <ele>239.8</ele>
        <time>2026-05-09T10:45:01Z</time>
      </trkpt>
      <trkpt lat="46.19481" lon="5.25278">
        <ele>239.6</ele>
        <time>2026-05-09T10:45:02Z</time>
      </trkpt>
      <trkpt lat="46.19478" lon="5.25284">
        <ele>239.6</ele>
        <time>2026-05-09T10:45:03Z</time>
      </trkpt>
      <trkpt lat="46.19475" lon="5.25291">
        <ele>239.6</ele>
        <time>2026-05-09T10:45:04Z</time>
      </trkpt>
      <trkpt lat="46.19472" lon="5.25297">
        <ele>239.6</ele>
        <time>2026-05-09T10:45:05Z</time>
      </trkpt>
      <trkpt lat="46.19468" lon="5.25302">
        <ele>239.6</ele>
        <time>2026-05-09T10:45:06Z</time>
      </trkpt>
      <trkpt lat="46.19465" lon="5.25307">
        <ele>239.4</ele>
        <time>2026-05-09T10:45:07Z</time>
      </trkpt>
      <trkpt lat="46.19461" lon="5.25314">
        <ele>239.4</ele>
        <time>2026-05-09T10:45:08Z</time>
      </trkpt>
      <trkpt lat="46.19458" lon="5.2532">
        <ele>239.4</ele>
        <time>2026-05-09T10:45:09Z</time>
      </trkpt>
      <trkpt lat="46.19455" lon="5.25328">
        <ele>239.4</ele>
        <time>2026-05-09T10:45:10Z</time>
      </trkpt>
      <trkpt lat="46.19453" lon="5.25336">
        <ele>239.4</ele>
        <time>2026-05-09T10:45:11Z</time>
      </trkpt>
      <trkpt lat="46.19446" lon="5.25341">
        <ele>239</ele>
        <time>2026-05-09T10:45:12Z</time>
      </trkpt>
      <trkpt lat="46.19443" lon="5.25348">
        <ele>239</ele>
        <time>2026-05-09T10:45:13Z</time>
      </trkpt>
      <trkpt lat="46.19437" lon="5.25357">
        <ele>239</ele>
        <time>2026-05-09T10:45:14Z</time>
      </trkpt>
      <trkpt lat="46.19435" lon="5.25365">
        <ele>238.8</ele>
        <time>2026-05-09T10:45:15Z</time>
      </trkpt>
      <trkpt lat="46.19432" lon="5.25372">
        <ele>238.8</ele>
        <time>2026-05-09T10:45:16Z</time>
      </trkpt>
      <trkpt lat="46.19428" lon="5.25379">
        <ele>238.8</ele>
        <time>2026-05-09T10:45:17Z</time>
      </trkpt>
      <trkpt lat="46.19426" lon="5.25387">
        <ele>238.8</ele>
        <time>2026-05-09T10:45:18Z</time>
      </trkpt>
      <trkpt lat="46.19423" lon="5.25394">
        <ele>238.8</ele>
        <time>2026-05-09T10:45:19Z</time>
      </trkpt>
      <trkpt lat="46.19419" lon="5.254">
        <ele>238.8</ele>
        <time>2026-05-09T10:45:20Z</time>
      </trkpt>
      <trkpt lat="46.19415" lon="5.25404">
        <ele>238.8</ele>
        <time>2026-05-09T10:45:21Z</time>
      </trkpt>
      <trkpt lat="46.19411" lon="5.25411">
        <ele>238.4</ele>
        <time>2026-05-09T10:45:22Z</time>
      </trkpt>
      <trkpt lat="46.19407" lon="5.25417">
        <ele>238.4</ele>
        <time>2026-05-09T10:45:23Z</time>
      </trkpt>
      <trkpt lat="46.19403" lon="5.25422">
        <ele>238</ele>
        <time>2026-05-09T10:45:24Z</time>
      </trkpt>
      <trkpt lat="46.19399" lon="5.25429">
        <ele>238</ele>
        <time>2026-05-09T10:45:25Z</time>
      </trkpt>
      <trkpt lat="46.19396" lon="5.25437">
        <ele>237.8</ele>
        <time>2026-05-09T10:45:26Z</time>
      </trkpt>
      <trkpt lat="46.19392" lon="5.25442">
        <ele>237.8</ele>
        <time>2026-05-09T10:45:27Z</time>
      </trkpt>
      <trkpt lat="46.19388" lon="5.25451">
        <ele>237.6</ele>
        <time>2026-05-09T10:45:28Z</time>
      </trkpt>
      <trkpt lat="46.19383" lon="5.25459">
        <ele>237.6</ele>
        <time>2026-05-09T10:45:29Z</time>
      </trkpt>
      <trkpt lat="46.1938" lon="5.25466">
        <ele>237.6</ele>
        <time>2026-05-09T10:45:30Z</time>
      </trkpt>
      <trkpt lat="46.19378" lon="5.25474">
        <ele>237.6</ele>
        <time>2026-05-09T10:45:31Z</time>
      </trkpt>
      <trkpt lat="46.19376" lon="5.2548">
        <ele>237.6</ele>
        <time>2026-05-09T10:45:32Z</time>
      </trkpt>
      <trkpt lat="46.19372" lon="5.25488">
        <ele>237.6</ele>
        <time>2026-05-09T10:45:33Z</time>
      </trkpt>
      <trkpt lat="46.19369" lon="5.25499">
        <ele>237.4</ele>
        <time>2026-05-09T10:45:34Z</time>
      </trkpt>
      <trkpt lat="46.19365" lon="5.25502">
        <ele>237</ele>
        <time>2026-05-09T10:45:35Z</time>
      </trkpt>
      <trkpt lat="46.19361" lon="5.25508">
        <ele>237</ele>
        <time>2026-05-09T10:45:36Z</time>
      </trkpt>
      <trkpt lat="46.19356" lon="5.25514">
        <ele>236.8</ele>
        <time>2026-05-09T10:45:37Z</time>
      </trkpt>
      <trkpt lat="46.19353" lon="5.25518">
        <ele>236.8</ele>
        <time>2026-05-09T10:45:38Z</time>
      </trkpt>
      <trkpt lat="46.19348" lon="5.25523">
        <ele>236.4</ele>
        <time>2026-05-09T10:45:39Z</time>
      </trkpt>
      <trkpt lat="46.19344" lon="5.25528">
        <ele>236.4</ele>
        <time>2026-05-09T10:45:40Z</time>
      </trkpt>
      <trkpt lat="46.19344" lon="5.25528">
        <ele>236</ele>
        <time>2026-05-09T10:45:41Z</time>
      </trkpt>
      <trkpt lat="46.19344" lon="5.25528">
        <ele>235.6</ele>
        <time>2026-05-09T10:45:42Z</time>
      </trkpt>
      <trkpt lat="46.19324" lon="5.25554">
        <ele>235.4</ele>
        <time>2026-05-09T10:45:44Z</time>
      </trkpt>
      <trkpt lat="46.19319" lon="5.2556">
        <ele>235.4</ele>
        <time>2026-05-09T10:45:45Z</time>
      </trkpt>
      <trkpt lat="46.19315" lon="5.25567">
        <ele>235</ele>
        <time>2026-05-09T10:45:46Z</time>
      </trkpt>
      <trkpt lat="46.1931" lon="5.25573">
        <ele>234.6</ele>
        <time>2026-05-09T10:45:47Z</time>
      </trkpt>
      <trkpt lat="46.19306" lon="5.25579">
        <ele>234.6</ele>
        <time>2026-05-09T10:45:48Z</time>
      </trkpt>
      <trkpt lat="46.193" lon="5.25585">
        <ele>234.6</ele>
        <time>2026-05-09T10:45:49Z</time>
      </trkpt>
      <trkpt lat="46.19294" lon="5.25589">
        <ele>234.6</ele>
        <time>2026-05-09T10:45:50Z</time>
      </trkpt>
      <trkpt lat="46.19289" lon="5.25597">
        <ele>234.6</ele>
        <time>2026-05-09T10:45:51Z</time>
      </trkpt>
      <trkpt lat="46.19285" lon="5.25603">
        <ele>234.4</ele>
        <time>2026-05-09T10:45:52Z</time>
      </trkpt>
      <trkpt lat="46.19281" lon="5.2561">
        <ele>234.4</ele>
        <time>2026-05-09T10:45:53Z</time>
      </trkpt>
      <trkpt lat="46.19277" lon="5.25616">
        <ele>234.4</ele>
        <time>2026-05-09T10:45:54Z</time>
      </trkpt>
      <trkpt lat="46.19273" lon="5.25623">
        <ele>234.2</ele>
        <time>2026-05-09T10:45:55Z</time>
      </trkpt>
      <trkpt lat="46.19269" lon="5.25628">
        <ele>234.2</ele>
        <time>2026-05-09T10:45:56Z</time>
      </trkpt>
      <trkpt lat="46.19264" lon="5.25634">
        <ele>233.8</ele>
        <time>2026-05-09T10:45:57Z</time>
      </trkpt>
      <trkpt lat="46.1926" lon="5.25639">
        <ele>233.8</ele>
        <time>2026-05-09T10:45:58Z</time>
      </trkpt>
      <trkpt lat="46.19256" lon="5.25643">
        <ele>233.6</ele>
        <time>2026-05-09T10:45:59Z</time>
      </trkpt>
      <trkpt lat="46.19252" lon="5.25647">
        <ele>233.4</ele>
        <time>2026-05-09T10:46:00Z</time>
      </trkpt>
      <trkpt lat="46.19248" lon="5.2565">
        <ele>233.2</ele>
        <time>2026-05-09T10:46:01Z</time>
      </trkpt>
      <trkpt lat="46.19243" lon="5.25651">
        <ele>233.2</ele>
        <time>2026-05-09T10:46:02Z</time>
      </trkpt>
      <trkpt lat="46.19239" lon="5.25651">
        <ele>233.2</ele>
        <time>2026-05-09T10:46:03Z</time>
      </trkpt>
      <trkpt lat="46.19235" lon="5.25652">
        <ele>233.2</ele>
        <time>2026-05-09T10:46:04Z</time>
      </trkpt>
      <trkpt lat="46.19232" lon="5.25654">
        <ele>233.2</ele>
        <time>2026-05-09T10:46:05Z</time>
      </trkpt>
      <trkpt lat="46.19228" lon="5.25657">
        <ele>233.2</ele>
        <time>2026-05-09T10:46:06Z</time>
      </trkpt>
      <trkpt lat="46.19226" lon="5.25662">
        <ele>233.2</ele>
        <time>2026-05-09T10:46:07Z</time>
      </trkpt>
      <trkpt lat="46.19223" lon="5.25667">
        <ele>233.2</ele>
        <time>2026-05-09T10:46:08Z</time>
      </trkpt>
      <trkpt lat="46.19221" lon="5.25671">
        <ele>233</ele>
        <time>2026-05-09T10:46:09Z</time>
      </trkpt>
      <trkpt lat="46.19218" lon="5.25674">
        <ele>233</ele>
        <time>2026-05-09T10:46:10Z</time>
      </trkpt>
      <trkpt lat="46.19213" lon="5.25674">
        <ele>233</ele>
        <time>2026-05-09T10:46:11Z</time>
      </trkpt>
      <trkpt lat="46.19209" lon="5.25672">
        <ele>233</ele>
        <time>2026-05-09T10:46:12Z</time>
      </trkpt>
      <trkpt lat="46.19205" lon="5.25672">
        <ele>233</ele>
        <time>2026-05-09T10:46:13Z</time>
      </trkpt>
      <trkpt lat="46.192" lon="5.2567">
        <ele>233</ele>
        <time>2026-05-09T10:46:14Z</time>
      </trkpt>
      <trkpt lat="46.19196" lon="5.25668">
        <ele>233</ele>
        <time>2026-05-09T10:46:15Z</time>
      </trkpt>
      <trkpt lat="46.19191" lon="5.25666">
        <ele>233</ele>
        <time>2026-05-09T10:46:16Z</time>
      </trkpt>
      <trkpt lat="46.19186" lon="5.25664">
        <ele>233</ele>
        <time>2026-05-09T10:46:17Z</time>
      </trkpt>
      <trkpt lat="46.19181" lon="5.25661">
        <ele>232.6</ele>
        <time>2026-05-09T10:46:18Z</time>
      </trkpt>
      <trkpt lat="46.19177" lon="5.25659">
        <ele>232.6</ele>
        <time>2026-05-09T10:46:19Z</time>
      </trkpt>
      <trkpt lat="46.19172" lon="5.25656">
        <ele>232.6</ele>
        <time>2026-05-09T10:46:20Z</time>
      </trkpt>
      <trkpt lat="46.19167" lon="5.25653">
        <ele>232.6</ele>
        <time>2026-05-09T10:46:21Z</time>
      </trkpt>
      <trkpt lat="46.19163" lon="5.25649">
        <ele>232.4</ele>
        <time>2026-05-09T10:46:22Z</time>
      </trkpt>
      <trkpt lat="46.19159" lon="5.25646">
        <ele>232.4</ele>
        <time>2026-05-09T10:46:23Z</time>
      </trkpt>
      <trkpt lat="46.19155" lon="5.25642">
        <ele>232.6</ele>
        <time>2026-05-09T10:46:24Z</time>
      </trkpt>
      <trkpt lat="46.19151" lon="5.25639">
        <ele>232.6</ele>
        <time>2026-05-09T10:46:25Z</time>
      </trkpt>
      <trkpt lat="46.19147" lon="5.25636">
        <ele>232.6</ele>
        <time>2026-05-09T10:46:26Z</time>
      </trkpt>
      <trkpt lat="46.19142" lon="5.25633">
        <ele>232.6</ele>
        <time>2026-05-09T10:46:27Z</time>
      </trkpt>
      <trkpt lat="46.19138" lon="5.2563">
        <ele>232.6</ele>
        <time>2026-05-09T10:46:28Z</time>
      </trkpt>
      <trkpt lat="46.19134" lon="5.25626">
        <ele>232.8</ele>
        <time>2026-05-09T10:46:29Z</time>
      </trkpt>
      <trkpt lat="46.1913" lon="5.25623">
        <ele>232.8</ele>
        <time>2026-05-09T10:46:30Z</time>
      </trkpt>
      <trkpt lat="46.19125" lon="5.2562">
        <ele>232.8</ele>
        <time>2026-05-09T10:46:31Z</time>
      </trkpt>
      <trkpt lat="46.19121" lon="5.25616">
        <ele>232.8</ele>
        <time>2026-05-09T10:46:32Z</time>
      </trkpt>
      <trkpt lat="46.19116" lon="5.25613">
        <ele>232.8</ele>
        <time>2026-05-09T10:46:33Z</time>
      </trkpt>
      <trkpt lat="46.19112" lon="5.25609">
        <ele>233</ele>
        <time>2026-05-09T10:46:34Z</time>
      </trkpt>
      <trkpt lat="46.19108" lon="5.25606">
        <ele>233</ele>
        <time>2026-05-09T10:46:35Z</time>
      </trkpt>
      <trkpt lat="46.19103" lon="5.25603">
        <ele>233</ele>
        <time>2026-05-09T10:46:36Z</time>
      </trkpt>
      <trkpt lat="46.19099" lon="5.256">
        <ele>233</ele>
        <time>2026-05-09T10:46:37Z</time>
      </trkpt>
      <trkpt lat="46.19099" lon="5.256">
        <ele>233.4</ele>
        <time>2026-05-09T10:46:38Z</time>
      </trkpt>
      <trkpt lat="46.19099" lon="5.256">
        <ele>233.4</ele>
        <time>2026-05-09T10:46:39Z</time>
      </trkpt>
      <trkpt lat="46.1909" lon="5.25594">
        <ele>233.4</ele>
        <time>2026-05-09T10:46:40Z</time>
      </trkpt>
      <trkpt lat="46.19086" lon="5.25591">
        <ele>233.4</ele>
        <time>2026-05-09T10:46:41Z</time>
      </trkpt>
      <trkpt lat="46.19081" lon="5.25588">
        <ele>233.4</ele>
        <time>2026-05-09T10:46:42Z</time>
      </trkpt>
      <trkpt lat="46.19077" lon="5.25585">
        <ele>233.4</ele>
        <time>2026-05-09T10:46:43Z</time>
      </trkpt>
      <trkpt lat="46.19072" lon="5.25582">
        <ele>233.4</ele>
        <time>2026-05-09T10:46:44Z</time>
      </trkpt>
      <trkpt lat="46.19068" lon="5.2558">
        <ele>233.4</ele>
        <time>2026-05-09T10:46:45Z</time>
      </trkpt>
      <trkpt lat="46.19063" lon="5.25579">
        <ele>233.4</ele>
        <time>2026-05-09T10:46:46Z</time>
      </trkpt>
      <trkpt lat="46.19059" lon="5.25577">
        <ele>233.6</ele>
        <time>2026-05-09T10:46:47Z</time>
      </trkpt>
      <trkpt lat="46.19054" lon="5.25575">
        <ele>233.6</ele>
        <time>2026-05-09T10:46:48Z</time>
      </trkpt>
      <trkpt lat="46.19049" lon="5.25573">
        <ele>233.6</ele>
        <time>2026-05-09T10:46:49Z</time>
      </trkpt>
      <trkpt lat="46.19044" lon="5.25572">
        <ele>233.4</ele>
        <time>2026-05-09T10:46:50Z</time>
      </trkpt>
      <trkpt lat="46.19039" lon="5.25571">
        <ele>233.4</ele>
        <time>2026-05-09T10:46:51Z</time>
      </trkpt>
      <trkpt lat="46.19034" lon="5.25568">
        <ele>233.6</ele>
        <time>2026-05-09T10:46:52Z</time>
      </trkpt>
      <trkpt lat="46.19029" lon="5.25566">
        <ele>233.6</ele>
        <time>2026-05-09T10:46:53Z</time>
      </trkpt>
      <trkpt lat="46.19024" lon="5.25564">
        <ele>233.6</ele>
        <time>2026-05-09T10:46:54Z</time>
      </trkpt>
      <trkpt lat="46.19019" lon="5.25563">
        <ele>233.6</ele>
        <time>2026-05-09T10:46:55Z</time>
      </trkpt>
      <trkpt lat="46.19014" lon="5.25561">
        <ele>234</ele>
        <time>2026-05-09T10:46:56Z</time>
      </trkpt>
      <trkpt lat="46.19009" lon="5.25559">
        <ele>234</ele>
        <time>2026-05-09T10:46:57Z</time>
      </trkpt>
      <trkpt lat="46.19" lon="5.25557">
        <ele>234.2</ele>
        <time>2026-05-09T10:46:58Z</time>
      </trkpt>
      <trkpt lat="46.18995" lon="5.25554">
        <ele>234.2</ele>
        <time>2026-05-09T10:46:59Z</time>
      </trkpt>
      <trkpt lat="46.1899" lon="5.25552">
        <ele>234.2</ele>
        <time>2026-05-09T10:47:00Z</time>
      </trkpt>
      <trkpt lat="46.18985" lon="5.25551">
        <ele>233.8</ele>
        <time>2026-05-09T10:47:01Z</time>
      </trkpt>
      <trkpt lat="46.18981" lon="5.25549">
        <ele>233.8</ele>
        <time>2026-05-09T10:47:02Z</time>
      </trkpt>
      <trkpt lat="46.18975" lon="5.25548">
        <ele>233.8</ele>
        <time>2026-05-09T10:47:03Z</time>
      </trkpt>
      <trkpt lat="46.1897" lon="5.25546">
        <ele>234</ele>
        <time>2026-05-09T10:47:04Z</time>
      </trkpt>
      <trkpt lat="46.18966" lon="5.25545">
        <ele>234</ele>
        <time>2026-05-09T10:47:05Z</time>
      </trkpt>
      <trkpt lat="46.18961" lon="5.25544">
        <ele>234.4</ele>
        <time>2026-05-09T10:47:06Z</time>
      </trkpt>
      <trkpt lat="46.18956" lon="5.25544">
        <ele>234.4</ele>
        <time>2026-05-09T10:47:07Z</time>
      </trkpt>
      <trkpt lat="46.18951" lon="5.25544">
        <ele>234.4</ele>
        <time>2026-05-09T10:47:08Z</time>
      </trkpt>
      <trkpt lat="46.18947" lon="5.25544">
        <ele>234.4</ele>
        <time>2026-05-09T10:47:09Z</time>
      </trkpt>
      <trkpt lat="46.18942" lon="5.25543">
        <ele>234.4</ele>
        <time>2026-05-09T10:47:10Z</time>
      </trkpt>
      <trkpt lat="46.18937" lon="5.25544">
        <ele>234.4</ele>
        <time>2026-05-09T10:47:11Z</time>
      </trkpt>
      <trkpt lat="46.18932" lon="5.25544">
        <ele>234.2</ele>
        <time>2026-05-09T10:47:12Z</time>
      </trkpt>
      <trkpt lat="46.18927" lon="5.25545">
        <ele>234.2</ele>
        <time>2026-05-09T10:47:13Z</time>
      </trkpt>
      <trkpt lat="46.18922" lon="5.25546">
        <ele>234.2</ele>
        <time>2026-05-09T10:47:14Z</time>
      </trkpt>
      <trkpt lat="46.18918" lon="5.25547">
        <ele>234.2</ele>
        <time>2026-05-09T10:47:15Z</time>
      </trkpt>
      <trkpt lat="46.18913" lon="5.25548">
        <ele>234.2</ele>
        <time>2026-05-09T10:47:16Z</time>
      </trkpt>
      <trkpt lat="46.18908" lon="5.25548">
        <ele>234.4</ele>
        <time>2026-05-09T10:47:17Z</time>
      </trkpt>
      <trkpt lat="46.18903" lon="5.25549">
        <ele>234.6</ele>
        <time>2026-05-09T10:47:18Z</time>
      </trkpt>
      <trkpt lat="46.18898" lon="5.2555">
        <ele>234.6</ele>
        <time>2026-05-09T10:47:19Z</time>
      </trkpt>
      <trkpt lat="46.18893" lon="5.25551">
        <ele>234.8</ele>
        <time>2026-05-09T10:47:20Z</time>
      </trkpt>
      <trkpt lat="46.18888" lon="5.25552">
        <ele>234.8</ele>
        <time>2026-05-09T10:47:21Z</time>
      </trkpt>
      <trkpt lat="46.18883" lon="5.25553">
        <ele>234.8</ele>
        <time>2026-05-09T10:47:22Z</time>
      </trkpt>
      <trkpt lat="46.18878" lon="5.25555">
        <ele>234.8</ele>
        <time>2026-05-09T10:47:23Z</time>
      </trkpt>
      <trkpt lat="46.18873" lon="5.25555">
        <ele>234.6</ele>
        <time>2026-05-09T10:47:24Z</time>
      </trkpt>
      <trkpt lat="46.18867" lon="5.25557">
        <ele>234.6</ele>
        <time>2026-05-09T10:47:25Z</time>
      </trkpt>
      <trkpt lat="46.18862" lon="5.25559">
        <ele>234.8</ele>
        <time>2026-05-09T10:47:26Z</time>
      </trkpt>
      <trkpt lat="46.18858" lon="5.25563">
        <ele>234.8</ele>
        <time>2026-05-09T10:47:27Z</time>
      </trkpt>
      <trkpt lat="46.18853" lon="5.25566">
        <ele>234.8</ele>
        <time>2026-05-09T10:47:28Z</time>
      </trkpt>
      <trkpt lat="46.18848" lon="5.25569">
        <ele>234.8</ele>
        <time>2026-05-09T10:47:29Z</time>
      </trkpt>
      <trkpt lat="46.18844" lon="5.25573">
        <ele>234.8</ele>
        <time>2026-05-09T10:47:30Z</time>
      </trkpt>
      <trkpt lat="46.1884" lon="5.25576">
        <ele>234.8</ele>
        <time>2026-05-09T10:47:31Z</time>
      </trkpt>
      <trkpt lat="46.18836" lon="5.25581">
        <ele>234.8</ele>
        <time>2026-05-09T10:47:32Z</time>
      </trkpt>
      <trkpt lat="46.18832" lon="5.25585">
        <ele>235</ele>
        <time>2026-05-09T10:47:33Z</time>
      </trkpt>
      <trkpt lat="46.18828" lon="5.25591">
        <ele>235</ele>
        <time>2026-05-09T10:47:34Z</time>
      </trkpt>
      <trkpt lat="46.18825" lon="5.25596">
        <ele>235</ele>
        <time>2026-05-09T10:47:35Z</time>
      </trkpt>
      <trkpt lat="46.18821" lon="5.25601">
        <ele>235</ele>
        <time>2026-05-09T10:47:36Z</time>
      </trkpt>
      <trkpt lat="46.18818" lon="5.25607">
        <ele>235.4</ele>
        <time>2026-05-09T10:47:37Z</time>
      </trkpt>
      <trkpt lat="46.18816" lon="5.25613">
        <ele>234.2</ele>
        <time>2026-05-09T10:47:38Z</time>
      </trkpt>
      <trkpt lat="46.18813" lon="5.25619">
        <ele>234.6</ele>
        <time>2026-05-09T10:47:39Z</time>
      </trkpt>
      <trkpt lat="46.18811" lon="5.25627">
        <ele>234.6</ele>
        <time>2026-05-09T10:47:40Z</time>
      </trkpt>
      <trkpt lat="46.1881" lon="5.2563">
        <ele>234.6</ele>
        <time>2026-05-09T10:47:41Z</time>
      </trkpt>
      <trkpt lat="46.18808" lon="5.25638">
        <ele>234.6</ele>
        <time>2026-05-09T10:47:42Z</time>
      </trkpt>
      <trkpt lat="46.18806" lon="5.25644">
        <ele>234.4</ele>
        <time>2026-05-09T10:47:43Z</time>
      </trkpt>
      <trkpt lat="46.18805" lon="5.25651">
        <ele>234.4</ele>
        <time>2026-05-09T10:47:44Z</time>
      </trkpt>
      <trkpt lat="46.18805" lon="5.25658">
        <ele>234.4</ele>
        <time>2026-05-09T10:47:45Z</time>
      </trkpt>
      <trkpt lat="46.18803" lon="5.25666">
        <ele>234.6</ele>
        <time>2026-05-09T10:47:46Z</time>
      </trkpt>
      <trkpt lat="46.18803" lon="5.25673">
        <ele>234.6</ele>
        <time>2026-05-09T10:47:47Z</time>
      </trkpt>
      <trkpt lat="46.18803" lon="5.25679">
        <ele>234.6</ele>
        <time>2026-05-09T10:47:48Z</time>
      </trkpt>
      <trkpt lat="46.18802" lon="5.25686">
        <ele>234.6</ele>
        <time>2026-05-09T10:47:49Z</time>
      </trkpt>
      <trkpt lat="46.18802" lon="5.25692">
        <ele>234.6</ele>
        <time>2026-05-09T10:47:50Z</time>
      </trkpt>
      <trkpt lat="46.18802" lon="5.25699">
        <ele>234.6</ele>
        <time>2026-05-09T10:47:51Z</time>
      </trkpt>
      <trkpt lat="46.18802" lon="5.25706">
        <ele>235</ele>
        <time>2026-05-09T10:47:52Z</time>
      </trkpt>
      <trkpt lat="46.18801" lon="5.25713">
        <ele>235</ele>
        <time>2026-05-09T10:47:53Z</time>
      </trkpt>
      <trkpt lat="46.18801" lon="5.2572">
        <ele>235</ele>
        <time>2026-05-09T10:47:54Z</time>
      </trkpt>
      <trkpt lat="46.188" lon="5.25727">
        <ele>235.2</ele>
        <time>2026-05-09T10:47:55Z</time>
      </trkpt>
      <trkpt lat="46.18799" lon="5.25734">
        <ele>235.2</ele>
        <time>2026-05-09T10:47:56Z</time>
      </trkpt>
      <trkpt lat="46.18799" lon="5.25741">
        <ele>235.4</ele>
        <time>2026-05-09T10:47:57Z</time>
      </trkpt>
      <trkpt lat="46.18798" lon="5.25749">
        <ele>235.4</ele>
        <time>2026-05-09T10:47:58Z</time>
      </trkpt>
      <trkpt lat="46.18799" lon="5.25755">
        <ele>235.4</ele>
        <time>2026-05-09T10:47:59Z</time>
      </trkpt>
      <trkpt lat="46.18798" lon="5.25763">
        <ele>235.4</ele>
        <time>2026-05-09T10:48:00Z</time>
      </trkpt>
      <trkpt lat="46.18797" lon="5.25769">
        <ele>235.8</ele>
        <time>2026-05-09T10:48:01Z</time>
      </trkpt>
      <trkpt lat="46.18797" lon="5.25776">
        <ele>235.8</ele>
        <time>2026-05-09T10:48:02Z</time>
      </trkpt>
      <trkpt lat="46.18797" lon="5.25783">
        <ele>235.8</ele>
        <time>2026-05-09T10:48:03Z</time>
      </trkpt>
      <trkpt lat="46.18796" lon="5.25791">
        <ele>235.8</ele>
        <time>2026-05-09T10:48:04Z</time>
      </trkpt>
      <trkpt lat="46.18795" lon="5.25798">
        <ele>235.8</ele>
        <time>2026-05-09T10:48:05Z</time>
      </trkpt>
      <trkpt lat="46.18795" lon="5.25805">
        <ele>235.4</ele>
        <time>2026-05-09T10:48:06Z</time>
      </trkpt>
      <trkpt lat="46.18794" lon="5.25813">
        <ele>235.8</ele>
        <time>2026-05-09T10:48:07Z</time>
      </trkpt>
      <trkpt lat="46.18793" lon="5.2582">
        <ele>235.8</ele>
        <time>2026-05-09T10:48:08Z</time>
      </trkpt>
      <trkpt lat="46.18793" lon="5.25826">
        <ele>235.8</ele>
        <time>2026-05-09T10:48:09Z</time>
      </trkpt>
      <trkpt lat="46.18793" lon="5.25834">
        <ele>235.8</ele>
        <time>2026-05-09T10:48:10Z</time>
      </trkpt>
      <trkpt lat="46.18792" lon="5.25841">
        <ele>235.8</ele>
        <time>2026-05-09T10:48:11Z</time>
      </trkpt>
      <trkpt lat="46.18792" lon="5.25849">
        <ele>235.8</ele>
        <time>2026-05-09T10:48:12Z</time>
      </trkpt>
      <trkpt lat="46.18791" lon="5.25857">
        <ele>235.8</ele>
        <time>2026-05-09T10:48:13Z</time>
      </trkpt>
      <trkpt lat="46.1879" lon="5.25865">
        <ele>235.8</ele>
        <time>2026-05-09T10:48:14Z</time>
      </trkpt>
      <trkpt lat="46.18789" lon="5.25871">
        <ele>235.8</ele>
        <time>2026-05-09T10:48:15Z</time>
      </trkpt>
      <trkpt lat="46.18788" lon="5.25879">
        <ele>235.8</ele>
        <time>2026-05-09T10:48:16Z</time>
      </trkpt>
      <trkpt lat="46.18787" lon="5.25885">
        <ele>235.8</ele>
        <time>2026-05-09T10:48:17Z</time>
      </trkpt>
      <trkpt lat="46.18785" lon="5.25892">
        <ele>235.8</ele>
        <time>2026-05-09T10:48:18Z</time>
      </trkpt>
      <trkpt lat="46.18784" lon="5.259">
        <ele>236</ele>
        <time>2026-05-09T10:48:19Z</time>
      </trkpt>
      <trkpt lat="46.18783" lon="5.25907">
        <ele>236</ele>
        <time>2026-05-09T10:48:20Z</time>
      </trkpt>
      <trkpt lat="46.18782" lon="5.25913">
        <ele>236</ele>
        <time>2026-05-09T10:48:21Z</time>
      </trkpt>
      <trkpt lat="46.18781" lon="5.25919">
        <ele>236.2</ele>
        <time>2026-05-09T10:48:22Z</time>
      </trkpt>
      <trkpt lat="46.1878" lon="5.25926">
        <ele>236.2</ele>
        <time>2026-05-09T10:48:23Z</time>
      </trkpt>
      <trkpt lat="46.18779" lon="5.25932">
        <ele>236.2</ele>
        <time>2026-05-09T10:48:24Z</time>
      </trkpt>
      <trkpt lat="46.18777" lon="5.25938">
        <ele>236.4</ele>
        <time>2026-05-09T10:48:25Z</time>
      </trkpt>
      <trkpt lat="46.18775" lon="5.25944">
        <ele>236.4</ele>
        <time>2026-05-09T10:48:26Z</time>
      </trkpt>
      <trkpt lat="46.18773" lon="5.25952">
        <ele>236.4</ele>
        <time>2026-05-09T10:48:27Z</time>
      </trkpt>
      <trkpt lat="46.18771" lon="5.25959">
        <ele>236.8</ele>
        <time>2026-05-09T10:48:28Z</time>
      </trkpt>
      <trkpt lat="46.18769" lon="5.25966">
        <ele>236.8</ele>
        <time>2026-05-09T10:48:29Z</time>
      </trkpt>
      <trkpt lat="46.18768" lon="5.25972">
        <ele>236.8</ele>
        <time>2026-05-09T10:48:30Z</time>
      </trkpt>
      <trkpt lat="46.18766" lon="5.25979">
        <ele>236.8</ele>
        <time>2026-05-09T10:48:31Z</time>
      </trkpt>
      <trkpt lat="46.18764" lon="5.25986">
        <ele>236.8</ele>
        <time>2026-05-09T10:48:32Z</time>
      </trkpt>
      <trkpt lat="46.18762" lon="5.25993">
        <ele>237</ele>
        <time>2026-05-09T10:48:33Z</time>
      </trkpt>
      <trkpt lat="46.1876" lon="5.26">
        <ele>237</ele>
        <time>2026-05-09T10:48:34Z</time>
      </trkpt>
      <trkpt lat="46.1876" lon="5.26">
        <ele>237</ele>
        <time>2026-05-09T10:48:35Z</time>
      </trkpt>
      <trkpt lat="46.18758" lon="5.26006">
        <ele>237</ele>
        <time>2026-05-09T10:48:36Z</time>
      </trkpt>
      <trkpt lat="46.18756" lon="5.26013">
        <ele>237</ele>
        <time>2026-05-09T10:48:37Z</time>
      </trkpt>
      <trkpt lat="46.18754" lon="5.26019">
        <ele>237.2</ele>
        <time>2026-05-09T10:48:38Z</time>
      </trkpt>
      <trkpt lat="46.18752" lon="5.26027">
        <ele>237.2</ele>
        <time>2026-05-09T10:48:39Z</time>
      </trkpt>
      <trkpt lat="46.1875" lon="5.26034">
        <ele>237.2</ele>
        <time>2026-05-09T10:48:40Z</time>
      </trkpt>
      <trkpt lat="46.18747" lon="5.26041">
        <ele>237.2</ele>
        <time>2026-05-09T10:48:41Z</time>
      </trkpt>
      <trkpt lat="46.18745" lon="5.26048">
        <ele>237.2</ele>
        <time>2026-05-09T10:48:42Z</time>
      </trkpt>
      <trkpt lat="46.18743" lon="5.26056">
        <ele>237</ele>
        <time>2026-05-09T10:48:43Z</time>
      </trkpt>
      <trkpt lat="46.18741" lon="5.26064">
        <ele>237</ele>
        <time>2026-05-09T10:48:44Z</time>
      </trkpt>
      <trkpt lat="46.18739" lon="5.26072">
        <ele>236.6</ele>
        <time>2026-05-09T10:48:45Z</time>
      </trkpt>
      <trkpt lat="46.18738" lon="5.26079">
        <ele>236.6</ele>
        <time>2026-05-09T10:48:46Z</time>
      </trkpt>
      <trkpt lat="46.18735" lon="5.26087">
        <ele>236.6</ele>
        <time>2026-05-09T10:48:47Z</time>
      </trkpt>
      <trkpt lat="46.18734" lon="5.26094">
        <ele>236.4</ele>
        <time>2026-05-09T10:48:48Z</time>
      </trkpt>
      <trkpt lat="46.18732" lon="5.26103">
        <ele>236.2</ele>
        <time>2026-05-09T10:48:49Z</time>
      </trkpt>
      <trkpt lat="46.18731" lon="5.26111">
        <ele>236.2</ele>
        <time>2026-05-09T10:48:50Z</time>
      </trkpt>
      <trkpt lat="46.1873" lon="5.26119">
        <ele>236.2</ele>
        <time>2026-05-09T10:48:51Z</time>
      </trkpt>
      <trkpt lat="46.18729" lon="5.26127">
        <ele>236</ele>
        <time>2026-05-09T10:48:52Z</time>
      </trkpt>
      <trkpt lat="46.18728" lon="5.26137">
        <ele>235.6</ele>
        <time>2026-05-09T10:48:53Z</time>
      </trkpt>
      <trkpt lat="46.18727" lon="5.26147">
        <ele>235.6</ele>
        <time>2026-05-09T10:48:54Z</time>
      </trkpt>
      <trkpt lat="46.18726" lon="5.26157">
        <ele>235.2</ele>
        <time>2026-05-09T10:48:55Z</time>
      </trkpt>
      <trkpt lat="46.18726" lon="5.26167">
        <ele>235.2</ele>
        <time>2026-05-09T10:48:56Z</time>
      </trkpt>
      <trkpt lat="46.18725" lon="5.26176">
        <ele>235.2</ele>
        <time>2026-05-09T10:48:57Z</time>
      </trkpt>
      <trkpt lat="46.18726" lon="5.26187">
        <ele>234.6</ele>
        <time>2026-05-09T10:48:58Z</time>
      </trkpt>
      <trkpt lat="46.18727" lon="5.26197">
        <ele>234.4</ele>
        <time>2026-05-09T10:48:59Z</time>
      </trkpt>
      <trkpt lat="46.18729" lon="5.26206">
        <ele>234.4</ele>
        <time>2026-05-09T10:49:00Z</time>
      </trkpt>
      <trkpt lat="46.18729" lon="5.26215">
        <ele>234</ele>
        <time>2026-05-09T10:49:01Z</time>
      </trkpt>
      <trkpt lat="46.18731" lon="5.26224">
        <ele>234</ele>
        <time>2026-05-09T10:49:02Z</time>
      </trkpt>
      <trkpt lat="46.18733" lon="5.26233">
        <ele>233.6</ele>
        <time>2026-05-09T10:49:03Z</time>
      </trkpt>
      <trkpt lat="46.18734" lon="5.26241">
        <ele>233.6</ele>
        <time>2026-05-09T10:49:04Z</time>
      </trkpt>
      <trkpt lat="46.18735" lon="5.26249">
        <ele>233.6</ele>
        <time>2026-05-09T10:49:05Z</time>
      </trkpt>
      <trkpt lat="46.18735" lon="5.26258">
        <ele>233.6</ele>
        <time>2026-05-09T10:49:06Z</time>
      </trkpt>
      <trkpt lat="46.18735" lon="5.26267">
        <ele>234</ele>
        <time>2026-05-09T10:49:07Z</time>
      </trkpt>
      <trkpt lat="46.18734" lon="5.26274">
        <ele>234</ele>
        <time>2026-05-09T10:49:08Z</time>
      </trkpt>
      <trkpt lat="46.18733" lon="5.26282">
        <ele>234.2</ele>
        <time>2026-05-09T10:49:09Z</time>
      </trkpt>
      <trkpt lat="46.18731" lon="5.26291">
        <ele>234.2</ele>
        <time>2026-05-09T10:49:10Z</time>
      </trkpt>
      <trkpt lat="46.1873" lon="5.263">
        <ele>234.2</ele>
        <time>2026-05-09T10:49:11Z</time>
      </trkpt>
      <trkpt lat="46.18728" lon="5.26308">
        <ele>234.2</ele>
        <time>2026-05-09T10:49:12Z</time>
      </trkpt>
      <trkpt lat="46.18726" lon="5.26316">
        <ele>234.2</ele>
        <time>2026-05-09T10:49:13Z</time>
      </trkpt>
      <trkpt lat="46.18724" lon="5.26324">
        <ele>234.2</ele>
        <time>2026-05-09T10:49:14Z</time>
      </trkpt>
      <trkpt lat="46.18722" lon="5.26332">
        <ele>234.4</ele>
        <time>2026-05-09T10:49:15Z</time>
      </trkpt>
      <trkpt lat="46.1872" lon="5.26339">
        <ele>234.4</ele>
        <time>2026-05-09T10:49:16Z</time>
      </trkpt>
      <trkpt lat="46.18718" lon="5.26347">
        <ele>234.4</ele>
        <time>2026-05-09T10:49:17Z</time>
      </trkpt>
      <trkpt lat="46.18716" lon="5.26354">
        <ele>234.4</ele>
        <time>2026-05-09T10:49:18Z</time>
      </trkpt>
      <trkpt lat="46.18715" lon="5.26362">
        <ele>234.4</ele>
        <time>2026-05-09T10:49:19Z</time>
      </trkpt>
      <trkpt lat="46.18714" lon="5.26369">
        <ele>234.4</ele>
        <time>2026-05-09T10:49:20Z</time>
      </trkpt>
      <trkpt lat="46.18712" lon="5.26376">
        <ele>234.4</ele>
        <time>2026-05-09T10:49:21Z</time>
      </trkpt>
      <trkpt lat="46.18711" lon="5.26384">
        <ele>234.4</ele>
        <time>2026-05-09T10:49:22Z</time>
      </trkpt>
      <trkpt lat="46.1871" lon="5.26392">
        <ele>234.4</ele>
        <time>2026-05-09T10:49:23Z</time>
      </trkpt>
      <trkpt lat="46.1871" lon="5.26399">
        <ele>234.4</ele>
        <time>2026-05-09T10:49:24Z</time>
      </trkpt>
      <trkpt lat="46.18711" lon="5.26407">
        <ele>234.4</ele>
        <time>2026-05-09T10:49:25Z</time>
      </trkpt>
      <trkpt lat="46.18712" lon="5.26413">
        <ele>234.6</ele>
        <time>2026-05-09T10:49:26Z</time>
      </trkpt>
      <trkpt lat="46.18713" lon="5.26418">
        <ele>234.6</ele>
        <time>2026-05-09T10:49:27Z</time>
      </trkpt>
      <trkpt lat="46.18713" lon="5.26425">
        <ele>234.6</ele>
        <time>2026-05-09T10:49:28Z</time>
      </trkpt>
      <trkpt lat="46.18713" lon="5.2643">
        <ele>234.6</ele>
        <time>2026-05-09T10:49:29Z</time>
      </trkpt>
      <trkpt lat="46.18715" lon="5.26438">
        <ele>234.6</ele>
        <time>2026-05-09T10:49:30Z</time>
      </trkpt>
      <trkpt lat="46.18714" lon="5.26448">
        <ele>234.8</ele>
        <time>2026-05-09T10:49:31Z</time>
      </trkpt>
      <trkpt lat="46.18717" lon="5.26453">
        <ele>234.8</ele>
        <time>2026-05-09T10:49:32Z</time>
      </trkpt>
      <trkpt lat="46.18718" lon="5.26461">
        <ele>234.6</ele>
        <time>2026-05-09T10:49:33Z</time>
      </trkpt>
      <trkpt lat="46.18718" lon="5.2647">
        <ele>234.6</ele>
        <time>2026-05-09T10:49:34Z</time>
      </trkpt>
      <trkpt lat="46.1872" lon="5.26477">
        <ele>234.6</ele>
        <time>2026-05-09T10:49:35Z</time>
      </trkpt>
      <trkpt lat="46.18722" lon="5.26485">
        <ele>235</ele>
        <time>2026-05-09T10:49:36Z</time>
      </trkpt>
      <trkpt lat="46.18724" lon="5.26492">
        <ele>235</ele>
        <time>2026-05-09T10:49:37Z</time>
      </trkpt>
      <trkpt lat="46.18725" lon="5.26499">
        <ele>235</ele>
        <time>2026-05-09T10:49:38Z</time>
      </trkpt>
      <trkpt lat="46.18726" lon="5.26506">
        <ele>235</ele>
        <time>2026-05-09T10:49:39Z</time>
      </trkpt>
      <trkpt lat="46.18727" lon="5.26513">
        <ele>235</ele>
        <time>2026-05-09T10:49:40Z</time>
      </trkpt>
      <trkpt lat="46.18727" lon="5.2652">
        <ele>235.4</ele>
        <time>2026-05-09T10:49:41Z</time>
      </trkpt>
      <trkpt lat="46.18726" lon="5.26527">
        <ele>235.4</ele>
        <time>2026-05-09T10:49:42Z</time>
      </trkpt>
      <trkpt lat="46.18724" lon="5.26532">
        <ele>235.4</ele>
        <time>2026-05-09T10:49:43Z</time>
      </trkpt>
      <trkpt lat="46.18725" lon="5.26538">
        <ele>235.4</ele>
        <time>2026-05-09T10:49:44Z</time>
      </trkpt>
      <trkpt lat="46.18723" lon="5.26545">
        <ele>235.6</ele>
        <time>2026-05-09T10:49:45Z</time>
      </trkpt>
      <trkpt lat="46.18723" lon="5.2655">
        <ele>235.6</ele>
        <time>2026-05-09T10:49:46Z</time>
      </trkpt>
      <trkpt lat="46.18722" lon="5.26556">
        <ele>236</ele>
        <time>2026-05-09T10:49:47Z</time>
      </trkpt>
      <trkpt lat="46.18719" lon="5.26563">
        <ele>236</ele>
        <time>2026-05-09T10:49:48Z</time>
      </trkpt>
      <trkpt lat="46.18718" lon="5.26568">
        <ele>236</ele>
        <time>2026-05-09T10:49:49Z</time>
      </trkpt>
      <trkpt lat="46.18715" lon="5.26574">
        <ele>236.2</ele>
        <time>2026-05-09T10:49:50Z</time>
      </trkpt>
      <trkpt lat="46.18713" lon="5.2658">
        <ele>236.4</ele>
        <time>2026-05-09T10:49:51Z</time>
      </trkpt>
      <trkpt lat="46.18711" lon="5.26585">
        <ele>236.4</ele>
        <time>2026-05-09T10:49:52Z</time>
      </trkpt>
      <trkpt lat="46.18709" lon="5.2659">
        <ele>236.4</ele>
        <time>2026-05-09T10:49:53Z</time>
      </trkpt>
      <trkpt lat="46.18706" lon="5.26594">
        <ele>236.4</ele>
        <time>2026-05-09T10:49:54Z</time>
      </trkpt>
      <trkpt lat="46.18702" lon="5.26599">
        <ele>236.6</ele>
        <time>2026-05-09T10:49:55Z</time>
      </trkpt>
      <trkpt lat="46.187" lon="5.26604">
        <ele>236.6</ele>
        <time>2026-05-09T10:49:56Z</time>
      </trkpt>
      <trkpt lat="46.18696" lon="5.26607">
        <ele>236.6</ele>
        <time>2026-05-09T10:49:57Z</time>
      </trkpt>
      <trkpt lat="46.18693" lon="5.26611">
        <ele>237</ele>
        <time>2026-05-09T10:49:58Z</time>
      </trkpt>
      <trkpt lat="46.18691" lon="5.26618">
        <ele>237</ele>
        <time>2026-05-09T10:49:59Z</time>
      </trkpt>
      <trkpt lat="46.18687" lon="5.26628">
        <ele>236.4</ele>
        <time>2026-05-09T10:50:00Z</time>
      </trkpt>
      <trkpt lat="46.18683" lon="5.26633">
        <ele>236.4</ele>
        <time>2026-05-09T10:50:01Z</time>
      </trkpt>
      <trkpt lat="46.18679" lon="5.26639">
        <ele>236.4</ele>
        <time>2026-05-09T10:50:02Z</time>
      </trkpt>
      <trkpt lat="46.18675" lon="5.26644">
        <ele>236.4</ele>
        <time>2026-05-09T10:50:03Z</time>
      </trkpt>
      <trkpt lat="46.18672" lon="5.2665">
        <ele>236.8</ele>
        <time>2026-05-09T10:50:04Z</time>
      </trkpt>
      <trkpt lat="46.18668" lon="5.26655">
        <ele>236.8</ele>
        <time>2026-05-09T10:50:05Z</time>
      </trkpt>
      <trkpt lat="46.18665" lon="5.26661">
        <ele>236.8</ele>
        <time>2026-05-09T10:50:06Z</time>
      </trkpt>
      <trkpt lat="46.18661" lon="5.26667">
        <ele>236.8</ele>
        <time>2026-05-09T10:50:07Z</time>
      </trkpt>
      <trkpt lat="46.18658" lon="5.26672">
        <ele>236.8</ele>
        <time>2026-05-09T10:50:08Z</time>
      </trkpt>
      <trkpt lat="46.18654" lon="5.26677">
        <ele>236.8</ele>
        <time>2026-05-09T10:50:09Z</time>
      </trkpt>
      <trkpt lat="46.18653" lon="5.26682">
        <ele>236.8</ele>
        <time>2026-05-09T10:50:10Z</time>
      </trkpt>
      <trkpt lat="46.18651" lon="5.26688">
        <ele>236.8</ele>
        <time>2026-05-09T10:50:11Z</time>
      </trkpt>
      <trkpt lat="46.18649" lon="5.26694">
        <ele>236.8</ele>
        <time>2026-05-09T10:50:12Z</time>
      </trkpt>
      <trkpt lat="46.18648" lon="5.26699">
        <ele>236.6</ele>
        <time>2026-05-09T10:50:13Z</time>
      </trkpt>
      <trkpt lat="46.18646" lon="5.26704">
        <ele>236.6</ele>
        <time>2026-05-09T10:50:14Z</time>
      </trkpt>
      <trkpt lat="46.18643" lon="5.26707">
        <ele>236.6</ele>
        <time>2026-05-09T10:50:15Z</time>
      </trkpt>
      <trkpt lat="46.18641" lon="5.2671">
        <ele>236.6</ele>
        <time>2026-05-09T10:50:16Z</time>
      </trkpt>
      <trkpt lat="46.18638" lon="5.26713">
        <ele>236.2</ele>
        <time>2026-05-09T10:50:17Z</time>
      </trkpt>
      <trkpt lat="46.18635" lon="5.26716">
        <ele>236.2</ele>
        <time>2026-05-09T10:50:18Z</time>
      </trkpt>
      <trkpt lat="46.18632" lon="5.26718">
        <ele>236.2</ele>
        <time>2026-05-09T10:50:19Z</time>
      </trkpt>
      <trkpt lat="46.18629" lon="5.26721">
        <ele>236.2</ele>
        <time>2026-05-09T10:50:20Z</time>
      </trkpt>
      <trkpt lat="46.18625" lon="5.26723">
        <ele>236.2</ele>
        <time>2026-05-09T10:50:21Z</time>
      </trkpt>
      <trkpt lat="46.18621" lon="5.26724">
        <ele>236.2</ele>
        <time>2026-05-09T10:50:22Z</time>
      </trkpt>
      <trkpt lat="46.18617" lon="5.26725">
        <ele>236.2</ele>
        <time>2026-05-09T10:50:23Z</time>
      </trkpt>
      <trkpt lat="46.18613" lon="5.26725">
        <ele>236.2</ele>
        <time>2026-05-09T10:50:24Z</time>
      </trkpt>
      <trkpt lat="46.18609" lon="5.26726">
        <ele>236.2</ele>
        <time>2026-05-09T10:50:25Z</time>
      </trkpt>
      <trkpt lat="46.18606" lon="5.26731">
        <ele>236.4</ele>
        <time>2026-05-09T10:50:26Z</time>
      </trkpt>
      <trkpt lat="46.18602" lon="5.26735">
        <ele>236.4</ele>
        <time>2026-05-09T10:50:27Z</time>
      </trkpt>
      <trkpt lat="46.186" lon="5.2674">
        <ele>236.4</ele>
        <time>2026-05-09T10:50:28Z</time>
      </trkpt>
      <trkpt lat="46.18598" lon="5.26747">
        <ele>236.4</ele>
        <time>2026-05-09T10:50:29Z</time>
      </trkpt>
      <trkpt lat="46.18597" lon="5.26754">
        <ele>236.4</ele>
        <time>2026-05-09T10:50:30Z</time>
      </trkpt>
      <trkpt lat="46.18596" lon="5.26761">
        <ele>236.4</ele>
        <time>2026-05-09T10:50:31Z</time>
      </trkpt>
      <trkpt lat="46.18595" lon="5.26768">
        <ele>236.4</ele>
        <time>2026-05-09T10:50:32Z</time>
      </trkpt>
      <trkpt lat="46.18593" lon="5.26775">
        <ele>236.6</ele>
        <time>2026-05-09T10:50:33Z</time>
      </trkpt>
      <trkpt lat="46.18591" lon="5.26782">
        <ele>236.6</ele>
        <time>2026-05-09T10:50:34Z</time>
      </trkpt>
      <trkpt lat="46.18588" lon="5.26789">
        <ele>236.6</ele>
        <time>2026-05-09T10:50:35Z</time>
      </trkpt>
      <trkpt lat="46.18585" lon="5.26796">
        <ele>236.6</ele>
        <time>2026-05-09T10:50:36Z</time>
      </trkpt>
      <trkpt lat="46.18582" lon="5.26802">
        <ele>236.6</ele>
        <time>2026-05-09T10:50:37Z</time>
      </trkpt>
      <trkpt lat="46.18578" lon="5.26807">
        <ele>236.6</ele>
        <time>2026-05-09T10:50:38Z</time>
      </trkpt>
      <trkpt lat="46.18574" lon="5.26812">
        <ele>236.4</ele>
        <time>2026-05-09T10:50:39Z</time>
      </trkpt>
      <trkpt lat="46.1857" lon="5.26817">
        <ele>236.4</ele>
        <time>2026-05-09T10:50:40Z</time>
      </trkpt>
      <trkpt lat="46.18567" lon="5.26823">
        <ele>236.4</ele>
        <time>2026-05-09T10:50:41Z</time>
      </trkpt>
      <trkpt lat="46.18564" lon="5.26828">
        <ele>236.4</ele>
        <time>2026-05-09T10:50:42Z</time>
      </trkpt>
      <trkpt lat="46.1856" lon="5.26833">
        <ele>236.4</ele>
        <time>2026-05-09T10:50:43Z</time>
      </trkpt>
      <trkpt lat="46.18556" lon="5.26839">
        <ele>236.6</ele>
        <time>2026-05-09T10:50:44Z</time>
      </trkpt>
      <trkpt lat="46.18553" lon="5.26845">
        <ele>236.6</ele>
        <time>2026-05-09T10:50:45Z</time>
      </trkpt>
      <trkpt lat="46.18549" lon="5.2685">
        <ele>236.6</ele>
        <time>2026-05-09T10:50:46Z</time>
      </trkpt>
      <trkpt lat="46.18546" lon="5.26856">
        <ele>236.6</ele>
        <time>2026-05-09T10:50:47Z</time>
      </trkpt>
      <trkpt lat="46.18543" lon="5.26862">
        <ele>236.6</ele>
        <time>2026-05-09T10:50:48Z</time>
      </trkpt>
      <trkpt lat="46.18539" lon="5.26868">
        <ele>236.6</ele>
        <time>2026-05-09T10:50:49Z</time>
      </trkpt>
      <trkpt lat="46.18536" lon="5.26874">
        <ele>236.6</ele>
        <time>2026-05-09T10:50:50Z</time>
      </trkpt>
      <trkpt lat="46.18533" lon="5.26881">
        <ele>236.6</ele>
        <time>2026-05-09T10:50:51Z</time>
      </trkpt>
      <trkpt lat="46.1853" lon="5.26887">
        <ele>236.6</ele>
        <time>2026-05-09T10:50:52Z</time>
      </trkpt>
      <trkpt lat="46.18527" lon="5.26893">
        <ele>236.6</ele>
        <time>2026-05-09T10:50:53Z</time>
      </trkpt>
      <trkpt lat="46.18524" lon="5.26899">
        <ele>236.6</ele>
        <time>2026-05-09T10:50:54Z</time>
      </trkpt>
      <trkpt lat="46.1852" lon="5.26905">
        <ele>236.6</ele>
        <time>2026-05-09T10:50:55Z</time>
      </trkpt>
      <trkpt lat="46.18516" lon="5.26911">
        <ele>236.6</ele>
        <time>2026-05-09T10:50:56Z</time>
      </trkpt>
      <trkpt lat="46.18513" lon="5.26918">
        <ele>236.6</ele>
        <time>2026-05-09T10:50:57Z</time>
      </trkpt>
      <trkpt lat="46.18509" lon="5.26924">
        <ele>236.6</ele>
        <time>2026-05-09T10:50:58Z</time>
      </trkpt>
      <trkpt lat="46.18506" lon="5.26931">
        <ele>236.8</ele>
        <time>2026-05-09T10:50:59Z</time>
      </trkpt>
      <trkpt lat="46.18502" lon="5.26937">
        <ele>236.8</ele>
        <time>2026-05-09T10:51:00Z</time>
      </trkpt>
      <trkpt lat="46.18498" lon="5.26943">
        <ele>236.8</ele>
        <time>2026-05-09T10:51:01Z</time>
      </trkpt>
      <trkpt lat="46.18495" lon="5.26949">
        <ele>237.2</ele>
        <time>2026-05-09T10:51:02Z</time>
      </trkpt>
      <trkpt lat="46.18492" lon="5.26955">
        <ele>237.2</ele>
        <time>2026-05-09T10:51:03Z</time>
      </trkpt>
      <trkpt lat="46.18488" lon="5.26961">
        <ele>237.2</ele>
        <time>2026-05-09T10:51:04Z</time>
      </trkpt>
      <trkpt lat="46.18486" lon="5.26967">
        <ele>237.2</ele>
        <time>2026-05-09T10:51:05Z</time>
      </trkpt>
      <trkpt lat="46.18483" lon="5.26973">
        <ele>237.2</ele>
        <time>2026-05-09T10:51:06Z</time>
      </trkpt>
      <trkpt lat="46.18481" lon="5.2698">
        <ele>237.4</ele>
        <time>2026-05-09T10:51:07Z</time>
      </trkpt>
      <trkpt lat="46.18479" lon="5.26987">
        <ele>237.4</ele>
        <time>2026-05-09T10:51:08Z</time>
      </trkpt>
      <trkpt lat="46.18477" lon="5.26995">
        <ele>237.4</ele>
        <time>2026-05-09T10:51:09Z</time>
      </trkpt>
      <trkpt lat="46.18474" lon="5.27">
        <ele>237.6</ele>
        <time>2026-05-09T10:51:10Z</time>
      </trkpt>
      <trkpt lat="46.1847" lon="5.27007">
        <ele>237.6</ele>
        <time>2026-05-09T10:51:11Z</time>
      </trkpt>
      <trkpt lat="46.18466" lon="5.27012">
        <ele>237.6</ele>
        <time>2026-05-09T10:51:12Z</time>
      </trkpt>
      <trkpt lat="46.18462" lon="5.27019">
        <ele>237.6</ele>
        <time>2026-05-09T10:51:13Z</time>
      </trkpt>
      <trkpt lat="46.18459" lon="5.27025">
        <ele>237.6</ele>
        <time>2026-05-09T10:51:14Z</time>
      </trkpt>
      <trkpt lat="46.18454" lon="5.27031">
        <ele>237.6</ele>
        <time>2026-05-09T10:51:15Z</time>
      </trkpt>
      <trkpt lat="46.18451" lon="5.27036">
        <ele>237.6</ele>
        <time>2026-05-09T10:51:16Z</time>
      </trkpt>
      <trkpt lat="46.18447" lon="5.27042">
        <ele>237.6</ele>
        <time>2026-05-09T10:51:17Z</time>
      </trkpt>
      <trkpt lat="46.18444" lon="5.27047">
        <ele>237.6</ele>
        <time>2026-05-09T10:51:18Z</time>
      </trkpt>
      <trkpt lat="46.18439" lon="5.27051">
        <ele>237.6</ele>
        <time>2026-05-09T10:51:19Z</time>
      </trkpt>
      <trkpt lat="46.18436" lon="5.27056">
        <ele>237.8</ele>
        <time>2026-05-09T10:51:20Z</time>
      </trkpt>
      <trkpt lat="46.18433" lon="5.2706">
        <ele>237.8</ele>
        <time>2026-05-09T10:51:21Z</time>
      </trkpt>
      <trkpt lat="46.18428" lon="5.27064">
        <ele>237.8</ele>
        <time>2026-05-09T10:51:22Z</time>
      </trkpt>
      <trkpt lat="46.18424" lon="5.27068">
        <ele>237.8</ele>
        <time>2026-05-09T10:51:23Z</time>
      </trkpt>
      <trkpt lat="46.1842" lon="5.27072">
        <ele>237.8</ele>
        <time>2026-05-09T10:51:24Z</time>
      </trkpt>
      <trkpt lat="46.18416" lon="5.27076">
        <ele>238.2</ele>
        <time>2026-05-09T10:51:25Z</time>
      </trkpt>
      <trkpt lat="46.18412" lon="5.27081">
        <ele>238.2</ele>
        <time>2026-05-09T10:51:26Z</time>
      </trkpt>
      <trkpt lat="46.18408" lon="5.27084">
        <ele>238.2</ele>
        <time>2026-05-09T10:51:27Z</time>
      </trkpt>
      <trkpt lat="46.18404" lon="5.27088">
        <ele>238.2</ele>
        <time>2026-05-09T10:51:28Z</time>
      </trkpt>
      <trkpt lat="46.18402" lon="5.2709">
        <ele>238.2</ele>
        <time>2026-05-09T10:51:29Z</time>
      </trkpt>
      <trkpt lat="46.18397" lon="5.27093">
        <ele>238.2</ele>
        <time>2026-05-09T10:51:30Z</time>
      </trkpt>
      <trkpt lat="46.18394" lon="5.27097">
        <ele>238.4</ele>
        <time>2026-05-09T10:51:31Z</time>
      </trkpt>
      <trkpt lat="46.1839" lon="5.27101">
        <ele>238.4</ele>
        <time>2026-05-09T10:51:32Z</time>
      </trkpt>
      <trkpt lat="46.18386" lon="5.27104">
        <ele>238.4</ele>
        <time>2026-05-09T10:51:33Z</time>
      </trkpt>
      <trkpt lat="46.18381" lon="5.27109">
        <ele>238.4</ele>
        <time>2026-05-09T10:51:34Z</time>
      </trkpt>
      <trkpt lat="46.18377" lon="5.27112">
        <ele>238.6</ele>
        <time>2026-05-09T10:51:35Z</time>
      </trkpt>
      <trkpt lat="46.18374" lon="5.27115">
        <ele>238.6</ele>
        <time>2026-05-09T10:51:36Z</time>
      </trkpt>
      <trkpt lat="46.1837" lon="5.27118">
        <ele>239</ele>
        <time>2026-05-09T10:51:37Z</time>
      </trkpt>
      <trkpt lat="46.18369" lon="5.2712">
        <ele>239</ele>
        <time>2026-05-09T10:51:38Z</time>
      </trkpt>
      <trkpt lat="46.18369" lon="5.2712">
        <ele>239</ele>
        <time>2026-05-09T10:51:39Z</time>
      </trkpt>
      <trkpt lat="46.18364" lon="5.27123">
        <ele>239</ele>
        <time>2026-05-09T10:51:40Z</time>
      </trkpt>
      <trkpt lat="46.1836" lon="5.27126">
        <ele>239.2</ele>
        <time>2026-05-09T10:51:41Z</time>
      </trkpt>
      <trkpt lat="46.18356" lon="5.27129">
        <ele>239.2</ele>
        <time>2026-05-09T10:51:42Z</time>
      </trkpt>
      <trkpt lat="46.18351" lon="5.27133">
        <ele>239.4</ele>
        <time>2026-05-09T10:51:43Z</time>
      </trkpt>
      <trkpt lat="46.18348" lon="5.27135">
        <ele>239.4</ele>
        <time>2026-05-09T10:51:44Z</time>
      </trkpt>
      <trkpt lat="46.18344" lon="5.27139">
        <ele>239.8</ele>
        <time>2026-05-09T10:51:45Z</time>
      </trkpt>
      <trkpt lat="46.1834" lon="5.27143">
        <ele>239.8</ele>
        <time>2026-05-09T10:51:46Z</time>
      </trkpt>
      <trkpt lat="46.18337" lon="5.27146">
        <ele>239.8</ele>
        <time>2026-05-09T10:51:47Z</time>
      </trkpt>
      <trkpt lat="46.18333" lon="5.27149">
        <ele>240</ele>
        <time>2026-05-09T10:51:48Z</time>
      </trkpt>
      <trkpt lat="46.1833" lon="5.27151">
        <ele>240.2</ele>
        <time>2026-05-09T10:51:49Z</time>
      </trkpt>
      <trkpt lat="46.18326" lon="5.27155">
        <ele>240.2</ele>
        <time>2026-05-09T10:51:50Z</time>
      </trkpt>
      <trkpt lat="46.18323" lon="5.27159">
        <ele>240.2</ele>
        <time>2026-05-09T10:51:51Z</time>
      </trkpt>
      <trkpt lat="46.18319" lon="5.27161">
        <ele>240.6</ele>
        <time>2026-05-09T10:51:52Z</time>
      </trkpt>
      <trkpt lat="46.18315" lon="5.27165">
        <ele>240.6</ele>
        <time>2026-05-09T10:51:53Z</time>
      </trkpt>
      <trkpt lat="46.18312" lon="5.27168">
        <ele>240.8</ele>
        <time>2026-05-09T10:51:54Z</time>
      </trkpt>
      <trkpt lat="46.18309" lon="5.27171">
        <ele>240.8</ele>
        <time>2026-05-09T10:51:55Z</time>
      </trkpt>
      <trkpt lat="46.18305" lon="5.27174">
        <ele>240.8</ele>
        <time>2026-05-09T10:51:56Z</time>
      </trkpt>
      <trkpt lat="46.18302" lon="5.27178">
        <ele>241.2</ele>
        <time>2026-05-09T10:51:57Z</time>
      </trkpt>
      <trkpt lat="46.18299" lon="5.27181">
        <ele>241.2</ele>
        <time>2026-05-09T10:51:58Z</time>
      </trkpt>
      <trkpt lat="46.18295" lon="5.27183">
        <ele>241.4</ele>
        <time>2026-05-09T10:51:59Z</time>
      </trkpt>
      <trkpt lat="46.18292" lon="5.27186">
        <ele>241.4</ele>
        <time>2026-05-09T10:52:00Z</time>
      </trkpt>
      <trkpt lat="46.18289" lon="5.27188">
        <ele>241.4</ele>
        <time>2026-05-09T10:52:01Z</time>
      </trkpt>
      <trkpt lat="46.18286" lon="5.27191">
        <ele>241.8</ele>
        <time>2026-05-09T10:52:02Z</time>
      </trkpt>
      <trkpt lat="46.18284" lon="5.27193">
        <ele>241.8</ele>
        <time>2026-05-09T10:52:03Z</time>
      </trkpt>
      <trkpt lat="46.18281" lon="5.27195">
        <ele>242.2</ele>
        <time>2026-05-09T10:52:04Z</time>
      </trkpt>
      <trkpt lat="46.18278" lon="5.27198">
        <ele>242.2</ele>
        <time>2026-05-09T10:52:05Z</time>
      </trkpt>
      <trkpt lat="46.18275" lon="5.272">
        <ele>242.2</ele>
        <time>2026-05-09T10:52:06Z</time>
      </trkpt>
      <trkpt lat="46.18273" lon="5.27202">
        <ele>242.4</ele>
        <time>2026-05-09T10:52:07Z</time>
      </trkpt>
      <trkpt lat="46.1827" lon="5.27205">
        <ele>242.4</ele>
        <time>2026-05-09T10:52:08Z</time>
      </trkpt>
      <trkpt lat="46.18268" lon="5.27208">
        <ele>242.8</ele>
        <time>2026-05-09T10:52:09Z</time>
      </trkpt>
      <trkpt lat="46.18266" lon="5.27211">
        <ele>242.8</ele>
        <time>2026-05-09T10:52:10Z</time>
      </trkpt>
      <trkpt lat="46.18264" lon="5.27214">
        <ele>242.8</ele>
        <time>2026-05-09T10:52:11Z</time>
      </trkpt>
      <trkpt lat="46.18263" lon="5.27217">
        <ele>242.6</ele>
        <time>2026-05-09T10:52:12Z</time>
      </trkpt>
      <trkpt lat="46.1826" lon="5.2722">
        <ele>242.6</ele>
        <time>2026-05-09T10:52:13Z</time>
      </trkpt>
      <trkpt lat="46.18259" lon="5.27221">
        <ele>242.6</ele>
        <time>2026-05-09T10:52:14Z</time>
      </trkpt>
      <trkpt lat="46.18257" lon="5.27222">
        <ele>242.8</ele>
        <time>2026-05-09T10:52:15Z</time>
      </trkpt>
      <trkpt lat="46.18255" lon="5.27223">
        <ele>242.8</ele>
        <time>2026-05-09T10:52:16Z</time>
      </trkpt>
      <trkpt lat="46.18254" lon="5.27224">
        <ele>242.8</ele>
        <time>2026-05-09T10:52:17Z</time>
      </trkpt>
      <trkpt lat="46.18253" lon="5.27225">
        <ele>242.8</ele>
        <time>2026-05-09T10:52:18Z</time>
      </trkpt>
      <trkpt lat="46.18252" lon="5.27226">
        <ele>242.8</ele>
        <time>2026-05-09T10:52:19Z</time>
      </trkpt>
      <trkpt lat="46.18251" lon="5.27227">
        <ele>243</ele>
        <time>2026-05-09T10:52:20Z</time>
      </trkpt>
      <trkpt lat="46.1825" lon="5.27228">
        <ele>243</ele>
        <time>2026-05-09T10:52:21Z</time>
      </trkpt>
      <trkpt lat="46.18248" lon="5.27229">
        <ele>243</ele>
        <time>2026-05-09T10:52:22Z</time>
      </trkpt>
      <trkpt lat="46.18246" lon="5.27231">
        <ele>243</ele>
        <time>2026-05-09T10:52:23Z</time>
      </trkpt>
      <trkpt lat="46.18243" lon="5.27233">
        <ele>243.2</ele>
        <time>2026-05-09T10:52:24Z</time>
      </trkpt>
      <trkpt lat="46.1824" lon="5.27234">
        <ele>243.2</ele>
        <time>2026-05-09T10:52:25Z</time>
      </trkpt>
      <trkpt lat="46.18237" lon="5.27235">
        <ele>243.6</ele>
        <time>2026-05-09T10:52:26Z</time>
      </trkpt>
      <trkpt lat="46.18234" lon="5.27236">
        <ele>243.6</ele>
        <time>2026-05-09T10:52:27Z</time>
      </trkpt>
      <trkpt lat="46.18231" lon="5.27238">
        <ele>243.8</ele>
        <time>2026-05-09T10:52:28Z</time>
      </trkpt>
      <trkpt lat="46.18228" lon="5.27241">
        <ele>243.8</ele>
        <time>2026-05-09T10:52:29Z</time>
      </trkpt>
      <trkpt lat="46.18225" lon="5.27244">
        <ele>243.8</ele>
        <time>2026-05-09T10:52:30Z</time>
      </trkpt>
      <trkpt lat="46.18222" lon="5.27248">
        <ele>243.8</ele>
        <time>2026-05-09T10:52:31Z</time>
      </trkpt>
      <trkpt lat="46.18219" lon="5.27252">
        <ele>244.2</ele>
        <time>2026-05-09T10:52:32Z</time>
      </trkpt>
      <trkpt lat="46.18216" lon="5.27256">
        <ele>244.2</ele>
        <time>2026-05-09T10:52:33Z</time>
      </trkpt>
      <trkpt lat="46.18213" lon="5.2726">
        <ele>244.2</ele>
        <time>2026-05-09T10:52:34Z</time>
      </trkpt>
      <trkpt lat="46.18209" lon="5.27264">
        <ele>244.2</ele>
        <time>2026-05-09T10:52:35Z</time>
      </trkpt>
      <trkpt lat="46.18206" lon="5.27268">
        <ele>244.4</ele>
        <time>2026-05-09T10:52:36Z</time>
      </trkpt>
      <trkpt lat="46.18203" lon="5.27272">
        <ele>244.6</ele>
        <time>2026-05-09T10:52:37Z</time>
      </trkpt>
      <trkpt lat="46.182" lon="5.27276">
        <ele>244.8</ele>
        <time>2026-05-09T10:52:38Z</time>
      </trkpt>
      <trkpt lat="46.18197" lon="5.2728">
        <ele>245</ele>
        <time>2026-05-09T10:52:39Z</time>
      </trkpt>
      <trkpt lat="46.18194" lon="5.27283">
        <ele>245</ele>
        <time>2026-05-09T10:52:40Z</time>
      </trkpt>
      <trkpt lat="46.18191" lon="5.27287">
        <ele>245.4</ele>
        <time>2026-05-09T10:52:41Z</time>
      </trkpt>
      <trkpt lat="46.18189" lon="5.2729">
        <ele>245.4</ele>
        <time>2026-05-09T10:52:42Z</time>
      </trkpt>
      <trkpt lat="46.18186" lon="5.27294">
        <ele>245.4</ele>
        <time>2026-05-09T10:52:43Z</time>
      </trkpt>
      <trkpt lat="46.18182" lon="5.27297">
        <ele>245.8</ele>
        <time>2026-05-09T10:52:44Z</time>
      </trkpt>
      <trkpt lat="46.18179" lon="5.273">
        <ele>245.8</ele>
        <time>2026-05-09T10:52:45Z</time>
      </trkpt>
      <trkpt lat="46.18176" lon="5.27303">
        <ele>245.8</ele>
        <time>2026-05-09T10:52:46Z</time>
      </trkpt>
      <trkpt lat="46.18173" lon="5.27306">
        <ele>245.8</ele>
        <time>2026-05-09T10:52:47Z</time>
      </trkpt>
      <trkpt lat="46.1817" lon="5.27309">
        <ele>246</ele>
        <time>2026-05-09T10:52:48Z</time>
      </trkpt>
      <trkpt lat="46.18166" lon="5.27312">
        <ele>246</ele>
        <time>2026-05-09T10:52:49Z</time>
      </trkpt>
      <trkpt lat="46.18163" lon="5.27316">
        <ele>246</ele>
        <time>2026-05-09T10:52:50Z</time>
      </trkpt>
      <trkpt lat="46.1816" lon="5.27319">
        <ele>246.4</ele>
        <time>2026-05-09T10:52:51Z</time>
      </trkpt>
      <trkpt lat="46.18156" lon="5.27322">
        <ele>246.4</ele>
        <time>2026-05-09T10:52:52Z</time>
      </trkpt>
      <trkpt lat="46.18153" lon="5.27326">
        <ele>246.6</ele>
        <time>2026-05-09T10:52:53Z</time>
      </trkpt>
      <trkpt lat="46.1815" lon="5.27329">
        <ele>247</ele>
        <time>2026-05-09T10:52:54Z</time>
      </trkpt>
      <trkpt lat="46.18146" lon="5.27332">
        <ele>247</ele>
        <time>2026-05-09T10:52:55Z</time>
      </trkpt>
      <trkpt lat="46.18143" lon="5.27335">
        <ele>247.2</ele>
        <time>2026-05-09T10:52:56Z</time>
      </trkpt>
      <trkpt lat="46.18139" lon="5.27339">
        <ele>247.2</ele>
        <time>2026-05-09T10:52:57Z</time>
      </trkpt>
      <trkpt lat="46.18136" lon="5.27342">
        <ele>247.4</ele>
        <time>2026-05-09T10:52:58Z</time>
      </trkpt>
      <trkpt lat="46.18133" lon="5.27345">
        <ele>247.4</ele>
        <time>2026-05-09T10:52:59Z</time>
      </trkpt>
      <trkpt lat="46.18129" lon="5.27348">
        <ele>247.4</ele>
        <time>2026-05-09T10:53:00Z</time>
      </trkpt>
      <trkpt lat="46.18126" lon="5.27352">
        <ele>247.4</ele>
        <time>2026-05-09T10:53:01Z</time>
      </trkpt>
      <trkpt lat="46.18122" lon="5.27355">
        <ele>247.4</ele>
        <time>2026-05-09T10:53:02Z</time>
      </trkpt>
      <trkpt lat="46.18119" lon="5.27358">
        <ele>247.2</ele>
        <time>2026-05-09T10:53:03Z</time>
      </trkpt>
      <trkpt lat="46.18116" lon="5.27361">
        <ele>247.2</ele>
        <time>2026-05-09T10:53:04Z</time>
      </trkpt>
      <trkpt lat="46.18109" lon="5.27368">
        <ele>247.2</ele>
        <time>2026-05-09T10:53:05Z</time>
      </trkpt>
      <trkpt lat="46.18105" lon="5.27371">
        <ele>247.4</ele>
        <time>2026-05-09T10:53:06Z</time>
      </trkpt>
      <trkpt lat="46.18101" lon="5.27375">
        <ele>247.4</ele>
        <time>2026-05-09T10:53:07Z</time>
      </trkpt>
      <trkpt lat="46.18098" lon="5.27379">
        <ele>247.4</ele>
        <time>2026-05-09T10:53:08Z</time>
      </trkpt>
      <trkpt lat="46.18094" lon="5.27382">
        <ele>247.4</ele>
        <time>2026-05-09T10:53:09Z</time>
      </trkpt>
      <trkpt lat="46.1809" lon="5.27386">
        <ele>247.4</ele>
        <time>2026-05-09T10:53:10Z</time>
      </trkpt>
      <trkpt lat="46.18087" lon="5.27389">
        <ele>247.6</ele>
        <time>2026-05-09T10:53:11Z</time>
      </trkpt>
      <trkpt lat="46.18083" lon="5.27393">
        <ele>247.6</ele>
        <time>2026-05-09T10:53:12Z</time>
      </trkpt>
      <trkpt lat="46.18079" lon="5.27396">
        <ele>247.6</ele>
        <time>2026-05-09T10:53:13Z</time>
      </trkpt>
      <trkpt lat="46.18076" lon="5.274">
        <ele>247.6</ele>
        <time>2026-05-09T10:53:14Z</time>
      </trkpt>
      <trkpt lat="46.18072" lon="5.27404">
        <ele>247.6</ele>
        <time>2026-05-09T10:53:15Z</time>
      </trkpt>
      <trkpt lat="46.18068" lon="5.27407">
        <ele>247.6</ele>
        <time>2026-05-09T10:53:16Z</time>
      </trkpt>
      <trkpt lat="46.18065" lon="5.27411">
        <ele>247.6</ele>
        <time>2026-05-09T10:53:17Z</time>
      </trkpt>
      <trkpt lat="46.18061" lon="5.27415">
        <ele>247.6</ele>
        <time>2026-05-09T10:53:18Z</time>
      </trkpt>
      <trkpt lat="46.18057" lon="5.27419">
        <ele>247.4</ele>
        <time>2026-05-09T10:53:19Z</time>
      </trkpt>
      <trkpt lat="46.18054" lon="5.27423">
        <ele>247.4</ele>
        <time>2026-05-09T10:53:20Z</time>
      </trkpt>
      <trkpt lat="46.1805" lon="5.27427">
        <ele>247.4</ele>
        <time>2026-05-09T10:53:21Z</time>
      </trkpt>
      <trkpt lat="46.18046" lon="5.27431">
        <ele>247.4</ele>
        <time>2026-05-09T10:53:22Z</time>
      </trkpt>
      <trkpt lat="46.18042" lon="5.27434">
        <ele>247.4</ele>
        <time>2026-05-09T10:53:23Z</time>
      </trkpt>
      <trkpt lat="46.18039" lon="5.27438">
        <ele>247.2</ele>
        <time>2026-05-09T10:53:24Z</time>
      </trkpt>
      <trkpt lat="46.18035" lon="5.27442">
        <ele>247.2</ele>
        <time>2026-05-09T10:53:25Z</time>
      </trkpt>
      <trkpt lat="46.18031" lon="5.27446">
        <ele>247.2</ele>
        <time>2026-05-09T10:53:26Z</time>
      </trkpt>
      <trkpt lat="46.18027" lon="5.2745">
        <ele>247.2</ele>
        <time>2026-05-09T10:53:27Z</time>
      </trkpt>
      <trkpt lat="46.18023" lon="5.27454">
        <ele>247.4</ele>
        <time>2026-05-09T10:53:28Z</time>
      </trkpt>
      <trkpt lat="46.18019" lon="5.27457">
        <ele>247.4</ele>
        <time>2026-05-09T10:53:29Z</time>
      </trkpt>
      <trkpt lat="46.18015" lon="5.27461">
        <ele>247.8</ele>
        <time>2026-05-09T10:53:30Z</time>
      </trkpt>
      <trkpt lat="46.18011" lon="5.27465">
        <ele>247.8</ele>
        <time>2026-05-09T10:53:31Z</time>
      </trkpt>
      <trkpt lat="46.18007" lon="5.27469">
        <ele>247.8</ele>
        <time>2026-05-09T10:53:32Z</time>
      </trkpt>
      <trkpt lat="46.18003" lon="5.27473">
        <ele>247.8</ele>
        <time>2026-05-09T10:53:33Z</time>
      </trkpt>
      <trkpt lat="46.17999" lon="5.27477">
        <ele>247.8</ele>
        <time>2026-05-09T10:53:34Z</time>
      </trkpt>
      <trkpt lat="46.17996" lon="5.27481">
        <ele>247.6</ele>
        <time>2026-05-09T10:53:35Z</time>
      </trkpt>
      <trkpt lat="46.17992" lon="5.27485">
        <ele>247.6</ele>
        <time>2026-05-09T10:53:36Z</time>
      </trkpt>
      <trkpt lat="46.17988" lon="5.27489">
        <ele>247.6</ele>
        <time>2026-05-09T10:53:37Z</time>
      </trkpt>
      <trkpt lat="46.17985" lon="5.27493">
        <ele>247.6</ele>
        <time>2026-05-09T10:53:38Z</time>
      </trkpt>
      <trkpt lat="46.17981" lon="5.27496">
        <ele>247.6</ele>
        <time>2026-05-09T10:53:39Z</time>
      </trkpt>
      <trkpt lat="46.17977" lon="5.27499">
        <ele>247.6</ele>
        <time>2026-05-09T10:53:40Z</time>
      </trkpt>
      <trkpt lat="46.17973" lon="5.27503">
        <ele>247.6</ele>
        <time>2026-05-09T10:53:41Z</time>
      </trkpt>
      <trkpt lat="46.17969" lon="5.27506">
        <ele>248</ele>
        <time>2026-05-09T10:53:42Z</time>
      </trkpt>
      <trkpt lat="46.17966" lon="5.2751">
        <ele>248</ele>
        <time>2026-05-09T10:53:43Z</time>
      </trkpt>
      <trkpt lat="46.17962" lon="5.27513">
        <ele>248.4</ele>
        <time>2026-05-09T10:53:44Z</time>
      </trkpt>
      <trkpt lat="46.17959" lon="5.27516">
        <ele>248.4</ele>
        <time>2026-05-09T10:53:45Z</time>
      </trkpt>
      <trkpt lat="46.17956" lon="5.2752">
        <ele>248.2</ele>
        <time>2026-05-09T10:53:46Z</time>
      </trkpt>
      <trkpt lat="46.17952" lon="5.27522">
        <ele>248.2</ele>
        <time>2026-05-09T10:53:47Z</time>
      </trkpt>
      <trkpt lat="46.17949" lon="5.27526">
        <ele>248.4</ele>
        <time>2026-05-09T10:53:48Z</time>
      </trkpt>
      <trkpt lat="46.17945" lon="5.27529">
        <ele>248.4</ele>
        <time>2026-05-09T10:53:49Z</time>
      </trkpt>
      <trkpt lat="46.17942" lon="5.27533">
        <ele>248.4</ele>
        <time>2026-05-09T10:53:50Z</time>
      </trkpt>
      <trkpt lat="46.17939" lon="5.27537">
        <ele>248.4</ele>
        <time>2026-05-09T10:53:51Z</time>
      </trkpt>
      <trkpt lat="46.17935" lon="5.2754">
        <ele>248.4</ele>
        <time>2026-05-09T10:53:52Z</time>
      </trkpt>
      <trkpt lat="46.17932" lon="5.27544">
        <ele>248.6</ele>
        <time>2026-05-09T10:53:53Z</time>
      </trkpt>
      <trkpt lat="46.17928" lon="5.27547">
        <ele>248.6</ele>
        <time>2026-05-09T10:53:54Z</time>
      </trkpt>
      <trkpt lat="46.17924" lon="5.27551">
        <ele>248.6</ele>
        <time>2026-05-09T10:53:55Z</time>
      </trkpt>
      <trkpt lat="46.1792" lon="5.27555">
        <ele>248.6</ele>
        <time>2026-05-09T10:53:56Z</time>
      </trkpt>
      <trkpt lat="46.17917" lon="5.27559">
        <ele>248.6</ele>
        <time>2026-05-09T10:53:57Z</time>
      </trkpt>
      <trkpt lat="46.17914" lon="5.27562">
        <ele>248.6</ele>
        <time>2026-05-09T10:53:58Z</time>
      </trkpt>
      <trkpt lat="46.1791" lon="5.27567">
        <ele>248.6</ele>
        <time>2026-05-09T10:53:59Z</time>
      </trkpt>
      <trkpt lat="46.17907" lon="5.2757">
        <ele>248.6</ele>
        <time>2026-05-09T10:54:00Z</time>
      </trkpt>
      <trkpt lat="46.17903" lon="5.27574">
        <ele>248.6</ele>
        <time>2026-05-09T10:54:01Z</time>
      </trkpt>
      <trkpt lat="46.17899" lon="5.27578">
        <ele>248.6</ele>
        <time>2026-05-09T10:54:02Z</time>
      </trkpt>
      <trkpt lat="46.17896" lon="5.27582">
        <ele>248.6</ele>
        <time>2026-05-09T10:54:03Z</time>
      </trkpt>
      <trkpt lat="46.17892" lon="5.27585">
        <ele>248.6</ele>
        <time>2026-05-09T10:54:04Z</time>
      </trkpt>
      <trkpt lat="46.17889" lon="5.27588">
        <ele>248.6</ele>
        <time>2026-05-09T10:54:05Z</time>
      </trkpt>
      <trkpt lat="46.17886" lon="5.27592">
        <ele>248.6</ele>
        <time>2026-05-09T10:54:06Z</time>
      </trkpt>
      <trkpt lat="46.17882" lon="5.27596">
        <ele>248.6</ele>
        <time>2026-05-09T10:54:07Z</time>
      </trkpt>
      <trkpt lat="46.17879" lon="5.27599">
        <ele>248.6</ele>
        <time>2026-05-09T10:54:08Z</time>
      </trkpt>
      <trkpt lat="46.17875" lon="5.27603">
        <ele>249</ele>
        <time>2026-05-09T10:54:09Z</time>
      </trkpt>
      <trkpt lat="46.17872" lon="5.27606">
        <ele>249</ele>
        <time>2026-05-09T10:54:10Z</time>
      </trkpt>
      <trkpt lat="46.17868" lon="5.2761">
        <ele>249</ele>
        <time>2026-05-09T10:54:11Z</time>
      </trkpt>
      <trkpt lat="46.17865" lon="5.27613">
        <ele>249</ele>
        <time>2026-05-09T10:54:12Z</time>
      </trkpt>
      <trkpt lat="46.17862" lon="5.27616">
        <ele>249</ele>
        <time>2026-05-09T10:54:13Z</time>
      </trkpt>
      <trkpt lat="46.17859" lon="5.27619">
        <ele>249</ele>
        <time>2026-05-09T10:54:14Z</time>
      </trkpt>
      <trkpt lat="46.17855" lon="5.27623">
        <ele>249</ele>
        <time>2026-05-09T10:54:15Z</time>
      </trkpt>
      <trkpt lat="46.17852" lon="5.27626">
        <ele>249</ele>
        <time>2026-05-09T10:54:16Z</time>
      </trkpt>
      <trkpt lat="46.17848" lon="5.2763">
        <ele>249</ele>
        <time>2026-05-09T10:54:17Z</time>
      </trkpt>
      <trkpt lat="46.17844" lon="5.27634">
        <ele>249.2</ele>
        <time>2026-05-09T10:54:18Z</time>
      </trkpt>
      <trkpt lat="46.17841" lon="5.27638">
        <ele>249.2</ele>
        <time>2026-05-09T10:54:19Z</time>
      </trkpt>
      <trkpt lat="46.17838" lon="5.27642">
        <ele>249.6</ele>
        <time>2026-05-09T10:54:20Z</time>
      </trkpt>
      <trkpt lat="46.17834" lon="5.27645">
        <ele>249.6</ele>
        <time>2026-05-09T10:54:21Z</time>
      </trkpt>
      <trkpt lat="46.17831" lon="5.27649">
        <ele>249.6</ele>
        <time>2026-05-09T10:54:22Z</time>
      </trkpt>
      <trkpt lat="46.17827" lon="5.27653">
        <ele>249.6</ele>
        <time>2026-05-09T10:54:23Z</time>
      </trkpt>
      <trkpt lat="46.17824" lon="5.27656">
        <ele>249.6</ele>
        <time>2026-05-09T10:54:24Z</time>
      </trkpt>
      <trkpt lat="46.1782" lon="5.2766">
        <ele>249.6</ele>
        <time>2026-05-09T10:54:25Z</time>
      </trkpt>
      <trkpt lat="46.17817" lon="5.27663">
        <ele>249.6</ele>
        <time>2026-05-09T10:54:26Z</time>
      </trkpt>
      <trkpt lat="46.17813" lon="5.27667">
        <ele>249.6</ele>
        <time>2026-05-09T10:54:27Z</time>
      </trkpt>
      <trkpt lat="46.1781" lon="5.27671">
        <ele>250.2</ele>
        <time>2026-05-09T10:54:28Z</time>
      </trkpt>
      <trkpt lat="46.17807" lon="5.27674">
        <ele>250.2</ele>
        <time>2026-05-09T10:54:29Z</time>
      </trkpt>
      <trkpt lat="46.17803" lon="5.27678">
        <ele>249.8</ele>
        <time>2026-05-09T10:54:30Z</time>
      </trkpt>
      <trkpt lat="46.178" lon="5.27682">
        <ele>249.8</ele>
        <time>2026-05-09T10:54:31Z</time>
      </trkpt>
      <trkpt lat="46.17797" lon="5.27686">
        <ele>249.6</ele>
        <time>2026-05-09T10:54:32Z</time>
      </trkpt>
      <trkpt lat="46.17793" lon="5.27689">
        <ele>249.6</ele>
        <time>2026-05-09T10:54:33Z</time>
      </trkpt>
      <trkpt lat="46.1779" lon="5.27693">
        <ele>249.6</ele>
        <time>2026-05-09T10:54:34Z</time>
      </trkpt>
      <trkpt lat="46.17786" lon="5.27697">
        <ele>249.6</ele>
        <time>2026-05-09T10:54:35Z</time>
      </trkpt>
      <trkpt lat="46.17783" lon="5.27701">
        <ele>249.6</ele>
        <time>2026-05-09T10:54:36Z</time>
      </trkpt>
      <trkpt lat="46.17779" lon="5.27706">
        <ele>249.6</ele>
        <time>2026-05-09T10:54:37Z</time>
      </trkpt>
      <trkpt lat="46.17779" lon="5.27706">
        <ele>249.6</ele>
        <time>2026-05-09T10:54:38Z</time>
      </trkpt>
      <trkpt lat="46.17776" lon="5.2771">
        <ele>249.6</ele>
        <time>2026-05-09T10:54:39Z</time>
      </trkpt>
      <trkpt lat="46.17773" lon="5.27715">
        <ele>249.6</ele>
        <time>2026-05-09T10:54:40Z</time>
      </trkpt>
      <trkpt lat="46.1777" lon="5.2772">
        <ele>249.6</ele>
        <time>2026-05-09T10:54:41Z</time>
      </trkpt>
      <trkpt lat="46.17768" lon="5.27725">
        <ele>249.6</ele>
        <time>2026-05-09T10:54:42Z</time>
      </trkpt>
      <trkpt lat="46.17765" lon="5.27731">
        <ele>249.6</ele>
        <time>2026-05-09T10:54:43Z</time>
      </trkpt>
      <trkpt lat="46.17763" lon="5.27736">
        <ele>249.6</ele>
        <time>2026-05-09T10:54:44Z</time>
      </trkpt>
      <trkpt lat="46.1776" lon="5.27742">
        <ele>249.6</ele>
        <time>2026-05-09T10:54:45Z</time>
      </trkpt>
      <trkpt lat="46.17758" lon="5.27748">
        <ele>249.6</ele>
        <time>2026-05-09T10:54:46Z</time>
      </trkpt>
      <trkpt lat="46.17755" lon="5.27754">
        <ele>249.6</ele>
        <time>2026-05-09T10:54:47Z</time>
      </trkpt>
      <trkpt lat="46.17753" lon="5.27759">
        <ele>249.6</ele>
        <time>2026-05-09T10:54:48Z</time>
      </trkpt>
      <trkpt lat="46.17751" lon="5.27764">
        <ele>249.6</ele>
        <time>2026-05-09T10:54:49Z</time>
      </trkpt>
      <trkpt lat="46.17749" lon="5.27768">
        <ele>249.2</ele>
        <time>2026-05-09T10:54:50Z</time>
      </trkpt>
      <trkpt lat="46.17747" lon="5.27774">
        <ele>249.2</ele>
        <time>2026-05-09T10:54:51Z</time>
      </trkpt>
      <trkpt lat="46.17744" lon="5.2778">
        <ele>249.2</ele>
        <time>2026-05-09T10:54:52Z</time>
      </trkpt>
      <trkpt lat="46.17742" lon="5.27786">
        <ele>249.6</ele>
        <time>2026-05-09T10:54:53Z</time>
      </trkpt>
      <trkpt lat="46.17739" lon="5.27792">
        <ele>249.6</ele>
        <time>2026-05-09T10:54:54Z</time>
      </trkpt>
      <trkpt lat="46.17737" lon="5.27798">
        <ele>249.6</ele>
        <time>2026-05-09T10:54:55Z</time>
      </trkpt>
      <trkpt lat="46.17735" lon="5.27805">
        <ele>249.6</ele>
        <time>2026-05-09T10:54:56Z</time>
      </trkpt>
      <trkpt lat="46.17732" lon="5.27811">
        <ele>249.6</ele>
        <time>2026-05-09T10:54:57Z</time>
      </trkpt>
      <trkpt lat="46.17729" lon="5.27818">
        <ele>249.6</ele>
        <time>2026-05-09T10:54:58Z</time>
      </trkpt>
      <trkpt lat="46.17727" lon="5.27825">
        <ele>249.6</ele>
        <time>2026-05-09T10:54:59Z</time>
      </trkpt>
      <trkpt lat="46.17724" lon="5.27831">
        <ele>249.6</ele>
        <time>2026-05-09T10:55:00Z</time>
      </trkpt>
      <trkpt lat="46.17722" lon="5.27838">
        <ele>249.6</ele>
        <time>2026-05-09T10:55:01Z</time>
      </trkpt>
      <trkpt lat="46.17719" lon="5.27843">
        <ele>249.8</ele>
        <time>2026-05-09T10:55:02Z</time>
      </trkpt>
      <trkpt lat="46.17718" lon="5.2785">
        <ele>249.8</ele>
        <time>2026-05-09T10:55:03Z</time>
      </trkpt>
      <trkpt lat="46.17716" lon="5.27856">
        <ele>249.8</ele>
        <time>2026-05-09T10:55:04Z</time>
      </trkpt>
      <trkpt lat="46.17715" lon="5.27863">
        <ele>249.6</ele>
        <time>2026-05-09T10:55:05Z</time>
      </trkpt>
      <trkpt lat="46.17714" lon="5.2787">
        <ele>249.6</ele>
        <time>2026-05-09T10:55:06Z</time>
      </trkpt>
      <trkpt lat="46.17713" lon="5.27876">
        <ele>249.6</ele>
        <time>2026-05-09T10:55:07Z</time>
      </trkpt>
      <trkpt lat="46.17713" lon="5.27883">
        <ele>249.6</ele>
        <time>2026-05-09T10:55:08Z</time>
      </trkpt>
      <trkpt lat="46.17713" lon="5.2789">
        <ele>249.2</ele>
        <time>2026-05-09T10:55:09Z</time>
      </trkpt>
      <trkpt lat="46.17713" lon="5.27897">
        <ele>249.2</ele>
        <time>2026-05-09T10:55:10Z</time>
      </trkpt>
      <trkpt lat="46.17713" lon="5.27903">
        <ele>249.2</ele>
        <time>2026-05-09T10:55:11Z</time>
      </trkpt>
      <trkpt lat="46.17713" lon="5.27909">
        <ele>249.2</ele>
        <time>2026-05-09T10:55:12Z</time>
      </trkpt>
      <trkpt lat="46.17713" lon="5.27916">
        <ele>249.2</ele>
        <time>2026-05-09T10:55:13Z</time>
      </trkpt>
      <trkpt lat="46.17713" lon="5.27923">
        <ele>249.2</ele>
        <time>2026-05-09T10:55:14Z</time>
      </trkpt>
      <trkpt lat="46.17713" lon="5.27929">
        <ele>249.2</ele>
        <time>2026-05-09T10:55:15Z</time>
      </trkpt>
      <trkpt lat="46.17714" lon="5.27936">
        <ele>249</ele>
        <time>2026-05-09T10:55:16Z</time>
      </trkpt>
      <trkpt lat="46.17714" lon="5.27944">
        <ele>248.6</ele>
        <time>2026-05-09T10:55:17Z</time>
      </trkpt>
      <trkpt lat="46.17714" lon="5.27951">
        <ele>248.6</ele>
        <time>2026-05-09T10:55:18Z</time>
      </trkpt>
      <trkpt lat="46.17714" lon="5.27959">
        <ele>248.6</ele>
        <time>2026-05-09T10:55:19Z</time>
      </trkpt>
      <trkpt lat="46.17714" lon="5.27966">
        <ele>248.6</ele>
        <time>2026-05-09T10:55:20Z</time>
      </trkpt>
      <trkpt lat="46.17714" lon="5.27973">
        <ele>248.4</ele>
        <time>2026-05-09T10:55:21Z</time>
      </trkpt>
      <trkpt lat="46.17714" lon="5.2798">
        <ele>248</ele>
        <time>2026-05-09T10:55:22Z</time>
      </trkpt>
      <trkpt lat="46.17714" lon="5.27987">
        <ele>248</ele>
        <time>2026-05-09T10:55:23Z</time>
      </trkpt>
      <trkpt lat="46.17713" lon="5.27995">
        <ele>248</ele>
        <time>2026-05-09T10:55:24Z</time>
      </trkpt>
      <trkpt lat="46.17712" lon="5.28003">
        <ele>248.2</ele>
        <time>2026-05-09T10:55:25Z</time>
      </trkpt>
      <trkpt lat="46.17711" lon="5.28011">
        <ele>248.2</ele>
        <time>2026-05-09T10:55:26Z</time>
      </trkpt>
      <trkpt lat="46.1771" lon="5.28018">
        <ele>248.2</ele>
        <time>2026-05-09T10:55:27Z</time>
      </trkpt>
      <trkpt lat="46.1771" lon="5.28025">
        <ele>248.4</ele>
        <time>2026-05-09T10:55:28Z</time>
      </trkpt>
      <trkpt lat="46.17709" lon="5.28032">
        <ele>248.4</ele>
        <time>2026-05-09T10:55:29Z</time>
      </trkpt>
      <trkpt lat="46.17709" lon="5.2804">
        <ele>248.4</ele>
        <time>2026-05-09T10:55:30Z</time>
      </trkpt>
      <trkpt lat="46.17708" lon="5.28048">
        <ele>248.4</ele>
        <time>2026-05-09T10:55:31Z</time>
      </trkpt>
      <trkpt lat="46.17707" lon="5.28056">
        <ele>248.4</ele>
        <time>2026-05-09T10:55:32Z</time>
      </trkpt>
      <trkpt lat="46.17706" lon="5.28064">
        <ele>248.4</ele>
        <time>2026-05-09T10:55:33Z</time>
      </trkpt>
      <trkpt lat="46.17705" lon="5.28072">
        <ele>248.4</ele>
        <time>2026-05-09T10:55:34Z</time>
      </trkpt>
      <trkpt lat="46.17704" lon="5.2808">
        <ele>248</ele>
        <time>2026-05-09T10:55:35Z</time>
      </trkpt>
      <trkpt lat="46.17702" lon="5.28088">
        <ele>247.8</ele>
        <time>2026-05-09T10:55:36Z</time>
      </trkpt>
      <trkpt lat="46.177" lon="5.28096">
        <ele>247.6</ele>
        <time>2026-05-09T10:55:37Z</time>
      </trkpt>
      <trkpt lat="46.17698" lon="5.28105">
        <ele>247.6</ele>
        <time>2026-05-09T10:55:38Z</time>
      </trkpt>
      <trkpt lat="46.17696" lon="5.28112">
        <ele>247.4</ele>
        <time>2026-05-09T10:55:39Z</time>
      </trkpt>
      <trkpt lat="46.17693" lon="5.28119">
        <ele>246.6</ele>
        <time>2026-05-09T10:55:40Z</time>
      </trkpt>
      <trkpt lat="46.1769" lon="5.28127">
        <ele>246.2</ele>
        <time>2026-05-09T10:55:41Z</time>
      </trkpt>
      <trkpt lat="46.17686" lon="5.28135">
        <ele>246.2</ele>
        <time>2026-05-09T10:55:42Z</time>
      </trkpt>
      <trkpt lat="46.17682" lon="5.28142">
        <ele>246</ele>
        <time>2026-05-09T10:55:43Z</time>
      </trkpt>
      <trkpt lat="46.17679" lon="5.28149">
        <ele>245.6</ele>
        <time>2026-05-09T10:55:44Z</time>
      </trkpt>
      <trkpt lat="46.17674" lon="5.28157">
        <ele>245.2</ele>
        <time>2026-05-09T10:55:45Z</time>
      </trkpt>
      <trkpt lat="46.17669" lon="5.28164">
        <ele>245.2</ele>
        <time>2026-05-09T10:55:46Z</time>
      </trkpt>
      <trkpt lat="46.17664" lon="5.28171">
        <ele>245</ele>
        <time>2026-05-09T10:55:47Z</time>
      </trkpt>
      <trkpt lat="46.17659" lon="5.28177">
        <ele>244.8</ele>
        <time>2026-05-09T10:55:48Z</time>
      </trkpt>
      <trkpt lat="46.17654" lon="5.28182">
        <ele>244.8</ele>
        <time>2026-05-09T10:55:49Z</time>
      </trkpt>
      <trkpt lat="46.17649" lon="5.28188">
        <ele>244.8</ele>
        <time>2026-05-09T10:55:50Z</time>
      </trkpt>
      <trkpt lat="46.17644" lon="5.28193">
        <ele>244.4</ele>
        <time>2026-05-09T10:55:51Z</time>
      </trkpt>
      <trkpt lat="46.17639" lon="5.28198">
        <ele>244.6</ele>
        <time>2026-05-09T10:55:52Z</time>
      </trkpt>
      <trkpt lat="46.17634" lon="5.28204">
        <ele>244.4</ele>
        <time>2026-05-09T10:55:53Z</time>
      </trkpt>
      <trkpt lat="46.17634" lon="5.28204">
        <ele>244.4</ele>
        <time>2026-05-09T10:55:54Z</time>
      </trkpt>
      <trkpt lat="46.17612" lon="5.28223">
        <ele>243.8</ele>
        <time>2026-05-09T10:55:56Z</time>
      </trkpt>
      <trkpt lat="46.17607" lon="5.28228">
        <ele>243.8</ele>
        <time>2026-05-09T10:55:57Z</time>
      </trkpt>
      <trkpt lat="46.17601" lon="5.28232">
        <ele>243.4</ele>
        <time>2026-05-09T10:55:58Z</time>
      </trkpt>
      <trkpt lat="46.17595" lon="5.28235">
        <ele>243.4</ele>
        <time>2026-05-09T10:55:59Z</time>
      </trkpt>
      <trkpt lat="46.17589" lon="5.2824">
        <ele>243.2</ele>
        <time>2026-05-09T10:56:00Z</time>
      </trkpt>
      <trkpt lat="46.17583" lon="5.28243">
        <ele>243.2</ele>
        <time>2026-05-09T10:56:01Z</time>
      </trkpt>
      <trkpt lat="46.17578" lon="5.28246">
        <ele>243.2</ele>
        <time>2026-05-09T10:56:02Z</time>
      </trkpt>
      <trkpt lat="46.17573" lon="5.28249">
        <ele>243.2</ele>
        <time>2026-05-09T10:56:03Z</time>
      </trkpt>
      <trkpt lat="46.17567" lon="5.28252">
        <ele>243.2</ele>
        <time>2026-05-09T10:56:04Z</time>
      </trkpt>
      <trkpt lat="46.17562" lon="5.28255">
        <ele>243.2</ele>
        <time>2026-05-09T10:56:05Z</time>
      </trkpt>
      <trkpt lat="46.17557" lon="5.28258">
        <ele>243.2</ele>
        <time>2026-05-09T10:56:06Z</time>
      </trkpt>
      <trkpt lat="46.17552" lon="5.28261">
        <ele>243.2</ele>
        <time>2026-05-09T10:56:07Z</time>
      </trkpt>
      <trkpt lat="46.17547" lon="5.28264">
        <ele>243</ele>
        <time>2026-05-09T10:56:08Z</time>
      </trkpt>
      <trkpt lat="46.17543" lon="5.28266">
        <ele>243</ele>
        <time>2026-05-09T10:56:09Z</time>
      </trkpt>
      <trkpt lat="46.17539" lon="5.28267">
        <ele>242.6</ele>
        <time>2026-05-09T10:56:10Z</time>
      </trkpt>
      <trkpt lat="46.17535" lon="5.28267">
        <ele>242.6</ele>
        <time>2026-05-09T10:56:11Z</time>
      </trkpt>
      <trkpt lat="46.17533" lon="5.28266">
        <ele>242.4</ele>
        <time>2026-05-09T10:56:12Z</time>
      </trkpt>
      <trkpt lat="46.1753" lon="5.28267">
        <ele>242.4</ele>
        <time>2026-05-09T10:56:13Z</time>
      </trkpt>
      <trkpt lat="46.17528" lon="5.28269">
        <ele>242</ele>
        <time>2026-05-09T10:56:14Z</time>
      </trkpt>
      <trkpt lat="46.17527" lon="5.28271">
        <ele>242</ele>
        <time>2026-05-09T10:56:15Z</time>
      </trkpt>
      <trkpt lat="46.17526" lon="5.28273">
        <ele>242</ele>
        <time>2026-05-09T10:56:16Z</time>
      </trkpt>
      <trkpt lat="46.17527" lon="5.28274">
        <ele>241.8</ele>
        <time>2026-05-09T10:56:17Z</time>
      </trkpt>
      <trkpt lat="46.17527" lon="5.28274">
        <ele>241.8</ele>
        <time>2026-05-09T10:56:18Z</time>
      </trkpt>
      <trkpt lat="46.17527" lon="5.28274">
        <ele>241.8</ele>
        <time>2026-05-09T10:56:19Z</time>
      </trkpt>
      <trkpt lat="46.17526" lon="5.28275">
        <ele>241.8</ele>
        <time>2026-05-09T10:56:50Z</time>
      </trkpt>
      <trkpt lat="46.17525" lon="5.28278">
        <ele>241.6</ele>
        <time>2026-05-09T10:56:51Z</time>
      </trkpt>
      <trkpt lat="46.17524" lon="5.2828">
        <ele>241.6</ele>
        <time>2026-05-09T10:56:52Z</time>
      </trkpt>
      <trkpt lat="46.17522" lon="5.28283">
        <ele>241.4</ele>
        <time>2026-05-09T10:56:53Z</time>
      </trkpt>
      <trkpt lat="46.17519" lon="5.28286">
        <ele>241.4</ele>
        <time>2026-05-09T10:56:54Z</time>
      </trkpt>
      <trkpt lat="46.17516" lon="5.28288">
        <ele>241.4</ele>
        <time>2026-05-09T10:56:55Z</time>
      </trkpt>
      <trkpt lat="46.17513" lon="5.2829">
        <ele>241.4</ele>
        <time>2026-05-09T10:56:56Z</time>
      </trkpt>
      <trkpt lat="46.1751" lon="5.28293">
        <ele>241.4</ele>
        <time>2026-05-09T10:56:57Z</time>
      </trkpt>
      <trkpt lat="46.17507" lon="5.28296">
        <ele>241</ele>
        <time>2026-05-09T10:56:58Z</time>
      </trkpt>
      <trkpt lat="46.17504" lon="5.28299">
        <ele>241</ele>
        <time>2026-05-09T10:56:59Z</time>
      </trkpt>
      <trkpt lat="46.17501" lon="5.28302">
        <ele>241</ele>
        <time>2026-05-09T10:57:00Z</time>
      </trkpt>
      <trkpt lat="46.17496" lon="5.28308">
        <ele>241</ele>
        <time>2026-05-09T10:57:01Z</time>
      </trkpt>
      <trkpt lat="46.17495" lon="5.2831">
        <ele>241</ele>
        <time>2026-05-09T10:57:02Z</time>
      </trkpt>
      <trkpt lat="46.17494" lon="5.28312">
        <ele>240.8</ele>
        <time>2026-05-09T10:57:03Z</time>
      </trkpt>
      <trkpt lat="46.17492" lon="5.28314">
        <ele>240.8</ele>
        <time>2026-05-09T10:57:04Z</time>
      </trkpt>
      <trkpt lat="46.17492" lon="5.28314">
        <ele>240.8</ele>
        <time>2026-05-09T10:57:05Z</time>
      </trkpt>
      <trkpt lat="46.17491" lon="5.28316">
        <ele>240.8</ele>
        <time>2026-05-09T10:57:06Z</time>
      </trkpt>
      <trkpt lat="46.1749" lon="5.28318">
        <ele>240.8</ele>
        <time>2026-05-09T10:57:07Z</time>
      </trkpt>
      <trkpt lat="46.17489" lon="5.2832">
        <ele>240.8</ele>
        <time>2026-05-09T10:57:08Z</time>
      </trkpt>
      <trkpt lat="46.17488" lon="5.28321">
        <ele>240.8</ele>
        <time>2026-05-09T10:57:09Z</time>
      </trkpt>
      <trkpt lat="46.17488" lon="5.28322">
        <ele>240.8</ele>
        <time>2026-05-09T10:57:10Z</time>
      </trkpt>
      <trkpt lat="46.17487" lon="5.28323">
        <ele>240.8</ele>
        <time>2026-05-09T10:57:11Z</time>
      </trkpt>
      <trkpt lat="46.17487" lon="5.28323">
        <ele>240.4</ele>
        <time>2026-05-09T10:57:12Z</time>
      </trkpt>
      <trkpt lat="46.17486" lon="5.28325">
        <ele>240.6</ele>
        <time>2026-05-09T10:57:19Z</time>
      </trkpt>
      <trkpt lat="46.17485" lon="5.28328">
        <ele>240.6</ele>
        <time>2026-05-09T10:57:20Z</time>
      </trkpt>
      <trkpt lat="46.17484" lon="5.28332">
        <ele>240.6</ele>
        <time>2026-05-09T10:57:21Z</time>
      </trkpt>
      <trkpt lat="46.17484" lon="5.28336">
        <ele>240.4</ele>
        <time>2026-05-09T10:57:22Z</time>
      </trkpt>
      <trkpt lat="46.17482" lon="5.28341">
        <ele>240.4</ele>
        <time>2026-05-09T10:57:23Z</time>
      </trkpt>
      <trkpt lat="46.17481" lon="5.28345">
        <ele>240.4</ele>
        <time>2026-05-09T10:57:24Z</time>
      </trkpt>
      <trkpt lat="46.17479" lon="5.2835">
        <ele>240.4</ele>
        <time>2026-05-09T10:57:25Z</time>
      </trkpt>
      <trkpt lat="46.17477" lon="5.28356">
        <ele>240.4</ele>
        <time>2026-05-09T10:57:26Z</time>
      </trkpt>
      <trkpt lat="46.17476" lon="5.28361">
        <ele>240</ele>
        <time>2026-05-09T10:57:27Z</time>
      </trkpt>
      <trkpt lat="46.17476" lon="5.28368">
        <ele>240</ele>
        <time>2026-05-09T10:57:28Z</time>
      </trkpt>
      <trkpt lat="46.17477" lon="5.28374">
        <ele>240</ele>
        <time>2026-05-09T10:57:29Z</time>
      </trkpt>
      <trkpt lat="46.17477" lon="5.2838">
        <ele>240</ele>
        <time>2026-05-09T10:57:30Z</time>
      </trkpt>
      <trkpt lat="46.17477" lon="5.28387">
        <ele>239.8</ele>
        <time>2026-05-09T10:57:31Z</time>
      </trkpt>
      <trkpt lat="46.17478" lon="5.28394">
        <ele>239.8</ele>
        <time>2026-05-09T10:57:32Z</time>
      </trkpt>
      <trkpt lat="46.17478" lon="5.284">
        <ele>239.8</ele>
        <time>2026-05-09T10:57:33Z</time>
      </trkpt>
      <trkpt lat="46.17479" lon="5.28406">
        <ele>239.8</ele>
        <time>2026-05-09T10:57:34Z</time>
      </trkpt>
      <trkpt lat="46.1748" lon="5.28413">
        <ele>239.8</ele>
        <time>2026-05-09T10:57:35Z</time>
      </trkpt>
      <trkpt lat="46.17481" lon="5.28419">
        <ele>239.8</ele>
        <time>2026-05-09T10:57:36Z</time>
      </trkpt>
      <trkpt lat="46.17481" lon="5.28424">
        <ele>239.8</ele>
        <time>2026-05-09T10:57:37Z</time>
      </trkpt>
      <trkpt lat="46.17482" lon="5.2843">
        <ele>239.8</ele>
        <time>2026-05-09T10:57:38Z</time>
      </trkpt>
      <trkpt lat="46.17483" lon="5.28437">
        <ele>239.8</ele>
        <time>2026-05-09T10:57:39Z</time>
      </trkpt>
      <trkpt lat="46.17484" lon="5.28443">
        <ele>240</ele>
        <time>2026-05-09T10:57:40Z</time>
      </trkpt>
      <trkpt lat="46.17484" lon="5.2845">
        <ele>240</ele>
        <time>2026-05-09T10:57:41Z</time>
      </trkpt>
      <trkpt lat="46.17485" lon="5.28456">
        <ele>240</ele>
        <time>2026-05-09T10:57:42Z</time>
      </trkpt>
      <trkpt lat="46.17486" lon="5.28462">
        <ele>240</ele>
        <time>2026-05-09T10:57:43Z</time>
      </trkpt>
      <trkpt lat="46.17487" lon="5.28468">
        <ele>240</ele>
        <time>2026-05-09T10:57:44Z</time>
      </trkpt>
      <trkpt lat="46.17488" lon="5.28475">
        <ele>240</ele>
        <time>2026-05-09T10:57:45Z</time>
      </trkpt>
      <trkpt lat="46.17489" lon="5.2848">
        <ele>240</ele>
        <time>2026-05-09T10:57:46Z</time>
      </trkpt>
      <trkpt lat="46.17489" lon="5.28486">
        <ele>240</ele>
        <time>2026-05-09T10:57:47Z</time>
      </trkpt>
      <trkpt lat="46.1749" lon="5.28493">
        <ele>240</ele>
        <time>2026-05-09T10:57:48Z</time>
      </trkpt>
      <trkpt lat="46.17491" lon="5.285">
        <ele>240</ele>
        <time>2026-05-09T10:57:49Z</time>
      </trkpt>
      <trkpt lat="46.17491" lon="5.28506">
        <ele>240</ele>
        <time>2026-05-09T10:57:50Z</time>
      </trkpt>
      <trkpt lat="46.17492" lon="5.28513">
        <ele>240</ele>
        <time>2026-05-09T10:57:51Z</time>
      </trkpt>
      <trkpt lat="46.17492" lon="5.2852">
        <ele>240</ele>
        <time>2026-05-09T10:57:52Z</time>
      </trkpt>
      <trkpt lat="46.17492" lon="5.28526">
        <ele>240</ele>
        <time>2026-05-09T10:57:53Z</time>
      </trkpt>
      <trkpt lat="46.17493" lon="5.28533">
        <ele>240</ele>
        <time>2026-05-09T10:57:54Z</time>
      </trkpt>
      <trkpt lat="46.17493" lon="5.2854">
        <ele>240</ele>
        <time>2026-05-09T10:57:55Z</time>
      </trkpt>
      <trkpt lat="46.17493" lon="5.28547">
        <ele>240</ele>
        <time>2026-05-09T10:57:56Z</time>
      </trkpt>
      <trkpt lat="46.17494" lon="5.28553">
        <ele>240</ele>
        <time>2026-05-09T10:57:57Z</time>
      </trkpt>
      <trkpt lat="46.17494" lon="5.28559">
        <ele>240</ele>
        <time>2026-05-09T10:57:58Z</time>
      </trkpt>
      <trkpt lat="46.17494" lon="5.28567">
        <ele>240</ele>
        <time>2026-05-09T10:57:59Z</time>
      </trkpt>
      <trkpt lat="46.17494" lon="5.28574">
        <ele>240</ele>
        <time>2026-05-09T10:58:00Z</time>
      </trkpt>
      <trkpt lat="46.17494" lon="5.28581">
        <ele>240.2</ele>
        <time>2026-05-09T10:58:01Z</time>
      </trkpt>
      <trkpt lat="46.17494" lon="5.28587">
        <ele>240.2</ele>
        <time>2026-05-09T10:58:02Z</time>
      </trkpt>
      <trkpt lat="46.17492" lon="5.28594">
        <ele>240.6</ele>
        <time>2026-05-09T10:58:03Z</time>
      </trkpt>
      <trkpt lat="46.17491" lon="5.28601">
        <ele>240.6</ele>
        <time>2026-05-09T10:58:04Z</time>
      </trkpt>
      <trkpt lat="46.17489" lon="5.28608">
        <ele>240.8</ele>
        <time>2026-05-09T10:58:05Z</time>
      </trkpt>
      <trkpt lat="46.17486" lon="5.28615">
        <ele>240.8</ele>
        <time>2026-05-09T10:58:06Z</time>
      </trkpt>
      <trkpt lat="46.17484" lon="5.28621">
        <ele>240.8</ele>
        <time>2026-05-09T10:58:07Z</time>
      </trkpt>
      <trkpt lat="46.17481" lon="5.28628">
        <ele>240.8</ele>
        <time>2026-05-09T10:58:08Z</time>
      </trkpt>
      <trkpt lat="46.17477" lon="5.28634">
        <ele>240.6</ele>
        <time>2026-05-09T10:58:09Z</time>
      </trkpt>
      <trkpt lat="46.17475" lon="5.2864">
        <ele>240.6</ele>
        <time>2026-05-09T10:58:10Z</time>
      </trkpt>
      <trkpt lat="46.17472" lon="5.28644">
        <ele>240.6</ele>
        <time>2026-05-09T10:58:11Z</time>
      </trkpt>
      <trkpt lat="46.17469" lon="5.2865">
        <ele>240.6</ele>
        <time>2026-05-09T10:58:12Z</time>
      </trkpt>
      <trkpt lat="46.17466" lon="5.28655">
        <ele>240.6</ele>
        <time>2026-05-09T10:58:13Z</time>
      </trkpt>
      <trkpt lat="46.17463" lon="5.28661">
        <ele>240.6</ele>
        <time>2026-05-09T10:58:14Z</time>
      </trkpt>
      <trkpt lat="46.1746" lon="5.28667">
        <ele>240.6</ele>
        <time>2026-05-09T10:58:15Z</time>
      </trkpt>
      <trkpt lat="46.17457" lon="5.28673">
        <ele>240.6</ele>
        <time>2026-05-09T10:58:16Z</time>
      </trkpt>
      <trkpt lat="46.17454" lon="5.28678">
        <ele>240.6</ele>
        <time>2026-05-09T10:58:17Z</time>
      </trkpt>
      <trkpt lat="46.17451" lon="5.28684">
        <ele>240.6</ele>
        <time>2026-05-09T10:58:18Z</time>
      </trkpt>
      <trkpt lat="46.17449" lon="5.28689">
        <ele>240.6</ele>
        <time>2026-05-09T10:58:19Z</time>
      </trkpt>
      <trkpt lat="46.17446" lon="5.28695">
        <ele>240.8</ele>
        <time>2026-05-09T10:58:20Z</time>
      </trkpt>
      <trkpt lat="46.17443" lon="5.287">
        <ele>240.8</ele>
        <time>2026-05-09T10:58:21Z</time>
      </trkpt>
      <trkpt lat="46.17439" lon="5.28705">
        <ele>240.8</ele>
        <time>2026-05-09T10:58:22Z</time>
      </trkpt>
      <trkpt lat="46.17434" lon="5.28716">
        <ele>240.8</ele>
        <time>2026-05-09T10:58:23Z</time>
      </trkpt>
      <trkpt lat="46.1743" lon="5.28721">
        <ele>240.8</ele>
        <time>2026-05-09T10:58:24Z</time>
      </trkpt>
      <trkpt lat="46.17427" lon="5.28727">
        <ele>240.8</ele>
        <time>2026-05-09T10:58:25Z</time>
      </trkpt>
      <trkpt lat="46.17424" lon="5.28732">
        <ele>240.8</ele>
        <time>2026-05-09T10:58:26Z</time>
      </trkpt>
      <trkpt lat="46.17421" lon="5.28737">
        <ele>241.2</ele>
        <time>2026-05-09T10:58:27Z</time>
      </trkpt>
      <trkpt lat="46.17418" lon="5.28742">
        <ele>241.2</ele>
        <time>2026-05-09T10:58:28Z</time>
      </trkpt>
      <trkpt lat="46.17415" lon="5.28747">
        <ele>241.2</ele>
        <time>2026-05-09T10:58:29Z</time>
      </trkpt>
      <trkpt lat="46.17411" lon="5.28753">
        <ele>241.2</ele>
        <time>2026-05-09T10:58:30Z</time>
      </trkpt>
      <trkpt lat="46.17408" lon="5.28758">
        <ele>241</ele>
        <time>2026-05-09T10:58:31Z</time>
      </trkpt>
      <trkpt lat="46.17405" lon="5.28763">
        <ele>241</ele>
        <time>2026-05-09T10:58:32Z</time>
      </trkpt>
      <trkpt lat="46.17402" lon="5.28768">
        <ele>241</ele>
        <time>2026-05-09T10:58:33Z</time>
      </trkpt>
      <trkpt lat="46.17398" lon="5.28773">
        <ele>241</ele>
        <time>2026-05-09T10:58:34Z</time>
      </trkpt>
      <trkpt lat="46.17395" lon="5.28778">
        <ele>241</ele>
        <time>2026-05-09T10:58:35Z</time>
      </trkpt>
      <trkpt lat="46.17391" lon="5.28782">
        <ele>241</ele>
        <time>2026-05-09T10:58:36Z</time>
      </trkpt>
      <trkpt lat="46.17388" lon="5.28786">
        <ele>241</ele>
        <time>2026-05-09T10:58:37Z</time>
      </trkpt>
      <trkpt lat="46.17384" lon="5.2879">
        <ele>241.2</ele>
        <time>2026-05-09T10:58:38Z</time>
      </trkpt>
      <trkpt lat="46.1738" lon="5.28794">
        <ele>241.2</ele>
        <time>2026-05-09T10:58:39Z</time>
      </trkpt>
      <trkpt lat="46.17376" lon="5.28798">
        <ele>241.4</ele>
        <time>2026-05-09T10:58:40Z</time>
      </trkpt>
      <trkpt lat="46.17372" lon="5.28802">
        <ele>241.4</ele>
        <time>2026-05-09T10:58:41Z</time>
      </trkpt>
      <trkpt lat="46.17368" lon="5.28806">
        <ele>241.4</ele>
        <time>2026-05-09T10:58:42Z</time>
      </trkpt>
      <trkpt lat="46.17363" lon="5.28809">
        <ele>241.4</ele>
        <time>2026-05-09T10:58:43Z</time>
      </trkpt>
      <trkpt lat="46.17359" lon="5.28812">
        <ele>241.4</ele>
        <time>2026-05-09T10:58:44Z</time>
      </trkpt>
      <trkpt lat="46.17355" lon="5.28817">
        <ele>241.6</ele>
        <time>2026-05-09T10:58:45Z</time>
      </trkpt>
      <trkpt lat="46.17351" lon="5.2882">
        <ele>240</ele>
        <time>2026-05-09T10:58:46Z</time>
      </trkpt>
      <trkpt lat="46.17347" lon="5.28824">
        <ele>240.4</ele>
        <time>2026-05-09T10:58:47Z</time>
      </trkpt>
      <trkpt lat="46.17343" lon="5.28827">
        <ele>240.6</ele>
        <time>2026-05-09T10:58:48Z</time>
      </trkpt>
      <trkpt lat="46.17338" lon="5.2883">
        <ele>240.6</ele>
        <time>2026-05-09T10:58:49Z</time>
      </trkpt>
      <trkpt lat="46.17334" lon="5.28833">
        <ele>240.8</ele>
        <time>2026-05-09T10:58:50Z</time>
      </trkpt>
      <trkpt lat="46.1733" lon="5.28834">
        <ele>241.2</ele>
        <time>2026-05-09T10:58:51Z</time>
      </trkpt>
      <trkpt lat="46.17325" lon="5.28835">
        <ele>241.4</ele>
        <time>2026-05-09T10:58:52Z</time>
      </trkpt>
      <trkpt lat="46.17321" lon="5.28837">
        <ele>241.4</ele>
        <time>2026-05-09T10:58:53Z</time>
      </trkpt>
      <trkpt lat="46.17316" lon="5.28837">
        <ele>241.6</ele>
        <time>2026-05-09T10:58:54Z</time>
      </trkpt>
      <trkpt lat="46.1731" lon="5.28836">
        <ele>241.6</ele>
        <time>2026-05-09T10:58:55Z</time>
      </trkpt>
      <trkpt lat="46.17306" lon="5.28836">
        <ele>241.6</ele>
        <time>2026-05-09T10:58:56Z</time>
      </trkpt>
      <trkpt lat="46.17301" lon="5.28835">
        <ele>241.6</ele>
        <time>2026-05-09T10:58:57Z</time>
      </trkpt>
      <trkpt lat="46.17297" lon="5.28835">
        <ele>241.8</ele>
        <time>2026-05-09T10:58:58Z</time>
      </trkpt>
      <trkpt lat="46.17292" lon="5.28835">
        <ele>241.8</ele>
        <time>2026-05-09T10:58:59Z</time>
      </trkpt>
      <trkpt lat="46.17287" lon="5.28836">
        <ele>241.8</ele>
        <time>2026-05-09T10:59:00Z</time>
      </trkpt>
      <trkpt lat="46.17283" lon="5.28837">
        <ele>241.8</ele>
        <time>2026-05-09T10:59:01Z</time>
      </trkpt>
      <trkpt lat="46.17278" lon="5.28838">
        <ele>242.2</ele>
        <time>2026-05-09T10:59:02Z</time>
      </trkpt>
      <trkpt lat="46.17274" lon="5.2884">
        <ele>242.2</ele>
        <time>2026-05-09T10:59:03Z</time>
      </trkpt>
      <trkpt lat="46.1727" lon="5.28843">
        <ele>242.2</ele>
        <time>2026-05-09T10:59:04Z</time>
      </trkpt>
      <trkpt lat="46.17265" lon="5.28846">
        <ele>242.4</ele>
        <time>2026-05-09T10:59:05Z</time>
      </trkpt>
      <trkpt lat="46.17261" lon="5.28848">
        <ele>242.4</ele>
        <time>2026-05-09T10:59:06Z</time>
      </trkpt>
      <trkpt lat="46.17257" lon="5.28852">
        <ele>242.4</ele>
        <time>2026-05-09T10:59:07Z</time>
      </trkpt>
      <trkpt lat="46.17254" lon="5.28855">
        <ele>242.4</ele>
        <time>2026-05-09T10:59:08Z</time>
      </trkpt>
      <trkpt lat="46.1725" lon="5.2886">
        <ele>242.6</ele>
        <time>2026-05-09T10:59:09Z</time>
      </trkpt>
      <trkpt lat="46.17246" lon="5.28865">
        <ele>242.6</ele>
        <time>2026-05-09T10:59:10Z</time>
      </trkpt>
      <trkpt lat="46.17243" lon="5.2887">
        <ele>242.6</ele>
        <time>2026-05-09T10:59:11Z</time>
      </trkpt>
      <trkpt lat="46.1724" lon="5.28874">
        <ele>242.6</ele>
        <time>2026-05-09T10:59:12Z</time>
      </trkpt>
      <trkpt lat="46.17236" lon="5.28879">
        <ele>242.6</ele>
        <time>2026-05-09T10:59:13Z</time>
      </trkpt>
      <trkpt lat="46.17234" lon="5.28884">
        <ele>242.6</ele>
        <time>2026-05-09T10:59:14Z</time>
      </trkpt>
      <trkpt lat="46.1723" lon="5.28889">
        <ele>242.6</ele>
        <time>2026-05-09T10:59:15Z</time>
      </trkpt>
      <trkpt lat="46.17228" lon="5.28894">
        <ele>243</ele>
        <time>2026-05-09T10:59:16Z</time>
      </trkpt>
      <trkpt lat="46.17224" lon="5.289">
        <ele>243</ele>
        <time>2026-05-09T10:59:17Z</time>
      </trkpt>
      <trkpt lat="46.17221" lon="5.28906">
        <ele>243</ele>
        <time>2026-05-09T10:59:18Z</time>
      </trkpt>
      <trkpt lat="46.17218" lon="5.28911">
        <ele>243</ele>
        <time>2026-05-09T10:59:19Z</time>
      </trkpt>
      <trkpt lat="46.17216" lon="5.28916">
        <ele>243</ele>
        <time>2026-05-09T10:59:20Z</time>
      </trkpt>
      <trkpt lat="46.17213" lon="5.28921">
        <ele>243</ele>
        <time>2026-05-09T10:59:21Z</time>
      </trkpt>
      <trkpt lat="46.17211" lon="5.28927">
        <ele>243</ele>
        <time>2026-05-09T10:59:22Z</time>
      </trkpt>
      <trkpt lat="46.17208" lon="5.28932">
        <ele>243</ele>
        <time>2026-05-09T10:59:23Z</time>
      </trkpt>
      <trkpt lat="46.17206" lon="5.28938">
        <ele>243</ele>
        <time>2026-05-09T10:59:24Z</time>
      </trkpt>
      <trkpt lat="46.17204" lon="5.28943">
        <ele>243</ele>
        <time>2026-05-09T10:59:25Z</time>
      </trkpt>
      <trkpt lat="46.17202" lon="5.28948">
        <ele>243</ele>
        <time>2026-05-09T10:59:26Z</time>
      </trkpt>
      <trkpt lat="46.172" lon="5.28954">
        <ele>243</ele>
        <time>2026-05-09T10:59:27Z</time>
      </trkpt>
      <trkpt lat="46.17197" lon="5.28959">
        <ele>243</ele>
        <time>2026-05-09T10:59:28Z</time>
      </trkpt>
      <trkpt lat="46.17194" lon="5.28964">
        <ele>243.2</ele>
        <time>2026-05-09T10:59:29Z</time>
      </trkpt>
      <trkpt lat="46.17192" lon="5.28969">
        <ele>243.4</ele>
        <time>2026-05-09T10:59:30Z</time>
      </trkpt>
      <trkpt lat="46.17189" lon="5.28973">
        <ele>243.4</ele>
        <time>2026-05-09T10:59:31Z</time>
      </trkpt>
      <trkpt lat="46.17185" lon="5.28977">
        <ele>243.4</ele>
        <time>2026-05-09T10:59:32Z</time>
      </trkpt>
      <trkpt lat="46.17182" lon="5.28981">
        <ele>243.4</ele>
        <time>2026-05-09T10:59:33Z</time>
      </trkpt>
      <trkpt lat="46.17178" lon="5.28986">
        <ele>243.6</ele>
        <time>2026-05-09T10:59:34Z</time>
      </trkpt>
      <trkpt lat="46.17175" lon="5.28989">
        <ele>243.6</ele>
        <time>2026-05-09T10:59:35Z</time>
      </trkpt>
      <trkpt lat="46.17171" lon="5.28992">
        <ele>243.8</ele>
        <time>2026-05-09T10:59:36Z</time>
      </trkpt>
      <trkpt lat="46.17168" lon="5.28996">
        <ele>243.8</ele>
        <time>2026-05-09T10:59:37Z</time>
      </trkpt>
      <trkpt lat="46.17164" lon="5.28999">
        <ele>243.8</ele>
        <time>2026-05-09T10:59:38Z</time>
      </trkpt>
      <trkpt lat="46.17161" lon="5.29003">
        <ele>244.2</ele>
        <time>2026-05-09T10:59:39Z</time>
      </trkpt>
      <trkpt lat="46.17158" lon="5.29006">
        <ele>244.2</ele>
        <time>2026-05-09T10:59:40Z</time>
      </trkpt>
      <trkpt lat="46.17154" lon="5.29009">
        <ele>244.2</ele>
        <time>2026-05-09T10:59:41Z</time>
      </trkpt>
      <trkpt lat="46.1715" lon="5.29012">
        <ele>244.2</ele>
        <time>2026-05-09T10:59:42Z</time>
      </trkpt>
      <trkpt lat="46.17147" lon="5.29016">
        <ele>244.2</ele>
        <time>2026-05-09T10:59:43Z</time>
      </trkpt>
      <trkpt lat="46.17143" lon="5.29018">
        <ele>244.2</ele>
        <time>2026-05-09T10:59:44Z</time>
      </trkpt>
      <trkpt lat="46.1714" lon="5.29021">
        <ele>244.2</ele>
        <time>2026-05-09T10:59:45Z</time>
      </trkpt>
      <trkpt lat="46.17136" lon="5.29024">
        <ele>244.2</ele>
        <time>2026-05-09T10:59:46Z</time>
      </trkpt>
      <trkpt lat="46.17132" lon="5.29027">
        <ele>244.2</ele>
        <time>2026-05-09T10:59:47Z</time>
      </trkpt>
      <trkpt lat="46.17127" lon="5.29029">
        <ele>244.2</ele>
        <time>2026-05-09T10:59:48Z</time>
      </trkpt>
      <trkpt lat="46.17122" lon="5.29032">
        <ele>244.2</ele>
        <time>2026-05-09T10:59:49Z</time>
      </trkpt>
      <trkpt lat="46.17118" lon="5.29034">
        <ele>244.2</ele>
        <time>2026-05-09T10:59:50Z</time>
      </trkpt>
      <trkpt lat="46.17113" lon="5.29036">
        <ele>244.2</ele>
        <time>2026-05-09T10:59:51Z</time>
      </trkpt>
      <trkpt lat="46.17109" lon="5.29038">
        <ele>244.2</ele>
        <time>2026-05-09T10:59:52Z</time>
      </trkpt>
      <trkpt lat="46.17104" lon="5.29041">
        <ele>244.2</ele>
        <time>2026-05-09T10:59:53Z</time>
      </trkpt>
      <trkpt lat="46.17101" lon="5.29044">
        <ele>244.2</ele>
        <time>2026-05-09T10:59:54Z</time>
      </trkpt>
      <trkpt lat="46.17096" lon="5.29047">
        <ele>244.2</ele>
        <time>2026-05-09T10:59:55Z</time>
      </trkpt>
      <trkpt lat="46.17092" lon="5.2905">
        <ele>244.2</ele>
        <time>2026-05-09T10:59:56Z</time>
      </trkpt>
      <trkpt lat="46.17088" lon="5.29054">
        <ele>244.2</ele>
        <time>2026-05-09T10:59:57Z</time>
      </trkpt>
      <trkpt lat="46.17084" lon="5.29058">
        <ele>244.2</ele>
        <time>2026-05-09T10:59:58Z</time>
      </trkpt>
      <trkpt lat="46.1708" lon="5.29063">
        <ele>244.2</ele>
        <time>2026-05-09T10:59:59Z</time>
      </trkpt>
      <trkpt lat="46.17076" lon="5.29066">
        <ele>244.2</ele>
        <time>2026-05-09T11:00:00Z</time>
      </trkpt>
      <trkpt lat="46.17071" lon="5.2907">
        <ele>244.2</ele>
        <time>2026-05-09T11:00:01Z</time>
      </trkpt>
      <trkpt lat="46.17067" lon="5.29074">
        <ele>244.2</ele>
        <time>2026-05-09T11:00:02Z</time>
      </trkpt>
      <trkpt lat="46.17063" lon="5.29078">
        <ele>244.2</ele>
        <time>2026-05-09T11:00:03Z</time>
      </trkpt>
      <trkpt lat="46.17059" lon="5.29082">
        <ele>244.2</ele>
        <time>2026-05-09T11:00:04Z</time>
      </trkpt>
      <trkpt lat="46.17055" lon="5.29086">
        <ele>244.2</ele>
        <time>2026-05-09T11:00:05Z</time>
      </trkpt>
      <trkpt lat="46.17051" lon="5.2909">
        <ele>244.2</ele>
        <time>2026-05-09T11:00:06Z</time>
      </trkpt>
      <trkpt lat="46.17051" lon="5.2909">
        <ele>244.2</ele>
        <time>2026-05-09T11:00:07Z</time>
      </trkpt>
      <trkpt lat="46.17047" lon="5.29094">
        <ele>244.2</ele>
        <time>2026-05-09T11:00:08Z</time>
      </trkpt>
      <trkpt lat="46.17042" lon="5.29098">
        <ele>244.4</ele>
        <time>2026-05-09T11:00:09Z</time>
      </trkpt>
      <trkpt lat="46.17038" lon="5.29102">
        <ele>244.4</ele>
        <time>2026-05-09T11:00:10Z</time>
      </trkpt>
      <trkpt lat="46.17033" lon="5.29106">
        <ele>244.6</ele>
        <time>2026-05-09T11:00:11Z</time>
      </trkpt>
      <trkpt lat="46.1703" lon="5.29109">
        <ele>244.6</ele>
        <time>2026-05-09T11:00:12Z</time>
      </trkpt>
      <trkpt lat="46.17026" lon="5.29113">
        <ele>244.6</ele>
        <time>2026-05-09T11:00:13Z</time>
      </trkpt>
      <trkpt lat="46.17021" lon="5.29116">
        <ele>245</ele>
        <time>2026-05-09T11:00:14Z</time>
      </trkpt>
      <trkpt lat="46.17017" lon="5.2912">
        <ele>245</ele>
        <time>2026-05-09T11:00:15Z</time>
      </trkpt>
      <trkpt lat="46.17013" lon="5.29124">
        <ele>245</ele>
        <time>2026-05-09T11:00:16Z</time>
      </trkpt>
      <trkpt lat="46.1701" lon="5.29128">
        <ele>245</ele>
        <time>2026-05-09T11:00:17Z</time>
      </trkpt>
      <trkpt lat="46.17005" lon="5.29132">
        <ele>245</ele>
        <time>2026-05-09T11:00:18Z</time>
      </trkpt>
      <trkpt lat="46.17001" lon="5.29136">
        <ele>245</ele>
        <time>2026-05-09T11:00:19Z</time>
      </trkpt>
      <trkpt lat="46.16997" lon="5.29139">
        <ele>245</ele>
        <time>2026-05-09T11:00:20Z</time>
      </trkpt>
      <trkpt lat="46.16992" lon="5.29143">
        <ele>245</ele>
        <time>2026-05-09T11:00:21Z</time>
      </trkpt>
      <trkpt lat="46.16988" lon="5.29147">
        <ele>245</ele>
        <time>2026-05-09T11:00:22Z</time>
      </trkpt>
      <trkpt lat="46.16983" lon="5.29151">
        <ele>245</ele>
        <time>2026-05-09T11:00:23Z</time>
      </trkpt>
      <trkpt lat="46.16979" lon="5.29154">
        <ele>245</ele>
        <time>2026-05-09T11:00:24Z</time>
      </trkpt>
      <trkpt lat="46.16975" lon="5.29157">
        <ele>245</ele>
        <time>2026-05-09T11:00:25Z</time>
      </trkpt>
      <trkpt lat="46.1697" lon="5.2916">
        <ele>245</ele>
        <time>2026-05-09T11:00:26Z</time>
      </trkpt>
      <trkpt lat="46.16966" lon="5.29164">
        <ele>245.2</ele>
        <time>2026-05-09T11:00:27Z</time>
      </trkpt>
      <trkpt lat="46.16961" lon="5.29165">
        <ele>245.2</ele>
        <time>2026-05-09T11:00:28Z</time>
      </trkpt>
      <trkpt lat="46.16956" lon="5.29167">
        <ele>245.2</ele>
        <time>2026-05-09T11:00:29Z</time>
      </trkpt>
      <trkpt lat="46.16952" lon="5.29169">
        <ele>245.2</ele>
        <time>2026-05-09T11:00:30Z</time>
      </trkpt>
      <trkpt lat="46.16947" lon="5.2917">
        <ele>245.4</ele>
        <time>2026-05-09T11:00:31Z</time>
      </trkpt>
      <trkpt lat="46.16942" lon="5.2917">
        <ele>245.4</ele>
        <time>2026-05-09T11:00:32Z</time>
      </trkpt>
      <trkpt lat="46.16937" lon="5.2917">
        <ele>245.4</ele>
        <time>2026-05-09T11:00:33Z</time>
      </trkpt>
      <trkpt lat="46.16933" lon="5.2917">
        <ele>245.6</ele>
        <time>2026-05-09T11:00:34Z</time>
      </trkpt>
      <trkpt lat="46.16929" lon="5.29169">
        <ele>245.6</ele>
        <time>2026-05-09T11:00:35Z</time>
      </trkpt>
      <trkpt lat="46.16924" lon="5.29169">
        <ele>246</ele>
        <time>2026-05-09T11:00:36Z</time>
      </trkpt>
      <trkpt lat="46.16919" lon="5.29169">
        <ele>246</ele>
        <time>2026-05-09T11:00:37Z</time>
      </trkpt>
      <trkpt lat="46.16915" lon="5.29168">
        <ele>246</ele>
        <time>2026-05-09T11:00:38Z</time>
      </trkpt>
      <trkpt lat="46.1691" lon="5.29168">
        <ele>246</ele>
        <time>2026-05-09T11:00:39Z</time>
      </trkpt>
      <trkpt lat="46.16906" lon="5.29168">
        <ele>246.2</ele>
        <time>2026-05-09T11:00:40Z</time>
      </trkpt>
      <trkpt lat="46.16901" lon="5.29168">
        <ele>246.2</ele>
        <time>2026-05-09T11:00:41Z</time>
      </trkpt>
      <trkpt lat="46.16897" lon="5.29168">
        <ele>246.2</ele>
        <time>2026-05-09T11:00:42Z</time>
      </trkpt>
      <trkpt lat="46.16892" lon="5.29168">
        <ele>246.2</ele>
        <time>2026-05-09T11:00:43Z</time>
      </trkpt>
      <trkpt lat="46.16887" lon="5.29168">
        <ele>246.4</ele>
        <time>2026-05-09T11:00:44Z</time>
      </trkpt>
      <trkpt lat="46.16883" lon="5.29168">
        <ele>246.4</ele>
        <time>2026-05-09T11:00:45Z</time>
      </trkpt>
      <trkpt lat="46.16879" lon="5.29169">
        <ele>246.4</ele>
        <time>2026-05-09T11:00:46Z</time>
      </trkpt>
      <trkpt lat="46.16874" lon="5.2917">
        <ele>246.4</ele>
        <time>2026-05-09T11:00:47Z</time>
      </trkpt>
      <trkpt lat="46.16869" lon="5.29171">
        <ele>246.4</ele>
        <time>2026-05-09T11:00:48Z</time>
      </trkpt>
      <trkpt lat="46.16865" lon="5.29173">
        <ele>246.4</ele>
        <time>2026-05-09T11:00:49Z</time>
      </trkpt>
      <trkpt lat="46.16861" lon="5.29175">
        <ele>246.4</ele>
        <time>2026-05-09T11:00:50Z</time>
      </trkpt>
      <trkpt lat="46.16857" lon="5.29178">
        <ele>246.4</ele>
        <time>2026-05-09T11:00:51Z</time>
      </trkpt>
      <trkpt lat="46.16853" lon="5.2918">
        <ele>246.6</ele>
        <time>2026-05-09T11:00:52Z</time>
      </trkpt>
      <trkpt lat="46.16849" lon="5.29183">
        <ele>246.6</ele>
        <time>2026-05-09T11:00:53Z</time>
      </trkpt>
      <trkpt lat="46.16844" lon="5.29186">
        <ele>246.6</ele>
        <time>2026-05-09T11:00:54Z</time>
      </trkpt>
      <trkpt lat="46.1684" lon="5.29189">
        <ele>246.6</ele>
        <time>2026-05-09T11:00:55Z</time>
      </trkpt>
      <trkpt lat="46.16836" lon="5.29193">
        <ele>246.6</ele>
        <time>2026-05-09T11:00:56Z</time>
      </trkpt>
      <trkpt lat="46.16832" lon="5.29196">
        <ele>246.6</ele>
        <time>2026-05-09T11:00:57Z</time>
      </trkpt>
      <trkpt lat="46.16827" lon="5.29199">
        <ele>246.6</ele>
        <time>2026-05-09T11:00:58Z</time>
      </trkpt>
      <trkpt lat="46.16823" lon="5.29202">
        <ele>246.6</ele>
        <time>2026-05-09T11:00:59Z</time>
      </trkpt>
      <trkpt lat="46.16819" lon="5.29204">
        <ele>246.6</ele>
        <time>2026-05-09T11:01:00Z</time>
      </trkpt>
      <trkpt lat="46.16814" lon="5.29208">
        <ele>246.6</ele>
        <time>2026-05-09T11:01:01Z</time>
      </trkpt>
      <trkpt lat="46.1681" lon="5.29212">
        <ele>246.6</ele>
        <time>2026-05-09T11:01:02Z</time>
      </trkpt>
      <trkpt lat="46.16806" lon="5.29215">
        <ele>246.6</ele>
        <time>2026-05-09T11:01:03Z</time>
      </trkpt>
      <trkpt lat="46.16802" lon="5.29218">
        <ele>246.6</ele>
        <time>2026-05-09T11:01:04Z</time>
      </trkpt>
      <trkpt lat="46.16798" lon="5.29221">
        <ele>246.6</ele>
        <time>2026-05-09T11:01:05Z</time>
      </trkpt>
      <trkpt lat="46.16794" lon="5.29224">
        <ele>246.6</ele>
        <time>2026-05-09T11:01:06Z</time>
      </trkpt>
      <trkpt lat="46.1679" lon="5.29227">
        <ele>246.6</ele>
        <time>2026-05-09T11:01:07Z</time>
      </trkpt>
      <trkpt lat="46.16785" lon="5.2923">
        <ele>246.6</ele>
        <time>2026-05-09T11:01:08Z</time>
      </trkpt>
      <trkpt lat="46.16781" lon="5.29234">
        <ele>246.4</ele>
        <time>2026-05-09T11:01:09Z</time>
      </trkpt>
      <trkpt lat="46.16776" lon="5.29238">
        <ele>246.4</ele>
        <time>2026-05-09T11:01:10Z</time>
      </trkpt>
      <trkpt lat="46.16771" lon="5.29243">
        <ele>246.2</ele>
        <time>2026-05-09T11:01:11Z</time>
      </trkpt>
      <trkpt lat="46.16767" lon="5.29248">
        <ele>246.2</ele>
        <time>2026-05-09T11:01:12Z</time>
      </trkpt>
      <trkpt lat="46.16764" lon="5.29254">
        <ele>246.2</ele>
        <time>2026-05-09T11:01:13Z</time>
      </trkpt>
      <trkpt lat="46.1676" lon="5.29258">
        <ele>246.2</ele>
        <time>2026-05-09T11:01:14Z</time>
      </trkpt>
      <trkpt lat="46.16757" lon="5.29264">
        <ele>246.2</ele>
        <time>2026-05-09T11:01:15Z</time>
      </trkpt>
      <trkpt lat="46.16753" lon="5.2927">
        <ele>246.2</ele>
        <time>2026-05-09T11:01:16Z</time>
      </trkpt>
      <trkpt lat="46.1675" lon="5.29275">
        <ele>246.2</ele>
        <time>2026-05-09T11:01:17Z</time>
      </trkpt>
      <trkpt lat="46.16747" lon="5.29281">
        <ele>246.2</ele>
        <time>2026-05-09T11:01:18Z</time>
      </trkpt>
      <trkpt lat="46.16743" lon="5.29287">
        <ele>246.2</ele>
        <time>2026-05-09T11:01:19Z</time>
      </trkpt>
      <trkpt lat="46.1674" lon="5.29293">
        <ele>246.4</ele>
        <time>2026-05-09T11:01:20Z</time>
      </trkpt>
      <trkpt lat="46.16737" lon="5.29301">
        <ele>246.4</ele>
        <time>2026-05-09T11:01:21Z</time>
      </trkpt>
      <trkpt lat="46.16734" lon="5.29308">
        <ele>246.4</ele>
        <time>2026-05-09T11:01:22Z</time>
      </trkpt>
      <trkpt lat="46.16731" lon="5.29315">
        <ele>246.4</ele>
        <time>2026-05-09T11:01:23Z</time>
      </trkpt>
      <trkpt lat="46.16729" lon="5.29322">
        <ele>246.4</ele>
        <time>2026-05-09T11:01:24Z</time>
      </trkpt>
      <trkpt lat="46.16726" lon="5.29328">
        <ele>246.4</ele>
        <time>2026-05-09T11:01:25Z</time>
      </trkpt>
      <trkpt lat="46.16724" lon="5.29335">
        <ele>246.4</ele>
        <time>2026-05-09T11:01:26Z</time>
      </trkpt>
      <trkpt lat="46.16721" lon="5.29343">
        <ele>246.4</ele>
        <time>2026-05-09T11:01:27Z</time>
      </trkpt>
      <trkpt lat="46.16719" lon="5.2935">
        <ele>246.4</ele>
        <time>2026-05-09T11:01:28Z</time>
      </trkpt>
      <trkpt lat="46.16716" lon="5.29357">
        <ele>246.6</ele>
        <time>2026-05-09T11:01:29Z</time>
      </trkpt>
      <trkpt lat="46.16714" lon="5.29365">
        <ele>246.6</ele>
        <time>2026-05-09T11:01:30Z</time>
      </trkpt>
      <trkpt lat="46.16712" lon="5.29371">
        <ele>246.6</ele>
        <time>2026-05-09T11:01:31Z</time>
      </trkpt>
      <trkpt lat="46.1671" lon="5.29377">
        <ele>246.6</ele>
        <time>2026-05-09T11:01:32Z</time>
      </trkpt>
      <trkpt lat="46.16706" lon="5.29391">
        <ele>246.6</ele>
        <time>2026-05-09T11:01:33Z</time>
      </trkpt>
      <trkpt lat="46.16704" lon="5.29398">
        <ele>246.6</ele>
        <time>2026-05-09T11:01:34Z</time>
      </trkpt>
      <trkpt lat="46.16702" lon="5.29405">
        <ele>246.6</ele>
        <time>2026-05-09T11:01:35Z</time>
      </trkpt>
      <trkpt lat="46.16701" lon="5.29412">
        <ele>246.6</ele>
        <time>2026-05-09T11:01:36Z</time>
      </trkpt>
      <trkpt lat="46.16699" lon="5.2942">
        <ele>246.6</ele>
        <time>2026-05-09T11:01:37Z</time>
      </trkpt>
      <trkpt lat="46.16697" lon="5.29427">
        <ele>246.6</ele>
        <time>2026-05-09T11:01:38Z</time>
      </trkpt>
      <trkpt lat="46.16695" lon="5.29434">
        <ele>246.6</ele>
        <time>2026-05-09T11:01:39Z</time>
      </trkpt>
      <trkpt lat="46.16693" lon="5.29441">
        <ele>246.6</ele>
        <time>2026-05-09T11:01:40Z</time>
      </trkpt>
      <trkpt lat="46.16691" lon="5.29448">
        <ele>246.4</ele>
        <time>2026-05-09T11:01:41Z</time>
      </trkpt>
      <trkpt lat="46.16689" lon="5.29454">
        <ele>246.4</ele>
        <time>2026-05-09T11:01:42Z</time>
      </trkpt>
      <trkpt lat="46.16686" lon="5.29461">
        <ele>246.4</ele>
        <time>2026-05-09T11:01:43Z</time>
      </trkpt>
      <trkpt lat="46.16685" lon="5.29467">
        <ele>246.4</ele>
        <time>2026-05-09T11:01:44Z</time>
      </trkpt>
      <trkpt lat="46.16682" lon="5.29474">
        <ele>246.4</ele>
        <time>2026-05-09T11:01:45Z</time>
      </trkpt>
      <trkpt lat="46.16681" lon="5.29481">
        <ele>246.4</ele>
        <time>2026-05-09T11:01:46Z</time>
      </trkpt>
      <trkpt lat="46.16678" lon="5.29487">
        <ele>246.4</ele>
        <time>2026-05-09T11:01:47Z</time>
      </trkpt>
      <trkpt lat="46.16676" lon="5.29494">
        <ele>246.4</ele>
        <time>2026-05-09T11:01:48Z</time>
      </trkpt>
      <trkpt lat="46.16674" lon="5.29501">
        <ele>246.4</ele>
        <time>2026-05-09T11:01:49Z</time>
      </trkpt>
      <trkpt lat="46.16671" lon="5.29507">
        <ele>246.4</ele>
        <time>2026-05-09T11:01:50Z</time>
      </trkpt>
      <trkpt lat="46.16669" lon="5.29514">
        <ele>246.4</ele>
        <time>2026-05-09T11:01:51Z</time>
      </trkpt>
      <trkpt lat="46.16666" lon="5.2952">
        <ele>246.4</ele>
        <time>2026-05-09T11:01:52Z</time>
      </trkpt>
      <trkpt lat="46.16663" lon="5.29526">
        <ele>246.4</ele>
        <time>2026-05-09T11:01:53Z</time>
      </trkpt>
      <trkpt lat="46.1666" lon="5.29533">
        <ele>246.4</ele>
        <time>2026-05-09T11:01:54Z</time>
      </trkpt>
      <trkpt lat="46.16657" lon="5.29539">
        <ele>246.4</ele>
        <time>2026-05-09T11:01:55Z</time>
      </trkpt>
      <trkpt lat="46.16654" lon="5.29545">
        <ele>246.4</ele>
        <time>2026-05-09T11:01:56Z</time>
      </trkpt>
      <trkpt lat="46.1665" lon="5.29552">
        <ele>246.4</ele>
        <time>2026-05-09T11:01:57Z</time>
      </trkpt>
      <trkpt lat="46.16647" lon="5.29558">
        <ele>246.4</ele>
        <time>2026-05-09T11:01:58Z</time>
      </trkpt>
      <trkpt lat="46.16643" lon="5.29563">
        <ele>246.4</ele>
        <time>2026-05-09T11:01:59Z</time>
      </trkpt>
      <trkpt lat="46.16639" lon="5.29569">
        <ele>246.4</ele>
        <time>2026-05-09T11:02:00Z</time>
      </trkpt>
      <trkpt lat="46.16634" lon="5.29575">
        <ele>246.4</ele>
        <time>2026-05-09T11:02:01Z</time>
      </trkpt>
      <trkpt lat="46.1663" lon="5.2958">
        <ele>246</ele>
        <time>2026-05-09T11:02:02Z</time>
      </trkpt>
      <trkpt lat="46.16626" lon="5.29585">
        <ele>246</ele>
        <time>2026-05-09T11:02:03Z</time>
      </trkpt>
      <trkpt lat="46.16621" lon="5.29589">
        <ele>245.6</ele>
        <time>2026-05-09T11:02:04Z</time>
      </trkpt>
      <trkpt lat="46.16617" lon="5.29594">
        <ele>245.6</ele>
        <time>2026-05-09T11:02:05Z</time>
      </trkpt>
      <trkpt lat="46.16613" lon="5.29598">
        <ele>245.6</ele>
        <time>2026-05-09T11:02:06Z</time>
      </trkpt>
      <trkpt lat="46.16608" lon="5.29602">
        <ele>245.6</ele>
        <time>2026-05-09T11:02:07Z</time>
      </trkpt>
      <trkpt lat="46.16603" lon="5.29606">
        <ele>245.6</ele>
        <time>2026-05-09T11:02:08Z</time>
      </trkpt>
      <trkpt lat="46.166" lon="5.29611">
        <ele>245.6</ele>
        <time>2026-05-09T11:02:09Z</time>
      </trkpt>
      <trkpt lat="46.16596" lon="5.29615">
        <ele>245.6</ele>
        <time>2026-05-09T11:02:10Z</time>
      </trkpt>
      <trkpt lat="46.16591" lon="5.29619">
        <ele>245.6</ele>
        <time>2026-05-09T11:02:11Z</time>
      </trkpt>
      <trkpt lat="46.16587" lon="5.29624">
        <ele>245.6</ele>
        <time>2026-05-09T11:02:12Z</time>
      </trkpt>
      <trkpt lat="46.16583" lon="5.29628">
        <ele>245.6</ele>
        <time>2026-05-09T11:02:13Z</time>
      </trkpt>
      <trkpt lat="46.16578" lon="5.29632">
        <ele>245.6</ele>
        <time>2026-05-09T11:02:14Z</time>
      </trkpt>
      <trkpt lat="46.16573" lon="5.29637">
        <ele>245.6</ele>
        <time>2026-05-09T11:02:15Z</time>
      </trkpt>
      <trkpt lat="46.16569" lon="5.29641">
        <ele>245.6</ele>
        <time>2026-05-09T11:02:16Z</time>
      </trkpt>
      <trkpt lat="46.16564" lon="5.29645">
        <ele>245.6</ele>
        <time>2026-05-09T11:02:17Z</time>
      </trkpt>
      <trkpt lat="46.16559" lon="5.29648">
        <ele>245.6</ele>
        <time>2026-05-09T11:02:18Z</time>
      </trkpt>
      <trkpt lat="46.16555" lon="5.29652">
        <ele>245.6</ele>
        <time>2026-05-09T11:02:19Z</time>
      </trkpt>
      <trkpt lat="46.16551" lon="5.29656">
        <ele>245.6</ele>
        <time>2026-05-09T11:02:20Z</time>
      </trkpt>
      <trkpt lat="46.16546" lon="5.2966">
        <ele>245.6</ele>
        <time>2026-05-09T11:02:21Z</time>
      </trkpt>
      <trkpt lat="46.16541" lon="5.29664">
        <ele>245.6</ele>
        <time>2026-05-09T11:02:22Z</time>
      </trkpt>
      <trkpt lat="46.16536" lon="5.29668">
        <ele>245.6</ele>
        <time>2026-05-09T11:02:23Z</time>
      </trkpt>
      <trkpt lat="46.16532" lon="5.29671">
        <ele>245.6</ele>
        <time>2026-05-09T11:02:24Z</time>
      </trkpt>
      <trkpt lat="46.16527" lon="5.29675">
        <ele>245.6</ele>
        <time>2026-05-09T11:02:25Z</time>
      </trkpt>
      <trkpt lat="46.16522" lon="5.2968">
        <ele>245.6</ele>
        <time>2026-05-09T11:02:26Z</time>
      </trkpt>
      <trkpt lat="46.16518" lon="5.29683">
        <ele>245.6</ele>
        <time>2026-05-09T11:02:27Z</time>
      </trkpt>
      <trkpt lat="46.16513" lon="5.29687">
        <ele>245.6</ele>
        <time>2026-05-09T11:02:28Z</time>
      </trkpt>
      <trkpt lat="46.16508" lon="5.2969">
        <ele>245.6</ele>
        <time>2026-05-09T11:02:29Z</time>
      </trkpt>
      <trkpt lat="46.16504" lon="5.29693">
        <ele>245.8</ele>
        <time>2026-05-09T11:02:30Z</time>
      </trkpt>
      <trkpt lat="46.16499" lon="5.29696">
        <ele>245.8</ele>
        <time>2026-05-09T11:02:31Z</time>
      </trkpt>
      <trkpt lat="46.16495" lon="5.29698">
        <ele>245.8</ele>
        <time>2026-05-09T11:02:32Z</time>
      </trkpt>
      <trkpt lat="46.1649" lon="5.297">
        <ele>246.2</ele>
        <time>2026-05-09T11:02:33Z</time>
      </trkpt>
      <trkpt lat="46.16487" lon="5.29702">
        <ele>246.2</ele>
        <time>2026-05-09T11:02:34Z</time>
      </trkpt>
      <trkpt lat="46.16483" lon="5.29704">
        <ele>246.4</ele>
        <time>2026-05-09T11:02:35Z</time>
      </trkpt>
      <trkpt lat="46.16479" lon="5.29705">
        <ele>246.4</ele>
        <time>2026-05-09T11:02:36Z</time>
      </trkpt>
      <trkpt lat="46.16475" lon="5.29706">
        <ele>246.8</ele>
        <time>2026-05-09T11:02:37Z</time>
      </trkpt>
      <trkpt lat="46.16471" lon="5.29707">
        <ele>246.8</ele>
        <time>2026-05-09T11:02:38Z</time>
      </trkpt>
      <trkpt lat="46.16468" lon="5.29708">
        <ele>247</ele>
        <time>2026-05-09T11:02:39Z</time>
      </trkpt>
      <trkpt lat="46.16464" lon="5.29709">
        <ele>247</ele>
        <time>2026-05-09T11:02:40Z</time>
      </trkpt>
      <trkpt lat="46.16461" lon="5.2971">
        <ele>247.4</ele>
        <time>2026-05-09T11:02:41Z</time>
      </trkpt>
      <trkpt lat="46.16457" lon="5.29711">
        <ele>247.6</ele>
        <time>2026-05-09T11:02:42Z</time>
      </trkpt>
      <trkpt lat="46.16454" lon="5.29712">
        <ele>247.6</ele>
        <time>2026-05-09T11:02:43Z</time>
      </trkpt>
      <trkpt lat="46.16451" lon="5.29714">
        <ele>248</ele>
        <time>2026-05-09T11:02:44Z</time>
      </trkpt>
      <trkpt lat="46.16448" lon="5.29715">
        <ele>248</ele>
        <time>2026-05-09T11:02:45Z</time>
      </trkpt>
      <trkpt lat="46.16446" lon="5.29715">
        <ele>248.4</ele>
        <time>2026-05-09T11:02:46Z</time>
      </trkpt>
      <trkpt lat="46.16442" lon="5.29716">
        <ele>248.4</ele>
        <time>2026-05-09T11:02:47Z</time>
      </trkpt>
      <trkpt lat="46.16439" lon="5.29717">
        <ele>248.8</ele>
        <time>2026-05-09T11:02:48Z</time>
      </trkpt>
      <trkpt lat="46.16436" lon="5.29717">
        <ele>248.8</ele>
        <time>2026-05-09T11:02:49Z</time>
      </trkpt>
      <trkpt lat="46.16433" lon="5.29717">
        <ele>249.2</ele>
        <time>2026-05-09T11:02:50Z</time>
      </trkpt>
      <trkpt lat="46.16431" lon="5.29718">
        <ele>249.6</ele>
        <time>2026-05-09T11:02:51Z</time>
      </trkpt>
      <trkpt lat="46.16427" lon="5.29718">
        <ele>249.8</ele>
        <time>2026-05-09T11:02:52Z</time>
      </trkpt>
      <trkpt lat="46.16424" lon="5.29719">
        <ele>249.8</ele>
        <time>2026-05-09T11:02:53Z</time>
      </trkpt>
      <trkpt lat="46.16421" lon="5.2972">
        <ele>250.2</ele>
        <time>2026-05-09T11:02:54Z</time>
      </trkpt>
      <trkpt lat="46.16418" lon="5.2972">
        <ele>250.2</ele>
        <time>2026-05-09T11:02:55Z</time>
      </trkpt>
      <trkpt lat="46.16415" lon="5.29722">
        <ele>250.6</ele>
        <time>2026-05-09T11:02:56Z</time>
      </trkpt>
      <trkpt lat="46.16411" lon="5.29723">
        <ele>250.6</ele>
        <time>2026-05-09T11:02:57Z</time>
      </trkpt>
      <trkpt lat="46.16408" lon="5.29725">
        <ele>251</ele>
        <time>2026-05-09T11:02:58Z</time>
      </trkpt>
      <trkpt lat="46.16406" lon="5.29727">
        <ele>251.2</ele>
        <time>2026-05-09T11:02:59Z</time>
      </trkpt>
      <trkpt lat="46.16403" lon="5.29729">
        <ele>251.2</ele>
        <time>2026-05-09T11:03:00Z</time>
      </trkpt>
      <trkpt lat="46.16401" lon="5.29731">
        <ele>251.4</ele>
        <time>2026-05-09T11:03:01Z</time>
      </trkpt>
      <trkpt lat="46.16398" lon="5.29733">
        <ele>251.4</ele>
        <time>2026-05-09T11:03:02Z</time>
      </trkpt>
      <trkpt lat="46.16396" lon="5.29735">
        <ele>251.8</ele>
        <time>2026-05-09T11:03:03Z</time>
      </trkpt>
      <trkpt lat="46.16393" lon="5.29737">
        <ele>251.8</ele>
        <time>2026-05-09T11:03:04Z</time>
      </trkpt>
      <trkpt lat="46.1639" lon="5.29739">
        <ele>252</ele>
        <time>2026-05-09T11:03:05Z</time>
      </trkpt>
      <trkpt lat="46.16387" lon="5.29741">
        <ele>251.6</ele>
        <time>2026-05-09T11:03:06Z</time>
      </trkpt>
      <trkpt lat="46.16384" lon="5.29743">
        <ele>251.8</ele>
        <time>2026-05-09T11:03:07Z</time>
      </trkpt>
      <trkpt lat="46.16381" lon="5.29745">
        <ele>251.8</ele>
        <time>2026-05-09T11:03:08Z</time>
      </trkpt>
      <trkpt lat="46.16379" lon="5.29747">
        <ele>251.8</ele>
        <time>2026-05-09T11:03:09Z</time>
      </trkpt>
      <trkpt lat="46.16377" lon="5.29749">
        <ele>252.2</ele>
        <time>2026-05-09T11:03:10Z</time>
      </trkpt>
      <trkpt lat="46.16374" lon="5.29752">
        <ele>252.2</ele>
        <time>2026-05-09T11:03:11Z</time>
      </trkpt>
      <trkpt lat="46.16372" lon="5.29755">
        <ele>252.2</ele>
        <time>2026-05-09T11:03:12Z</time>
      </trkpt>
      <trkpt lat="46.1637" lon="5.29758">
        <ele>252.4</ele>
        <time>2026-05-09T11:03:13Z</time>
      </trkpt>
      <trkpt lat="46.16368" lon="5.29762">
        <ele>252.4</ele>
        <time>2026-05-09T11:03:14Z</time>
      </trkpt>
      <trkpt lat="46.16366" lon="5.29766">
        <ele>252.6</ele>
        <time>2026-05-09T11:03:15Z</time>
      </trkpt>
      <trkpt lat="46.16364" lon="5.2977">
        <ele>252.6</ele>
        <time>2026-05-09T11:03:16Z</time>
      </trkpt>
      <trkpt lat="46.16361" lon="5.29774">
        <ele>253</ele>
        <time>2026-05-09T11:03:17Z</time>
      </trkpt>
      <trkpt lat="46.1636" lon="5.29778">
        <ele>253.2</ele>
        <time>2026-05-09T11:03:18Z</time>
      </trkpt>
      <trkpt lat="46.16358" lon="5.29783">
        <ele>253.2</ele>
        <time>2026-05-09T11:03:19Z</time>
      </trkpt>
      <trkpt lat="46.16357" lon="5.29787">
        <ele>253.2</ele>
        <time>2026-05-09T11:03:20Z</time>
      </trkpt>
      <trkpt lat="46.16355" lon="5.29792">
        <ele>253.2</ele>
        <time>2026-05-09T11:03:21Z</time>
      </trkpt>
      <trkpt lat="46.16353" lon="5.29797">
        <ele>253.2</ele>
        <time>2026-05-09T11:03:22Z</time>
      </trkpt>
      <trkpt lat="46.16351" lon="5.29801">
        <ele>253.2</ele>
        <time>2026-05-09T11:03:23Z</time>
      </trkpt>
      <trkpt lat="46.1635" lon="5.29805">
        <ele>253.2</ele>
        <time>2026-05-09T11:03:24Z</time>
      </trkpt>
      <trkpt lat="46.16348" lon="5.29809">
        <ele>253.2</ele>
        <time>2026-05-09T11:03:25Z</time>
      </trkpt>
      <trkpt lat="46.16346" lon="5.29814">
        <ele>253.2</ele>
        <time>2026-05-09T11:03:26Z</time>
      </trkpt>
      <trkpt lat="46.16344" lon="5.29818">
        <ele>253.2</ele>
        <time>2026-05-09T11:03:27Z</time>
      </trkpt>
      <trkpt lat="46.16342" lon="5.29823">
        <ele>253.2</ele>
        <time>2026-05-09T11:03:28Z</time>
      </trkpt>
      <trkpt lat="46.1634" lon="5.29828">
        <ele>253.2</ele>
        <time>2026-05-09T11:03:29Z</time>
      </trkpt>
      <trkpt lat="46.16338" lon="5.29833">
        <ele>253.2</ele>
        <time>2026-05-09T11:03:30Z</time>
      </trkpt>
      <trkpt lat="46.16336" lon="5.29837">
        <ele>253.6</ele>
        <time>2026-05-09T11:03:31Z</time>
      </trkpt>
      <trkpt lat="46.16334" lon="5.29842">
        <ele>253.6</ele>
        <time>2026-05-09T11:03:32Z</time>
      </trkpt>
      <trkpt lat="46.16332" lon="5.29847">
        <ele>253.6</ele>
        <time>2026-05-09T11:03:33Z</time>
      </trkpt>
      <trkpt lat="46.16329" lon="5.29852">
        <ele>253.6</ele>
        <time>2026-05-09T11:03:34Z</time>
      </trkpt>
      <trkpt lat="46.16327" lon="5.29858">
        <ele>253.6</ele>
        <time>2026-05-09T11:03:35Z</time>
      </trkpt>
      <trkpt lat="46.16325" lon="5.29863">
        <ele>253.6</ele>
        <time>2026-05-09T11:03:36Z</time>
      </trkpt>
      <trkpt lat="46.16323" lon="5.29869">
        <ele>253.6</ele>
        <time>2026-05-09T11:03:37Z</time>
      </trkpt>
      <trkpt lat="46.1632" lon="5.29874">
        <ele>253.6</ele>
        <time>2026-05-09T11:03:38Z</time>
      </trkpt>
      <trkpt lat="46.16318" lon="5.2988">
        <ele>253.2</ele>
        <time>2026-05-09T11:03:39Z</time>
      </trkpt>
      <trkpt lat="46.16316" lon="5.29887">
        <ele>253.2</ele>
        <time>2026-05-09T11:03:40Z</time>
      </trkpt>
      <trkpt lat="46.16313" lon="5.29894">
        <ele>253</ele>
        <time>2026-05-09T11:03:41Z</time>
      </trkpt>
      <trkpt lat="46.1631" lon="5.29901">
        <ele>253</ele>
        <time>2026-05-09T11:03:42Z</time>
      </trkpt>
      <trkpt lat="46.16308" lon="5.29909">
        <ele>253</ele>
        <time>2026-05-09T11:03:43Z</time>
      </trkpt>
      <trkpt lat="46.16306" lon="5.29917">
        <ele>252.6</ele>
        <time>2026-05-09T11:03:44Z</time>
      </trkpt>
      <trkpt lat="46.16304" lon="5.29925">
        <ele>252.4</ele>
        <time>2026-05-09T11:03:45Z</time>
      </trkpt>
      <trkpt lat="46.16302" lon="5.29933">
        <ele>252.4</ele>
        <time>2026-05-09T11:03:46Z</time>
      </trkpt>
      <trkpt lat="46.16301" lon="5.29942">
        <ele>252</ele>
        <time>2026-05-09T11:03:47Z</time>
      </trkpt>
      <trkpt lat="46.16301" lon="5.29951">
        <ele>252</ele>
        <time>2026-05-09T11:03:48Z</time>
      </trkpt>
      <trkpt lat="46.163" lon="5.29959">
        <ele>252</ele>
        <time>2026-05-09T11:03:49Z</time>
      </trkpt>
      <trkpt lat="46.163" lon="5.29968">
        <ele>251.8</ele>
        <time>2026-05-09T11:03:50Z</time>
      </trkpt>
      <trkpt lat="46.163" lon="5.29975">
        <ele>251.8</ele>
        <time>2026-05-09T11:03:51Z</time>
      </trkpt>
      <trkpt lat="46.163" lon="5.29983">
        <ele>251.8</ele>
        <time>2026-05-09T11:03:52Z</time>
      </trkpt>
      <trkpt lat="46.163" lon="5.29992">
        <ele>251.8</ele>
        <time>2026-05-09T11:03:53Z</time>
      </trkpt>
      <trkpt lat="46.16301" lon="5.29999">
        <ele>251.6</ele>
        <time>2026-05-09T11:03:54Z</time>
      </trkpt>
      <trkpt lat="46.16302" lon="5.30007">
        <ele>251.6</ele>
        <time>2026-05-09T11:03:55Z</time>
      </trkpt>
      <trkpt lat="46.16302" lon="5.30015">
        <ele>251.6</ele>
        <time>2026-05-09T11:03:56Z</time>
      </trkpt>
      <trkpt lat="46.16302" lon="5.30022">
        <ele>251.6</ele>
        <time>2026-05-09T11:03:57Z</time>
      </trkpt>
      <trkpt lat="46.16302" lon="5.3003">
        <ele>251.6</ele>
        <time>2026-05-09T11:03:58Z</time>
      </trkpt>
      <trkpt lat="46.16302" lon="5.30037">
        <ele>251.8</ele>
        <time>2026-05-09T11:03:59Z</time>
      </trkpt>
      <trkpt lat="46.16302" lon="5.30043">
        <ele>251.8</ele>
        <time>2026-05-09T11:04:00Z</time>
      </trkpt>
      <trkpt lat="46.16301" lon="5.3005">
        <ele>251.8</ele>
        <time>2026-05-09T11:04:01Z</time>
      </trkpt>
      <trkpt lat="46.16302" lon="5.30056">
        <ele>252.2</ele>
        <time>2026-05-09T11:04:02Z</time>
      </trkpt>
      <trkpt lat="46.16301" lon="5.30063">
        <ele>252.2</ele>
        <time>2026-05-09T11:04:03Z</time>
      </trkpt>
      <trkpt lat="46.163" lon="5.30069">
        <ele>252.4</ele>
        <time>2026-05-09T11:04:04Z</time>
      </trkpt>
      <trkpt lat="46.163" lon="5.30074">
        <ele>252.4</ele>
        <time>2026-05-09T11:04:05Z</time>
      </trkpt>
      <trkpt lat="46.163" lon="5.30081">
        <ele>252.6</ele>
        <time>2026-05-09T11:04:06Z</time>
      </trkpt>
      <trkpt lat="46.16299" lon="5.30086">
        <ele>253</ele>
        <time>2026-05-09T11:04:07Z</time>
      </trkpt>
      <trkpt lat="46.163" lon="5.30092">
        <ele>253</ele>
        <time>2026-05-09T11:04:08Z</time>
      </trkpt>
      <trkpt lat="46.163" lon="5.30098">
        <ele>253.2</ele>
        <time>2026-05-09T11:04:09Z</time>
      </trkpt>
      <trkpt lat="46.163" lon="5.30104">
        <ele>253.6</ele>
        <time>2026-05-09T11:04:10Z</time>
      </trkpt>
      <trkpt lat="46.163" lon="5.30109">
        <ele>253.8</ele>
        <time>2026-05-09T11:04:11Z</time>
      </trkpt>
      <trkpt lat="46.16299" lon="5.30113">
        <ele>253.8</ele>
        <time>2026-05-09T11:04:12Z</time>
      </trkpt>
      <trkpt lat="46.16299" lon="5.30118">
        <ele>254</ele>
        <time>2026-05-09T11:04:13Z</time>
      </trkpt>
      <trkpt lat="46.16298" lon="5.30123">
        <ele>254.2</ele>
        <time>2026-05-09T11:04:14Z</time>
      </trkpt>
      <trkpt lat="46.16297" lon="5.30127">
        <ele>254.2</ele>
        <time>2026-05-09T11:04:15Z</time>
      </trkpt>
      <trkpt lat="46.16297" lon="5.30132">
        <ele>254.6</ele>
        <time>2026-05-09T11:04:16Z</time>
      </trkpt>
      <trkpt lat="46.16297" lon="5.30136">
        <ele>255</ele>
        <time>2026-05-09T11:04:17Z</time>
      </trkpt>
      <trkpt lat="46.16296" lon="5.30141">
        <ele>255</ele>
        <time>2026-05-09T11:04:18Z</time>
      </trkpt>
      <trkpt lat="46.16296" lon="5.30145">
        <ele>255.4</ele>
        <time>2026-05-09T11:04:19Z</time>
      </trkpt>
      <trkpt lat="46.16296" lon="5.30149">
        <ele>255.4</ele>
        <time>2026-05-09T11:04:20Z</time>
      </trkpt>
      <trkpt lat="46.16295" lon="5.30153">
        <ele>255.6</ele>
        <time>2026-05-09T11:04:21Z</time>
      </trkpt>
      <trkpt lat="46.16295" lon="5.30157">
        <ele>255.6</ele>
        <time>2026-05-09T11:04:22Z</time>
      </trkpt>
      <trkpt lat="46.16294" lon="5.30161">
        <ele>256</ele>
        <time>2026-05-09T11:04:23Z</time>
      </trkpt>
      <trkpt lat="46.16294" lon="5.30165">
        <ele>256</ele>
        <time>2026-05-09T11:04:24Z</time>
      </trkpt>
      <trkpt lat="46.16294" lon="5.30169">
        <ele>256.2</ele>
        <time>2026-05-09T11:04:25Z</time>
      </trkpt>
      <trkpt lat="46.16294" lon="5.30174">
        <ele>256.2</ele>
        <time>2026-05-09T11:04:26Z</time>
      </trkpt>
      <trkpt lat="46.16293" lon="5.30178">
        <ele>256.2</ele>
        <time>2026-05-09T11:04:27Z</time>
      </trkpt>
      <trkpt lat="46.16293" lon="5.30182">
        <ele>256.6</ele>
        <time>2026-05-09T11:04:28Z</time>
      </trkpt>
      <trkpt lat="46.16292" lon="5.30186">
        <ele>256.6</ele>
        <time>2026-05-09T11:04:29Z</time>
      </trkpt>
      <trkpt lat="46.16292" lon="5.3019">
        <ele>256.6</ele>
        <time>2026-05-09T11:04:30Z</time>
      </trkpt>
      <trkpt lat="46.16292" lon="5.30194">
        <ele>256.8</ele>
        <time>2026-05-09T11:04:31Z</time>
      </trkpt>
      <trkpt lat="46.16291" lon="5.30199">
        <ele>256.8</ele>
        <time>2026-05-09T11:04:32Z</time>
      </trkpt>
      <trkpt lat="46.16291" lon="5.30203">
        <ele>257.2</ele>
        <time>2026-05-09T11:04:33Z</time>
      </trkpt>
      <trkpt lat="46.1629" lon="5.30207">
        <ele>257.2</ele>
        <time>2026-05-09T11:04:34Z</time>
      </trkpt>
      <trkpt lat="46.1629" lon="5.30211">
        <ele>257.6</ele>
        <time>2026-05-09T11:04:35Z</time>
      </trkpt>
      <trkpt lat="46.16289" lon="5.30215">
        <ele>257.6</ele>
        <time>2026-05-09T11:04:36Z</time>
      </trkpt>
      <trkpt lat="46.16288" lon="5.30219">
        <ele>257.8</ele>
        <time>2026-05-09T11:04:37Z</time>
      </trkpt>
      <trkpt lat="46.16287" lon="5.30223">
        <ele>257.8</ele>
        <time>2026-05-09T11:04:38Z</time>
      </trkpt>
      <trkpt lat="46.16286" lon="5.30227">
        <ele>258.2</ele>
        <time>2026-05-09T11:04:39Z</time>
      </trkpt>
      <trkpt lat="46.16285" lon="5.30231">
        <ele>258.2</ele>
        <time>2026-05-09T11:04:40Z</time>
      </trkpt>
      <trkpt lat="46.16284" lon="5.30235">
        <ele>258.4</ele>
        <time>2026-05-09T11:04:41Z</time>
      </trkpt>
      <trkpt lat="46.16283" lon="5.30238">
        <ele>258.4</ele>
        <time>2026-05-09T11:04:42Z</time>
      </trkpt>
      <trkpt lat="46.16283" lon="5.30242">
        <ele>258.4</ele>
        <time>2026-05-09T11:04:43Z</time>
      </trkpt>
      <trkpt lat="46.16282" lon="5.30246">
        <ele>258.8</ele>
        <time>2026-05-09T11:04:44Z</time>
      </trkpt>
      <trkpt lat="46.16281" lon="5.3025">
        <ele>258.8</ele>
        <time>2026-05-09T11:04:45Z</time>
      </trkpt>
      <trkpt lat="46.1628" lon="5.30254">
        <ele>259.4</ele>
        <time>2026-05-09T11:04:46Z</time>
      </trkpt>
      <trkpt lat="46.1628" lon="5.30258">
        <ele>259.6</ele>
        <time>2026-05-09T11:04:47Z</time>
      </trkpt>
      <trkpt lat="46.16279" lon="5.30262">
        <ele>259.6</ele>
        <time>2026-05-09T11:04:48Z</time>
      </trkpt>
      <trkpt lat="46.16278" lon="5.30266">
        <ele>259.8</ele>
        <time>2026-05-09T11:04:49Z</time>
      </trkpt>
      <trkpt lat="46.16277" lon="5.3027">
        <ele>259.8</ele>
        <time>2026-05-09T11:04:50Z</time>
      </trkpt>
      <trkpt lat="46.16276" lon="5.30274">
        <ele>260.2</ele>
        <time>2026-05-09T11:04:51Z</time>
      </trkpt>
      <trkpt lat="46.16274" lon="5.30278">
        <ele>260.2</ele>
        <time>2026-05-09T11:04:52Z</time>
      </trkpt>
      <trkpt lat="46.16273" lon="5.30283">
        <ele>260.4</ele>
        <time>2026-05-09T11:04:53Z</time>
      </trkpt>
      <trkpt lat="46.16272" lon="5.30287">
        <ele>260.4</ele>
        <time>2026-05-09T11:04:54Z</time>
      </trkpt>
      <trkpt lat="46.16271" lon="5.30291">
        <ele>260.8</ele>
        <time>2026-05-09T11:04:55Z</time>
      </trkpt>
      <trkpt lat="46.1627" lon="5.30295">
        <ele>260.8</ele>
        <time>2026-05-09T11:04:56Z</time>
      </trkpt>
      <trkpt lat="46.16269" lon="5.30299">
        <ele>261</ele>
        <time>2026-05-09T11:04:57Z</time>
      </trkpt>
      <trkpt lat="46.16268" lon="5.30303">
        <ele>261</ele>
        <time>2026-05-09T11:04:58Z</time>
      </trkpt>
      <trkpt lat="46.16267" lon="5.30308">
        <ele>261</ele>
        <time>2026-05-09T11:04:59Z</time>
      </trkpt>
      <trkpt lat="46.16266" lon="5.30312">
        <ele>261.2</ele>
        <time>2026-05-09T11:05:00Z</time>
      </trkpt>
      <trkpt lat="46.16265" lon="5.30316">
        <ele>261.2</ele>
        <time>2026-05-09T11:05:01Z</time>
      </trkpt>
      <trkpt lat="46.16264" lon="5.3032">
        <ele>261.6</ele>
        <time>2026-05-09T11:05:02Z</time>
      </trkpt>
      <trkpt lat="46.16263" lon="5.30324">
        <ele>261.8</ele>
        <time>2026-05-09T11:05:03Z</time>
      </trkpt>
      <trkpt lat="46.16262" lon="5.30327">
        <ele>262</ele>
        <time>2026-05-09T11:05:04Z</time>
      </trkpt>
      <trkpt lat="46.16261" lon="5.30331">
        <ele>262</ele>
        <time>2026-05-09T11:05:05Z</time>
      </trkpt>
      <trkpt lat="46.1626" lon="5.30335">
        <ele>262.4</ele>
        <time>2026-05-09T11:05:06Z</time>
      </trkpt>
      <trkpt lat="46.16259" lon="5.30339">
        <ele>262.4</ele>
        <time>2026-05-09T11:05:07Z</time>
      </trkpt>
      <trkpt lat="46.16258" lon="5.30342">
        <ele>262.4</ele>
        <time>2026-05-09T11:05:08Z</time>
      </trkpt>
      <trkpt lat="46.16256" lon="5.30347">
        <ele>262.4</ele>
        <time>2026-05-09T11:05:09Z</time>
      </trkpt>
      <trkpt lat="46.16255" lon="5.30352">
        <ele>262.6</ele>
        <time>2026-05-09T11:05:10Z</time>
      </trkpt>
      <trkpt lat="46.16254" lon="5.30356">
        <ele>262.6</ele>
        <time>2026-05-09T11:05:11Z</time>
      </trkpt>
      <trkpt lat="46.16253" lon="5.30361">
        <ele>262.6</ele>
        <time>2026-05-09T11:05:12Z</time>
      </trkpt>
      <trkpt lat="46.16252" lon="5.30365">
        <ele>262.6</ele>
        <time>2026-05-09T11:05:13Z</time>
      </trkpt>
      <trkpt lat="46.16251" lon="5.3037">
        <ele>262.6</ele>
        <time>2026-05-09T11:05:14Z</time>
      </trkpt>
      <trkpt lat="46.1625" lon="5.30375">
        <ele>262.6</ele>
        <time>2026-05-09T11:05:15Z</time>
      </trkpt>
      <trkpt lat="46.1625" lon="5.3038">
        <ele>262.6</ele>
        <time>2026-05-09T11:05:16Z</time>
      </trkpt>
      <trkpt lat="46.16249" lon="5.30385">
        <ele>262.6</ele>
        <time>2026-05-09T11:05:17Z</time>
      </trkpt>
      <trkpt lat="46.16248" lon="5.3039">
        <ele>262.6</ele>
        <time>2026-05-09T11:05:18Z</time>
      </trkpt>
      <trkpt lat="46.16247" lon="5.30395">
        <ele>262.6</ele>
        <time>2026-05-09T11:05:19Z</time>
      </trkpt>
      <trkpt lat="46.16246" lon="5.304">
        <ele>262.8</ele>
        <time>2026-05-09T11:05:20Z</time>
      </trkpt>
      <trkpt lat="46.16245" lon="5.30406">
        <ele>262.8</ele>
        <time>2026-05-09T11:05:21Z</time>
      </trkpt>
      <trkpt lat="46.16244" lon="5.30412">
        <ele>262.8</ele>
        <time>2026-05-09T11:05:22Z</time>
      </trkpt>
      <trkpt lat="46.16242" lon="5.30417">
        <ele>262.8</ele>
        <time>2026-05-09T11:05:23Z</time>
      </trkpt>
      <trkpt lat="46.16241" lon="5.30423">
        <ele>262.8</ele>
        <time>2026-05-09T11:05:24Z</time>
      </trkpt>
      <trkpt lat="46.1624" lon="5.30429">
        <ele>262.8</ele>
        <time>2026-05-09T11:05:25Z</time>
      </trkpt>
      <trkpt lat="46.16238" lon="5.30435">
        <ele>262.8</ele>
        <time>2026-05-09T11:05:26Z</time>
      </trkpt>
      <trkpt lat="46.16237" lon="5.3044">
        <ele>262.8</ele>
        <time>2026-05-09T11:05:27Z</time>
      </trkpt>
      <trkpt lat="46.16235" lon="5.30446">
        <ele>262.8</ele>
        <time>2026-05-09T11:05:28Z</time>
      </trkpt>
      <trkpt lat="46.16234" lon="5.30452">
        <ele>262.8</ele>
        <time>2026-05-09T11:05:29Z</time>
      </trkpt>
      <trkpt lat="46.16232" lon="5.30458">
        <ele>262.8</ele>
        <time>2026-05-09T11:05:30Z</time>
      </trkpt>
      <trkpt lat="46.16231" lon="5.30463">
        <ele>262.8</ele>
        <time>2026-05-09T11:05:31Z</time>
      </trkpt>
      <trkpt lat="46.16229" lon="5.3047">
        <ele>262.8</ele>
        <time>2026-05-09T11:05:32Z</time>
      </trkpt>
      <trkpt lat="46.16228" lon="5.30476">
        <ele>262.6</ele>
        <time>2026-05-09T11:05:33Z</time>
      </trkpt>
      <trkpt lat="46.16227" lon="5.30482">
        <ele>262.6</ele>
        <time>2026-05-09T11:05:34Z</time>
      </trkpt>
      <trkpt lat="46.16226" lon="5.30488">
        <ele>262.6</ele>
        <time>2026-05-09T11:05:35Z</time>
      </trkpt>
      <trkpt lat="46.16225" lon="5.30495">
        <ele>262.6</ele>
        <time>2026-05-09T11:05:36Z</time>
      </trkpt>
      <trkpt lat="46.16225" lon="5.30501">
        <ele>262.8</ele>
        <time>2026-05-09T11:05:37Z</time>
      </trkpt>
      <trkpt lat="46.16224" lon="5.30507">
        <ele>262.8</ele>
        <time>2026-05-09T11:05:38Z</time>
      </trkpt>
      <trkpt lat="46.16223" lon="5.30514">
        <ele>262.8</ele>
        <time>2026-05-09T11:05:39Z</time>
      </trkpt>
      <trkpt lat="46.16223" lon="5.3052">
        <ele>262.8</ele>
        <time>2026-05-09T11:05:40Z</time>
      </trkpt>
      <trkpt lat="46.16223" lon="5.30526">
        <ele>262.8</ele>
        <time>2026-05-09T11:05:41Z</time>
      </trkpt>
      <trkpt lat="46.16223" lon="5.30532">
        <ele>262.8</ele>
        <time>2026-05-09T11:05:42Z</time>
      </trkpt>
      <trkpt lat="46.16224" lon="5.30539">
        <ele>262.8</ele>
        <time>2026-05-09T11:05:43Z</time>
      </trkpt>
      <trkpt lat="46.16224" lon="5.30545">
        <ele>262.8</ele>
        <time>2026-05-09T11:05:44Z</time>
      </trkpt>
      <trkpt lat="46.16224" lon="5.30552">
        <ele>263</ele>
        <time>2026-05-09T11:05:45Z</time>
      </trkpt>
      <trkpt lat="46.16224" lon="5.30552">
        <ele>263</ele>
        <time>2026-05-09T11:05:46Z</time>
      </trkpt>
      <trkpt lat="46.16225" lon="5.30558">
        <ele>263</ele>
        <time>2026-05-09T11:05:47Z</time>
      </trkpt>
      <trkpt lat="46.16225" lon="5.30565">
        <ele>263</ele>
        <time>2026-05-09T11:05:48Z</time>
      </trkpt>
      <trkpt lat="46.16225" lon="5.30572">
        <ele>262.8</ele>
        <time>2026-05-09T11:05:49Z</time>
      </trkpt>
      <trkpt lat="46.16225" lon="5.30579">
        <ele>262.8</ele>
        <time>2026-05-09T11:05:50Z</time>
      </trkpt>
      <trkpt lat="46.16226" lon="5.30587">
        <ele>262.6</ele>
        <time>2026-05-09T11:05:51Z</time>
      </trkpt>
      <trkpt lat="46.16226" lon="5.30593">
        <ele>262.6</ele>
        <time>2026-05-09T11:05:52Z</time>
      </trkpt>
      <trkpt lat="46.16227" lon="5.30601">
        <ele>262.6</ele>
        <time>2026-05-09T11:05:53Z</time>
      </trkpt>
      <trkpt lat="46.16227" lon="5.30607">
        <ele>262.6</ele>
        <time>2026-05-09T11:05:54Z</time>
      </trkpt>
      <trkpt lat="46.16227" lon="5.30614">
        <ele>262.6</ele>
        <time>2026-05-09T11:05:55Z</time>
      </trkpt>
      <trkpt lat="46.16227" lon="5.30621">
        <ele>262.6</ele>
        <time>2026-05-09T11:05:56Z</time>
      </trkpt>
      <trkpt lat="46.16228" lon="5.30628">
        <ele>262.6</ele>
        <time>2026-05-09T11:05:57Z</time>
      </trkpt>
      <trkpt lat="46.16228" lon="5.30635">
        <ele>262.6</ele>
        <time>2026-05-09T11:05:58Z</time>
      </trkpt>
      <trkpt lat="46.16228" lon="5.30641">
        <ele>262.4</ele>
        <time>2026-05-09T11:05:59Z</time>
      </trkpt>
      <trkpt lat="46.16229" lon="5.30648">
        <ele>262.4</ele>
        <time>2026-05-09T11:06:00Z</time>
      </trkpt>
      <trkpt lat="46.16229" lon="5.30654">
        <ele>262</ele>
        <time>2026-05-09T11:06:01Z</time>
      </trkpt>
      <trkpt lat="46.1623" lon="5.3066">
        <ele>262</ele>
        <time>2026-05-09T11:06:02Z</time>
      </trkpt>
      <trkpt lat="46.1623" lon="5.30667">
        <ele>262</ele>
        <time>2026-05-09T11:06:03Z</time>
      </trkpt>
      <trkpt lat="46.16231" lon="5.30674">
        <ele>262</ele>
        <time>2026-05-09T11:06:04Z</time>
      </trkpt>
      <trkpt lat="46.16231" lon="5.30682">
        <ele>262</ele>
        <time>2026-05-09T11:06:05Z</time>
      </trkpt>
      <trkpt lat="46.16231" lon="5.30689">
        <ele>262</ele>
        <time>2026-05-09T11:06:06Z</time>
      </trkpt>
      <trkpt lat="46.16232" lon="5.30697">
        <ele>262</ele>
        <time>2026-05-09T11:06:07Z</time>
      </trkpt>
      <trkpt lat="46.16233" lon="5.30704">
        <ele>262</ele>
        <time>2026-05-09T11:06:08Z</time>
      </trkpt>
      <trkpt lat="46.16233" lon="5.30711">
        <ele>262.4</ele>
        <time>2026-05-09T11:06:09Z</time>
      </trkpt>
      <trkpt lat="46.16233" lon="5.30719">
        <ele>262.4</ele>
        <time>2026-05-09T11:06:10Z</time>
      </trkpt>
      <trkpt lat="46.16234" lon="5.30726">
        <ele>262.4</ele>
        <time>2026-05-09T11:06:11Z</time>
      </trkpt>
      <trkpt lat="46.16235" lon="5.30731">
        <ele>262.4</ele>
        <time>2026-05-09T11:06:12Z</time>
      </trkpt>
      <trkpt lat="46.16235" lon="5.30737">
        <ele>262.4</ele>
        <time>2026-05-09T11:06:13Z</time>
      </trkpt>
      <trkpt lat="46.16236" lon="5.30743">
        <ele>262.4</ele>
        <time>2026-05-09T11:06:14Z</time>
      </trkpt>
      <trkpt lat="46.16236" lon="5.30749">
        <ele>262.4</ele>
        <time>2026-05-09T11:06:15Z</time>
      </trkpt>
      <trkpt lat="46.16238" lon="5.30754">
        <ele>262.4</ele>
        <time>2026-05-09T11:06:16Z</time>
      </trkpt>
      <trkpt lat="46.16238" lon="5.3076">
        <ele>262.6</ele>
        <time>2026-05-09T11:06:17Z</time>
      </trkpt>
      <trkpt lat="46.16239" lon="5.30765">
        <ele>262.8</ele>
        <time>2026-05-09T11:06:18Z</time>
      </trkpt>
      <trkpt lat="46.1624" lon="5.3077">
        <ele>262.8</ele>
        <time>2026-05-09T11:06:19Z</time>
      </trkpt>
      <trkpt lat="46.16241" lon="5.30776">
        <ele>263.2</ele>
        <time>2026-05-09T11:06:20Z</time>
      </trkpt>
      <trkpt lat="46.16241" lon="5.30781">
        <ele>263.2</ele>
        <time>2026-05-09T11:06:21Z</time>
      </trkpt>
      <trkpt lat="46.16241" lon="5.30786">
        <ele>263.6</ele>
        <time>2026-05-09T11:06:22Z</time>
      </trkpt>
      <trkpt lat="46.16241" lon="5.30792">
        <ele>263.6</ele>
        <time>2026-05-09T11:06:23Z</time>
      </trkpt>
      <trkpt lat="46.16241" lon="5.30797">
        <ele>263.6</ele>
        <time>2026-05-09T11:06:24Z</time>
      </trkpt>
      <trkpt lat="46.16241" lon="5.30802">
        <ele>263.8</ele>
        <time>2026-05-09T11:06:25Z</time>
      </trkpt>
      <trkpt lat="46.1624" lon="5.30807">
        <ele>263.8</ele>
        <time>2026-05-09T11:06:26Z</time>
      </trkpt>
      <trkpt lat="46.1624" lon="5.30812">
        <ele>264.2</ele>
        <time>2026-05-09T11:06:27Z</time>
      </trkpt>
      <trkpt lat="46.1624" lon="5.30817">
        <ele>264.2</ele>
        <time>2026-05-09T11:06:28Z</time>
      </trkpt>
      <trkpt lat="46.1624" lon="5.30822">
        <ele>264.4</ele>
        <time>2026-05-09T11:06:29Z</time>
      </trkpt>
      <trkpt lat="46.1624" lon="5.30826">
        <ele>264.4</ele>
        <time>2026-05-09T11:06:30Z</time>
      </trkpt>
      <trkpt lat="46.1624" lon="5.30831">
        <ele>264.4</ele>
        <time>2026-05-09T11:06:31Z</time>
      </trkpt>
      <trkpt lat="46.16239" lon="5.30836">
        <ele>264.4</ele>
        <time>2026-05-09T11:06:32Z</time>
      </trkpt>
      <trkpt lat="46.16239" lon="5.3084">
        <ele>264.8</ele>
        <time>2026-05-09T11:06:33Z</time>
      </trkpt>
      <trkpt lat="46.16239" lon="5.30845">
        <ele>265</ele>
        <time>2026-05-09T11:06:34Z</time>
      </trkpt>
      <trkpt lat="46.16239" lon="5.3085">
        <ele>265</ele>
        <time>2026-05-09T11:06:35Z</time>
      </trkpt>
      <trkpt lat="46.16239" lon="5.30854">
        <ele>265.4</ele>
        <time>2026-05-09T11:06:36Z</time>
      </trkpt>
      <trkpt lat="46.16239" lon="5.30859">
        <ele>265.4</ele>
        <time>2026-05-09T11:06:37Z</time>
      </trkpt>
      <trkpt lat="46.1624" lon="5.30864">
        <ele>265.4</ele>
        <time>2026-05-09T11:06:38Z</time>
      </trkpt>
      <trkpt lat="46.1624" lon="5.30868">
        <ele>265.6</ele>
        <time>2026-05-09T11:06:39Z</time>
      </trkpt>
      <trkpt lat="46.1624" lon="5.30873">
        <ele>265.6</ele>
        <time>2026-05-09T11:06:40Z</time>
      </trkpt>
      <trkpt lat="46.16241" lon="5.30878">
        <ele>265.6</ele>
        <time>2026-05-09T11:06:41Z</time>
      </trkpt>
      <trkpt lat="46.16242" lon="5.30883">
        <ele>265.6</ele>
        <time>2026-05-09T11:06:42Z</time>
      </trkpt>
      <trkpt lat="46.16243" lon="5.30887">
        <ele>265.8</ele>
        <time>2026-05-09T11:06:43Z</time>
      </trkpt>
      <trkpt lat="46.16243" lon="5.30892">
        <ele>265.8</ele>
        <time>2026-05-09T11:06:44Z</time>
      </trkpt>
      <trkpt lat="46.16244" lon="5.30897">
        <ele>266</ele>
        <time>2026-05-09T11:06:45Z</time>
      </trkpt>
      <trkpt lat="46.16245" lon="5.30902">
        <ele>266</ele>
        <time>2026-05-09T11:06:46Z</time>
      </trkpt>
      <trkpt lat="46.16245" lon="5.30907">
        <ele>266</ele>
        <time>2026-05-09T11:06:47Z</time>
      </trkpt>
      <trkpt lat="46.16246" lon="5.30912">
        <ele>266</ele>
        <time>2026-05-09T11:06:48Z</time>
      </trkpt>
      <trkpt lat="46.16247" lon="5.30917">
        <ele>266.4</ele>
        <time>2026-05-09T11:06:49Z</time>
      </trkpt>
      <trkpt lat="46.16247" lon="5.30921">
        <ele>266.4</ele>
        <time>2026-05-09T11:06:50Z</time>
      </trkpt>
      <trkpt lat="46.16248" lon="5.30926">
        <ele>266.6</ele>
        <time>2026-05-09T11:06:51Z</time>
      </trkpt>
      <trkpt lat="46.16248" lon="5.30931">
        <ele>266.6</ele>
        <time>2026-05-09T11:06:52Z</time>
      </trkpt>
      <trkpt lat="46.16249" lon="5.30935">
        <ele>266.6</ele>
        <time>2026-05-09T11:06:53Z</time>
      </trkpt>
      <trkpt lat="46.16249" lon="5.3094">
        <ele>267</ele>
        <time>2026-05-09T11:06:54Z</time>
      </trkpt>
      <trkpt lat="46.1625" lon="5.30944">
        <ele>267.4</ele>
        <time>2026-05-09T11:06:55Z</time>
      </trkpt>
      <trkpt lat="46.1625" lon="5.30949">
        <ele>267.8</ele>
        <time>2026-05-09T11:06:56Z</time>
      </trkpt>
      <trkpt lat="46.1625" lon="5.30953">
        <ele>267.8</ele>
        <time>2026-05-09T11:06:57Z</time>
      </trkpt>
      <trkpt lat="46.1625" lon="5.30958">
        <ele>268</ele>
        <time>2026-05-09T11:06:58Z</time>
      </trkpt>
      <trkpt lat="46.16251" lon="5.30962">
        <ele>268.2</ele>
        <time>2026-05-09T11:06:59Z</time>
      </trkpt>
      <trkpt lat="46.16251" lon="5.30967">
        <ele>268.2</ele>
        <time>2026-05-09T11:07:00Z</time>
      </trkpt>
      <trkpt lat="46.16251" lon="5.30971">
        <ele>268.4</ele>
        <time>2026-05-09T11:07:01Z</time>
      </trkpt>
      <trkpt lat="46.16251" lon="5.30976">
        <ele>268.8</ele>
        <time>2026-05-09T11:07:02Z</time>
      </trkpt>
      <trkpt lat="46.16251" lon="5.3098">
        <ele>269</ele>
        <time>2026-05-09T11:07:03Z</time>
      </trkpt>
      <trkpt lat="46.16251" lon="5.30985">
        <ele>269</ele>
        <time>2026-05-09T11:07:04Z</time>
      </trkpt>
      <trkpt lat="46.1625" lon="5.30989">
        <ele>269.2</ele>
        <time>2026-05-09T11:07:05Z</time>
      </trkpt>
      <trkpt lat="46.1625" lon="5.30993">
        <ele>269.4</ele>
        <time>2026-05-09T11:07:06Z</time>
      </trkpt>
      <trkpt lat="46.1625" lon="5.30998">
        <ele>269.4</ele>
        <time>2026-05-09T11:07:07Z</time>
      </trkpt>
      <trkpt lat="46.1625" lon="5.31002">
        <ele>269.6</ele>
        <time>2026-05-09T11:07:08Z</time>
      </trkpt>
      <trkpt lat="46.1625" lon="5.31006">
        <ele>269.6</ele>
        <time>2026-05-09T11:07:09Z</time>
      </trkpt>
      <trkpt lat="46.1625" lon="5.3101">
        <ele>270</ele>
        <time>2026-05-09T11:07:10Z</time>
      </trkpt>
      <trkpt lat="46.16249" lon="5.31014">
        <ele>270</ele>
        <time>2026-05-09T11:07:11Z</time>
      </trkpt>
      <trkpt lat="46.16249" lon="5.31018">
        <ele>270</ele>
        <time>2026-05-09T11:07:12Z</time>
      </trkpt>
      <trkpt lat="46.16249" lon="5.31022">
        <ele>270.2</ele>
        <time>2026-05-09T11:07:13Z</time>
      </trkpt>
      <trkpt lat="46.16248" lon="5.31026">
        <ele>270.2</ele>
        <time>2026-05-09T11:07:14Z</time>
      </trkpt>
      <trkpt lat="46.16248" lon="5.3103">
        <ele>270.4</ele>
        <time>2026-05-09T11:07:15Z</time>
      </trkpt>
      <trkpt lat="46.16248" lon="5.31034">
        <ele>270.8</ele>
        <time>2026-05-09T11:07:16Z</time>
      </trkpt>
      <trkpt lat="46.16248" lon="5.31038">
        <ele>271</ele>
        <time>2026-05-09T11:07:17Z</time>
      </trkpt>
      <trkpt lat="46.16247" lon="5.31043">
        <ele>271</ele>
        <time>2026-05-09T11:07:18Z</time>
      </trkpt>
      <trkpt lat="46.16247" lon="5.31047">
        <ele>271.2</ele>
        <time>2026-05-09T11:07:19Z</time>
      </trkpt>
      <trkpt lat="46.16247" lon="5.31051">
        <ele>271.2</ele>
        <time>2026-05-09T11:07:20Z</time>
      </trkpt>
      <trkpt lat="46.16247" lon="5.31055">
        <ele>271.6</ele>
        <time>2026-05-09T11:07:21Z</time>
      </trkpt>
      <trkpt lat="46.16247" lon="5.31059">
        <ele>271.6</ele>
        <time>2026-05-09T11:07:22Z</time>
      </trkpt>
      <trkpt lat="46.16247" lon="5.31063">
        <ele>272.2</ele>
        <time>2026-05-09T11:07:23Z</time>
      </trkpt>
      <trkpt lat="46.16247" lon="5.31067">
        <ele>272.2</ele>
        <time>2026-05-09T11:07:24Z</time>
      </trkpt>
      <trkpt lat="46.16247" lon="5.31071">
        <ele>272.4</ele>
        <time>2026-05-09T11:07:25Z</time>
      </trkpt>
      <trkpt lat="46.16247" lon="5.31075">
        <ele>272.6</ele>
        <time>2026-05-09T11:07:26Z</time>
      </trkpt>
      <trkpt lat="46.16246" lon="5.31079">
        <ele>272.6</ele>
        <time>2026-05-09T11:07:27Z</time>
      </trkpt>
      <trkpt lat="46.16245" lon="5.31082">
        <ele>272.6</ele>
        <time>2026-05-09T11:07:28Z</time>
      </trkpt>
      <trkpt lat="46.16245" lon="5.31087">
        <ele>272.8</ele>
        <time>2026-05-09T11:07:29Z</time>
      </trkpt>
      <trkpt lat="46.16244" lon="5.31091">
        <ele>272.8</ele>
        <time>2026-05-09T11:07:30Z</time>
      </trkpt>
      <trkpt lat="46.16244" lon="5.31095">
        <ele>272.8</ele>
        <time>2026-05-09T11:07:31Z</time>
      </trkpt>
      <trkpt lat="46.16244" lon="5.311">
        <ele>272.8</ele>
        <time>2026-05-09T11:07:32Z</time>
      </trkpt>
      <trkpt lat="46.16244" lon="5.31105">
        <ele>273.2</ele>
        <time>2026-05-09T11:07:33Z</time>
      </trkpt>
      <trkpt lat="46.16245" lon="5.3111">
        <ele>273.2</ele>
        <time>2026-05-09T11:07:34Z</time>
      </trkpt>
      <trkpt lat="46.16247" lon="5.31118">
        <ele>273.8</ele>
        <time>2026-05-09T11:07:35Z</time>
      </trkpt>
      <trkpt lat="46.16247" lon="5.31123">
        <ele>273.8</ele>
        <time>2026-05-09T11:07:36Z</time>
      </trkpt>
      <trkpt lat="46.16247" lon="5.31128">
        <ele>274.4</ele>
        <time>2026-05-09T11:07:37Z</time>
      </trkpt>
      <trkpt lat="46.16247" lon="5.31133">
        <ele>274.4</ele>
        <time>2026-05-09T11:07:38Z</time>
      </trkpt>
      <trkpt lat="46.16248" lon="5.31137">
        <ele>274.6</ele>
        <time>2026-05-09T11:07:39Z</time>
      </trkpt>
      <trkpt lat="46.16248" lon="5.31142">
        <ele>274.6</ele>
        <time>2026-05-09T11:07:40Z</time>
      </trkpt>
      <trkpt lat="46.16248" lon="5.31147">
        <ele>274.8</ele>
        <time>2026-05-09T11:07:41Z</time>
      </trkpt>
      <trkpt lat="46.16248" lon="5.31153">
        <ele>274.8</ele>
        <time>2026-05-09T11:07:42Z</time>
      </trkpt>
      <trkpt lat="46.16248" lon="5.31158">
        <ele>275</ele>
        <time>2026-05-09T11:07:43Z</time>
      </trkpt>
      <trkpt lat="46.16248" lon="5.31163">
        <ele>275</ele>
        <time>2026-05-09T11:07:44Z</time>
      </trkpt>
      <trkpt lat="46.16248" lon="5.31169">
        <ele>275</ele>
        <time>2026-05-09T11:07:45Z</time>
      </trkpt>
      <trkpt lat="46.16248" lon="5.31173">
        <ele>275</ele>
        <time>2026-05-09T11:07:46Z</time>
      </trkpt>
      <trkpt lat="46.16248" lon="5.31179">
        <ele>275.4</ele>
        <time>2026-05-09T11:07:47Z</time>
      </trkpt>
      <trkpt lat="46.16247" lon="5.31184">
        <ele>275.4</ele>
        <time>2026-05-09T11:07:48Z</time>
      </trkpt>
      <trkpt lat="46.16247" lon="5.3119">
        <ele>275.4</ele>
        <time>2026-05-09T11:07:49Z</time>
      </trkpt>
      <trkpt lat="46.16247" lon="5.31195">
        <ele>275.4</ele>
        <time>2026-05-09T11:07:50Z</time>
      </trkpt>
      <trkpt lat="46.16247" lon="5.31201">
        <ele>275.6</ele>
        <time>2026-05-09T11:07:51Z</time>
      </trkpt>
      <trkpt lat="46.16246" lon="5.31207">
        <ele>275.2</ele>
        <time>2026-05-09T11:07:52Z</time>
      </trkpt>
      <trkpt lat="46.16245" lon="5.31215">
        <ele>275.2</ele>
        <time>2026-05-09T11:07:53Z</time>
      </trkpt>
      <trkpt lat="46.16245" lon="5.31221">
        <ele>275.2</ele>
        <time>2026-05-09T11:07:54Z</time>
      </trkpt>
      <trkpt lat="46.16245" lon="5.31228">
        <ele>275.2</ele>
        <time>2026-05-09T11:07:55Z</time>
      </trkpt>
      <trkpt lat="46.16244" lon="5.31235">
        <ele>275</ele>
        <time>2026-05-09T11:07:56Z</time>
      </trkpt>
      <trkpt lat="46.16244" lon="5.31243">
        <ele>275</ele>
        <time>2026-05-09T11:07:57Z</time>
      </trkpt>
      <trkpt lat="46.16245" lon="5.3125">
        <ele>274.8</ele>
        <time>2026-05-09T11:07:58Z</time>
      </trkpt>
      <trkpt lat="46.16244" lon="5.31259">
        <ele>274.8</ele>
        <time>2026-05-09T11:07:59Z</time>
      </trkpt>
      <trkpt lat="46.16244" lon="5.31267">
        <ele>274.8</ele>
        <time>2026-05-09T11:08:00Z</time>
      </trkpt>
      <trkpt lat="46.16244" lon="5.31275">
        <ele>274.2</ele>
        <time>2026-05-09T11:08:01Z</time>
      </trkpt>
      <trkpt lat="46.16244" lon="5.31283">
        <ele>273.8</ele>
        <time>2026-05-09T11:08:02Z</time>
      </trkpt>
      <trkpt lat="46.16245" lon="5.31289">
        <ele>273.4</ele>
        <time>2026-05-09T11:08:03Z</time>
      </trkpt>
      <trkpt lat="46.16245" lon="5.31297">
        <ele>273.4</ele>
        <time>2026-05-09T11:08:04Z</time>
      </trkpt>
      <trkpt lat="46.16246" lon="5.31304">
        <ele>273.4</ele>
        <time>2026-05-09T11:08:05Z</time>
      </trkpt>
      <trkpt lat="46.16248" lon="5.31313">
        <ele>273.4</ele>
        <time>2026-05-09T11:08:06Z</time>
      </trkpt>
      <trkpt lat="46.16249" lon="5.31321">
        <ele>273.4</ele>
        <time>2026-05-09T11:08:07Z</time>
      </trkpt>
      <trkpt lat="46.16251" lon="5.31329">
        <ele>273</ele>
        <time>2026-05-09T11:08:08Z</time>
      </trkpt>
      <trkpt lat="46.16253" lon="5.31337">
        <ele>273</ele>
        <time>2026-05-09T11:08:09Z</time>
      </trkpt>
      <trkpt lat="46.16254" lon="5.31344">
        <ele>273</ele>
        <time>2026-05-09T11:08:10Z</time>
      </trkpt>
      <trkpt lat="46.16256" lon="5.31353">
        <ele>273</ele>
        <time>2026-05-09T11:08:11Z</time>
      </trkpt>
      <trkpt lat="46.16258" lon="5.31361">
        <ele>272.8</ele>
        <time>2026-05-09T11:08:12Z</time>
      </trkpt>
      <trkpt lat="46.1626" lon="5.31368">
        <ele>272.8</ele>
        <time>2026-05-09T11:08:13Z</time>
      </trkpt>
      <trkpt lat="46.16261" lon="5.31377">
        <ele>272.8</ele>
        <time>2026-05-09T11:08:14Z</time>
      </trkpt>
      <trkpt lat="46.16263" lon="5.31384">
        <ele>272.8</ele>
        <time>2026-05-09T11:08:15Z</time>
      </trkpt>
      <trkpt lat="46.16265" lon="5.31392">
        <ele>272.8</ele>
        <time>2026-05-09T11:08:16Z</time>
      </trkpt>
      <trkpt lat="46.16266" lon="5.31399">
        <ele>272.8</ele>
        <time>2026-05-09T11:08:17Z</time>
      </trkpt>
      <trkpt lat="46.16267" lon="5.31408">
        <ele>272.8</ele>
        <time>2026-05-09T11:08:18Z</time>
      </trkpt>
      <trkpt lat="46.16269" lon="5.31416">
        <ele>272.8</ele>
        <time>2026-05-09T11:08:19Z</time>
      </trkpt>
      <trkpt lat="46.1627" lon="5.31424">
        <ele>272.8</ele>
        <time>2026-05-09T11:08:20Z</time>
      </trkpt>
      <trkpt lat="46.16272" lon="5.31431">
        <ele>272.8</ele>
        <time>2026-05-09T11:08:21Z</time>
      </trkpt>
      <trkpt lat="46.16273" lon="5.31438">
        <ele>272.8</ele>
        <time>2026-05-09T11:08:22Z</time>
      </trkpt>
      <trkpt lat="46.16274" lon="5.31446">
        <ele>272.8</ele>
        <time>2026-05-09T11:08:23Z</time>
      </trkpt>
      <trkpt lat="46.16275" lon="5.31453">
        <ele>272.8</ele>
        <time>2026-05-09T11:08:24Z</time>
      </trkpt>
      <trkpt lat="46.16277" lon="5.3146">
        <ele>272.8</ele>
        <time>2026-05-09T11:08:25Z</time>
      </trkpt>
      <trkpt lat="46.16278" lon="5.31467">
        <ele>273</ele>
        <time>2026-05-09T11:08:26Z</time>
      </trkpt>
      <trkpt lat="46.16279" lon="5.31474">
        <ele>273</ele>
        <time>2026-05-09T11:08:27Z</time>
      </trkpt>
      <trkpt lat="46.16279" lon="5.31481">
        <ele>273</ele>
        <time>2026-05-09T11:08:28Z</time>
      </trkpt>
      <trkpt lat="46.1628" lon="5.31487">
        <ele>273</ele>
        <time>2026-05-09T11:08:29Z</time>
      </trkpt>
      <trkpt lat="46.16281" lon="5.31493">
        <ele>273</ele>
        <time>2026-05-09T11:08:30Z</time>
      </trkpt>
      <trkpt lat="46.16282" lon="5.315">
        <ele>273</ele>
        <time>2026-05-09T11:08:31Z</time>
      </trkpt>
      <trkpt lat="46.16283" lon="5.31506">
        <ele>273.4</ele>
        <time>2026-05-09T11:08:32Z</time>
      </trkpt>
      <trkpt lat="46.16284" lon="5.31512">
        <ele>273.6</ele>
        <time>2026-05-09T11:08:33Z</time>
      </trkpt>
      <trkpt lat="46.16285" lon="5.31519">
        <ele>273.6</ele>
        <time>2026-05-09T11:08:34Z</time>
      </trkpt>
      <trkpt lat="46.16287" lon="5.31525">
        <ele>273.6</ele>
        <time>2026-05-09T11:08:35Z</time>
      </trkpt>
      <trkpt lat="46.16287" lon="5.3153">
        <ele>273.6</ele>
        <time>2026-05-09T11:08:36Z</time>
      </trkpt>
      <trkpt lat="46.16288" lon="5.31537">
        <ele>274</ele>
        <time>2026-05-09T11:08:37Z</time>
      </trkpt>
      <trkpt lat="46.16289" lon="5.31542">
        <ele>274</ele>
        <time>2026-05-09T11:08:38Z</time>
      </trkpt>
      <trkpt lat="46.1629" lon="5.31548">
        <ele>274.2</ele>
        <time>2026-05-09T11:08:39Z</time>
      </trkpt>
      <trkpt lat="46.16291" lon="5.31553">
        <ele>274.2</ele>
        <time>2026-05-09T11:08:40Z</time>
      </trkpt>
      <trkpt lat="46.16291" lon="5.31559">
        <ele>274.2</ele>
        <time>2026-05-09T11:08:41Z</time>
      </trkpt>
      <trkpt lat="46.16293" lon="5.31564">
        <ele>274.4</ele>
        <time>2026-05-09T11:08:42Z</time>
      </trkpt>
      <trkpt lat="46.16293" lon="5.3157">
        <ele>274.4</ele>
        <time>2026-05-09T11:08:43Z</time>
      </trkpt>
      <trkpt lat="46.16294" lon="5.31574">
        <ele>274.6</ele>
        <time>2026-05-09T11:08:44Z</time>
      </trkpt>
      <trkpt lat="46.16295" lon="5.3158">
        <ele>274.6</ele>
        <time>2026-05-09T11:08:45Z</time>
      </trkpt>
      <trkpt lat="46.16296" lon="5.31585">
        <ele>275</ele>
        <time>2026-05-09T11:08:46Z</time>
      </trkpt>
      <trkpt lat="46.16297" lon="5.3159">
        <ele>275</ele>
        <time>2026-05-09T11:08:47Z</time>
      </trkpt>
      <trkpt lat="46.16297" lon="5.31595">
        <ele>275.4</ele>
        <time>2026-05-09T11:08:48Z</time>
      </trkpt>
      <trkpt lat="46.16298" lon="5.316">
        <ele>275.6</ele>
        <time>2026-05-09T11:08:49Z</time>
      </trkpt>
      <trkpt lat="46.16299" lon="5.31605">
        <ele>275.6</ele>
        <time>2026-05-09T11:08:50Z</time>
      </trkpt>
      <trkpt lat="46.163" lon="5.3161">
        <ele>275.6</ele>
        <time>2026-05-09T11:08:51Z</time>
      </trkpt>
      <trkpt lat="46.16301" lon="5.31616">
        <ele>275.8</ele>
        <time>2026-05-09T11:08:52Z</time>
      </trkpt>
      <trkpt lat="46.16302" lon="5.31621">
        <ele>275.8</ele>
        <time>2026-05-09T11:08:53Z</time>
      </trkpt>
      <trkpt lat="46.16302" lon="5.31626">
        <ele>276</ele>
        <time>2026-05-09T11:08:54Z</time>
      </trkpt>
      <trkpt lat="46.16303" lon="5.31631">
        <ele>276</ele>
        <time>2026-05-09T11:08:55Z</time>
      </trkpt>
      <trkpt lat="46.16304" lon="5.31636">
        <ele>276.6</ele>
        <time>2026-05-09T11:08:56Z</time>
      </trkpt>
      <trkpt lat="46.16306" lon="5.31641">
        <ele>276.6</ele>
        <time>2026-05-09T11:08:57Z</time>
      </trkpt>
      <trkpt lat="46.16306" lon="5.31646">
        <ele>276.8</ele>
        <time>2026-05-09T11:08:58Z</time>
      </trkpt>
      <trkpt lat="46.16307" lon="5.31651">
        <ele>276.8</ele>
        <time>2026-05-09T11:08:59Z</time>
      </trkpt>
      <trkpt lat="46.16308" lon="5.31656">
        <ele>276.8</ele>
        <time>2026-05-09T11:09:00Z</time>
      </trkpt>
      <trkpt lat="46.16309" lon="5.31661">
        <ele>277.2</ele>
        <time>2026-05-09T11:09:01Z</time>
      </trkpt>
      <trkpt lat="46.1631" lon="5.31666">
        <ele>277.4</ele>
        <time>2026-05-09T11:09:02Z</time>
      </trkpt>
      <trkpt lat="46.1631" lon="5.31671">
        <ele>277.4</ele>
        <time>2026-05-09T11:09:03Z</time>
      </trkpt>
      <trkpt lat="46.16311" lon="5.31676">
        <ele>277.4</ele>
        <time>2026-05-09T11:09:04Z</time>
      </trkpt>
      <trkpt lat="46.16312" lon="5.3168">
        <ele>277.6</ele>
        <time>2026-05-09T11:09:05Z</time>
      </trkpt>
      <trkpt lat="46.16312" lon="5.31685">
        <ele>277.6</ele>
        <time>2026-05-09T11:09:06Z</time>
      </trkpt>
      <trkpt lat="46.16313" lon="5.3169">
        <ele>277.6</ele>
        <time>2026-05-09T11:09:07Z</time>
      </trkpt>
      <trkpt lat="46.16313" lon="5.3169">
        <ele>277.6</ele>
        <time>2026-05-09T11:09:08Z</time>
      </trkpt>
      <trkpt lat="46.16314" lon="5.31695">
        <ele>278</ele>
        <time>2026-05-09T11:09:09Z</time>
      </trkpt>
      <trkpt lat="46.16315" lon="5.317">
        <ele>278</ele>
        <time>2026-05-09T11:09:10Z</time>
      </trkpt>
      <trkpt lat="46.16316" lon="5.31705">
        <ele>278.2</ele>
        <time>2026-05-09T11:09:11Z</time>
      </trkpt>
      <trkpt lat="46.16317" lon="5.31711">
        <ele>278.2</ele>
        <time>2026-05-09T11:09:12Z</time>
      </trkpt>
      <trkpt lat="46.16318" lon="5.31716">
        <ele>278.2</ele>
        <time>2026-05-09T11:09:13Z</time>
      </trkpt>
      <trkpt lat="46.1632" lon="5.31722">
        <ele>278.2</ele>
        <time>2026-05-09T11:09:14Z</time>
      </trkpt>
      <trkpt lat="46.16321" lon="5.31727">
        <ele>278.2</ele>
        <time>2026-05-09T11:09:15Z</time>
      </trkpt>
      <trkpt lat="46.16322" lon="5.31733">
        <ele>278.2</ele>
        <time>2026-05-09T11:09:16Z</time>
      </trkpt>
      <trkpt lat="46.16323" lon="5.31739">
        <ele>278.2</ele>
        <time>2026-05-09T11:09:17Z</time>
      </trkpt>
      <trkpt lat="46.16324" lon="5.31744">
        <ele>278.6</ele>
        <time>2026-05-09T11:09:18Z</time>
      </trkpt>
      <trkpt lat="46.16325" lon="5.3175">
        <ele>278.6</ele>
        <time>2026-05-09T11:09:19Z</time>
      </trkpt>
      <trkpt lat="46.16326" lon="5.31755">
        <ele>278.8</ele>
        <time>2026-05-09T11:09:20Z</time>
      </trkpt>
      <trkpt lat="46.16327" lon="5.3176">
        <ele>278.8</ele>
        <time>2026-05-09T11:09:21Z</time>
      </trkpt>
      <trkpt lat="46.16328" lon="5.31765">
        <ele>279</ele>
        <time>2026-05-09T11:09:22Z</time>
      </trkpt>
      <trkpt lat="46.16328" lon="5.3177">
        <ele>279</ele>
        <time>2026-05-09T11:09:23Z</time>
      </trkpt>
      <trkpt lat="46.16329" lon="5.31775">
        <ele>279.4</ele>
        <time>2026-05-09T11:09:24Z</time>
      </trkpt>
      <trkpt lat="46.1633" lon="5.31779">
        <ele>279.6</ele>
        <time>2026-05-09T11:09:25Z</time>
      </trkpt>
      <trkpt lat="46.1633" lon="5.31784">
        <ele>279.6</ele>
        <time>2026-05-09T11:09:26Z</time>
      </trkpt>
      <trkpt lat="46.16331" lon="5.31789">
        <ele>280</ele>
        <time>2026-05-09T11:09:27Z</time>
      </trkpt>
      <trkpt lat="46.16331" lon="5.31793">
        <ele>280</ele>
        <time>2026-05-09T11:09:28Z</time>
      </trkpt>
      <trkpt lat="46.16331" lon="5.31798">
        <ele>280</ele>
        <time>2026-05-09T11:09:29Z</time>
      </trkpt>
      <trkpt lat="46.16331" lon="5.31803">
        <ele>280.2</ele>
        <time>2026-05-09T11:09:30Z</time>
      </trkpt>
      <trkpt lat="46.16331" lon="5.31807">
        <ele>280.2</ele>
        <time>2026-05-09T11:09:31Z</time>
      </trkpt>
      <trkpt lat="46.16331" lon="5.31812">
        <ele>280.6</ele>
        <time>2026-05-09T11:09:32Z</time>
      </trkpt>
      <trkpt lat="46.16332" lon="5.31816">
        <ele>280.6</ele>
        <time>2026-05-09T11:09:33Z</time>
      </trkpt>
      <trkpt lat="46.16332" lon="5.31821">
        <ele>280.6</ele>
        <time>2026-05-09T11:09:34Z</time>
      </trkpt>
      <trkpt lat="46.16332" lon="5.31826">
        <ele>281</ele>
        <time>2026-05-09T11:09:35Z</time>
      </trkpt>
      <trkpt lat="46.16332" lon="5.31831">
        <ele>281.2</ele>
        <time>2026-05-09T11:09:36Z</time>
      </trkpt>
      <trkpt lat="46.16332" lon="5.31836">
        <ele>281.2</ele>
        <time>2026-05-09T11:09:37Z</time>
      </trkpt>
      <trkpt lat="46.16332" lon="5.3184">
        <ele>281.6</ele>
        <time>2026-05-09T11:09:38Z</time>
      </trkpt>
      <trkpt lat="46.16332" lon="5.31845">
        <ele>281.6</ele>
        <time>2026-05-09T11:09:39Z</time>
      </trkpt>
      <trkpt lat="46.16332" lon="5.3185">
        <ele>281.8</ele>
        <time>2026-05-09T11:09:40Z</time>
      </trkpt>
      <trkpt lat="46.16332" lon="5.31854">
        <ele>281.8</ele>
        <time>2026-05-09T11:09:41Z</time>
      </trkpt>
      <trkpt lat="46.16332" lon="5.31859">
        <ele>282.2</ele>
        <time>2026-05-09T11:09:42Z</time>
      </trkpt>
      <trkpt lat="46.16332" lon="5.31863">
        <ele>282.2</ele>
        <time>2026-05-09T11:09:43Z</time>
      </trkpt>
      <trkpt lat="46.16332" lon="5.31867">
        <ele>282.4</ele>
        <time>2026-05-09T11:09:44Z</time>
      </trkpt>
      <trkpt lat="46.16332" lon="5.31871">
        <ele>282.4</ele>
        <time>2026-05-09T11:09:45Z</time>
      </trkpt>
      <trkpt lat="46.16332" lon="5.31874">
        <ele>282.8</ele>
        <time>2026-05-09T11:09:46Z</time>
      </trkpt>
      <trkpt lat="46.16332" lon="5.31878">
        <ele>282.8</ele>
        <time>2026-05-09T11:09:47Z</time>
      </trkpt>
      <trkpt lat="46.16332" lon="5.31881">
        <ele>282.8</ele>
        <time>2026-05-09T11:09:48Z</time>
      </trkpt>
      <trkpt lat="46.16332" lon="5.31884">
        <ele>283.2</ele>
        <time>2026-05-09T11:09:49Z</time>
      </trkpt>
      <trkpt lat="46.16332" lon="5.31887">
        <ele>283.2</ele>
        <time>2026-05-09T11:09:50Z</time>
      </trkpt>
      <trkpt lat="46.16332" lon="5.31891">
        <ele>283.6</ele>
        <time>2026-05-09T11:09:51Z</time>
      </trkpt>
      <trkpt lat="46.16332" lon="5.31894">
        <ele>283.8</ele>
        <time>2026-05-09T11:09:52Z</time>
      </trkpt>
      <trkpt lat="46.16333" lon="5.31897">
        <ele>283.8</ele>
        <time>2026-05-09T11:09:53Z</time>
      </trkpt>
      <trkpt lat="46.16333" lon="5.31901">
        <ele>283.8</ele>
        <time>2026-05-09T11:09:54Z</time>
      </trkpt>
      <trkpt lat="46.16333" lon="5.31904">
        <ele>284.4</ele>
        <time>2026-05-09T11:09:55Z</time>
      </trkpt>
      <trkpt lat="46.16334" lon="5.31908">
        <ele>284.6</ele>
        <time>2026-05-09T11:09:56Z</time>
      </trkpt>
      <trkpt lat="46.16335" lon="5.31911">
        <ele>285</ele>
        <time>2026-05-09T11:09:57Z</time>
      </trkpt>
      <trkpt lat="46.16335" lon="5.31914">
        <ele>285.2</ele>
        <time>2026-05-09T11:09:58Z</time>
      </trkpt>
      <trkpt lat="46.16336" lon="5.31917">
        <ele>285.2</ele>
        <time>2026-05-09T11:09:59Z</time>
      </trkpt>
      <trkpt lat="46.16336" lon="5.3192">
        <ele>285.6</ele>
        <time>2026-05-09T11:10:00Z</time>
      </trkpt>
      <trkpt lat="46.16337" lon="5.31923">
        <ele>285.6</ele>
        <time>2026-05-09T11:10:01Z</time>
      </trkpt>
      <trkpt lat="46.16338" lon="5.31925">
        <ele>285.8</ele>
        <time>2026-05-09T11:10:02Z</time>
      </trkpt>
      <trkpt lat="46.16338" lon="5.31928">
        <ele>285.8</ele>
        <time>2026-05-09T11:10:03Z</time>
      </trkpt>
      <trkpt lat="46.16339" lon="5.31931">
        <ele>286.2</ele>
        <time>2026-05-09T11:10:04Z</time>
      </trkpt>
      <trkpt lat="46.16339" lon="5.31934">
        <ele>286.4</ele>
        <time>2026-05-09T11:10:05Z</time>
      </trkpt>
      <trkpt lat="46.1634" lon="5.31937">
        <ele>286.4</ele>
        <time>2026-05-09T11:10:06Z</time>
      </trkpt>
      <trkpt lat="46.16341" lon="5.3194">
        <ele>286.6</ele>
        <time>2026-05-09T11:10:07Z</time>
      </trkpt>
      <trkpt lat="46.16341" lon="5.31943">
        <ele>286.8</ele>
        <time>2026-05-09T11:10:08Z</time>
      </trkpt>
      <trkpt lat="46.16342" lon="5.31945">
        <ele>287</ele>
        <time>2026-05-09T11:10:09Z</time>
      </trkpt>
      <trkpt lat="46.16342" lon="5.31948">
        <ele>287.4</ele>
        <time>2026-05-09T11:10:10Z</time>
      </trkpt>
      <trkpt lat="46.16343" lon="5.3195">
        <ele>287.4</ele>
        <time>2026-05-09T11:10:11Z</time>
      </trkpt>
      <trkpt lat="46.16343" lon="5.31953">
        <ele>287.6</ele>
        <time>2026-05-09T11:10:12Z</time>
      </trkpt>
      <trkpt lat="46.16344" lon="5.31956">
        <ele>287.8</ele>
        <time>2026-05-09T11:10:13Z</time>
      </trkpt>
      <trkpt lat="46.16345" lon="5.31958">
        <ele>288</ele>
        <time>2026-05-09T11:10:14Z</time>
      </trkpt>
      <trkpt lat="46.16345" lon="5.31961">
        <ele>288</ele>
        <time>2026-05-09T11:10:15Z</time>
      </trkpt>
      <trkpt lat="46.16346" lon="5.31964">
        <ele>288.4</ele>
        <time>2026-05-09T11:10:16Z</time>
      </trkpt>
      <trkpt lat="46.16346" lon="5.31966">
        <ele>288.8</ele>
        <time>2026-05-09T11:10:17Z</time>
      </trkpt>
      <trkpt lat="46.16347" lon="5.31969">
        <ele>288.8</ele>
        <time>2026-05-09T11:10:18Z</time>
      </trkpt>
      <trkpt lat="46.16347" lon="5.31971">
        <ele>288.8</ele>
        <time>2026-05-09T11:10:19Z</time>
      </trkpt>
      <trkpt lat="46.16348" lon="5.31974">
        <ele>289</ele>
        <time>2026-05-09T11:10:20Z</time>
      </trkpt>
      <trkpt lat="46.16349" lon="5.31977">
        <ele>289</ele>
        <time>2026-05-09T11:10:21Z</time>
      </trkpt>
      <trkpt lat="46.1635" lon="5.31979">
        <ele>289</ele>
        <time>2026-05-09T11:10:22Z</time>
      </trkpt>
      <trkpt lat="46.1635" lon="5.31982">
        <ele>289.4</ele>
        <time>2026-05-09T11:10:23Z</time>
      </trkpt>
      <trkpt lat="46.16351" lon="5.31984">
        <ele>289.6</ele>
        <time>2026-05-09T11:10:24Z</time>
      </trkpt>
      <trkpt lat="46.16351" lon="5.31987">
        <ele>289.6</ele>
        <time>2026-05-09T11:10:25Z</time>
      </trkpt>
      <trkpt lat="46.16352" lon="5.3199">
        <ele>289.8</ele>
        <time>2026-05-09T11:10:26Z</time>
      </trkpt>
      <trkpt lat="46.16352" lon="5.31992">
        <ele>289.8</ele>
        <time>2026-05-09T11:10:27Z</time>
      </trkpt>
      <trkpt lat="46.16353" lon="5.31995">
        <ele>290</ele>
        <time>2026-05-09T11:10:28Z</time>
      </trkpt>
      <trkpt lat="46.16353" lon="5.31998">
        <ele>290</ele>
        <time>2026-05-09T11:10:29Z</time>
      </trkpt>
      <trkpt lat="46.16354" lon="5.32">
        <ele>290.4</ele>
        <time>2026-05-09T11:10:30Z</time>
      </trkpt>
      <trkpt lat="46.16354" lon="5.32005">
        <ele>290.6</ele>
        <time>2026-05-09T11:10:31Z</time>
      </trkpt>
      <trkpt lat="46.16355" lon="5.32008">
        <ele>290.6</ele>
        <time>2026-05-09T11:10:32Z</time>
      </trkpt>
      <trkpt lat="46.16355" lon="5.32011">
        <ele>291</ele>
        <time>2026-05-09T11:10:33Z</time>
      </trkpt>
      <trkpt lat="46.16355" lon="5.32013">
        <ele>291.2</ele>
        <time>2026-05-09T11:10:34Z</time>
      </trkpt>
      <trkpt lat="46.16356" lon="5.32016">
        <ele>291.2</ele>
        <time>2026-05-09T11:10:35Z</time>
      </trkpt>
      <trkpt lat="46.16356" lon="5.32019">
        <ele>291.6</ele>
        <time>2026-05-09T11:10:36Z</time>
      </trkpt>
      <trkpt lat="46.16356" lon="5.32021">
        <ele>292</ele>
        <time>2026-05-09T11:10:37Z</time>
      </trkpt>
      <trkpt lat="46.16357" lon="5.32024">
        <ele>292</ele>
        <time>2026-05-09T11:10:38Z</time>
      </trkpt>
      <trkpt lat="46.16357" lon="5.32027">
        <ele>292.4</ele>
        <time>2026-05-09T11:10:39Z</time>
      </trkpt>
      <trkpt lat="46.16357" lon="5.3203">
        <ele>292.4</ele>
        <time>2026-05-09T11:10:40Z</time>
      </trkpt>
      <trkpt lat="46.16357" lon="5.32032">
        <ele>292.8</ele>
        <time>2026-05-09T11:10:41Z</time>
      </trkpt>
      <trkpt lat="46.16358" lon="5.32035">
        <ele>293</ele>
        <time>2026-05-09T11:10:42Z</time>
      </trkpt>
      <trkpt lat="46.16358" lon="5.32038">
        <ele>293.2</ele>
        <time>2026-05-09T11:10:43Z</time>
      </trkpt>
      <trkpt lat="46.16358" lon="5.32041">
        <ele>293.2</ele>
        <time>2026-05-09T11:10:44Z</time>
      </trkpt>
      <trkpt lat="46.16358" lon="5.32044">
        <ele>293.2</ele>
        <time>2026-05-09T11:10:45Z</time>
      </trkpt>
      <trkpt lat="46.16358" lon="5.32047">
        <ele>293.6</ele>
        <time>2026-05-09T11:10:46Z</time>
      </trkpt>
      <trkpt lat="46.16358" lon="5.3205">
        <ele>293.6</ele>
        <time>2026-05-09T11:10:47Z</time>
      </trkpt>
      <trkpt lat="46.16358" lon="5.32053">
        <ele>294</ele>
        <time>2026-05-09T11:10:48Z</time>
      </trkpt>
      <trkpt lat="46.16358" lon="5.32055">
        <ele>294</ele>
        <time>2026-05-09T11:10:49Z</time>
      </trkpt>
      <trkpt lat="46.16358" lon="5.32058">
        <ele>294</ele>
        <time>2026-05-09T11:10:50Z</time>
      </trkpt>
      <trkpt lat="46.16358" lon="5.32061">
        <ele>294.4</ele>
        <time>2026-05-09T11:10:51Z</time>
      </trkpt>
      <trkpt lat="46.16359" lon="5.32064">
        <ele>294.6</ele>
        <time>2026-05-09T11:10:52Z</time>
      </trkpt>
      <trkpt lat="46.16359" lon="5.32067">
        <ele>294.6</ele>
        <time>2026-05-09T11:10:53Z</time>
      </trkpt>
      <trkpt lat="46.16359" lon="5.3207">
        <ele>294.6</ele>
        <time>2026-05-09T11:10:54Z</time>
      </trkpt>
      <trkpt lat="46.16359" lon="5.32073">
        <ele>294.8</ele>
        <time>2026-05-09T11:10:55Z</time>
      </trkpt>
      <trkpt lat="46.16359" lon="5.32077">
        <ele>294.8</ele>
        <time>2026-05-09T11:10:56Z</time>
      </trkpt>
      <trkpt lat="46.16359" lon="5.3208">
        <ele>295</ele>
        <time>2026-05-09T11:10:57Z</time>
      </trkpt>
      <trkpt lat="46.16359" lon="5.32083">
        <ele>295.4</ele>
        <time>2026-05-09T11:10:58Z</time>
      </trkpt>
      <trkpt lat="46.16359" lon="5.32086">
        <ele>295.4</ele>
        <time>2026-05-09T11:10:59Z</time>
      </trkpt>
      <trkpt lat="46.16359" lon="5.32089">
        <ele>295.6</ele>
        <time>2026-05-09T11:11:00Z</time>
      </trkpt>
      <trkpt lat="46.16359" lon="5.32092">
        <ele>295.6</ele>
        <time>2026-05-09T11:11:01Z</time>
      </trkpt>
      <trkpt lat="46.1636" lon="5.32096">
        <ele>295.6</ele>
        <time>2026-05-09T11:11:02Z</time>
      </trkpt>
      <trkpt lat="46.1636" lon="5.32099">
        <ele>295.8</ele>
        <time>2026-05-09T11:11:03Z</time>
      </trkpt>
      <trkpt lat="46.1636" lon="5.32102">
        <ele>295.8</ele>
        <time>2026-05-09T11:11:04Z</time>
      </trkpt>
      <trkpt lat="46.1636" lon="5.32105">
        <ele>295.8</ele>
        <time>2026-05-09T11:11:05Z</time>
      </trkpt>
      <trkpt lat="46.16361" lon="5.32108">
        <ele>296</ele>
        <time>2026-05-09T11:11:06Z</time>
      </trkpt>
      <trkpt lat="46.16361" lon="5.3211">
        <ele>296</ele>
        <time>2026-05-09T11:11:07Z</time>
      </trkpt>
      <trkpt lat="46.16361" lon="5.32113">
        <ele>296</ele>
        <time>2026-05-09T11:11:08Z</time>
      </trkpt>
      <trkpt lat="46.16361" lon="5.32117">
        <ele>296.4</ele>
        <time>2026-05-09T11:11:09Z</time>
      </trkpt>
      <trkpt lat="46.16361" lon="5.3212">
        <ele>296.4</ele>
        <time>2026-05-09T11:11:10Z</time>
      </trkpt>
      <trkpt lat="46.16361" lon="5.32123">
        <ele>296.8</ele>
        <time>2026-05-09T11:11:11Z</time>
      </trkpt>
      <trkpt lat="46.16361" lon="5.32127">
        <ele>296.8</ele>
        <time>2026-05-09T11:11:12Z</time>
      </trkpt>
      <trkpt lat="46.16361" lon="5.3213">
        <ele>296.8</ele>
        <time>2026-05-09T11:11:13Z</time>
      </trkpt>
      <trkpt lat="46.16361" lon="5.32133">
        <ele>297.2</ele>
        <time>2026-05-09T11:11:14Z</time>
      </trkpt>
      <trkpt lat="46.16361" lon="5.32136">
        <ele>297.2</ele>
        <time>2026-05-09T11:11:15Z</time>
      </trkpt>
      <trkpt lat="46.16361" lon="5.32139">
        <ele>297.4</ele>
        <time>2026-05-09T11:11:16Z</time>
      </trkpt>
      <trkpt lat="46.16361" lon="5.32143">
        <ele>297.4</ele>
        <time>2026-05-09T11:11:17Z</time>
      </trkpt>
      <trkpt lat="46.16361" lon="5.32146">
        <ele>297.8</ele>
        <time>2026-05-09T11:11:18Z</time>
      </trkpt>
      <trkpt lat="46.16361" lon="5.32149">
        <ele>297.8</ele>
        <time>2026-05-09T11:11:19Z</time>
      </trkpt>
      <trkpt lat="46.16361" lon="5.32152">
        <ele>297.8</ele>
        <time>2026-05-09T11:11:20Z</time>
      </trkpt>
      <trkpt lat="46.1636" lon="5.32155">
        <ele>297.8</ele>
        <time>2026-05-09T11:11:21Z</time>
      </trkpt>
      <trkpt lat="46.1636" lon="5.32159">
        <ele>298</ele>
        <time>2026-05-09T11:11:22Z</time>
      </trkpt>
      <trkpt lat="46.1636" lon="5.32163">
        <ele>298</ele>
        <time>2026-05-09T11:11:23Z</time>
      </trkpt>
      <trkpt lat="46.1636" lon="5.32166">
        <ele>298</ele>
        <time>2026-05-09T11:11:24Z</time>
      </trkpt>
      <trkpt lat="46.1636" lon="5.3217">
        <ele>298.4</ele>
        <time>2026-05-09T11:11:25Z</time>
      </trkpt>
      <trkpt lat="46.16361" lon="5.32174">
        <ele>298.6</ele>
        <time>2026-05-09T11:11:26Z</time>
      </trkpt>
      <trkpt lat="46.16361" lon="5.32178">
        <ele>298.8</ele>
        <time>2026-05-09T11:11:27Z</time>
      </trkpt>
      <trkpt lat="46.16361" lon="5.32182">
        <ele>298.8</ele>
        <time>2026-05-09T11:11:28Z</time>
      </trkpt>
      <trkpt lat="46.16361" lon="5.32186">
        <ele>299</ele>
        <time>2026-05-09T11:11:29Z</time>
      </trkpt>
      <trkpt lat="46.16361" lon="5.32189">
        <ele>299</ele>
        <time>2026-05-09T11:11:30Z</time>
      </trkpt>
      <trkpt lat="46.16361" lon="5.32193">
        <ele>299</ele>
        <time>2026-05-09T11:11:31Z</time>
      </trkpt>
      <trkpt lat="46.16361" lon="5.32197">
        <ele>299.4</ele>
        <time>2026-05-09T11:11:32Z</time>
      </trkpt>
      <trkpt lat="46.16361" lon="5.322">
        <ele>299.4</ele>
        <time>2026-05-09T11:11:33Z</time>
      </trkpt>
      <trkpt lat="46.16361" lon="5.32204">
        <ele>299.4</ele>
        <time>2026-05-09T11:11:34Z</time>
      </trkpt>
      <trkpt lat="46.16361" lon="5.32208">
        <ele>299.4</ele>
        <time>2026-05-09T11:11:35Z</time>
      </trkpt>
      <trkpt lat="46.16361" lon="5.32212">
        <ele>299.4</ele>
        <time>2026-05-09T11:11:36Z</time>
      </trkpt>
      <trkpt lat="46.16361" lon="5.32216">
        <ele>299.4</ele>
        <time>2026-05-09T11:11:37Z</time>
      </trkpt>
      <trkpt lat="46.16361" lon="5.3222">
        <ele>299.4</ele>
        <time>2026-05-09T11:11:38Z</time>
      </trkpt>
      <trkpt lat="46.16362" lon="5.32224">
        <ele>299.4</ele>
        <time>2026-05-09T11:11:39Z</time>
      </trkpt>
      <trkpt lat="46.16362" lon="5.32228">
        <ele>299.6</ele>
        <time>2026-05-09T11:11:40Z</time>
      </trkpt>
      <trkpt lat="46.16362" lon="5.32232">
        <ele>299.6</ele>
        <time>2026-05-09T11:11:41Z</time>
      </trkpt>
      <trkpt lat="46.16362" lon="5.32236">
        <ele>299.8</ele>
        <time>2026-05-09T11:11:42Z</time>
      </trkpt>
      <trkpt lat="46.16362" lon="5.32239">
        <ele>299.8</ele>
        <time>2026-05-09T11:11:43Z</time>
      </trkpt>
      <trkpt lat="46.16363" lon="5.32243">
        <ele>299.8</ele>
        <time>2026-05-09T11:11:44Z</time>
      </trkpt>
      <trkpt lat="46.16363" lon="5.32247">
        <ele>299.8</ele>
        <time>2026-05-09T11:11:45Z</time>
      </trkpt>
      <trkpt lat="46.16363" lon="5.3225">
        <ele>299.8</ele>
        <time>2026-05-09T11:11:46Z</time>
      </trkpt>
      <trkpt lat="46.16363" lon="5.32254">
        <ele>299.8</ele>
        <time>2026-05-09T11:11:47Z</time>
      </trkpt>
      <trkpt lat="46.16363" lon="5.32258">
        <ele>299.8</ele>
        <time>2026-05-09T11:11:48Z</time>
      </trkpt>
      <trkpt lat="46.16363" lon="5.32262">
        <ele>300</ele>
        <time>2026-05-09T11:11:49Z</time>
      </trkpt>
      <trkpt lat="46.16363" lon="5.32266">
        <ele>300</ele>
        <time>2026-05-09T11:11:50Z</time>
      </trkpt>
      <trkpt lat="46.16363" lon="5.3227">
        <ele>300</ele>
        <time>2026-05-09T11:11:51Z</time>
      </trkpt>
      <trkpt lat="46.16363" lon="5.32274">
        <ele>300</ele>
        <time>2026-05-09T11:11:52Z</time>
      </trkpt>
      <trkpt lat="46.16363" lon="5.32278">
        <ele>300.4</ele>
        <time>2026-05-09T11:11:53Z</time>
      </trkpt>
      <trkpt lat="46.16363" lon="5.32282">
        <ele>300.4</ele>
        <time>2026-05-09T11:11:54Z</time>
      </trkpt>
      <trkpt lat="46.16364" lon="5.32286">
        <ele>300.6</ele>
        <time>2026-05-09T11:11:55Z</time>
      </trkpt>
      <trkpt lat="46.16364" lon="5.3229">
        <ele>300.6</ele>
        <time>2026-05-09T11:11:56Z</time>
      </trkpt>
      <trkpt lat="46.16363" lon="5.32294">
        <ele>300.6</ele>
        <time>2026-05-09T11:11:57Z</time>
      </trkpt>
      <trkpt lat="46.16363" lon="5.32298">
        <ele>300.8</ele>
        <time>2026-05-09T11:11:58Z</time>
      </trkpt>
      <trkpt lat="46.16363" lon="5.32302">
        <ele>300.8</ele>
        <time>2026-05-09T11:11:59Z</time>
      </trkpt>
      <trkpt lat="46.16363" lon="5.32306">
        <ele>300.8</ele>
        <time>2026-05-09T11:12:00Z</time>
      </trkpt>
      <trkpt lat="46.16363" lon="5.32311">
        <ele>300.8</ele>
        <time>2026-05-09T11:12:01Z</time>
      </trkpt>
      <trkpt lat="46.16363" lon="5.32315">
        <ele>301.2</ele>
        <time>2026-05-09T11:12:02Z</time>
      </trkpt>
      <trkpt lat="46.16363" lon="5.32319">
        <ele>301.2</ele>
        <time>2026-05-09T11:12:03Z</time>
      </trkpt>
      <trkpt lat="46.16363" lon="5.32323">
        <ele>301.2</ele>
        <time>2026-05-09T11:12:04Z</time>
      </trkpt>
      <trkpt lat="46.16363" lon="5.32327">
        <ele>301.2</ele>
        <time>2026-05-09T11:12:05Z</time>
      </trkpt>
      <trkpt lat="46.16363" lon="5.32331">
        <ele>301.2</ele>
        <time>2026-05-09T11:12:06Z</time>
      </trkpt>
      <trkpt lat="46.16364" lon="5.32335">
        <ele>301.2</ele>
        <time>2026-05-09T11:12:07Z</time>
      </trkpt>
      <trkpt lat="46.16363" lon="5.3234">
        <ele>301.2</ele>
        <time>2026-05-09T11:12:08Z</time>
      </trkpt>
      <trkpt lat="46.16363" lon="5.32344">
        <ele>301.4</ele>
        <time>2026-05-09T11:12:09Z</time>
      </trkpt>
      <trkpt lat="46.16363" lon="5.32344">
        <ele>301.4</ele>
        <time>2026-05-09T11:12:10Z</time>
      </trkpt>
      <trkpt lat="46.16363" lon="5.32348">
        <ele>301.4</ele>
        <time>2026-05-09T11:12:11Z</time>
      </trkpt>
      <trkpt lat="46.16364" lon="5.32352">
        <ele>301.4</ele>
        <time>2026-05-09T11:12:12Z</time>
      </trkpt>
      <trkpt lat="46.16364" lon="5.32356">
        <ele>301.8</ele>
        <time>2026-05-09T11:12:13Z</time>
      </trkpt>
      <trkpt lat="46.16364" lon="5.3236">
        <ele>301.8</ele>
        <time>2026-05-09T11:12:14Z</time>
      </trkpt>
      <trkpt lat="46.16364" lon="5.32364">
        <ele>301.8</ele>
        <time>2026-05-09T11:12:15Z</time>
      </trkpt>
      <trkpt lat="46.16364" lon="5.32368">
        <ele>301.8</ele>
        <time>2026-05-09T11:12:16Z</time>
      </trkpt>
      <trkpt lat="46.16365" lon="5.32372">
        <ele>302</ele>
        <time>2026-05-09T11:12:17Z</time>
      </trkpt>
      <trkpt lat="46.16365" lon="5.32376">
        <ele>302.2</ele>
        <time>2026-05-09T11:12:18Z</time>
      </trkpt>
      <trkpt lat="46.16365" lon="5.32381">
        <ele>302.2</ele>
        <time>2026-05-09T11:12:19Z</time>
      </trkpt>
      <trkpt lat="46.16365" lon="5.32385">
        <ele>302.4</ele>
        <time>2026-05-09T11:12:20Z</time>
      </trkpt>
      <trkpt lat="46.16366" lon="5.32389">
        <ele>302.4</ele>
        <time>2026-05-09T11:12:21Z</time>
      </trkpt>
      <trkpt lat="46.16366" lon="5.32393">
        <ele>302.4</ele>
        <time>2026-05-09T11:12:22Z</time>
      </trkpt>
      <trkpt lat="46.16367" lon="5.32397">
        <ele>302.8</ele>
        <time>2026-05-09T11:12:23Z</time>
      </trkpt>
      <trkpt lat="46.16367" lon="5.32401">
        <ele>302.8</ele>
        <time>2026-05-09T11:12:24Z</time>
      </trkpt>
      <trkpt lat="46.16367" lon="5.32404">
        <ele>303</ele>
        <time>2026-05-09T11:12:25Z</time>
      </trkpt>
      <trkpt lat="46.16367" lon="5.32409">
        <ele>303</ele>
        <time>2026-05-09T11:12:26Z</time>
      </trkpt>
      <trkpt lat="46.16368" lon="5.32413">
        <ele>303</ele>
        <time>2026-05-09T11:12:27Z</time>
      </trkpt>
      <trkpt lat="46.16368" lon="5.32417">
        <ele>303</ele>
        <time>2026-05-09T11:12:28Z</time>
      </trkpt>
      <trkpt lat="46.16369" lon="5.32421">
        <ele>303.2</ele>
        <time>2026-05-09T11:12:29Z</time>
      </trkpt>
      <trkpt lat="46.16369" lon="5.32424">
        <ele>303.2</ele>
        <time>2026-05-09T11:12:30Z</time>
      </trkpt>
      <trkpt lat="46.1637" lon="5.32429">
        <ele>303.2</ele>
        <time>2026-05-09T11:12:31Z</time>
      </trkpt>
      <trkpt lat="46.16371" lon="5.32432">
        <ele>303.4</ele>
        <time>2026-05-09T11:12:32Z</time>
      </trkpt>
      <trkpt lat="46.16372" lon="5.32436">
        <ele>303.4</ele>
        <time>2026-05-09T11:12:33Z</time>
      </trkpt>
      <trkpt lat="46.16372" lon="5.3244">
        <ele>303.6</ele>
        <time>2026-05-09T11:12:34Z</time>
      </trkpt>
      <trkpt lat="46.16373" lon="5.32444">
        <ele>303.6</ele>
        <time>2026-05-09T11:12:35Z</time>
      </trkpt>
      <trkpt lat="46.16374" lon="5.32447">
        <ele>304</ele>
        <time>2026-05-09T11:12:36Z</time>
      </trkpt>
      <trkpt lat="46.16374" lon="5.32451">
        <ele>304</ele>
        <time>2026-05-09T11:12:37Z</time>
      </trkpt>
      <trkpt lat="46.16375" lon="5.32455">
        <ele>304</ele>
        <time>2026-05-09T11:12:38Z</time>
      </trkpt>
      <trkpt lat="46.16375" lon="5.32458">
        <ele>304.2</ele>
        <time>2026-05-09T11:12:39Z</time>
      </trkpt>
      <trkpt lat="46.16376" lon="5.32462">
        <ele>304.2</ele>
        <time>2026-05-09T11:12:40Z</time>
      </trkpt>
      <trkpt lat="46.16376" lon="5.32465">
        <ele>304.2</ele>
        <time>2026-05-09T11:12:41Z</time>
      </trkpt>
      <trkpt lat="46.16376" lon="5.32469">
        <ele>304.6</ele>
        <time>2026-05-09T11:12:42Z</time>
      </trkpt>
      <trkpt lat="46.16377" lon="5.32472">
        <ele>304.8</ele>
        <time>2026-05-09T11:12:43Z</time>
      </trkpt>
      <trkpt lat="46.16377" lon="5.32476">
        <ele>304.8</ele>
        <time>2026-05-09T11:12:44Z</time>
      </trkpt>
      <trkpt lat="46.16378" lon="5.32479">
        <ele>305</ele>
        <time>2026-05-09T11:12:45Z</time>
      </trkpt>
      <trkpt lat="46.16378" lon="5.32482">
        <ele>305</ele>
        <time>2026-05-09T11:12:46Z</time>
      </trkpt>
      <trkpt lat="46.16379" lon="5.32485">
        <ele>305.2</ele>
        <time>2026-05-09T11:12:47Z</time>
      </trkpt>
      <trkpt lat="46.16379" lon="5.32488">
        <ele>305.2</ele>
        <time>2026-05-09T11:12:48Z</time>
      </trkpt>
      <trkpt lat="46.1638" lon="5.32491">
        <ele>305.2</ele>
        <time>2026-05-09T11:12:49Z</time>
      </trkpt>
      <trkpt lat="46.1638" lon="5.32494">
        <ele>305.2</ele>
        <time>2026-05-09T11:12:50Z</time>
      </trkpt>
      <trkpt lat="46.16381" lon="5.32497">
        <ele>305.2</ele>
        <time>2026-05-09T11:12:51Z</time>
      </trkpt>
      <trkpt lat="46.16381" lon="5.32501">
        <ele>305.6</ele>
        <time>2026-05-09T11:12:52Z</time>
      </trkpt>
      <trkpt lat="46.16381" lon="5.32504">
        <ele>305.8</ele>
        <time>2026-05-09T11:12:53Z</time>
      </trkpt>
      <trkpt lat="46.16382" lon="5.32507">
        <ele>305.8</ele>
        <time>2026-05-09T11:12:54Z</time>
      </trkpt>
      <trkpt lat="46.16382" lon="5.3251">
        <ele>305.8</ele>
        <time>2026-05-09T11:12:55Z</time>
      </trkpt>
      <trkpt lat="46.16383" lon="5.32514">
        <ele>306.2</ele>
        <time>2026-05-09T11:12:56Z</time>
      </trkpt>
      <trkpt lat="46.16383" lon="5.32517">
        <ele>306.2</ele>
        <time>2026-05-09T11:12:57Z</time>
      </trkpt>
      <trkpt lat="46.16384" lon="5.3252">
        <ele>306.6</ele>
        <time>2026-05-09T11:12:58Z</time>
      </trkpt>
      <trkpt lat="46.16384" lon="5.32523">
        <ele>306.6</ele>
        <time>2026-05-09T11:12:59Z</time>
      </trkpt>
      <trkpt lat="46.16385" lon="5.32526">
        <ele>306.8</ele>
        <time>2026-05-09T11:13:00Z</time>
      </trkpt>
      <trkpt lat="46.16386" lon="5.3253">
        <ele>307</ele>
        <time>2026-05-09T11:13:01Z</time>
      </trkpt>
      <trkpt lat="46.16386" lon="5.32533">
        <ele>307.2</ele>
        <time>2026-05-09T11:13:02Z</time>
      </trkpt>
      <trkpt lat="46.16386" lon="5.32537">
        <ele>307.2</ele>
        <time>2026-05-09T11:13:03Z</time>
      </trkpt>
      <trkpt lat="46.16387" lon="5.3254">
        <ele>307.2</ele>
        <time>2026-05-09T11:13:04Z</time>
      </trkpt>
      <trkpt lat="46.16388" lon="5.32544">
        <ele>307.4</ele>
        <time>2026-05-09T11:13:05Z</time>
      </trkpt>
      <trkpt lat="46.16388" lon="5.32547">
        <ele>307.4</ele>
        <time>2026-05-09T11:13:06Z</time>
      </trkpt>
      <trkpt lat="46.16388" lon="5.32551">
        <ele>307.4</ele>
        <time>2026-05-09T11:13:07Z</time>
      </trkpt>
      <trkpt lat="46.16389" lon="5.32554">
        <ele>307.8</ele>
        <time>2026-05-09T11:13:08Z</time>
      </trkpt>
      <trkpt lat="46.16389" lon="5.32558">
        <ele>307.8</ele>
        <time>2026-05-09T11:13:09Z</time>
      </trkpt>
      <trkpt lat="46.16389" lon="5.32561">
        <ele>307.8</ele>
        <time>2026-05-09T11:13:10Z</time>
      </trkpt>
      <trkpt lat="46.1639" lon="5.32565">
        <ele>308</ele>
        <time>2026-05-09T11:13:11Z</time>
      </trkpt>
      <trkpt lat="46.16391" lon="5.32568">
        <ele>308</ele>
        <time>2026-05-09T11:13:12Z</time>
      </trkpt>
      <trkpt lat="46.16391" lon="5.32571">
        <ele>308.2</ele>
        <time>2026-05-09T11:13:13Z</time>
      </trkpt>
      <trkpt lat="46.16391" lon="5.32575">
        <ele>308.2</ele>
        <time>2026-05-09T11:13:14Z</time>
      </trkpt>
      <trkpt lat="46.16391" lon="5.32578">
        <ele>308.2</ele>
        <time>2026-05-09T11:13:15Z</time>
      </trkpt>
      <trkpt lat="46.16391" lon="5.32581">
        <ele>308.4</ele>
        <time>2026-05-09T11:13:16Z</time>
      </trkpt>
      <trkpt lat="46.16392" lon="5.32584">
        <ele>308.4</ele>
        <time>2026-05-09T11:13:17Z</time>
      </trkpt>
      <trkpt lat="46.16392" lon="5.32588">
        <ele>308.8</ele>
        <time>2026-05-09T11:13:18Z</time>
      </trkpt>
      <trkpt lat="46.16392" lon="5.32591">
        <ele>308.8</ele>
        <time>2026-05-09T11:13:19Z</time>
      </trkpt>
      <trkpt lat="46.16392" lon="5.32594">
        <ele>309.2</ele>
        <time>2026-05-09T11:13:20Z</time>
      </trkpt>
      <trkpt lat="46.16392" lon="5.32597">
        <ele>309.2</ele>
        <time>2026-05-09T11:13:21Z</time>
      </trkpt>
      <trkpt lat="46.16392" lon="5.326">
        <ele>309.4</ele>
        <time>2026-05-09T11:13:22Z</time>
      </trkpt>
      <trkpt lat="46.16392" lon="5.32603">
        <ele>309.6</ele>
        <time>2026-05-09T11:13:23Z</time>
      </trkpt>
      <trkpt lat="46.16392" lon="5.32606">
        <ele>309.6</ele>
        <time>2026-05-09T11:13:24Z</time>
      </trkpt>
      <trkpt lat="46.16391" lon="5.32609">
        <ele>309.8</ele>
        <time>2026-05-09T11:13:25Z</time>
      </trkpt>
      <trkpt lat="46.16391" lon="5.32612">
        <ele>309.8</ele>
        <time>2026-05-09T11:13:26Z</time>
      </trkpt>
      <trkpt lat="46.16391" lon="5.32612">
        <ele>310</ele>
        <time>2026-05-09T11:13:27Z</time>
      </trkpt>
      <trkpt lat="46.16391" lon="5.32612">
        <ele>310</ele>
        <time>2026-05-09T11:13:28Z</time>
      </trkpt>
      <trkpt lat="46.1639" lon="5.3262">
        <ele>310</ele>
        <time>2026-05-09T11:13:29Z</time>
      </trkpt>
      <trkpt lat="46.16389" lon="5.32622">
        <ele>310</ele>
        <time>2026-05-09T11:13:30Z</time>
      </trkpt>
      <trkpt lat="46.16389" lon="5.32625">
        <ele>310.4</ele>
        <time>2026-05-09T11:13:31Z</time>
      </trkpt>
      <trkpt lat="46.16389" lon="5.32627">
        <ele>310.4</ele>
        <time>2026-05-09T11:13:32Z</time>
      </trkpt>
      <trkpt lat="46.16389" lon="5.3263">
        <ele>310.8</ele>
        <time>2026-05-09T11:13:33Z</time>
      </trkpt>
      <trkpt lat="46.16389" lon="5.32632">
        <ele>311</ele>
        <time>2026-05-09T11:13:34Z</time>
      </trkpt>
      <trkpt lat="46.16389" lon="5.32635">
        <ele>311.4</ele>
        <time>2026-05-09T11:13:35Z</time>
      </trkpt>
      <trkpt lat="46.16389" lon="5.32638">
        <ele>311.6</ele>
        <time>2026-05-09T11:13:36Z</time>
      </trkpt>
      <trkpt lat="46.16389" lon="5.32641">
        <ele>311.6</ele>
        <time>2026-05-09T11:13:37Z</time>
      </trkpt>
      <trkpt lat="46.16389" lon="5.32644">
        <ele>311.8</ele>
        <time>2026-05-09T11:13:38Z</time>
      </trkpt>
      <trkpt lat="46.16388" lon="5.32647">
        <ele>311.8</ele>
        <time>2026-05-09T11:13:39Z</time>
      </trkpt>
      <trkpt lat="46.16388" lon="5.32649">
        <ele>312.2</ele>
        <time>2026-05-09T11:13:40Z</time>
      </trkpt>
      <trkpt lat="46.16387" lon="5.32651">
        <ele>312.4</ele>
        <time>2026-05-09T11:13:41Z</time>
      </trkpt>
      <trkpt lat="46.16387" lon="5.32654">
        <ele>312.4</ele>
        <time>2026-05-09T11:13:42Z</time>
      </trkpt>
      <trkpt lat="46.16387" lon="5.32656">
        <ele>312.4</ele>
        <time>2026-05-09T11:13:43Z</time>
      </trkpt>
      <trkpt lat="46.16386" lon="5.32659">
        <ele>312.8</ele>
        <time>2026-05-09T11:13:44Z</time>
      </trkpt>
      <trkpt lat="46.16386" lon="5.32661">
        <ele>312.8</ele>
        <time>2026-05-09T11:13:45Z</time>
      </trkpt>
      <trkpt lat="46.16385" lon="5.32664">
        <ele>313</ele>
        <time>2026-05-09T11:13:46Z</time>
      </trkpt>
      <trkpt lat="46.16385" lon="5.32666">
        <ele>313.4</ele>
        <time>2026-05-09T11:13:47Z</time>
      </trkpt>
      <trkpt lat="46.16384" lon="5.32668">
        <ele>313.4</ele>
        <time>2026-05-09T11:13:48Z</time>
      </trkpt>
      <trkpt lat="46.16384" lon="5.32671">
        <ele>313.4</ele>
        <time>2026-05-09T11:13:49Z</time>
      </trkpt>
      <trkpt lat="46.16384" lon="5.32673">
        <ele>313.6</ele>
        <time>2026-05-09T11:13:50Z</time>
      </trkpt>
      <trkpt lat="46.16383" lon="5.32676">
        <ele>313.6</ele>
        <time>2026-05-09T11:13:51Z</time>
      </trkpt>
      <trkpt lat="46.16383" lon="5.32678">
        <ele>314</ele>
        <time>2026-05-09T11:13:52Z</time>
      </trkpt>
      <trkpt lat="46.16383" lon="5.3268">
        <ele>314</ele>
        <time>2026-05-09T11:13:53Z</time>
      </trkpt>
      <trkpt lat="46.16382" lon="5.32682">
        <ele>314.4</ele>
        <time>2026-05-09T11:13:54Z</time>
      </trkpt>
      <trkpt lat="46.16382" lon="5.32684">
        <ele>314.4</ele>
        <time>2026-05-09T11:13:55Z</time>
      </trkpt>
      <trkpt lat="46.16381" lon="5.32687">
        <ele>314.8</ele>
        <time>2026-05-09T11:13:56Z</time>
      </trkpt>
      <trkpt lat="46.16381" lon="5.32689">
        <ele>314.8</ele>
        <time>2026-05-09T11:13:57Z</time>
      </trkpt>
      <trkpt lat="46.1638" lon="5.32691">
        <ele>315.2</ele>
        <time>2026-05-09T11:13:58Z</time>
      </trkpt>
      <trkpt lat="46.16379" lon="5.32694">
        <ele>315.6</ele>
        <time>2026-05-09T11:13:59Z</time>
      </trkpt>
      <trkpt lat="46.16378" lon="5.32696">
        <ele>315.8</ele>
        <time>2026-05-09T11:14:00Z</time>
      </trkpt>
      <trkpt lat="46.16378" lon="5.32696">
        <ele>315.8</ele>
        <time>2026-05-09T11:14:01Z</time>
      </trkpt>
      <trkpt lat="46.16376" lon="5.32701">
        <ele>316.2</ele>
        <time>2026-05-09T11:14:02Z</time>
      </trkpt>
      <trkpt lat="46.16376" lon="5.32703">
        <ele>316.4</ele>
        <time>2026-05-09T11:14:03Z</time>
      </trkpt>
      <trkpt lat="46.16375" lon="5.32706">
        <ele>316.6</ele>
        <time>2026-05-09T11:14:04Z</time>
      </trkpt>
      <trkpt lat="46.16374" lon="5.32708">
        <ele>316.6</ele>
        <time>2026-05-09T11:14:05Z</time>
      </trkpt>
      <trkpt lat="46.16374" lon="5.32711">
        <ele>316.8</ele>
        <time>2026-05-09T11:14:06Z</time>
      </trkpt>
      <trkpt lat="46.16373" lon="5.32713">
        <ele>317.2</ele>
        <time>2026-05-09T11:14:07Z</time>
      </trkpt>
      <trkpt lat="46.16372" lon="5.32715">
        <ele>317.2</ele>
        <time>2026-05-09T11:14:08Z</time>
      </trkpt>
      <trkpt lat="46.16371" lon="5.32717">
        <ele>317.6</ele>
        <time>2026-05-09T11:14:09Z</time>
      </trkpt>
      <trkpt lat="46.1637" lon="5.32719">
        <ele>317.8</ele>
        <time>2026-05-09T11:14:10Z</time>
      </trkpt>
      <trkpt lat="46.16369" lon="5.32721">
        <ele>318</ele>
        <time>2026-05-09T11:14:11Z</time>
      </trkpt>
      <trkpt lat="46.16368" lon="5.32723">
        <ele>318.4</ele>
        <time>2026-05-09T11:14:12Z</time>
      </trkpt>
      <trkpt lat="46.16367" lon="5.32725">
        <ele>318.4</ele>
        <time>2026-05-09T11:14:13Z</time>
      </trkpt>
      <trkpt lat="46.16366" lon="5.32727">
        <ele>318.8</ele>
        <time>2026-05-09T11:14:14Z</time>
      </trkpt>
      <trkpt lat="46.16365" lon="5.32728">
        <ele>319</ele>
        <time>2026-05-09T11:14:15Z</time>
      </trkpt>
      <trkpt lat="46.16363" lon="5.3273">
        <ele>319</ele>
        <time>2026-05-09T11:14:16Z</time>
      </trkpt>
      <trkpt lat="46.16362" lon="5.32732">
        <ele>319.2</ele>
        <time>2026-05-09T11:14:17Z</time>
      </trkpt>
      <trkpt lat="46.1636" lon="5.32733">
        <ele>319.6</ele>
        <time>2026-05-09T11:14:18Z</time>
      </trkpt>
      <trkpt lat="46.16359" lon="5.32735">
        <ele>319.6</ele>
        <time>2026-05-09T11:14:19Z</time>
      </trkpt>
      <trkpt lat="46.16358" lon="5.32737">
        <ele>319.8</ele>
        <time>2026-05-09T11:14:20Z</time>
      </trkpt>
      <trkpt lat="46.16357" lon="5.32738">
        <ele>319.8</ele>
        <time>2026-05-09T11:14:21Z</time>
      </trkpt>
      <trkpt lat="46.16356" lon="5.3274">
        <ele>320</ele>
        <time>2026-05-09T11:14:22Z</time>
      </trkpt>
      <trkpt lat="46.16355" lon="5.32742">
        <ele>320</ele>
        <time>2026-05-09T11:14:23Z</time>
      </trkpt>
      <trkpt lat="46.16354" lon="5.32745">
        <ele>320.2</ele>
        <time>2026-05-09T11:14:24Z</time>
      </trkpt>
      <trkpt lat="46.16352" lon="5.32747">
        <ele>320.6</ele>
        <time>2026-05-09T11:14:25Z</time>
      </trkpt>
      <trkpt lat="46.16351" lon="5.32749">
        <ele>320.6</ele>
        <time>2026-05-09T11:14:26Z</time>
      </trkpt>
      <trkpt lat="46.16349" lon="5.32751">
        <ele>320.6</ele>
        <time>2026-05-09T11:14:27Z</time>
      </trkpt>
      <trkpt lat="46.16348" lon="5.32753">
        <ele>320.8</ele>
        <time>2026-05-09T11:14:28Z</time>
      </trkpt>
      <trkpt lat="46.16346" lon="5.32755">
        <ele>321.2</ele>
        <time>2026-05-09T11:14:29Z</time>
      </trkpt>
      <trkpt lat="46.16344" lon="5.32757">
        <ele>321.2</ele>
        <time>2026-05-09T11:14:30Z</time>
      </trkpt>
      <trkpt lat="46.16343" lon="5.32759">
        <ele>321.2</ele>
        <time>2026-05-09T11:14:31Z</time>
      </trkpt>
      <trkpt lat="46.16342" lon="5.32761">
        <ele>321.4</ele>
        <time>2026-05-09T11:14:32Z</time>
      </trkpt>
      <trkpt lat="46.1634" lon="5.32763">
        <ele>321.4</ele>
        <time>2026-05-09T11:14:33Z</time>
      </trkpt>
      <trkpt lat="46.16339" lon="5.32765">
        <ele>321.6</ele>
        <time>2026-05-09T11:14:34Z</time>
      </trkpt>
      <trkpt lat="46.16338" lon="5.32767">
        <ele>321.6</ele>
        <time>2026-05-09T11:14:35Z</time>
      </trkpt>
      <trkpt lat="46.16337" lon="5.32769">
        <ele>321.6</ele>
        <time>2026-05-09T11:14:36Z</time>
      </trkpt>
      <trkpt lat="46.16336" lon="5.32771">
        <ele>321.6</ele>
        <time>2026-05-09T11:14:37Z</time>
      </trkpt>
      <trkpt lat="46.16335" lon="5.32773">
        <ele>322</ele>
        <time>2026-05-09T11:14:38Z</time>
      </trkpt>
      <trkpt lat="46.16333" lon="5.32776">
        <ele>322</ele>
        <time>2026-05-09T11:14:39Z</time>
      </trkpt>
      <trkpt lat="46.16332" lon="5.32778">
        <ele>322</ele>
        <time>2026-05-09T11:14:40Z</time>
      </trkpt>
      <trkpt lat="46.16332" lon="5.3278">
        <ele>322</ele>
        <time>2026-05-09T11:14:41Z</time>
      </trkpt>
      <trkpt lat="46.16331" lon="5.32782">
        <ele>322.2</ele>
        <time>2026-05-09T11:14:42Z</time>
      </trkpt>
      <trkpt lat="46.1633" lon="5.32784">
        <ele>322.2</ele>
        <time>2026-05-09T11:14:43Z</time>
      </trkpt>
      <trkpt lat="46.16328" lon="5.32786">
        <ele>322.2</ele>
        <time>2026-05-09T11:14:44Z</time>
      </trkpt>
      <trkpt lat="46.16327" lon="5.32788">
        <ele>322.6</ele>
        <time>2026-05-09T11:14:45Z</time>
      </trkpt>
      <trkpt lat="46.16326" lon="5.3279">
        <ele>322.6</ele>
        <time>2026-05-09T11:14:46Z</time>
      </trkpt>
      <trkpt lat="46.16325" lon="5.32793">
        <ele>323</ele>
        <time>2026-05-09T11:14:47Z</time>
      </trkpt>
      <trkpt lat="46.16323" lon="5.32795">
        <ele>323</ele>
        <time>2026-05-09T11:14:48Z</time>
      </trkpt>
      <trkpt lat="46.16322" lon="5.32797">
        <ele>323</ele>
        <time>2026-05-09T11:14:49Z</time>
      </trkpt>
      <trkpt lat="46.1632" lon="5.32799">
        <ele>323.2</ele>
        <time>2026-05-09T11:14:50Z</time>
      </trkpt>
      <trkpt lat="46.16319" lon="5.32801">
        <ele>323.2</ele>
        <time>2026-05-09T11:14:51Z</time>
      </trkpt>
      <trkpt lat="46.16318" lon="5.32803">
        <ele>323.6</ele>
        <time>2026-05-09T11:14:52Z</time>
      </trkpt>
      <trkpt lat="46.16317" lon="5.32805">
        <ele>323.6</ele>
        <time>2026-05-09T11:14:53Z</time>
      </trkpt>
      <trkpt lat="46.16316" lon="5.32807">
        <ele>323.6</ele>
        <time>2026-05-09T11:14:54Z</time>
      </trkpt>
      <trkpt lat="46.16315" lon="5.32809">
        <ele>324.2</ele>
        <time>2026-05-09T11:14:55Z</time>
      </trkpt>
      <trkpt lat="46.16314" lon="5.32811">
        <ele>324.2</ele>
        <time>2026-05-09T11:14:56Z</time>
      </trkpt>
      <trkpt lat="46.16313" lon="5.32813">
        <ele>324.2</ele>
        <time>2026-05-09T11:14:57Z</time>
      </trkpt>
      <trkpt lat="46.16312" lon="5.32814">
        <ele>324.6</ele>
        <time>2026-05-09T11:14:58Z</time>
      </trkpt>
      <trkpt lat="46.1631" lon="5.32816">
        <ele>324.8</ele>
        <time>2026-05-09T11:14:59Z</time>
      </trkpt>
      <trkpt lat="46.16309" lon="5.32819">
        <ele>325.2</ele>
        <time>2026-05-09T11:15:00Z</time>
      </trkpt>
      <trkpt lat="46.16307" lon="5.32821">
        <ele>325.2</ele>
        <time>2026-05-09T11:15:01Z</time>
      </trkpt>
      <trkpt lat="46.16306" lon="5.32824">
        <ele>325.6</ele>
        <time>2026-05-09T11:15:02Z</time>
      </trkpt>
      <trkpt lat="46.16306" lon="5.32826">
        <ele>325.6</ele>
        <time>2026-05-09T11:15:03Z</time>
      </trkpt>
      <trkpt lat="46.16305" lon="5.32829">
        <ele>325.8</ele>
        <time>2026-05-09T11:15:04Z</time>
      </trkpt>
      <trkpt lat="46.16305" lon="5.32832">
        <ele>325.8</ele>
        <time>2026-05-09T11:15:05Z</time>
      </trkpt>
      <trkpt lat="46.16304" lon="5.32835">
        <ele>325.8</ele>
        <time>2026-05-09T11:15:06Z</time>
      </trkpt>
      <trkpt lat="46.16304" lon="5.32838">
        <ele>325.8</ele>
        <time>2026-05-09T11:15:07Z</time>
      </trkpt>
      <trkpt lat="46.16303" lon="5.3284">
        <ele>326.2</ele>
        <time>2026-05-09T11:15:08Z</time>
      </trkpt>
      <trkpt lat="46.16303" lon="5.32843">
        <ele>326.2</ele>
        <time>2026-05-09T11:15:09Z</time>
      </trkpt>
      <trkpt lat="46.16302" lon="5.32845">
        <ele>326.4</ele>
        <time>2026-05-09T11:15:10Z</time>
      </trkpt>
      <trkpt lat="46.16302" lon="5.32848">
        <ele>326.4</ele>
        <time>2026-05-09T11:15:11Z</time>
      </trkpt>
      <trkpt lat="46.16301" lon="5.3285">
        <ele>326.8</ele>
        <time>2026-05-09T11:15:12Z</time>
      </trkpt>
      <trkpt lat="46.163" lon="5.32852">
        <ele>327</ele>
        <time>2026-05-09T11:15:13Z</time>
      </trkpt>
      <trkpt lat="46.163" lon="5.32854">
        <ele>327</ele>
        <time>2026-05-09T11:15:14Z</time>
      </trkpt>
      <trkpt lat="46.16299" lon="5.32856">
        <ele>327.2</ele>
        <time>2026-05-09T11:15:15Z</time>
      </trkpt>
      <trkpt lat="46.16299" lon="5.32859">
        <ele>327.2</ele>
        <time>2026-05-09T11:15:16Z</time>
      </trkpt>
      <trkpt lat="46.16298" lon="5.32861">
        <ele>327.2</ele>
        <time>2026-05-09T11:15:17Z</time>
      </trkpt>
      <trkpt lat="46.16297" lon="5.32863">
        <ele>327.6</ele>
        <time>2026-05-09T11:15:18Z</time>
      </trkpt>
      <trkpt lat="46.16296" lon="5.32865">
        <ele>327.6</ele>
        <time>2026-05-09T11:15:19Z</time>
      </trkpt>
      <trkpt lat="46.16296" lon="5.32867">
        <ele>327.8</ele>
        <time>2026-05-09T11:15:20Z</time>
      </trkpt>
      <trkpt lat="46.16295" lon="5.32869">
        <ele>328.2</ele>
        <time>2026-05-09T11:15:21Z</time>
      </trkpt>
      <trkpt lat="46.16294" lon="5.32874">
        <ele>328.2</ele>
        <time>2026-05-09T11:15:22Z</time>
      </trkpt>
      <trkpt lat="46.16294" lon="5.32876">
        <ele>328.4</ele>
        <time>2026-05-09T11:15:23Z</time>
      </trkpt>
      <trkpt lat="46.16293" lon="5.32878">
        <ele>328.8</ele>
        <time>2026-05-09T11:15:24Z</time>
      </trkpt>
      <trkpt lat="46.16292" lon="5.3288">
        <ele>328.8</ele>
        <time>2026-05-09T11:15:25Z</time>
      </trkpt>
      <trkpt lat="46.16292" lon="5.32882">
        <ele>329.2</ele>
        <time>2026-05-09T11:15:26Z</time>
      </trkpt>
      <trkpt lat="46.16291" lon="5.32884">
        <ele>329.2</ele>
        <time>2026-05-09T11:15:27Z</time>
      </trkpt>
      <trkpt lat="46.16291" lon="5.32886">
        <ele>329.6</ele>
        <time>2026-05-09T11:15:28Z</time>
      </trkpt>
      <trkpt lat="46.1629" lon="5.32889">
        <ele>329.6</ele>
        <time>2026-05-09T11:15:29Z</time>
      </trkpt>
      <trkpt lat="46.16289" lon="5.32891">
        <ele>330</ele>
        <time>2026-05-09T11:15:30Z</time>
      </trkpt>
      <trkpt lat="46.16288" lon="5.32893">
        <ele>330.2</ele>
        <time>2026-05-09T11:15:31Z</time>
      </trkpt>
      <trkpt lat="46.16288" lon="5.32896">
        <ele>330.2</ele>
        <time>2026-05-09T11:15:32Z</time>
      </trkpt>
      <trkpt lat="46.16287" lon="5.32898">
        <ele>330.6</ele>
        <time>2026-05-09T11:15:33Z</time>
      </trkpt>
      <trkpt lat="46.16286" lon="5.329">
        <ele>330.6</ele>
        <time>2026-05-09T11:15:34Z</time>
      </trkpt>
      <trkpt lat="46.16286" lon="5.32903">
        <ele>330.8</ele>
        <time>2026-05-09T11:15:35Z</time>
      </trkpt>
      <trkpt lat="46.16285" lon="5.32906">
        <ele>330.8</ele>
        <time>2026-05-09T11:15:36Z</time>
      </trkpt>
      <trkpt lat="46.16285" lon="5.32908">
        <ele>331.2</ele>
        <time>2026-05-09T11:15:37Z</time>
      </trkpt>
      <trkpt lat="46.16284" lon="5.32911">
        <ele>331.4</ele>
        <time>2026-05-09T11:15:38Z</time>
      </trkpt>
      <trkpt lat="46.16284" lon="5.32913">
        <ele>331.6</ele>
        <time>2026-05-09T11:15:39Z</time>
      </trkpt>
      <trkpt lat="46.16283" lon="5.32916">
        <ele>331.8</ele>
        <time>2026-05-09T11:15:40Z</time>
      </trkpt>
      <trkpt lat="46.16283" lon="5.32918">
        <ele>331.8</ele>
        <time>2026-05-09T11:15:41Z</time>
      </trkpt>
      <trkpt lat="46.16282" lon="5.3292">
        <ele>332</ele>
        <time>2026-05-09T11:15:42Z</time>
      </trkpt>
      <trkpt lat="46.16281" lon="5.32923">
        <ele>332</ele>
        <time>2026-05-09T11:15:43Z</time>
      </trkpt>
      <trkpt lat="46.16279" lon="5.32925">
        <ele>332.4</ele>
        <time>2026-05-09T11:15:44Z</time>
      </trkpt>
      <trkpt lat="46.16279" lon="5.32927">
        <ele>332.4</ele>
        <time>2026-05-09T11:15:45Z</time>
      </trkpt>
      <trkpt lat="46.16278" lon="5.32929">
        <ele>332.6</ele>
        <time>2026-05-09T11:15:46Z</time>
      </trkpt>
      <trkpt lat="46.16278" lon="5.32931">
        <ele>332.6</ele>
        <time>2026-05-09T11:15:47Z</time>
      </trkpt>
      <trkpt lat="46.16277" lon="5.32933">
        <ele>332.6</ele>
        <time>2026-05-09T11:15:48Z</time>
      </trkpt>
      <trkpt lat="46.16277" lon="5.32935">
        <ele>333</ele>
        <time>2026-05-09T11:15:49Z</time>
      </trkpt>
      <trkpt lat="46.16277" lon="5.32938">
        <ele>333</ele>
        <time>2026-05-09T11:15:50Z</time>
      </trkpt>
      <trkpt lat="46.16276" lon="5.3294">
        <ele>333.4</ele>
        <time>2026-05-09T11:15:51Z</time>
      </trkpt>
      <trkpt lat="46.16276" lon="5.32942">
        <ele>333.6</ele>
        <time>2026-05-09T11:15:52Z</time>
      </trkpt>
      <trkpt lat="46.16275" lon="5.32944">
        <ele>333.8</ele>
        <time>2026-05-09T11:15:53Z</time>
      </trkpt>
      <trkpt lat="46.16274" lon="5.32946">
        <ele>333.8</ele>
        <time>2026-05-09T11:15:54Z</time>
      </trkpt>
      <trkpt lat="46.16273" lon="5.32949">
        <ele>334.2</ele>
        <time>2026-05-09T11:15:55Z</time>
      </trkpt>
      <trkpt lat="46.16273" lon="5.32951">
        <ele>334.4</ele>
        <time>2026-05-09T11:15:56Z</time>
      </trkpt>
      <trkpt lat="46.16273" lon="5.32954">
        <ele>334.4</ele>
        <time>2026-05-09T11:15:57Z</time>
      </trkpt>
      <trkpt lat="46.16272" lon="5.32956">
        <ele>334.4</ele>
        <time>2026-05-09T11:15:58Z</time>
      </trkpt>
      <trkpt lat="46.16272" lon="5.32959">
        <ele>334.6</ele>
        <time>2026-05-09T11:15:59Z</time>
      </trkpt>
      <trkpt lat="46.16272" lon="5.32961">
        <ele>334.6</ele>
        <time>2026-05-09T11:16:00Z</time>
      </trkpt>
      <trkpt lat="46.16272" lon="5.32964">
        <ele>334</ele>
        <time>2026-05-09T11:16:01Z</time>
      </trkpt>
      <trkpt lat="46.16271" lon="5.32967">
        <ele>334.2</ele>
        <time>2026-05-09T11:16:02Z</time>
      </trkpt>
      <trkpt lat="46.16271" lon="5.3297">
        <ele>334.2</ele>
        <time>2026-05-09T11:16:03Z</time>
      </trkpt>
      <trkpt lat="46.16271" lon="5.32972">
        <ele>334.6</ele>
        <time>2026-05-09T11:16:04Z</time>
      </trkpt>
      <trkpt lat="46.1627" lon="5.32975">
        <ele>334.6</ele>
        <time>2026-05-09T11:16:05Z</time>
      </trkpt>
      <trkpt lat="46.16269" lon="5.32977">
        <ele>334.6</ele>
        <time>2026-05-09T11:16:06Z</time>
      </trkpt>
      <trkpt lat="46.16269" lon="5.3298">
        <ele>334.6</ele>
        <time>2026-05-09T11:16:07Z</time>
      </trkpt>
      <trkpt lat="46.16268" lon="5.32984">
        <ele>334.6</ele>
        <time>2026-05-09T11:16:08Z</time>
      </trkpt>
      <trkpt lat="46.16269" lon="5.32988">
        <ele>334.6</ele>
        <time>2026-05-09T11:16:09Z</time>
      </trkpt>
      <trkpt lat="46.16269" lon="5.32992">
        <ele>334.6</ele>
        <time>2026-05-09T11:16:10Z</time>
      </trkpt>
      <trkpt lat="46.16269" lon="5.32996">
        <ele>334.6</ele>
        <time>2026-05-09T11:16:11Z</time>
      </trkpt>
      <trkpt lat="46.16269" lon="5.33001">
        <ele>334.6</ele>
        <time>2026-05-09T11:16:12Z</time>
      </trkpt>
      <trkpt lat="46.16268" lon="5.33005">
        <ele>334.6</ele>
        <time>2026-05-09T11:16:13Z</time>
      </trkpt>
      <trkpt lat="46.16267" lon="5.33009">
        <ele>334.4</ele>
        <time>2026-05-09T11:16:14Z</time>
      </trkpt>
      <trkpt lat="46.16266" lon="5.33014">
        <ele>334.4</ele>
        <time>2026-05-09T11:16:15Z</time>
      </trkpt>
      <trkpt lat="46.16264" lon="5.33019">
        <ele>334</ele>
        <time>2026-05-09T11:16:16Z</time>
      </trkpt>
      <trkpt lat="46.16261" lon="5.33024">
        <ele>334</ele>
        <time>2026-05-09T11:16:17Z</time>
      </trkpt>
      <trkpt lat="46.16259" lon="5.33031">
        <ele>333.6</ele>
        <time>2026-05-09T11:16:18Z</time>
      </trkpt>
      <trkpt lat="46.16257" lon="5.33039">
        <ele>333.6</ele>
        <time>2026-05-09T11:16:19Z</time>
      </trkpt>
      <trkpt lat="46.16255" lon="5.33048">
        <ele>333</ele>
        <time>2026-05-09T11:16:20Z</time>
      </trkpt>
      <trkpt lat="46.16254" lon="5.33055">
        <ele>332.8</ele>
        <time>2026-05-09T11:16:21Z</time>
      </trkpt>
      <trkpt lat="46.16255" lon="5.33064">
        <ele>332.8</ele>
        <time>2026-05-09T11:16:22Z</time>
      </trkpt>
      <trkpt lat="46.16255" lon="5.33073">
        <ele>332.4</ele>
        <time>2026-05-09T11:16:23Z</time>
      </trkpt>
      <trkpt lat="46.16255" lon="5.33081">
        <ele>332.4</ele>
        <time>2026-05-09T11:16:24Z</time>
      </trkpt>
      <trkpt lat="46.16254" lon="5.33089">
        <ele>332.4</ele>
        <time>2026-05-09T11:16:25Z</time>
      </trkpt>
      <trkpt lat="46.16255" lon="5.33098">
        <ele>332.4</ele>
        <time>2026-05-09T11:16:26Z</time>
      </trkpt>
      <trkpt lat="46.16254" lon="5.33107">
        <ele>332.4</ele>
        <time>2026-05-09T11:16:27Z</time>
      </trkpt>
      <trkpt lat="46.16254" lon="5.33115">
        <ele>332.4</ele>
        <time>2026-05-09T11:16:28Z</time>
      </trkpt>
      <trkpt lat="46.16256" lon="5.33125">
        <ele>332</ele>
        <time>2026-05-09T11:16:29Z</time>
      </trkpt>
      <trkpt lat="46.16256" lon="5.33133">
        <ele>332</ele>
        <time>2026-05-09T11:16:30Z</time>
      </trkpt>
      <trkpt lat="46.16255" lon="5.33141">
        <ele>332</ele>
        <time>2026-05-09T11:16:31Z</time>
      </trkpt>
      <trkpt lat="46.16253" lon="5.33148">
        <ele>331.6</ele>
        <time>2026-05-09T11:16:32Z</time>
      </trkpt>
      <trkpt lat="46.16251" lon="5.33154">
        <ele>331.6</ele>
        <time>2026-05-09T11:16:33Z</time>
      </trkpt>
      <trkpt lat="46.16248" lon="5.33159">
        <ele>331.6</ele>
        <time>2026-05-09T11:16:34Z</time>
      </trkpt>
      <trkpt lat="46.16245" lon="5.33164">
        <ele>332</ele>
        <time>2026-05-09T11:16:35Z</time>
      </trkpt>
      <trkpt lat="46.16242" lon="5.33168">
        <ele>332</ele>
        <time>2026-05-09T11:16:36Z</time>
      </trkpt>
      <trkpt lat="46.16239" lon="5.33172">
        <ele>332.2</ele>
        <time>2026-05-09T11:16:37Z</time>
      </trkpt>
      <trkpt lat="46.16237" lon="5.33176">
        <ele>332.4</ele>
        <time>2026-05-09T11:16:38Z</time>
      </trkpt>
      <trkpt lat="46.16234" lon="5.33179">
        <ele>332.4</ele>
        <time>2026-05-09T11:16:39Z</time>
      </trkpt>
      <trkpt lat="46.16231" lon="5.33183">
        <ele>332.6</ele>
        <time>2026-05-09T11:16:40Z</time>
      </trkpt>
      <trkpt lat="46.16229" lon="5.33186">
        <ele>332.6</ele>
        <time>2026-05-09T11:16:41Z</time>
      </trkpt>
      <trkpt lat="46.16227" lon="5.3319">
        <ele>333</ele>
        <time>2026-05-09T11:16:42Z</time>
      </trkpt>
      <trkpt lat="46.16225" lon="5.33193">
        <ele>333.2</ele>
        <time>2026-05-09T11:16:43Z</time>
      </trkpt>
      <trkpt lat="46.16223" lon="5.33197">
        <ele>333.4</ele>
        <time>2026-05-09T11:16:44Z</time>
      </trkpt>
      <trkpt lat="46.16222" lon="5.33201">
        <ele>333.4</ele>
        <time>2026-05-09T11:16:45Z</time>
      </trkpt>
      <trkpt lat="46.16221" lon="5.33205">
        <ele>333.8</ele>
        <time>2026-05-09T11:16:46Z</time>
      </trkpt>
      <trkpt lat="46.16219" lon="5.33209">
        <ele>333.8</ele>
        <time>2026-05-09T11:16:47Z</time>
      </trkpt>
      <trkpt lat="46.16218" lon="5.33212">
        <ele>334.2</ele>
        <time>2026-05-09T11:16:48Z</time>
      </trkpt>
      <trkpt lat="46.16217" lon="5.33216">
        <ele>334</ele>
        <time>2026-05-09T11:16:49Z</time>
      </trkpt>
      <trkpt lat="46.16216" lon="5.3322">
        <ele>334.4</ele>
        <time>2026-05-09T11:16:50Z</time>
      </trkpt>
      <trkpt lat="46.16215" lon="5.33223">
        <ele>334.6</ele>
        <time>2026-05-09T11:16:51Z</time>
      </trkpt>
      <trkpt lat="46.16214" lon="5.33226">
        <ele>334.6</ele>
        <time>2026-05-09T11:16:52Z</time>
      </trkpt>
      <trkpt lat="46.16213" lon="5.33229">
        <ele>335.2</ele>
        <time>2026-05-09T11:16:53Z</time>
      </trkpt>
      <trkpt lat="46.16212" lon="5.33232">
        <ele>335.2</ele>
        <time>2026-05-09T11:16:54Z</time>
      </trkpt>
      <trkpt lat="46.16212" lon="5.33232">
        <ele>335.4</ele>
        <time>2026-05-09T11:16:55Z</time>
      </trkpt>
      <trkpt lat="46.16211" lon="5.33235">
        <ele>335.8</ele>
        <time>2026-05-09T11:16:56Z</time>
      </trkpt>
      <trkpt lat="46.16209" lon="5.33238">
        <ele>336</ele>
        <time>2026-05-09T11:16:57Z</time>
      </trkpt>
      <trkpt lat="46.16208" lon="5.33242">
        <ele>336.4</ele>
        <time>2026-05-09T11:16:58Z</time>
      </trkpt>
      <trkpt lat="46.16207" lon="5.33245">
        <ele>336.8</ele>
        <time>2026-05-09T11:16:59Z</time>
      </trkpt>
      <trkpt lat="46.16206" lon="5.33248">
        <ele>337</ele>
        <time>2026-05-09T11:17:00Z</time>
      </trkpt>
      <trkpt lat="46.16206" lon="5.33251">
        <ele>337</ele>
        <time>2026-05-09T11:17:01Z</time>
      </trkpt>
      <trkpt lat="46.16205" lon="5.33254">
        <ele>337.2</ele>
        <time>2026-05-09T11:17:02Z</time>
      </trkpt>
      <trkpt lat="46.16204" lon="5.33257">
        <ele>337.2</ele>
        <time>2026-05-09T11:17:03Z</time>
      </trkpt>
      <trkpt lat="46.16203" lon="5.3326">
        <ele>337.6</ele>
        <time>2026-05-09T11:17:04Z</time>
      </trkpt>
      <trkpt lat="46.16202" lon="5.33263">
        <ele>337.6</ele>
        <time>2026-05-09T11:17:05Z</time>
      </trkpt>
      <trkpt lat="46.16201" lon="5.33267">
        <ele>338</ele>
        <time>2026-05-09T11:17:06Z</time>
      </trkpt>
      <trkpt lat="46.162" lon="5.3327">
        <ele>338</ele>
        <time>2026-05-09T11:17:07Z</time>
      </trkpt>
      <trkpt lat="46.162" lon="5.33273">
        <ele>338</ele>
        <time>2026-05-09T11:17:08Z</time>
      </trkpt>
      <trkpt lat="46.16199" lon="5.33276">
        <ele>338.4</ele>
        <time>2026-05-09T11:17:09Z</time>
      </trkpt>
      <trkpt lat="46.16199" lon="5.33279">
        <ele>338.4</ele>
        <time>2026-05-09T11:17:10Z</time>
      </trkpt>
      <trkpt lat="46.16199" lon="5.33282">
        <ele>338.4</ele>
        <time>2026-05-09T11:17:11Z</time>
      </trkpt>
      <trkpt lat="46.16199" lon="5.33285">
        <ele>338.6</ele>
        <time>2026-05-09T11:17:12Z</time>
      </trkpt>
      <trkpt lat="46.16198" lon="5.33289">
        <ele>338.6</ele>
        <time>2026-05-09T11:17:13Z</time>
      </trkpt>
      <trkpt lat="46.16198" lon="5.33292">
        <ele>338.6</ele>
        <time>2026-05-09T11:17:14Z</time>
      </trkpt>
      <trkpt lat="46.16198" lon="5.33295">
        <ele>338.8</ele>
        <time>2026-05-09T11:17:15Z</time>
      </trkpt>
      <trkpt lat="46.16198" lon="5.33298">
        <ele>338.8</ele>
        <time>2026-05-09T11:17:16Z</time>
      </trkpt>
      <trkpt lat="46.16197" lon="5.33301">
        <ele>338.8</ele>
        <time>2026-05-09T11:17:17Z</time>
      </trkpt>
      <trkpt lat="46.16197" lon="5.33304">
        <ele>339.2</ele>
        <time>2026-05-09T11:17:18Z</time>
      </trkpt>
      <trkpt lat="46.16196" lon="5.33307">
        <ele>339.4</ele>
        <time>2026-05-09T11:17:19Z</time>
      </trkpt>
      <trkpt lat="46.16196" lon="5.3331">
        <ele>339.4</ele>
        <time>2026-05-09T11:17:20Z</time>
      </trkpt>
      <trkpt lat="46.16195" lon="5.33313">
        <ele>339.8</ele>
        <time>2026-05-09T11:17:21Z</time>
      </trkpt>
      <trkpt lat="46.16195" lon="5.33316">
        <ele>339.8</ele>
        <time>2026-05-09T11:17:22Z</time>
      </trkpt>
      <trkpt lat="46.16194" lon="5.33318">
        <ele>340</ele>
        <time>2026-05-09T11:17:23Z</time>
      </trkpt>
      <trkpt lat="46.16194" lon="5.33321">
        <ele>340</ele>
        <time>2026-05-09T11:17:24Z</time>
      </trkpt>
      <trkpt lat="46.16194" lon="5.33325">
        <ele>340.2</ele>
        <time>2026-05-09T11:17:25Z</time>
      </trkpt>
      <trkpt lat="46.16193" lon="5.33328">
        <ele>340.2</ele>
        <time>2026-05-09T11:17:26Z</time>
      </trkpt>
      <trkpt lat="46.16193" lon="5.33331">
        <ele>340.2</ele>
        <time>2026-05-09T11:17:27Z</time>
      </trkpt>
      <trkpt lat="46.16193" lon="5.33334">
        <ele>340.4</ele>
        <time>2026-05-09T11:17:28Z</time>
      </trkpt>
      <trkpt lat="46.16193" lon="5.33337">
        <ele>340.4</ele>
        <time>2026-05-09T11:17:29Z</time>
      </trkpt>
      <trkpt lat="46.16192" lon="5.3334">
        <ele>340.6</ele>
        <time>2026-05-09T11:17:30Z</time>
      </trkpt>
      <trkpt lat="46.16192" lon="5.33343">
        <ele>340.6</ele>
        <time>2026-05-09T11:17:31Z</time>
      </trkpt>
      <trkpt lat="46.16192" lon="5.33346">
        <ele>341</ele>
        <time>2026-05-09T11:17:32Z</time>
      </trkpt>
      <trkpt lat="46.16191" lon="5.33349">
        <ele>341</ele>
        <time>2026-05-09T11:17:33Z</time>
      </trkpt>
      <trkpt lat="46.16191" lon="5.33352">
        <ele>341.2</ele>
        <time>2026-05-09T11:17:34Z</time>
      </trkpt>
      <trkpt lat="46.16191" lon="5.33356">
        <ele>341.2</ele>
        <time>2026-05-09T11:17:35Z</time>
      </trkpt>
      <trkpt lat="46.16191" lon="5.33359">
        <ele>341.2</ele>
        <time>2026-05-09T11:17:36Z</time>
      </trkpt>
      <trkpt lat="46.1619" lon="5.33362">
        <ele>341.4</ele>
        <time>2026-05-09T11:17:37Z</time>
      </trkpt>
      <trkpt lat="46.1619" lon="5.33365">
        <ele>341.4</ele>
        <time>2026-05-09T11:17:38Z</time>
      </trkpt>
      <trkpt lat="46.1619" lon="5.33368">
        <ele>341.6</ele>
        <time>2026-05-09T11:17:39Z</time>
      </trkpt>
      <trkpt lat="46.1619" lon="5.3337">
        <ele>341.6</ele>
        <time>2026-05-09T11:17:40Z</time>
      </trkpt>
      <trkpt lat="46.16189" lon="5.33373">
        <ele>341.8</ele>
        <time>2026-05-09T11:17:41Z</time>
      </trkpt>
      <trkpt lat="46.16189" lon="5.33376">
        <ele>341.8</ele>
        <time>2026-05-09T11:17:42Z</time>
      </trkpt>
      <trkpt lat="46.16188" lon="5.33379">
        <ele>341.8</ele>
        <time>2026-05-09T11:17:43Z</time>
      </trkpt>
      <trkpt lat="46.16188" lon="5.33382">
        <ele>342.2</ele>
        <time>2026-05-09T11:17:44Z</time>
      </trkpt>
      <trkpt lat="46.16188" lon="5.33385">
        <ele>342.2</ele>
        <time>2026-05-09T11:17:45Z</time>
      </trkpt>
      <trkpt lat="46.16187" lon="5.33388">
        <ele>342.2</ele>
        <time>2026-05-09T11:17:46Z</time>
      </trkpt>
      <trkpt lat="46.16187" lon="5.3339">
        <ele>342.6</ele>
        <time>2026-05-09T11:17:47Z</time>
      </trkpt>
      <trkpt lat="46.16187" lon="5.33393">
        <ele>342.6</ele>
        <time>2026-05-09T11:17:48Z</time>
      </trkpt>
      <trkpt lat="46.16187" lon="5.33396">
        <ele>343</ele>
        <time>2026-05-09T11:17:49Z</time>
      </trkpt>
      <trkpt lat="46.16186" lon="5.33399">
        <ele>343.2</ele>
        <time>2026-05-09T11:17:50Z</time>
      </trkpt>
      <trkpt lat="46.16186" lon="5.33401">
        <ele>343.4</ele>
        <time>2026-05-09T11:17:51Z</time>
      </trkpt>
      <trkpt lat="46.16186" lon="5.33404">
        <ele>343.6</ele>
        <time>2026-05-09T11:17:52Z</time>
      </trkpt>
      <trkpt lat="46.16186" lon="5.33407">
        <ele>343.6</ele>
        <time>2026-05-09T11:17:53Z</time>
      </trkpt>
      <trkpt lat="46.16186" lon="5.3341">
        <ele>344</ele>
        <time>2026-05-09T11:17:54Z</time>
      </trkpt>
      <trkpt lat="46.16186" lon="5.33412">
        <ele>344</ele>
        <time>2026-05-09T11:17:55Z</time>
      </trkpt>
      <trkpt lat="46.16186" lon="5.33415">
        <ele>344.2</ele>
        <time>2026-05-09T11:17:56Z</time>
      </trkpt>
      <trkpt lat="46.16185" lon="5.33418">
        <ele>344.4</ele>
        <time>2026-05-09T11:17:57Z</time>
      </trkpt>
      <trkpt lat="46.16185" lon="5.3342">
        <ele>344.4</ele>
        <time>2026-05-09T11:17:58Z</time>
      </trkpt>
      <trkpt lat="46.16185" lon="5.33423">
        <ele>344.4</ele>
        <time>2026-05-09T11:17:59Z</time>
      </trkpt>
      <trkpt lat="46.16184" lon="5.33426">
        <ele>344.8</ele>
        <time>2026-05-09T11:18:00Z</time>
      </trkpt>
      <trkpt lat="46.16184" lon="5.33429">
        <ele>344.8</ele>
        <time>2026-05-09T11:18:01Z</time>
      </trkpt>
      <trkpt lat="46.16184" lon="5.33432">
        <ele>345</ele>
        <time>2026-05-09T11:18:02Z</time>
      </trkpt>
      <trkpt lat="46.16184" lon="5.33435">
        <ele>345</ele>
        <time>2026-05-09T11:18:03Z</time>
      </trkpt>
      <trkpt lat="46.16183" lon="5.33438">
        <ele>345.4</ele>
        <time>2026-05-09T11:18:04Z</time>
      </trkpt>
      <trkpt lat="46.16183" lon="5.33441">
        <ele>345.4</ele>
        <time>2026-05-09T11:18:05Z</time>
      </trkpt>
      <trkpt lat="46.16183" lon="5.33443">
        <ele>345.8</ele>
        <time>2026-05-09T11:18:06Z</time>
      </trkpt>
      <trkpt lat="46.16183" lon="5.33446">
        <ele>345.8</ele>
        <time>2026-05-09T11:18:07Z</time>
      </trkpt>
      <trkpt lat="46.16182" lon="5.33449">
        <ele>345.8</ele>
        <time>2026-05-09T11:18:08Z</time>
      </trkpt>
      <trkpt lat="46.16182" lon="5.33452">
        <ele>345.8</ele>
        <time>2026-05-09T11:18:09Z</time>
      </trkpt>
      <trkpt lat="46.16181" lon="5.33455">
        <ele>345.8</ele>
        <time>2026-05-09T11:18:10Z</time>
      </trkpt>
      <trkpt lat="46.16181" lon="5.33457">
        <ele>345.8</ele>
        <time>2026-05-09T11:18:11Z</time>
      </trkpt>
      <trkpt lat="46.16181" lon="5.3346">
        <ele>346</ele>
        <time>2026-05-09T11:18:12Z</time>
      </trkpt>
      <trkpt lat="46.16181" lon="5.33463">
        <ele>346.4</ele>
        <time>2026-05-09T11:18:13Z</time>
      </trkpt>
      <trkpt lat="46.1618" lon="5.33465">
        <ele>346.6</ele>
        <time>2026-05-09T11:18:14Z</time>
      </trkpt>
      <trkpt lat="46.1618" lon="5.33468">
        <ele>346.6</ele>
        <time>2026-05-09T11:18:15Z</time>
      </trkpt>
      <trkpt lat="46.1618" lon="5.33471">
        <ele>346.6</ele>
        <time>2026-05-09T11:18:16Z</time>
      </trkpt>
      <trkpt lat="46.16179" lon="5.33476">
        <ele>346.8</ele>
        <time>2026-05-09T11:18:17Z</time>
      </trkpt>
      <trkpt lat="46.16179" lon="5.33479">
        <ele>346.8</ele>
        <time>2026-05-09T11:18:18Z</time>
      </trkpt>
      <trkpt lat="46.16179" lon="5.33481">
        <ele>347.2</ele>
        <time>2026-05-09T11:18:19Z</time>
      </trkpt>
      <trkpt lat="46.16179" lon="5.33484">
        <ele>347.2</ele>
        <time>2026-05-09T11:18:20Z</time>
      </trkpt>
      <trkpt lat="46.16178" lon="5.33487">
        <ele>347.2</ele>
        <time>2026-05-09T11:18:21Z</time>
      </trkpt>
      <trkpt lat="46.16178" lon="5.3349">
        <ele>347.8</ele>
        <time>2026-05-09T11:18:22Z</time>
      </trkpt>
      <trkpt lat="46.16178" lon="5.33492">
        <ele>347.8</ele>
        <time>2026-05-09T11:18:23Z</time>
      </trkpt>
      <trkpt lat="46.16177" lon="5.33495">
        <ele>348</ele>
        <time>2026-05-09T11:18:24Z</time>
      </trkpt>
      <trkpt lat="46.16177" lon="5.33498">
        <ele>348</ele>
        <time>2026-05-09T11:18:25Z</time>
      </trkpt>
      <trkpt lat="46.16176" lon="5.33501">
        <ele>348.2</ele>
        <time>2026-05-09T11:18:26Z</time>
      </trkpt>
      <trkpt lat="46.16176" lon="5.33503">
        <ele>348.2</ele>
        <time>2026-05-09T11:18:27Z</time>
      </trkpt>
      <trkpt lat="46.16176" lon="5.33506">
        <ele>348.6</ele>
        <time>2026-05-09T11:18:28Z</time>
      </trkpt>
      <trkpt lat="46.16175" lon="5.33509">
        <ele>348.8</ele>
        <time>2026-05-09T11:18:29Z</time>
      </trkpt>
      <trkpt lat="46.16175" lon="5.33511">
        <ele>349</ele>
        <time>2026-05-09T11:18:30Z</time>
      </trkpt>
      <trkpt lat="46.16174" lon="5.33514">
        <ele>349</ele>
        <time>2026-05-09T11:18:31Z</time>
      </trkpt>
      <trkpt lat="46.16174" lon="5.33516">
        <ele>349.4</ele>
        <time>2026-05-09T11:18:32Z</time>
      </trkpt>
      <trkpt lat="46.16173" lon="5.33519">
        <ele>349.4</ele>
        <time>2026-05-09T11:18:33Z</time>
      </trkpt>
      <trkpt lat="46.16173" lon="5.33521">
        <ele>349.4</ele>
        <time>2026-05-09T11:18:34Z</time>
      </trkpt>
      <trkpt lat="46.16172" lon="5.33524">
        <ele>349.8</ele>
        <time>2026-05-09T11:18:35Z</time>
      </trkpt>
      <trkpt lat="46.16172" lon="5.33527">
        <ele>350.2</ele>
        <time>2026-05-09T11:18:36Z</time>
      </trkpt>
      <trkpt lat="46.16171" lon="5.33529">
        <ele>350.2</ele>
        <time>2026-05-09T11:18:37Z</time>
      </trkpt>
      <trkpt lat="46.16171" lon="5.33532">
        <ele>350.2</ele>
        <time>2026-05-09T11:18:38Z</time>
      </trkpt>
      <trkpt lat="46.1617" lon="5.33535">
        <ele>350.2</ele>
        <time>2026-05-09T11:18:39Z</time>
      </trkpt>
      <trkpt lat="46.1617" lon="5.33537">
        <ele>350.2</ele>
        <time>2026-05-09T11:18:40Z</time>
      </trkpt>
      <trkpt lat="46.16169" lon="5.33539">
        <ele>350.4</ele>
        <time>2026-05-09T11:18:41Z</time>
      </trkpt>
      <trkpt lat="46.16168" lon="5.33542">
        <ele>350.8</ele>
        <time>2026-05-09T11:18:42Z</time>
      </trkpt>
      <trkpt lat="46.16167" lon="5.33544">
        <ele>350.8</ele>
        <time>2026-05-09T11:18:43Z</time>
      </trkpt>
      <trkpt lat="46.16166" lon="5.33546">
        <ele>351</ele>
        <time>2026-05-09T11:18:44Z</time>
      </trkpt>
      <trkpt lat="46.16165" lon="5.33548">
        <ele>351.4</ele>
        <time>2026-05-09T11:18:45Z</time>
      </trkpt>
      <trkpt lat="46.16165" lon="5.33551">
        <ele>351.4</ele>
        <time>2026-05-09T11:18:46Z</time>
      </trkpt>
      <trkpt lat="46.16164" lon="5.33553">
        <ele>351.6</ele>
        <time>2026-05-09T11:18:47Z</time>
      </trkpt>
      <trkpt lat="46.16164" lon="5.33556">
        <ele>351.6</ele>
        <time>2026-05-09T11:18:48Z</time>
      </trkpt>
      <trkpt lat="46.16163" lon="5.33558">
        <ele>351.6</ele>
        <time>2026-05-09T11:18:49Z</time>
      </trkpt>
      <trkpt lat="46.16163" lon="5.33561">
        <ele>352</ele>
        <time>2026-05-09T11:18:50Z</time>
      </trkpt>
      <trkpt lat="46.16163" lon="5.33563">
        <ele>352</ele>
        <time>2026-05-09T11:18:51Z</time>
      </trkpt>
      <trkpt lat="46.16163" lon="5.33566">
        <ele>352.2</ele>
        <time>2026-05-09T11:18:52Z</time>
      </trkpt>
      <trkpt lat="46.16162" lon="5.33568">
        <ele>352.2</ele>
        <time>2026-05-09T11:18:53Z</time>
      </trkpt>
      <trkpt lat="46.16162" lon="5.33571">
        <ele>352.6</ele>
        <time>2026-05-09T11:18:54Z</time>
      </trkpt>
      <trkpt lat="46.16161" lon="5.33573">
        <ele>352.6</ele>
        <time>2026-05-09T11:18:55Z</time>
      </trkpt>
      <trkpt lat="46.16161" lon="5.33575">
        <ele>352.8</ele>
        <time>2026-05-09T11:18:56Z</time>
      </trkpt>
      <trkpt lat="46.16161" lon="5.33578">
        <ele>352.8</ele>
        <time>2026-05-09T11:18:57Z</time>
      </trkpt>
      <trkpt lat="46.1616" lon="5.3358">
        <ele>353</ele>
        <time>2026-05-09T11:18:58Z</time>
      </trkpt>
      <trkpt lat="46.1616" lon="5.33582">
        <ele>353</ele>
        <time>2026-05-09T11:18:59Z</time>
      </trkpt>
      <trkpt lat="46.1616" lon="5.33584">
        <ele>353.2</ele>
        <time>2026-05-09T11:19:00Z</time>
      </trkpt>
      <trkpt lat="46.1616" lon="5.33587">
        <ele>353.2</ele>
        <time>2026-05-09T11:19:01Z</time>
      </trkpt>
      <trkpt lat="46.16159" lon="5.33589">
        <ele>353.6</ele>
        <time>2026-05-09T11:19:02Z</time>
      </trkpt>
      <trkpt lat="46.16159" lon="5.33591">
        <ele>353.8</ele>
        <time>2026-05-09T11:19:03Z</time>
      </trkpt>
      <trkpt lat="46.16158" lon="5.33593">
        <ele>354.2</ele>
        <time>2026-05-09T11:19:04Z</time>
      </trkpt>
      <trkpt lat="46.16158" lon="5.33595">
        <ele>354.4</ele>
        <time>2026-05-09T11:19:05Z</time>
      </trkpt>
      <trkpt lat="46.16158" lon="5.33598">
        <ele>354.6</ele>
        <time>2026-05-09T11:19:06Z</time>
      </trkpt>
      <trkpt lat="46.16158" lon="5.336">
        <ele>354.6</ele>
        <time>2026-05-09T11:19:07Z</time>
      </trkpt>
      <trkpt lat="46.16158" lon="5.33602">
        <ele>355</ele>
        <time>2026-05-09T11:19:08Z</time>
      </trkpt>
      <trkpt lat="46.16158" lon="5.33604">
        <ele>355</ele>
        <time>2026-05-09T11:19:09Z</time>
      </trkpt>
      <trkpt lat="46.16158" lon="5.33606">
        <ele>355.4</ele>
        <time>2026-05-09T11:19:10Z</time>
      </trkpt>
      <trkpt lat="46.16159" lon="5.33608">
        <ele>355.4</ele>
        <time>2026-05-09T11:19:11Z</time>
      </trkpt>
      <trkpt lat="46.16159" lon="5.3361">
        <ele>355.6</ele>
        <time>2026-05-09T11:19:12Z</time>
      </trkpt>
      <trkpt lat="46.16159" lon="5.33612">
        <ele>355.6</ele>
        <time>2026-05-09T11:19:13Z</time>
      </trkpt>
      <trkpt lat="46.16159" lon="5.33615">
        <ele>355.6</ele>
        <time>2026-05-09T11:19:14Z</time>
      </trkpt>
      <trkpt lat="46.16158" lon="5.33617">
        <ele>355.8</ele>
        <time>2026-05-09T11:19:15Z</time>
      </trkpt>
      <trkpt lat="46.16158" lon="5.33619">
        <ele>356.2</ele>
        <time>2026-05-09T11:19:16Z</time>
      </trkpt>
      <trkpt lat="46.16158" lon="5.33621">
        <ele>356.2</ele>
        <time>2026-05-09T11:19:17Z</time>
      </trkpt>
      <trkpt lat="46.16158" lon="5.33624">
        <ele>356.4</ele>
        <time>2026-05-09T11:19:18Z</time>
      </trkpt>
      <trkpt lat="46.16158" lon="5.33626">
        <ele>356.4</ele>
        <time>2026-05-09T11:19:19Z</time>
      </trkpt>
      <trkpt lat="46.16158" lon="5.33628">
        <ele>356.4</ele>
        <time>2026-05-09T11:19:20Z</time>
      </trkpt>
      <trkpt lat="46.16158" lon="5.33631">
        <ele>356.6</ele>
        <time>2026-05-09T11:19:21Z</time>
      </trkpt>
      <trkpt lat="46.16158" lon="5.33634">
        <ele>357</ele>
        <time>2026-05-09T11:19:22Z</time>
      </trkpt>
      <trkpt lat="46.16158" lon="5.33636">
        <ele>357.2</ele>
        <time>2026-05-09T11:19:23Z</time>
      </trkpt>
      <trkpt lat="46.16159" lon="5.33639">
        <ele>357.4</ele>
        <time>2026-05-09T11:19:24Z</time>
      </trkpt>
      <trkpt lat="46.16159" lon="5.33641">
        <ele>357.6</ele>
        <time>2026-05-09T11:19:25Z</time>
      </trkpt>
      <trkpt lat="46.16159" lon="5.33644">
        <ele>357.6</ele>
        <time>2026-05-09T11:19:26Z</time>
      </trkpt>
      <trkpt lat="46.1616" lon="5.33646">
        <ele>358</ele>
        <time>2026-05-09T11:19:27Z</time>
      </trkpt>
      <trkpt lat="46.1616" lon="5.33649">
        <ele>358</ele>
        <time>2026-05-09T11:19:28Z</time>
      </trkpt>
      <trkpt lat="46.1616" lon="5.33652">
        <ele>358</ele>
        <time>2026-05-09T11:19:29Z</time>
      </trkpt>
      <trkpt lat="46.1616" lon="5.33654">
        <ele>358</ele>
        <time>2026-05-09T11:19:30Z</time>
      </trkpt>
      <trkpt lat="46.1616" lon="5.33657">
        <ele>358</ele>
        <time>2026-05-09T11:19:31Z</time>
      </trkpt>
      <trkpt lat="46.1616" lon="5.33659">
        <ele>358.4</ele>
        <time>2026-05-09T11:19:32Z</time>
      </trkpt>
      <trkpt lat="46.1616" lon="5.33662">
        <ele>358.4</ele>
        <time>2026-05-09T11:19:33Z</time>
      </trkpt>
      <trkpt lat="46.16161" lon="5.33665">
        <ele>358.6</ele>
        <time>2026-05-09T11:19:34Z</time>
      </trkpt>
      <trkpt lat="46.16161" lon="5.33668">
        <ele>358.6</ele>
        <time>2026-05-09T11:19:35Z</time>
      </trkpt>
      <trkpt lat="46.16161" lon="5.3367">
        <ele>358.8</ele>
        <time>2026-05-09T11:19:36Z</time>
      </trkpt>
      <trkpt lat="46.16161" lon="5.33673">
        <ele>359</ele>
        <time>2026-05-09T11:19:37Z</time>
      </trkpt>
      <trkpt lat="46.16161" lon="5.33675">
        <ele>359</ele>
        <time>2026-05-09T11:19:38Z</time>
      </trkpt>
      <trkpt lat="46.16162" lon="5.33678">
        <ele>359</ele>
        <time>2026-05-09T11:19:39Z</time>
      </trkpt>
      <trkpt lat="46.16162" lon="5.3368">
        <ele>359.2</ele>
        <time>2026-05-09T11:19:40Z</time>
      </trkpt>
      <trkpt lat="46.16162" lon="5.33683">
        <ele>359.2</ele>
        <time>2026-05-09T11:19:41Z</time>
      </trkpt>
      <trkpt lat="46.16163" lon="5.33685">
        <ele>359.6</ele>
        <time>2026-05-09T11:19:42Z</time>
      </trkpt>
      <trkpt lat="46.16163" lon="5.33687">
        <ele>359.6</ele>
        <time>2026-05-09T11:19:43Z</time>
      </trkpt>
      <trkpt lat="46.16163" lon="5.3369">
        <ele>360</ele>
        <time>2026-05-09T11:19:44Z</time>
      </trkpt>
      <trkpt lat="46.16163" lon="5.33693">
        <ele>360</ele>
        <time>2026-05-09T11:19:45Z</time>
      </trkpt>
      <trkpt lat="46.16164" lon="5.33695">
        <ele>360.2</ele>
        <time>2026-05-09T11:19:46Z</time>
      </trkpt>
      <trkpt lat="46.16164" lon="5.33698">
        <ele>360.2</ele>
        <time>2026-05-09T11:19:47Z</time>
      </trkpt>
      <trkpt lat="46.16164" lon="5.337">
        <ele>360.6</ele>
        <time>2026-05-09T11:19:48Z</time>
      </trkpt>
      <trkpt lat="46.16164" lon="5.33703">
        <ele>360.8</ele>
        <time>2026-05-09T11:19:49Z</time>
      </trkpt>
      <trkpt lat="46.16163" lon="5.33705">
        <ele>360.8</ele>
        <time>2026-05-09T11:19:50Z</time>
      </trkpt>
      <trkpt lat="46.16164" lon="5.33708">
        <ele>361</ele>
        <time>2026-05-09T11:19:51Z</time>
      </trkpt>
      <trkpt lat="46.16164" lon="5.3371">
        <ele>361</ele>
        <time>2026-05-09T11:19:52Z</time>
      </trkpt>
      <trkpt lat="46.16164" lon="5.33713">
        <ele>361</ele>
        <time>2026-05-09T11:19:53Z</time>
      </trkpt>
      <trkpt lat="46.16165" lon="5.33715">
        <ele>361.4</ele>
        <time>2026-05-09T11:19:54Z</time>
      </trkpt>
      <trkpt lat="46.16166" lon="5.33718">
        <ele>361.4</ele>
        <time>2026-05-09T11:19:55Z</time>
      </trkpt>
      <trkpt lat="46.16166" lon="5.33718">
        <ele>361.4</ele>
        <time>2026-05-09T11:19:56Z</time>
      </trkpt>
      <trkpt lat="46.16166" lon="5.3372">
        <ele>361.4</ele>
        <time>2026-05-09T11:19:57Z</time>
      </trkpt>
      <trkpt lat="46.16167" lon="5.33723">
        <ele>361.8</ele>
        <time>2026-05-09T11:19:58Z</time>
      </trkpt>
      <trkpt lat="46.16167" lon="5.33725">
        <ele>361.8</ele>
        <time>2026-05-09T11:19:59Z</time>
      </trkpt>
      <trkpt lat="46.16168" lon="5.33728">
        <ele>361.8</ele>
        <time>2026-05-09T11:20:00Z</time>
      </trkpt>
      <trkpt lat="46.16168" lon="5.3373">
        <ele>362.2</ele>
        <time>2026-05-09T11:20:01Z</time>
      </trkpt>
      <trkpt lat="46.16168" lon="5.33733">
        <ele>362.2</ele>
        <time>2026-05-09T11:20:02Z</time>
      </trkpt>
      <trkpt lat="46.16169" lon="5.33735">
        <ele>362.2</ele>
        <time>2026-05-09T11:20:03Z</time>
      </trkpt>
      <trkpt lat="46.16169" lon="5.33738">
        <ele>362.6</ele>
        <time>2026-05-09T11:20:04Z</time>
      </trkpt>
      <trkpt lat="46.1617" lon="5.3374">
        <ele>362.6</ele>
        <time>2026-05-09T11:20:05Z</time>
      </trkpt>
      <trkpt lat="46.16171" lon="5.33743">
        <ele>363.2</ele>
        <time>2026-05-09T11:20:06Z</time>
      </trkpt>
      <trkpt lat="46.16171" lon="5.33745">
        <ele>363.2</ele>
        <time>2026-05-09T11:20:07Z</time>
      </trkpt>
      <trkpt lat="46.16171" lon="5.33748">
        <ele>363.4</ele>
        <time>2026-05-09T11:20:08Z</time>
      </trkpt>
      <trkpt lat="46.16171" lon="5.33751">
        <ele>363.6</ele>
        <time>2026-05-09T11:20:09Z</time>
      </trkpt>
      <trkpt lat="46.16171" lon="5.33753">
        <ele>363.6</ele>
        <time>2026-05-09T11:20:10Z</time>
      </trkpt>
      <trkpt lat="46.16171" lon="5.33755">
        <ele>363.6</ele>
        <time>2026-05-09T11:20:11Z</time>
      </trkpt>
      <trkpt lat="46.16171" lon="5.33758">
        <ele>363.8</ele>
        <time>2026-05-09T11:20:12Z</time>
      </trkpt>
      <trkpt lat="46.16172" lon="5.33761">
        <ele>363.8</ele>
        <time>2026-05-09T11:20:13Z</time>
      </trkpt>
      <trkpt lat="46.16173" lon="5.33763">
        <ele>363.8</ele>
        <time>2026-05-09T11:20:14Z</time>
      </trkpt>
      <trkpt lat="46.16173" lon="5.33765">
        <ele>364</ele>
        <time>2026-05-09T11:20:15Z</time>
      </trkpt>
      <trkpt lat="46.16173" lon="5.33767">
        <ele>364</ele>
        <time>2026-05-09T11:20:16Z</time>
      </trkpt>
      <trkpt lat="46.16173" lon="5.3377">
        <ele>364.4</ele>
        <time>2026-05-09T11:20:17Z</time>
      </trkpt>
      <trkpt lat="46.16173" lon="5.33773">
        <ele>364.4</ele>
        <time>2026-05-09T11:20:18Z</time>
      </trkpt>
      <trkpt lat="46.16172" lon="5.33776">
        <ele>364.6</ele>
        <time>2026-05-09T11:20:19Z</time>
      </trkpt>
      <trkpt lat="46.16172" lon="5.33778">
        <ele>364.6</ele>
        <time>2026-05-09T11:20:20Z</time>
      </trkpt>
      <trkpt lat="46.16171" lon="5.33781">
        <ele>364.8</ele>
        <time>2026-05-09T11:20:21Z</time>
      </trkpt>
      <trkpt lat="46.16171" lon="5.33783">
        <ele>364.8</ele>
        <time>2026-05-09T11:20:22Z</time>
      </trkpt>
      <trkpt lat="46.16172" lon="5.33785">
        <ele>365</ele>
        <time>2026-05-09T11:20:23Z</time>
      </trkpt>
      <trkpt lat="46.16172" lon="5.33788">
        <ele>365</ele>
        <time>2026-05-09T11:20:24Z</time>
      </trkpt>
      <trkpt lat="46.16173" lon="5.3379">
        <ele>365.2</ele>
        <time>2026-05-09T11:20:25Z</time>
      </trkpt>
      <trkpt lat="46.16173" lon="5.33792">
        <ele>365.2</ele>
        <time>2026-05-09T11:20:26Z</time>
      </trkpt>
      <trkpt lat="46.16174" lon="5.33794">
        <ele>365.2</ele>
        <time>2026-05-09T11:20:27Z</time>
      </trkpt>
      <trkpt lat="46.16174" lon="5.33797">
        <ele>365.2</ele>
        <time>2026-05-09T11:20:28Z</time>
      </trkpt>
      <trkpt lat="46.16174" lon="5.338">
        <ele>365.4</ele>
        <time>2026-05-09T11:20:29Z</time>
      </trkpt>
      <trkpt lat="46.16175" lon="5.33802">
        <ele>365.4</ele>
        <time>2026-05-09T11:20:30Z</time>
      </trkpt>
      <trkpt lat="46.16175" lon="5.33804">
        <ele>365.8</ele>
        <time>2026-05-09T11:20:31Z</time>
      </trkpt>
      <trkpt lat="46.16175" lon="5.33807">
        <ele>365.8</ele>
        <time>2026-05-09T11:20:32Z</time>
      </trkpt>
      <trkpt lat="46.16174" lon="5.3381">
        <ele>366.2</ele>
        <time>2026-05-09T11:20:33Z</time>
      </trkpt>
      <trkpt lat="46.16175" lon="5.33812">
        <ele>366.2</ele>
        <time>2026-05-09T11:20:34Z</time>
      </trkpt>
      <trkpt lat="46.16174" lon="5.33814">
        <ele>366.4</ele>
        <time>2026-05-09T11:20:35Z</time>
      </trkpt>
      <trkpt lat="46.16175" lon="5.33817">
        <ele>366.4</ele>
        <time>2026-05-09T11:20:36Z</time>
      </trkpt>
      <trkpt lat="46.16175" lon="5.33819">
        <ele>366.4</ele>
        <time>2026-05-09T11:20:37Z</time>
      </trkpt>
      <trkpt lat="46.16175" lon="5.33822">
        <ele>366.6</ele>
        <time>2026-05-09T11:20:38Z</time>
      </trkpt>
      <trkpt lat="46.16175" lon="5.33825">
        <ele>366.6</ele>
        <time>2026-05-09T11:20:39Z</time>
      </trkpt>
      <trkpt lat="46.16176" lon="5.33827">
        <ele>366.6</ele>
        <time>2026-05-09T11:20:40Z</time>
      </trkpt>
      <trkpt lat="46.16176" lon="5.3383">
        <ele>367.2</ele>
        <time>2026-05-09T11:20:41Z</time>
      </trkpt>
      <trkpt lat="46.16176" lon="5.33833">
        <ele>367.6</ele>
        <time>2026-05-09T11:20:42Z</time>
      </trkpt>
      <trkpt lat="46.16176" lon="5.33836">
        <ele>367.8</ele>
        <time>2026-05-09T11:20:43Z</time>
      </trkpt>
      <trkpt lat="46.16176" lon="5.33838">
        <ele>367.8</ele>
        <time>2026-05-09T11:20:44Z</time>
      </trkpt>
      <trkpt lat="46.16176" lon="5.33841">
        <ele>368.2</ele>
        <time>2026-05-09T11:20:45Z</time>
      </trkpt>
      <trkpt lat="46.16177" lon="5.33843">
        <ele>368.4</ele>
        <time>2026-05-09T11:20:46Z</time>
      </trkpt>
      <trkpt lat="46.16177" lon="5.33846">
        <ele>368.4</ele>
        <time>2026-05-09T11:20:47Z</time>
      </trkpt>
      <trkpt lat="46.16177" lon="5.33849">
        <ele>368.8</ele>
        <time>2026-05-09T11:20:48Z</time>
      </trkpt>
      <trkpt lat="46.16177" lon="5.33852">
        <ele>368.8</ele>
        <time>2026-05-09T11:20:49Z</time>
      </trkpt>
      <trkpt lat="46.16177" lon="5.33854">
        <ele>368.8</ele>
        <time>2026-05-09T11:20:50Z</time>
      </trkpt>
      <trkpt lat="46.16177" lon="5.33856">
        <ele>369.2</ele>
        <time>2026-05-09T11:20:51Z</time>
      </trkpt>
      <trkpt lat="46.16177" lon="5.33859">
        <ele>369.4</ele>
        <time>2026-05-09T11:20:52Z</time>
      </trkpt>
      <trkpt lat="46.16177" lon="5.33862">
        <ele>369.6</ele>
        <time>2026-05-09T11:20:53Z</time>
      </trkpt>
      <trkpt lat="46.16177" lon="5.33865">
        <ele>369.6</ele>
        <time>2026-05-09T11:20:54Z</time>
      </trkpt>
      <trkpt lat="46.16177" lon="5.33867">
        <ele>369.6</ele>
        <time>2026-05-09T11:20:55Z</time>
      </trkpt>
      <trkpt lat="46.16177" lon="5.33869">
        <ele>370</ele>
        <time>2026-05-09T11:20:56Z</time>
      </trkpt>
      <trkpt lat="46.16177" lon="5.33872">
        <ele>370</ele>
        <time>2026-05-09T11:20:57Z</time>
      </trkpt>
      <trkpt lat="46.16177" lon="5.33875">
        <ele>370.4</ele>
        <time>2026-05-09T11:20:58Z</time>
      </trkpt>
      <trkpt lat="46.16176" lon="5.33877">
        <ele>370.6</ele>
        <time>2026-05-09T11:20:59Z</time>
      </trkpt>
      <trkpt lat="46.16177" lon="5.3388">
        <ele>370.6</ele>
        <time>2026-05-09T11:21:00Z</time>
      </trkpt>
      <trkpt lat="46.16177" lon="5.33882">
        <ele>370.8</ele>
        <time>2026-05-09T11:21:01Z</time>
      </trkpt>
      <trkpt lat="46.16177" lon="5.33884">
        <ele>370.8</ele>
        <time>2026-05-09T11:21:02Z</time>
      </trkpt>
      <trkpt lat="46.16177" lon="5.33886">
        <ele>371.2</ele>
        <time>2026-05-09T11:21:03Z</time>
      </trkpt>
      <trkpt lat="46.16177" lon="5.33888">
        <ele>371.2</ele>
        <time>2026-05-09T11:21:04Z</time>
      </trkpt>
      <trkpt lat="46.16177" lon="5.33891">
        <ele>371.6</ele>
        <time>2026-05-09T11:21:05Z</time>
      </trkpt>
      <trkpt lat="46.16177" lon="5.33894">
        <ele>371.8</ele>
        <time>2026-05-09T11:21:06Z</time>
      </trkpt>
      <trkpt lat="46.16177" lon="5.33896">
        <ele>372</ele>
        <time>2026-05-09T11:21:07Z</time>
      </trkpt>
      <trkpt lat="46.16177" lon="5.33899">
        <ele>372</ele>
        <time>2026-05-09T11:21:08Z</time>
      </trkpt>
      <trkpt lat="46.16176" lon="5.33901">
        <ele>372.4</ele>
        <time>2026-05-09T11:21:09Z</time>
      </trkpt>
      <trkpt lat="46.16175" lon="5.33903">
        <ele>372.4</ele>
        <time>2026-05-09T11:21:10Z</time>
      </trkpt>
      <trkpt lat="46.16174" lon="5.33905">
        <ele>372.6</ele>
        <time>2026-05-09T11:21:11Z</time>
      </trkpt>
      <trkpt lat="46.16174" lon="5.33908">
        <ele>372.6</ele>
        <time>2026-05-09T11:21:12Z</time>
      </trkpt>
      <trkpt lat="46.16173" lon="5.3391">
        <ele>372.6</ele>
        <time>2026-05-09T11:21:13Z</time>
      </trkpt>
      <trkpt lat="46.16173" lon="5.33913">
        <ele>372.6</ele>
        <time>2026-05-09T11:21:14Z</time>
      </trkpt>
      <trkpt lat="46.16173" lon="5.33916">
        <ele>373</ele>
        <time>2026-05-09T11:21:15Z</time>
      </trkpt>
      <trkpt lat="46.16173" lon="5.33919">
        <ele>373</ele>
        <time>2026-05-09T11:21:16Z</time>
      </trkpt>
      <trkpt lat="46.16173" lon="5.33921">
        <ele>373</ele>
        <time>2026-05-09T11:21:17Z</time>
      </trkpt>
      <trkpt lat="46.16172" lon="5.33924">
        <ele>373.4</ele>
        <time>2026-05-09T11:21:18Z</time>
      </trkpt>
      <trkpt lat="46.16172" lon="5.33927">
        <ele>373.6</ele>
        <time>2026-05-09T11:21:19Z</time>
      </trkpt>
      <trkpt lat="46.16172" lon="5.33929">
        <ele>373.6</ele>
        <time>2026-05-09T11:21:20Z</time>
      </trkpt>
      <trkpt lat="46.16171" lon="5.33932">
        <ele>373.8</ele>
        <time>2026-05-09T11:21:21Z</time>
      </trkpt>
      <trkpt lat="46.1617" lon="5.33934">
        <ele>373.8</ele>
        <time>2026-05-09T11:21:22Z</time>
      </trkpt>
      <trkpt lat="46.16169" lon="5.33937">
        <ele>374</ele>
        <time>2026-05-09T11:21:23Z</time>
      </trkpt>
      <trkpt lat="46.16168" lon="5.33942">
        <ele>374</ele>
        <time>2026-05-09T11:21:24Z</time>
      </trkpt>
      <trkpt lat="46.16168" lon="5.33944">
        <ele>374.4</ele>
        <time>2026-05-09T11:21:25Z</time>
      </trkpt>
      <trkpt lat="46.16167" lon="5.33947">
        <ele>374.4</ele>
        <time>2026-05-09T11:21:26Z</time>
      </trkpt>
      <trkpt lat="46.16167" lon="5.33949">
        <ele>374.6</ele>
        <time>2026-05-09T11:21:27Z</time>
      </trkpt>
      <trkpt lat="46.16167" lon="5.33952">
        <ele>374.6</ele>
        <time>2026-05-09T11:21:28Z</time>
      </trkpt>
      <trkpt lat="46.16166" lon="5.33954">
        <ele>374.6</ele>
        <time>2026-05-09T11:21:29Z</time>
      </trkpt>
      <trkpt lat="46.16165" lon="5.33957">
        <ele>375</ele>
        <time>2026-05-09T11:21:30Z</time>
      </trkpt>
      <trkpt lat="46.16164" lon="5.33959">
        <ele>375</ele>
        <time>2026-05-09T11:21:31Z</time>
      </trkpt>
      <trkpt lat="46.16163" lon="5.33961">
        <ele>375</ele>
        <time>2026-05-09T11:21:32Z</time>
      </trkpt>
      <trkpt lat="46.16162" lon="5.33964">
        <ele>375</ele>
        <time>2026-05-09T11:21:33Z</time>
      </trkpt>
      <trkpt lat="46.16162" lon="5.33966">
        <ele>375.4</ele>
        <time>2026-05-09T11:21:34Z</time>
      </trkpt>
      <trkpt lat="46.1616" lon="5.33968">
        <ele>375.6</ele>
        <time>2026-05-09T11:21:35Z</time>
      </trkpt>
      <trkpt lat="46.16159" lon="5.3397">
        <ele>376</ele>
        <time>2026-05-09T11:21:36Z</time>
      </trkpt>
      <trkpt lat="46.16158" lon="5.33972">
        <ele>376.2</ele>
        <time>2026-05-09T11:21:37Z</time>
      </trkpt>
      <trkpt lat="46.16158" lon="5.33974">
        <ele>376.2</ele>
        <time>2026-05-09T11:21:38Z</time>
      </trkpt>
      <trkpt lat="46.16157" lon="5.33977">
        <ele>376.6</ele>
        <time>2026-05-09T11:21:39Z</time>
      </trkpt>
      <trkpt lat="46.16156" lon="5.33979">
        <ele>376.6</ele>
        <time>2026-05-09T11:21:40Z</time>
      </trkpt>
      <trkpt lat="46.16156" lon="5.33982">
        <ele>376.8</ele>
        <time>2026-05-09T11:21:41Z</time>
      </trkpt>
      <trkpt lat="46.16155" lon="5.33984">
        <ele>376.8</ele>
        <time>2026-05-09T11:21:42Z</time>
      </trkpt>
      <trkpt lat="46.16155" lon="5.33986">
        <ele>377.2</ele>
        <time>2026-05-09T11:21:43Z</time>
      </trkpt>
      <trkpt lat="46.16154" lon="5.33988">
        <ele>377.2</ele>
        <time>2026-05-09T11:21:44Z</time>
      </trkpt>
      <trkpt lat="46.16154" lon="5.3399">
        <ele>377.2</ele>
        <time>2026-05-09T11:21:45Z</time>
      </trkpt>
      <trkpt lat="46.16153" lon="5.33992">
        <ele>377.4</ele>
        <time>2026-05-09T11:21:46Z</time>
      </trkpt>
      <trkpt lat="46.16153" lon="5.33994">
        <ele>377.4</ele>
        <time>2026-05-09T11:21:47Z</time>
      </trkpt>
      <trkpt lat="46.16152" lon="5.33997">
        <ele>377.8</ele>
        <time>2026-05-09T11:21:48Z</time>
      </trkpt>
      <trkpt lat="46.16151" lon="5.33999">
        <ele>377.8</ele>
        <time>2026-05-09T11:21:49Z</time>
      </trkpt>
      <trkpt lat="46.16151" lon="5.34001">
        <ele>377.8</ele>
        <time>2026-05-09T11:21:50Z</time>
      </trkpt>
      <trkpt lat="46.1615" lon="5.34004">
        <ele>377.8</ele>
        <time>2026-05-09T11:21:51Z</time>
      </trkpt>
      <trkpt lat="46.1615" lon="5.34006">
        <ele>378</ele>
        <time>2026-05-09T11:21:52Z</time>
      </trkpt>
      <trkpt lat="46.16149" lon="5.34008">
        <ele>378</ele>
        <time>2026-05-09T11:21:53Z</time>
      </trkpt>
      <trkpt lat="46.16148" lon="5.34011">
        <ele>378</ele>
        <time>2026-05-09T11:21:54Z</time>
      </trkpt>
      <trkpt lat="46.16147" lon="5.34013">
        <ele>378</ele>
        <time>2026-05-09T11:21:55Z</time>
      </trkpt>
      <trkpt lat="46.16147" lon="5.34016">
        <ele>378.4</ele>
        <time>2026-05-09T11:21:56Z</time>
      </trkpt>
      <trkpt lat="46.16146" lon="5.34018">
        <ele>378.4</ele>
        <time>2026-05-09T11:21:57Z</time>
      </trkpt>
      <trkpt lat="46.16146" lon="5.3402">
        <ele>378.8</ele>
        <time>2026-05-09T11:21:58Z</time>
      </trkpt>
      <trkpt lat="46.16145" lon="5.34022">
        <ele>378.8</ele>
        <time>2026-05-09T11:21:59Z</time>
      </trkpt>
      <trkpt lat="46.16144" lon="5.34025">
        <ele>379</ele>
        <time>2026-05-09T11:22:00Z</time>
      </trkpt>
      <trkpt lat="46.16144" lon="5.34027">
        <ele>379</ele>
        <time>2026-05-09T11:22:01Z</time>
      </trkpt>
      <trkpt lat="46.16143" lon="5.34029">
        <ele>379.2</ele>
        <time>2026-05-09T11:22:02Z</time>
      </trkpt>
      <trkpt lat="46.16142" lon="5.34031">
        <ele>379.2</ele>
        <time>2026-05-09T11:22:03Z</time>
      </trkpt>
      <trkpt lat="46.16141" lon="5.34033">
        <ele>379.2</ele>
        <time>2026-05-09T11:22:04Z</time>
      </trkpt>
      <trkpt lat="46.1614" lon="5.34035">
        <ele>379.4</ele>
        <time>2026-05-09T11:22:05Z</time>
      </trkpt>
      <trkpt lat="46.16139" lon="5.34038">
        <ele>379.6</ele>
        <time>2026-05-09T11:22:06Z</time>
      </trkpt>
      <trkpt lat="46.16138" lon="5.3404">
        <ele>379.6</ele>
        <time>2026-05-09T11:22:07Z</time>
      </trkpt>
      <trkpt lat="46.16138" lon="5.34042">
        <ele>380</ele>
        <time>2026-05-09T11:22:08Z</time>
      </trkpt>
      <trkpt lat="46.16137" lon="5.34044">
        <ele>380</ele>
        <time>2026-05-09T11:22:09Z</time>
      </trkpt>
      <trkpt lat="46.16137" lon="5.34047">
        <ele>380</ele>
        <time>2026-05-09T11:22:10Z</time>
      </trkpt>
      <trkpt lat="46.16136" lon="5.34049">
        <ele>380</ele>
        <time>2026-05-09T11:22:11Z</time>
      </trkpt>
      <trkpt lat="46.16135" lon="5.34051">
        <ele>380.4</ele>
        <time>2026-05-09T11:22:12Z</time>
      </trkpt>
      <trkpt lat="46.16134" lon="5.34053">
        <ele>380.4</ele>
        <time>2026-05-09T11:22:13Z</time>
      </trkpt>
      <trkpt lat="46.16133" lon="5.34056">
        <ele>380.4</ele>
        <time>2026-05-09T11:22:14Z</time>
      </trkpt>
      <trkpt lat="46.16132" lon="5.34058">
        <ele>380.8</ele>
        <time>2026-05-09T11:22:15Z</time>
      </trkpt>
      <trkpt lat="46.16131" lon="5.3406">
        <ele>380.8</ele>
        <time>2026-05-09T11:22:16Z</time>
      </trkpt>
      <trkpt lat="46.16131" lon="5.34063">
        <ele>381</ele>
        <time>2026-05-09T11:22:17Z</time>
      </trkpt>
      <trkpt lat="46.1613" lon="5.34065">
        <ele>381</ele>
        <time>2026-05-09T11:22:18Z</time>
      </trkpt>
      <trkpt lat="46.16129" lon="5.34067">
        <ele>381</ele>
        <time>2026-05-09T11:22:19Z</time>
      </trkpt>
      <trkpt lat="46.16129" lon="5.34069">
        <ele>381.6</ele>
        <time>2026-05-09T11:22:20Z</time>
      </trkpt>
      <trkpt lat="46.16128" lon="5.34072">
        <ele>382</ele>
        <time>2026-05-09T11:22:21Z</time>
      </trkpt>
      <trkpt lat="46.16127" lon="5.34074">
        <ele>382</ele>
        <time>2026-05-09T11:22:22Z</time>
      </trkpt>
      <trkpt lat="46.16127" lon="5.34076">
        <ele>382.4</ele>
        <time>2026-05-09T11:22:23Z</time>
      </trkpt>
      <trkpt lat="46.16126" lon="5.34079">
        <ele>382.6</ele>
        <time>2026-05-09T11:22:24Z</time>
      </trkpt>
      <trkpt lat="46.16126" lon="5.34081">
        <ele>382.6</ele>
        <time>2026-05-09T11:22:25Z</time>
      </trkpt>
      <trkpt lat="46.16125" lon="5.34084">
        <ele>382.8</ele>
        <time>2026-05-09T11:22:26Z</time>
      </trkpt>
      <trkpt lat="46.16125" lon="5.34086">
        <ele>382.8</ele>
        <time>2026-05-09T11:22:27Z</time>
      </trkpt>
      <trkpt lat="46.16125" lon="5.34088">
        <ele>383</ele>
        <time>2026-05-09T11:22:28Z</time>
      </trkpt>
      <trkpt lat="46.16124" lon="5.34091">
        <ele>383</ele>
        <time>2026-05-09T11:22:29Z</time>
      </trkpt>
      <trkpt lat="46.16124" lon="5.34093">
        <ele>383.4</ele>
        <time>2026-05-09T11:22:30Z</time>
      </trkpt>
      <trkpt lat="46.16123" lon="5.34095">
        <ele>383.4</ele>
        <time>2026-05-09T11:22:31Z</time>
      </trkpt>
      <trkpt lat="46.16123" lon="5.34097">
        <ele>383.8</ele>
        <time>2026-05-09T11:22:32Z</time>
      </trkpt>
      <trkpt lat="46.16122" lon="5.34098">
        <ele>383.8</ele>
        <time>2026-05-09T11:22:33Z</time>
      </trkpt>
      <trkpt lat="46.16122" lon="5.341">
        <ele>384</ele>
        <time>2026-05-09T11:22:34Z</time>
      </trkpt>
      <trkpt lat="46.16122" lon="5.34102">
        <ele>384</ele>
        <time>2026-05-09T11:22:35Z</time>
      </trkpt>
      <trkpt lat="46.16121" lon="5.34104">
        <ele>384</ele>
        <time>2026-05-09T11:22:36Z</time>
      </trkpt>
      <trkpt lat="46.16121" lon="5.34106">
        <ele>384</ele>
        <time>2026-05-09T11:22:37Z</time>
      </trkpt>
      <trkpt lat="46.16121" lon="5.34108">
        <ele>384.2</ele>
        <time>2026-05-09T11:22:38Z</time>
      </trkpt>
      <trkpt lat="46.1612" lon="5.34111">
        <ele>384.2</ele>
        <time>2026-05-09T11:22:39Z</time>
      </trkpt>
      <trkpt lat="46.1612" lon="5.34113">
        <ele>384.2</ele>
        <time>2026-05-09T11:22:40Z</time>
      </trkpt>
      <trkpt lat="46.16119" lon="5.34115">
        <ele>384.2</ele>
        <time>2026-05-09T11:22:41Z</time>
      </trkpt>
      <trkpt lat="46.16118" lon="5.34117">
        <ele>384.8</ele>
        <time>2026-05-09T11:22:42Z</time>
      </trkpt>
      <trkpt lat="46.16117" lon="5.3412">
        <ele>385</ele>
        <time>2026-05-09T11:22:43Z</time>
      </trkpt>
      <trkpt lat="46.16117" lon="5.34122">
        <ele>385.2</ele>
        <time>2026-05-09T11:22:44Z</time>
      </trkpt>
      <trkpt lat="46.16116" lon="5.34125">
        <ele>385.2</ele>
        <time>2026-05-09T11:22:45Z</time>
      </trkpt>
      <trkpt lat="46.16116" lon="5.34127">
        <ele>385.6</ele>
        <time>2026-05-09T11:22:46Z</time>
      </trkpt>
      <trkpt lat="46.16115" lon="5.3413">
        <ele>385.8</ele>
        <time>2026-05-09T11:22:47Z</time>
      </trkpt>
      <trkpt lat="46.16115" lon="5.34132">
        <ele>385.8</ele>
        <time>2026-05-09T11:22:48Z</time>
      </trkpt>
      <trkpt lat="46.16115" lon="5.34134">
        <ele>386</ele>
        <time>2026-05-09T11:22:49Z</time>
      </trkpt>
      <trkpt lat="46.16115" lon="5.34137">
        <ele>386.2</ele>
        <time>2026-05-09T11:22:50Z</time>
      </trkpt>
      <trkpt lat="46.16114" lon="5.3414">
        <ele>386.2</ele>
        <time>2026-05-09T11:22:51Z</time>
      </trkpt>
      <trkpt lat="46.16114" lon="5.34143">
        <ele>386.6</ele>
        <time>2026-05-09T11:22:52Z</time>
      </trkpt>
      <trkpt lat="46.16114" lon="5.34145">
        <ele>386.6</ele>
        <time>2026-05-09T11:22:53Z</time>
      </trkpt>
      <trkpt lat="46.16114" lon="5.34148">
        <ele>386.6</ele>
        <time>2026-05-09T11:22:54Z</time>
      </trkpt>
      <trkpt lat="46.16114" lon="5.3415">
        <ele>386.6</ele>
        <time>2026-05-09T11:22:55Z</time>
      </trkpt>
      <trkpt lat="46.16114" lon="5.34153">
        <ele>386.8</ele>
        <time>2026-05-09T11:22:56Z</time>
      </trkpt>
      <trkpt lat="46.16114" lon="5.34155">
        <ele>387.2</ele>
        <time>2026-05-09T11:22:57Z</time>
      </trkpt>
      <trkpt lat="46.16114" lon="5.34158">
        <ele>387.2</ele>
        <time>2026-05-09T11:22:58Z</time>
      </trkpt>
      <trkpt lat="46.16114" lon="5.3416">
        <ele>387.4</ele>
        <time>2026-05-09T11:22:59Z</time>
      </trkpt>
      <trkpt lat="46.16114" lon="5.34162">
        <ele>387.4</ele>
        <time>2026-05-09T11:23:00Z</time>
      </trkpt>
      <trkpt lat="46.16115" lon="5.34164">
        <ele>388.2</ele>
        <time>2026-05-09T11:23:01Z</time>
      </trkpt>
      <trkpt lat="46.16115" lon="5.34167">
        <ele>388.4</ele>
        <time>2026-05-09T11:23:02Z</time>
      </trkpt>
      <trkpt lat="46.16115" lon="5.34169">
        <ele>388.6</ele>
        <time>2026-05-09T11:23:03Z</time>
      </trkpt>
      <trkpt lat="46.16115" lon="5.34169">
        <ele>388.6</ele>
        <time>2026-05-09T11:23:04Z</time>
      </trkpt>
      <trkpt lat="46.16115" lon="5.34171">
        <ele>389</ele>
        <time>2026-05-09T11:23:05Z</time>
      </trkpt>
      <trkpt lat="46.16115" lon="5.34173">
        <ele>389</ele>
        <time>2026-05-09T11:23:06Z</time>
      </trkpt>
      <trkpt lat="46.16114" lon="5.34176">
        <ele>389.2</ele>
        <time>2026-05-09T11:23:07Z</time>
      </trkpt>
      <trkpt lat="46.16114" lon="5.34178">
        <ele>389.2</ele>
        <time>2026-05-09T11:23:08Z</time>
      </trkpt>
      <trkpt lat="46.16114" lon="5.34181">
        <ele>389.2</ele>
        <time>2026-05-09T11:23:09Z</time>
      </trkpt>
      <trkpt lat="46.16114" lon="5.34183">
        <ele>389.2</ele>
        <time>2026-05-09T11:23:10Z</time>
      </trkpt>
      <trkpt lat="46.16115" lon="5.34186">
        <ele>389.4</ele>
        <time>2026-05-09T11:23:11Z</time>
      </trkpt>
      <trkpt lat="46.16115" lon="5.34189">
        <ele>389.4</ele>
        <time>2026-05-09T11:23:12Z</time>
      </trkpt>
      <trkpt lat="46.16115" lon="5.34191">
        <ele>389.6</ele>
        <time>2026-05-09T11:23:13Z</time>
      </trkpt>
      <trkpt lat="46.16115" lon="5.34193">
        <ele>389.6</ele>
        <time>2026-05-09T11:23:14Z</time>
      </trkpt>
      <trkpt lat="46.16115" lon="5.34196">
        <ele>390</ele>
        <time>2026-05-09T11:23:15Z</time>
      </trkpt>
      <trkpt lat="46.16115" lon="5.34198">
        <ele>390</ele>
        <time>2026-05-09T11:23:16Z</time>
      </trkpt>
      <trkpt lat="46.16116" lon="5.34201">
        <ele>390.2</ele>
        <time>2026-05-09T11:23:17Z</time>
      </trkpt>
      <trkpt lat="46.16116" lon="5.34203">
        <ele>390.2</ele>
        <time>2026-05-09T11:23:18Z</time>
      </trkpt>
      <trkpt lat="46.16116" lon="5.34206">
        <ele>390.4</ele>
        <time>2026-05-09T11:23:19Z</time>
      </trkpt>
      <trkpt lat="46.16116" lon="5.34209">
        <ele>390.4</ele>
        <time>2026-05-09T11:23:20Z</time>
      </trkpt>
      <trkpt lat="46.16115" lon="5.34212">
        <ele>390.4</ele>
        <time>2026-05-09T11:23:21Z</time>
      </trkpt>
      <trkpt lat="46.16116" lon="5.34214">
        <ele>390.6</ele>
        <time>2026-05-09T11:23:22Z</time>
      </trkpt>
      <trkpt lat="46.16116" lon="5.34217">
        <ele>390.6</ele>
        <time>2026-05-09T11:23:23Z</time>
      </trkpt>
      <trkpt lat="46.16116" lon="5.3422">
        <ele>391.2</ele>
        <time>2026-05-09T11:23:24Z</time>
      </trkpt>
      <trkpt lat="46.16116" lon="5.34222">
        <ele>391.2</ele>
        <time>2026-05-09T11:23:25Z</time>
      </trkpt>
      <trkpt lat="46.16116" lon="5.34225">
        <ele>391.4</ele>
        <time>2026-05-09T11:23:26Z</time>
      </trkpt>
      <trkpt lat="46.16116" lon="5.34228">
        <ele>391.8</ele>
        <time>2026-05-09T11:23:27Z</time>
      </trkpt>
      <trkpt lat="46.16116" lon="5.3423">
        <ele>391.8</ele>
        <time>2026-05-09T11:23:28Z</time>
      </trkpt>
      <trkpt lat="46.16116" lon="5.34233">
        <ele>391.8</ele>
        <time>2026-05-09T11:23:29Z</time>
      </trkpt>
      <trkpt lat="46.16115" lon="5.34236">
        <ele>392</ele>
        <time>2026-05-09T11:23:30Z</time>
      </trkpt>
      <trkpt lat="46.16115" lon="5.34239">
        <ele>392</ele>
        <time>2026-05-09T11:23:31Z</time>
      </trkpt>
      <trkpt lat="46.16115" lon="5.34242">
        <ele>392.4</ele>
        <time>2026-05-09T11:23:32Z</time>
      </trkpt>
      <trkpt lat="46.16115" lon="5.34245">
        <ele>392.4</ele>
        <time>2026-05-09T11:23:33Z</time>
      </trkpt>
      <trkpt lat="46.16115" lon="5.34247">
        <ele>392.4</ele>
        <time>2026-05-09T11:23:34Z</time>
      </trkpt>
      <trkpt lat="46.16115" lon="5.3425">
        <ele>392.4</ele>
        <time>2026-05-09T11:23:35Z</time>
      </trkpt>
      <trkpt lat="46.16115" lon="5.34253">
        <ele>392.4</ele>
        <time>2026-05-09T11:23:36Z</time>
      </trkpt>
      <trkpt lat="46.16115" lon="5.34256">
        <ele>392.6</ele>
        <time>2026-05-09T11:23:37Z</time>
      </trkpt>
      <trkpt lat="46.16115" lon="5.34258">
        <ele>392.6</ele>
        <time>2026-05-09T11:23:38Z</time>
      </trkpt>
      <trkpt lat="46.16115" lon="5.34261">
        <ele>392.8</ele>
        <time>2026-05-09T11:23:39Z</time>
      </trkpt>
      <trkpt lat="46.16115" lon="5.34264">
        <ele>392.8</ele>
        <time>2026-05-09T11:23:40Z</time>
      </trkpt>
      <trkpt lat="46.16115" lon="5.34267">
        <ele>392.8</ele>
        <time>2026-05-09T11:23:41Z</time>
      </trkpt>
      <trkpt lat="46.16115" lon="5.3427">
        <ele>393.2</ele>
        <time>2026-05-09T11:23:42Z</time>
      </trkpt>
      <trkpt lat="46.16115" lon="5.34273">
        <ele>393.4</ele>
        <time>2026-05-09T11:23:43Z</time>
      </trkpt>
      <trkpt lat="46.16114" lon="5.34276">
        <ele>393.4</ele>
        <time>2026-05-09T11:23:44Z</time>
      </trkpt>
      <trkpt lat="46.16114" lon="5.34279">
        <ele>393.4</ele>
        <time>2026-05-09T11:23:45Z</time>
      </trkpt>
      <trkpt lat="46.16114" lon="5.34282">
        <ele>393.4</ele>
        <time>2026-05-09T11:23:46Z</time>
      </trkpt>
      <trkpt lat="46.16113" lon="5.34285">
        <ele>393.8</ele>
        <time>2026-05-09T11:23:47Z</time>
      </trkpt>
      <trkpt lat="46.16113" lon="5.34288">
        <ele>394</ele>
        <time>2026-05-09T11:23:48Z</time>
      </trkpt>
      <trkpt lat="46.16113" lon="5.34292">
        <ele>394.4</ele>
        <time>2026-05-09T11:23:49Z</time>
      </trkpt>
      <trkpt lat="46.16112" lon="5.34295">
        <ele>394.4</ele>
        <time>2026-05-09T11:23:50Z</time>
      </trkpt>
      <trkpt lat="46.16112" lon="5.34295">
        <ele>394.4</ele>
        <time>2026-05-09T11:23:51Z</time>
      </trkpt>
      <trkpt lat="46.16111" lon="5.34309">
        <ele>394.4</ele>
        <time>2026-05-09T11:23:53Z</time>
      </trkpt>
      <trkpt lat="46.16111" lon="5.34312">
        <ele>394.6</ele>
        <time>2026-05-09T11:23:54Z</time>
      </trkpt>
      <trkpt lat="46.16111" lon="5.34315">
        <ele>394.8</ele>
        <time>2026-05-09T11:23:55Z</time>
      </trkpt>
      <trkpt lat="46.16111" lon="5.34319">
        <ele>394.8</ele>
        <time>2026-05-09T11:23:56Z</time>
      </trkpt>
      <trkpt lat="46.1611" lon="5.34322">
        <ele>394.8</ele>
        <time>2026-05-09T11:23:57Z</time>
      </trkpt>
      <trkpt lat="46.1611" lon="5.34326">
        <ele>394.8</ele>
        <time>2026-05-09T11:23:58Z</time>
      </trkpt>
      <trkpt lat="46.16109" lon="5.34329">
        <ele>394.8</ele>
        <time>2026-05-09T11:23:59Z</time>
      </trkpt>
      <trkpt lat="46.16109" lon="5.34333">
        <ele>394.8</ele>
        <time>2026-05-09T11:24:00Z</time>
      </trkpt>
      <trkpt lat="46.16109" lon="5.34336">
        <ele>395</ele>
        <time>2026-05-09T11:24:01Z</time>
      </trkpt>
      <trkpt lat="46.16108" lon="5.34339">
        <ele>395</ele>
        <time>2026-05-09T11:24:02Z</time>
      </trkpt>
      <trkpt lat="46.16108" lon="5.34343">
        <ele>395</ele>
        <time>2026-05-09T11:24:03Z</time>
      </trkpt>
      <trkpt lat="46.16108" lon="5.34346">
        <ele>395</ele>
        <time>2026-05-09T11:24:04Z</time>
      </trkpt>
      <trkpt lat="46.16107" lon="5.3435">
        <ele>395</ele>
        <time>2026-05-09T11:24:05Z</time>
      </trkpt>
      <trkpt lat="46.16107" lon="5.34353">
        <ele>395</ele>
        <time>2026-05-09T11:24:06Z</time>
      </trkpt>
      <trkpt lat="46.16107" lon="5.34357">
        <ele>395</ele>
        <time>2026-05-09T11:24:07Z</time>
      </trkpt>
      <trkpt lat="46.16107" lon="5.34361">
        <ele>395</ele>
        <time>2026-05-09T11:24:08Z</time>
      </trkpt>
      <trkpt lat="46.16106" lon="5.34365">
        <ele>395</ele>
        <time>2026-05-09T11:24:09Z</time>
      </trkpt>
      <trkpt lat="46.16106" lon="5.34369">
        <ele>395.4</ele>
        <time>2026-05-09T11:24:10Z</time>
      </trkpt>
      <trkpt lat="46.16106" lon="5.34373">
        <ele>395.4</ele>
        <time>2026-05-09T11:24:11Z</time>
      </trkpt>
      <trkpt lat="46.16106" lon="5.34377">
        <ele>395.4</ele>
        <time>2026-05-09T11:24:12Z</time>
      </trkpt>
      <trkpt lat="46.16106" lon="5.34382">
        <ele>395.4</ele>
        <time>2026-05-09T11:24:13Z</time>
      </trkpt>
      <trkpt lat="46.16105" lon="5.34386">
        <ele>395.4</ele>
        <time>2026-05-09T11:24:14Z</time>
      </trkpt>
      <trkpt lat="46.16104" lon="5.34391">
        <ele>395.4</ele>
        <time>2026-05-09T11:24:15Z</time>
      </trkpt>
      <trkpt lat="46.16104" lon="5.34396">
        <ele>395.4</ele>
        <time>2026-05-09T11:24:16Z</time>
      </trkpt>
      <trkpt lat="46.16103" lon="5.34402">
        <ele>395.4</ele>
        <time>2026-05-09T11:24:17Z</time>
      </trkpt>
      <trkpt lat="46.16102" lon="5.34408">
        <ele>395.2</ele>
        <time>2026-05-09T11:24:18Z</time>
      </trkpt>
      <trkpt lat="46.16101" lon="5.34414">
        <ele>395.2</ele>
        <time>2026-05-09T11:24:19Z</time>
      </trkpt>
      <trkpt lat="46.161" lon="5.34421">
        <ele>395.2</ele>
        <time>2026-05-09T11:24:20Z</time>
      </trkpt>
      <trkpt lat="46.161" lon="5.34429">
        <ele>394.8</ele>
        <time>2026-05-09T11:24:21Z</time>
      </trkpt>
      <trkpt lat="46.16099" lon="5.34437">
        <ele>394.6</ele>
        <time>2026-05-09T11:24:22Z</time>
      </trkpt>
      <trkpt lat="46.16099" lon="5.34445">
        <ele>394.6</ele>
        <time>2026-05-09T11:24:23Z</time>
      </trkpt>
      <trkpt lat="46.16098" lon="5.34453">
        <ele>394.2</ele>
        <time>2026-05-09T11:24:24Z</time>
      </trkpt>
      <trkpt lat="46.16098" lon="5.34453">
        <ele>394.2</ele>
        <time>2026-05-09T11:24:25Z</time>
      </trkpt>
      <trkpt lat="46.16098" lon="5.34462">
        <ele>393.8</ele>
        <time>2026-05-09T11:24:26Z</time>
      </trkpt>
      <trkpt lat="46.16097" lon="5.3447">
        <ele>393.8</ele>
        <time>2026-05-09T11:24:27Z</time>
      </trkpt>
      <trkpt lat="46.16097" lon="5.34479">
        <ele>393.6</ele>
        <time>2026-05-09T11:24:28Z</time>
      </trkpt>
      <trkpt lat="46.16097" lon="5.34488">
        <ele>393.2</ele>
        <time>2026-05-09T11:24:29Z</time>
      </trkpt>
      <trkpt lat="46.16097" lon="5.34497">
        <ele>393</ele>
        <time>2026-05-09T11:24:30Z</time>
      </trkpt>
      <trkpt lat="46.16097" lon="5.34506">
        <ele>393</ele>
        <time>2026-05-09T11:24:31Z</time>
      </trkpt>
      <trkpt lat="46.16097" lon="5.34515">
        <ele>393.2</ele>
        <time>2026-05-09T11:24:32Z</time>
      </trkpt>
      <trkpt lat="46.16098" lon="5.34523">
        <ele>393</ele>
        <time>2026-05-09T11:24:33Z</time>
      </trkpt>
      <trkpt lat="46.16098" lon="5.34523">
        <ele>393</ele>
        <time>2026-05-09T11:24:34Z</time>
      </trkpt>
      <trkpt lat="46.16098" lon="5.34548">
        <ele>392.6</ele>
        <time>2026-05-09T11:24:35Z</time>
      </trkpt>
      <trkpt lat="46.16097" lon="5.34556">
        <ele>392.6</ele>
        <time>2026-05-09T11:24:36Z</time>
      </trkpt>
      <trkpt lat="46.16095" lon="5.34564">
        <ele>392.6</ele>
        <time>2026-05-09T11:24:37Z</time>
      </trkpt>
      <trkpt lat="46.16094" lon="5.34573">
        <ele>392.6</ele>
        <time>2026-05-09T11:24:38Z</time>
      </trkpt>
      <trkpt lat="46.16093" lon="5.34581">
        <ele>392.4</ele>
        <time>2026-05-09T11:24:39Z</time>
      </trkpt>
      <trkpt lat="46.16092" lon="5.34589">
        <ele>392.4</ele>
        <time>2026-05-09T11:24:40Z</time>
      </trkpt>
      <trkpt lat="46.16091" lon="5.34596">
        <ele>392.4</ele>
        <time>2026-05-09T11:24:41Z</time>
      </trkpt>
      <trkpt lat="46.16089" lon="5.34603">
        <ele>392.6</ele>
        <time>2026-05-09T11:24:42Z</time>
      </trkpt>
      <trkpt lat="46.16086" lon="5.34609">
        <ele>392.6</ele>
        <time>2026-05-09T11:24:43Z</time>
      </trkpt>
      <trkpt lat="46.16083" lon="5.34616">
        <ele>392.6</ele>
        <time>2026-05-09T11:24:44Z</time>
      </trkpt>
      <trkpt lat="46.16081" lon="5.34622">
        <ele>392.6</ele>
        <time>2026-05-09T11:24:45Z</time>
      </trkpt>
      <trkpt lat="46.16079" lon="5.34629">
        <ele>392.6</ele>
        <time>2026-05-09T11:24:46Z</time>
      </trkpt>
      <trkpt lat="46.16076" lon="5.34635">
        <ele>393</ele>
        <time>2026-05-09T11:24:47Z</time>
      </trkpt>
      <trkpt lat="46.16073" lon="5.34641">
        <ele>393.2</ele>
        <time>2026-05-09T11:24:48Z</time>
      </trkpt>
      <trkpt lat="46.16071" lon="5.34647">
        <ele>393.2</ele>
        <time>2026-05-09T11:24:49Z</time>
      </trkpt>
      <trkpt lat="46.16068" lon="5.34653">
        <ele>393.2</ele>
        <time>2026-05-09T11:24:50Z</time>
      </trkpt>
      <trkpt lat="46.16065" lon="5.34659">
        <ele>393.2</ele>
        <time>2026-05-09T11:24:51Z</time>
      </trkpt>
      <trkpt lat="46.16063" lon="5.34665">
        <ele>393.2</ele>
        <time>2026-05-09T11:24:52Z</time>
      </trkpt>
      <trkpt lat="46.16059" lon="5.3467">
        <ele>393.2</ele>
        <time>2026-05-09T11:24:53Z</time>
      </trkpt>
      <trkpt lat="46.16056" lon="5.34676">
        <ele>393.2</ele>
        <time>2026-05-09T11:24:54Z</time>
      </trkpt>
      <trkpt lat="46.16053" lon="5.34682">
        <ele>393.2</ele>
        <time>2026-05-09T11:24:55Z</time>
      </trkpt>
      <trkpt lat="46.1605" lon="5.34687">
        <ele>393.4</ele>
        <time>2026-05-09T11:24:56Z</time>
      </trkpt>
      <trkpt lat="46.16047" lon="5.34693">
        <ele>393.4</ele>
        <time>2026-05-09T11:24:57Z</time>
      </trkpt>
      <trkpt lat="46.16044" lon="5.34698">
        <ele>393.6</ele>
        <time>2026-05-09T11:24:58Z</time>
      </trkpt>
      <trkpt lat="46.16041" lon="5.34703">
        <ele>393.6</ele>
        <time>2026-05-09T11:24:59Z</time>
      </trkpt>
      <trkpt lat="46.16038" lon="5.34708">
        <ele>393.6</ele>
        <time>2026-05-09T11:25:00Z</time>
      </trkpt>
      <trkpt lat="46.16036" lon="5.34713">
        <ele>394</ele>
        <time>2026-05-09T11:25:01Z</time>
      </trkpt>
      <trkpt lat="46.16033" lon="5.34717">
        <ele>394</ele>
        <time>2026-05-09T11:25:02Z</time>
      </trkpt>
      <trkpt lat="46.1603" lon="5.34722">
        <ele>394.4</ele>
        <time>2026-05-09T11:25:03Z</time>
      </trkpt>
      <trkpt lat="46.16028" lon="5.34726">
        <ele>394.4</ele>
        <time>2026-05-09T11:25:04Z</time>
      </trkpt>
      <trkpt lat="46.16026" lon="5.3473">
        <ele>394.4</ele>
        <time>2026-05-09T11:25:05Z</time>
      </trkpt>
      <trkpt lat="46.16023" lon="5.34735">
        <ele>394.4</ele>
        <time>2026-05-09T11:25:06Z</time>
      </trkpt>
      <trkpt lat="46.1602" lon="5.34739">
        <ele>394.8</ele>
        <time>2026-05-09T11:25:07Z</time>
      </trkpt>
      <trkpt lat="46.16018" lon="5.34743">
        <ele>394.8</ele>
        <time>2026-05-09T11:25:08Z</time>
      </trkpt>
      <trkpt lat="46.16015" lon="5.34747">
        <ele>395.2</ele>
        <time>2026-05-09T11:25:09Z</time>
      </trkpt>
      <trkpt lat="46.16013" lon="5.34752">
        <ele>395.2</ele>
        <time>2026-05-09T11:25:10Z</time>
      </trkpt>
      <trkpt lat="46.16012" lon="5.34756">
        <ele>395.4</ele>
        <time>2026-05-09T11:25:11Z</time>
      </trkpt>
      <trkpt lat="46.1601" lon="5.3476">
        <ele>395.6</ele>
        <time>2026-05-09T11:25:12Z</time>
      </trkpt>
      <trkpt lat="46.16008" lon="5.34764">
        <ele>395.6</ele>
        <time>2026-05-09T11:25:13Z</time>
      </trkpt>
      <trkpt lat="46.16007" lon="5.34768">
        <ele>396</ele>
        <time>2026-05-09T11:25:14Z</time>
      </trkpt>
      <trkpt lat="46.16005" lon="5.34772">
        <ele>396</ele>
        <time>2026-05-09T11:25:15Z</time>
      </trkpt>
      <trkpt lat="46.16003" lon="5.34776">
        <ele>396.2</ele>
        <time>2026-05-09T11:25:16Z</time>
      </trkpt>
      <trkpt lat="46.16002" lon="5.3478">
        <ele>396.2</ele>
        <time>2026-05-09T11:25:17Z</time>
      </trkpt>
      <trkpt lat="46.16" lon="5.34785">
        <ele>396.2</ele>
        <time>2026-05-09T11:25:18Z</time>
      </trkpt>
      <trkpt lat="46.15998" lon="5.34789">
        <ele>396.6</ele>
        <time>2026-05-09T11:25:19Z</time>
      </trkpt>
      <trkpt lat="46.15997" lon="5.34793">
        <ele>396.8</ele>
        <time>2026-05-09T11:25:20Z</time>
      </trkpt>
      <trkpt lat="46.15995" lon="5.34797">
        <ele>396.8</ele>
        <time>2026-05-09T11:25:21Z</time>
      </trkpt>
      <trkpt lat="46.15994" lon="5.34802">
        <ele>396.8</ele>
        <time>2026-05-09T11:25:22Z</time>
      </trkpt>
      <trkpt lat="46.15992" lon="5.34806">
        <ele>397</ele>
        <time>2026-05-09T11:25:23Z</time>
      </trkpt>
      <trkpt lat="46.15991" lon="5.34811">
        <ele>397</ele>
        <time>2026-05-09T11:25:24Z</time>
      </trkpt>
      <trkpt lat="46.15989" lon="5.34815">
        <ele>397</ele>
        <time>2026-05-09T11:25:25Z</time>
      </trkpt>
      <trkpt lat="46.15988" lon="5.3482">
        <ele>397.2</ele>
        <time>2026-05-09T11:25:26Z</time>
      </trkpt>
      <trkpt lat="46.15986" lon="5.34825">
        <ele>397.2</ele>
        <time>2026-05-09T11:25:27Z</time>
      </trkpt>
      <trkpt lat="46.15984" lon="5.3483">
        <ele>397</ele>
        <time>2026-05-09T11:25:28Z</time>
      </trkpt>
      <trkpt lat="46.15983" lon="5.34835">
        <ele>397</ele>
        <time>2026-05-09T11:25:29Z</time>
      </trkpt>
      <trkpt lat="46.15981" lon="5.3484">
        <ele>396.6</ele>
        <time>2026-05-09T11:25:30Z</time>
      </trkpt>
      <trkpt lat="46.1598" lon="5.34846">
        <ele>396.6</ele>
        <time>2026-05-09T11:25:31Z</time>
      </trkpt>
      <trkpt lat="46.15978" lon="5.34852">
        <ele>396.6</ele>
        <time>2026-05-09T11:25:32Z</time>
      </trkpt>
      <trkpt lat="46.15976" lon="5.34858">
        <ele>396.6</ele>
        <time>2026-05-09T11:25:33Z</time>
      </trkpt>
      <trkpt lat="46.15974" lon="5.34864">
        <ele>396.4</ele>
        <time>2026-05-09T11:25:34Z</time>
      </trkpt>
      <trkpt lat="46.15972" lon="5.3487">
        <ele>396.4</ele>
        <time>2026-05-09T11:25:35Z</time>
      </trkpt>
      <trkpt lat="46.15971" lon="5.34878">
        <ele>396.4</ele>
        <time>2026-05-09T11:25:36Z</time>
      </trkpt>
      <trkpt lat="46.15969" lon="5.34885">
        <ele>396</ele>
        <time>2026-05-09T11:25:37Z</time>
      </trkpt>
      <trkpt lat="46.15967" lon="5.34892">
        <ele>396</ele>
        <time>2026-05-09T11:25:38Z</time>
      </trkpt>
      <trkpt lat="46.15965" lon="5.349">
        <ele>396</ele>
        <time>2026-05-09T11:25:39Z</time>
      </trkpt>
      <trkpt lat="46.15963" lon="5.34908">
        <ele>396.4</ele>
        <time>2026-05-09T11:25:40Z</time>
      </trkpt>
      <trkpt lat="46.15961" lon="5.34916">
        <ele>396.4</ele>
        <time>2026-05-09T11:25:41Z</time>
      </trkpt>
      <trkpt lat="46.15959" lon="5.34924">
        <ele>395.8</ele>
        <time>2026-05-09T11:25:42Z</time>
      </trkpt>
      <trkpt lat="46.15956" lon="5.34932">
        <ele>395.4</ele>
        <time>2026-05-09T11:25:43Z</time>
      </trkpt>
      <trkpt lat="46.15955" lon="5.34941">
        <ele>394.8</ele>
        <time>2026-05-09T11:25:44Z</time>
      </trkpt>
      <trkpt lat="46.15953" lon="5.34949">
        <ele>394.8</ele>
        <time>2026-05-09T11:25:45Z</time>
      </trkpt>
      <trkpt lat="46.15951" lon="5.34957">
        <ele>394.8</ele>
        <time>2026-05-09T11:25:46Z</time>
      </trkpt>
      <trkpt lat="46.15949" lon="5.34965">
        <ele>394.6</ele>
        <time>2026-05-09T11:25:47Z</time>
      </trkpt>
      <trkpt lat="46.15947" lon="5.34974">
        <ele>394.6</ele>
        <time>2026-05-09T11:25:48Z</time>
      </trkpt>
      <trkpt lat="46.15944" lon="5.34982">
        <ele>394.6</ele>
        <time>2026-05-09T11:25:49Z</time>
      </trkpt>
      <trkpt lat="46.15942" lon="5.3499">
        <ele>394.2</ele>
        <time>2026-05-09T11:25:50Z</time>
      </trkpt>
      <trkpt lat="46.15941" lon="5.34998">
        <ele>394.2</ele>
        <time>2026-05-09T11:25:51Z</time>
      </trkpt>
      <trkpt lat="46.15938" lon="5.35007">
        <ele>394</ele>
        <time>2026-05-09T11:25:52Z</time>
      </trkpt>
      <trkpt lat="46.15935" lon="5.35015">
        <ele>394</ele>
        <time>2026-05-09T11:25:53Z</time>
      </trkpt>
      <trkpt lat="46.15933" lon="5.35024">
        <ele>394</ele>
        <time>2026-05-09T11:25:54Z</time>
      </trkpt>
      <trkpt lat="46.15931" lon="5.35032">
        <ele>393.6</ele>
        <time>2026-05-09T11:25:55Z</time>
      </trkpt>
      <trkpt lat="46.15929" lon="5.35041">
        <ele>393.4</ele>
        <time>2026-05-09T11:25:56Z</time>
      </trkpt>
      <trkpt lat="46.15927" lon="5.35049">
        <ele>393.2</ele>
        <time>2026-05-09T11:25:57Z</time>
      </trkpt>
      <trkpt lat="46.15925" lon="5.35057">
        <ele>393.2</ele>
        <time>2026-05-09T11:25:58Z</time>
      </trkpt>
      <trkpt lat="46.15925" lon="5.35057">
        <ele>392.8</ele>
        <time>2026-05-09T11:25:59Z</time>
      </trkpt>
      <trkpt lat="46.15924" lon="5.35066">
        <ele>392.6</ele>
        <time>2026-05-09T11:26:00Z</time>
      </trkpt>
      <trkpt lat="46.15922" lon="5.35074">
        <ele>392.4</ele>
        <time>2026-05-09T11:26:01Z</time>
      </trkpt>
      <trkpt lat="46.1592" lon="5.35083">
        <ele>392.4</ele>
        <time>2026-05-09T11:26:02Z</time>
      </trkpt>
      <trkpt lat="46.15918" lon="5.35092">
        <ele>392</ele>
        <time>2026-05-09T11:26:03Z</time>
      </trkpt>
      <trkpt lat="46.15916" lon="5.35101">
        <ele>392</ele>
        <time>2026-05-09T11:26:04Z</time>
      </trkpt>
      <trkpt lat="46.15913" lon="5.3511">
        <ele>391.8</ele>
        <time>2026-05-09T11:26:05Z</time>
      </trkpt>
      <trkpt lat="46.1591" lon="5.35118">
        <ele>391.8</ele>
        <time>2026-05-09T11:26:06Z</time>
      </trkpt>
      <trkpt lat="46.15906" lon="5.35125">
        <ele>391.4</ele>
        <time>2026-05-09T11:26:07Z</time>
      </trkpt>
      <trkpt lat="46.15902" lon="5.35133">
        <ele>391.4</ele>
        <time>2026-05-09T11:26:08Z</time>
      </trkpt>
      <trkpt lat="46.15898" lon="5.35139">
        <ele>391.4</ele>
        <time>2026-05-09T11:26:09Z</time>
      </trkpt>
      <trkpt lat="46.15894" lon="5.35146">
        <ele>391.4</ele>
        <time>2026-05-09T11:26:10Z</time>
      </trkpt>
      <trkpt lat="46.1589" lon="5.35152">
        <ele>391.4</ele>
        <time>2026-05-09T11:26:11Z</time>
      </trkpt>
      <trkpt lat="46.15885" lon="5.35158">
        <ele>391.4</ele>
        <time>2026-05-09T11:26:12Z</time>
      </trkpt>
      <trkpt lat="46.1588" lon="5.35162">
        <ele>391.4</ele>
        <time>2026-05-09T11:26:13Z</time>
      </trkpt>
      <trkpt lat="46.15875" lon="5.35166">
        <ele>391.4</ele>
        <time>2026-05-09T11:26:14Z</time>
      </trkpt>
      <trkpt lat="46.15869" lon="5.3517">
        <ele>391.4</ele>
        <time>2026-05-09T11:26:15Z</time>
      </trkpt>
      <trkpt lat="46.15864" lon="5.35174">
        <ele>391.4</ele>
        <time>2026-05-09T11:26:16Z</time>
      </trkpt>
      <trkpt lat="46.15858" lon="5.35178">
        <ele>391.4</ele>
        <time>2026-05-09T11:26:17Z</time>
      </trkpt>
      <trkpt lat="46.15852" lon="5.35181">
        <ele>391.4</ele>
        <time>2026-05-09T11:26:18Z</time>
      </trkpt>
      <trkpt lat="46.15847" lon="5.35184">
        <ele>391.4</ele>
        <time>2026-05-09T11:26:19Z</time>
      </trkpt>
      <trkpt lat="46.15842" lon="5.35187">
        <ele>391.4</ele>
        <time>2026-05-09T11:26:20Z</time>
      </trkpt>
      <trkpt lat="46.15835" lon="5.35188">
        <ele>391.6</ele>
        <time>2026-05-09T11:26:21Z</time>
      </trkpt>
      <trkpt lat="46.1583" lon="5.3519">
        <ele>392</ele>
        <time>2026-05-09T11:26:22Z</time>
      </trkpt>
      <trkpt lat="46.15825" lon="5.35192">
        <ele>392.2</ele>
        <time>2026-05-09T11:26:23Z</time>
      </trkpt>
      <trkpt lat="46.15821" lon="5.35194">
        <ele>392.2</ele>
        <time>2026-05-09T11:26:24Z</time>
      </trkpt>
      <trkpt lat="46.15818" lon="5.35197">
        <ele>392.6</ele>
        <time>2026-05-09T11:26:25Z</time>
      </trkpt>
      <trkpt lat="46.15814" lon="5.35198">
        <ele>392.6</ele>
        <time>2026-05-09T11:26:26Z</time>
      </trkpt>
      <trkpt lat="46.1581" lon="5.352">
        <ele>392.8</ele>
        <time>2026-05-09T11:26:27Z</time>
      </trkpt>
      <trkpt lat="46.15807" lon="5.35202">
        <ele>393.2</ele>
        <time>2026-05-09T11:26:28Z</time>
      </trkpt>
      <trkpt lat="46.15804" lon="5.35203">
        <ele>393.2</ele>
        <time>2026-05-09T11:26:29Z</time>
      </trkpt>
      <trkpt lat="46.158" lon="5.35205">
        <ele>393.4</ele>
        <time>2026-05-09T11:26:30Z</time>
      </trkpt>
      <trkpt lat="46.15798" lon="5.35207">
        <ele>393.4</ele>
        <time>2026-05-09T11:26:31Z</time>
      </trkpt>
      <trkpt lat="46.15795" lon="5.35208">
        <ele>393.8</ele>
        <time>2026-05-09T11:26:32Z</time>
      </trkpt>
      <trkpt lat="46.15792" lon="5.3521">
        <ele>394</ele>
        <time>2026-05-09T11:26:33Z</time>
      </trkpt>
      <trkpt lat="46.15789" lon="5.35211">
        <ele>394</ele>
        <time>2026-05-09T11:26:34Z</time>
      </trkpt>
      <trkpt lat="46.15786" lon="5.35212">
        <ele>394.4</ele>
        <time>2026-05-09T11:26:35Z</time>
      </trkpt>
      <trkpt lat="46.15783" lon="5.35213">
        <ele>394.4</ele>
        <time>2026-05-09T11:26:36Z</time>
      </trkpt>
      <trkpt lat="46.15781" lon="5.35214">
        <ele>394.4</ele>
        <time>2026-05-09T11:26:37Z</time>
      </trkpt>
      <trkpt lat="46.15778" lon="5.35215">
        <ele>394.6</ele>
        <time>2026-05-09T11:26:38Z</time>
      </trkpt>
      <trkpt lat="46.15776" lon="5.35216">
        <ele>394.6</ele>
        <time>2026-05-09T11:26:39Z</time>
      </trkpt>
      <trkpt lat="46.15774" lon="5.35217">
        <ele>394.6</ele>
        <time>2026-05-09T11:26:40Z</time>
      </trkpt>
      <trkpt lat="46.15771" lon="5.35219">
        <ele>395</ele>
        <time>2026-05-09T11:26:41Z</time>
      </trkpt>
      <trkpt lat="46.15769" lon="5.3522">
        <ele>395</ele>
        <time>2026-05-09T11:26:42Z</time>
      </trkpt>
      <trkpt lat="46.15767" lon="5.35221">
        <ele>395.4</ele>
        <time>2026-05-09T11:26:43Z</time>
      </trkpt>
      <trkpt lat="46.15765" lon="5.35223">
        <ele>395.4</ele>
        <time>2026-05-09T11:26:44Z</time>
      </trkpt>
      <trkpt lat="46.15763" lon="5.35224">
        <ele>395.6</ele>
        <time>2026-05-09T11:26:45Z</time>
      </trkpt>
      <trkpt lat="46.15761" lon="5.35226">
        <ele>395.6</ele>
        <time>2026-05-09T11:26:46Z</time>
      </trkpt>
      <trkpt lat="46.15759" lon="5.35227">
        <ele>395.6</ele>
        <time>2026-05-09T11:26:47Z</time>
      </trkpt>
      <trkpt lat="46.15757" lon="5.35229">
        <ele>396</ele>
        <time>2026-05-09T11:26:48Z</time>
      </trkpt>
      <trkpt lat="46.15755" lon="5.35231">
        <ele>396</ele>
        <time>2026-05-09T11:26:49Z</time>
      </trkpt>
      <trkpt lat="46.15753" lon="5.35233">
        <ele>396.2</ele>
        <time>2026-05-09T11:26:50Z</time>
      </trkpt>
      <trkpt lat="46.15751" lon="5.35235">
        <ele>396.2</ele>
        <time>2026-05-09T11:26:51Z</time>
      </trkpt>
      <trkpt lat="46.1575" lon="5.35237">
        <ele>396.4</ele>
        <time>2026-05-09T11:26:52Z</time>
      </trkpt>
      <trkpt lat="46.15748" lon="5.35239">
        <ele>396.4</ele>
        <time>2026-05-09T11:26:53Z</time>
      </trkpt>
      <trkpt lat="46.15746" lon="5.3524">
        <ele>396.4</ele>
        <time>2026-05-09T11:26:54Z</time>
      </trkpt>
      <trkpt lat="46.15744" lon="5.35242">
        <ele>396.8</ele>
        <time>2026-05-09T11:26:55Z</time>
      </trkpt>
      <trkpt lat="46.15743" lon="5.35244">
        <ele>396.8</ele>
        <time>2026-05-09T11:26:56Z</time>
      </trkpt>
      <trkpt lat="46.15741" lon="5.35246">
        <ele>397</ele>
        <time>2026-05-09T11:26:57Z</time>
      </trkpt>
      <trkpt lat="46.1574" lon="5.35248">
        <ele>397.2</ele>
        <time>2026-05-09T11:26:58Z</time>
      </trkpt>
      <trkpt lat="46.15738" lon="5.3525">
        <ele>397.2</ele>
        <time>2026-05-09T11:26:59Z</time>
      </trkpt>
      <trkpt lat="46.15737" lon="5.35253">
        <ele>397.6</ele>
        <time>2026-05-09T11:27:00Z</time>
      </trkpt>
      <trkpt lat="46.15735" lon="5.35255">
        <ele>397.6</ele>
        <time>2026-05-09T11:27:01Z</time>
      </trkpt>
      <trkpt lat="46.15733" lon="5.35257">
        <ele>397.8</ele>
        <time>2026-05-09T11:27:02Z</time>
      </trkpt>
      <trkpt lat="46.15732" lon="5.35259">
        <ele>397.8</ele>
        <time>2026-05-09T11:27:03Z</time>
      </trkpt>
      <trkpt lat="46.1573" lon="5.35261">
        <ele>397.8</ele>
        <time>2026-05-09T11:27:04Z</time>
      </trkpt>
      <trkpt lat="46.15729" lon="5.35264">
        <ele>398.2</ele>
        <time>2026-05-09T11:27:05Z</time>
      </trkpt>
      <trkpt lat="46.15728" lon="5.35266">
        <ele>398.2</ele>
        <time>2026-05-09T11:27:06Z</time>
      </trkpt>
      <trkpt lat="46.15726" lon="5.35269">
        <ele>398.2</ele>
        <time>2026-05-09T11:27:07Z</time>
      </trkpt>
      <trkpt lat="46.15725" lon="5.35272">
        <ele>398.4</ele>
        <time>2026-05-09T11:27:08Z</time>
      </trkpt>
      <trkpt lat="46.15723" lon="5.35274">
        <ele>398.4</ele>
        <time>2026-05-09T11:27:09Z</time>
      </trkpt>
      <trkpt lat="46.15722" lon="5.35277">
        <ele>398.6</ele>
        <time>2026-05-09T11:27:10Z</time>
      </trkpt>
      <trkpt lat="46.15721" lon="5.35279">
        <ele>398.6</ele>
        <time>2026-05-09T11:27:11Z</time>
      </trkpt>
      <trkpt lat="46.15719" lon="5.35282">
        <ele>398.8</ele>
        <time>2026-05-09T11:27:12Z</time>
      </trkpt>
      <trkpt lat="46.15718" lon="5.35284">
        <ele>398.8</ele>
        <time>2026-05-09T11:27:13Z</time>
      </trkpt>
      <trkpt lat="46.15716" lon="5.35287">
        <ele>399.2</ele>
        <time>2026-05-09T11:27:14Z</time>
      </trkpt>
      <trkpt lat="46.15715" lon="5.35289">
        <ele>399.2</ele>
        <time>2026-05-09T11:27:15Z</time>
      </trkpt>
      <trkpt lat="46.15714" lon="5.35291">
        <ele>399.4</ele>
        <time>2026-05-09T11:27:16Z</time>
      </trkpt>
      <trkpt lat="46.15712" lon="5.35293">
        <ele>399.4</ele>
        <time>2026-05-09T11:27:17Z</time>
      </trkpt>
      <trkpt lat="46.15711" lon="5.35295">
        <ele>399.4</ele>
        <time>2026-05-09T11:27:18Z</time>
      </trkpt>
      <trkpt lat="46.1571" lon="5.35297">
        <ele>399.8</ele>
        <time>2026-05-09T11:27:19Z</time>
      </trkpt>
      <trkpt lat="46.15709" lon="5.353">
        <ele>400</ele>
        <time>2026-05-09T11:27:20Z</time>
      </trkpt>
      <trkpt lat="46.15707" lon="5.35304">
        <ele>400</ele>
        <time>2026-05-09T11:27:21Z</time>
      </trkpt>
      <trkpt lat="46.15705" lon="5.35306">
        <ele>400.4</ele>
        <time>2026-05-09T11:27:22Z</time>
      </trkpt>
      <trkpt lat="46.15704" lon="5.35308">
        <ele>400.4</ele>
        <time>2026-05-09T11:27:23Z</time>
      </trkpt>
      <trkpt lat="46.15703" lon="5.3531">
        <ele>400.8</ele>
        <time>2026-05-09T11:27:24Z</time>
      </trkpt>
      <trkpt lat="46.15702" lon="5.35312">
        <ele>400.8</ele>
        <time>2026-05-09T11:27:25Z</time>
      </trkpt>
      <trkpt lat="46.15701" lon="5.35313">
        <ele>400.8</ele>
        <time>2026-05-09T11:27:26Z</time>
      </trkpt>
      <trkpt lat="46.15699" lon="5.35315">
        <ele>401.2</ele>
        <time>2026-05-09T11:27:27Z</time>
      </trkpt>
      <trkpt lat="46.15698" lon="5.35317">
        <ele>401.4</ele>
        <time>2026-05-09T11:27:28Z</time>
      </trkpt>
      <trkpt lat="46.15697" lon="5.3532">
        <ele>401.4</ele>
        <time>2026-05-09T11:27:29Z</time>
      </trkpt>
      <trkpt lat="46.15696" lon="5.35322">
        <ele>401.8</ele>
        <time>2026-05-09T11:27:30Z</time>
      </trkpt>
      <trkpt lat="46.15695" lon="5.35324">
        <ele>401.8</ele>
        <time>2026-05-09T11:27:31Z</time>
      </trkpt>
      <trkpt lat="46.15694" lon="5.35327">
        <ele>402</ele>
        <time>2026-05-09T11:27:32Z</time>
      </trkpt>
      <trkpt lat="46.15692" lon="5.35329">
        <ele>402.2</ele>
        <time>2026-05-09T11:27:33Z</time>
      </trkpt>
      <trkpt lat="46.15691" lon="5.35332">
        <ele>402.2</ele>
        <time>2026-05-09T11:27:34Z</time>
      </trkpt>
      <trkpt lat="46.1569" lon="5.35334">
        <ele>402.6</ele>
        <time>2026-05-09T11:27:35Z</time>
      </trkpt>
      <trkpt lat="46.15689" lon="5.35336">
        <ele>402.6</ele>
        <time>2026-05-09T11:27:36Z</time>
      </trkpt>
      <trkpt lat="46.15687" lon="5.35338">
        <ele>402.6</ele>
        <time>2026-05-09T11:27:37Z</time>
      </trkpt>
      <trkpt lat="46.15686" lon="5.3534">
        <ele>402.6</ele>
        <time>2026-05-09T11:27:38Z</time>
      </trkpt>
      <trkpt lat="46.15685" lon="5.35341">
        <ele>402.8</ele>
        <time>2026-05-09T11:27:39Z</time>
      </trkpt>
      <trkpt lat="46.15684" lon="5.35344">
        <ele>402.8</ele>
        <time>2026-05-09T11:27:40Z</time>
      </trkpt>
      <trkpt lat="46.15683" lon="5.35346">
        <ele>403</ele>
        <time>2026-05-09T11:27:41Z</time>
      </trkpt>
      <trkpt lat="46.15682" lon="5.35348">
        <ele>403.2</ele>
        <time>2026-05-09T11:27:42Z</time>
      </trkpt>
      <trkpt lat="46.15681" lon="5.3535">
        <ele>403.2</ele>
        <time>2026-05-09T11:27:43Z</time>
      </trkpt>
      <trkpt lat="46.1568" lon="5.35352">
        <ele>403.6</ele>
        <time>2026-05-09T11:27:44Z</time>
      </trkpt>
      <trkpt lat="46.15678" lon="5.35354">
        <ele>403.6</ele>
        <time>2026-05-09T11:27:45Z</time>
      </trkpt>
      <trkpt lat="46.15677" lon="5.35356">
        <ele>403.8</ele>
        <time>2026-05-09T11:27:46Z</time>
      </trkpt>
      <trkpt lat="46.15676" lon="5.35358">
        <ele>403.8</ele>
        <time>2026-05-09T11:27:47Z</time>
      </trkpt>
      <trkpt lat="46.15675" lon="5.3536">
        <ele>404</ele>
        <time>2026-05-09T11:27:48Z</time>
      </trkpt>
      <trkpt lat="46.15674" lon="5.35362">
        <ele>404.4</ele>
        <time>2026-05-09T11:27:49Z</time>
      </trkpt>
      <trkpt lat="46.15673" lon="5.35364">
        <ele>404.4</ele>
        <time>2026-05-09T11:27:50Z</time>
      </trkpt>
      <trkpt lat="46.15672" lon="5.35366">
        <ele>404.6</ele>
        <time>2026-05-09T11:27:51Z</time>
      </trkpt>
      <trkpt lat="46.1567" lon="5.35368">
        <ele>404.6</ele>
        <time>2026-05-09T11:27:52Z</time>
      </trkpt>
      <trkpt lat="46.15669" lon="5.3537">
        <ele>404.8</ele>
        <time>2026-05-09T11:27:53Z</time>
      </trkpt>
      <trkpt lat="46.15668" lon="5.35372">
        <ele>404.8</ele>
        <time>2026-05-09T11:27:54Z</time>
      </trkpt>
      <trkpt lat="46.15667" lon="5.35374">
        <ele>404.8</ele>
        <time>2026-05-09T11:27:55Z</time>
      </trkpt>
      <trkpt lat="46.15666" lon="5.35376">
        <ele>405.2</ele>
        <time>2026-05-09T11:27:56Z</time>
      </trkpt>
      <trkpt lat="46.15665" lon="5.35378">
        <ele>405.2</ele>
        <time>2026-05-09T11:27:57Z</time>
      </trkpt>
      <trkpt lat="46.15664" lon="5.3538">
        <ele>405.6</ele>
        <time>2026-05-09T11:27:58Z</time>
      </trkpt>
      <trkpt lat="46.15663" lon="5.35382">
        <ele>405.6</ele>
        <time>2026-05-09T11:27:59Z</time>
      </trkpt>
      <trkpt lat="46.15663" lon="5.35384">
        <ele>405.6</ele>
        <time>2026-05-09T11:28:00Z</time>
      </trkpt>
      <trkpt lat="46.15662" lon="5.35386">
        <ele>406</ele>
        <time>2026-05-09T11:28:01Z</time>
      </trkpt>
      <trkpt lat="46.15661" lon="5.35388">
        <ele>406.2</ele>
        <time>2026-05-09T11:28:02Z</time>
      </trkpt>
      <trkpt lat="46.15659" lon="5.35391">
        <ele>406.4</ele>
        <time>2026-05-09T11:28:03Z</time>
      </trkpt>
      <trkpt lat="46.15658" lon="5.35392">
        <ele>406.4</ele>
        <time>2026-05-09T11:28:04Z</time>
      </trkpt>
      <trkpt lat="46.15657" lon="5.35394">
        <ele>406.8</ele>
        <time>2026-05-09T11:28:05Z</time>
      </trkpt>
      <trkpt lat="46.15656" lon="5.35396">
        <ele>406.8</ele>
        <time>2026-05-09T11:28:06Z</time>
      </trkpt>
      <trkpt lat="46.15654" lon="5.35398">
        <ele>407</ele>
        <time>2026-05-09T11:28:07Z</time>
      </trkpt>
      <trkpt lat="46.15654" lon="5.354">
        <ele>407.2</ele>
        <time>2026-05-09T11:28:08Z</time>
      </trkpt>
      <trkpt lat="46.15653" lon="5.35402">
        <ele>407.2</ele>
        <time>2026-05-09T11:28:09Z</time>
      </trkpt>
      <trkpt lat="46.15651" lon="5.35404">
        <ele>407.6</ele>
        <time>2026-05-09T11:28:10Z</time>
      </trkpt>
      <trkpt lat="46.1565" lon="5.35405">
        <ele>407.6</ele>
        <time>2026-05-09T11:28:11Z</time>
      </trkpt>
      <trkpt lat="46.15649" lon="5.35407">
        <ele>407.6</ele>
        <time>2026-05-09T11:28:12Z</time>
      </trkpt>
      <trkpt lat="46.15648" lon="5.35408">
        <ele>407.8</ele>
        <time>2026-05-09T11:28:13Z</time>
      </trkpt>
      <trkpt lat="46.15647" lon="5.3541">
        <ele>407.8</ele>
        <time>2026-05-09T11:28:14Z</time>
      </trkpt>
      <trkpt lat="46.15646" lon="5.35412">
        <ele>408.2</ele>
        <time>2026-05-09T11:28:15Z</time>
      </trkpt>
      <trkpt lat="46.15645" lon="5.35414">
        <ele>408.2</ele>
        <time>2026-05-09T11:28:16Z</time>
      </trkpt>
      <trkpt lat="46.15644" lon="5.35415">
        <ele>408.2</ele>
        <time>2026-05-09T11:28:17Z</time>
      </trkpt>
      <trkpt lat="46.15643" lon="5.35417">
        <ele>408.2</ele>
        <time>2026-05-09T11:28:18Z</time>
      </trkpt>
      <trkpt lat="46.15641" lon="5.35419">
        <ele>408.2</ele>
        <time>2026-05-09T11:28:19Z</time>
      </trkpt>
      <trkpt lat="46.1564" lon="5.35421">
        <ele>408.2</ele>
        <time>2026-05-09T11:28:20Z</time>
      </trkpt>
      <trkpt lat="46.15639" lon="5.35422">
        <ele>408.6</ele>
        <time>2026-05-09T11:28:21Z</time>
      </trkpt>
      <trkpt lat="46.15638" lon="5.35424">
        <ele>408.8</ele>
        <time>2026-05-09T11:28:22Z</time>
      </trkpt>
      <trkpt lat="46.15637" lon="5.35426">
        <ele>408.8</ele>
        <time>2026-05-09T11:28:23Z</time>
      </trkpt>
      <trkpt lat="46.15636" lon="5.35428">
        <ele>409.2</ele>
        <time>2026-05-09T11:28:24Z</time>
      </trkpt>
      <trkpt lat="46.15635" lon="5.3543">
        <ele>409.2</ele>
        <time>2026-05-09T11:28:25Z</time>
      </trkpt>
      <trkpt lat="46.15634" lon="5.35431">
        <ele>409.4</ele>
        <time>2026-05-09T11:28:26Z</time>
      </trkpt>
      <trkpt lat="46.15633" lon="5.35433">
        <ele>409.4</ele>
        <time>2026-05-09T11:28:27Z</time>
      </trkpt>
      <trkpt lat="46.15631" lon="5.35435">
        <ele>409.4</ele>
        <time>2026-05-09T11:28:28Z</time>
      </trkpt>
      <trkpt lat="46.1563" lon="5.35436">
        <ele>409.6</ele>
        <time>2026-05-09T11:28:29Z</time>
      </trkpt>
      <trkpt lat="46.15629" lon="5.35438">
        <ele>409.6</ele>
        <time>2026-05-09T11:28:30Z</time>
      </trkpt>
      <trkpt lat="46.15628" lon="5.3544">
        <ele>410</ele>
        <time>2026-05-09T11:28:31Z</time>
      </trkpt>
      <trkpt lat="46.15626" lon="5.35442">
        <ele>410</ele>
        <time>2026-05-09T11:28:32Z</time>
      </trkpt>
      <trkpt lat="46.15625" lon="5.35444">
        <ele>410</ele>
        <time>2026-05-09T11:28:33Z</time>
      </trkpt>
      <trkpt lat="46.15624" lon="5.35446">
        <ele>410</ele>
        <time>2026-05-09T11:28:34Z</time>
      </trkpt>
      <trkpt lat="46.15623" lon="5.35447">
        <ele>410.2</ele>
        <time>2026-05-09T11:28:35Z</time>
      </trkpt>
      <trkpt lat="46.15622" lon="5.35449">
        <ele>410.2</ele>
        <time>2026-05-09T11:28:36Z</time>
      </trkpt>
      <trkpt lat="46.15621" lon="5.35451">
        <ele>410.4</ele>
        <time>2026-05-09T11:28:37Z</time>
      </trkpt>
      <trkpt lat="46.15619" lon="5.35453">
        <ele>410.4</ele>
        <time>2026-05-09T11:28:38Z</time>
      </trkpt>
      <trkpt lat="46.15618" lon="5.35455">
        <ele>410.8</ele>
        <time>2026-05-09T11:28:39Z</time>
      </trkpt>
      <trkpt lat="46.15617" lon="5.35456">
        <ele>410.8</ele>
        <time>2026-05-09T11:28:40Z</time>
      </trkpt>
      <trkpt lat="46.15615" lon="5.35457">
        <ele>410.8</ele>
        <time>2026-05-09T11:28:41Z</time>
      </trkpt>
      <trkpt lat="46.15614" lon="5.35458">
        <ele>411</ele>
        <time>2026-05-09T11:28:42Z</time>
      </trkpt>
      <trkpt lat="46.15612" lon="5.3546">
        <ele>411</ele>
        <time>2026-05-09T11:28:43Z</time>
      </trkpt>
      <trkpt lat="46.15611" lon="5.35461">
        <ele>411.4</ele>
        <time>2026-05-09T11:28:44Z</time>
      </trkpt>
      <trkpt lat="46.1561" lon="5.35463">
        <ele>411.4</ele>
        <time>2026-05-09T11:28:45Z</time>
      </trkpt>
      <trkpt lat="46.15609" lon="5.35464">
        <ele>411.4</ele>
        <time>2026-05-09T11:28:46Z</time>
      </trkpt>
      <trkpt lat="46.15607" lon="5.35466">
        <ele>411.6</ele>
        <time>2026-05-09T11:28:47Z</time>
      </trkpt>
      <trkpt lat="46.15606" lon="5.35468">
        <ele>411.8</ele>
        <time>2026-05-09T11:28:48Z</time>
      </trkpt>
      <trkpt lat="46.15604" lon="5.35469">
        <ele>411.8</ele>
        <time>2026-05-09T11:28:49Z</time>
      </trkpt>
      <trkpt lat="46.15603" lon="5.35471">
        <ele>412.2</ele>
        <time>2026-05-09T11:28:50Z</time>
      </trkpt>
      <trkpt lat="46.15601" lon="5.35473">
        <ele>412.2</ele>
        <time>2026-05-09T11:28:51Z</time>
      </trkpt>
      <trkpt lat="46.156" lon="5.35474">
        <ele>412.4</ele>
        <time>2026-05-09T11:28:52Z</time>
      </trkpt>
      <trkpt lat="46.15599" lon="5.35476">
        <ele>412.6</ele>
        <time>2026-05-09T11:28:53Z</time>
      </trkpt>
      <trkpt lat="46.15598" lon="5.35477">
        <ele>412.6</ele>
        <time>2026-05-09T11:28:54Z</time>
      </trkpt>
      <trkpt lat="46.15597" lon="5.35478">
        <ele>413</ele>
        <time>2026-05-09T11:28:55Z</time>
      </trkpt>
      <trkpt lat="46.15596" lon="5.3548">
        <ele>413</ele>
        <time>2026-05-09T11:28:56Z</time>
      </trkpt>
      <trkpt lat="46.15594" lon="5.35481">
        <ele>413.4</ele>
        <time>2026-05-09T11:28:57Z</time>
      </trkpt>
      <trkpt lat="46.15593" lon="5.35482">
        <ele>413.4</ele>
        <time>2026-05-09T11:28:58Z</time>
      </trkpt>
      <trkpt lat="46.15591" lon="5.35483">
        <ele>413.6</ele>
        <time>2026-05-09T11:28:59Z</time>
      </trkpt>
      <trkpt lat="46.1559" lon="5.35484">
        <ele>413.8</ele>
        <time>2026-05-09T11:29:00Z</time>
      </trkpt>
      <trkpt lat="46.1559" lon="5.35484">
        <ele>413.8</ele>
        <time>2026-05-09T11:29:01Z</time>
      </trkpt>
      <trkpt lat="46.15589" lon="5.35486">
        <ele>414</ele>
        <time>2026-05-09T11:29:02Z</time>
      </trkpt>
      <trkpt lat="46.15587" lon="5.35487">
        <ele>414</ele>
        <time>2026-05-09T11:29:03Z</time>
      </trkpt>
      <trkpt lat="46.15586" lon="5.35489">
        <ele>414</ele>
        <time>2026-05-09T11:29:04Z</time>
      </trkpt>
      <trkpt lat="46.15585" lon="5.35491">
        <ele>414.4</ele>
        <time>2026-05-09T11:29:05Z</time>
      </trkpt>
      <trkpt lat="46.15584" lon="5.35494">
        <ele>414.4</ele>
        <time>2026-05-09T11:29:06Z</time>
      </trkpt>
      <trkpt lat="46.15582" lon="5.35496">
        <ele>414.4</ele>
        <time>2026-05-09T11:29:07Z</time>
      </trkpt>
      <trkpt lat="46.15581" lon="5.35498">
        <ele>414.4</ele>
        <time>2026-05-09T11:29:08Z</time>
      </trkpt>
      <trkpt lat="46.15579" lon="5.35501">
        <ele>414.6</ele>
        <time>2026-05-09T11:29:09Z</time>
      </trkpt>
      <trkpt lat="46.15578" lon="5.35503">
        <ele>414.6</ele>
        <time>2026-05-09T11:29:10Z</time>
      </trkpt>
      <trkpt lat="46.15577" lon="5.35505">
        <ele>415</ele>
        <time>2026-05-09T11:29:11Z</time>
      </trkpt>
      <trkpt lat="46.15575" lon="5.35508">
        <ele>415</ele>
        <time>2026-05-09T11:29:12Z</time>
      </trkpt>
      <trkpt lat="46.15574" lon="5.3551">
        <ele>415</ele>
        <time>2026-05-09T11:29:13Z</time>
      </trkpt>
      <trkpt lat="46.15572" lon="5.35512">
        <ele>415.2</ele>
        <time>2026-05-09T11:29:14Z</time>
      </trkpt>
      <trkpt lat="46.15571" lon="5.35514">
        <ele>415.4</ele>
        <time>2026-05-09T11:29:15Z</time>
      </trkpt>
      <trkpt lat="46.1557" lon="5.35517">
        <ele>415.4</ele>
        <time>2026-05-09T11:29:16Z</time>
      </trkpt>
      <trkpt lat="46.15568" lon="5.35519">
        <ele>415.6</ele>
        <time>2026-05-09T11:29:17Z</time>
      </trkpt>
      <trkpt lat="46.15566" lon="5.35522">
        <ele>415.6</ele>
        <time>2026-05-09T11:29:18Z</time>
      </trkpt>
      <trkpt lat="46.15565" lon="5.35524">
        <ele>415.6</ele>
        <time>2026-05-09T11:29:19Z</time>
      </trkpt>
      <trkpt lat="46.15563" lon="5.35527">
        <ele>415.8</ele>
        <time>2026-05-09T11:29:20Z</time>
      </trkpt>
      <trkpt lat="46.15562" lon="5.35529">
        <ele>415.8</ele>
        <time>2026-05-09T11:29:21Z</time>
      </trkpt>
      <trkpt lat="46.15561" lon="5.35532">
        <ele>416</ele>
        <time>2026-05-09T11:29:22Z</time>
      </trkpt>
      <trkpt lat="46.1556" lon="5.35535">
        <ele>416</ele>
        <time>2026-05-09T11:29:23Z</time>
      </trkpt>
      <trkpt lat="46.15559" lon="5.35538">
        <ele>416.4</ele>
        <time>2026-05-09T11:29:24Z</time>
      </trkpt>
      <trkpt lat="46.15557" lon="5.3554">
        <ele>416.4</ele>
        <time>2026-05-09T11:29:25Z</time>
      </trkpt>
      <trkpt lat="46.15556" lon="5.35543">
        <ele>416.8</ele>
        <time>2026-05-09T11:29:26Z</time>
      </trkpt>
      <trkpt lat="46.15555" lon="5.35546">
        <ele>416.8</ele>
        <time>2026-05-09T11:29:27Z</time>
      </trkpt>
      <trkpt lat="46.15554" lon="5.35549">
        <ele>417</ele>
        <time>2026-05-09T11:29:28Z</time>
      </trkpt>
      <trkpt lat="46.15553" lon="5.35552">
        <ele>417</ele>
        <time>2026-05-09T11:29:29Z</time>
      </trkpt>
      <trkpt lat="46.15551" lon="5.35555">
        <ele>417</ele>
        <time>2026-05-09T11:29:30Z</time>
      </trkpt>
      <trkpt lat="46.1555" lon="5.35559">
        <ele>417.2</ele>
        <time>2026-05-09T11:29:31Z</time>
      </trkpt>
      <trkpt lat="46.15548" lon="5.35562">
        <ele>417.2</ele>
        <time>2026-05-09T11:29:32Z</time>
      </trkpt>
      <trkpt lat="46.15547" lon="5.35565">
        <ele>417.2</ele>
        <time>2026-05-09T11:29:33Z</time>
      </trkpt>
      <trkpt lat="46.15547" lon="5.35568">
        <ele>417.2</ele>
        <time>2026-05-09T11:29:34Z</time>
      </trkpt>
      <trkpt lat="46.15546" lon="5.35572">
        <ele>417.4</ele>
        <time>2026-05-09T11:29:35Z</time>
      </trkpt>
      <trkpt lat="46.15545" lon="5.35575">
        <ele>417.4</ele>
        <time>2026-05-09T11:29:36Z</time>
      </trkpt>
      <trkpt lat="46.15545" lon="5.35579">
        <ele>417.4</ele>
        <time>2026-05-09T11:29:37Z</time>
      </trkpt>
      <trkpt lat="46.15544" lon="5.35583">
        <ele>417.4</ele>
        <time>2026-05-09T11:29:38Z</time>
      </trkpt>
      <trkpt lat="46.15543" lon="5.35587">
        <ele>417.4</ele>
        <time>2026-05-09T11:29:39Z</time>
      </trkpt>
      <trkpt lat="46.15543" lon="5.35592">
        <ele>417.4</ele>
        <time>2026-05-09T11:29:40Z</time>
      </trkpt>
      <trkpt lat="46.15543" lon="5.35596">
        <ele>417.4</ele>
        <time>2026-05-09T11:29:41Z</time>
      </trkpt>
      <trkpt lat="46.15544" lon="5.356">
        <ele>417.4</ele>
        <time>2026-05-09T11:29:42Z</time>
      </trkpt>
      <trkpt lat="46.15543" lon="5.35605">
        <ele>417.8</ele>
        <time>2026-05-09T11:29:43Z</time>
      </trkpt>
      <trkpt lat="46.15543" lon="5.35609">
        <ele>417.8</ele>
        <time>2026-05-09T11:29:44Z</time>
      </trkpt>
      <trkpt lat="46.15543" lon="5.35613">
        <ele>417.8</ele>
        <time>2026-05-09T11:29:45Z</time>
      </trkpt>
      <trkpt lat="46.15543" lon="5.35617">
        <ele>417.8</ele>
        <time>2026-05-09T11:29:46Z</time>
      </trkpt>
      <trkpt lat="46.15544" lon="5.35621">
        <ele>418</ele>
        <time>2026-05-09T11:29:47Z</time>
      </trkpt>
      <trkpt lat="46.15544" lon="5.35625">
        <ele>418</ele>
        <time>2026-05-09T11:29:48Z</time>
      </trkpt>
      <trkpt lat="46.15544" lon="5.3563">
        <ele>418</ele>
        <time>2026-05-09T11:29:49Z</time>
      </trkpt>
      <trkpt lat="46.15545" lon="5.35634">
        <ele>418</ele>
        <time>2026-05-09T11:29:50Z</time>
      </trkpt>
      <trkpt lat="46.15546" lon="5.35638">
        <ele>418</ele>
        <time>2026-05-09T11:29:51Z</time>
      </trkpt>
      <trkpt lat="46.15547" lon="5.35642">
        <ele>418.4</ele>
        <time>2026-05-09T11:29:52Z</time>
      </trkpt>
      <trkpt lat="46.15548" lon="5.35645">
        <ele>418.4</ele>
        <time>2026-05-09T11:29:53Z</time>
      </trkpt>
      <trkpt lat="46.1555" lon="5.35649">
        <ele>418.2</ele>
        <time>2026-05-09T11:29:54Z</time>
      </trkpt>
      <trkpt lat="46.15551" lon="5.35653">
        <ele>418.2</ele>
        <time>2026-05-09T11:29:55Z</time>
      </trkpt>
      <trkpt lat="46.15553" lon="5.35657">
        <ele>418.2</ele>
        <time>2026-05-09T11:29:56Z</time>
      </trkpt>
      <trkpt lat="46.15553" lon="5.3566">
        <ele>418.2</ele>
        <time>2026-05-09T11:29:57Z</time>
      </trkpt>
      <trkpt lat="46.15554" lon="5.35664">
        <ele>418.2</ele>
        <time>2026-05-09T11:29:58Z</time>
      </trkpt>
      <trkpt lat="46.15554" lon="5.35668">
        <ele>418.2</ele>
        <time>2026-05-09T11:29:59Z</time>
      </trkpt>
      <trkpt lat="46.15554" lon="5.35672">
        <ele>418.4</ele>
        <time>2026-05-09T11:30:00Z</time>
      </trkpt>
      <trkpt lat="46.15554" lon="5.35676">
        <ele>418.4</ele>
        <time>2026-05-09T11:30:01Z</time>
      </trkpt>
      <trkpt lat="46.15554" lon="5.3568">
        <ele>418.6</ele>
        <time>2026-05-09T11:30:02Z</time>
      </trkpt>
      <trkpt lat="46.15553" lon="5.35685">
        <ele>418.6</ele>
        <time>2026-05-09T11:30:03Z</time>
      </trkpt>
      <trkpt lat="46.15553" lon="5.35689">
        <ele>418.4</ele>
        <time>2026-05-09T11:30:04Z</time>
      </trkpt>
      <trkpt lat="46.15552" lon="5.35693">
        <ele>418.4</ele>
        <time>2026-05-09T11:30:05Z</time>
      </trkpt>
      <trkpt lat="46.15551" lon="5.35698">
        <ele>418.4</ele>
        <time>2026-05-09T11:30:06Z</time>
      </trkpt>
      <trkpt lat="46.15549" lon="5.35702">
        <ele>418.4</ele>
        <time>2026-05-09T11:30:07Z</time>
      </trkpt>
      <trkpt lat="46.15548" lon="5.35707">
        <ele>418.4</ele>
        <time>2026-05-09T11:30:08Z</time>
      </trkpt>
      <trkpt lat="46.15546" lon="5.35712">
        <ele>418.4</ele>
        <time>2026-05-09T11:30:09Z</time>
      </trkpt>
      <trkpt lat="46.15544" lon="5.35717">
        <ele>418.4</ele>
        <time>2026-05-09T11:30:10Z</time>
      </trkpt>
      <trkpt lat="46.15543" lon="5.35723">
        <ele>418.4</ele>
        <time>2026-05-09T11:30:11Z</time>
      </trkpt>
      <trkpt lat="46.15542" lon="5.35728">
        <ele>418.2</ele>
        <time>2026-05-09T11:30:12Z</time>
      </trkpt>
      <trkpt lat="46.15541" lon="5.35734">
        <ele>418.2</ele>
        <time>2026-05-09T11:30:13Z</time>
      </trkpt>
      <trkpt lat="46.1554" lon="5.35739">
        <ele>418.2</ele>
        <time>2026-05-09T11:30:14Z</time>
      </trkpt>
      <trkpt lat="46.15539" lon="5.35744">
        <ele>418.2</ele>
        <time>2026-05-09T11:30:15Z</time>
      </trkpt>
      <trkpt lat="46.15538" lon="5.35749">
        <ele>418</ele>
        <time>2026-05-09T11:30:16Z</time>
      </trkpt>
      <trkpt lat="46.15537" lon="5.35755">
        <ele>418</ele>
        <time>2026-05-09T11:30:17Z</time>
      </trkpt>
      <trkpt lat="46.15536" lon="5.35761">
        <ele>418</ele>
        <time>2026-05-09T11:30:18Z</time>
      </trkpt>
      <trkpt lat="46.15534" lon="5.35766">
        <ele>418</ele>
        <time>2026-05-09T11:30:19Z</time>
      </trkpt>
      <trkpt lat="46.15533" lon="5.35772">
        <ele>418</ele>
        <time>2026-05-09T11:30:20Z</time>
      </trkpt>
      <trkpt lat="46.15532" lon="5.35778">
        <ele>418</ele>
        <time>2026-05-09T11:30:21Z</time>
      </trkpt>
      <trkpt lat="46.1553" lon="5.35784">
        <ele>418</ele>
        <time>2026-05-09T11:30:22Z</time>
      </trkpt>
      <trkpt lat="46.15529" lon="5.3579">
        <ele>418</ele>
        <time>2026-05-09T11:30:23Z</time>
      </trkpt>
      <trkpt lat="46.15527" lon="5.35797">
        <ele>418</ele>
        <time>2026-05-09T11:30:24Z</time>
      </trkpt>
      <trkpt lat="46.15524" lon="5.35803">
        <ele>418</ele>
        <time>2026-05-09T11:30:25Z</time>
      </trkpt>
      <trkpt lat="46.15522" lon="5.35816">
        <ele>418</ele>
        <time>2026-05-09T11:30:26Z</time>
      </trkpt>
      <trkpt lat="46.1552" lon="5.35823">
        <ele>418</ele>
        <time>2026-05-09T11:30:27Z</time>
      </trkpt>
      <trkpt lat="46.15519" lon="5.35829">
        <ele>418</ele>
        <time>2026-05-09T11:30:28Z</time>
      </trkpt>
      <trkpt lat="46.15516" lon="5.35836">
        <ele>417.8</ele>
        <time>2026-05-09T11:30:29Z</time>
      </trkpt>
      <trkpt lat="46.15515" lon="5.35842">
        <ele>417.8</ele>
        <time>2026-05-09T11:30:30Z</time>
      </trkpt>
      <trkpt lat="46.15514" lon="5.35848">
        <ele>417.6</ele>
        <time>2026-05-09T11:30:31Z</time>
      </trkpt>
      <trkpt lat="46.15512" lon="5.35854">
        <ele>417.6</ele>
        <time>2026-05-09T11:30:32Z</time>
      </trkpt>
      <trkpt lat="46.15511" lon="5.3586">
        <ele>417.6</ele>
        <time>2026-05-09T11:30:33Z</time>
      </trkpt>
      <trkpt lat="46.15507" lon="5.35865">
        <ele>417.6</ele>
        <time>2026-05-09T11:30:34Z</time>
      </trkpt>
      <trkpt lat="46.15504" lon="5.35871">
        <ele>417.6</ele>
        <time>2026-05-09T11:30:35Z</time>
      </trkpt>
      <trkpt lat="46.155" lon="5.35876">
        <ele>417.2</ele>
        <time>2026-05-09T11:30:36Z</time>
      </trkpt>
      <trkpt lat="46.15496" lon="5.3588">
        <ele>416.8</ele>
        <time>2026-05-09T11:30:37Z</time>
      </trkpt>
      <trkpt lat="46.15491" lon="5.35884">
        <ele>416.6</ele>
        <time>2026-05-09T11:30:38Z</time>
      </trkpt>
      <trkpt lat="46.15484" lon="5.35887">
        <ele>416.4</ele>
        <time>2026-05-09T11:30:39Z</time>
      </trkpt>
      <trkpt lat="46.15478" lon="5.35889">
        <ele>416.4</ele>
        <time>2026-05-09T11:30:40Z</time>
      </trkpt>
      <trkpt lat="46.15471" lon="5.35891">
        <ele>415.8</ele>
        <time>2026-05-09T11:30:41Z</time>
      </trkpt>
      <trkpt lat="46.15464" lon="5.35894">
        <ele>415.8</ele>
        <time>2026-05-09T11:30:42Z</time>
      </trkpt>
      <trkpt lat="46.15457" lon="5.35897">
        <ele>415.6</ele>
        <time>2026-05-09T11:30:43Z</time>
      </trkpt>
      <trkpt lat="46.15451" lon="5.35901">
        <ele>415.2</ele>
        <time>2026-05-09T11:30:44Z</time>
      </trkpt>
      <trkpt lat="46.15443" lon="5.35905">
        <ele>414.8</ele>
        <time>2026-05-09T11:30:45Z</time>
      </trkpt>
      <trkpt lat="46.15435" lon="5.35909">
        <ele>414.4</ele>
        <time>2026-05-09T11:30:46Z</time>
      </trkpt>
      <trkpt lat="46.15427" lon="5.35913">
        <ele>414.2</ele>
        <time>2026-05-09T11:30:47Z</time>
      </trkpt>
      <trkpt lat="46.15419" lon="5.35918">
        <ele>413.8</ele>
        <time>2026-05-09T11:30:48Z</time>
      </trkpt>
      <trkpt lat="46.15412" lon="5.35922">
        <ele>413.4</ele>
        <time>2026-05-09T11:30:49Z</time>
      </trkpt>
      <trkpt lat="46.15401" lon="5.35926">
        <ele>412.8</ele>
        <time>2026-05-09T11:30:50Z</time>
      </trkpt>
      <trkpt lat="46.15394" lon="5.35931">
        <ele>412.2</ele>
        <time>2026-05-09T11:30:51Z</time>
      </trkpt>
      <trkpt lat="46.15385" lon="5.35934">
        <ele>411.8</ele>
        <time>2026-05-09T11:30:52Z</time>
      </trkpt>
      <trkpt lat="46.15378" lon="5.35938">
        <ele>411</ele>
        <time>2026-05-09T11:30:53Z</time>
      </trkpt>
      <trkpt lat="46.15371" lon="5.3594">
        <ele>410.6</ele>
        <time>2026-05-09T11:30:54Z</time>
      </trkpt>
      <trkpt lat="46.15362" lon="5.35942">
        <ele>409.8</ele>
        <time>2026-05-09T11:30:55Z</time>
      </trkpt>
      <trkpt lat="46.15353" lon="5.35943">
        <ele>409.4</ele>
        <time>2026-05-09T11:30:56Z</time>
      </trkpt>
      <trkpt lat="46.15342" lon="5.35942">
        <ele>409</ele>
        <time>2026-05-09T11:30:57Z</time>
      </trkpt>
      <trkpt lat="46.15331" lon="5.35941">
        <ele>408.6</ele>
        <time>2026-05-09T11:30:58Z</time>
      </trkpt>
      <trkpt lat="46.1532" lon="5.35938">
        <ele>407.4</ele>
        <time>2026-05-09T11:30:59Z</time>
      </trkpt>
      <trkpt lat="46.15309" lon="5.35935">
        <ele>407</ele>
        <time>2026-05-09T11:31:00Z</time>
      </trkpt>
      <trkpt lat="46.15298" lon="5.35934">
        <ele>406.4</ele>
        <time>2026-05-09T11:31:01Z</time>
      </trkpt>
      <trkpt lat="46.15287" lon="5.35932">
        <ele>405.6</ele>
        <time>2026-05-09T11:31:02Z</time>
      </trkpt>
      <trkpt lat="46.15276" lon="5.35929">
        <ele>404.6</ele>
        <time>2026-05-09T11:31:03Z</time>
      </trkpt>
      <trkpt lat="46.15264" lon="5.35926">
        <ele>403.8</ele>
        <time>2026-05-09T11:31:04Z</time>
      </trkpt>
      <trkpt lat="46.15253" lon="5.35922">
        <ele>403.4</ele>
        <time>2026-05-09T11:31:05Z</time>
      </trkpt>
      <trkpt lat="46.15242" lon="5.3592">
        <ele>402.8</ele>
        <time>2026-05-09T11:31:06Z</time>
      </trkpt>
      <trkpt lat="46.15231" lon="5.35916">
        <ele>402</ele>
        <time>2026-05-09T11:31:07Z</time>
      </trkpt>
      <trkpt lat="46.1522" lon="5.35913">
        <ele>401.2</ele>
        <time>2026-05-09T11:31:08Z</time>
      </trkpt>
      <trkpt lat="46.15209" lon="5.3591">
        <ele>400.2</ele>
        <time>2026-05-09T11:31:09Z</time>
      </trkpt>
      <trkpt lat="46.15198" lon="5.35907">
        <ele>399.6</ele>
        <time>2026-05-09T11:31:10Z</time>
      </trkpt>
      <trkpt lat="46.15187" lon="5.35904">
        <ele>399</ele>
        <time>2026-05-09T11:31:11Z</time>
      </trkpt>
      <trkpt lat="46.15175" lon="5.35902">
        <ele>398</ele>
        <time>2026-05-09T11:31:12Z</time>
      </trkpt>
      <trkpt lat="46.15164" lon="5.359">
        <ele>397.4</ele>
        <time>2026-05-09T11:31:13Z</time>
      </trkpt>
      <trkpt lat="46.15152" lon="5.35897">
        <ele>397.4</ele>
        <time>2026-05-09T11:31:14Z</time>
      </trkpt>
      <trkpt lat="46.1514" lon="5.35895">
        <ele>396.6</ele>
        <time>2026-05-09T11:31:15Z</time>
      </trkpt>
      <trkpt lat="46.15127" lon="5.35892">
        <ele>396</ele>
        <time>2026-05-09T11:31:16Z</time>
      </trkpt>
      <trkpt lat="46.15115" lon="5.3589">
        <ele>395.6</ele>
        <time>2026-05-09T11:31:17Z</time>
      </trkpt>
      <trkpt lat="46.15103" lon="5.35888">
        <ele>395</ele>
        <time>2026-05-09T11:31:18Z</time>
      </trkpt>
      <trkpt lat="46.1509" lon="5.35886">
        <ele>394.4</ele>
        <time>2026-05-09T11:31:19Z</time>
      </trkpt>
      <trkpt lat="46.15079" lon="5.35883">
        <ele>394</ele>
        <time>2026-05-09T11:31:20Z</time>
      </trkpt>
      <trkpt lat="46.15067" lon="5.35882">
        <ele>393.4</ele>
        <time>2026-05-09T11:31:21Z</time>
      </trkpt>
      <trkpt lat="46.15056" lon="5.35882">
        <ele>393</ele>
        <time>2026-05-09T11:31:22Z</time>
      </trkpt>
      <trkpt lat="46.15044" lon="5.35882">
        <ele>392.8</ele>
        <time>2026-05-09T11:31:23Z</time>
      </trkpt>
      <trkpt lat="46.15033" lon="5.35883">
        <ele>392.2</ele>
        <time>2026-05-09T11:31:24Z</time>
      </trkpt>
      <trkpt lat="46.15021" lon="5.35883">
        <ele>391.8</ele>
        <time>2026-05-09T11:31:25Z</time>
      </trkpt>
      <trkpt lat="46.15011" lon="5.35883">
        <ele>391.2</ele>
        <time>2026-05-09T11:31:26Z</time>
      </trkpt>
      <trkpt lat="46.15" lon="5.35884">
        <ele>390.8</ele>
        <time>2026-05-09T11:31:27Z</time>
      </trkpt>
      <trkpt lat="46.1499" lon="5.35884">
        <ele>390.2</ele>
        <time>2026-05-09T11:31:28Z</time>
      </trkpt>
      <trkpt lat="46.14979" lon="5.35885">
        <ele>389.8</ele>
        <time>2026-05-09T11:31:29Z</time>
      </trkpt>
      <trkpt lat="46.1497" lon="5.35886">
        <ele>389.6</ele>
        <time>2026-05-09T11:31:30Z</time>
      </trkpt>
      <trkpt lat="46.14959" lon="5.35886">
        <ele>389.2</ele>
        <time>2026-05-09T11:31:31Z</time>
      </trkpt>
      <trkpt lat="46.14949" lon="5.35887">
        <ele>389.2</ele>
        <time>2026-05-09T11:31:32Z</time>
      </trkpt>
      <trkpt lat="46.14939" lon="5.35888">
        <ele>388.6</ele>
        <time>2026-05-09T11:31:33Z</time>
      </trkpt>
      <trkpt lat="46.1493" lon="5.35889">
        <ele>388</ele>
        <time>2026-05-09T11:31:34Z</time>
      </trkpt>
      <trkpt lat="46.1492" lon="5.3589">
        <ele>387.6</ele>
        <time>2026-05-09T11:31:35Z</time>
      </trkpt>
      <trkpt lat="46.14911" lon="5.3589">
        <ele>387.4</ele>
        <time>2026-05-09T11:31:36Z</time>
      </trkpt>
      <trkpt lat="46.14901" lon="5.35892">
        <ele>387</ele>
        <time>2026-05-09T11:31:37Z</time>
      </trkpt>
      <trkpt lat="46.14891" lon="5.35893">
        <ele>387</ele>
        <time>2026-05-09T11:31:38Z</time>
      </trkpt>
      <trkpt lat="46.14881" lon="5.35894">
        <ele>386.6</ele>
        <time>2026-05-09T11:31:39Z</time>
      </trkpt>
      <trkpt lat="46.14872" lon="5.35894">
        <ele>386.2</ele>
        <time>2026-05-09T11:31:40Z</time>
      </trkpt>
      <trkpt lat="46.14863" lon="5.35895">
        <ele>385.8</ele>
        <time>2026-05-09T11:31:41Z</time>
      </trkpt>
      <trkpt lat="46.14853" lon="5.35896">
        <ele>385.4</ele>
        <time>2026-05-09T11:31:42Z</time>
      </trkpt>
      <trkpt lat="46.14843" lon="5.35896">
        <ele>385</ele>
        <time>2026-05-09T11:31:43Z</time>
      </trkpt>
      <trkpt lat="46.14833" lon="5.35897">
        <ele>384.8</ele>
        <time>2026-05-09T11:31:44Z</time>
      </trkpt>
      <trkpt lat="46.14823" lon="5.35898">
        <ele>384.2</ele>
        <time>2026-05-09T11:31:45Z</time>
      </trkpt>
      <trkpt lat="46.14813" lon="5.35899">
        <ele>384.2</ele>
        <time>2026-05-09T11:31:46Z</time>
      </trkpt>
      <trkpt lat="46.14804" lon="5.359">
        <ele>383.6</ele>
        <time>2026-05-09T11:31:47Z</time>
      </trkpt>
      <trkpt lat="46.14793" lon="5.359">
        <ele>383.4</ele>
        <time>2026-05-09T11:31:48Z</time>
      </trkpt>
      <trkpt lat="46.14783" lon="5.35901">
        <ele>383</ele>
        <time>2026-05-09T11:31:49Z</time>
      </trkpt>
      <trkpt lat="46.14773" lon="5.35901">
        <ele>382.6</ele>
        <time>2026-05-09T11:31:50Z</time>
      </trkpt>
      <trkpt lat="46.14763" lon="5.359">
        <ele>382</ele>
        <time>2026-05-09T11:31:51Z</time>
      </trkpt>
      <trkpt lat="46.14754" lon="5.35898">
        <ele>381.6</ele>
        <time>2026-05-09T11:31:52Z</time>
      </trkpt>
      <trkpt lat="46.14744" lon="5.35895">
        <ele>381.4</ele>
        <time>2026-05-09T11:31:53Z</time>
      </trkpt>
      <trkpt lat="46.14734" lon="5.35892">
        <ele>380.8</ele>
        <time>2026-05-09T11:31:54Z</time>
      </trkpt>
      <trkpt lat="46.14726" lon="5.35888">
        <ele>380.8</ele>
        <time>2026-05-09T11:31:55Z</time>
      </trkpt>
      <trkpt lat="46.14716" lon="5.35883">
        <ele>380.2</ele>
        <time>2026-05-09T11:31:56Z</time>
      </trkpt>
      <trkpt lat="46.14716" lon="5.35883">
        <ele>380.2</ele>
        <time>2026-05-09T11:31:57Z</time>
      </trkpt>
      <trkpt lat="46.14707" lon="5.3588">
        <ele>379.8</ele>
        <time>2026-05-09T11:31:58Z</time>
      </trkpt>
      <trkpt lat="46.14698" lon="5.35875">
        <ele>379.4</ele>
        <time>2026-05-09T11:31:59Z</time>
      </trkpt>
      <trkpt lat="46.14689" lon="5.35871">
        <ele>379.2</ele>
        <time>2026-05-09T11:32:00Z</time>
      </trkpt>
      <trkpt lat="46.1468" lon="5.35867">
        <ele>378.8</ele>
        <time>2026-05-09T11:32:01Z</time>
      </trkpt>
      <trkpt lat="46.14671" lon="5.35863">
        <ele>378.4</ele>
        <time>2026-05-09T11:32:02Z</time>
      </trkpt>
      <trkpt lat="46.14662" lon="5.3586">
        <ele>378</ele>
        <time>2026-05-09T11:32:03Z</time>
      </trkpt>
      <trkpt lat="46.14653" lon="5.35855">
        <ele>377.2</ele>
        <time>2026-05-09T11:32:04Z</time>
      </trkpt>
      <trkpt lat="46.14643" lon="5.35851">
        <ele>376.6</ele>
        <time>2026-05-09T11:32:05Z</time>
      </trkpt>
      <trkpt lat="46.14634" lon="5.35846">
        <ele>375.6</ele>
        <time>2026-05-09T11:32:06Z</time>
      </trkpt>
      <trkpt lat="46.14624" lon="5.35841">
        <ele>375</ele>
        <time>2026-05-09T11:32:07Z</time>
      </trkpt>
      <trkpt lat="46.14615" lon="5.35835">
        <ele>374.2</ele>
        <time>2026-05-09T11:32:08Z</time>
      </trkpt>
      <trkpt lat="46.14605" lon="5.3583">
        <ele>373.4</ele>
        <time>2026-05-09T11:32:09Z</time>
      </trkpt>
      <trkpt lat="46.14595" lon="5.35823">
        <ele>372.6</ele>
        <time>2026-05-09T11:32:10Z</time>
      </trkpt>
      <trkpt lat="46.14585" lon="5.35816">
        <ele>371.8</ele>
        <time>2026-05-09T11:32:11Z</time>
      </trkpt>
      <trkpt lat="46.14575" lon="5.35809">
        <ele>371</ele>
        <time>2026-05-09T11:32:12Z</time>
      </trkpt>
      <trkpt lat="46.14565" lon="5.35801">
        <ele>370.4</ele>
        <time>2026-05-09T11:32:13Z</time>
      </trkpt>
      <trkpt lat="46.14555" lon="5.35793">
        <ele>369.2</ele>
        <time>2026-05-09T11:32:14Z</time>
      </trkpt>
      <trkpt lat="46.14544" lon="5.35786">
        <ele>368.2</ele>
        <time>2026-05-09T11:32:15Z</time>
      </trkpt>
      <trkpt lat="46.14534" lon="5.35779">
        <ele>367.4</ele>
        <time>2026-05-09T11:32:16Z</time>
      </trkpt>
      <trkpt lat="46.14524" lon="5.35774">
        <ele>366.8</ele>
        <time>2026-05-09T11:32:17Z</time>
      </trkpt>
      <trkpt lat="46.14513" lon="5.35768">
        <ele>365.8</ele>
        <time>2026-05-09T11:32:18Z</time>
      </trkpt>
      <trkpt lat="46.14501" lon="5.35764">
        <ele>365.2</ele>
        <time>2026-05-09T11:32:19Z</time>
      </trkpt>
      <trkpt lat="46.14489" lon="5.35762">
        <ele>364.4</ele>
        <time>2026-05-09T11:32:20Z</time>
      </trkpt>
      <trkpt lat="46.14477" lon="5.3576">
        <ele>363.6</ele>
        <time>2026-05-09T11:32:21Z</time>
      </trkpt>
      <trkpt lat="46.14466" lon="5.35759">
        <ele>362.8</ele>
        <time>2026-05-09T11:32:22Z</time>
      </trkpt>
      <trkpt lat="46.14455" lon="5.35757">
        <ele>362</ele>
        <time>2026-05-09T11:32:23Z</time>
      </trkpt>
      <trkpt lat="46.14444" lon="5.35757">
        <ele>361.2</ele>
        <time>2026-05-09T11:32:24Z</time>
      </trkpt>
      <trkpt lat="46.14433" lon="5.35759">
        <ele>360.6</ele>
        <time>2026-05-09T11:32:25Z</time>
      </trkpt>
      <trkpt lat="46.14423" lon="5.35762">
        <ele>360</ele>
        <time>2026-05-09T11:32:26Z</time>
      </trkpt>
      <trkpt lat="46.14414" lon="5.35766">
        <ele>359.2</ele>
        <time>2026-05-09T11:32:27Z</time>
      </trkpt>
      <trkpt lat="46.14405" lon="5.3577">
        <ele>358.4</ele>
        <time>2026-05-09T11:32:28Z</time>
      </trkpt>
      <trkpt lat="46.14395" lon="5.35773">
        <ele>357.6</ele>
        <time>2026-05-09T11:32:29Z</time>
      </trkpt>
      <trkpt lat="46.14386" lon="5.35777">
        <ele>357</ele>
        <time>2026-05-09T11:32:30Z</time>
      </trkpt>
      <trkpt lat="46.14376" lon="5.3578">
        <ele>356</ele>
        <time>2026-05-09T11:32:31Z</time>
      </trkpt>
      <trkpt lat="46.14366" lon="5.35784">
        <ele>354.8</ele>
        <time>2026-05-09T11:32:32Z</time>
      </trkpt>
      <trkpt lat="46.14356" lon="5.35789">
        <ele>354.2</ele>
        <time>2026-05-09T11:32:33Z</time>
      </trkpt>
      <trkpt lat="46.14347" lon="5.35792">
        <ele>353.6</ele>
        <time>2026-05-09T11:32:34Z</time>
      </trkpt>
      <trkpt lat="46.14336" lon="5.35795">
        <ele>352.8</ele>
        <time>2026-05-09T11:32:35Z</time>
      </trkpt>
      <trkpt lat="46.14327" lon="5.35798">
        <ele>352</ele>
        <time>2026-05-09T11:32:36Z</time>
      </trkpt>
      <trkpt lat="46.14319" lon="5.35801">
        <ele>351</ele>
        <time>2026-05-09T11:32:37Z</time>
      </trkpt>
      <trkpt lat="46.1431" lon="5.35804">
        <ele>350.4</ele>
        <time>2026-05-09T11:32:38Z</time>
      </trkpt>
      <trkpt lat="46.14302" lon="5.35806">
        <ele>349.4</ele>
        <time>2026-05-09T11:32:39Z</time>
      </trkpt>
      <trkpt lat="46.14294" lon="5.35806">
        <ele>348.8</ele>
        <time>2026-05-09T11:32:40Z</time>
      </trkpt>
      <trkpt lat="46.14287" lon="5.35804">
        <ele>348</ele>
        <time>2026-05-09T11:32:41Z</time>
      </trkpt>
      <trkpt lat="46.14281" lon="5.35803">
        <ele>347.6</ele>
        <time>2026-05-09T11:32:42Z</time>
      </trkpt>
      <trkpt lat="46.14276" lon="5.35802">
        <ele>347.2</ele>
        <time>2026-05-09T11:32:43Z</time>
      </trkpt>
      <trkpt lat="46.14271" lon="5.358">
        <ele>346.8</ele>
        <time>2026-05-09T11:32:44Z</time>
      </trkpt>
      <trkpt lat="46.14268" lon="5.35799">
        <ele>346.8</ele>
        <time>2026-05-09T11:32:45Z</time>
      </trkpt>
      <trkpt lat="46.14264" lon="5.35802">
        <ele>346.4</ele>
        <time>2026-05-09T11:32:46Z</time>
      </trkpt>
      <trkpt lat="46.14262" lon="5.35806">
        <ele>346.2</ele>
        <time>2026-05-09T11:32:47Z</time>
      </trkpt>
      <trkpt lat="46.1426" lon="5.35812">
        <ele>345.8</ele>
        <time>2026-05-09T11:32:48Z</time>
      </trkpt>
      <trkpt lat="46.1426" lon="5.35819">
        <ele>345.4</ele>
        <time>2026-05-09T11:32:49Z</time>
      </trkpt>
      <trkpt lat="46.14261" lon="5.35828">
        <ele>345.2</ele>
        <time>2026-05-09T11:32:50Z</time>
      </trkpt>
      <trkpt lat="46.14262" lon="5.35836">
        <ele>344.8</ele>
        <time>2026-05-09T11:32:51Z</time>
      </trkpt>
      <trkpt lat="46.14263" lon="5.35846">
        <ele>344.2</ele>
        <time>2026-05-09T11:32:52Z</time>
      </trkpt>
      <trkpt lat="46.14262" lon="5.35855">
        <ele>343.6</ele>
        <time>2026-05-09T11:32:53Z</time>
      </trkpt>
      <trkpt lat="46.14262" lon="5.35865">
        <ele>343.2</ele>
        <time>2026-05-09T11:32:54Z</time>
      </trkpt>
      <trkpt lat="46.14261" lon="5.35875">
        <ele>343</ele>
        <time>2026-05-09T11:32:55Z</time>
      </trkpt>
      <trkpt lat="46.14258" lon="5.35885">
        <ele>342.4</ele>
        <time>2026-05-09T11:32:56Z</time>
      </trkpt>
      <trkpt lat="46.14256" lon="5.35895">
        <ele>342.2</ele>
        <time>2026-05-09T11:32:57Z</time>
      </trkpt>
      <trkpt lat="46.14254" lon="5.35905">
        <ele>341.6</ele>
        <time>2026-05-09T11:32:58Z</time>
      </trkpt>
      <trkpt lat="46.14252" lon="5.35915">
        <ele>340.8</ele>
        <time>2026-05-09T11:32:59Z</time>
      </trkpt>
      <trkpt lat="46.14249" lon="5.35926">
        <ele>340.4</ele>
        <time>2026-05-09T11:33:00Z</time>
      </trkpt>
      <trkpt lat="46.14247" lon="5.35937">
        <ele>340.4</ele>
        <time>2026-05-09T11:33:01Z</time>
      </trkpt>
      <trkpt lat="46.14245" lon="5.35948">
        <ele>340</ele>
        <time>2026-05-09T11:33:02Z</time>
      </trkpt>
      <trkpt lat="46.14244" lon="5.35959">
        <ele>339.4</ele>
        <time>2026-05-09T11:33:03Z</time>
      </trkpt>
      <trkpt lat="46.14242" lon="5.35971">
        <ele>339.2</ele>
        <time>2026-05-09T11:33:04Z</time>
      </trkpt>
      <trkpt lat="46.14241" lon="5.35982">
        <ele>338.8</ele>
        <time>2026-05-09T11:33:05Z</time>
      </trkpt>
      <trkpt lat="46.1424" lon="5.35994">
        <ele>338.8</ele>
        <time>2026-05-09T11:33:06Z</time>
      </trkpt>
      <trkpt lat="46.14239" lon="5.36005">
        <ele>338.6</ele>
        <time>2026-05-09T11:33:07Z</time>
      </trkpt>
      <trkpt lat="46.14239" lon="5.36016">
        <ele>338.6</ele>
        <time>2026-05-09T11:33:08Z</time>
      </trkpt>
      <trkpt lat="46.14239" lon="5.36027">
        <ele>338</ele>
        <time>2026-05-09T11:33:09Z</time>
      </trkpt>
      <trkpt lat="46.14239" lon="5.36038">
        <ele>337.8</ele>
        <time>2026-05-09T11:33:10Z</time>
      </trkpt>
      <trkpt lat="46.1424" lon="5.36049">
        <ele>337.6</ele>
        <time>2026-05-09T11:33:11Z</time>
      </trkpt>
      <trkpt lat="46.14241" lon="5.3606">
        <ele>337.2</ele>
        <time>2026-05-09T11:33:12Z</time>
      </trkpt>
      <trkpt lat="46.14242" lon="5.36071">
        <ele>336.8</ele>
        <time>2026-05-09T11:33:13Z</time>
      </trkpt>
      <trkpt lat="46.14241" lon="5.36082">
        <ele>336.6</ele>
        <time>2026-05-09T11:33:14Z</time>
      </trkpt>
      <trkpt lat="46.14241" lon="5.36093">
        <ele>336.2</ele>
        <time>2026-05-09T11:33:15Z</time>
      </trkpt>
      <trkpt lat="46.14239" lon="5.36104">
        <ele>335.8</ele>
        <time>2026-05-09T11:33:16Z</time>
      </trkpt>
      <trkpt lat="46.14237" lon="5.36116">
        <ele>335.8</ele>
        <time>2026-05-09T11:33:17Z</time>
      </trkpt>
      <trkpt lat="46.14235" lon="5.36129">
        <ele>335</ele>
        <time>2026-05-09T11:33:18Z</time>
      </trkpt>
      <trkpt lat="46.14232" lon="5.36141">
        <ele>334.6</ele>
        <time>2026-05-09T11:33:19Z</time>
      </trkpt>
      <trkpt lat="46.14229" lon="5.36154">
        <ele>334.2</ele>
        <time>2026-05-09T11:33:20Z</time>
      </trkpt>
      <trkpt lat="46.14226" lon="5.36167">
        <ele>333.8</ele>
        <time>2026-05-09T11:33:21Z</time>
      </trkpt>
      <trkpt lat="46.14221" lon="5.36192">
        <ele>333.4</ele>
        <time>2026-05-09T11:33:22Z</time>
      </trkpt>
      <trkpt lat="46.14219" lon="5.36205">
        <ele>332.8</ele>
        <time>2026-05-09T11:33:23Z</time>
      </trkpt>
      <trkpt lat="46.14216" lon="5.36218">
        <ele>332.6</ele>
        <time>2026-05-09T11:33:24Z</time>
      </trkpt>
      <trkpt lat="46.14214" lon="5.36231">
        <ele>332.4</ele>
        <time>2026-05-09T11:33:25Z</time>
      </trkpt>
      <trkpt lat="46.14212" lon="5.36244">
        <ele>332</ele>
        <time>2026-05-09T11:33:26Z</time>
      </trkpt>
      <trkpt lat="46.1421" lon="5.36257">
        <ele>331.6</ele>
        <time>2026-05-09T11:33:27Z</time>
      </trkpt>
      <trkpt lat="46.14209" lon="5.3627">
        <ele>331.4</ele>
        <time>2026-05-09T11:33:28Z</time>
      </trkpt>
      <trkpt lat="46.14207" lon="5.36283">
        <ele>331</ele>
        <time>2026-05-09T11:33:29Z</time>
      </trkpt>
      <trkpt lat="46.14206" lon="5.36296">
        <ele>330.8</ele>
        <time>2026-05-09T11:33:30Z</time>
      </trkpt>
      <trkpt lat="46.14204" lon="5.36309">
        <ele>330.4</ele>
        <time>2026-05-09T11:33:31Z</time>
      </trkpt>
      <trkpt lat="46.14204" lon="5.36322">
        <ele>330</ele>
        <time>2026-05-09T11:33:32Z</time>
      </trkpt>
      <trkpt lat="46.14202" lon="5.36335">
        <ele>329.8</ele>
        <time>2026-05-09T11:33:33Z</time>
      </trkpt>
      <trkpt lat="46.14202" lon="5.36348">
        <ele>329.8</ele>
        <time>2026-05-09T11:33:34Z</time>
      </trkpt>
      <trkpt lat="46.14201" lon="5.36361">
        <ele>329.4</ele>
        <time>2026-05-09T11:33:35Z</time>
      </trkpt>
      <trkpt lat="46.14201" lon="5.36374">
        <ele>329.4</ele>
        <time>2026-05-09T11:33:36Z</time>
      </trkpt>
      <trkpt lat="46.142" lon="5.36387">
        <ele>328.8</ele>
        <time>2026-05-09T11:33:37Z</time>
      </trkpt>
      <trkpt lat="46.142" lon="5.364">
        <ele>328.6</ele>
        <time>2026-05-09T11:33:38Z</time>
      </trkpt>
      <trkpt lat="46.142" lon="5.36413">
        <ele>328.4</ele>
        <time>2026-05-09T11:33:39Z</time>
      </trkpt>
      <trkpt lat="46.142" lon="5.36426">
        <ele>328</ele>
        <time>2026-05-09T11:33:40Z</time>
      </trkpt>
      <trkpt lat="46.14201" lon="5.36439">
        <ele>327.6</ele>
        <time>2026-05-09T11:33:41Z</time>
      </trkpt>
      <trkpt lat="46.14202" lon="5.36451">
        <ele>327.6</ele>
        <time>2026-05-09T11:33:42Z</time>
      </trkpt>
      <trkpt lat="46.14203" lon="5.36464">
        <ele>327.4</ele>
        <time>2026-05-09T11:33:43Z</time>
      </trkpt>
      <trkpt lat="46.14205" lon="5.36477">
        <ele>327</ele>
        <time>2026-05-09T11:33:44Z</time>
      </trkpt>
      <trkpt lat="46.14206" lon="5.36491">
        <ele>327</ele>
        <time>2026-05-09T11:33:45Z</time>
      </trkpt>
      <trkpt lat="46.14208" lon="5.36504">
        <ele>327</ele>
        <time>2026-05-09T11:33:46Z</time>
      </trkpt>
      <trkpt lat="46.14209" lon="5.36518">
        <ele>326.6</ele>
        <time>2026-05-09T11:33:47Z</time>
      </trkpt>
      <trkpt lat="46.1421" lon="5.36531">
        <ele>326.6</ele>
        <time>2026-05-09T11:33:48Z</time>
      </trkpt>
      <trkpt lat="46.14212" lon="5.36545">
        <ele>326</ele>
        <time>2026-05-09T11:33:49Z</time>
      </trkpt>
      <trkpt lat="46.14213" lon="5.36559">
        <ele>325.2</ele>
        <time>2026-05-09T11:33:50Z</time>
      </trkpt>
      <trkpt lat="46.14213" lon="5.36573">
        <ele>325</ele>
        <time>2026-05-09T11:33:51Z</time>
      </trkpt>
      <trkpt lat="46.14213" lon="5.36587">
        <ele>324.4</ele>
        <time>2026-05-09T11:33:52Z</time>
      </trkpt>
      <trkpt lat="46.14212" lon="5.36601">
        <ele>324.2</ele>
        <time>2026-05-09T11:33:53Z</time>
      </trkpt>
      <trkpt lat="46.14211" lon="5.36615">
        <ele>323.8</ele>
        <time>2026-05-09T11:33:54Z</time>
      </trkpt>
      <trkpt lat="46.14209" lon="5.36627">
        <ele>323.6</ele>
        <time>2026-05-09T11:33:55Z</time>
      </trkpt>
      <trkpt lat="46.14209" lon="5.36627">
        <ele>323.2</ele>
        <time>2026-05-09T11:33:56Z</time>
      </trkpt>
      <trkpt lat="46.14209" lon="5.36627">
        <ele>323.2</ele>
        <time>2026-05-09T11:33:57Z</time>
      </trkpt>
      <trkpt lat="46.14209" lon="5.36627">
        <ele>322.8</ele>
        <time>2026-05-09T11:33:58Z</time>
      </trkpt>
      <trkpt lat="46.14198" lon="5.36691">
        <ele>322.4</ele>
        <time>2026-05-09T11:34:00Z</time>
      </trkpt>
      <trkpt lat="46.14196" lon="5.36703">
        <ele>322.4</ele>
        <time>2026-05-09T11:34:01Z</time>
      </trkpt>
      <trkpt lat="46.14194" lon="5.36715">
        <ele>322.4</ele>
        <time>2026-05-09T11:34:02Z</time>
      </trkpt>
      <trkpt lat="46.14191" lon="5.36727">
        <ele>322.4</ele>
        <time>2026-05-09T11:34:03Z</time>
      </trkpt>
      <trkpt lat="46.14188" lon="5.3674">
        <ele>322</ele>
        <time>2026-05-09T11:34:04Z</time>
      </trkpt>
      <trkpt lat="46.14185" lon="5.36753">
        <ele>322</ele>
        <time>2026-05-09T11:34:05Z</time>
      </trkpt>
      <trkpt lat="46.14183" lon="5.36766">
        <ele>322</ele>
        <time>2026-05-09T11:34:06Z</time>
      </trkpt>
      <trkpt lat="46.1418" lon="5.36778">
        <ele>321.6</ele>
        <time>2026-05-09T11:34:07Z</time>
      </trkpt>
      <trkpt lat="46.14178" lon="5.3679">
        <ele>321.4</ele>
        <time>2026-05-09T11:34:08Z</time>
      </trkpt>
      <trkpt lat="46.14175" lon="5.36803">
        <ele>321.2</ele>
        <time>2026-05-09T11:34:09Z</time>
      </trkpt>
      <trkpt lat="46.14172" lon="5.36815">
        <ele>320.8</ele>
        <time>2026-05-09T11:34:10Z</time>
      </trkpt>
      <trkpt lat="46.14169" lon="5.36828">
        <ele>320.6</ele>
        <time>2026-05-09T11:34:11Z</time>
      </trkpt>
      <trkpt lat="46.14166" lon="5.3684">
        <ele>320.2</ele>
        <time>2026-05-09T11:34:12Z</time>
      </trkpt>
      <trkpt lat="46.14164" lon="5.36853">
        <ele>320</ele>
        <time>2026-05-09T11:34:13Z</time>
      </trkpt>
      <trkpt lat="46.14162" lon="5.36867">
        <ele>319.8</ele>
        <time>2026-05-09T11:34:14Z</time>
      </trkpt>
      <trkpt lat="46.14161" lon="5.36879">
        <ele>319.8</ele>
        <time>2026-05-09T11:34:15Z</time>
      </trkpt>
      <trkpt lat="46.14161" lon="5.36892">
        <ele>319.4</ele>
        <time>2026-05-09T11:34:16Z</time>
      </trkpt>
      <trkpt lat="46.14161" lon="5.36904">
        <ele>319.2</ele>
        <time>2026-05-09T11:34:17Z</time>
      </trkpt>
      <trkpt lat="46.14162" lon="5.36916">
        <ele>319</ele>
        <time>2026-05-09T11:34:18Z</time>
      </trkpt>
      <trkpt lat="46.14164" lon="5.36926">
        <ele>319</ele>
        <time>2026-05-09T11:34:19Z</time>
      </trkpt>
      <trkpt lat="46.14166" lon="5.36938">
        <ele>318.6</ele>
        <time>2026-05-09T11:34:20Z</time>
      </trkpt>
      <trkpt lat="46.14168" lon="5.3695">
        <ele>318.6</ele>
        <time>2026-05-09T11:34:21Z</time>
      </trkpt>
      <trkpt lat="46.14171" lon="5.36961">
        <ele>318.2</ele>
        <time>2026-05-09T11:34:22Z</time>
      </trkpt>
      <trkpt lat="46.14174" lon="5.36973">
        <ele>318</ele>
        <time>2026-05-09T11:34:23Z</time>
      </trkpt>
      <trkpt lat="46.14177" lon="5.36985">
        <ele>317.6</ele>
        <time>2026-05-09T11:34:24Z</time>
      </trkpt>
      <trkpt lat="46.14179" lon="5.36997">
        <ele>317.4</ele>
        <time>2026-05-09T11:34:25Z</time>
      </trkpt>
      <trkpt lat="46.1418" lon="5.3701">
        <ele>317.4</ele>
        <time>2026-05-09T11:34:26Z</time>
      </trkpt>
      <trkpt lat="46.1418" lon="5.37022">
        <ele>317</ele>
        <time>2026-05-09T11:34:27Z</time>
      </trkpt>
      <trkpt lat="46.1418" lon="5.37034">
        <ele>317</ele>
        <time>2026-05-09T11:34:28Z</time>
      </trkpt>
      <trkpt lat="46.14179" lon="5.37046">
        <ele>317</ele>
        <time>2026-05-09T11:34:29Z</time>
      </trkpt>
      <trkpt lat="46.14179" lon="5.37058">
        <ele>316.8</ele>
        <time>2026-05-09T11:34:30Z</time>
      </trkpt>
      <trkpt lat="46.14178" lon="5.3707">
        <ele>316.8</ele>
        <time>2026-05-09T11:34:31Z</time>
      </trkpt>
      <trkpt lat="46.14179" lon="5.37081">
        <ele>316.8</ele>
        <time>2026-05-09T11:34:32Z</time>
      </trkpt>
      <trkpt lat="46.14178" lon="5.37093">
        <ele>316.6</ele>
        <time>2026-05-09T11:34:33Z</time>
      </trkpt>
      <trkpt lat="46.14179" lon="5.37104">
        <ele>316.6</ele>
        <time>2026-05-09T11:34:34Z</time>
      </trkpt>
      <trkpt lat="46.1418" lon="5.37117">
        <ele>316.4</ele>
        <time>2026-05-09T11:34:35Z</time>
      </trkpt>
      <trkpt lat="46.14181" lon="5.37127">
        <ele>316.4</ele>
        <time>2026-05-09T11:34:36Z</time>
      </trkpt>
      <trkpt lat="46.14182" lon="5.37139">
        <ele>316</ele>
        <time>2026-05-09T11:34:37Z</time>
      </trkpt>
      <trkpt lat="46.14183" lon="5.3715">
        <ele>315.8</ele>
        <time>2026-05-09T11:34:38Z</time>
      </trkpt>
      <trkpt lat="46.14184" lon="5.37161">
        <ele>315.8</ele>
        <time>2026-05-09T11:34:39Z</time>
      </trkpt>
      <trkpt lat="46.14186" lon="5.37173">
        <ele>315.2</ele>
        <time>2026-05-09T11:34:40Z</time>
      </trkpt>
      <trkpt lat="46.14187" lon="5.37184">
        <ele>315.2</ele>
        <time>2026-05-09T11:34:41Z</time>
      </trkpt>
      <trkpt lat="46.14188" lon="5.37195">
        <ele>315</ele>
        <time>2026-05-09T11:34:42Z</time>
      </trkpt>
      <trkpt lat="46.14188" lon="5.37206">
        <ele>315</ele>
        <time>2026-05-09T11:34:43Z</time>
      </trkpt>
      <trkpt lat="46.14188" lon="5.37217">
        <ele>315</ele>
        <time>2026-05-09T11:34:44Z</time>
      </trkpt>
      <trkpt lat="46.14186" lon="5.37227">
        <ele>315</ele>
        <time>2026-05-09T11:34:45Z</time>
      </trkpt>
      <trkpt lat="46.14183" lon="5.37237">
        <ele>315</ele>
        <time>2026-05-09T11:34:46Z</time>
      </trkpt>
      <trkpt lat="46.1418" lon="5.37246">
        <ele>315.4</ele>
        <time>2026-05-09T11:34:47Z</time>
      </trkpt>
      <trkpt lat="46.14177" lon="5.37254">
        <ele>315.4</ele>
        <time>2026-05-09T11:34:48Z</time>
      </trkpt>
      <trkpt lat="46.14175" lon="5.37261">
        <ele>315.8</ele>
        <time>2026-05-09T11:34:49Z</time>
      </trkpt>
      <trkpt lat="46.14172" lon="5.37269">
        <ele>316</ele>
        <time>2026-05-09T11:34:50Z</time>
      </trkpt>
      <trkpt lat="46.14169" lon="5.37275">
        <ele>316.4</ele>
        <time>2026-05-09T11:34:51Z</time>
      </trkpt>
      <trkpt lat="46.14167" lon="5.37282">
        <ele>316.4</ele>
        <time>2026-05-09T11:34:52Z</time>
      </trkpt>
      <trkpt lat="46.14165" lon="5.37289">
        <ele>316.8</ele>
        <time>2026-05-09T11:34:53Z</time>
      </trkpt>
      <trkpt lat="46.14164" lon="5.37295">
        <ele>317</ele>
        <time>2026-05-09T11:34:54Z</time>
      </trkpt>
      <trkpt lat="46.14163" lon="5.37301">
        <ele>317.4</ele>
        <time>2026-05-09T11:34:55Z</time>
      </trkpt>
      <trkpt lat="46.14161" lon="5.37308">
        <ele>317.6</ele>
        <time>2026-05-09T11:34:56Z</time>
      </trkpt>
      <trkpt lat="46.14161" lon="5.37314">
        <ele>317.6</ele>
        <time>2026-05-09T11:34:57Z</time>
      </trkpt>
      <trkpt lat="46.1416" lon="5.37321">
        <ele>317.6</ele>
        <time>2026-05-09T11:34:58Z</time>
      </trkpt>
      <trkpt lat="46.14159" lon="5.37327">
        <ele>318</ele>
        <time>2026-05-09T11:34:59Z</time>
      </trkpt>
      <trkpt lat="46.14158" lon="5.37334">
        <ele>318.2</ele>
        <time>2026-05-09T11:35:00Z</time>
      </trkpt>
      <trkpt lat="46.14158" lon="5.3734">
        <ele>318.2</ele>
        <time>2026-05-09T11:35:01Z</time>
      </trkpt>
      <trkpt lat="46.14158" lon="5.37346">
        <ele>318.2</ele>
        <time>2026-05-09T11:35:02Z</time>
      </trkpt>
      <trkpt lat="46.14158" lon="5.37352">
        <ele>318.2</ele>
        <time>2026-05-09T11:35:03Z</time>
      </trkpt>
      <trkpt lat="46.14157" lon="5.37358">
        <ele>318.4</ele>
        <time>2026-05-09T11:35:04Z</time>
      </trkpt>
      <trkpt lat="46.14157" lon="5.37365">
        <ele>318.4</ele>
        <time>2026-05-09T11:35:05Z</time>
      </trkpt>
      <trkpt lat="46.14157" lon="5.37371">
        <ele>318.4</ele>
        <time>2026-05-09T11:35:06Z</time>
      </trkpt>
      <trkpt lat="46.14157" lon="5.37377">
        <ele>318.4</ele>
        <time>2026-05-09T11:35:07Z</time>
      </trkpt>
      <trkpt lat="46.14158" lon="5.37382">
        <ele>318.4</ele>
        <time>2026-05-09T11:35:08Z</time>
      </trkpt>
      <trkpt lat="46.14157" lon="5.37388">
        <ele>318.8</ele>
        <time>2026-05-09T11:35:09Z</time>
      </trkpt>
      <trkpt lat="46.14158" lon="5.37394">
        <ele>318.8</ele>
        <time>2026-05-09T11:35:10Z</time>
      </trkpt>
      <trkpt lat="46.14157" lon="5.37399">
        <ele>319.2</ele>
        <time>2026-05-09T11:35:11Z</time>
      </trkpt>
      <trkpt lat="46.14158" lon="5.37405">
        <ele>319.2</ele>
        <time>2026-05-09T11:35:12Z</time>
      </trkpt>
      <trkpt lat="46.14159" lon="5.3741">
        <ele>319.2</ele>
        <time>2026-05-09T11:35:13Z</time>
      </trkpt>
      <trkpt lat="46.1416" lon="5.37416">
        <ele>319.2</ele>
        <time>2026-05-09T11:35:14Z</time>
      </trkpt>
      <trkpt lat="46.1416" lon="5.37422">
        <ele>319.2</ele>
        <time>2026-05-09T11:35:15Z</time>
      </trkpt>
      <trkpt lat="46.14161" lon="5.37428">
        <ele>319.4</ele>
        <time>2026-05-09T11:35:16Z</time>
      </trkpt>
      <trkpt lat="46.14163" lon="5.37433">
        <ele>319.4</ele>
        <time>2026-05-09T11:35:17Z</time>
      </trkpt>
      <trkpt lat="46.14165" lon="5.37439">
        <ele>319.4</ele>
        <time>2026-05-09T11:35:18Z</time>
      </trkpt>
      <trkpt lat="46.14167" lon="5.37445">
        <ele>319.2</ele>
        <time>2026-05-09T11:35:19Z</time>
      </trkpt>
      <trkpt lat="46.14167" lon="5.37445">
        <ele>319.2</ele>
        <time>2026-05-09T11:35:20Z</time>
      </trkpt>
      <trkpt lat="46.14169" lon="5.37451">
        <ele>319.2</ele>
        <time>2026-05-09T11:35:21Z</time>
      </trkpt>
      <trkpt lat="46.14172" lon="5.37457">
        <ele>318.8</ele>
        <time>2026-05-09T11:35:22Z</time>
      </trkpt>
      <trkpt lat="46.14175" lon="5.37463">
        <ele>318.8</ele>
        <time>2026-05-09T11:35:23Z</time>
      </trkpt>
      <trkpt lat="46.14177" lon="5.3747">
        <ele>318.6</ele>
        <time>2026-05-09T11:35:24Z</time>
      </trkpt>
      <trkpt lat="46.1418" lon="5.37477">
        <ele>318.6</ele>
        <time>2026-05-09T11:35:25Z</time>
      </trkpt>
      <trkpt lat="46.14182" lon="5.37485">
        <ele>318.2</ele>
        <time>2026-05-09T11:35:26Z</time>
      </trkpt>
      <trkpt lat="46.14183" lon="5.37494">
        <ele>317.8</ele>
        <time>2026-05-09T11:35:27Z</time>
      </trkpt>
      <trkpt lat="46.14184" lon="5.37503">
        <ele>317.6</ele>
        <time>2026-05-09T11:35:28Z</time>
      </trkpt>
      <trkpt lat="46.14184" lon="5.37513">
        <ele>317.4</ele>
        <time>2026-05-09T11:35:29Z</time>
      </trkpt>
      <trkpt lat="46.14183" lon="5.37523">
        <ele>317</ele>
        <time>2026-05-09T11:35:30Z</time>
      </trkpt>
      <trkpt lat="46.14183" lon="5.37533">
        <ele>316.6</ele>
        <time>2026-05-09T11:35:31Z</time>
      </trkpt>
      <trkpt lat="46.14183" lon="5.37543">
        <ele>316.4</ele>
        <time>2026-05-09T11:35:32Z</time>
      </trkpt>
      <trkpt lat="46.14183" lon="5.37554">
        <ele>316.2</ele>
        <time>2026-05-09T11:35:33Z</time>
      </trkpt>
      <trkpt lat="46.14183" lon="5.37565">
        <ele>315.8</ele>
        <time>2026-05-09T11:35:34Z</time>
      </trkpt>
      <trkpt lat="46.14183" lon="5.37575">
        <ele>315.2</ele>
        <time>2026-05-09T11:35:35Z</time>
      </trkpt>
      <trkpt lat="46.14183" lon="5.37586">
        <ele>314.8</ele>
        <time>2026-05-09T11:35:36Z</time>
      </trkpt>
      <trkpt lat="46.14183" lon="5.37597">
        <ele>314.2</ele>
        <time>2026-05-09T11:35:37Z</time>
      </trkpt>
      <trkpt lat="46.14182" lon="5.37609">
        <ele>313.6</ele>
        <time>2026-05-09T11:35:38Z</time>
      </trkpt>
      <trkpt lat="46.14182" lon="5.3762">
        <ele>313.2</ele>
        <time>2026-05-09T11:35:39Z</time>
      </trkpt>
      <trkpt lat="46.14179" lon="5.37632">
        <ele>312.8</ele>
        <time>2026-05-09T11:35:40Z</time>
      </trkpt>
      <trkpt lat="46.14176" lon="5.37643">
        <ele>312.6</ele>
        <time>2026-05-09T11:35:41Z</time>
      </trkpt>
      <trkpt lat="46.14172" lon="5.37653">
        <ele>312.4</ele>
        <time>2026-05-09T11:35:42Z</time>
      </trkpt>
      <trkpt lat="46.14167" lon="5.37663">
        <ele>312.4</ele>
        <time>2026-05-09T11:35:43Z</time>
      </trkpt>
      <trkpt lat="46.14162" lon="5.37671">
        <ele>312.4</ele>
        <time>2026-05-09T11:35:44Z</time>
      </trkpt>
      <trkpt lat="46.14158" lon="5.37679">
        <ele>312</ele>
        <time>2026-05-09T11:35:45Z</time>
      </trkpt>
      <trkpt lat="46.14153" lon="5.37686">
        <ele>311.8</ele>
        <time>2026-05-09T11:35:46Z</time>
      </trkpt>
      <trkpt lat="46.14149" lon="5.37694">
        <ele>311.8</ele>
        <time>2026-05-09T11:35:47Z</time>
      </trkpt>
      <trkpt lat="46.14144" lon="5.37702">
        <ele>311.8</ele>
        <time>2026-05-09T11:35:48Z</time>
      </trkpt>
      <trkpt lat="46.14141" lon="5.37709">
        <ele>311.8</ele>
        <time>2026-05-09T11:35:49Z</time>
      </trkpt>
      <trkpt lat="46.14136" lon="5.37717">
        <ele>311.8</ele>
        <time>2026-05-09T11:35:50Z</time>
      </trkpt>
      <trkpt lat="46.14133" lon="5.37724">
        <ele>311.8</ele>
        <time>2026-05-09T11:35:51Z</time>
      </trkpt>
      <trkpt lat="46.14129" lon="5.37732">
        <ele>311.6</ele>
        <time>2026-05-09T11:35:52Z</time>
      </trkpt>
      <trkpt lat="46.14126" lon="5.3774">
        <ele>311.6</ele>
        <time>2026-05-09T11:35:53Z</time>
      </trkpt>
      <trkpt lat="46.14122" lon="5.37748">
        <ele>311.6</ele>
        <time>2026-05-09T11:35:54Z</time>
      </trkpt>
      <trkpt lat="46.14119" lon="5.37754">
        <ele>311.6</ele>
        <time>2026-05-09T11:35:55Z</time>
      </trkpt>
      <trkpt lat="46.14116" lon="5.37761">
        <ele>311.6</ele>
        <time>2026-05-09T11:35:56Z</time>
      </trkpt>
      <trkpt lat="46.14113" lon="5.37769">
        <ele>311.6</ele>
        <time>2026-05-09T11:35:57Z</time>
      </trkpt>
      <trkpt lat="46.1411" lon="5.37777">
        <ele>311.6</ele>
        <time>2026-05-09T11:35:58Z</time>
      </trkpt>
      <trkpt lat="46.14107" lon="5.37784">
        <ele>311.4</ele>
        <time>2026-05-09T11:35:59Z</time>
      </trkpt>
      <trkpt lat="46.14104" lon="5.37792">
        <ele>311.2</ele>
        <time>2026-05-09T11:36:00Z</time>
      </trkpt>
      <trkpt lat="46.141" lon="5.37801">
        <ele>310.8</ele>
        <time>2026-05-09T11:36:01Z</time>
      </trkpt>
      <trkpt lat="46.14096" lon="5.3781">
        <ele>310.4</ele>
        <time>2026-05-09T11:36:02Z</time>
      </trkpt>
      <trkpt lat="46.14092" lon="5.3782">
        <ele>310.2</ele>
        <time>2026-05-09T11:36:03Z</time>
      </trkpt>
      <trkpt lat="46.14088" lon="5.37829">
        <ele>310</ele>
        <time>2026-05-09T11:36:04Z</time>
      </trkpt>
      <trkpt lat="46.14082" lon="5.37838">
        <ele>310</ele>
        <time>2026-05-09T11:36:05Z</time>
      </trkpt>
      <trkpt lat="46.14077" lon="5.37846">
        <ele>309.4</ele>
        <time>2026-05-09T11:36:06Z</time>
      </trkpt>
      <trkpt lat="46.14071" lon="5.37855">
        <ele>308.8</ele>
        <time>2026-05-09T11:36:07Z</time>
      </trkpt>
      <trkpt lat="46.14066" lon="5.37863">
        <ele>308.6</ele>
        <time>2026-05-09T11:36:08Z</time>
      </trkpt>
      <trkpt lat="46.1406" lon="5.37872">
        <ele>308.2</ele>
        <time>2026-05-09T11:36:09Z</time>
      </trkpt>
      <trkpt lat="46.14054" lon="5.37879">
        <ele>308</ele>
        <time>2026-05-09T11:36:10Z</time>
      </trkpt>
      <trkpt lat="46.14048" lon="5.37888">
        <ele>307.8</ele>
        <time>2026-05-09T11:36:11Z</time>
      </trkpt>
      <trkpt lat="46.14043" lon="5.37895">
        <ele>307.8</ele>
        <time>2026-05-09T11:36:12Z</time>
      </trkpt>
      <trkpt lat="46.14038" lon="5.37903">
        <ele>307.4</ele>
        <time>2026-05-09T11:36:13Z</time>
      </trkpt>
      <trkpt lat="46.14033" lon="5.37911">
        <ele>307.4</ele>
        <time>2026-05-09T11:36:14Z</time>
      </trkpt>
      <trkpt lat="46.14028" lon="5.37918">
        <ele>307.4</ele>
        <time>2026-05-09T11:36:15Z</time>
      </trkpt>
      <trkpt lat="46.14023" lon="5.37925">
        <ele>307.2</ele>
        <time>2026-05-09T11:36:16Z</time>
      </trkpt>
      <trkpt lat="46.14018" lon="5.37932">
        <ele>307.2</ele>
        <time>2026-05-09T11:36:17Z</time>
      </trkpt>
      <trkpt lat="46.14013" lon="5.37938">
        <ele>307.2</ele>
        <time>2026-05-09T11:36:18Z</time>
      </trkpt>
      <trkpt lat="46.14008" lon="5.37945">
        <ele>307.2</ele>
        <time>2026-05-09T11:36:19Z</time>
      </trkpt>
      <trkpt lat="46.14004" lon="5.37951">
        <ele>307.4</ele>
        <time>2026-05-09T11:36:20Z</time>
      </trkpt>
      <trkpt lat="46.14001" lon="5.37957">
        <ele>307.4</ele>
        <time>2026-05-09T11:36:21Z</time>
      </trkpt>
      <trkpt lat="46.13998" lon="5.37964">
        <ele>307.4</ele>
        <time>2026-05-09T11:36:22Z</time>
      </trkpt>
      <trkpt lat="46.13995" lon="5.3797">
        <ele>307.8</ele>
        <time>2026-05-09T11:36:23Z</time>
      </trkpt>
      <trkpt lat="46.13993" lon="5.37978">
        <ele>307.8</ele>
        <time>2026-05-09T11:36:24Z</time>
      </trkpt>
      <trkpt lat="46.13991" lon="5.37985">
        <ele>307.8</ele>
        <time>2026-05-09T11:36:25Z</time>
      </trkpt>
      <trkpt lat="46.1399" lon="5.37992">
        <ele>307.8</ele>
        <time>2026-05-09T11:36:26Z</time>
      </trkpt>
      <trkpt lat="46.13989" lon="5.38">
        <ele>307.8</ele>
        <time>2026-05-09T11:36:27Z</time>
      </trkpt>
      <trkpt lat="46.13987" lon="5.38008">
        <ele>307.8</ele>
        <time>2026-05-09T11:36:28Z</time>
      </trkpt>
      <trkpt lat="46.13985" lon="5.38017">
        <ele>307.8</ele>
        <time>2026-05-09T11:36:29Z</time>
      </trkpt>
      <trkpt lat="46.13982" lon="5.38026">
        <ele>307.8</ele>
        <time>2026-05-09T11:36:30Z</time>
      </trkpt>
      <trkpt lat="46.13979" lon="5.38034">
        <ele>307.4</ele>
        <time>2026-05-09T11:36:31Z</time>
      </trkpt>
      <trkpt lat="46.13975" lon="5.38042">
        <ele>307</ele>
        <time>2026-05-09T11:36:32Z</time>
      </trkpt>
      <trkpt lat="46.1397" lon="5.38051">
        <ele>306.8</ele>
        <time>2026-05-09T11:36:33Z</time>
      </trkpt>
      <trkpt lat="46.13965" lon="5.38059">
        <ele>306.4</ele>
        <time>2026-05-09T11:36:34Z</time>
      </trkpt>
      <trkpt lat="46.1396" lon="5.38068">
        <ele>306.2</ele>
        <time>2026-05-09T11:36:35Z</time>
      </trkpt>
      <trkpt lat="46.13955" lon="5.38077">
        <ele>305.8</ele>
        <time>2026-05-09T11:36:36Z</time>
      </trkpt>
      <trkpt lat="46.1395" lon="5.38085">
        <ele>305.8</ele>
        <time>2026-05-09T11:36:37Z</time>
      </trkpt>
      <trkpt lat="46.13945" lon="5.38093">
        <ele>305.8</ele>
        <time>2026-05-09T11:36:38Z</time>
      </trkpt>
      <trkpt lat="46.1394" lon="5.38101">
        <ele>305.6</ele>
        <time>2026-05-09T11:36:39Z</time>
      </trkpt>
      <trkpt lat="46.13936" lon="5.38109">
        <ele>305.6</ele>
        <time>2026-05-09T11:36:40Z</time>
      </trkpt>
      <trkpt lat="46.1393" lon="5.38126">
        <ele>305.4</ele>
        <time>2026-05-09T11:36:41Z</time>
      </trkpt>
      <trkpt lat="46.13926" lon="5.38134">
        <ele>305.2</ele>
        <time>2026-05-09T11:36:42Z</time>
      </trkpt>
      <trkpt lat="46.13922" lon="5.38141">
        <ele>305.2</ele>
        <time>2026-05-09T11:36:43Z</time>
      </trkpt>
      <trkpt lat="46.13917" lon="5.38147">
        <ele>305.2</ele>
        <time>2026-05-09T11:36:44Z</time>
      </trkpt>
      <trkpt lat="46.13913" lon="5.38153">
        <ele>305.2</ele>
        <time>2026-05-09T11:36:45Z</time>
      </trkpt>
      <trkpt lat="46.13908" lon="5.38159">
        <ele>304.8</ele>
        <time>2026-05-09T11:36:46Z</time>
      </trkpt>
      <trkpt lat="46.13904" lon="5.38166">
        <ele>304.8</ele>
        <time>2026-05-09T11:36:47Z</time>
      </trkpt>
      <trkpt lat="46.139" lon="5.38174">
        <ele>304.8</ele>
        <time>2026-05-09T11:36:48Z</time>
      </trkpt>
      <trkpt lat="46.13896" lon="5.38182">
        <ele>304.4</ele>
        <time>2026-05-09T11:36:49Z</time>
      </trkpt>
      <trkpt lat="46.13893" lon="5.38191">
        <ele>303.8</ele>
        <time>2026-05-09T11:36:50Z</time>
      </trkpt>
      <trkpt lat="46.13891" lon="5.382">
        <ele>303.6</ele>
        <time>2026-05-09T11:36:51Z</time>
      </trkpt>
      <trkpt lat="46.13888" lon="5.3821">
        <ele>303.2</ele>
        <time>2026-05-09T11:36:52Z</time>
      </trkpt>
      <trkpt lat="46.13885" lon="5.38218">
        <ele>303</ele>
        <time>2026-05-09T11:36:53Z</time>
      </trkpt>
      <trkpt lat="46.13883" lon="5.38226">
        <ele>302.6</ele>
        <time>2026-05-09T11:36:54Z</time>
      </trkpt>
      <trkpt lat="46.13881" lon="5.38235">
        <ele>302.4</ele>
        <time>2026-05-09T11:36:55Z</time>
      </trkpt>
      <trkpt lat="46.13879" lon="5.38244">
        <ele>301.6</ele>
        <time>2026-05-09T11:36:56Z</time>
      </trkpt>
      <trkpt lat="46.13877" lon="5.38254">
        <ele>301.2</ele>
        <time>2026-05-09T11:36:57Z</time>
      </trkpt>
      <trkpt lat="46.13876" lon="5.38265">
        <ele>300.4</ele>
        <time>2026-05-09T11:36:58Z</time>
      </trkpt>
      <trkpt lat="46.13874" lon="5.38275">
        <ele>299.8</ele>
        <time>2026-05-09T11:36:59Z</time>
      </trkpt>
      <trkpt lat="46.13874" lon="5.38275">
        <ele>299.2</ele>
        <time>2026-05-09T11:37:00Z</time>
      </trkpt>
      <trkpt lat="46.13874" lon="5.38275">
        <ele>298.6</ele>
        <time>2026-05-09T11:37:01Z</time>
      </trkpt>
      <trkpt lat="46.13868" lon="5.38309">
        <ele>297.4</ele>
        <time>2026-05-09T11:37:02Z</time>
      </trkpt>
      <trkpt lat="46.13865" lon="5.38321">
        <ele>296.6</ele>
        <time>2026-05-09T11:37:03Z</time>
      </trkpt>
      <trkpt lat="46.13862" lon="5.38334">
        <ele>295.8</ele>
        <time>2026-05-09T11:37:04Z</time>
      </trkpt>
      <trkpt lat="46.1386" lon="5.38345">
        <ele>295</ele>
        <time>2026-05-09T11:37:05Z</time>
      </trkpt>
      <trkpt lat="46.13857" lon="5.38356">
        <ele>294.2</ele>
        <time>2026-05-09T11:37:06Z</time>
      </trkpt>
      <trkpt lat="46.13855" lon="5.38368">
        <ele>293.2</ele>
        <time>2026-05-09T11:37:07Z</time>
      </trkpt>
      <trkpt lat="46.13852" lon="5.3838">
        <ele>292.6</ele>
        <time>2026-05-09T11:37:08Z</time>
      </trkpt>
      <trkpt lat="46.1385" lon="5.38392">
        <ele>292.2</ele>
        <time>2026-05-09T11:37:09Z</time>
      </trkpt>
      <trkpt lat="46.13848" lon="5.38404">
        <ele>291.8</ele>
        <time>2026-05-09T11:37:10Z</time>
      </trkpt>
      <trkpt lat="46.13846" lon="5.38418">
        <ele>290.8</ele>
        <time>2026-05-09T11:37:11Z</time>
      </trkpt>
      <trkpt lat="46.13844" lon="5.38432">
        <ele>290</ele>
        <time>2026-05-09T11:37:12Z</time>
      </trkpt>
      <trkpt lat="46.13843" lon="5.38447">
        <ele>288.8</ele>
        <time>2026-05-09T11:37:13Z</time>
      </trkpt>
      <trkpt lat="46.13842" lon="5.38462">
        <ele>287.8</ele>
        <time>2026-05-09T11:37:14Z</time>
      </trkpt>
      <trkpt lat="46.13839" lon="5.38478">
        <ele>286.8</ele>
        <time>2026-05-09T11:37:15Z</time>
      </trkpt>
      <trkpt lat="46.13837" lon="5.38494">
        <ele>285.8</ele>
        <time>2026-05-09T11:37:16Z</time>
      </trkpt>
      <trkpt lat="46.13834" lon="5.38508">
        <ele>285</ele>
        <time>2026-05-09T11:37:17Z</time>
      </trkpt>
      <trkpt lat="46.13832" lon="5.38523">
        <ele>284.2</ele>
        <time>2026-05-09T11:37:18Z</time>
      </trkpt>
      <trkpt lat="46.13829" lon="5.38538">
        <ele>283.2</ele>
        <time>2026-05-09T11:37:19Z</time>
      </trkpt>
      <trkpt lat="46.13828" lon="5.38553">
        <ele>282.6</ele>
        <time>2026-05-09T11:37:20Z</time>
      </trkpt>
      <trkpt lat="46.13826" lon="5.38568">
        <ele>281.8</ele>
        <time>2026-05-09T11:37:21Z</time>
      </trkpt>
      <trkpt lat="46.13824" lon="5.38582">
        <ele>281.2</ele>
        <time>2026-05-09T11:37:22Z</time>
      </trkpt>
      <trkpt lat="46.13821" lon="5.38595">
        <ele>280.6</ele>
        <time>2026-05-09T11:37:23Z</time>
      </trkpt>
      <trkpt lat="46.1382" lon="5.38608">
        <ele>280.2</ele>
        <time>2026-05-09T11:37:24Z</time>
      </trkpt>
      <trkpt lat="46.13822" lon="5.38621">
        <ele>279.8</ele>
        <time>2026-05-09T11:37:25Z</time>
      </trkpt>
      <trkpt lat="46.13825" lon="5.38633">
        <ele>279.6</ele>
        <time>2026-05-09T11:37:26Z</time>
      </trkpt>
      <trkpt lat="46.13828" lon="5.38644">
        <ele>279.6</ele>
        <time>2026-05-09T11:37:27Z</time>
      </trkpt>
      <trkpt lat="46.1383" lon="5.38652">
        <ele>279.6</ele>
        <time>2026-05-09T11:37:28Z</time>
      </trkpt>
      <trkpt lat="46.13832" lon="5.38659">
        <ele>279.6</ele>
        <time>2026-05-09T11:37:29Z</time>
      </trkpt>
      <trkpt lat="46.13833" lon="5.38665">
        <ele>279.6</ele>
        <time>2026-05-09T11:37:30Z</time>
      </trkpt>
      <trkpt lat="46.13834" lon="5.38669">
        <ele>279.6</ele>
        <time>2026-05-09T11:37:31Z</time>
      </trkpt>
      <trkpt lat="46.13835" lon="5.38672">
        <ele>279.8</ele>
        <time>2026-05-09T11:37:32Z</time>
      </trkpt>
      <trkpt lat="46.13836" lon="5.38677">
        <ele>279.8</ele>
        <time>2026-05-09T11:37:33Z</time>
      </trkpt>
      <trkpt lat="46.13836" lon="5.3868">
        <ele>279.8</ele>
        <time>2026-05-09T11:37:34Z</time>
      </trkpt>
      <trkpt lat="46.13837" lon="5.38683">
        <ele>279.8</ele>
        <time>2026-05-09T11:37:35Z</time>
      </trkpt>
      <trkpt lat="46.13837" lon="5.38686">
        <ele>280</ele>
        <time>2026-05-09T11:37:36Z</time>
      </trkpt>
      <trkpt lat="46.13837" lon="5.38687">
        <ele>280</ele>
        <time>2026-05-09T11:37:37Z</time>
      </trkpt>
      <trkpt lat="46.13837" lon="5.38687">
        <ele>280</ele>
        <time>2026-05-09T11:37:38Z</time>
      </trkpt>
      <trkpt lat="46.13837" lon="5.38687">
        <ele>280</ele>
        <time>2026-05-09T11:37:39Z</time>
      </trkpt>
      <trkpt lat="46.13838" lon="5.38688">
        <ele>280</ele>
        <time>2026-05-09T11:37:40Z</time>
      </trkpt>
      <trkpt lat="46.13837" lon="5.38689">
        <ele>280</ele>
        <time>2026-05-09T11:37:41Z</time>
      </trkpt>
      <trkpt lat="46.13837" lon="5.3869">
        <ele>280</ele>
        <time>2026-05-09T11:37:42Z</time>
      </trkpt>
      <trkpt lat="46.13837" lon="5.3869">
        <ele>280</ele>
        <time>2026-05-09T11:37:43Z</time>
      </trkpt>
      <trkpt lat="46.13838" lon="5.38689">
        <ele>280</ele>
        <time>2026-05-09T11:37:44Z</time>
      </trkpt>
      <trkpt lat="46.13839" lon="5.38687">
        <ele>280</ele>
        <time>2026-05-09T11:37:47Z</time>
      </trkpt>
      <trkpt lat="46.13839" lon="5.38684">
        <ele>280</ele>
        <time>2026-05-09T11:37:48Z</time>
      </trkpt>
      <trkpt lat="46.13838" lon="5.38682">
        <ele>280</ele>
        <time>2026-05-09T11:37:49Z</time>
      </trkpt>
      <trkpt lat="46.13838" lon="5.3868">
        <ele>280</ele>
        <time>2026-05-09T11:37:50Z</time>
      </trkpt>
      <trkpt lat="46.13837" lon="5.38678">
        <ele>280</ele>
        <time>2026-05-09T11:37:51Z</time>
      </trkpt>
      <trkpt lat="46.13837" lon="5.38677">
        <ele>280</ele>
        <time>2026-05-09T11:37:52Z</time>
      </trkpt>
      <trkpt lat="46.13837" lon="5.38677">
        <ele>280</ele>
        <time>2026-05-09T11:37:53Z</time>
      </trkpt>
      <trkpt lat="46.13836" lon="5.38678">
        <ele>280</ele>
        <time>2026-05-09T11:37:54Z</time>
      </trkpt>
      <trkpt lat="46.13835" lon="5.38679">
        <ele>280</ele>
        <time>2026-05-09T11:37:55Z</time>
      </trkpt>
      <trkpt lat="46.13835" lon="5.38679">
        <ele>280</ele>
        <time>2026-05-09T11:37:56Z</time>
      </trkpt>
      <trkpt lat="46.13835" lon="5.38679">
        <ele>280</ele>
        <time>2026-05-09T11:37:57Z</time>
      </trkpt>
      <trkpt lat="46.13835" lon="5.38681">
        <ele>279.6</ele>
        <time>2026-05-09T11:38:44Z</time>
      </trkpt>
      <trkpt lat="46.13835" lon="5.38682">
        <ele>279.6</ele>
        <time>2026-05-09T11:38:45Z</time>
      </trkpt>
      <trkpt lat="46.13836" lon="5.38684">
        <ele>279.6</ele>
        <time>2026-05-09T11:38:46Z</time>
      </trkpt>
      <trkpt lat="46.13836" lon="5.38686">
        <ele>279.6</ele>
        <time>2026-05-09T11:38:47Z</time>
      </trkpt>
      <trkpt lat="46.13837" lon="5.38688">
        <ele>279.6</ele>
        <time>2026-05-09T11:38:48Z</time>
      </trkpt>
      <trkpt lat="46.13837" lon="5.38689">
        <ele>279.6</ele>
        <time>2026-05-09T11:38:49Z</time>
      </trkpt>
      <trkpt lat="46.13839" lon="5.38691">
        <ele>279.6</ele>
        <time>2026-05-09T11:38:50Z</time>
      </trkpt>
      <trkpt lat="46.1384" lon="5.38693">
        <ele>279.6</ele>
        <time>2026-05-09T11:38:51Z</time>
      </trkpt>
      <trkpt lat="46.13842" lon="5.38694">
        <ele>279.6</ele>
        <time>2026-05-09T11:38:52Z</time>
      </trkpt>
      <trkpt lat="46.13843" lon="5.38695">
        <ele>279.6</ele>
        <time>2026-05-09T11:38:53Z</time>
      </trkpt>
      <trkpt lat="46.13845" lon="5.38696">
        <ele>279.8</ele>
        <time>2026-05-09T11:38:54Z</time>
      </trkpt>
      <trkpt lat="46.13847" lon="5.38697">
        <ele>279.8</ele>
        <time>2026-05-09T11:38:55Z</time>
      </trkpt>
      <trkpt lat="46.13849" lon="5.38697">
        <ele>280</ele>
        <time>2026-05-09T11:38:56Z</time>
      </trkpt>
      <trkpt lat="46.13851" lon="5.38696">
        <ele>280</ele>
        <time>2026-05-09T11:38:57Z</time>
      </trkpt>
      <trkpt lat="46.13854" lon="5.38695">
        <ele>280.4</ele>
        <time>2026-05-09T11:38:58Z</time>
      </trkpt>
      <trkpt lat="46.13856" lon="5.38694">
        <ele>279.8</ele>
        <time>2026-05-09T11:38:59Z</time>
      </trkpt>
      <trkpt lat="46.13858" lon="5.38693">
        <ele>280.2</ele>
        <time>2026-05-09T11:39:00Z</time>
      </trkpt>
      <trkpt lat="46.13861" lon="5.38692">
        <ele>280.2</ele>
        <time>2026-05-09T11:39:01Z</time>
      </trkpt>
      <trkpt lat="46.13862" lon="5.38692">
        <ele>280.4</ele>
        <time>2026-05-09T11:39:02Z</time>
      </trkpt>
      <trkpt lat="46.13864" lon="5.38691">
        <ele>280.4</ele>
        <time>2026-05-09T11:39:03Z</time>
      </trkpt>
      <trkpt lat="46.13867" lon="5.3869">
        <ele>280.4</ele>
        <time>2026-05-09T11:39:04Z</time>
      </trkpt>
      <trkpt lat="46.13868" lon="5.38689">
        <ele>280.4</ele>
        <time>2026-05-09T11:39:05Z</time>
      </trkpt>
      <trkpt lat="46.1387" lon="5.38688">
        <ele>280.6</ele>
        <time>2026-05-09T11:39:06Z</time>
      </trkpt>
      <trkpt lat="46.13873" lon="5.38688">
        <ele>280.6</ele>
        <time>2026-05-09T11:39:07Z</time>
      </trkpt>
      <trkpt lat="46.13875" lon="5.38688">
        <ele>280.8</ele>
        <time>2026-05-09T11:39:08Z</time>
      </trkpt>
      <trkpt lat="46.13877" lon="5.38688">
        <ele>280.8</ele>
        <time>2026-05-09T11:39:09Z</time>
      </trkpt>
      <trkpt lat="46.13879" lon="5.38688">
        <ele>281.2</ele>
        <time>2026-05-09T11:39:10Z</time>
      </trkpt>
      <trkpt lat="46.13881" lon="5.38688">
        <ele>281.2</ele>
        <time>2026-05-09T11:39:11Z</time>
      </trkpt>
      <trkpt lat="46.13884" lon="5.38688">
        <ele>281.2</ele>
        <time>2026-05-09T11:39:12Z</time>
      </trkpt>
      <trkpt lat="46.13886" lon="5.38687">
        <ele>281.2</ele>
        <time>2026-05-09T11:39:13Z</time>
      </trkpt>
      <trkpt lat="46.13889" lon="5.38687">
        <ele>281.4</ele>
        <time>2026-05-09T11:39:14Z</time>
      </trkpt>
      <trkpt lat="46.1389" lon="5.38686">
        <ele>281.4</ele>
        <time>2026-05-09T11:39:15Z</time>
      </trkpt>
      <trkpt lat="46.13892" lon="5.38686">
        <ele>281.6</ele>
        <time>2026-05-09T11:39:16Z</time>
      </trkpt>
      <trkpt lat="46.13893" lon="5.38685">
        <ele>281.6</ele>
        <time>2026-05-09T11:39:17Z</time>
      </trkpt>
      <trkpt lat="46.13895" lon="5.38685">
        <ele>282</ele>
        <time>2026-05-09T11:39:18Z</time>
      </trkpt>
      <trkpt lat="46.13896" lon="5.38684">
        <ele>282.2</ele>
        <time>2026-05-09T11:39:19Z</time>
      </trkpt>
      <trkpt lat="46.13898" lon="5.38683">
        <ele>282.4</ele>
        <time>2026-05-09T11:39:20Z</time>
      </trkpt>
      <trkpt lat="46.139" lon="5.38683">
        <ele>282.4</ele>
        <time>2026-05-09T11:39:21Z</time>
      </trkpt>
      <trkpt lat="46.13901" lon="5.38683">
        <ele>282.8</ele>
        <time>2026-05-09T11:39:22Z</time>
      </trkpt>
      <trkpt lat="46.13903" lon="5.38682">
        <ele>282.8</ele>
        <time>2026-05-09T11:39:23Z</time>
      </trkpt>
      <trkpt lat="46.13904" lon="5.38682">
        <ele>283.2</ele>
        <time>2026-05-09T11:39:24Z</time>
      </trkpt>
      <trkpt lat="46.13906" lon="5.38682">
        <ele>283.2</ele>
        <time>2026-05-09T11:39:25Z</time>
      </trkpt>
      <trkpt lat="46.13907" lon="5.38682">
        <ele>283.2</ele>
        <time>2026-05-09T11:39:26Z</time>
      </trkpt>
      <trkpt lat="46.13909" lon="5.38681">
        <ele>283.4</ele>
        <time>2026-05-09T11:39:27Z</time>
      </trkpt>
      <trkpt lat="46.13909" lon="5.38681">
        <ele>283.4</ele>
        <time>2026-05-09T11:39:28Z</time>
      </trkpt>
      <trkpt lat="46.13911" lon="5.38681">
        <ele>283.4</ele>
        <time>2026-05-09T11:39:29Z</time>
      </trkpt>
      <trkpt lat="46.13913" lon="5.3868">
        <ele>283.4</ele>
        <time>2026-05-09T11:39:30Z</time>
      </trkpt>
      <trkpt lat="46.13914" lon="5.38679">
        <ele>283.4</ele>
        <time>2026-05-09T11:39:31Z</time>
      </trkpt>
      <trkpt lat="46.13916" lon="5.38679">
        <ele>283.6</ele>
        <time>2026-05-09T11:39:32Z</time>
      </trkpt>
      <trkpt lat="46.13919" lon="5.38679">
        <ele>283.6</ele>
        <time>2026-05-09T11:39:33Z</time>
      </trkpt>
      <trkpt lat="46.1392" lon="5.3868">
        <ele>283.6</ele>
        <time>2026-05-09T11:39:34Z</time>
      </trkpt>
      <trkpt lat="46.13921" lon="5.3868">
        <ele>284</ele>
        <time>2026-05-09T11:39:35Z</time>
      </trkpt>
      <trkpt lat="46.13922" lon="5.38681">
        <ele>284</ele>
        <time>2026-05-09T11:39:36Z</time>
      </trkpt>
      <trkpt lat="46.13924" lon="5.38681">
        <ele>284.4</ele>
        <time>2026-05-09T11:39:37Z</time>
      </trkpt>
      <trkpt lat="46.13925" lon="5.38682">
        <ele>284.4</ele>
        <time>2026-05-09T11:39:38Z</time>
      </trkpt>
      <trkpt lat="46.13927" lon="5.38683">
        <ele>284.4</ele>
        <time>2026-05-09T11:39:39Z</time>
      </trkpt>
      <trkpt lat="46.13928" lon="5.38684">
        <ele>284.6</ele>
        <time>2026-05-09T11:39:40Z</time>
      </trkpt>
      <trkpt lat="46.1393" lon="5.38685">
        <ele>284.6</ele>
        <time>2026-05-09T11:39:41Z</time>
      </trkpt>
      <trkpt lat="46.13931" lon="5.38686">
        <ele>284.6</ele>
        <time>2026-05-09T11:39:42Z</time>
      </trkpt>
      <trkpt lat="46.13932" lon="5.38687">
        <ele>285.2</ele>
        <time>2026-05-09T11:39:43Z</time>
      </trkpt>
      <trkpt lat="46.13934" lon="5.38689">
        <ele>285.6</ele>
        <time>2026-05-09T11:39:44Z</time>
      </trkpt>
      <trkpt lat="46.13934" lon="5.3869">
        <ele>285.6</ele>
        <time>2026-05-09T11:39:45Z</time>
      </trkpt>
      <trkpt lat="46.13935" lon="5.38692">
        <ele>286</ele>
        <time>2026-05-09T11:39:46Z</time>
      </trkpt>
      <trkpt lat="46.13935" lon="5.38694">
        <ele>286.2</ele>
        <time>2026-05-09T11:39:47Z</time>
      </trkpt>
      <trkpt lat="46.13935" lon="5.38696">
        <ele>286.2</ele>
        <time>2026-05-09T11:39:48Z</time>
      </trkpt>
      <trkpt lat="46.13934" lon="5.38698">
        <ele>286.6</ele>
        <time>2026-05-09T11:39:49Z</time>
      </trkpt>
      <trkpt lat="46.13934" lon="5.387">
        <ele>286.8</ele>
        <time>2026-05-09T11:39:50Z</time>
      </trkpt>
      <trkpt lat="46.13934" lon="5.38702">
        <ele>287</ele>
        <time>2026-05-09T11:39:51Z</time>
      </trkpt>
      <trkpt lat="46.13933" lon="5.38704">
        <ele>287</ele>
        <time>2026-05-09T11:39:52Z</time>
      </trkpt>
      <trkpt lat="46.13934" lon="5.38705">
        <ele>287.2</ele>
        <time>2026-05-09T11:39:53Z</time>
      </trkpt>
      <trkpt lat="46.13933" lon="5.38706">
        <ele>287.2</ele>
        <time>2026-05-09T11:39:54Z</time>
      </trkpt>
      <trkpt lat="46.13932" lon="5.38708">
        <ele>287.6</ele>
        <time>2026-05-09T11:39:55Z</time>
      </trkpt>
      <trkpt lat="46.13931" lon="5.3871">
        <ele>288</ele>
        <time>2026-05-09T11:39:56Z</time>
      </trkpt>
      <trkpt lat="46.1393" lon="5.38711">
        <ele>288</ele>
        <time>2026-05-09T11:39:57Z</time>
      </trkpt>
      <trkpt lat="46.13929" lon="5.38712">
        <ele>288</ele>
        <time>2026-05-09T11:39:58Z</time>
      </trkpt>
      <trkpt lat="46.13928" lon="5.38714">
        <ele>288.4</ele>
        <time>2026-05-09T11:39:59Z</time>
      </trkpt>
      <trkpt lat="46.13928" lon="5.38715">
        <ele>288.4</ele>
        <time>2026-05-09T11:40:00Z</time>
      </trkpt>
      <trkpt lat="46.13928" lon="5.38717">
        <ele>288.6</ele>
        <time>2026-05-09T11:40:01Z</time>
      </trkpt>
      <trkpt lat="46.13928" lon="5.38719">
        <ele>288.6</ele>
        <time>2026-05-09T11:40:02Z</time>
      </trkpt>
      <trkpt lat="46.13927" lon="5.38721">
        <ele>288.8</ele>
        <time>2026-05-09T11:40:03Z</time>
      </trkpt>
      <trkpt lat="46.13925" lon="5.38723">
        <ele>288.8</ele>
        <time>2026-05-09T11:40:04Z</time>
      </trkpt>
      <trkpt lat="46.13923" lon="5.38725">
        <ele>288.8</ele>
        <time>2026-05-09T11:40:05Z</time>
      </trkpt>
      <trkpt lat="46.13922" lon="5.38726">
        <ele>289.2</ele>
        <time>2026-05-09T11:40:06Z</time>
      </trkpt>
      <trkpt lat="46.1392" lon="5.38728">
        <ele>289.2</ele>
        <time>2026-05-09T11:40:07Z</time>
      </trkpt>
      <trkpt lat="46.13917" lon="5.38732">
        <ele>289.4</ele>
        <time>2026-05-09T11:40:08Z</time>
      </trkpt>
      <trkpt lat="46.13916" lon="5.38734">
        <ele>289.4</ele>
        <time>2026-05-09T11:40:09Z</time>
      </trkpt>
      <trkpt lat="46.13914" lon="5.38736">
        <ele>289.4</ele>
        <time>2026-05-09T11:40:10Z</time>
      </trkpt>
      <trkpt lat="46.13912" lon="5.38738">
        <ele>289.6</ele>
        <time>2026-05-09T11:40:11Z</time>
      </trkpt>
      <trkpt lat="46.13909" lon="5.38739">
        <ele>289.6</ele>
        <time>2026-05-09T11:40:12Z</time>
      </trkpt>
      <trkpt lat="46.13907" lon="5.38741">
        <ele>290</ele>
        <time>2026-05-09T11:40:13Z</time>
      </trkpt>
      <trkpt lat="46.13905" lon="5.38742">
        <ele>290</ele>
        <time>2026-05-09T11:40:14Z</time>
      </trkpt>
      <trkpt lat="46.13903" lon="5.38743">
        <ele>290</ele>
        <time>2026-05-09T11:40:15Z</time>
      </trkpt>
      <trkpt lat="46.13901" lon="5.38745">
        <ele>290.2</ele>
        <time>2026-05-09T11:40:16Z</time>
      </trkpt>
      <trkpt lat="46.139" lon="5.38746">
        <ele>290.2</ele>
        <time>2026-05-09T11:40:17Z</time>
      </trkpt>
      <trkpt lat="46.13897" lon="5.38748">
        <ele>290.2</ele>
        <time>2026-05-09T11:40:18Z</time>
      </trkpt>
      <trkpt lat="46.13895" lon="5.38749">
        <ele>290.2</ele>
        <time>2026-05-09T11:40:19Z</time>
      </trkpt>
      <trkpt lat="46.13893" lon="5.3875">
        <ele>290.4</ele>
        <time>2026-05-09T11:40:20Z</time>
      </trkpt>
      <trkpt lat="46.13891" lon="5.38751">
        <ele>290.8</ele>
        <time>2026-05-09T11:40:21Z</time>
      </trkpt>
      <trkpt lat="46.13888" lon="5.38752">
        <ele>290.8</ele>
        <time>2026-05-09T11:40:22Z</time>
      </trkpt>
      <trkpt lat="46.13886" lon="5.38753">
        <ele>290.8</ele>
        <time>2026-05-09T11:40:23Z</time>
      </trkpt>
      <trkpt lat="46.13884" lon="5.38754">
        <ele>290.8</ele>
        <time>2026-05-09T11:40:24Z</time>
      </trkpt>
      <trkpt lat="46.13882" lon="5.38755">
        <ele>291</ele>
        <time>2026-05-09T11:40:25Z</time>
      </trkpt>
      <trkpt lat="46.1388" lon="5.38756">
        <ele>291.2</ele>
        <time>2026-05-09T11:40:26Z</time>
      </trkpt>
      <trkpt lat="46.13877" lon="5.38757">
        <ele>291.2</ele>
        <time>2026-05-09T11:40:27Z</time>
      </trkpt>
      <trkpt lat="46.13875" lon="5.38757">
        <ele>291.2</ele>
        <time>2026-05-09T11:40:28Z</time>
      </trkpt>
      <trkpt lat="46.13872" lon="5.38758">
        <ele>291.2</ele>
        <time>2026-05-09T11:40:29Z</time>
      </trkpt>
      <trkpt lat="46.1387" lon="5.38759">
        <ele>291.6</ele>
        <time>2026-05-09T11:40:30Z</time>
      </trkpt>
      <trkpt lat="46.13868" lon="5.3876">
        <ele>291.6</ele>
        <time>2026-05-09T11:40:31Z</time>
      </trkpt>
      <trkpt lat="46.13866" lon="5.38761">
        <ele>291.6</ele>
        <time>2026-05-09T11:40:32Z</time>
      </trkpt>
      <trkpt lat="46.13863" lon="5.38762">
        <ele>291.8</ele>
        <time>2026-05-09T11:40:33Z</time>
      </trkpt>
      <trkpt lat="46.1386" lon="5.38764">
        <ele>291.8</ele>
        <time>2026-05-09T11:40:34Z</time>
      </trkpt>
      <trkpt lat="46.13858" lon="5.38765">
        <ele>291.8</ele>
        <time>2026-05-09T11:40:35Z</time>
      </trkpt>
      <trkpt lat="46.13856" lon="5.38767">
        <ele>291.8</ele>
        <time>2026-05-09T11:40:36Z</time>
      </trkpt>
      <trkpt lat="46.13854" lon="5.38769">
        <ele>291.8</ele>
        <time>2026-05-09T11:40:37Z</time>
      </trkpt>
      <trkpt lat="46.13852" lon="5.38771">
        <ele>292</ele>
        <time>2026-05-09T11:40:38Z</time>
      </trkpt>
      <trkpt lat="46.13851" lon="5.38773">
        <ele>292</ele>
        <time>2026-05-09T11:40:39Z</time>
      </trkpt>
      <trkpt lat="46.13849" lon="5.38776">
        <ele>292.2</ele>
        <time>2026-05-09T11:40:40Z</time>
      </trkpt>
      <trkpt lat="46.13848" lon="5.38779">
        <ele>292.2</ele>
        <time>2026-05-09T11:40:41Z</time>
      </trkpt>
      <trkpt lat="46.13847" lon="5.38782">
        <ele>292.2</ele>
        <time>2026-05-09T11:40:42Z</time>
      </trkpt>
      <trkpt lat="46.13846" lon="5.38785">
        <ele>292.2</ele>
        <time>2026-05-09T11:40:43Z</time>
      </trkpt>
      <trkpt lat="46.13846" lon="5.38788">
        <ele>292.2</ele>
        <time>2026-05-09T11:40:44Z</time>
      </trkpt>
      <trkpt lat="46.13845" lon="5.38792">
        <ele>292.4</ele>
        <time>2026-05-09T11:40:45Z</time>
      </trkpt>
      <trkpt lat="46.13845" lon="5.38796">
        <ele>292.4</ele>
        <time>2026-05-09T11:40:46Z</time>
      </trkpt>
      <trkpt lat="46.13844" lon="5.388">
        <ele>292.4</ele>
        <time>2026-05-09T11:40:47Z</time>
      </trkpt>
      <trkpt lat="46.13843" lon="5.38804">
        <ele>292.4</ele>
        <time>2026-05-09T11:40:48Z</time>
      </trkpt>
      <trkpt lat="46.13843" lon="5.38808">
        <ele>292.8</ele>
        <time>2026-05-09T11:40:49Z</time>
      </trkpt>
      <trkpt lat="46.13842" lon="5.38812">
        <ele>292.8</ele>
        <time>2026-05-09T11:40:50Z</time>
      </trkpt>
      <trkpt lat="46.13842" lon="5.38816">
        <ele>292.8</ele>
        <time>2026-05-09T11:40:51Z</time>
      </trkpt>
      <trkpt lat="46.13841" lon="5.3882">
        <ele>293</ele>
        <time>2026-05-09T11:40:52Z</time>
      </trkpt>
      <trkpt lat="46.13841" lon="5.38824">
        <ele>293</ele>
        <time>2026-05-09T11:40:53Z</time>
      </trkpt>
      <trkpt lat="46.13841" lon="5.38828">
        <ele>293</ele>
        <time>2026-05-09T11:40:54Z</time>
      </trkpt>
      <trkpt lat="46.1384" lon="5.38832">
        <ele>293</ele>
        <time>2026-05-09T11:40:55Z</time>
      </trkpt>
      <trkpt lat="46.13839" lon="5.38836">
        <ele>293</ele>
        <time>2026-05-09T11:40:56Z</time>
      </trkpt>
      <trkpt lat="46.13839" lon="5.38839">
        <ele>293</ele>
        <time>2026-05-09T11:40:57Z</time>
      </trkpt>
      <trkpt lat="46.13838" lon="5.38843">
        <ele>293</ele>
        <time>2026-05-09T11:40:58Z</time>
      </trkpt>
      <trkpt lat="46.13837" lon="5.38846">
        <ele>293</ele>
        <time>2026-05-09T11:40:59Z</time>
      </trkpt>
      <trkpt lat="46.13836" lon="5.3885">
        <ele>293</ele>
        <time>2026-05-09T11:41:00Z</time>
      </trkpt>
      <trkpt lat="46.13835" lon="5.38853">
        <ele>293.4</ele>
        <time>2026-05-09T11:41:01Z</time>
      </trkpt>
      <trkpt lat="46.13834" lon="5.38857">
        <ele>293.4</ele>
        <time>2026-05-09T11:41:02Z</time>
      </trkpt>
      <trkpt lat="46.13833" lon="5.3886">
        <ele>293.6</ele>
        <time>2026-05-09T11:41:03Z</time>
      </trkpt>
      <trkpt lat="46.13832" lon="5.38864">
        <ele>293.6</ele>
        <time>2026-05-09T11:41:04Z</time>
      </trkpt>
      <trkpt lat="46.1383" lon="5.38867">
        <ele>293.8</ele>
        <time>2026-05-09T11:41:05Z</time>
      </trkpt>
      <trkpt lat="46.13829" lon="5.38871">
        <ele>293.8</ele>
        <time>2026-05-09T11:41:06Z</time>
      </trkpt>
      <trkpt lat="46.13828" lon="5.38874">
        <ele>293.8</ele>
        <time>2026-05-09T11:41:07Z</time>
      </trkpt>
      <trkpt lat="46.13827" lon="5.38878">
        <ele>293.8</ele>
        <time>2026-05-09T11:41:08Z</time>
      </trkpt>
      <trkpt lat="46.13826" lon="5.38881">
        <ele>294</ele>
        <time>2026-05-09T11:41:09Z</time>
      </trkpt>
      <trkpt lat="46.13825" lon="5.38884">
        <ele>294</ele>
        <time>2026-05-09T11:41:10Z</time>
      </trkpt>
      <trkpt lat="46.13825" lon="5.38887">
        <ele>294</ele>
        <time>2026-05-09T11:41:11Z</time>
      </trkpt>
      <trkpt lat="46.13824" lon="5.38891">
        <ele>294.2</ele>
        <time>2026-05-09T11:41:12Z</time>
      </trkpt>
      <trkpt lat="46.13823" lon="5.38894">
        <ele>294.2</ele>
        <time>2026-05-09T11:41:13Z</time>
      </trkpt>
      <trkpt lat="46.13821" lon="5.38898">
        <ele>294.6</ele>
        <time>2026-05-09T11:41:14Z</time>
      </trkpt>
      <trkpt lat="46.1382" lon="5.38901">
        <ele>294.6</ele>
        <time>2026-05-09T11:41:15Z</time>
      </trkpt>
      <trkpt lat="46.13819" lon="5.38904">
        <ele>295</ele>
        <time>2026-05-09T11:41:16Z</time>
      </trkpt>
      <trkpt lat="46.13817" lon="5.38908">
        <ele>295</ele>
        <time>2026-05-09T11:41:17Z</time>
      </trkpt>
      <trkpt lat="46.13816" lon="5.38911">
        <ele>295</ele>
        <time>2026-05-09T11:41:18Z</time>
      </trkpt>
      <trkpt lat="46.13815" lon="5.38915">
        <ele>295.2</ele>
        <time>2026-05-09T11:41:19Z</time>
      </trkpt>
      <trkpt lat="46.13814" lon="5.38918">
        <ele>295.6</ele>
        <time>2026-05-09T11:41:20Z</time>
      </trkpt>
      <trkpt lat="46.13813" lon="5.38921">
        <ele>295.6</ele>
        <time>2026-05-09T11:41:21Z</time>
      </trkpt>
      <trkpt lat="46.13812" lon="5.38925">
        <ele>295.8</ele>
        <time>2026-05-09T11:41:22Z</time>
      </trkpt>
      <trkpt lat="46.13811" lon="5.38928">
        <ele>295.8</ele>
        <time>2026-05-09T11:41:23Z</time>
      </trkpt>
      <trkpt lat="46.1381" lon="5.38932">
        <ele>295.8</ele>
        <time>2026-05-09T11:41:24Z</time>
      </trkpt>
      <trkpt lat="46.13809" lon="5.38936">
        <ele>295.8</ele>
        <time>2026-05-09T11:41:25Z</time>
      </trkpt>
      <trkpt lat="46.13808" lon="5.38939">
        <ele>296</ele>
        <time>2026-05-09T11:41:26Z</time>
      </trkpt>
      <trkpt lat="46.13807" lon="5.38943">
        <ele>296</ele>
        <time>2026-05-09T11:41:27Z</time>
      </trkpt>
      <trkpt lat="46.13806" lon="5.38947">
        <ele>296</ele>
        <time>2026-05-09T11:41:28Z</time>
      </trkpt>
      <trkpt lat="46.13805" lon="5.3895">
        <ele>296.4</ele>
        <time>2026-05-09T11:41:29Z</time>
      </trkpt>
      <trkpt lat="46.13804" lon="5.38954">
        <ele>296.4</ele>
        <time>2026-05-09T11:41:30Z</time>
      </trkpt>
      <trkpt lat="46.13803" lon="5.38958">
        <ele>296.4</ele>
        <time>2026-05-09T11:41:31Z</time>
      </trkpt>
      <trkpt lat="46.13803" lon="5.38961">
        <ele>296.4</ele>
        <time>2026-05-09T11:41:32Z</time>
      </trkpt>
      <trkpt lat="46.13802" lon="5.38965">
        <ele>296.6</ele>
        <time>2026-05-09T11:41:33Z</time>
      </trkpt>
      <trkpt lat="46.13801" lon="5.38969">
        <ele>296.6</ele>
        <time>2026-05-09T11:41:34Z</time>
      </trkpt>
      <trkpt lat="46.138" lon="5.38972">
        <ele>296.6</ele>
        <time>2026-05-09T11:41:35Z</time>
      </trkpt>
      <trkpt lat="46.13799" lon="5.38975">
        <ele>296.6</ele>
        <time>2026-05-09T11:41:36Z</time>
      </trkpt>
      <trkpt lat="46.13798" lon="5.38979">
        <ele>296.6</ele>
        <time>2026-05-09T11:41:37Z</time>
      </trkpt>
      <trkpt lat="46.13797" lon="5.38982">
        <ele>297</ele>
        <time>2026-05-09T11:41:38Z</time>
      </trkpt>
      <trkpt lat="46.13796" lon="5.38986">
        <ele>297.2</ele>
        <time>2026-05-09T11:41:39Z</time>
      </trkpt>
      <trkpt lat="46.13795" lon="5.3899">
        <ele>297.4</ele>
        <time>2026-05-09T11:41:40Z</time>
      </trkpt>
      <trkpt lat="46.13794" lon="5.38993">
        <ele>297.4</ele>
        <time>2026-05-09T11:41:41Z</time>
      </trkpt>
      <trkpt lat="46.13793" lon="5.38997">
        <ele>297.6</ele>
        <time>2026-05-09T11:41:42Z</time>
      </trkpt>
      <trkpt lat="46.13792" lon="5.39001">
        <ele>297.6</ele>
        <time>2026-05-09T11:41:43Z</time>
      </trkpt>
      <trkpt lat="46.13791" lon="5.39004">
        <ele>297.6</ele>
        <time>2026-05-09T11:41:44Z</time>
      </trkpt>
      <trkpt lat="46.1379" lon="5.39007">
        <ele>298</ele>
        <time>2026-05-09T11:41:45Z</time>
      </trkpt>
      <trkpt lat="46.13789" lon="5.3901">
        <ele>298.4</ele>
        <time>2026-05-09T11:41:46Z</time>
      </trkpt>
      <trkpt lat="46.13787" lon="5.39013">
        <ele>298.6</ele>
        <time>2026-05-09T11:41:47Z</time>
      </trkpt>
      <trkpt lat="46.13785" lon="5.39014">
        <ele>298.8</ele>
        <time>2026-05-09T11:41:48Z</time>
      </trkpt>
      <trkpt lat="46.13783" lon="5.39016">
        <ele>298.8</ele>
        <time>2026-05-09T11:41:49Z</time>
      </trkpt>
      <trkpt lat="46.13783" lon="5.39016">
        <ele>298.8</ele>
        <time>2026-05-09T11:41:50Z</time>
      </trkpt>
      <trkpt lat="46.1378" lon="5.39016">
        <ele>298.8</ele>
        <time>2026-05-09T11:41:51Z</time>
      </trkpt>
      <trkpt lat="46.13777" lon="5.39017">
        <ele>299.2</ele>
        <time>2026-05-09T11:41:52Z</time>
      </trkpt>
      <trkpt lat="46.13775" lon="5.39017">
        <ele>299.2</ele>
        <time>2026-05-09T11:41:53Z</time>
      </trkpt>
      <trkpt lat="46.13773" lon="5.39018">
        <ele>299.2</ele>
        <time>2026-05-09T11:41:54Z</time>
      </trkpt>
      <trkpt lat="46.1377" lon="5.39018">
        <ele>299.6</ele>
        <time>2026-05-09T11:41:55Z</time>
      </trkpt>
      <trkpt lat="46.13768" lon="5.39019">
        <ele>299.6</ele>
        <time>2026-05-09T11:41:56Z</time>
      </trkpt>
      <trkpt lat="46.13766" lon="5.39019">
        <ele>299.6</ele>
        <time>2026-05-09T11:41:57Z</time>
      </trkpt>
      <trkpt lat="46.13764" lon="5.3902">
        <ele>299.8</ele>
        <time>2026-05-09T11:41:58Z</time>
      </trkpt>
      <trkpt lat="46.13762" lon="5.3902">
        <ele>299.8</ele>
        <time>2026-05-09T11:41:59Z</time>
      </trkpt>
      <trkpt lat="46.1376" lon="5.39021">
        <ele>300.2</ele>
        <time>2026-05-09T11:42:00Z</time>
      </trkpt>
      <trkpt lat="46.13758" lon="5.39022">
        <ele>300.2</ele>
        <time>2026-05-09T11:42:01Z</time>
      </trkpt>
      <trkpt lat="46.13756" lon="5.39022">
        <ele>300.4</ele>
        <time>2026-05-09T11:42:02Z</time>
      </trkpt>
      <trkpt lat="46.13754" lon="5.39023">
        <ele>300.4</ele>
        <time>2026-05-09T11:42:03Z</time>
      </trkpt>
      <trkpt lat="46.13752" lon="5.39024">
        <ele>300.8</ele>
        <time>2026-05-09T11:42:04Z</time>
      </trkpt>
      <trkpt lat="46.13749" lon="5.39025">
        <ele>301</ele>
        <time>2026-05-09T11:42:05Z</time>
      </trkpt>
      <trkpt lat="46.13747" lon="5.39027">
        <ele>301</ele>
        <time>2026-05-09T11:42:06Z</time>
      </trkpt>
      <trkpt lat="46.13745" lon="5.39028">
        <ele>301</ele>
        <time>2026-05-09T11:42:07Z</time>
      </trkpt>
      <trkpt lat="46.13743" lon="5.39029">
        <ele>301.2</ele>
        <time>2026-05-09T11:42:08Z</time>
      </trkpt>
      <trkpt lat="46.13741" lon="5.3903">
        <ele>301.2</ele>
        <time>2026-05-09T11:42:09Z</time>
      </trkpt>
      <trkpt lat="46.13739" lon="5.39031">
        <ele>301.2</ele>
        <time>2026-05-09T11:42:10Z</time>
      </trkpt>
      <trkpt lat="46.13737" lon="5.39032">
        <ele>301.2</ele>
        <time>2026-05-09T11:42:11Z</time>
      </trkpt>
      <trkpt lat="46.13735" lon="5.39033">
        <ele>301.2</ele>
        <time>2026-05-09T11:42:12Z</time>
      </trkpt>
      <trkpt lat="46.13732" lon="5.39034">
        <ele>301.2</ele>
        <time>2026-05-09T11:42:13Z</time>
      </trkpt>
      <trkpt lat="46.1373" lon="5.39036">
        <ele>301.6</ele>
        <time>2026-05-09T11:42:14Z</time>
      </trkpt>
      <trkpt lat="46.13727" lon="5.39037">
        <ele>301.6</ele>
        <time>2026-05-09T11:42:15Z</time>
      </trkpt>
      <trkpt lat="46.13725" lon="5.39039">
        <ele>301.6</ele>
        <time>2026-05-09T11:42:16Z</time>
      </trkpt>
      <trkpt lat="46.13723" lon="5.39041">
        <ele>301.6</ele>
        <time>2026-05-09T11:42:17Z</time>
      </trkpt>
      <trkpt lat="46.13721" lon="5.39043">
        <ele>301.6</ele>
        <time>2026-05-09T11:42:18Z</time>
      </trkpt>
      <trkpt lat="46.13719" lon="5.39045">
        <ele>301.6</ele>
        <time>2026-05-09T11:42:19Z</time>
      </trkpt>
      <trkpt lat="46.13717" lon="5.39046">
        <ele>302</ele>
        <time>2026-05-09T11:42:20Z</time>
      </trkpt>
      <trkpt lat="46.13716" lon="5.39048">
        <ele>302.4</ele>
        <time>2026-05-09T11:42:21Z</time>
      </trkpt>
      <trkpt lat="46.13714" lon="5.39049">
        <ele>302.6</ele>
        <time>2026-05-09T11:42:22Z</time>
      </trkpt>
      <trkpt lat="46.13712" lon="5.39051">
        <ele>302.6</ele>
        <time>2026-05-09T11:42:23Z</time>
      </trkpt>
      <trkpt lat="46.1371" lon="5.39052">
        <ele>302.6</ele>
        <time>2026-05-09T11:42:24Z</time>
      </trkpt>
      <trkpt lat="46.13709" lon="5.39053">
        <ele>302.8</ele>
        <time>2026-05-09T11:42:25Z</time>
      </trkpt>
      <trkpt lat="46.13707" lon="5.39055">
        <ele>302.8</ele>
        <time>2026-05-09T11:42:26Z</time>
      </trkpt>
      <trkpt lat="46.13706" lon="5.39056">
        <ele>302.8</ele>
        <time>2026-05-09T11:42:27Z</time>
      </trkpt>
      <trkpt lat="46.13705" lon="5.39057">
        <ele>302.8</ele>
        <time>2026-05-09T11:42:28Z</time>
      </trkpt>
      <trkpt lat="46.13703" lon="5.39059">
        <ele>301.2</ele>
        <time>2026-05-09T11:42:29Z</time>
      </trkpt>
      <trkpt lat="46.13701" lon="5.39061">
        <ele>301.8</ele>
        <time>2026-05-09T11:42:30Z</time>
      </trkpt>
      <trkpt lat="46.13699" lon="5.39063">
        <ele>302.2</ele>
        <time>2026-05-09T11:42:31Z</time>
      </trkpt>
      <trkpt lat="46.13697" lon="5.39065">
        <ele>302.4</ele>
        <time>2026-05-09T11:42:32Z</time>
      </trkpt>
      <trkpt lat="46.13694" lon="5.39067">
        <ele>302.4</ele>
        <time>2026-05-09T11:42:33Z</time>
      </trkpt>
      <trkpt lat="46.13692" lon="5.39069">
        <ele>302.8</ele>
        <time>2026-05-09T11:42:34Z</time>
      </trkpt>
      <trkpt lat="46.1369" lon="5.39072">
        <ele>302.8</ele>
        <time>2026-05-09T11:42:35Z</time>
      </trkpt>
      <trkpt lat="46.13688" lon="5.39075">
        <ele>302.8</ele>
        <time>2026-05-09T11:42:36Z</time>
      </trkpt>
      <trkpt lat="46.13685" lon="5.39078">
        <ele>302.8</ele>
        <time>2026-05-09T11:42:37Z</time>
      </trkpt>
      <trkpt lat="46.13683" lon="5.39081">
        <ele>302.8</ele>
        <time>2026-05-09T11:42:38Z</time>
      </trkpt>
      <trkpt lat="46.1368" lon="5.39085">
        <ele>302.8</ele>
        <time>2026-05-09T11:42:39Z</time>
      </trkpt>
      <trkpt lat="46.13677" lon="5.39089">
        <ele>302.8</ele>
        <time>2026-05-09T11:42:40Z</time>
      </trkpt>
      <trkpt lat="46.13675" lon="5.39094">
        <ele>302.8</ele>
        <time>2026-05-09T11:42:41Z</time>
      </trkpt>
      <trkpt lat="46.13672" lon="5.39099">
        <ele>302.6</ele>
        <time>2026-05-09T11:42:42Z</time>
      </trkpt>
      <trkpt lat="46.1367" lon="5.39105">
        <ele>302.6</ele>
        <time>2026-05-09T11:42:43Z</time>
      </trkpt>
      <trkpt lat="46.13669" lon="5.3911">
        <ele>302.6</ele>
        <time>2026-05-09T11:42:44Z</time>
      </trkpt>
      <trkpt lat="46.13667" lon="5.39114">
        <ele>302.6</ele>
        <time>2026-05-09T11:42:45Z</time>
      </trkpt>
      <trkpt lat="46.13665" lon="5.39119">
        <ele>302.2</ele>
        <time>2026-05-09T11:42:46Z</time>
      </trkpt>
      <trkpt lat="46.13663" lon="5.39123">
        <ele>302.2</ele>
        <time>2026-05-09T11:42:47Z</time>
      </trkpt>
      <trkpt lat="46.13662" lon="5.39128">
        <ele>302.2</ele>
        <time>2026-05-09T11:42:48Z</time>
      </trkpt>
      <trkpt lat="46.13661" lon="5.39132">
        <ele>302.4</ele>
        <time>2026-05-09T11:42:49Z</time>
      </trkpt>
      <trkpt lat="46.1366" lon="5.39136">
        <ele>302.4</ele>
        <time>2026-05-09T11:42:50Z</time>
      </trkpt>
      <trkpt lat="46.1366" lon="5.39141">
        <ele>302.4</ele>
        <time>2026-05-09T11:42:51Z</time>
      </trkpt>
      <trkpt lat="46.1366" lon="5.39146">
        <ele>302.8</ele>
        <time>2026-05-09T11:42:52Z</time>
      </trkpt>
      <trkpt lat="46.13659" lon="5.3915">
        <ele>303</ele>
        <time>2026-05-09T11:42:53Z</time>
      </trkpt>
      <trkpt lat="46.13659" lon="5.39154">
        <ele>303.2</ele>
        <time>2026-05-09T11:42:54Z</time>
      </trkpt>
      <trkpt lat="46.1366" lon="5.39158">
        <ele>303.2</ele>
        <time>2026-05-09T11:42:55Z</time>
      </trkpt>
      <trkpt lat="46.1366" lon="5.39163">
        <ele>303.4</ele>
        <time>2026-05-09T11:42:56Z</time>
      </trkpt>
      <trkpt lat="46.1366" lon="5.39167">
        <ele>303.4</ele>
        <time>2026-05-09T11:42:57Z</time>
      </trkpt>
      <trkpt lat="46.1366" lon="5.39171">
        <ele>303.8</ele>
        <time>2026-05-09T11:42:58Z</time>
      </trkpt>
      <trkpt lat="46.1366" lon="5.39175">
        <ele>303.8</ele>
        <time>2026-05-09T11:42:59Z</time>
      </trkpt>
      <trkpt lat="46.1366" lon="5.39179">
        <ele>303.8</ele>
        <time>2026-05-09T11:43:00Z</time>
      </trkpt>
      <trkpt lat="46.13661" lon="5.39183">
        <ele>304</ele>
        <time>2026-05-09T11:43:01Z</time>
      </trkpt>
      <trkpt lat="46.13661" lon="5.39187">
        <ele>304</ele>
        <time>2026-05-09T11:43:02Z</time>
      </trkpt>
      <trkpt lat="46.13662" lon="5.39191">
        <ele>304</ele>
        <time>2026-05-09T11:43:03Z</time>
      </trkpt>
      <trkpt lat="46.13662" lon="5.39194">
        <ele>304.2</ele>
        <time>2026-05-09T11:43:04Z</time>
      </trkpt>
      <trkpt lat="46.13663" lon="5.39198">
        <ele>304.2</ele>
        <time>2026-05-09T11:43:05Z</time>
      </trkpt>
      <trkpt lat="46.13663" lon="5.39201">
        <ele>304.2</ele>
        <time>2026-05-09T11:43:06Z</time>
      </trkpt>
      <trkpt lat="46.13663" lon="5.39205">
        <ele>304.6</ele>
        <time>2026-05-09T11:43:07Z</time>
      </trkpt>
      <trkpt lat="46.13664" lon="5.39208">
        <ele>304.6</ele>
        <time>2026-05-09T11:43:08Z</time>
      </trkpt>
      <trkpt lat="46.13664" lon="5.39211">
        <ele>304.8</ele>
        <time>2026-05-09T11:43:09Z</time>
      </trkpt>
      <trkpt lat="46.13664" lon="5.39215">
        <ele>305</ele>
        <time>2026-05-09T11:43:10Z</time>
      </trkpt>
      <trkpt lat="46.13664" lon="5.39218">
        <ele>305</ele>
        <time>2026-05-09T11:43:11Z</time>
      </trkpt>
      <trkpt lat="46.13664" lon="5.39221">
        <ele>305.4</ele>
        <time>2026-05-09T11:43:12Z</time>
      </trkpt>
      <trkpt lat="46.13664" lon="5.39224">
        <ele>305.4</ele>
        <time>2026-05-09T11:43:13Z</time>
      </trkpt>
      <trkpt lat="46.13663" lon="5.39228">
        <ele>305.4</ele>
        <time>2026-05-09T11:43:14Z</time>
      </trkpt>
      <trkpt lat="46.13663" lon="5.39231">
        <ele>305.4</ele>
        <time>2026-05-09T11:43:15Z</time>
      </trkpt>
      <trkpt lat="46.13662" lon="5.39234">
        <ele>305.6</ele>
        <time>2026-05-09T11:43:16Z</time>
      </trkpt>
      <trkpt lat="46.13661" lon="5.39238">
        <ele>305.6</ele>
        <time>2026-05-09T11:43:17Z</time>
      </trkpt>
      <trkpt lat="46.13661" lon="5.39241">
        <ele>305.8</ele>
        <time>2026-05-09T11:43:18Z</time>
      </trkpt>
      <trkpt lat="46.1366" lon="5.39245">
        <ele>305.8</ele>
        <time>2026-05-09T11:43:19Z</time>
      </trkpt>
      <trkpt lat="46.13659" lon="5.39248">
        <ele>306.2</ele>
        <time>2026-05-09T11:43:20Z</time>
      </trkpt>
      <trkpt lat="46.13658" lon="5.39251">
        <ele>306.2</ele>
        <time>2026-05-09T11:43:21Z</time>
      </trkpt>
      <trkpt lat="46.13657" lon="5.39254">
        <ele>306.4</ele>
        <time>2026-05-09T11:43:22Z</time>
      </trkpt>
      <trkpt lat="46.13655" lon="5.3926">
        <ele>306.4</ele>
        <time>2026-05-09T11:43:23Z</time>
      </trkpt>
      <trkpt lat="46.13653" lon="5.39264">
        <ele>306.4</ele>
        <time>2026-05-09T11:43:24Z</time>
      </trkpt>
      <trkpt lat="46.13652" lon="5.39268">
        <ele>306.4</ele>
        <time>2026-05-09T11:43:25Z</time>
      </trkpt>
      <trkpt lat="46.13651" lon="5.39272">
        <ele>306.6</ele>
        <time>2026-05-09T11:43:26Z</time>
      </trkpt>
      <trkpt lat="46.13649" lon="5.39275">
        <ele>306.6</ele>
        <time>2026-05-09T11:43:27Z</time>
      </trkpt>
      <trkpt lat="46.13648" lon="5.39278">
        <ele>306.8</ele>
        <time>2026-05-09T11:43:28Z</time>
      </trkpt>
      <trkpt lat="46.13646" lon="5.39281">
        <ele>306.8</ele>
        <time>2026-05-09T11:43:29Z</time>
      </trkpt>
      <trkpt lat="46.13644" lon="5.39284">
        <ele>307.2</ele>
        <time>2026-05-09T11:43:30Z</time>
      </trkpt>
      <trkpt lat="46.13642" lon="5.39287">
        <ele>307.2</ele>
        <time>2026-05-09T11:43:31Z</time>
      </trkpt>
      <trkpt lat="46.1364" lon="5.39289">
        <ele>307.4</ele>
        <time>2026-05-09T11:43:32Z</time>
      </trkpt>
      <trkpt lat="46.13638" lon="5.39292">
        <ele>307.4</ele>
        <time>2026-05-09T11:43:33Z</time>
      </trkpt>
      <trkpt lat="46.13636" lon="5.39294">
        <ele>307.4</ele>
        <time>2026-05-09T11:43:34Z</time>
      </trkpt>
      <trkpt lat="46.13634" lon="5.39296">
        <ele>307.6</ele>
        <time>2026-05-09T11:43:35Z</time>
      </trkpt>
      <trkpt lat="46.13632" lon="5.39299">
        <ele>307.6</ele>
        <time>2026-05-09T11:43:36Z</time>
      </trkpt>
      <trkpt lat="46.1363" lon="5.39301">
        <ele>307.6</ele>
        <time>2026-05-09T11:43:37Z</time>
      </trkpt>
      <trkpt lat="46.13628" lon="5.39303">
        <ele>307.6</ele>
        <time>2026-05-09T11:43:38Z</time>
      </trkpt>
      <trkpt lat="46.13626" lon="5.39305">
        <ele>308</ele>
        <time>2026-05-09T11:43:39Z</time>
      </trkpt>
      <trkpt lat="46.13624" lon="5.39307">
        <ele>308</ele>
        <time>2026-05-09T11:43:40Z</time>
      </trkpt>
      <trkpt lat="46.13622" lon="5.39309">
        <ele>308.4</ele>
        <time>2026-05-09T11:43:41Z</time>
      </trkpt>
      <trkpt lat="46.13619" lon="5.39311">
        <ele>308.4</ele>
        <time>2026-05-09T11:43:42Z</time>
      </trkpt>
      <trkpt lat="46.13617" lon="5.39312">
        <ele>308.8</ele>
        <time>2026-05-09T11:43:43Z</time>
      </trkpt>
      <trkpt lat="46.13615" lon="5.39314">
        <ele>309</ele>
        <time>2026-05-09T11:43:44Z</time>
      </trkpt>
      <trkpt lat="46.13613" lon="5.39316">
        <ele>309</ele>
        <time>2026-05-09T11:43:45Z</time>
      </trkpt>
      <trkpt lat="46.13611" lon="5.39318">
        <ele>309</ele>
        <time>2026-05-09T11:43:46Z</time>
      </trkpt>
      <trkpt lat="46.13609" lon="5.3932">
        <ele>309</ele>
        <time>2026-05-09T11:43:47Z</time>
      </trkpt>
      <trkpt lat="46.13607" lon="5.39322">
        <ele>309.2</ele>
        <time>2026-05-09T11:43:48Z</time>
      </trkpt>
      <trkpt lat="46.13605" lon="5.39323">
        <ele>309.2</ele>
        <time>2026-05-09T11:43:49Z</time>
      </trkpt>
      <trkpt lat="46.13603" lon="5.39325">
        <ele>309.2</ele>
        <time>2026-05-09T11:43:50Z</time>
      </trkpt>
      <trkpt lat="46.13601" lon="5.39326">
        <ele>309.4</ele>
        <time>2026-05-09T11:43:51Z</time>
      </trkpt>
      <trkpt lat="46.13599" lon="5.39328">
        <ele>309.4</ele>
        <time>2026-05-09T11:43:52Z</time>
      </trkpt>
      <trkpt lat="46.13596" lon="5.3933">
        <ele>309.8</ele>
        <time>2026-05-09T11:43:53Z</time>
      </trkpt>
      <trkpt lat="46.13594" lon="5.39331">
        <ele>309.8</ele>
        <time>2026-05-09T11:43:54Z</time>
      </trkpt>
      <trkpt lat="46.13592" lon="5.39333">
        <ele>309.8</ele>
        <time>2026-05-09T11:43:55Z</time>
      </trkpt>
      <trkpt lat="46.1359" lon="5.39334">
        <ele>309.8</ele>
        <time>2026-05-09T11:43:56Z</time>
      </trkpt>
      <trkpt lat="46.13588" lon="5.39336">
        <ele>309.8</ele>
        <time>2026-05-09T11:43:57Z</time>
      </trkpt>
      <trkpt lat="46.13586" lon="5.39337">
        <ele>309.8</ele>
        <time>2026-05-09T11:43:58Z</time>
      </trkpt>
      <trkpt lat="46.13583" lon="5.39339">
        <ele>310</ele>
        <time>2026-05-09T11:43:59Z</time>
      </trkpt>
      <trkpt lat="46.13581" lon="5.3934">
        <ele>310</ele>
        <time>2026-05-09T11:44:00Z</time>
      </trkpt>
      <trkpt lat="46.13579" lon="5.39342">
        <ele>310</ele>
        <time>2026-05-09T11:44:01Z</time>
      </trkpt>
      <trkpt lat="46.13577" lon="5.39343">
        <ele>310.2</ele>
        <time>2026-05-09T11:44:02Z</time>
      </trkpt>
      <trkpt lat="46.13575" lon="5.39345">
        <ele>310.2</ele>
        <time>2026-05-09T11:44:03Z</time>
      </trkpt>
      <trkpt lat="46.13573" lon="5.39346">
        <ele>310.2</ele>
        <time>2026-05-09T11:44:04Z</time>
      </trkpt>
      <trkpt lat="46.13571" lon="5.39348">
        <ele>310.4</ele>
        <time>2026-05-09T11:44:05Z</time>
      </trkpt>
      <trkpt lat="46.13568" lon="5.3935">
        <ele>310.4</ele>
        <time>2026-05-09T11:44:06Z</time>
      </trkpt>
      <trkpt lat="46.13566" lon="5.39352">
        <ele>310.8</ele>
        <time>2026-05-09T11:44:07Z</time>
      </trkpt>
      <trkpt lat="46.13564" lon="5.39354">
        <ele>310.8</ele>
        <time>2026-05-09T11:44:08Z</time>
      </trkpt>
      <trkpt lat="46.13562" lon="5.39355">
        <ele>310.8</ele>
        <time>2026-05-09T11:44:09Z</time>
      </trkpt>
      <trkpt lat="46.1356" lon="5.39357">
        <ele>310.8</ele>
        <time>2026-05-09T11:44:10Z</time>
      </trkpt>
      <trkpt lat="46.13557" lon="5.39358">
        <ele>310.8</ele>
        <time>2026-05-09T11:44:11Z</time>
      </trkpt>
      <trkpt lat="46.13555" lon="5.3936">
        <ele>311</ele>
        <time>2026-05-09T11:44:12Z</time>
      </trkpt>
      <trkpt lat="46.13553" lon="5.39362">
        <ele>311</ele>
        <time>2026-05-09T11:44:13Z</time>
      </trkpt>
      <trkpt lat="46.13551" lon="5.39363">
        <ele>311.2</ele>
        <time>2026-05-09T11:44:14Z</time>
      </trkpt>
      <trkpt lat="46.13548" lon="5.39364">
        <ele>311.2</ele>
        <time>2026-05-09T11:44:15Z</time>
      </trkpt>
      <trkpt lat="46.13546" lon="5.39365">
        <ele>311.4</ele>
        <time>2026-05-09T11:44:16Z</time>
      </trkpt>
      <trkpt lat="46.13543" lon="5.39366">
        <ele>311.6</ele>
        <time>2026-05-09T11:44:17Z</time>
      </trkpt>
      <trkpt lat="46.13541" lon="5.39367">
        <ele>311.6</ele>
        <time>2026-05-09T11:44:18Z</time>
      </trkpt>
      <trkpt lat="46.13538" lon="5.39368">
        <ele>312</ele>
        <time>2026-05-09T11:44:19Z</time>
      </trkpt>
      <trkpt lat="46.13535" lon="5.39369">
        <ele>312</ele>
        <time>2026-05-09T11:44:20Z</time>
      </trkpt>
      <trkpt lat="46.13533" lon="5.3937">
        <ele>312.2</ele>
        <time>2026-05-09T11:44:21Z</time>
      </trkpt>
      <trkpt lat="46.1353" lon="5.39371">
        <ele>312.2</ele>
        <time>2026-05-09T11:44:22Z</time>
      </trkpt>
      <trkpt lat="46.13527" lon="5.39371">
        <ele>312.2</ele>
        <time>2026-05-09T11:44:23Z</time>
      </trkpt>
      <trkpt lat="46.13525" lon="5.39372">
        <ele>312.2</ele>
        <time>2026-05-09T11:44:24Z</time>
      </trkpt>
      <trkpt lat="46.13522" lon="5.39372">
        <ele>312.2</ele>
        <time>2026-05-09T11:44:25Z</time>
      </trkpt>
      <trkpt lat="46.13519" lon="5.39373">
        <ele>312.2</ele>
        <time>2026-05-09T11:44:26Z</time>
      </trkpt>
      <trkpt lat="46.13517" lon="5.39373">
        <ele>312.2</ele>
        <time>2026-05-09T11:44:27Z</time>
      </trkpt>
      <trkpt lat="46.13514" lon="5.39373">
        <ele>312.2</ele>
        <time>2026-05-09T11:44:28Z</time>
      </trkpt>
      <trkpt lat="46.13512" lon="5.39374">
        <ele>312.2</ele>
        <time>2026-05-09T11:44:29Z</time>
      </trkpt>
      <trkpt lat="46.1351" lon="5.39374">
        <ele>312.4</ele>
        <time>2026-05-09T11:44:30Z</time>
      </trkpt>
      <trkpt lat="46.13507" lon="5.39375">
        <ele>312.4</ele>
        <time>2026-05-09T11:44:31Z</time>
      </trkpt>
      <trkpt lat="46.13504" lon="5.39375">
        <ele>312.4</ele>
        <time>2026-05-09T11:44:32Z</time>
      </trkpt>
      <trkpt lat="46.13502" lon="5.39375">
        <ele>312.6</ele>
        <time>2026-05-09T11:44:33Z</time>
      </trkpt>
      <trkpt lat="46.13499" lon="5.39376">
        <ele>313</ele>
        <time>2026-05-09T11:44:34Z</time>
      </trkpt>
      <trkpt lat="46.13496" lon="5.39376">
        <ele>313.2</ele>
        <time>2026-05-09T11:44:35Z</time>
      </trkpt>
      <trkpt lat="46.13493" lon="5.39376">
        <ele>313.2</ele>
        <time>2026-05-09T11:44:36Z</time>
      </trkpt>
      <trkpt lat="46.1349" lon="5.39376">
        <ele>313.4</ele>
        <time>2026-05-09T11:44:37Z</time>
      </trkpt>
      <trkpt lat="46.13487" lon="5.39376">
        <ele>313.4</ele>
        <time>2026-05-09T11:44:38Z</time>
      </trkpt>
      <trkpt lat="46.13484" lon="5.39376">
        <ele>313.4</ele>
        <time>2026-05-09T11:44:39Z</time>
      </trkpt>
      <trkpt lat="46.13481" lon="5.39376">
        <ele>313.4</ele>
        <time>2026-05-09T11:44:40Z</time>
      </trkpt>
      <trkpt lat="46.13478" lon="5.39377">
        <ele>313.6</ele>
        <time>2026-05-09T11:44:41Z</time>
      </trkpt>
      <trkpt lat="46.13475" lon="5.39377">
        <ele>313.6</ele>
        <time>2026-05-09T11:44:42Z</time>
      </trkpt>
      <trkpt lat="46.13472" lon="5.39377">
        <ele>313.8</ele>
        <time>2026-05-09T11:44:43Z</time>
      </trkpt>
      <trkpt lat="46.13469" lon="5.39377">
        <ele>313.8</ele>
        <time>2026-05-09T11:44:44Z</time>
      </trkpt>
      <trkpt lat="46.13466" lon="5.39377">
        <ele>313.8</ele>
        <time>2026-05-09T11:44:45Z</time>
      </trkpt>
      <trkpt lat="46.13463" lon="5.39377">
        <ele>313.8</ele>
        <time>2026-05-09T11:44:46Z</time>
      </trkpt>
      <trkpt lat="46.13461" lon="5.39377">
        <ele>313.8</ele>
        <time>2026-05-09T11:44:47Z</time>
      </trkpt>
      <trkpt lat="46.13458" lon="5.39378">
        <ele>313.8</ele>
        <time>2026-05-09T11:44:48Z</time>
      </trkpt>
      <trkpt lat="46.13455" lon="5.39378">
        <ele>313.8</ele>
        <time>2026-05-09T11:44:49Z</time>
      </trkpt>
      <trkpt lat="46.13452" lon="5.39378">
        <ele>314</ele>
        <time>2026-05-09T11:44:50Z</time>
      </trkpt>
      <trkpt lat="46.13449" lon="5.39378">
        <ele>314</ele>
        <time>2026-05-09T11:44:51Z</time>
      </trkpt>
      <trkpt lat="46.13446" lon="5.39378">
        <ele>314</ele>
        <time>2026-05-09T11:44:52Z</time>
      </trkpt>
      <trkpt lat="46.13442" lon="5.39379">
        <ele>314</ele>
        <time>2026-05-09T11:44:53Z</time>
      </trkpt>
      <trkpt lat="46.13439" lon="5.39379">
        <ele>314</ele>
        <time>2026-05-09T11:44:54Z</time>
      </trkpt>
      <trkpt lat="46.13436" lon="5.3938">
        <ele>314</ele>
        <time>2026-05-09T11:44:55Z</time>
      </trkpt>
      <trkpt lat="46.13433" lon="5.39381">
        <ele>314</ele>
        <time>2026-05-09T11:44:56Z</time>
      </trkpt>
      <trkpt lat="46.1343" lon="5.39382">
        <ele>314.2</ele>
        <time>2026-05-09T11:44:57Z</time>
      </trkpt>
      <trkpt lat="46.13427" lon="5.39383">
        <ele>314.2</ele>
        <time>2026-05-09T11:44:58Z</time>
      </trkpt>
      <trkpt lat="46.13424" lon="5.39384">
        <ele>314.2</ele>
        <time>2026-05-09T11:44:59Z</time>
      </trkpt>
      <trkpt lat="46.13421" lon="5.39385">
        <ele>314.2</ele>
        <time>2026-05-09T11:45:00Z</time>
      </trkpt>
      <trkpt lat="46.13418" lon="5.39386">
        <ele>314.6</ele>
        <time>2026-05-09T11:45:01Z</time>
      </trkpt>
      <trkpt lat="46.13418" lon="5.39386">
        <ele>314.6</ele>
        <time>2026-05-09T11:45:02Z</time>
      </trkpt>
      <trkpt lat="46.13415" lon="5.39386">
        <ele>314.8</ele>
        <time>2026-05-09T11:45:03Z</time>
      </trkpt>
      <trkpt lat="46.13413" lon="5.39387">
        <ele>314.8</ele>
        <time>2026-05-09T11:45:04Z</time>
      </trkpt>
      <trkpt lat="46.1341" lon="5.39388">
        <ele>314.8</ele>
        <time>2026-05-09T11:45:05Z</time>
      </trkpt>
      <trkpt lat="46.13408" lon="5.39389">
        <ele>314.8</ele>
        <time>2026-05-09T11:45:06Z</time>
      </trkpt>
      <trkpt lat="46.13405" lon="5.39391">
        <ele>314.8</ele>
        <time>2026-05-09T11:45:07Z</time>
      </trkpt>
      <trkpt lat="46.13403" lon="5.39392">
        <ele>314.8</ele>
        <time>2026-05-09T11:45:08Z</time>
      </trkpt>
      <trkpt lat="46.13401" lon="5.39393">
        <ele>315.2</ele>
        <time>2026-05-09T11:45:09Z</time>
      </trkpt>
      <trkpt lat="46.13399" lon="5.39395">
        <ele>315.2</ele>
        <time>2026-05-09T11:45:10Z</time>
      </trkpt>
      <trkpt lat="46.13397" lon="5.39396">
        <ele>315.8</ele>
        <time>2026-05-09T11:45:11Z</time>
      </trkpt>
      <trkpt lat="46.13395" lon="5.39398">
        <ele>316</ele>
        <time>2026-05-09T11:45:12Z</time>
      </trkpt>
      <trkpt lat="46.13393" lon="5.394">
        <ele>316</ele>
        <time>2026-05-09T11:45:13Z</time>
      </trkpt>
      <trkpt lat="46.13391" lon="5.39402">
        <ele>316.4</ele>
        <time>2026-05-09T11:45:14Z</time>
      </trkpt>
      <trkpt lat="46.1339" lon="5.39404">
        <ele>316.6</ele>
        <time>2026-05-09T11:45:15Z</time>
      </trkpt>
      <trkpt lat="46.13388" lon="5.39405">
        <ele>316.6</ele>
        <time>2026-05-09T11:45:16Z</time>
      </trkpt>
      <trkpt lat="46.13387" lon="5.39407">
        <ele>317</ele>
        <time>2026-05-09T11:45:17Z</time>
      </trkpt>
      <trkpt lat="46.13385" lon="5.39409">
        <ele>317</ele>
        <time>2026-05-09T11:45:18Z</time>
      </trkpt>
      <trkpt lat="46.13383" lon="5.39411">
        <ele>317</ele>
        <time>2026-05-09T11:45:19Z</time>
      </trkpt>
      <trkpt lat="46.13382" lon="5.39413">
        <ele>317.4</ele>
        <time>2026-05-09T11:45:20Z</time>
      </trkpt>
      <trkpt lat="46.1338" lon="5.39414">
        <ele>317.4</ele>
        <time>2026-05-09T11:45:21Z</time>
      </trkpt>
      <trkpt lat="46.13379" lon="5.39416">
        <ele>317.8</ele>
        <time>2026-05-09T11:45:22Z</time>
      </trkpt>
      <trkpt lat="46.13377" lon="5.39418">
        <ele>317.8</ele>
        <time>2026-05-09T11:45:23Z</time>
      </trkpt>
      <trkpt lat="46.13376" lon="5.3942">
        <ele>318</ele>
        <time>2026-05-09T11:45:24Z</time>
      </trkpt>
      <trkpt lat="46.13375" lon="5.39422">
        <ele>318</ele>
        <time>2026-05-09T11:45:25Z</time>
      </trkpt>
      <trkpt lat="46.13373" lon="5.39424">
        <ele>318</ele>
        <time>2026-05-09T11:45:26Z</time>
      </trkpt>
      <trkpt lat="46.13372" lon="5.39426">
        <ele>318.4</ele>
        <time>2026-05-09T11:45:27Z</time>
      </trkpt>
      <trkpt lat="46.1337" lon="5.39428">
        <ele>318.6</ele>
        <time>2026-05-09T11:45:28Z</time>
      </trkpt>
      <trkpt lat="46.13369" lon="5.3943">
        <ele>318.8</ele>
        <time>2026-05-09T11:45:29Z</time>
      </trkpt>
      <trkpt lat="46.13368" lon="5.39432">
        <ele>318.8</ele>
        <time>2026-05-09T11:45:30Z</time>
      </trkpt>
      <trkpt lat="46.13367" lon="5.39434">
        <ele>319.2</ele>
        <time>2026-05-09T11:45:31Z</time>
      </trkpt>
      <trkpt lat="46.13366" lon="5.39436">
        <ele>319.2</ele>
        <time>2026-05-09T11:45:32Z</time>
      </trkpt>
      <trkpt lat="46.13365" lon="5.39438">
        <ele>319.4</ele>
        <time>2026-05-09T11:45:33Z</time>
      </trkpt>
      <trkpt lat="46.13363" lon="5.3944">
        <ele>319.6</ele>
        <time>2026-05-09T11:45:34Z</time>
      </trkpt>
      <trkpt lat="46.13362" lon="5.39442">
        <ele>319.6</ele>
        <time>2026-05-09T11:45:35Z</time>
      </trkpt>
      <trkpt lat="46.13361" lon="5.39444">
        <ele>319.6</ele>
        <time>2026-05-09T11:45:36Z</time>
      </trkpt>
      <trkpt lat="46.1336" lon="5.39446">
        <ele>320</ele>
        <time>2026-05-09T11:45:37Z</time>
      </trkpt>
      <trkpt lat="46.13359" lon="5.39449">
        <ele>320.4</ele>
        <time>2026-05-09T11:45:38Z</time>
      </trkpt>
      <trkpt lat="46.13357" lon="5.39451">
        <ele>320.6</ele>
        <time>2026-05-09T11:45:39Z</time>
      </trkpt>
      <trkpt lat="46.13356" lon="5.39453">
        <ele>321</ele>
        <time>2026-05-09T11:45:40Z</time>
      </trkpt>
      <trkpt lat="46.13355" lon="5.39455">
        <ele>321</ele>
        <time>2026-05-09T11:45:41Z</time>
      </trkpt>
      <trkpt lat="46.13354" lon="5.39457">
        <ele>321</ele>
        <time>2026-05-09T11:45:42Z</time>
      </trkpt>
      <trkpt lat="46.13353" lon="5.3946">
        <ele>321.2</ele>
        <time>2026-05-09T11:45:43Z</time>
      </trkpt>
      <trkpt lat="46.13352" lon="5.39462">
        <ele>321.2</ele>
        <time>2026-05-09T11:45:44Z</time>
      </trkpt>
      <trkpt lat="46.13351" lon="5.39464">
        <ele>321.4</ele>
        <time>2026-05-09T11:45:45Z</time>
      </trkpt>
      <trkpt lat="46.1335" lon="5.39467">
        <ele>321.4</ele>
        <time>2026-05-09T11:45:46Z</time>
      </trkpt>
      <trkpt lat="46.13349" lon="5.39469">
        <ele>321.8</ele>
        <time>2026-05-09T11:45:47Z</time>
      </trkpt>
      <trkpt lat="46.13347" lon="5.39472">
        <ele>321.8</ele>
        <time>2026-05-09T11:45:48Z</time>
      </trkpt>
      <trkpt lat="46.13346" lon="5.39474">
        <ele>322</ele>
        <time>2026-05-09T11:45:49Z</time>
      </trkpt>
      <trkpt lat="46.13345" lon="5.39476">
        <ele>322</ele>
        <time>2026-05-09T11:45:50Z</time>
      </trkpt>
      <trkpt lat="46.13344" lon="5.39478">
        <ele>322.2</ele>
        <time>2026-05-09T11:45:51Z</time>
      </trkpt>
      <trkpt lat="46.13343" lon="5.39481">
        <ele>322.2</ele>
        <time>2026-05-09T11:45:52Z</time>
      </trkpt>
      <trkpt lat="46.13342" lon="5.39483">
        <ele>322.2</ele>
        <time>2026-05-09T11:45:53Z</time>
      </trkpt>
      <trkpt lat="46.1334" lon="5.39486">
        <ele>322.6</ele>
        <time>2026-05-09T11:45:54Z</time>
      </trkpt>
      <trkpt lat="46.13339" lon="5.39488">
        <ele>322.8</ele>
        <time>2026-05-09T11:45:55Z</time>
      </trkpt>
      <trkpt lat="46.13339" lon="5.39491">
        <ele>322.8</ele>
        <time>2026-05-09T11:45:56Z</time>
      </trkpt>
      <trkpt lat="46.13338" lon="5.39494">
        <ele>322.8</ele>
        <time>2026-05-09T11:45:57Z</time>
      </trkpt>
      <trkpt lat="46.13337" lon="5.39496">
        <ele>323.2</ele>
        <time>2026-05-09T11:45:58Z</time>
      </trkpt>
      <trkpt lat="46.13336" lon="5.39499">
        <ele>323.2</ele>
        <time>2026-05-09T11:45:59Z</time>
      </trkpt>
      <trkpt lat="46.13335" lon="5.39502">
        <ele>323.4</ele>
        <time>2026-05-09T11:46:00Z</time>
      </trkpt>
      <trkpt lat="46.13333" lon="5.39505">
        <ele>323.4</ele>
        <time>2026-05-09T11:46:01Z</time>
      </trkpt>
      <trkpt lat="46.13332" lon="5.39508">
        <ele>323.8</ele>
        <time>2026-05-09T11:46:02Z</time>
      </trkpt>
      <trkpt lat="46.13331" lon="5.39511">
        <ele>323.8</ele>
        <time>2026-05-09T11:46:03Z</time>
      </trkpt>
      <trkpt lat="46.1333" lon="5.39514">
        <ele>323.8</ele>
        <time>2026-05-09T11:46:04Z</time>
      </trkpt>
      <trkpt lat="46.13329" lon="5.39517">
        <ele>323.8</ele>
        <time>2026-05-09T11:46:05Z</time>
      </trkpt>
      <trkpt lat="46.13328" lon="5.3952">
        <ele>324.2</ele>
        <time>2026-05-09T11:46:06Z</time>
      </trkpt>
      <trkpt lat="46.13327" lon="5.39523">
        <ele>324.2</ele>
        <time>2026-05-09T11:46:07Z</time>
      </trkpt>
      <trkpt lat="46.13327" lon="5.39527">
        <ele>324.2</ele>
        <time>2026-05-09T11:46:08Z</time>
      </trkpt>
      <trkpt lat="46.13326" lon="5.3953">
        <ele>324.4</ele>
        <time>2026-05-09T11:46:09Z</time>
      </trkpt>
      <trkpt lat="46.13325" lon="5.39534">
        <ele>324.4</ele>
        <time>2026-05-09T11:46:10Z</time>
      </trkpt>
      <trkpt lat="46.13324" lon="5.39537">
        <ele>324.4</ele>
        <time>2026-05-09T11:46:11Z</time>
      </trkpt>
      <trkpt lat="46.13324" lon="5.39541">
        <ele>324.4</ele>
        <time>2026-05-09T11:46:12Z</time>
      </trkpt>
      <trkpt lat="46.13324" lon="5.39544">
        <ele>324.4</ele>
        <time>2026-05-09T11:46:13Z</time>
      </trkpt>
      <trkpt lat="46.13323" lon="5.39548">
        <ele>324.4</ele>
        <time>2026-05-09T11:46:14Z</time>
      </trkpt>
      <trkpt lat="46.13323" lon="5.39551">
        <ele>324.4</ele>
        <time>2026-05-09T11:46:15Z</time>
      </trkpt>
      <trkpt lat="46.13323" lon="5.39555">
        <ele>324.4</ele>
        <time>2026-05-09T11:46:16Z</time>
      </trkpt>
      <trkpt lat="46.13323" lon="5.39558">
        <ele>324.4</ele>
        <time>2026-05-09T11:46:17Z</time>
      </trkpt>
      <trkpt lat="46.13323" lon="5.39561">
        <ele>324.6</ele>
        <time>2026-05-09T11:46:18Z</time>
      </trkpt>
      <trkpt lat="46.13323" lon="5.39564">
        <ele>324.6</ele>
        <time>2026-05-09T11:46:19Z</time>
      </trkpt>
      <trkpt lat="46.13323" lon="5.3957">
        <ele>325</ele>
        <time>2026-05-09T11:46:20Z</time>
      </trkpt>
      <trkpt lat="46.13324" lon="5.39572">
        <ele>325</ele>
        <time>2026-05-09T11:46:21Z</time>
      </trkpt>
      <trkpt lat="46.13324" lon="5.39575">
        <ele>325</ele>
        <time>2026-05-09T11:46:22Z</time>
      </trkpt>
      <trkpt lat="46.13324" lon="5.39577">
        <ele>325.2</ele>
        <time>2026-05-09T11:46:23Z</time>
      </trkpt>
      <trkpt lat="46.13325" lon="5.3958">
        <ele>325.4</ele>
        <time>2026-05-09T11:46:24Z</time>
      </trkpt>
      <trkpt lat="46.13325" lon="5.39582">
        <ele>325.4</ele>
        <time>2026-05-09T11:46:25Z</time>
      </trkpt>
      <trkpt lat="46.13325" lon="5.39585">
        <ele>325.4</ele>
        <time>2026-05-09T11:46:26Z</time>
      </trkpt>
      <trkpt lat="46.13325" lon="5.39587">
        <ele>325.8</ele>
        <time>2026-05-09T11:46:27Z</time>
      </trkpt>
      <trkpt lat="46.13325" lon="5.3959">
        <ele>325.8</ele>
        <time>2026-05-09T11:46:28Z</time>
      </trkpt>
      <trkpt lat="46.13325" lon="5.39592">
        <ele>326</ele>
        <time>2026-05-09T11:46:29Z</time>
      </trkpt>
      <trkpt lat="46.13325" lon="5.39594">
        <ele>326.6</ele>
        <time>2026-05-09T11:46:30Z</time>
      </trkpt>
      <trkpt lat="46.13326" lon="5.39596">
        <ele>326.6</ele>
        <time>2026-05-09T11:46:31Z</time>
      </trkpt>
      <trkpt lat="46.13326" lon="5.39599">
        <ele>327</ele>
        <time>2026-05-09T11:46:32Z</time>
      </trkpt>
      <trkpt lat="46.13326" lon="5.39601">
        <ele>327.2</ele>
        <time>2026-05-09T11:46:33Z</time>
      </trkpt>
      <trkpt lat="46.13326" lon="5.39604">
        <ele>327.4</ele>
        <time>2026-05-09T11:46:34Z</time>
      </trkpt>
      <trkpt lat="46.13326" lon="5.39606">
        <ele>327.4</ele>
        <time>2026-05-09T11:46:35Z</time>
      </trkpt>
      <trkpt lat="46.13326" lon="5.39608">
        <ele>327.8</ele>
        <time>2026-05-09T11:46:36Z</time>
      </trkpt>
      <trkpt lat="46.13326" lon="5.39611">
        <ele>328.2</ele>
        <time>2026-05-09T11:46:37Z</time>
      </trkpt>
      <trkpt lat="46.13327" lon="5.39613">
        <ele>328.4</ele>
        <time>2026-05-09T11:46:38Z</time>
      </trkpt>
      <trkpt lat="46.13327" lon="5.39615">
        <ele>328.4</ele>
        <time>2026-05-09T11:46:39Z</time>
      </trkpt>
      <trkpt lat="46.13327" lon="5.39618">
        <ele>328.8</ele>
        <time>2026-05-09T11:46:40Z</time>
      </trkpt>
      <trkpt lat="46.13328" lon="5.3962">
        <ele>328.8</ele>
        <time>2026-05-09T11:46:41Z</time>
      </trkpt>
      <trkpt lat="46.13328" lon="5.39622">
        <ele>329</ele>
        <time>2026-05-09T11:46:42Z</time>
      </trkpt>
      <trkpt lat="46.13328" lon="5.39624">
        <ele>329</ele>
        <time>2026-05-09T11:46:43Z</time>
      </trkpt>
      <trkpt lat="46.13328" lon="5.39626">
        <ele>329.4</ele>
        <time>2026-05-09T11:46:44Z</time>
      </trkpt>
      <trkpt lat="46.13328" lon="5.39628">
        <ele>329.4</ele>
        <time>2026-05-09T11:46:45Z</time>
      </trkpt>
      <trkpt lat="46.13328" lon="5.39631">
        <ele>329.6</ele>
        <time>2026-05-09T11:46:46Z</time>
      </trkpt>
      <trkpt lat="46.13328" lon="5.39633">
        <ele>329.8</ele>
        <time>2026-05-09T11:46:47Z</time>
      </trkpt>
      <trkpt lat="46.13328" lon="5.39635">
        <ele>330</ele>
        <time>2026-05-09T11:46:48Z</time>
      </trkpt>
      <trkpt lat="46.13328" lon="5.39637">
        <ele>330</ele>
        <time>2026-05-09T11:46:49Z</time>
      </trkpt>
      <trkpt lat="46.13328" lon="5.39639">
        <ele>330.4</ele>
        <time>2026-05-09T11:46:50Z</time>
      </trkpt>
      <trkpt lat="46.13328" lon="5.39641">
        <ele>330.4</ele>
        <time>2026-05-09T11:46:51Z</time>
      </trkpt>
      <trkpt lat="46.13328" lon="5.39644">
        <ele>330.4</ele>
        <time>2026-05-09T11:46:52Z</time>
      </trkpt>
      <trkpt lat="46.13328" lon="5.39646">
        <ele>330.8</ele>
        <time>2026-05-09T11:46:53Z</time>
      </trkpt>
      <trkpt lat="46.13327" lon="5.39648">
        <ele>330.8</ele>
        <time>2026-05-09T11:46:54Z</time>
      </trkpt>
      <trkpt lat="46.13327" lon="5.39651">
        <ele>331</ele>
        <time>2026-05-09T11:46:55Z</time>
      </trkpt>
      <trkpt lat="46.13326" lon="5.39653">
        <ele>331.4</ele>
        <time>2026-05-09T11:46:56Z</time>
      </trkpt>
      <trkpt lat="46.13326" lon="5.39656">
        <ele>331.4</ele>
        <time>2026-05-09T11:46:57Z</time>
      </trkpt>
      <trkpt lat="46.13325" lon="5.39658">
        <ele>331.8</ele>
        <time>2026-05-09T11:46:58Z</time>
      </trkpt>
      <trkpt lat="46.13324" lon="5.3966">
        <ele>332.2</ele>
        <time>2026-05-09T11:46:59Z</time>
      </trkpt>
      <trkpt lat="46.13324" lon="5.39662">
        <ele>332.4</ele>
        <time>2026-05-09T11:47:00Z</time>
      </trkpt>
      <trkpt lat="46.13323" lon="5.39664">
        <ele>332.4</ele>
        <time>2026-05-09T11:47:01Z</time>
      </trkpt>
      <trkpt lat="46.13322" lon="5.39667">
        <ele>332.6</ele>
        <time>2026-05-09T11:47:02Z</time>
      </trkpt>
      <trkpt lat="46.13321" lon="5.39669">
        <ele>332.6</ele>
        <time>2026-05-09T11:47:03Z</time>
      </trkpt>
      <trkpt lat="46.1332" lon="5.39671">
        <ele>332.8</ele>
        <time>2026-05-09T11:47:04Z</time>
      </trkpt>
      <trkpt lat="46.13319" lon="5.39672">
        <ele>332.8</ele>
        <time>2026-05-09T11:47:05Z</time>
      </trkpt>
      <trkpt lat="46.13318" lon="5.39674">
        <ele>333.2</ele>
        <time>2026-05-09T11:47:06Z</time>
      </trkpt>
      <trkpt lat="46.13316" lon="5.39676">
        <ele>333.4</ele>
        <time>2026-05-09T11:47:07Z</time>
      </trkpt>
      <trkpt lat="46.13315" lon="5.39677">
        <ele>333.4</ele>
        <time>2026-05-09T11:47:08Z</time>
      </trkpt>
      <trkpt lat="46.13313" lon="5.39678">
        <ele>333.6</ele>
        <time>2026-05-09T11:47:09Z</time>
      </trkpt>
      <trkpt lat="46.13312" lon="5.3968">
        <ele>333.6</ele>
        <time>2026-05-09T11:47:10Z</time>
      </trkpt>
      <trkpt lat="46.1331" lon="5.39681">
        <ele>334</ele>
        <time>2026-05-09T11:47:11Z</time>
      </trkpt>
      <trkpt lat="46.13309" lon="5.39681">
        <ele>334</ele>
        <time>2026-05-09T11:47:12Z</time>
      </trkpt>
      <trkpt lat="46.13308" lon="5.39682">
        <ele>334</ele>
        <time>2026-05-09T11:47:13Z</time>
      </trkpt>
      <trkpt lat="46.13306" lon="5.39683">
        <ele>334.4</ele>
        <time>2026-05-09T11:47:14Z</time>
      </trkpt>
      <trkpt lat="46.13304" lon="5.39684">
        <ele>334.4</ele>
        <time>2026-05-09T11:47:15Z</time>
      </trkpt>
      <trkpt lat="46.13303" lon="5.39684">
        <ele>334.6</ele>
        <time>2026-05-09T11:47:16Z</time>
      </trkpt>
      <trkpt lat="46.13301" lon="5.39685">
        <ele>334.6</ele>
        <time>2026-05-09T11:47:17Z</time>
      </trkpt>
      <trkpt lat="46.133" lon="5.39685">
        <ele>335.2</ele>
        <time>2026-05-09T11:47:18Z</time>
      </trkpt>
      <trkpt lat="46.13298" lon="5.39686">
        <ele>335.6</ele>
        <time>2026-05-09T11:47:19Z</time>
      </trkpt>
      <trkpt lat="46.13297" lon="5.39687">
        <ele>335.6</ele>
        <time>2026-05-09T11:47:20Z</time>
      </trkpt>
      <trkpt lat="46.13295" lon="5.39687">
        <ele>336</ele>
        <time>2026-05-09T11:47:21Z</time>
      </trkpt>
      <trkpt lat="46.13294" lon="5.39688">
        <ele>336.2</ele>
        <time>2026-05-09T11:47:22Z</time>
      </trkpt>
      <trkpt lat="46.13292" lon="5.39688">
        <ele>336.2</ele>
        <time>2026-05-09T11:47:23Z</time>
      </trkpt>
      <trkpt lat="46.1329" lon="5.39688">
        <ele>336.4</ele>
        <time>2026-05-09T11:47:24Z</time>
      </trkpt>
      <trkpt lat="46.13289" lon="5.39688">
        <ele>336.8</ele>
        <time>2026-05-09T11:47:25Z</time>
      </trkpt>
      <trkpt lat="46.13287" lon="5.39688">
        <ele>337</ele>
        <time>2026-05-09T11:47:26Z</time>
      </trkpt>
      <trkpt lat="46.13286" lon="5.39689">
        <ele>337.2</ele>
        <time>2026-05-09T11:47:27Z</time>
      </trkpt>
      <trkpt lat="46.13284" lon="5.39689">
        <ele>337.2</ele>
        <time>2026-05-09T11:47:28Z</time>
      </trkpt>
      <trkpt lat="46.13282" lon="5.3969">
        <ele>337.6</ele>
        <time>2026-05-09T11:47:29Z</time>
      </trkpt>
      <trkpt lat="46.13281" lon="5.3969">
        <ele>337.6</ele>
        <time>2026-05-09T11:47:30Z</time>
      </trkpt>
      <trkpt lat="46.13279" lon="5.3969">
        <ele>337.8</ele>
        <time>2026-05-09T11:47:31Z</time>
      </trkpt>
      <trkpt lat="46.13277" lon="5.3969">
        <ele>337.8</ele>
        <time>2026-05-09T11:47:32Z</time>
      </trkpt>
      <trkpt lat="46.13276" lon="5.3969">
        <ele>338.2</ele>
        <time>2026-05-09T11:47:33Z</time>
      </trkpt>
      <trkpt lat="46.13274" lon="5.3969">
        <ele>338.2</ele>
        <time>2026-05-09T11:47:34Z</time>
      </trkpt>
      <trkpt lat="46.13273" lon="5.3969">
        <ele>338.6</ele>
        <time>2026-05-09T11:47:35Z</time>
      </trkpt>
      <trkpt lat="46.13271" lon="5.39691">
        <ele>338.6</ele>
        <time>2026-05-09T11:47:36Z</time>
      </trkpt>
      <trkpt lat="46.1327" lon="5.39692">
        <ele>338.8</ele>
        <time>2026-05-09T11:47:37Z</time>
      </trkpt>
      <trkpt lat="46.13268" lon="5.39692">
        <ele>339</ele>
        <time>2026-05-09T11:47:38Z</time>
      </trkpt>
      <trkpt lat="46.13266" lon="5.39692">
        <ele>339</ele>
        <time>2026-05-09T11:47:39Z</time>
      </trkpt>
      <trkpt lat="46.13264" lon="5.39693">
        <ele>339.4</ele>
        <time>2026-05-09T11:47:40Z</time>
      </trkpt>
      <trkpt lat="46.13263" lon="5.39693">
        <ele>339.4</ele>
        <time>2026-05-09T11:47:41Z</time>
      </trkpt>
      <trkpt lat="46.13261" lon="5.39693">
        <ele>339.8</ele>
        <time>2026-05-09T11:47:42Z</time>
      </trkpt>
      <trkpt lat="46.1326" lon="5.39694">
        <ele>339.8</ele>
        <time>2026-05-09T11:47:43Z</time>
      </trkpt>
      <trkpt lat="46.13258" lon="5.39695">
        <ele>340</ele>
        <time>2026-05-09T11:47:44Z</time>
      </trkpt>
      <trkpt lat="46.13256" lon="5.39696">
        <ele>340</ele>
        <time>2026-05-09T11:47:45Z</time>
      </trkpt>
      <trkpt lat="46.13255" lon="5.39698">
        <ele>340.4</ele>
        <time>2026-05-09T11:47:46Z</time>
      </trkpt>
      <trkpt lat="46.13254" lon="5.39699">
        <ele>340.4</ele>
        <time>2026-05-09T11:47:47Z</time>
      </trkpt>
      <trkpt lat="46.13252" lon="5.397">
        <ele>340.4</ele>
        <time>2026-05-09T11:47:48Z</time>
      </trkpt>
      <trkpt lat="46.1325" lon="5.39702">
        <ele>340.6</ele>
        <time>2026-05-09T11:47:49Z</time>
      </trkpt>
      <trkpt lat="46.13249" lon="5.39703">
        <ele>340.6</ele>
        <time>2026-05-09T11:47:50Z</time>
      </trkpt>
      <trkpt lat="46.13248" lon="5.39704">
        <ele>340.8</ele>
        <time>2026-05-09T11:47:51Z</time>
      </trkpt>
      <trkpt lat="46.13246" lon="5.39706">
        <ele>340.8</ele>
        <time>2026-05-09T11:47:52Z</time>
      </trkpt>
      <trkpt lat="46.13245" lon="5.39708">
        <ele>341.2</ele>
        <time>2026-05-09T11:47:53Z</time>
      </trkpt>
      <trkpt lat="46.13243" lon="5.3971">
        <ele>341.2</ele>
        <time>2026-05-09T11:47:54Z</time>
      </trkpt>
      <trkpt lat="46.13242" lon="5.39712">
        <ele>341.4</ele>
        <time>2026-05-09T11:47:55Z</time>
      </trkpt>
      <trkpt lat="46.13241" lon="5.39713">
        <ele>341.6</ele>
        <time>2026-05-09T11:47:56Z</time>
      </trkpt>
      <trkpt lat="46.13241" lon="5.39713">
        <ele>342</ele>
        <time>2026-05-09T11:47:57Z</time>
      </trkpt>
      <trkpt lat="46.13239" lon="5.39715">
        <ele>342</ele>
        <time>2026-05-09T11:47:58Z</time>
      </trkpt>
      <trkpt lat="46.13238" lon="5.39717">
        <ele>342.4</ele>
        <time>2026-05-09T11:47:59Z</time>
      </trkpt>
      <trkpt lat="46.13236" lon="5.39719">
        <ele>342.6</ele>
        <time>2026-05-09T11:48:00Z</time>
      </trkpt>
      <trkpt lat="46.13235" lon="5.3972">
        <ele>342.6</ele>
        <time>2026-05-09T11:48:01Z</time>
      </trkpt>
      <trkpt lat="46.13233" lon="5.39722">
        <ele>342.6</ele>
        <time>2026-05-09T11:48:02Z</time>
      </trkpt>
      <trkpt lat="46.13232" lon="5.39725">
        <ele>342.6</ele>
        <time>2026-05-09T11:48:03Z</time>
      </trkpt>
      <trkpt lat="46.13231" lon="5.39726">
        <ele>342.8</ele>
        <time>2026-05-09T11:48:04Z</time>
      </trkpt>
      <trkpt lat="46.1323" lon="5.39728">
        <ele>342.8</ele>
        <time>2026-05-09T11:48:05Z</time>
      </trkpt>
      <trkpt lat="46.13228" lon="5.3973">
        <ele>343.2</ele>
        <time>2026-05-09T11:48:06Z</time>
      </trkpt>
      <trkpt lat="46.13228" lon="5.3973">
        <ele>343</ele>
        <time>2026-05-09T11:48:07Z</time>
      </trkpt>
      <trkpt lat="46.13228" lon="5.3973">
        <ele>343</ele>
        <time>2026-05-09T11:48:08Z</time>
      </trkpt>
      <trkpt lat="46.13223" lon="5.39737">
        <ele>343.2</ele>
        <time>2026-05-09T11:48:09Z</time>
      </trkpt>
      <trkpt lat="46.13221" lon="5.39739">
        <ele>343.2</ele>
        <time>2026-05-09T11:48:10Z</time>
      </trkpt>
      <trkpt lat="46.13219" lon="5.39741">
        <ele>343.2</ele>
        <time>2026-05-09T11:48:11Z</time>
      </trkpt>
      <trkpt lat="46.13217" lon="5.39742">
        <ele>343.2</ele>
        <time>2026-05-09T11:48:12Z</time>
      </trkpt>
      <trkpt lat="46.13215" lon="5.39744">
        <ele>343.2</ele>
        <time>2026-05-09T11:48:13Z</time>
      </trkpt>
      <trkpt lat="46.13214" lon="5.39746">
        <ele>343.2</ele>
        <time>2026-05-09T11:48:14Z</time>
      </trkpt>
      <trkpt lat="46.13212" lon="5.39747">
        <ele>343.4</ele>
        <time>2026-05-09T11:48:15Z</time>
      </trkpt>
      <trkpt lat="46.1321" lon="5.39749">
        <ele>343.4</ele>
        <time>2026-05-09T11:48:16Z</time>
      </trkpt>
      <trkpt lat="46.13207" lon="5.39751">
        <ele>343.4</ele>
        <time>2026-05-09T11:48:17Z</time>
      </trkpt>
      <trkpt lat="46.13205" lon="5.39752">
        <ele>343.4</ele>
        <time>2026-05-09T11:48:18Z</time>
      </trkpt>
      <trkpt lat="46.13202" lon="5.39754">
        <ele>343.4</ele>
        <time>2026-05-09T11:48:19Z</time>
      </trkpt>
      <trkpt lat="46.13199" lon="5.39755">
        <ele>343.4</ele>
        <time>2026-05-09T11:48:20Z</time>
      </trkpt>
      <trkpt lat="46.13196" lon="5.39756">
        <ele>343.4</ele>
        <time>2026-05-09T11:48:21Z</time>
      </trkpt>
      <trkpt lat="46.13193" lon="5.39758">
        <ele>343.4</ele>
        <time>2026-05-09T11:48:22Z</time>
      </trkpt>
      <trkpt lat="46.13189" lon="5.3976">
        <ele>343.4</ele>
        <time>2026-05-09T11:48:23Z</time>
      </trkpt>
      <trkpt lat="46.13186" lon="5.39761">
        <ele>343.4</ele>
        <time>2026-05-09T11:48:24Z</time>
      </trkpt>
      <trkpt lat="46.13182" lon="5.39763">
        <ele>343.4</ele>
        <time>2026-05-09T11:48:25Z</time>
      </trkpt>
      <trkpt lat="46.13177" lon="5.39764">
        <ele>343.2</ele>
        <time>2026-05-09T11:48:26Z</time>
      </trkpt>
      <trkpt lat="46.13172" lon="5.39765">
        <ele>342.8</ele>
        <time>2026-05-09T11:48:27Z</time>
      </trkpt>
      <trkpt lat="46.13168" lon="5.39767">
        <ele>342.8</ele>
        <time>2026-05-09T11:48:28Z</time>
      </trkpt>
      <trkpt lat="46.13164" lon="5.3977">
        <ele>342.2</ele>
        <time>2026-05-09T11:48:29Z</time>
      </trkpt>
      <trkpt lat="46.13164" lon="5.3977">
        <ele>341.2</ele>
        <time>2026-05-09T11:48:30Z</time>
      </trkpt>
      <trkpt lat="46.1316" lon="5.39772">
        <ele>341.2</ele>
        <time>2026-05-09T11:48:31Z</time>
      </trkpt>
      <trkpt lat="46.13156" lon="5.39775">
        <ele>342.6</ele>
        <time>2026-05-09T11:48:32Z</time>
      </trkpt>
      <trkpt lat="46.13151" lon="5.39778">
        <ele>342</ele>
        <time>2026-05-09T11:48:33Z</time>
      </trkpt>
      <trkpt lat="46.13147" lon="5.39781">
        <ele>341.6</ele>
        <time>2026-05-09T11:48:34Z</time>
      </trkpt>
      <trkpt lat="46.13145" lon="5.39785">
        <ele>342.2</ele>
        <time>2026-05-09T11:48:35Z</time>
      </trkpt>
      <trkpt lat="46.13141" lon="5.39789">
        <ele>342.2</ele>
        <time>2026-05-09T11:48:36Z</time>
      </trkpt>
      <trkpt lat="46.13138" lon="5.39792">
        <ele>342.2</ele>
        <time>2026-05-09T11:48:37Z</time>
      </trkpt>
      <trkpt lat="46.13135" lon="5.39795">
        <ele>342.2</ele>
        <time>2026-05-09T11:48:38Z</time>
      </trkpt>
      <trkpt lat="46.13132" lon="5.39796">
        <ele>342.4</ele>
        <time>2026-05-09T11:48:39Z</time>
      </trkpt>
      <trkpt lat="46.13129" lon="5.39798">
        <ele>342.4</ele>
        <time>2026-05-09T11:48:40Z</time>
      </trkpt>
      <trkpt lat="46.13127" lon="5.39799">
        <ele>342.4</ele>
        <time>2026-05-09T11:48:41Z</time>
      </trkpt>
      <trkpt lat="46.13125" lon="5.39799">
        <ele>342.8</ele>
        <time>2026-05-09T11:48:42Z</time>
      </trkpt>
      <trkpt lat="46.13122" lon="5.39801">
        <ele>342.8</ele>
        <time>2026-05-09T11:48:43Z</time>
      </trkpt>
      <trkpt lat="46.13119" lon="5.39802">
        <ele>343</ele>
        <time>2026-05-09T11:48:44Z</time>
      </trkpt>
      <trkpt lat="46.13117" lon="5.39803">
        <ele>343</ele>
        <time>2026-05-09T11:48:45Z</time>
      </trkpt>
      <trkpt lat="46.13114" lon="5.39804">
        <ele>343.2</ele>
        <time>2026-05-09T11:48:46Z</time>
      </trkpt>
      <trkpt lat="46.13112" lon="5.39804">
        <ele>343.2</ele>
        <time>2026-05-09T11:48:47Z</time>
      </trkpt>
      <trkpt lat="46.13109" lon="5.39804">
        <ele>343.6</ele>
        <time>2026-05-09T11:48:48Z</time>
      </trkpt>
      <trkpt lat="46.13107" lon="5.39804">
        <ele>343.6</ele>
        <time>2026-05-09T11:48:49Z</time>
      </trkpt>
      <trkpt lat="46.13105" lon="5.39805">
        <ele>343.6</ele>
        <time>2026-05-09T11:48:50Z</time>
      </trkpt>
      <trkpt lat="46.13103" lon="5.39805">
        <ele>344</ele>
        <time>2026-05-09T11:48:51Z</time>
      </trkpt>
      <trkpt lat="46.13101" lon="5.39806">
        <ele>344</ele>
        <time>2026-05-09T11:48:52Z</time>
      </trkpt>
      <trkpt lat="46.131" lon="5.39807">
        <ele>344</ele>
        <time>2026-05-09T11:48:53Z</time>
      </trkpt>
      <trkpt lat="46.13099" lon="5.39809">
        <ele>344</ele>
        <time>2026-05-09T11:48:54Z</time>
      </trkpt>
      <trkpt lat="46.13097" lon="5.3981">
        <ele>344.4</ele>
        <time>2026-05-09T11:48:55Z</time>
      </trkpt>
      <trkpt lat="46.13096" lon="5.39811">
        <ele>344.4</ele>
        <time>2026-05-09T11:48:56Z</time>
      </trkpt>
      <trkpt lat="46.13095" lon="5.39812">
        <ele>344.4</ele>
        <time>2026-05-09T11:48:57Z</time>
      </trkpt>
      <trkpt lat="46.13094" lon="5.39814">
        <ele>344.2</ele>
        <time>2026-05-09T11:48:58Z</time>
      </trkpt>
      <trkpt lat="46.13093" lon="5.39815">
        <ele>344.2</ele>
        <time>2026-05-09T11:48:59Z</time>
      </trkpt>
      <trkpt lat="46.13091" lon="5.39817">
        <ele>344.2</ele>
        <time>2026-05-09T11:49:00Z</time>
      </trkpt>
      <trkpt lat="46.13091" lon="5.39817">
        <ele>344.2</ele>
        <time>2026-05-09T11:49:01Z</time>
      </trkpt>
      <trkpt lat="46.13088" lon="5.39821">
        <ele>344.2</ele>
        <time>2026-05-09T11:49:02Z</time>
      </trkpt>
      <trkpt lat="46.13086" lon="5.39823">
        <ele>344.2</ele>
        <time>2026-05-09T11:49:03Z</time>
      </trkpt>
      <trkpt lat="46.13084" lon="5.39825">
        <ele>344.2</ele>
        <time>2026-05-09T11:49:04Z</time>
      </trkpt>
      <trkpt lat="46.13082" lon="5.39827">
        <ele>344.2</ele>
        <time>2026-05-09T11:49:05Z</time>
      </trkpt>
      <trkpt lat="46.1308" lon="5.3983">
        <ele>344</ele>
        <time>2026-05-09T11:49:06Z</time>
      </trkpt>
      <trkpt lat="46.13078" lon="5.39832">
        <ele>344</ele>
        <time>2026-05-09T11:49:07Z</time>
      </trkpt>
      <trkpt lat="46.13077" lon="5.39835">
        <ele>344</ele>
        <time>2026-05-09T11:49:08Z</time>
      </trkpt>
      <trkpt lat="46.13075" lon="5.39837">
        <ele>344</ele>
        <time>2026-05-09T11:49:09Z</time>
      </trkpt>
      <trkpt lat="46.13073" lon="5.39839">
        <ele>344</ele>
        <time>2026-05-09T11:49:10Z</time>
      </trkpt>
      <trkpt lat="46.13071" lon="5.39842">
        <ele>344</ele>
        <time>2026-05-09T11:49:11Z</time>
      </trkpt>
      <trkpt lat="46.13069" lon="5.39845">
        <ele>344</ele>
        <time>2026-05-09T11:49:12Z</time>
      </trkpt>
      <trkpt lat="46.13067" lon="5.39848">
        <ele>343.6</ele>
        <time>2026-05-09T11:49:13Z</time>
      </trkpt>
      <trkpt lat="46.13064" lon="5.39852">
        <ele>343.6</ele>
        <time>2026-05-09T11:49:14Z</time>
      </trkpt>
      <trkpt lat="46.13061" lon="5.39854">
        <ele>343.6</ele>
        <time>2026-05-09T11:49:15Z</time>
      </trkpt>
      <trkpt lat="46.13058" lon="5.39857">
        <ele>343.4</ele>
        <time>2026-05-09T11:49:16Z</time>
      </trkpt>
      <trkpt lat="46.13054" lon="5.39861">
        <ele>343.4</ele>
        <time>2026-05-09T11:49:17Z</time>
      </trkpt>
      <trkpt lat="46.1305" lon="5.39863">
        <ele>343.2</ele>
        <time>2026-05-09T11:49:18Z</time>
      </trkpt>
      <trkpt lat="46.13046" lon="5.39866">
        <ele>343</ele>
        <time>2026-05-09T11:49:19Z</time>
      </trkpt>
      <trkpt lat="46.13042" lon="5.39868">
        <ele>342.6</ele>
        <time>2026-05-09T11:49:20Z</time>
      </trkpt>
      <trkpt lat="46.13037" lon="5.39871">
        <ele>342.4</ele>
        <time>2026-05-09T11:49:21Z</time>
      </trkpt>
      <trkpt lat="46.13032" lon="5.39873">
        <ele>342</ele>
        <time>2026-05-09T11:49:22Z</time>
      </trkpt>
      <trkpt lat="46.13028" lon="5.39876">
        <ele>341.8</ele>
        <time>2026-05-09T11:49:23Z</time>
      </trkpt>
      <trkpt lat="46.13023" lon="5.39877">
        <ele>341.6</ele>
        <time>2026-05-09T11:49:24Z</time>
      </trkpt>
      <trkpt lat="46.13018" lon="5.39878">
        <ele>341.2</ele>
        <time>2026-05-09T11:49:25Z</time>
      </trkpt>
      <trkpt lat="46.13012" lon="5.39878">
        <ele>341</ele>
        <time>2026-05-09T11:49:26Z</time>
      </trkpt>
      <trkpt lat="46.13006" lon="5.39877">
        <ele>340.6</ele>
        <time>2026-05-09T11:49:27Z</time>
      </trkpt>
      <trkpt lat="46.13" lon="5.39875">
        <ele>340.2</ele>
        <time>2026-05-09T11:49:28Z</time>
      </trkpt>
      <trkpt lat="46.12993" lon="5.39874">
        <ele>339.6</ele>
        <time>2026-05-09T11:49:29Z</time>
      </trkpt>
      <trkpt lat="46.12987" lon="5.39871">
        <ele>339</ele>
        <time>2026-05-09T11:49:30Z</time>
      </trkpt>
      <trkpt lat="46.1298" lon="5.39869">
        <ele>338.6</ele>
        <time>2026-05-09T11:49:31Z</time>
      </trkpt>
      <trkpt lat="46.12974" lon="5.39867">
        <ele>338.4</ele>
        <time>2026-05-09T11:49:32Z</time>
      </trkpt>
      <trkpt lat="46.12967" lon="5.39865">
        <ele>338.4</ele>
        <time>2026-05-09T11:49:33Z</time>
      </trkpt>
      <trkpt lat="46.12961" lon="5.39863">
        <ele>338.4</ele>
        <time>2026-05-09T11:49:34Z</time>
      </trkpt>
      <trkpt lat="46.12955" lon="5.3986">
        <ele>338</ele>
        <time>2026-05-09T11:49:35Z</time>
      </trkpt>
      <trkpt lat="46.12948" lon="5.39859">
        <ele>337.8</ele>
        <time>2026-05-09T11:49:36Z</time>
      </trkpt>
      <trkpt lat="46.12941" lon="5.39856">
        <ele>337.8</ele>
        <time>2026-05-09T11:49:37Z</time>
      </trkpt>
      <trkpt lat="46.12934" lon="5.39854">
        <ele>337.4</ele>
        <time>2026-05-09T11:49:38Z</time>
      </trkpt>
      <trkpt lat="46.12928" lon="5.39852">
        <ele>337.4</ele>
        <time>2026-05-09T11:49:39Z</time>
      </trkpt>
      <trkpt lat="46.12921" lon="5.3985">
        <ele>337.4</ele>
        <time>2026-05-09T11:49:40Z</time>
      </trkpt>
      <trkpt lat="46.12914" lon="5.39849">
        <ele>337.2</ele>
        <time>2026-05-09T11:49:41Z</time>
      </trkpt>
      <trkpt lat="46.12908" lon="5.39847">
        <ele>337.2</ele>
        <time>2026-05-09T11:49:42Z</time>
      </trkpt>
      <trkpt lat="46.12901" lon="5.39845">
        <ele>337.2</ele>
        <time>2026-05-09T11:49:43Z</time>
      </trkpt>
      <trkpt lat="46.12894" lon="5.39843">
        <ele>337.2</ele>
        <time>2026-05-09T11:49:44Z</time>
      </trkpt>
      <trkpt lat="46.12887" lon="5.39841">
        <ele>336.8</ele>
        <time>2026-05-09T11:49:45Z</time>
      </trkpt>
      <trkpt lat="46.1288" lon="5.3984">
        <ele>336.6</ele>
        <time>2026-05-09T11:49:46Z</time>
      </trkpt>
      <trkpt lat="46.12873" lon="5.39839">
        <ele>336.2</ele>
        <time>2026-05-09T11:49:47Z</time>
      </trkpt>
      <trkpt lat="46.12866" lon="5.3984">
        <ele>336</ele>
        <time>2026-05-09T11:49:48Z</time>
      </trkpt>
      <trkpt lat="46.12859" lon="5.3984">
        <ele>335.6</ele>
        <time>2026-05-09T11:49:49Z</time>
      </trkpt>
      <trkpt lat="46.12851" lon="5.39841">
        <ele>335.2</ele>
        <time>2026-05-09T11:49:50Z</time>
      </trkpt>
      <trkpt lat="46.12844" lon="5.39841">
        <ele>335</ele>
        <time>2026-05-09T11:49:51Z</time>
      </trkpt>
      <trkpt lat="46.12837" lon="5.39842">
        <ele>335</ele>
        <time>2026-05-09T11:49:52Z</time>
      </trkpt>
      <trkpt lat="46.1283" lon="5.39843">
        <ele>334.8</ele>
        <time>2026-05-09T11:49:53Z</time>
      </trkpt>
      <trkpt lat="46.12824" lon="5.39844">
        <ele>334.8</ele>
        <time>2026-05-09T11:49:54Z</time>
      </trkpt>
      <trkpt lat="46.12818" lon="5.39847">
        <ele>334.8</ele>
        <time>2026-05-09T11:49:55Z</time>
      </trkpt>
      <trkpt lat="46.12812" lon="5.3985">
        <ele>334.6</ele>
        <time>2026-05-09T11:49:56Z</time>
      </trkpt>
      <trkpt lat="46.12806" lon="5.39853">
        <ele>334.6</ele>
        <time>2026-05-09T11:49:57Z</time>
      </trkpt>
      <trkpt lat="46.12799" lon="5.39856">
        <ele>334.6</ele>
        <time>2026-05-09T11:49:58Z</time>
      </trkpt>
      <trkpt lat="46.12793" lon="5.3986">
        <ele>334.6</ele>
        <time>2026-05-09T11:49:59Z</time>
      </trkpt>
      <trkpt lat="46.12787" lon="5.39864">
        <ele>334.6</ele>
        <time>2026-05-09T11:50:00Z</time>
      </trkpt>
      <trkpt lat="46.12781" lon="5.39869">
        <ele>334.6</ele>
        <time>2026-05-09T11:50:01Z</time>
      </trkpt>
      <trkpt lat="46.12775" lon="5.39873">
        <ele>334.6</ele>
        <time>2026-05-09T11:50:02Z</time>
      </trkpt>
      <trkpt lat="46.1277" lon="5.39876">
        <ele>334.6</ele>
        <time>2026-05-09T11:50:03Z</time>
      </trkpt>
      <trkpt lat="46.12764" lon="5.39879">
        <ele>334.4</ele>
        <time>2026-05-09T11:50:04Z</time>
      </trkpt>
      <trkpt lat="46.1276" lon="5.39883">
        <ele>334.4</ele>
        <time>2026-05-09T11:50:05Z</time>
      </trkpt>
      <trkpt lat="46.12755" lon="5.39886">
        <ele>334.4</ele>
        <time>2026-05-09T11:50:06Z</time>
      </trkpt>
      <trkpt lat="46.1275" lon="5.3989">
        <ele>334.8</ele>
        <time>2026-05-09T11:50:07Z</time>
      </trkpt>
      <trkpt lat="46.12745" lon="5.39893">
        <ele>334.8</ele>
        <time>2026-05-09T11:50:08Z</time>
      </trkpt>
      <trkpt lat="46.12741" lon="5.39896">
        <ele>334.4</ele>
        <time>2026-05-09T11:50:09Z</time>
      </trkpt>
      <trkpt lat="46.12733" lon="5.39902">
        <ele>334.4</ele>
        <time>2026-05-09T11:50:10Z</time>
      </trkpt>
      <trkpt lat="46.12729" lon="5.39906">
        <ele>334.4</ele>
        <time>2026-05-09T11:50:11Z</time>
      </trkpt>
      <trkpt lat="46.12725" lon="5.39908">
        <ele>334.8</ele>
        <time>2026-05-09T11:50:12Z</time>
      </trkpt>
      <trkpt lat="46.1272" lon="5.39912">
        <ele>334.8</ele>
        <time>2026-05-09T11:50:13Z</time>
      </trkpt>
      <trkpt lat="46.12716" lon="5.39915">
        <ele>334.8</ele>
        <time>2026-05-09T11:50:14Z</time>
      </trkpt>
      <trkpt lat="46.12712" lon="5.39918">
        <ele>334.8</ele>
        <time>2026-05-09T11:50:15Z</time>
      </trkpt>
      <trkpt lat="46.12708" lon="5.39921">
        <ele>334.8</ele>
        <time>2026-05-09T11:50:16Z</time>
      </trkpt>
      <trkpt lat="46.12704" lon="5.39923">
        <ele>335</ele>
        <time>2026-05-09T11:50:17Z</time>
      </trkpt>
      <trkpt lat="46.127" lon="5.39925">
        <ele>335</ele>
        <time>2026-05-09T11:50:18Z</time>
      </trkpt>
      <trkpt lat="46.12696" lon="5.39928">
        <ele>335</ele>
        <time>2026-05-09T11:50:19Z</time>
      </trkpt>
      <trkpt lat="46.12693" lon="5.39931">
        <ele>335.4</ele>
        <time>2026-05-09T11:50:20Z</time>
      </trkpt>
      <trkpt lat="46.1269" lon="5.39933">
        <ele>335.4</ele>
        <time>2026-05-09T11:50:21Z</time>
      </trkpt>
      <trkpt lat="46.12686" lon="5.39934">
        <ele>335.6</ele>
        <time>2026-05-09T11:50:22Z</time>
      </trkpt>
      <trkpt lat="46.12683" lon="5.39936">
        <ele>335.6</ele>
        <time>2026-05-09T11:50:23Z</time>
      </trkpt>
      <trkpt lat="46.1268" lon="5.39938">
        <ele>335.6</ele>
        <time>2026-05-09T11:50:24Z</time>
      </trkpt>
      <trkpt lat="46.12676" lon="5.39938">
        <ele>335.8</ele>
        <time>2026-05-09T11:50:25Z</time>
      </trkpt>
      <trkpt lat="46.12673" lon="5.39939">
        <ele>335.8</ele>
        <time>2026-05-09T11:50:26Z</time>
      </trkpt>
      <trkpt lat="46.1267" lon="5.3994">
        <ele>335.8</ele>
        <time>2026-05-09T11:50:27Z</time>
      </trkpt>
      <trkpt lat="46.12666" lon="5.3994">
        <ele>336.2</ele>
        <time>2026-05-09T11:50:28Z</time>
      </trkpt>
      <trkpt lat="46.12662" lon="5.3994">
        <ele>336.2</ele>
        <time>2026-05-09T11:50:29Z</time>
      </trkpt>
      <trkpt lat="46.12658" lon="5.3994">
        <ele>336.2</ele>
        <time>2026-05-09T11:50:30Z</time>
      </trkpt>
      <trkpt lat="46.12653" lon="5.3994">
        <ele>336.2</ele>
        <time>2026-05-09T11:50:31Z</time>
      </trkpt>
      <trkpt lat="46.12649" lon="5.3994">
        <ele>336.2</ele>
        <time>2026-05-09T11:50:32Z</time>
      </trkpt>
      <trkpt lat="46.12644" lon="5.3994">
        <ele>336.2</ele>
        <time>2026-05-09T11:50:33Z</time>
      </trkpt>
      <trkpt lat="46.12639" lon="5.39939">
        <ele>336.2</ele>
        <time>2026-05-09T11:50:34Z</time>
      </trkpt>
      <trkpt lat="46.12635" lon="5.39938">
        <ele>336.2</ele>
        <time>2026-05-09T11:50:35Z</time>
      </trkpt>
      <trkpt lat="46.1263" lon="5.39939">
        <ele>336.2</ele>
        <time>2026-05-09T11:50:36Z</time>
      </trkpt>
      <trkpt lat="46.12625" lon="5.39938">
        <ele>336.2</ele>
        <time>2026-05-09T11:50:37Z</time>
      </trkpt>
      <trkpt lat="46.12621" lon="5.39937">
        <ele>336.2</ele>
        <time>2026-05-09T11:50:38Z</time>
      </trkpt>
      <trkpt lat="46.12616" lon="5.39937">
        <ele>336.2</ele>
        <time>2026-05-09T11:50:39Z</time>
      </trkpt>
      <trkpt lat="46.12611" lon="5.39935">
        <ele>336.2</ele>
        <time>2026-05-09T11:50:40Z</time>
      </trkpt>
      <trkpt lat="46.12607" lon="5.39935">
        <ele>336.2</ele>
        <time>2026-05-09T11:50:41Z</time>
      </trkpt>
      <trkpt lat="46.12603" lon="5.39934">
        <ele>336.2</ele>
        <time>2026-05-09T11:50:42Z</time>
      </trkpt>
      <trkpt lat="46.12598" lon="5.39933">
        <ele>336.2</ele>
        <time>2026-05-09T11:50:43Z</time>
      </trkpt>
      <trkpt lat="46.12594" lon="5.39932">
        <ele>335.8</ele>
        <time>2026-05-09T11:50:44Z</time>
      </trkpt>
      <trkpt lat="46.1259" lon="5.39931">
        <ele>335.8</ele>
        <time>2026-05-09T11:50:45Z</time>
      </trkpt>
      <trkpt lat="46.12586" lon="5.39931">
        <ele>335.8</ele>
        <time>2026-05-09T11:50:46Z</time>
      </trkpt>
      <trkpt lat="46.12582" lon="5.3993">
        <ele>335.8</ele>
        <time>2026-05-09T11:50:47Z</time>
      </trkpt>
      <trkpt lat="46.12578" lon="5.39929">
        <ele>335.8</ele>
        <time>2026-05-09T11:50:48Z</time>
      </trkpt>
      <trkpt lat="46.12574" lon="5.39928">
        <ele>335.8</ele>
        <time>2026-05-09T11:50:49Z</time>
      </trkpt>
      <trkpt lat="46.1257" lon="5.39928">
        <ele>336.2</ele>
        <time>2026-05-09T11:50:50Z</time>
      </trkpt>
      <trkpt lat="46.12566" lon="5.39927">
        <ele>336.2</ele>
        <time>2026-05-09T11:50:51Z</time>
      </trkpt>
      <trkpt lat="46.12562" lon="5.39926">
        <ele>336.6</ele>
        <time>2026-05-09T11:50:52Z</time>
      </trkpt>
      <trkpt lat="46.12558" lon="5.39925">
        <ele>336.6</ele>
        <time>2026-05-09T11:50:53Z</time>
      </trkpt>
      <trkpt lat="46.12555" lon="5.39924">
        <ele>336.6</ele>
        <time>2026-05-09T11:50:54Z</time>
      </trkpt>
      <trkpt lat="46.12551" lon="5.39923">
        <ele>336.6</ele>
        <time>2026-05-09T11:50:55Z</time>
      </trkpt>
      <trkpt lat="46.12547" lon="5.39921">
        <ele>336.6</ele>
        <time>2026-05-09T11:50:56Z</time>
      </trkpt>
      <trkpt lat="46.12543" lon="5.3992">
        <ele>336.6</ele>
        <time>2026-05-09T11:50:57Z</time>
      </trkpt>
      <trkpt lat="46.12539" lon="5.39919">
        <ele>336.6</ele>
        <time>2026-05-09T11:50:58Z</time>
      </trkpt>
      <trkpt lat="46.12536" lon="5.39918">
        <ele>336.8</ele>
        <time>2026-05-09T11:50:59Z</time>
      </trkpt>
      <trkpt lat="46.12533" lon="5.39917">
        <ele>336.8</ele>
        <time>2026-05-09T11:51:00Z</time>
      </trkpt>
      <trkpt lat="46.1253" lon="5.39915">
        <ele>336.8</ele>
        <time>2026-05-09T11:51:01Z</time>
      </trkpt>
      <trkpt lat="46.12527" lon="5.39914">
        <ele>337.2</ele>
        <time>2026-05-09T11:51:02Z</time>
      </trkpt>
      <trkpt lat="46.12524" lon="5.39913">
        <ele>337.2</ele>
        <time>2026-05-09T11:51:03Z</time>
      </trkpt>
      <trkpt lat="46.12521" lon="5.39912">
        <ele>337.2</ele>
        <time>2026-05-09T11:51:04Z</time>
      </trkpt>
      <trkpt lat="46.12518" lon="5.39911">
        <ele>337.2</ele>
        <time>2026-05-09T11:51:05Z</time>
      </trkpt>
      <trkpt lat="46.12516" lon="5.3991">
        <ele>337.4</ele>
        <time>2026-05-09T11:51:06Z</time>
      </trkpt>
      <trkpt lat="46.12512" lon="5.39908">
        <ele>337.6</ele>
        <time>2026-05-09T11:51:07Z</time>
      </trkpt>
      <trkpt lat="46.12509" lon="5.39907">
        <ele>338</ele>
        <time>2026-05-09T11:51:08Z</time>
      </trkpt>
      <trkpt lat="46.12506" lon="5.39906">
        <ele>338.2</ele>
        <time>2026-05-09T11:51:09Z</time>
      </trkpt>
      <trkpt lat="46.12503" lon="5.39905">
        <ele>338.2</ele>
        <time>2026-05-09T11:51:10Z</time>
      </trkpt>
      <trkpt lat="46.125" lon="5.39904">
        <ele>338.2</ele>
        <time>2026-05-09T11:51:11Z</time>
      </trkpt>
      <trkpt lat="46.12497" lon="5.39902">
        <ele>338.4</ele>
        <time>2026-05-09T11:51:12Z</time>
      </trkpt>
      <trkpt lat="46.12494" lon="5.399">
        <ele>338</ele>
        <time>2026-05-09T11:51:13Z</time>
      </trkpt>
      <trkpt lat="46.12491" lon="5.39899">
        <ele>338.2</ele>
        <time>2026-05-09T11:51:14Z</time>
      </trkpt>
      <trkpt lat="46.12487" lon="5.39897">
        <ele>338.2</ele>
        <time>2026-05-09T11:51:15Z</time>
      </trkpt>
      <trkpt lat="46.12484" lon="5.39896">
        <ele>338.4</ele>
        <time>2026-05-09T11:51:16Z</time>
      </trkpt>
      <trkpt lat="46.1248" lon="5.39894">
        <ele>338.4</ele>
        <time>2026-05-09T11:51:17Z</time>
      </trkpt>
      <trkpt lat="46.12477" lon="5.39893">
        <ele>338.8</ele>
        <time>2026-05-09T11:51:18Z</time>
      </trkpt>
      <trkpt lat="46.12473" lon="5.39892">
        <ele>338.8</ele>
        <time>2026-05-09T11:51:19Z</time>
      </trkpt>
      <trkpt lat="46.1247" lon="5.39892">
        <ele>338.8</ele>
        <time>2026-05-09T11:51:20Z</time>
      </trkpt>
      <trkpt lat="46.12466" lon="5.39892">
        <ele>339</ele>
        <time>2026-05-09T11:51:21Z</time>
      </trkpt>
      <trkpt lat="46.12463" lon="5.39891">
        <ele>339</ele>
        <time>2026-05-09T11:51:22Z</time>
      </trkpt>
      <trkpt lat="46.12459" lon="5.39891">
        <ele>339</ele>
        <time>2026-05-09T11:51:23Z</time>
      </trkpt>
      <trkpt lat="46.12456" lon="5.39891">
        <ele>339</ele>
        <time>2026-05-09T11:51:24Z</time>
      </trkpt>
      <trkpt lat="46.12453" lon="5.39891">
        <ele>339.2</ele>
        <time>2026-05-09T11:51:25Z</time>
      </trkpt>
      <trkpt lat="46.12449" lon="5.39891">
        <ele>339.2</ele>
        <time>2026-05-09T11:51:26Z</time>
      </trkpt>
      <trkpt lat="46.12446" lon="5.39891">
        <ele>339.2</ele>
        <time>2026-05-09T11:51:27Z</time>
      </trkpt>
      <trkpt lat="46.12443" lon="5.39891">
        <ele>339.6</ele>
        <time>2026-05-09T11:51:28Z</time>
      </trkpt>
      <trkpt lat="46.1244" lon="5.3989">
        <ele>339.6</ele>
        <time>2026-05-09T11:51:29Z</time>
      </trkpt>
      <trkpt lat="46.12437" lon="5.3989">
        <ele>340</ele>
        <time>2026-05-09T11:51:30Z</time>
      </trkpt>
      <trkpt lat="46.12434" lon="5.3989">
        <ele>340</ele>
        <time>2026-05-09T11:51:31Z</time>
      </trkpt>
      <trkpt lat="46.12431" lon="5.3989">
        <ele>340</ele>
        <time>2026-05-09T11:51:32Z</time>
      </trkpt>
      <trkpt lat="46.12428" lon="5.3989">
        <ele>340.2</ele>
        <time>2026-05-09T11:51:33Z</time>
      </trkpt>
      <trkpt lat="46.12426" lon="5.39889">
        <ele>340.4</ele>
        <time>2026-05-09T11:51:34Z</time>
      </trkpt>
      <trkpt lat="46.12423" lon="5.39889">
        <ele>340.4</ele>
        <time>2026-05-09T11:51:35Z</time>
      </trkpt>
      <trkpt lat="46.1242" lon="5.39889">
        <ele>340.6</ele>
        <time>2026-05-09T11:51:36Z</time>
      </trkpt>
      <trkpt lat="46.12416" lon="5.39888">
        <ele>340.6</ele>
        <time>2026-05-09T11:51:37Z</time>
      </trkpt>
      <trkpt lat="46.12413" lon="5.39888">
        <ele>340.8</ele>
        <time>2026-05-09T11:51:38Z</time>
      </trkpt>
      <trkpt lat="46.1241" lon="5.39887">
        <ele>340.8</ele>
        <time>2026-05-09T11:51:39Z</time>
      </trkpt>
      <trkpt lat="46.12407" lon="5.39886">
        <ele>340.8</ele>
        <time>2026-05-09T11:51:40Z</time>
      </trkpt>
      <trkpt lat="46.12404" lon="5.39885">
        <ele>340.8</ele>
        <time>2026-05-09T11:51:41Z</time>
      </trkpt>
      <trkpt lat="46.12401" lon="5.39885">
        <ele>341.2</ele>
        <time>2026-05-09T11:51:42Z</time>
      </trkpt>
      <trkpt lat="46.12397" lon="5.39884">
        <ele>341.2</ele>
        <time>2026-05-09T11:51:43Z</time>
      </trkpt>
      <trkpt lat="46.12394" lon="5.39883">
        <ele>341.2</ele>
        <time>2026-05-09T11:51:44Z</time>
      </trkpt>
      <trkpt lat="46.1239" lon="5.39883">
        <ele>341.2</ele>
        <time>2026-05-09T11:51:45Z</time>
      </trkpt>
      <trkpt lat="46.12386" lon="5.39882">
        <ele>341.2</ele>
        <time>2026-05-09T11:51:46Z</time>
      </trkpt>
      <trkpt lat="46.12382" lon="5.39881">
        <ele>341.2</ele>
        <time>2026-05-09T11:51:47Z</time>
      </trkpt>
      <trkpt lat="46.12378" lon="5.3988">
        <ele>341.2</ele>
        <time>2026-05-09T11:51:48Z</time>
      </trkpt>
      <trkpt lat="46.12374" lon="5.3988">
        <ele>341.2</ele>
        <time>2026-05-09T11:51:49Z</time>
      </trkpt>
      <trkpt lat="46.12369" lon="5.39879">
        <ele>341</ele>
        <time>2026-05-09T11:51:50Z</time>
      </trkpt>
      <trkpt lat="46.12364" lon="5.39879">
        <ele>341</ele>
        <time>2026-05-09T11:51:51Z</time>
      </trkpt>
      <trkpt lat="46.12359" lon="5.39879">
        <ele>340.8</ele>
        <time>2026-05-09T11:51:52Z</time>
      </trkpt>
      <trkpt lat="46.12354" lon="5.3988">
        <ele>340.8</ele>
        <time>2026-05-09T11:51:53Z</time>
      </trkpt>
      <trkpt lat="46.12348" lon="5.3988">
        <ele>340.4</ele>
        <time>2026-05-09T11:51:54Z</time>
      </trkpt>
      <trkpt lat="46.12342" lon="5.39881">
        <ele>340.4</ele>
        <time>2026-05-09T11:51:55Z</time>
      </trkpt>
      <trkpt lat="46.12342" lon="5.39881">
        <ele>340</ele>
        <time>2026-05-09T11:51:56Z</time>
      </trkpt>
      <trkpt lat="46.12337" lon="5.39882">
        <ele>339.8</ele>
        <time>2026-05-09T11:51:57Z</time>
      </trkpt>
      <trkpt lat="46.12331" lon="5.39883">
        <ele>339.6</ele>
        <time>2026-05-09T11:51:58Z</time>
      </trkpt>
      <trkpt lat="46.12324" lon="5.39885">
        <ele>339.6</ele>
        <time>2026-05-09T11:51:59Z</time>
      </trkpt>
      <trkpt lat="46.12317" lon="5.39887">
        <ele>339.6</ele>
        <time>2026-05-09T11:52:00Z</time>
      </trkpt>
      <trkpt lat="46.12311" lon="5.39887">
        <ele>339.2</ele>
        <time>2026-05-09T11:52:01Z</time>
      </trkpt>
      <trkpt lat="46.12303" lon="5.39889">
        <ele>338.8</ele>
        <time>2026-05-09T11:52:02Z</time>
      </trkpt>
      <trkpt lat="46.12296" lon="5.3989">
        <ele>338.6</ele>
        <time>2026-05-09T11:52:03Z</time>
      </trkpt>
      <trkpt lat="46.12288" lon="5.3989">
        <ele>338.2</ele>
        <time>2026-05-09T11:52:04Z</time>
      </trkpt>
      <trkpt lat="46.1228" lon="5.39889">
        <ele>338</ele>
        <time>2026-05-09T11:52:05Z</time>
      </trkpt>
      <trkpt lat="46.12272" lon="5.39887">
        <ele>337.6</ele>
        <time>2026-05-09T11:52:06Z</time>
      </trkpt>
      <trkpt lat="46.12265" lon="5.39885">
        <ele>337</ele>
        <time>2026-05-09T11:52:07Z</time>
      </trkpt>
      <trkpt lat="46.12257" lon="5.39881">
        <ele>336.8</ele>
        <time>2026-05-09T11:52:08Z</time>
      </trkpt>
      <trkpt lat="46.12249" lon="5.39878">
        <ele>336.6</ele>
        <time>2026-05-09T11:52:09Z</time>
      </trkpt>
      <trkpt lat="46.12241" lon="5.39874">
        <ele>336.2</ele>
        <time>2026-05-09T11:52:10Z</time>
      </trkpt>
      <trkpt lat="46.12233" lon="5.3987">
        <ele>336</ele>
        <time>2026-05-09T11:52:11Z</time>
      </trkpt>
      <trkpt lat="46.12226" lon="5.39866">
        <ele>335.6</ele>
        <time>2026-05-09T11:52:12Z</time>
      </trkpt>
      <trkpt lat="46.12218" lon="5.39862">
        <ele>335.4</ele>
        <time>2026-05-09T11:52:13Z</time>
      </trkpt>
      <trkpt lat="46.1221" lon="5.39858">
        <ele>335.4</ele>
        <time>2026-05-09T11:52:14Z</time>
      </trkpt>
      <trkpt lat="46.12203" lon="5.39854">
        <ele>334.8</ele>
        <time>2026-05-09T11:52:15Z</time>
      </trkpt>
      <trkpt lat="46.12195" lon="5.39849">
        <ele>334.8</ele>
        <time>2026-05-09T11:52:16Z</time>
      </trkpt>
      <trkpt lat="46.12188" lon="5.39845">
        <ele>334.6</ele>
        <time>2026-05-09T11:52:17Z</time>
      </trkpt>
      <trkpt lat="46.1218" lon="5.39843">
        <ele>334.6</ele>
        <time>2026-05-09T11:52:18Z</time>
      </trkpt>
      <trkpt lat="46.12173" lon="5.3984">
        <ele>334.4</ele>
        <time>2026-05-09T11:52:19Z</time>
      </trkpt>
      <trkpt lat="46.12166" lon="5.39839">
        <ele>334.4</ele>
        <time>2026-05-09T11:52:20Z</time>
      </trkpt>
      <trkpt lat="46.1216" lon="5.39838">
        <ele>334.4</ele>
        <time>2026-05-09T11:52:21Z</time>
      </trkpt>
      <trkpt lat="46.12153" lon="5.39837">
        <ele>334.4</ele>
        <time>2026-05-09T11:52:22Z</time>
      </trkpt>
      <trkpt lat="46.12147" lon="5.39837">
        <ele>334.4</ele>
        <time>2026-05-09T11:52:23Z</time>
      </trkpt>
      <trkpt lat="46.12141" lon="5.39837">
        <ele>334.4</ele>
        <time>2026-05-09T11:52:24Z</time>
      </trkpt>
      <trkpt lat="46.12134" lon="5.39838">
        <ele>334.4</ele>
        <time>2026-05-09T11:52:25Z</time>
      </trkpt>
      <trkpt lat="46.12128" lon="5.39838">
        <ele>334.4</ele>
        <time>2026-05-09T11:52:26Z</time>
      </trkpt>
      <trkpt lat="46.12123" lon="5.39838">
        <ele>334.4</ele>
        <time>2026-05-09T11:52:27Z</time>
      </trkpt>
      <trkpt lat="46.12117" lon="5.39839">
        <ele>334.6</ele>
        <time>2026-05-09T11:52:28Z</time>
      </trkpt>
      <trkpt lat="46.12111" lon="5.39839">
        <ele>334.6</ele>
        <time>2026-05-09T11:52:29Z</time>
      </trkpt>
      <trkpt lat="46.12106" lon="5.3984">
        <ele>334.8</ele>
        <time>2026-05-09T11:52:30Z</time>
      </trkpt>
      <trkpt lat="46.12101" lon="5.3984">
        <ele>334.8</ele>
        <time>2026-05-09T11:52:31Z</time>
      </trkpt>
      <trkpt lat="46.12095" lon="5.3984">
        <ele>335.2</ele>
        <time>2026-05-09T11:52:32Z</time>
      </trkpt>
      <trkpt lat="46.1209" lon="5.39841">
        <ele>335.4</ele>
        <time>2026-05-09T11:52:33Z</time>
      </trkpt>
      <trkpt lat="46.12085" lon="5.39841">
        <ele>335.6</ele>
        <time>2026-05-09T11:52:34Z</time>
      </trkpt>
      <trkpt lat="46.1208" lon="5.39842">
        <ele>335.6</ele>
        <time>2026-05-09T11:52:35Z</time>
      </trkpt>
      <trkpt lat="46.12076" lon="5.39843">
        <ele>335.8</ele>
        <time>2026-05-09T11:52:36Z</time>
      </trkpt>
      <trkpt lat="46.12071" lon="5.39844">
        <ele>336.2</ele>
        <time>2026-05-09T11:52:37Z</time>
      </trkpt>
      <trkpt lat="46.12067" lon="5.39844">
        <ele>336.2</ele>
        <time>2026-05-09T11:52:38Z</time>
      </trkpt>
      <trkpt lat="46.12062" lon="5.39846">
        <ele>336.4</ele>
        <time>2026-05-09T11:52:39Z</time>
      </trkpt>
      <trkpt lat="46.12058" lon="5.39847">
        <ele>336.4</ele>
        <time>2026-05-09T11:52:40Z</time>
      </trkpt>
      <trkpt lat="46.12055" lon="5.39849">
        <ele>336.4</ele>
        <time>2026-05-09T11:52:41Z</time>
      </trkpt>
      <trkpt lat="46.12051" lon="5.3985">
        <ele>336.6</ele>
        <time>2026-05-09T11:52:42Z</time>
      </trkpt>
      <trkpt lat="46.12048" lon="5.39852">
        <ele>336.8</ele>
        <time>2026-05-09T11:52:43Z</time>
      </trkpt>
      <trkpt lat="46.12045" lon="5.39854">
        <ele>336.8</ele>
        <time>2026-05-09T11:52:44Z</time>
      </trkpt>
      <trkpt lat="46.12041" lon="5.39855">
        <ele>337.2</ele>
        <time>2026-05-09T11:52:45Z</time>
      </trkpt>
      <trkpt lat="46.12038" lon="5.39856">
        <ele>337.2</ele>
        <time>2026-05-09T11:52:46Z</time>
      </trkpt>
      <trkpt lat="46.12035" lon="5.39858">
        <ele>337.2</ele>
        <time>2026-05-09T11:52:47Z</time>
      </trkpt>
      <trkpt lat="46.12031" lon="5.39859">
        <ele>337.6</ele>
        <time>2026-05-09T11:52:48Z</time>
      </trkpt>
      <trkpt lat="46.12027" lon="5.3986">
        <ele>337.6</ele>
        <time>2026-05-09T11:52:49Z</time>
      </trkpt>
      <trkpt lat="46.12023" lon="5.39861">
        <ele>337.8</ele>
        <time>2026-05-09T11:52:50Z</time>
      </trkpt>
      <trkpt lat="46.12021" lon="5.39862">
        <ele>338</ele>
        <time>2026-05-09T11:52:51Z</time>
      </trkpt>
      <trkpt lat="46.12016" lon="5.39863">
        <ele>338</ele>
        <time>2026-05-09T11:52:52Z</time>
      </trkpt>
      <trkpt lat="46.12013" lon="5.39865">
        <ele>338</ele>
        <time>2026-05-09T11:52:53Z</time>
      </trkpt>
      <trkpt lat="46.12009" lon="5.39867">
        <ele>338.4</ele>
        <time>2026-05-09T11:52:54Z</time>
      </trkpt>
      <trkpt lat="46.12005" lon="5.39867">
        <ele>338.4</ele>
        <time>2026-05-09T11:52:55Z</time>
      </trkpt>
      <trkpt lat="46.12001" lon="5.39868">
        <ele>338.6</ele>
        <time>2026-05-09T11:52:56Z</time>
      </trkpt>
      <trkpt lat="46.11998" lon="5.3987">
        <ele>338.6</ele>
        <time>2026-05-09T11:52:57Z</time>
      </trkpt>
      <trkpt lat="46.11993" lon="5.39871">
        <ele>338.6</ele>
        <time>2026-05-09T11:52:58Z</time>
      </trkpt>
      <trkpt lat="46.11989" lon="5.39872">
        <ele>339</ele>
        <time>2026-05-09T11:52:59Z</time>
      </trkpt>
      <trkpt lat="46.11985" lon="5.39872">
        <ele>339</ele>
        <time>2026-05-09T11:53:00Z</time>
      </trkpt>
      <trkpt lat="46.11981" lon="5.39873">
        <ele>339</ele>
        <time>2026-05-09T11:53:01Z</time>
      </trkpt>
      <trkpt lat="46.11977" lon="5.39873">
        <ele>339</ele>
        <time>2026-05-09T11:53:02Z</time>
      </trkpt>
      <trkpt lat="46.11973" lon="5.39874">
        <ele>339.2</ele>
        <time>2026-05-09T11:53:03Z</time>
      </trkpt>
      <trkpt lat="46.11969" lon="5.39874">
        <ele>339.2</ele>
        <time>2026-05-09T11:53:04Z</time>
      </trkpt>
      <trkpt lat="46.11965" lon="5.39875">
        <ele>339.2</ele>
        <time>2026-05-09T11:53:05Z</time>
      </trkpt>
      <trkpt lat="46.11961" lon="5.39876">
        <ele>339.2</ele>
        <time>2026-05-09T11:53:06Z</time>
      </trkpt>
      <trkpt lat="46.11958" lon="5.39876">
        <ele>339.2</ele>
        <time>2026-05-09T11:53:07Z</time>
      </trkpt>
      <trkpt lat="46.11954" lon="5.39877">
        <ele>339.2</ele>
        <time>2026-05-09T11:53:08Z</time>
      </trkpt>
      <trkpt lat="46.1195" lon="5.39878">
        <ele>339.6</ele>
        <time>2026-05-09T11:53:09Z</time>
      </trkpt>
      <trkpt lat="46.11947" lon="5.39878">
        <ele>339.6</ele>
        <time>2026-05-09T11:53:10Z</time>
      </trkpt>
      <trkpt lat="46.11943" lon="5.39879">
        <ele>339.6</ele>
        <time>2026-05-09T11:53:11Z</time>
      </trkpt>
      <trkpt lat="46.1194" lon="5.3988">
        <ele>339.8</ele>
        <time>2026-05-09T11:53:12Z</time>
      </trkpt>
      <trkpt lat="46.11936" lon="5.39882">
        <ele>339.8</ele>
        <time>2026-05-09T11:53:13Z</time>
      </trkpt>
      <trkpt lat="46.11932" lon="5.39883">
        <ele>339.8</ele>
        <time>2026-05-09T11:53:14Z</time>
      </trkpt>
      <trkpt lat="46.11929" lon="5.39884">
        <ele>340</ele>
        <time>2026-05-09T11:53:15Z</time>
      </trkpt>
      <trkpt lat="46.11925" lon="5.39885">
        <ele>340</ele>
        <time>2026-05-09T11:53:16Z</time>
      </trkpt>
      <trkpt lat="46.11921" lon="5.39887">
        <ele>340</ele>
        <time>2026-05-09T11:53:17Z</time>
      </trkpt>
      <trkpt lat="46.11917" lon="5.39888">
        <ele>340</ele>
        <time>2026-05-09T11:53:18Z</time>
      </trkpt>
      <trkpt lat="46.11912" lon="5.3989">
        <ele>340</ele>
        <time>2026-05-09T11:53:19Z</time>
      </trkpt>
      <trkpt lat="46.11908" lon="5.39892">
        <ele>340</ele>
        <time>2026-05-09T11:53:20Z</time>
      </trkpt>
      <trkpt lat="46.119" lon="5.39895">
        <ele>340</ele>
        <time>2026-05-09T11:53:21Z</time>
      </trkpt>
      <trkpt lat="46.11896" lon="5.39896">
        <ele>340.2</ele>
        <time>2026-05-09T11:53:22Z</time>
      </trkpt>
      <trkpt lat="46.11892" lon="5.39898">
        <ele>340.2</ele>
        <time>2026-05-09T11:53:23Z</time>
      </trkpt>
      <trkpt lat="46.11888" lon="5.399">
        <ele>340.2</ele>
        <time>2026-05-09T11:53:24Z</time>
      </trkpt>
      <trkpt lat="46.11884" lon="5.39901">
        <ele>340.2</ele>
        <time>2026-05-09T11:53:25Z</time>
      </trkpt>
      <trkpt lat="46.1188" lon="5.39903">
        <ele>340.6</ele>
        <time>2026-05-09T11:53:26Z</time>
      </trkpt>
      <trkpt lat="46.11876" lon="5.39904">
        <ele>340.6</ele>
        <time>2026-05-09T11:53:27Z</time>
      </trkpt>
      <trkpt lat="46.11872" lon="5.39905">
        <ele>340.6</ele>
        <time>2026-05-09T11:53:28Z</time>
      </trkpt>
      <trkpt lat="46.11868" lon="5.39906">
        <ele>340.6</ele>
        <time>2026-05-09T11:53:29Z</time>
      </trkpt>
      <trkpt lat="46.11864" lon="5.39908">
        <ele>340.6</ele>
        <time>2026-05-09T11:53:30Z</time>
      </trkpt>
      <trkpt lat="46.11861" lon="5.3991">
        <ele>340.6</ele>
        <time>2026-05-09T11:53:31Z</time>
      </trkpt>
      <trkpt lat="46.11857" lon="5.39912">
        <ele>340.6</ele>
        <time>2026-05-09T11:53:32Z</time>
      </trkpt>
      <trkpt lat="46.11854" lon="5.39914">
        <ele>340.6</ele>
        <time>2026-05-09T11:53:33Z</time>
      </trkpt>
      <trkpt lat="46.11851" lon="5.39917">
        <ele>340.8</ele>
        <time>2026-05-09T11:53:34Z</time>
      </trkpt>
      <trkpt lat="46.11848" lon="5.3992">
        <ele>340.8</ele>
        <time>2026-05-09T11:53:35Z</time>
      </trkpt>
      <trkpt lat="46.11845" lon="5.39923">
        <ele>340.8</ele>
        <time>2026-05-09T11:53:36Z</time>
      </trkpt>
      <trkpt lat="46.11843" lon="5.39927">
        <ele>340.8</ele>
        <time>2026-05-09T11:53:37Z</time>
      </trkpt>
      <trkpt lat="46.1184" lon="5.3993">
        <ele>341</ele>
        <time>2026-05-09T11:53:38Z</time>
      </trkpt>
      <trkpt lat="46.11838" lon="5.39933">
        <ele>341</ele>
        <time>2026-05-09T11:53:39Z</time>
      </trkpt>
      <trkpt lat="46.11836" lon="5.39936">
        <ele>341.4</ele>
        <time>2026-05-09T11:53:40Z</time>
      </trkpt>
      <trkpt lat="46.11834" lon="5.39939">
        <ele>341.4</ele>
        <time>2026-05-09T11:53:41Z</time>
      </trkpt>
      <trkpt lat="46.11831" lon="5.39942">
        <ele>341.8</ele>
        <time>2026-05-09T11:53:42Z</time>
      </trkpt>
      <trkpt lat="46.11829" lon="5.39944">
        <ele>341.8</ele>
        <time>2026-05-09T11:53:43Z</time>
      </trkpt>
      <trkpt lat="46.11827" lon="5.39947">
        <ele>342</ele>
        <time>2026-05-09T11:53:44Z</time>
      </trkpt>
      <trkpt lat="46.11825" lon="5.39949">
        <ele>342</ele>
        <time>2026-05-09T11:53:45Z</time>
      </trkpt>
      <trkpt lat="46.11823" lon="5.39952">
        <ele>342.4</ele>
        <time>2026-05-09T11:53:46Z</time>
      </trkpt>
      <trkpt lat="46.11821" lon="5.39954">
        <ele>342.4</ele>
        <time>2026-05-09T11:53:47Z</time>
      </trkpt>
      <trkpt lat="46.11819" lon="5.39957">
        <ele>342.6</ele>
        <time>2026-05-09T11:53:48Z</time>
      </trkpt>
      <trkpt lat="46.11817" lon="5.39959">
        <ele>342.6</ele>
        <time>2026-05-09T11:53:49Z</time>
      </trkpt>
      <trkpt lat="46.11816" lon="5.39962">
        <ele>342.8</ele>
        <time>2026-05-09T11:53:50Z</time>
      </trkpt>
      <trkpt lat="46.11814" lon="5.39964">
        <ele>342.8</ele>
        <time>2026-05-09T11:53:51Z</time>
      </trkpt>
      <trkpt lat="46.11812" lon="5.39966">
        <ele>343.4</ele>
        <time>2026-05-09T11:53:52Z</time>
      </trkpt>
      <trkpt lat="46.1181" lon="5.39968">
        <ele>343.6</ele>
        <time>2026-05-09T11:53:53Z</time>
      </trkpt>
      <trkpt lat="46.11808" lon="5.3997">
        <ele>343.6</ele>
        <time>2026-05-09T11:53:54Z</time>
      </trkpt>
      <trkpt lat="46.11806" lon="5.39972">
        <ele>344</ele>
        <time>2026-05-09T11:53:55Z</time>
      </trkpt>
      <trkpt lat="46.11804" lon="5.39974">
        <ele>344</ele>
        <time>2026-05-09T11:53:56Z</time>
      </trkpt>
      <trkpt lat="46.11802" lon="5.39976">
        <ele>344.2</ele>
        <time>2026-05-09T11:53:57Z</time>
      </trkpt>
      <trkpt lat="46.118" lon="5.39978">
        <ele>344.2</ele>
        <time>2026-05-09T11:53:58Z</time>
      </trkpt>
      <trkpt lat="46.11797" lon="5.39979">
        <ele>344.2</ele>
        <time>2026-05-09T11:53:59Z</time>
      </trkpt>
      <trkpt lat="46.11795" lon="5.39981">
        <ele>344.6</ele>
        <time>2026-05-09T11:54:00Z</time>
      </trkpt>
      <trkpt lat="46.11793" lon="5.39982">
        <ele>344.6</ele>
        <time>2026-05-09T11:54:01Z</time>
      </trkpt>
      <trkpt lat="46.11791" lon="5.39983">
        <ele>344.6</ele>
        <time>2026-05-09T11:54:02Z</time>
      </trkpt>
      <trkpt lat="46.11789" lon="5.39984">
        <ele>344.8</ele>
        <time>2026-05-09T11:54:03Z</time>
      </trkpt>
      <trkpt lat="46.11787" lon="5.39986">
        <ele>344.8</ele>
        <time>2026-05-09T11:54:04Z</time>
      </trkpt>
      <trkpt lat="46.11785" lon="5.39987">
        <ele>344.8</ele>
        <time>2026-05-09T11:54:05Z</time>
      </trkpt>
      <trkpt lat="46.11783" lon="5.39988">
        <ele>345.2</ele>
        <time>2026-05-09T11:54:06Z</time>
      </trkpt>
      <trkpt lat="46.11781" lon="5.39989">
        <ele>345.4</ele>
        <time>2026-05-09T11:54:07Z</time>
      </trkpt>
      <trkpt lat="46.11779" lon="5.3999">
        <ele>345.4</ele>
        <time>2026-05-09T11:54:08Z</time>
      </trkpt>
      <trkpt lat="46.11777" lon="5.3999">
        <ele>345.4</ele>
        <time>2026-05-09T11:54:09Z</time>
      </trkpt>
      <trkpt lat="46.11775" lon="5.39991">
        <ele>345.4</ele>
        <time>2026-05-09T11:54:10Z</time>
      </trkpt>
      <trkpt lat="46.11773" lon="5.39992">
        <ele>345.6</ele>
        <time>2026-05-09T11:54:11Z</time>
      </trkpt>
      <trkpt lat="46.11771" lon="5.39992">
        <ele>345.6</ele>
        <time>2026-05-09T11:54:12Z</time>
      </trkpt>
      <trkpt lat="46.11769" lon="5.39993">
        <ele>345.6</ele>
        <time>2026-05-09T11:54:13Z</time>
      </trkpt>
      <trkpt lat="46.11767" lon="5.39994">
        <ele>345.8</ele>
        <time>2026-05-09T11:54:14Z</time>
      </trkpt>
      <trkpt lat="46.11765" lon="5.39995">
        <ele>346</ele>
        <time>2026-05-09T11:54:15Z</time>
      </trkpt>
      <trkpt lat="46.11763" lon="5.39995">
        <ele>346</ele>
        <time>2026-05-09T11:54:16Z</time>
      </trkpt>
      <trkpt lat="46.11761" lon="5.39996">
        <ele>346</ele>
        <time>2026-05-09T11:54:17Z</time>
      </trkpt>
      <trkpt lat="46.11759" lon="5.39996">
        <ele>346</ele>
        <time>2026-05-09T11:54:18Z</time>
      </trkpt>
      <trkpt lat="46.11757" lon="5.39997">
        <ele>346.4</ele>
        <time>2026-05-09T11:54:19Z</time>
      </trkpt>
      <trkpt lat="46.11755" lon="5.39998">
        <ele>346.8</ele>
        <time>2026-05-09T11:54:20Z</time>
      </trkpt>
      <trkpt lat="46.11754" lon="5.39999">
        <ele>347</ele>
        <time>2026-05-09T11:54:21Z</time>
      </trkpt>
      <trkpt lat="46.11752" lon="5.39999">
        <ele>347.2</ele>
        <time>2026-05-09T11:54:22Z</time>
      </trkpt>
      <trkpt lat="46.11751" lon="5.39999">
        <ele>347.2</ele>
        <time>2026-05-09T11:54:23Z</time>
      </trkpt>
      <trkpt lat="46.11749" lon="5.4">
        <ele>347.6</ele>
        <time>2026-05-09T11:54:24Z</time>
      </trkpt>
      <trkpt lat="46.11748" lon="5.4">
        <ele>347.6</ele>
        <time>2026-05-09T11:54:25Z</time>
      </trkpt>
      <trkpt lat="46.11745" lon="5.40001">
        <ele>347.6</ele>
        <time>2026-05-09T11:54:26Z</time>
      </trkpt>
      <trkpt lat="46.11743" lon="5.40002">
        <ele>347.8</ele>
        <time>2026-05-09T11:54:27Z</time>
      </trkpt>
      <trkpt lat="46.11742" lon="5.40002">
        <ele>347.8</ele>
        <time>2026-05-09T11:54:28Z</time>
      </trkpt>
      <trkpt lat="46.1174" lon="5.40003">
        <ele>348.2</ele>
        <time>2026-05-09T11:54:29Z</time>
      </trkpt>
      <trkpt lat="46.11738" lon="5.40003">
        <ele>348.2</ele>
        <time>2026-05-09T11:54:30Z</time>
      </trkpt>
      <trkpt lat="46.11737" lon="5.40004">
        <ele>348.4</ele>
        <time>2026-05-09T11:54:31Z</time>
      </trkpt>
      <trkpt lat="46.11735" lon="5.40004">
        <ele>348.4</ele>
        <time>2026-05-09T11:54:32Z</time>
      </trkpt>
      <trkpt lat="46.11732" lon="5.40005">
        <ele>348.6</ele>
        <time>2026-05-09T11:54:33Z</time>
      </trkpt>
      <trkpt lat="46.1173" lon="5.40005">
        <ele>348.6</ele>
        <time>2026-05-09T11:54:34Z</time>
      </trkpt>
      <trkpt lat="46.11728" lon="5.40006">
        <ele>349</ele>
        <time>2026-05-09T11:54:35Z</time>
      </trkpt>
      <trkpt lat="46.11727" lon="5.40006">
        <ele>349</ele>
        <time>2026-05-09T11:54:36Z</time>
      </trkpt>
      <trkpt lat="46.11726" lon="5.40007">
        <ele>349.2</ele>
        <time>2026-05-09T11:54:37Z</time>
      </trkpt>
      <trkpt lat="46.11724" lon="5.40008">
        <ele>349.2</ele>
        <time>2026-05-09T11:54:38Z</time>
      </trkpt>
      <trkpt lat="46.11722" lon="5.40008">
        <ele>349.2</ele>
        <time>2026-05-09T11:54:39Z</time>
      </trkpt>
      <trkpt lat="46.1172" lon="5.40009">
        <ele>349.6</ele>
        <time>2026-05-09T11:54:40Z</time>
      </trkpt>
      <trkpt lat="46.11718" lon="5.40009">
        <ele>349.6</ele>
        <time>2026-05-09T11:54:41Z</time>
      </trkpt>
      <trkpt lat="46.11717" lon="5.4001">
        <ele>349.6</ele>
        <time>2026-05-09T11:54:42Z</time>
      </trkpt>
      <trkpt lat="46.11715" lon="5.40011">
        <ele>350</ele>
        <time>2026-05-09T11:54:43Z</time>
      </trkpt>
      <trkpt lat="46.11713" lon="5.40011">
        <ele>350.2</ele>
        <time>2026-05-09T11:54:44Z</time>
      </trkpt>
      <trkpt lat="46.11711" lon="5.40012">
        <ele>350.2</ele>
        <time>2026-05-09T11:54:45Z</time>
      </trkpt>
      <trkpt lat="46.1171" lon="5.40012">
        <ele>350.4</ele>
        <time>2026-05-09T11:54:46Z</time>
      </trkpt>
      <trkpt lat="46.11708" lon="5.40013">
        <ele>350.4</ele>
        <time>2026-05-09T11:54:47Z</time>
      </trkpt>
      <trkpt lat="46.11706" lon="5.40013">
        <ele>350.8</ele>
        <time>2026-05-09T11:54:48Z</time>
      </trkpt>
      <trkpt lat="46.11704" lon="5.40013">
        <ele>350.8</ele>
        <time>2026-05-09T11:54:49Z</time>
      </trkpt>
      <trkpt lat="46.11703" lon="5.40014">
        <ele>351</ele>
        <time>2026-05-09T11:54:50Z</time>
      </trkpt>
      <trkpt lat="46.11701" lon="5.40014">
        <ele>351</ele>
        <time>2026-05-09T11:54:51Z</time>
      </trkpt>
      <trkpt lat="46.11701" lon="5.40014">
        <ele>351.2</ele>
        <time>2026-05-09T11:54:52Z</time>
      </trkpt>
      <trkpt lat="46.11699" lon="5.40014">
        <ele>351.2</ele>
        <time>2026-05-09T11:54:53Z</time>
      </trkpt>
      <trkpt lat="46.11697" lon="5.40015">
        <ele>351.2</ele>
        <time>2026-05-09T11:54:54Z</time>
      </trkpt>
      <trkpt lat="46.11695" lon="5.40015">
        <ele>351.4</ele>
        <time>2026-05-09T11:54:55Z</time>
      </trkpt>
      <trkpt lat="46.11693" lon="5.40016">
        <ele>351.4</ele>
        <time>2026-05-09T11:54:56Z</time>
      </trkpt>
      <trkpt lat="46.11691" lon="5.40017">
        <ele>351.4</ele>
        <time>2026-05-09T11:54:57Z</time>
      </trkpt>
      <trkpt lat="46.11689" lon="5.40018">
        <ele>351.6</ele>
        <time>2026-05-09T11:54:58Z</time>
      </trkpt>
      <trkpt lat="46.11687" lon="5.40018">
        <ele>351.6</ele>
        <time>2026-05-09T11:54:59Z</time>
      </trkpt>
      <trkpt lat="46.11685" lon="5.40019">
        <ele>351.8</ele>
        <time>2026-05-09T11:55:00Z</time>
      </trkpt>
      <trkpt lat="46.11683" lon="5.4002">
        <ele>352.2</ele>
        <time>2026-05-09T11:55:01Z</time>
      </trkpt>
      <trkpt lat="46.11681" lon="5.40021">
        <ele>352.2</ele>
        <time>2026-05-09T11:55:02Z</time>
      </trkpt>
      <trkpt lat="46.11679" lon="5.40022">
        <ele>352.2</ele>
        <time>2026-05-09T11:55:03Z</time>
      </trkpt>
      <trkpt lat="46.11677" lon="5.40022">
        <ele>352.4</ele>
        <time>2026-05-09T11:55:04Z</time>
      </trkpt>
      <trkpt lat="46.11675" lon="5.40023">
        <ele>352.6</ele>
        <time>2026-05-09T11:55:05Z</time>
      </trkpt>
      <trkpt lat="46.11673" lon="5.40024">
        <ele>353</ele>
        <time>2026-05-09T11:55:06Z</time>
      </trkpt>
      <trkpt lat="46.11671" lon="5.40025">
        <ele>353</ele>
        <time>2026-05-09T11:55:07Z</time>
      </trkpt>
      <trkpt lat="46.11669" lon="5.40026">
        <ele>353.2</ele>
        <time>2026-05-09T11:55:08Z</time>
      </trkpt>
      <trkpt lat="46.11667" lon="5.40026">
        <ele>353.2</ele>
        <time>2026-05-09T11:55:09Z</time>
      </trkpt>
      <trkpt lat="46.11665" lon="5.40027">
        <ele>353.4</ele>
        <time>2026-05-09T11:55:10Z</time>
      </trkpt>
      <trkpt lat="46.11663" lon="5.40027">
        <ele>353.4</ele>
        <time>2026-05-09T11:55:11Z</time>
      </trkpt>
      <trkpt lat="46.11661" lon="5.40028">
        <ele>353.4</ele>
        <time>2026-05-09T11:55:12Z</time>
      </trkpt>
      <trkpt lat="46.11659" lon="5.40028">
        <ele>353.8</ele>
        <time>2026-05-09T11:55:13Z</time>
      </trkpt>
      <trkpt lat="46.11657" lon="5.40028">
        <ele>353.8</ele>
        <time>2026-05-09T11:55:14Z</time>
      </trkpt>
      <trkpt lat="46.11655" lon="5.40029">
        <ele>354.2</ele>
        <time>2026-05-09T11:55:15Z</time>
      </trkpt>
      <trkpt lat="46.11653" lon="5.40029">
        <ele>354.2</ele>
        <time>2026-05-09T11:55:16Z</time>
      </trkpt>
      <trkpt lat="46.11651" lon="5.40029">
        <ele>354.4</ele>
        <time>2026-05-09T11:55:17Z</time>
      </trkpt>
      <trkpt lat="46.11649" lon="5.40029">
        <ele>354.4</ele>
        <time>2026-05-09T11:55:18Z</time>
      </trkpt>
      <trkpt lat="46.11647" lon="5.40029">
        <ele>354.8</ele>
        <time>2026-05-09T11:55:19Z</time>
      </trkpt>
      <trkpt lat="46.11645" lon="5.4003">
        <ele>354.8</ele>
        <time>2026-05-09T11:55:20Z</time>
      </trkpt>
      <trkpt lat="46.11643" lon="5.4003">
        <ele>355</ele>
        <time>2026-05-09T11:55:21Z</time>
      </trkpt>
      <trkpt lat="46.11641" lon="5.40031">
        <ele>355</ele>
        <time>2026-05-09T11:55:22Z</time>
      </trkpt>
      <trkpt lat="46.11639" lon="5.40031">
        <ele>355.2</ele>
        <time>2026-05-09T11:55:23Z</time>
      </trkpt>
      <trkpt lat="46.11638" lon="5.40032">
        <ele>355.2</ele>
        <time>2026-05-09T11:55:24Z</time>
      </trkpt>
      <trkpt lat="46.11636" lon="5.40032">
        <ele>355.6</ele>
        <time>2026-05-09T11:55:25Z</time>
      </trkpt>
      <trkpt lat="46.11634" lon="5.40032">
        <ele>355.6</ele>
        <time>2026-05-09T11:55:26Z</time>
      </trkpt>
      <trkpt lat="46.11632" lon="5.40033">
        <ele>355.8</ele>
        <time>2026-05-09T11:55:27Z</time>
      </trkpt>
      <trkpt lat="46.1163" lon="5.40034">
        <ele>355.8</ele>
        <time>2026-05-09T11:55:28Z</time>
      </trkpt>
      <trkpt lat="46.11628" lon="5.40034">
        <ele>355.8</ele>
        <time>2026-05-09T11:55:29Z</time>
      </trkpt>
      <trkpt lat="46.11627" lon="5.40034">
        <ele>355.8</ele>
        <time>2026-05-09T11:55:30Z</time>
      </trkpt>
      <trkpt lat="46.11625" lon="5.40035">
        <ele>356.2</ele>
        <time>2026-05-09T11:55:31Z</time>
      </trkpt>
      <trkpt lat="46.11623" lon="5.40035">
        <ele>356.4</ele>
        <time>2026-05-09T11:55:32Z</time>
      </trkpt>
      <trkpt lat="46.11621" lon="5.40035">
        <ele>356.4</ele>
        <time>2026-05-09T11:55:33Z</time>
      </trkpt>
      <trkpt lat="46.11619" lon="5.40036">
        <ele>356.4</ele>
        <time>2026-05-09T11:55:34Z</time>
      </trkpt>
      <trkpt lat="46.11617" lon="5.40036">
        <ele>356.8</ele>
        <time>2026-05-09T11:55:35Z</time>
      </trkpt>
      <trkpt lat="46.11616" lon="5.40036">
        <ele>356.8</ele>
        <time>2026-05-09T11:55:36Z</time>
      </trkpt>
      <trkpt lat="46.11613" lon="5.40036">
        <ele>357</ele>
        <time>2026-05-09T11:55:37Z</time>
      </trkpt>
      <trkpt lat="46.11611" lon="5.40037">
        <ele>357</ele>
        <time>2026-05-09T11:55:38Z</time>
      </trkpt>
      <trkpt lat="46.11609" lon="5.40037">
        <ele>357.2</ele>
        <time>2026-05-09T11:55:39Z</time>
      </trkpt>
      <trkpt lat="46.11607" lon="5.40038">
        <ele>357.6</ele>
        <time>2026-05-09T11:55:40Z</time>
      </trkpt>
      <trkpt lat="46.11606" lon="5.40038">
        <ele>357.6</ele>
        <time>2026-05-09T11:55:41Z</time>
      </trkpt>
      <trkpt lat="46.11604" lon="5.40039">
        <ele>357.8</ele>
        <time>2026-05-09T11:55:42Z</time>
      </trkpt>
      <trkpt lat="46.11603" lon="5.4004">
        <ele>357.8</ele>
        <time>2026-05-09T11:55:43Z</time>
      </trkpt>
      <trkpt lat="46.116" lon="5.4004">
        <ele>357.8</ele>
        <time>2026-05-09T11:55:44Z</time>
      </trkpt>
      <trkpt lat="46.11598" lon="5.40041">
        <ele>358</ele>
        <time>2026-05-09T11:55:45Z</time>
      </trkpt>
      <trkpt lat="46.11596" lon="5.40041">
        <ele>358.2</ele>
        <time>2026-05-09T11:55:46Z</time>
      </trkpt>
      <trkpt lat="46.11594" lon="5.40041">
        <ele>358.2</ele>
        <time>2026-05-09T11:55:47Z</time>
      </trkpt>
      <trkpt lat="46.11592" lon="5.40041">
        <ele>358.6</ele>
        <time>2026-05-09T11:55:48Z</time>
      </trkpt>
      <trkpt lat="46.1159" lon="5.40042">
        <ele>358.6</ele>
        <time>2026-05-09T11:55:49Z</time>
      </trkpt>
      <trkpt lat="46.11587" lon="5.40042">
        <ele>358.6</ele>
        <time>2026-05-09T11:55:50Z</time>
      </trkpt>
      <trkpt lat="46.11585" lon="5.40042">
        <ele>358.8</ele>
        <time>2026-05-09T11:55:51Z</time>
      </trkpt>
      <trkpt lat="46.11582" lon="5.40042">
        <ele>358.8</ele>
        <time>2026-05-09T11:55:52Z</time>
      </trkpt>
      <trkpt lat="46.11579" lon="5.40043">
        <ele>358.8</ele>
        <time>2026-05-09T11:55:53Z</time>
      </trkpt>
      <trkpt lat="46.11577" lon="5.40043">
        <ele>359.2</ele>
        <time>2026-05-09T11:55:54Z</time>
      </trkpt>
      <trkpt lat="46.11575" lon="5.40044">
        <ele>359.4</ele>
        <time>2026-05-09T11:55:55Z</time>
      </trkpt>
      <trkpt lat="46.11574" lon="5.40044">
        <ele>359.4</ele>
        <time>2026-05-09T11:55:56Z</time>
      </trkpt>
      <trkpt lat="46.11572" lon="5.40045">
        <ele>359.4</ele>
        <time>2026-05-09T11:55:57Z</time>
      </trkpt>
      <trkpt lat="46.1157" lon="5.40045">
        <ele>359.4</ele>
        <time>2026-05-09T11:55:58Z</time>
      </trkpt>
      <trkpt lat="46.11568" lon="5.40045">
        <ele>359.4</ele>
        <time>2026-05-09T11:55:59Z</time>
      </trkpt>
      <trkpt lat="46.11566" lon="5.40045">
        <ele>359.4</ele>
        <time>2026-05-09T11:56:00Z</time>
      </trkpt>
      <trkpt lat="46.11564" lon="5.40045">
        <ele>359.8</ele>
        <time>2026-05-09T11:56:01Z</time>
      </trkpt>
      <trkpt lat="46.11563" lon="5.40045">
        <ele>359.8</ele>
        <time>2026-05-09T11:56:02Z</time>
      </trkpt>
      <trkpt lat="46.11561" lon="5.40045">
        <ele>360</ele>
        <time>2026-05-09T11:56:03Z</time>
      </trkpt>
      <trkpt lat="46.11559" lon="5.40045">
        <ele>360</ele>
        <time>2026-05-09T11:56:04Z</time>
      </trkpt>
      <trkpt lat="46.11557" lon="5.40045">
        <ele>360.4</ele>
        <time>2026-05-09T11:56:05Z</time>
      </trkpt>
      <trkpt lat="46.11555" lon="5.40045">
        <ele>360.6</ele>
        <time>2026-05-09T11:56:06Z</time>
      </trkpt>
      <trkpt lat="46.11553" lon="5.40045">
        <ele>360.6</ele>
        <time>2026-05-09T11:56:07Z</time>
      </trkpt>
      <trkpt lat="46.11551" lon="5.40045">
        <ele>360.8</ele>
        <time>2026-05-09T11:56:08Z</time>
      </trkpt>
      <trkpt lat="46.1155" lon="5.40045">
        <ele>360.8</ele>
        <time>2026-05-09T11:56:09Z</time>
      </trkpt>
      <trkpt lat="46.11548" lon="5.40045">
        <ele>361.4</ele>
        <time>2026-05-09T11:56:10Z</time>
      </trkpt>
      <trkpt lat="46.11546" lon="5.40046">
        <ele>361.6</ele>
        <time>2026-05-09T11:56:11Z</time>
      </trkpt>
      <trkpt lat="46.11543" lon="5.40046">
        <ele>361.8</ele>
        <time>2026-05-09T11:56:12Z</time>
      </trkpt>
      <trkpt lat="46.11541" lon="5.40046">
        <ele>362.2</ele>
        <time>2026-05-09T11:56:13Z</time>
      </trkpt>
      <trkpt lat="46.11539" lon="5.40046">
        <ele>362.2</ele>
        <time>2026-05-09T11:56:14Z</time>
      </trkpt>
      <trkpt lat="46.11538" lon="5.40046">
        <ele>362.4</ele>
        <time>2026-05-09T11:56:15Z</time>
      </trkpt>
      <trkpt lat="46.11536" lon="5.40046">
        <ele>362.4</ele>
        <time>2026-05-09T11:56:16Z</time>
      </trkpt>
      <trkpt lat="46.11535" lon="5.40046">
        <ele>362.4</ele>
        <time>2026-05-09T11:56:17Z</time>
      </trkpt>
      <trkpt lat="46.11533" lon="5.40047">
        <ele>362.6</ele>
        <time>2026-05-09T11:56:18Z</time>
      </trkpt>
      <trkpt lat="46.11531" lon="5.40047">
        <ele>362.6</ele>
        <time>2026-05-09T11:56:19Z</time>
      </trkpt>
      <trkpt lat="46.11529" lon="5.40047">
        <ele>362.6</ele>
        <time>2026-05-09T11:56:20Z</time>
      </trkpt>
      <trkpt lat="46.11527" lon="5.40047">
        <ele>363</ele>
        <time>2026-05-09T11:56:21Z</time>
      </trkpt>
      <trkpt lat="46.11525" lon="5.40048">
        <ele>363</ele>
        <time>2026-05-09T11:56:22Z</time>
      </trkpt>
      <trkpt lat="46.11524" lon="5.40048">
        <ele>363.4</ele>
        <time>2026-05-09T11:56:23Z</time>
      </trkpt>
      <trkpt lat="46.11522" lon="5.40048">
        <ele>363.4</ele>
        <time>2026-05-09T11:56:24Z</time>
      </trkpt>
      <trkpt lat="46.1152" lon="5.40048">
        <ele>363.6</ele>
        <time>2026-05-09T11:56:25Z</time>
      </trkpt>
      <trkpt lat="46.11518" lon="5.40049">
        <ele>363.6</ele>
        <time>2026-05-09T11:56:26Z</time>
      </trkpt>
      <trkpt lat="46.11515" lon="5.40049">
        <ele>364</ele>
        <time>2026-05-09T11:56:27Z</time>
      </trkpt>
      <trkpt lat="46.11513" lon="5.40049">
        <ele>364</ele>
        <time>2026-05-09T11:56:28Z</time>
      </trkpt>
      <trkpt lat="46.11512" lon="5.40049">
        <ele>364</ele>
        <time>2026-05-09T11:56:29Z</time>
      </trkpt>
      <trkpt lat="46.1151" lon="5.40049">
        <ele>364</ele>
        <time>2026-05-09T11:56:30Z</time>
      </trkpt>
      <trkpt lat="46.11508" lon="5.40049">
        <ele>364.2</ele>
        <time>2026-05-09T11:56:31Z</time>
      </trkpt>
      <trkpt lat="46.11506" lon="5.40049">
        <ele>364.2</ele>
        <time>2026-05-09T11:56:32Z</time>
      </trkpt>
      <trkpt lat="46.11504" lon="5.40049">
        <ele>364.6</ele>
        <time>2026-05-09T11:56:33Z</time>
      </trkpt>
      <trkpt lat="46.11502" lon="5.40049">
        <ele>364.6</ele>
        <time>2026-05-09T11:56:34Z</time>
      </trkpt>
      <trkpt lat="46.11501" lon="5.4005">
        <ele>364.6</ele>
        <time>2026-05-09T11:56:35Z</time>
      </trkpt>
      <trkpt lat="46.11499" lon="5.4005">
        <ele>365</ele>
        <time>2026-05-09T11:56:36Z</time>
      </trkpt>
      <trkpt lat="46.11497" lon="5.4005">
        <ele>365</ele>
        <time>2026-05-09T11:56:37Z</time>
      </trkpt>
      <trkpt lat="46.11495" lon="5.4005">
        <ele>365.4</ele>
        <time>2026-05-09T11:56:38Z</time>
      </trkpt>
      <trkpt lat="46.11493" lon="5.4005">
        <ele>365.4</ele>
        <time>2026-05-09T11:56:39Z</time>
      </trkpt>
      <trkpt lat="46.11492" lon="5.4005">
        <ele>365.6</ele>
        <time>2026-05-09T11:56:40Z</time>
      </trkpt>
      <trkpt lat="46.1149" lon="5.40051">
        <ele>365.6</ele>
        <time>2026-05-09T11:56:41Z</time>
      </trkpt>
      <trkpt lat="46.11488" lon="5.40051">
        <ele>365.8</ele>
        <time>2026-05-09T11:56:42Z</time>
      </trkpt>
      <trkpt lat="46.11486" lon="5.40051">
        <ele>365.8</ele>
        <time>2026-05-09T11:56:43Z</time>
      </trkpt>
      <trkpt lat="46.11484" lon="5.40052">
        <ele>366.2</ele>
        <time>2026-05-09T11:56:44Z</time>
      </trkpt>
      <trkpt lat="46.11482" lon="5.40052">
        <ele>366.2</ele>
        <time>2026-05-09T11:56:45Z</time>
      </trkpt>
      <trkpt lat="46.1148" lon="5.40052">
        <ele>366.2</ele>
        <time>2026-05-09T11:56:46Z</time>
      </trkpt>
      <trkpt lat="46.11479" lon="5.40052">
        <ele>366.2</ele>
        <time>2026-05-09T11:56:47Z</time>
      </trkpt>
      <trkpt lat="46.11477" lon="5.40053">
        <ele>366.2</ele>
        <time>2026-05-09T11:56:48Z</time>
      </trkpt>
      <trkpt lat="46.11475" lon="5.40053">
        <ele>366.2</ele>
        <time>2026-05-09T11:56:49Z</time>
      </trkpt>
      <trkpt lat="46.11474" lon="5.40053">
        <ele>366.6</ele>
        <time>2026-05-09T11:56:50Z</time>
      </trkpt>
      <trkpt lat="46.11472" lon="5.40053">
        <ele>366.6</ele>
        <time>2026-05-09T11:56:51Z</time>
      </trkpt>
      <trkpt lat="46.1147" lon="5.40053">
        <ele>366.6</ele>
        <time>2026-05-09T11:56:52Z</time>
      </trkpt>
      <trkpt lat="46.11468" lon="5.40054">
        <ele>367</ele>
        <time>2026-05-09T11:56:53Z</time>
      </trkpt>
      <trkpt lat="46.11466" lon="5.40054">
        <ele>367</ele>
        <time>2026-05-09T11:56:54Z</time>
      </trkpt>
      <trkpt lat="46.11465" lon="5.40055">
        <ele>367</ele>
        <time>2026-05-09T11:56:55Z</time>
      </trkpt>
      <trkpt lat="46.11463" lon="5.40055">
        <ele>367</ele>
        <time>2026-05-09T11:56:56Z</time>
      </trkpt>
      <trkpt lat="46.11461" lon="5.40056">
        <ele>367.2</ele>
        <time>2026-05-09T11:56:57Z</time>
      </trkpt>
      <trkpt lat="46.11459" lon="5.40057">
        <ele>367.2</ele>
        <time>2026-05-09T11:56:58Z</time>
      </trkpt>
      <trkpt lat="46.11457" lon="5.40057">
        <ele>367.2</ele>
        <time>2026-05-09T11:56:59Z</time>
      </trkpt>
      <trkpt lat="46.11454" lon="5.40058">
        <ele>367.6</ele>
        <time>2026-05-09T11:57:00Z</time>
      </trkpt>
      <trkpt lat="46.11452" lon="5.40058">
        <ele>367.6</ele>
        <time>2026-05-09T11:57:01Z</time>
      </trkpt>
      <trkpt lat="46.1145" lon="5.40058">
        <ele>368</ele>
        <time>2026-05-09T11:57:02Z</time>
      </trkpt>
      <trkpt lat="46.11448" lon="5.40059">
        <ele>368.2</ele>
        <time>2026-05-09T11:57:03Z</time>
      </trkpt>
      <trkpt lat="46.11446" lon="5.40059">
        <ele>368.4</ele>
        <time>2026-05-09T11:57:04Z</time>
      </trkpt>
      <trkpt lat="46.11444" lon="5.4006">
        <ele>368.4</ele>
        <time>2026-05-09T11:57:05Z</time>
      </trkpt>
      <trkpt lat="46.11442" lon="5.4006">
        <ele>368.8</ele>
        <time>2026-05-09T11:57:06Z</time>
      </trkpt>
      <trkpt lat="46.11441" lon="5.4006">
        <ele>368.8</ele>
        <time>2026-05-09T11:57:07Z</time>
      </trkpt>
      <trkpt lat="46.11439" lon="5.40061">
        <ele>369</ele>
        <time>2026-05-09T11:57:08Z</time>
      </trkpt>
      <trkpt lat="46.11437" lon="5.40062">
        <ele>369</ele>
        <time>2026-05-09T11:57:09Z</time>
      </trkpt>
      <trkpt lat="46.11435" lon="5.40062">
        <ele>369.2</ele>
        <time>2026-05-09T11:57:10Z</time>
      </trkpt>
      <trkpt lat="46.11433" lon="5.40063">
        <ele>369.4</ele>
        <time>2026-05-09T11:57:11Z</time>
      </trkpt>
      <trkpt lat="46.11431" lon="5.40063">
        <ele>369.4</ele>
        <time>2026-05-09T11:57:12Z</time>
      </trkpt>
      <trkpt lat="46.1143" lon="5.40064">
        <ele>369.8</ele>
        <time>2026-05-09T11:57:13Z</time>
      </trkpt>
      <trkpt lat="46.11428" lon="5.40064">
        <ele>369.8</ele>
        <time>2026-05-09T11:57:14Z</time>
      </trkpt>
      <trkpt lat="46.11427" lon="5.40065">
        <ele>369.8</ele>
        <time>2026-05-09T11:57:15Z</time>
      </trkpt>
      <trkpt lat="46.11425" lon="5.40065">
        <ele>369.8</ele>
        <time>2026-05-09T11:57:16Z</time>
      </trkpt>
      <trkpt lat="46.11423" lon="5.40066">
        <ele>370</ele>
        <time>2026-05-09T11:57:17Z</time>
      </trkpt>
      <trkpt lat="46.11421" lon="5.40067">
        <ele>370</ele>
        <time>2026-05-09T11:57:18Z</time>
      </trkpt>
      <trkpt lat="46.1142" lon="5.40068">
        <ele>370.4</ele>
        <time>2026-05-09T11:57:19Z</time>
      </trkpt>
      <trkpt lat="46.11418" lon="5.40069">
        <ele>370.4</ele>
        <time>2026-05-09T11:57:20Z</time>
      </trkpt>
      <trkpt lat="46.11416" lon="5.4007">
        <ele>370.8</ele>
        <time>2026-05-09T11:57:21Z</time>
      </trkpt>
      <trkpt lat="46.11414" lon="5.40071">
        <ele>370.8</ele>
        <time>2026-05-09T11:57:22Z</time>
      </trkpt>
      <trkpt lat="46.11412" lon="5.40072">
        <ele>371</ele>
        <time>2026-05-09T11:57:23Z</time>
      </trkpt>
      <trkpt lat="46.1141" lon="5.40073">
        <ele>371</ele>
        <time>2026-05-09T11:57:24Z</time>
      </trkpt>
      <trkpt lat="46.11408" lon="5.40074">
        <ele>371.4</ele>
        <time>2026-05-09T11:57:25Z</time>
      </trkpt>
      <trkpt lat="46.11406" lon="5.40075">
        <ele>371.4</ele>
        <time>2026-05-09T11:57:26Z</time>
      </trkpt>
      <trkpt lat="46.11404" lon="5.40076">
        <ele>371.6</ele>
        <time>2026-05-09T11:57:27Z</time>
      </trkpt>
      <trkpt lat="46.11403" lon="5.40077">
        <ele>371.6</ele>
        <time>2026-05-09T11:57:28Z</time>
      </trkpt>
      <trkpt lat="46.11401" lon="5.40078">
        <ele>372</ele>
        <time>2026-05-09T11:57:29Z</time>
      </trkpt>
      <trkpt lat="46.11399" lon="5.40079">
        <ele>372</ele>
        <time>2026-05-09T11:57:30Z</time>
      </trkpt>
      <trkpt lat="46.11397" lon="5.4008">
        <ele>372</ele>
        <time>2026-05-09T11:57:31Z</time>
      </trkpt>
      <trkpt lat="46.11395" lon="5.40081">
        <ele>372.2</ele>
        <time>2026-05-09T11:57:32Z</time>
      </trkpt>
      <trkpt lat="46.11393" lon="5.40082">
        <ele>372.2</ele>
        <time>2026-05-09T11:57:33Z</time>
      </trkpt>
      <trkpt lat="46.11391" lon="5.40083">
        <ele>372.2</ele>
        <time>2026-05-09T11:57:34Z</time>
      </trkpt>
      <trkpt lat="46.1139" lon="5.40084">
        <ele>372.6</ele>
        <time>2026-05-09T11:57:35Z</time>
      </trkpt>
      <trkpt lat="46.11388" lon="5.40085">
        <ele>372.6</ele>
        <time>2026-05-09T11:57:36Z</time>
      </trkpt>
      <trkpt lat="46.11386" lon="5.40086">
        <ele>372.6</ele>
        <time>2026-05-09T11:57:37Z</time>
      </trkpt>
      <trkpt lat="46.11386" lon="5.40086">
        <ele>372.8</ele>
        <time>2026-05-09T11:57:38Z</time>
      </trkpt>
      <trkpt lat="46.11384" lon="5.40087">
        <ele>372.8</ele>
        <time>2026-05-09T11:57:39Z</time>
      </trkpt>
      <trkpt lat="46.11382" lon="5.40088">
        <ele>372.8</ele>
        <time>2026-05-09T11:57:40Z</time>
      </trkpt>
      <trkpt lat="46.1138" lon="5.40089">
        <ele>373</ele>
        <time>2026-05-09T11:57:41Z</time>
      </trkpt>
      <trkpt lat="46.11378" lon="5.40089">
        <ele>373</ele>
        <time>2026-05-09T11:57:42Z</time>
      </trkpt>
      <trkpt lat="46.11376" lon="5.4009">
        <ele>373.2</ele>
        <time>2026-05-09T11:57:43Z</time>
      </trkpt>
      <trkpt lat="46.11375" lon="5.4009">
        <ele>373.2</ele>
        <time>2026-05-09T11:57:44Z</time>
      </trkpt>
      <trkpt lat="46.11373" lon="5.40091">
        <ele>373.2</ele>
        <time>2026-05-09T11:57:45Z</time>
      </trkpt>
      <trkpt lat="46.11371" lon="5.40092">
        <ele>373.6</ele>
        <time>2026-05-09T11:57:46Z</time>
      </trkpt>
      <trkpt lat="46.11369" lon="5.40093">
        <ele>373.8</ele>
        <time>2026-05-09T11:57:47Z</time>
      </trkpt>
      <trkpt lat="46.11367" lon="5.40094">
        <ele>373.8</ele>
        <time>2026-05-09T11:57:48Z</time>
      </trkpt>
      <trkpt lat="46.11365" lon="5.40095">
        <ele>374</ele>
        <time>2026-05-09T11:57:49Z</time>
      </trkpt>
      <trkpt lat="46.11363" lon="5.40096">
        <ele>374</ele>
        <time>2026-05-09T11:57:50Z</time>
      </trkpt>
      <trkpt lat="46.11361" lon="5.40097">
        <ele>374</ele>
        <time>2026-05-09T11:57:51Z</time>
      </trkpt>
      <trkpt lat="46.1136" lon="5.40098">
        <ele>374.2</ele>
        <time>2026-05-09T11:57:52Z</time>
      </trkpt>
      <trkpt lat="46.11358" lon="5.40098">
        <ele>374.2</ele>
        <time>2026-05-09T11:57:53Z</time>
      </trkpt>
      <trkpt lat="46.11356" lon="5.40099">
        <ele>374.2</ele>
        <time>2026-05-09T11:57:54Z</time>
      </trkpt>
      <trkpt lat="46.11354" lon="5.40099">
        <ele>374.4</ele>
        <time>2026-05-09T11:57:55Z</time>
      </trkpt>
      <trkpt lat="46.11352" lon="5.401">
        <ele>374.4</ele>
        <time>2026-05-09T11:57:56Z</time>
      </trkpt>
      <trkpt lat="46.1135" lon="5.40101">
        <ele>374.4</ele>
        <time>2026-05-09T11:57:57Z</time>
      </trkpt>
      <trkpt lat="46.11348" lon="5.40101">
        <ele>374.8</ele>
        <time>2026-05-09T11:57:58Z</time>
      </trkpt>
      <trkpt lat="46.11346" lon="5.40102">
        <ele>374.8</ele>
        <time>2026-05-09T11:57:59Z</time>
      </trkpt>
      <trkpt lat="46.11344" lon="5.40103">
        <ele>375</ele>
        <time>2026-05-09T11:58:00Z</time>
      </trkpt>
      <trkpt lat="46.11342" lon="5.40104">
        <ele>375</ele>
        <time>2026-05-09T11:58:01Z</time>
      </trkpt>
      <trkpt lat="46.1134" lon="5.40105">
        <ele>375</ele>
        <time>2026-05-09T11:58:02Z</time>
      </trkpt>
      <trkpt lat="46.11338" lon="5.40107">
        <ele>375</ele>
        <time>2026-05-09T11:58:03Z</time>
      </trkpt>
      <trkpt lat="46.11336" lon="5.40108">
        <ele>375</ele>
        <time>2026-05-09T11:58:04Z</time>
      </trkpt>
      <trkpt lat="46.11334" lon="5.40108">
        <ele>375.4</ele>
        <time>2026-05-09T11:58:05Z</time>
      </trkpt>
      <trkpt lat="46.11332" lon="5.40109">
        <ele>375.4</ele>
        <time>2026-05-09T11:58:06Z</time>
      </trkpt>
      <trkpt lat="46.1133" lon="5.40109">
        <ele>375.4</ele>
        <time>2026-05-09T11:58:07Z</time>
      </trkpt>
      <trkpt lat="46.11329" lon="5.4011">
        <ele>375.4</ele>
        <time>2026-05-09T11:58:08Z</time>
      </trkpt>
      <trkpt lat="46.11327" lon="5.40111">
        <ele>375.8</ele>
        <time>2026-05-09T11:58:09Z</time>
      </trkpt>
      <trkpt lat="46.11325" lon="5.40112">
        <ele>375.8</ele>
        <time>2026-05-09T11:58:10Z</time>
      </trkpt>
      <trkpt lat="46.11323" lon="5.40113">
        <ele>376</ele>
        <time>2026-05-09T11:58:11Z</time>
      </trkpt>
      <trkpt lat="46.11321" lon="5.40115">
        <ele>376</ele>
        <time>2026-05-09T11:58:12Z</time>
      </trkpt>
      <trkpt lat="46.1132" lon="5.40115">
        <ele>376</ele>
        <time>2026-05-09T11:58:13Z</time>
      </trkpt>
      <trkpt lat="46.11318" lon="5.40117">
        <ele>376.2</ele>
        <time>2026-05-09T11:58:14Z</time>
      </trkpt>
      <trkpt lat="46.11316" lon="5.40118">
        <ele>376.2</ele>
        <time>2026-05-09T11:58:15Z</time>
      </trkpt>
      <trkpt lat="46.11314" lon="5.40118">
        <ele>376.2</ele>
        <time>2026-05-09T11:58:16Z</time>
      </trkpt>
      <trkpt lat="46.11312" lon="5.40119">
        <ele>376.2</ele>
        <time>2026-05-09T11:58:17Z</time>
      </trkpt>
      <trkpt lat="46.1131" lon="5.40119">
        <ele>376.6</ele>
        <time>2026-05-09T11:58:18Z</time>
      </trkpt>
      <trkpt lat="46.11307" lon="5.4012">
        <ele>376.6</ele>
        <time>2026-05-09T11:58:19Z</time>
      </trkpt>
      <trkpt lat="46.11305" lon="5.40121">
        <ele>376.6</ele>
        <time>2026-05-09T11:58:20Z</time>
      </trkpt>
      <trkpt lat="46.11303" lon="5.40121">
        <ele>376.6</ele>
        <time>2026-05-09T11:58:21Z</time>
      </trkpt>
      <trkpt lat="46.11301" lon="5.40122">
        <ele>376.8</ele>
        <time>2026-05-09T11:58:22Z</time>
      </trkpt>
      <trkpt lat="46.11299" lon="5.40124">
        <ele>376.8</ele>
        <time>2026-05-09T11:58:23Z</time>
      </trkpt>
      <trkpt lat="46.11297" lon="5.40125">
        <ele>376.8</ele>
        <time>2026-05-09T11:58:24Z</time>
      </trkpt>
      <trkpt lat="46.11295" lon="5.40126">
        <ele>377.2</ele>
        <time>2026-05-09T11:58:25Z</time>
      </trkpt>
      <trkpt lat="46.11293" lon="5.40127">
        <ele>377.2</ele>
        <time>2026-05-09T11:58:26Z</time>
      </trkpt>
      <trkpt lat="46.11291" lon="5.40127">
        <ele>377.4</ele>
        <time>2026-05-09T11:58:27Z</time>
      </trkpt>
      <trkpt lat="46.11289" lon="5.40128">
        <ele>377.8</ele>
        <time>2026-05-09T11:58:28Z</time>
      </trkpt>
      <trkpt lat="46.11288" lon="5.40129">
        <ele>378</ele>
        <time>2026-05-09T11:58:29Z</time>
      </trkpt>
      <trkpt lat="46.11286" lon="5.4013">
        <ele>378</ele>
        <time>2026-05-09T11:58:30Z</time>
      </trkpt>
      <trkpt lat="46.11284" lon="5.4013">
        <ele>378.2</ele>
        <time>2026-05-09T11:58:31Z</time>
      </trkpt>
      <trkpt lat="46.11282" lon="5.40131">
        <ele>378.2</ele>
        <time>2026-05-09T11:58:32Z</time>
      </trkpt>
      <trkpt lat="46.1128" lon="5.40132">
        <ele>378.6</ele>
        <time>2026-05-09T11:58:33Z</time>
      </trkpt>
      <trkpt lat="46.11278" lon="5.40132">
        <ele>378.6</ele>
        <time>2026-05-09T11:58:34Z</time>
      </trkpt>
      <trkpt lat="46.11276" lon="5.40133">
        <ele>378.8</ele>
        <time>2026-05-09T11:58:35Z</time>
      </trkpt>
      <trkpt lat="46.11274" lon="5.40134">
        <ele>378.8</ele>
        <time>2026-05-09T11:58:36Z</time>
      </trkpt>
      <trkpt lat="46.11272" lon="5.40134">
        <ele>378.8</ele>
        <time>2026-05-09T11:58:37Z</time>
      </trkpt>
      <trkpt lat="46.1127" lon="5.40135">
        <ele>379</ele>
        <time>2026-05-09T11:58:38Z</time>
      </trkpt>
      <trkpt lat="46.11268" lon="5.40136">
        <ele>379</ele>
        <time>2026-05-09T11:58:39Z</time>
      </trkpt>
      <trkpt lat="46.11266" lon="5.40137">
        <ele>379.2</ele>
        <time>2026-05-09T11:58:40Z</time>
      </trkpt>
      <trkpt lat="46.11264" lon="5.40137">
        <ele>379.2</ele>
        <time>2026-05-09T11:58:41Z</time>
      </trkpt>
      <trkpt lat="46.11262" lon="5.40138">
        <ele>379.2</ele>
        <time>2026-05-09T11:58:42Z</time>
      </trkpt>
      <trkpt lat="46.1126" lon="5.40139">
        <ele>379.2</ele>
        <time>2026-05-09T11:58:43Z</time>
      </trkpt>
      <trkpt lat="46.11259" lon="5.4014">
        <ele>379.6</ele>
        <time>2026-05-09T11:58:44Z</time>
      </trkpt>
      <trkpt lat="46.11257" lon="5.40141">
        <ele>379.6</ele>
        <time>2026-05-09T11:58:45Z</time>
      </trkpt>
      <trkpt lat="46.11255" lon="5.40141">
        <ele>379.6</ele>
        <time>2026-05-09T11:58:46Z</time>
      </trkpt>
      <trkpt lat="46.11252" lon="5.40142">
        <ele>379.8</ele>
        <time>2026-05-09T11:58:47Z</time>
      </trkpt>
      <trkpt lat="46.11251" lon="5.40143">
        <ele>379.8</ele>
        <time>2026-05-09T11:58:48Z</time>
      </trkpt>
      <trkpt lat="46.11249" lon="5.40144">
        <ele>379.8</ele>
        <time>2026-05-09T11:58:49Z</time>
      </trkpt>
      <trkpt lat="46.11247" lon="5.40145">
        <ele>379.8</ele>
        <time>2026-05-09T11:58:50Z</time>
      </trkpt>
      <trkpt lat="46.11245" lon="5.40145">
        <ele>379.8</ele>
        <time>2026-05-09T11:58:51Z</time>
      </trkpt>
      <trkpt lat="46.11243" lon="5.40146">
        <ele>379.8</ele>
        <time>2026-05-09T11:58:52Z</time>
      </trkpt>
      <trkpt lat="46.11241" lon="5.40147">
        <ele>379.8</ele>
        <time>2026-05-09T11:58:53Z</time>
      </trkpt>
      <trkpt lat="46.11239" lon="5.40148">
        <ele>380</ele>
        <time>2026-05-09T11:58:54Z</time>
      </trkpt>
      <trkpt lat="46.11237" lon="5.40149">
        <ele>380</ele>
        <time>2026-05-09T11:58:55Z</time>
      </trkpt>
      <trkpt lat="46.11233" lon="5.4015">
        <ele>380.4</ele>
        <time>2026-05-09T11:58:56Z</time>
      </trkpt>
      <trkpt lat="46.11231" lon="5.40151">
        <ele>380.4</ele>
        <time>2026-05-09T11:58:57Z</time>
      </trkpt>
      <trkpt lat="46.1123" lon="5.40152">
        <ele>380.6</ele>
        <time>2026-05-09T11:58:58Z</time>
      </trkpt>
      <trkpt lat="46.11228" lon="5.40152">
        <ele>380.8</ele>
        <time>2026-05-09T11:58:59Z</time>
      </trkpt>
      <trkpt lat="46.11226" lon="5.40153">
        <ele>380.8</ele>
        <time>2026-05-09T11:59:00Z</time>
      </trkpt>
      <trkpt lat="46.11224" lon="5.40153">
        <ele>380.8</ele>
        <time>2026-05-09T11:59:01Z</time>
      </trkpt>
      <trkpt lat="46.11222" lon="5.40153">
        <ele>381.2</ele>
        <time>2026-05-09T11:59:02Z</time>
      </trkpt>
      <trkpt lat="46.1122" lon="5.40154">
        <ele>381.4</ele>
        <time>2026-05-09T11:59:03Z</time>
      </trkpt>
      <trkpt lat="46.11218" lon="5.40154">
        <ele>381.4</ele>
        <time>2026-05-09T11:59:04Z</time>
      </trkpt>
      <trkpt lat="46.11217" lon="5.40155">
        <ele>381.4</ele>
        <time>2026-05-09T11:59:05Z</time>
      </trkpt>
      <trkpt lat="46.11215" lon="5.40156">
        <ele>381.4</ele>
        <time>2026-05-09T11:59:06Z</time>
      </trkpt>
      <trkpt lat="46.11213" lon="5.40157">
        <ele>381.8</ele>
        <time>2026-05-09T11:59:07Z</time>
      </trkpt>
      <trkpt lat="46.11211" lon="5.40157">
        <ele>381.8</ele>
        <time>2026-05-09T11:59:08Z</time>
      </trkpt>
      <trkpt lat="46.11209" lon="5.40158">
        <ele>381.8</ele>
        <time>2026-05-09T11:59:09Z</time>
      </trkpt>
      <trkpt lat="46.11207" lon="5.40159">
        <ele>381.8</ele>
        <time>2026-05-09T11:59:10Z</time>
      </trkpt>
      <trkpt lat="46.11205" lon="5.4016">
        <ele>381.8</ele>
        <time>2026-05-09T11:59:11Z</time>
      </trkpt>
      <trkpt lat="46.11203" lon="5.4016">
        <ele>382.2</ele>
        <time>2026-05-09T11:59:12Z</time>
      </trkpt>
      <trkpt lat="46.11201" lon="5.4016">
        <ele>382.2</ele>
        <time>2026-05-09T11:59:13Z</time>
      </trkpt>
      <trkpt lat="46.11199" lon="5.40161">
        <ele>382.2</ele>
        <time>2026-05-09T11:59:14Z</time>
      </trkpt>
      <trkpt lat="46.11198" lon="5.40162">
        <ele>382.4</ele>
        <time>2026-05-09T11:59:15Z</time>
      </trkpt>
      <trkpt lat="46.11196" lon="5.40163">
        <ele>382.4</ele>
        <time>2026-05-09T11:59:16Z</time>
      </trkpt>
      <trkpt lat="46.11194" lon="5.40163">
        <ele>382.4</ele>
        <time>2026-05-09T11:59:17Z</time>
      </trkpt>
      <trkpt lat="46.11192" lon="5.40163">
        <ele>382.8</ele>
        <time>2026-05-09T11:59:18Z</time>
      </trkpt>
      <trkpt lat="46.1119" lon="5.40163">
        <ele>383</ele>
        <time>2026-05-09T11:59:19Z</time>
      </trkpt>
      <trkpt lat="46.11188" lon="5.40163">
        <ele>383</ele>
        <time>2026-05-09T11:59:20Z</time>
      </trkpt>
      <trkpt lat="46.11187" lon="5.40164">
        <ele>383.2</ele>
        <time>2026-05-09T11:59:21Z</time>
      </trkpt>
      <trkpt lat="46.11185" lon="5.40164">
        <ele>383.2</ele>
        <time>2026-05-09T11:59:22Z</time>
      </trkpt>
      <trkpt lat="46.11183" lon="5.40165">
        <ele>383.4</ele>
        <time>2026-05-09T11:59:23Z</time>
      </trkpt>
      <trkpt lat="46.11181" lon="5.40165">
        <ele>383.4</ele>
        <time>2026-05-09T11:59:24Z</time>
      </trkpt>
      <trkpt lat="46.11179" lon="5.40166">
        <ele>383.6</ele>
        <time>2026-05-09T11:59:25Z</time>
      </trkpt>
      <trkpt lat="46.11177" lon="5.40166">
        <ele>383.6</ele>
        <time>2026-05-09T11:59:26Z</time>
      </trkpt>
      <trkpt lat="46.11175" lon="5.40167">
        <ele>383.6</ele>
        <time>2026-05-09T11:59:27Z</time>
      </trkpt>
      <trkpt lat="46.11173" lon="5.40168">
        <ele>383.6</ele>
        <time>2026-05-09T11:59:28Z</time>
      </trkpt>
      <trkpt lat="46.11172" lon="5.40169">
        <ele>384.4</ele>
        <time>2026-05-09T11:59:29Z</time>
      </trkpt>
      <trkpt lat="46.1117" lon="5.4017">
        <ele>384.4</ele>
        <time>2026-05-09T11:59:30Z</time>
      </trkpt>
      <trkpt lat="46.11168" lon="5.40171">
        <ele>384.6</ele>
        <time>2026-05-09T11:59:31Z</time>
      </trkpt>
      <trkpt lat="46.11166" lon="5.40171">
        <ele>384.6</ele>
        <time>2026-05-09T11:59:32Z</time>
      </trkpt>
      <trkpt lat="46.11164" lon="5.40172">
        <ele>384.8</ele>
        <time>2026-05-09T11:59:33Z</time>
      </trkpt>
      <trkpt lat="46.11162" lon="5.40173">
        <ele>384.8</ele>
        <time>2026-05-09T11:59:34Z</time>
      </trkpt>
      <trkpt lat="46.1116" lon="5.40173">
        <ele>385.2</ele>
        <time>2026-05-09T11:59:35Z</time>
      </trkpt>
      <trkpt lat="46.11159" lon="5.40173">
        <ele>385.2</ele>
        <time>2026-05-09T11:59:36Z</time>
      </trkpt>
      <trkpt lat="46.11157" lon="5.40174">
        <ele>385.4</ele>
        <time>2026-05-09T11:59:37Z</time>
      </trkpt>
      <trkpt lat="46.11155" lon="5.40174">
        <ele>385.4</ele>
        <time>2026-05-09T11:59:38Z</time>
      </trkpt>
      <trkpt lat="46.11154" lon="5.40175">
        <ele>385.6</ele>
        <time>2026-05-09T11:59:39Z</time>
      </trkpt>
      <trkpt lat="46.11152" lon="5.40175">
        <ele>385.6</ele>
        <time>2026-05-09T11:59:40Z</time>
      </trkpt>
      <trkpt lat="46.1115" lon="5.40176">
        <ele>385.6</ele>
        <time>2026-05-09T11:59:41Z</time>
      </trkpt>
      <trkpt lat="46.11148" lon="5.40176">
        <ele>386</ele>
        <time>2026-05-09T11:59:42Z</time>
      </trkpt>
      <trkpt lat="46.11146" lon="5.40177">
        <ele>386.2</ele>
        <time>2026-05-09T11:59:43Z</time>
      </trkpt>
      <trkpt lat="46.11145" lon="5.40177">
        <ele>386.2</ele>
        <time>2026-05-09T11:59:44Z</time>
      </trkpt>
      <trkpt lat="46.11143" lon="5.40178">
        <ele>386.2</ele>
        <time>2026-05-09T11:59:45Z</time>
      </trkpt>
      <trkpt lat="46.11141" lon="5.40178">
        <ele>386.6</ele>
        <time>2026-05-09T11:59:46Z</time>
      </trkpt>
      <trkpt lat="46.11139" lon="5.40178">
        <ele>386.6</ele>
        <time>2026-05-09T11:59:47Z</time>
      </trkpt>
      <trkpt lat="46.11137" lon="5.40179">
        <ele>386.8</ele>
        <time>2026-05-09T11:59:48Z</time>
      </trkpt>
      <trkpt lat="46.11135" lon="5.4018">
        <ele>386.8</ele>
        <time>2026-05-09T11:59:49Z</time>
      </trkpt>
      <trkpt lat="46.11133" lon="5.4018">
        <ele>387.2</ele>
        <time>2026-05-09T11:59:50Z</time>
      </trkpt>
      <trkpt lat="46.11131" lon="5.40181">
        <ele>387.2</ele>
        <time>2026-05-09T11:59:51Z</time>
      </trkpt>
      <trkpt lat="46.11129" lon="5.40181">
        <ele>387.2</ele>
        <time>2026-05-09T11:59:52Z</time>
      </trkpt>
      <trkpt lat="46.11127" lon="5.40182">
        <ele>387.4</ele>
        <time>2026-05-09T11:59:53Z</time>
      </trkpt>
      <trkpt lat="46.11125" lon="5.40183">
        <ele>387.4</ele>
        <time>2026-05-09T11:59:54Z</time>
      </trkpt>
      <trkpt lat="46.11123" lon="5.40184">
        <ele>387.4</ele>
        <time>2026-05-09T11:59:55Z</time>
      </trkpt>
      <trkpt lat="46.11121" lon="5.40185">
        <ele>387.6</ele>
        <time>2026-05-09T11:59:56Z</time>
      </trkpt>
      <trkpt lat="46.11119" lon="5.40186">
        <ele>387.6</ele>
        <time>2026-05-09T11:59:57Z</time>
      </trkpt>
      <trkpt lat="46.11117" lon="5.40188">
        <ele>388</ele>
        <time>2026-05-09T11:59:58Z</time>
      </trkpt>
      <trkpt lat="46.11115" lon="5.4019">
        <ele>388</ele>
        <time>2026-05-09T11:59:59Z</time>
      </trkpt>
      <trkpt lat="46.11113" lon="5.40191">
        <ele>388.2</ele>
        <time>2026-05-09T12:00:00Z</time>
      </trkpt>
      <trkpt lat="46.11112" lon="5.40193">
        <ele>388.2</ele>
        <time>2026-05-09T12:00:01Z</time>
      </trkpt>
      <trkpt lat="46.1111" lon="5.40195">
        <ele>388.2</ele>
        <time>2026-05-09T12:00:02Z</time>
      </trkpt>
      <trkpt lat="46.1111" lon="5.40195">
        <ele>387.8</ele>
        <time>2026-05-09T12:00:03Z</time>
      </trkpt>
      <trkpt lat="46.1111" lon="5.40195">
        <ele>387.8</ele>
        <time>2026-05-09T12:00:04Z</time>
      </trkpt>
      <trkpt lat="46.1111" lon="5.40195">
        <ele>387.8</ele>
        <time>2026-05-09T12:00:05Z</time>
      </trkpt>
      <trkpt lat="46.11104" lon="5.40203">
        <ele>388</ele>
        <time>2026-05-09T12:00:06Z</time>
      </trkpt>
      <trkpt lat="46.11102" lon="5.40205">
        <ele>388</ele>
        <time>2026-05-09T12:00:07Z</time>
      </trkpt>
      <trkpt lat="46.11101" lon="5.40207">
        <ele>388</ele>
        <time>2026-05-09T12:00:08Z</time>
      </trkpt>
      <trkpt lat="46.111" lon="5.40209">
        <ele>388</ele>
        <time>2026-05-09T12:00:09Z</time>
      </trkpt>
      <trkpt lat="46.11099" lon="5.40211">
        <ele>388</ele>
        <time>2026-05-09T12:00:10Z</time>
      </trkpt>
      <trkpt lat="46.11098" lon="5.40213">
        <ele>388.4</ele>
        <time>2026-05-09T12:00:11Z</time>
      </trkpt>
      <trkpt lat="46.11096" lon="5.40216">
        <ele>388.6</ele>
        <time>2026-05-09T12:00:12Z</time>
      </trkpt>
      <trkpt lat="46.11094" lon="5.40218">
        <ele>388.6</ele>
        <time>2026-05-09T12:00:13Z</time>
      </trkpt>
      <trkpt lat="46.11093" lon="5.4022">
        <ele>388.8</ele>
        <time>2026-05-09T12:00:14Z</time>
      </trkpt>
      <trkpt lat="46.11091" lon="5.40222">
        <ele>388.8</ele>
        <time>2026-05-09T12:00:15Z</time>
      </trkpt>
      <trkpt lat="46.1109" lon="5.40224">
        <ele>388.8</ele>
        <time>2026-05-09T12:00:16Z</time>
      </trkpt>
      <trkpt lat="46.11088" lon="5.40226">
        <ele>388.8</ele>
        <time>2026-05-09T12:00:17Z</time>
      </trkpt>
      <trkpt lat="46.11087" lon="5.40228">
        <ele>389.2</ele>
        <time>2026-05-09T12:00:18Z</time>
      </trkpt>
      <trkpt lat="46.11085" lon="5.4023">
        <ele>389.2</ele>
        <time>2026-05-09T12:00:19Z</time>
      </trkpt>
      <trkpt lat="46.11084" lon="5.40233">
        <ele>389.4</ele>
        <time>2026-05-09T12:00:20Z</time>
      </trkpt>
      <trkpt lat="46.11083" lon="5.40235">
        <ele>389.4</ele>
        <time>2026-05-09T12:00:21Z</time>
      </trkpt>
      <trkpt lat="46.11082" lon="5.40237">
        <ele>389.4</ele>
        <time>2026-05-09T12:00:22Z</time>
      </trkpt>
      <trkpt lat="46.1108" lon="5.4024">
        <ele>389.6</ele>
        <time>2026-05-09T12:00:23Z</time>
      </trkpt>
      <trkpt lat="46.11079" lon="5.40242">
        <ele>389.6</ele>
        <time>2026-05-09T12:00:24Z</time>
      </trkpt>
      <trkpt lat="46.11078" lon="5.40244">
        <ele>390</ele>
        <time>2026-05-09T12:00:25Z</time>
      </trkpt>
      <trkpt lat="46.11077" lon="5.40246">
        <ele>390</ele>
        <time>2026-05-09T12:00:26Z</time>
      </trkpt>
      <trkpt lat="46.11076" lon="5.40249">
        <ele>390.2</ele>
        <time>2026-05-09T12:00:27Z</time>
      </trkpt>
      <trkpt lat="46.11075" lon="5.40251">
        <ele>390.2</ele>
        <time>2026-05-09T12:00:28Z</time>
      </trkpt>
      <trkpt lat="46.11074" lon="5.40253">
        <ele>390.4</ele>
        <time>2026-05-09T12:00:29Z</time>
      </trkpt>
      <trkpt lat="46.11072" lon="5.40254">
        <ele>390.6</ele>
        <time>2026-05-09T12:00:30Z</time>
      </trkpt>
      <trkpt lat="46.1107" lon="5.40256">
        <ele>390.6</ele>
        <time>2026-05-09T12:00:31Z</time>
      </trkpt>
      <trkpt lat="46.11069" lon="5.40258">
        <ele>391</ele>
        <time>2026-05-09T12:00:32Z</time>
      </trkpt>
      <trkpt lat="46.11068" lon="5.4026">
        <ele>391</ele>
        <time>2026-05-09T12:00:33Z</time>
      </trkpt>
      <trkpt lat="46.11066" lon="5.40263">
        <ele>391</ele>
        <time>2026-05-09T12:00:34Z</time>
      </trkpt>
      <trkpt lat="46.11065" lon="5.40265">
        <ele>391</ele>
        <time>2026-05-09T12:00:35Z</time>
      </trkpt>
      <trkpt lat="46.11064" lon="5.40267">
        <ele>391.2</ele>
        <time>2026-05-09T12:00:36Z</time>
      </trkpt>
      <trkpt lat="46.11063" lon="5.40269">
        <ele>391.2</ele>
        <time>2026-05-09T12:00:37Z</time>
      </trkpt>
      <trkpt lat="46.11061" lon="5.40271">
        <ele>391.2</ele>
        <time>2026-05-09T12:00:38Z</time>
      </trkpt>
      <trkpt lat="46.1106" lon="5.40272">
        <ele>391.2</ele>
        <time>2026-05-09T12:00:39Z</time>
      </trkpt>
      <trkpt lat="46.1106" lon="5.40274">
        <ele>391.4</ele>
        <time>2026-05-09T12:00:40Z</time>
      </trkpt>
      <trkpt lat="46.11059" lon="5.40276">
        <ele>391.4</ele>
        <time>2026-05-09T12:00:41Z</time>
      </trkpt>
      <trkpt lat="46.11058" lon="5.40278">
        <ele>391.4</ele>
        <time>2026-05-09T12:00:42Z</time>
      </trkpt>
      <trkpt lat="46.11057" lon="5.40279">
        <ele>391.4</ele>
        <time>2026-05-09T12:00:43Z</time>
      </trkpt>
      <trkpt lat="46.11056" lon="5.40281">
        <ele>391.4</ele>
        <time>2026-05-09T12:00:44Z</time>
      </trkpt>
      <trkpt lat="46.11056" lon="5.40283">
        <ele>391.4</ele>
        <time>2026-05-09T12:00:45Z</time>
      </trkpt>
      <trkpt lat="46.11055" lon="5.40285">
        <ele>391.4</ele>
        <time>2026-05-09T12:00:46Z</time>
      </trkpt>
      <trkpt lat="46.11055" lon="5.40286">
        <ele>391.4</ele>
        <time>2026-05-09T12:00:47Z</time>
      </trkpt>
      <trkpt lat="46.11055" lon="5.40287">
        <ele>391.4</ele>
        <time>2026-05-09T12:00:48Z</time>
      </trkpt>
      <trkpt lat="46.11054" lon="5.40288">
        <ele>391.4</ele>
        <time>2026-05-09T12:00:49Z</time>
      </trkpt>
      <trkpt lat="46.11054" lon="5.40289">
        <ele>391.4</ele>
        <time>2026-05-09T12:00:50Z</time>
      </trkpt>
      <trkpt lat="46.11054" lon="5.40291">
        <ele>391.4</ele>
        <time>2026-05-09T12:00:51Z</time>
      </trkpt>
      <trkpt lat="46.11054" lon="5.40293">
        <ele>391.4</ele>
        <time>2026-05-09T12:00:52Z</time>
      </trkpt>
      <trkpt lat="46.11053" lon="5.40295">
        <ele>391.4</ele>
        <time>2026-05-09T12:00:53Z</time>
      </trkpt>
      <trkpt lat="46.11053" lon="5.40296">
        <ele>391.4</ele>
        <time>2026-05-09T12:00:54Z</time>
      </trkpt>
      <trkpt lat="46.11054" lon="5.40297">
        <ele>391.4</ele>
        <time>2026-05-09T12:00:55Z</time>
      </trkpt>
      <trkpt lat="46.11054" lon="5.40298">
        <ele>391</ele>
        <time>2026-05-09T12:00:56Z</time>
      </trkpt>
      <trkpt lat="46.11054" lon="5.40298">
        <ele>391</ele>
        <time>2026-05-09T12:00:57Z</time>
      </trkpt>
      <trkpt lat="46.11055" lon="5.40298">
        <ele>391</ele>
        <time>2026-05-09T12:00:58Z</time>
      </trkpt>
      <trkpt lat="46.11056" lon="5.40298">
        <ele>391</ele>
        <time>2026-05-09T12:00:59Z</time>
      </trkpt>
      <trkpt lat="46.11057" lon="5.40296">
        <ele>391</ele>
        <time>2026-05-09T12:01:00Z</time>
      </trkpt>
      <trkpt lat="46.11057" lon="5.40296">
        <ele>391</ele>
        <time>2026-05-09T12:01:01Z</time>
      </trkpt>
      <trkpt lat="46.11058" lon="5.40291">
        <ele>391</ele>
        <time>2026-05-09T12:01:02Z</time>
      </trkpt>
      <trkpt lat="46.11056" lon="5.40288">
        <ele>391</ele>
        <time>2026-05-09T12:01:03Z</time>
      </trkpt>
      <trkpt lat="46.11055" lon="5.40286">
        <ele>391</ele>
        <time>2026-05-09T12:01:04Z</time>
      </trkpt>
      <trkpt lat="46.11053" lon="5.40284">
        <ele>391</ele>
        <time>2026-05-09T12:01:05Z</time>
      </trkpt>
      <trkpt lat="46.11052" lon="5.40282">
        <ele>391</ele>
        <time>2026-05-09T12:01:06Z</time>
      </trkpt>
      <trkpt lat="46.11052" lon="5.40281">
        <ele>391.4</ele>
        <time>2026-05-09T12:01:07Z</time>
      </trkpt>
      <trkpt lat="46.11051" lon="5.4028">
        <ele>391.8</ele>
        <time>2026-05-09T12:01:08Z</time>
      </trkpt>
      <trkpt lat="46.11049" lon="5.40279">
        <ele>391.8</ele>
        <time>2026-05-09T12:01:09Z</time>
      </trkpt>
      <trkpt lat="46.11047" lon="5.40278">
        <ele>391.8</ele>
        <time>2026-05-09T12:01:10Z</time>
      </trkpt>
      <trkpt lat="46.11046" lon="5.40277">
        <ele>391.8</ele>
        <time>2026-05-09T12:01:11Z</time>
      </trkpt>
      <trkpt lat="46.11046" lon="5.40277">
        <ele>392.2</ele>
        <time>2026-05-09T12:01:12Z</time>
      </trkpt>
      <trkpt lat="46.11045" lon="5.40276">
        <ele>392.2</ele>
        <time>2026-05-09T12:01:13Z</time>
      </trkpt>
      <trkpt lat="46.11045" lon="5.40276">
        <ele>391.6</ele>
        <time>2026-05-09T12:01:14Z</time>
      </trkpt>
      <trkpt lat="46.11043" lon="5.40275">
        <ele>391.6</ele>
        <time>2026-05-09T12:01:15Z</time>
      </trkpt>
      <trkpt lat="46.11042" lon="5.40274">
        <ele>392</ele>
        <time>2026-05-09T12:01:16Z</time>
      </trkpt>
      <trkpt lat="46.1104" lon="5.40272">
        <ele>392</ele>
        <time>2026-05-09T12:01:17Z</time>
      </trkpt>
      <trkpt lat="46.11038" lon="5.40271">
        <ele>392.2</ele>
        <time>2026-05-09T12:01:18Z</time>
      </trkpt>
      <trkpt lat="46.11037" lon="5.4027">
        <ele>392.2</ele>
        <time>2026-05-09T12:01:19Z</time>
      </trkpt>
      <trkpt lat="46.11035" lon="5.4027">
        <ele>392.6</ele>
        <time>2026-05-09T12:01:20Z</time>
      </trkpt>
      <trkpt lat="46.11035" lon="5.4027">
        <ele>392.6</ele>
        <time>2026-05-09T12:01:21Z</time>
      </trkpt>
      <trkpt lat="46.11033" lon="5.40269">
        <ele>392.6</ele>
        <time>2026-05-09T12:01:29Z</time>
      </trkpt>
      <trkpt lat="46.11032" lon="5.40269">
        <ele>392.6</ele>
        <time>2026-05-09T12:01:30Z</time>
      </trkpt>
      <trkpt lat="46.11032" lon="5.40269">
        <ele>392.6</ele>
        <time>2026-05-09T12:01:31Z</time>
      </trkpt>
      <trkpt lat="46.11031" lon="5.40269">
        <ele>392.6</ele>
        <time>2026-05-09T12:01:32Z</time>
      </trkpt>
      <trkpt lat="46.11031" lon="5.40269">
        <ele>392.6</ele>
        <time>2026-05-09T12:01:33Z</time>
      </trkpt>
      <trkpt lat="46.11029" lon="5.40269">
        <ele>392.6</ele>
        <time>2026-05-09T12:01:34Z</time>
      </trkpt>
      <trkpt lat="46.11028" lon="5.40268">
        <ele>392.6</ele>
        <time>2026-05-09T12:01:35Z</time>
      </trkpt>
      <trkpt lat="46.11027" lon="5.40268">
        <ele>392.6</ele>
        <time>2026-05-09T12:01:36Z</time>
      </trkpt>
      <trkpt lat="46.11027" lon="5.40268">
        <ele>392.6</ele>
        <time>2026-05-09T12:01:37Z</time>
      </trkpt>
      <trkpt lat="46.11027" lon="5.40269">
        <ele>392.6</ele>
        <time>2026-05-09T12:01:38Z</time>
      </trkpt>
      <trkpt lat="46.11027" lon="5.40269">
        <ele>392.8</ele>
        <time>2026-05-09T12:01:39Z</time>
      </trkpt>
      <trkpt lat="46.11027" lon="5.40269">
        <ele>392.8</ele>
        <time>2026-05-09T12:01:40Z</time>
      </trkpt>
      <trkpt lat="46.11026" lon="5.40269">
        <ele>392.8</ele>
        <time>2026-05-09T12:01:41Z</time>
      </trkpt>
      <trkpt lat="46.11024" lon="5.40268">
        <ele>392.8</ele>
        <time>2026-05-09T12:01:42Z</time>
      </trkpt>
      <trkpt lat="46.11024" lon="5.40268">
        <ele>392.8</ele>
        <time>2026-05-09T12:01:43Z</time>
      </trkpt>
      <trkpt lat="46.11023" lon="5.40268">
        <ele>392.8</ele>
        <time>2026-05-09T12:01:44Z</time>
      </trkpt>
      <trkpt lat="46.11021" lon="5.40267">
        <ele>392.8</ele>
        <time>2026-05-09T12:01:45Z</time>
      </trkpt>
      <trkpt lat="46.11021" lon="5.40267">
        <ele>392.8</ele>
        <time>2026-05-09T12:01:46Z</time>
      </trkpt>
      <trkpt lat="46.11021" lon="5.40266">
        <ele>392.8</ele>
        <time>2026-05-09T12:01:47Z</time>
      </trkpt>
      <trkpt lat="46.1102" lon="5.40264">
        <ele>392.6</ele>
        <time>2026-05-09T12:01:58Z</time>
      </trkpt>
      <trkpt lat="46.11018" lon="5.40263">
        <ele>392.6</ele>
        <time>2026-05-09T12:01:59Z</time>
      </trkpt>
      <trkpt lat="46.11017" lon="5.40264">
        <ele>392.8</ele>
        <time>2026-05-09T12:02:00Z</time>
      </trkpt>
      <trkpt lat="46.11015" lon="5.40265">
        <ele>392.8</ele>
        <time>2026-05-09T12:02:01Z</time>
      </trkpt>
      <trkpt lat="46.11016" lon="5.40265">
        <ele>392.8</ele>
        <time>2026-05-09T12:02:02Z</time>
      </trkpt>
      <trkpt lat="46.11016" lon="5.40265">
        <ele>392.8</ele>
        <time>2026-05-09T12:02:03Z</time>
      </trkpt>
      <trkpt lat="46.11016" lon="5.40268">
        <ele>392.6</ele>
        <time>2026-05-09T12:02:07Z</time>
      </trkpt>
      <trkpt lat="46.11016" lon="5.40268">
        <ele>392.6</ele>
        <time>2026-05-09T12:02:08Z</time>
      </trkpt>
      <trkpt lat="46.11017" lon="5.40269">
        <ele>392.6</ele>
        <time>2026-05-09T12:02:09Z</time>
      </trkpt>
      <trkpt lat="46.11018" lon="5.4027">
        <ele>392.6</ele>
        <time>2026-05-09T12:02:10Z</time>
      </trkpt>
      <trkpt lat="46.1102" lon="5.40271">
        <ele>392.6</ele>
        <time>2026-05-09T12:02:11Z</time>
      </trkpt>
      <trkpt lat="46.11022" lon="5.40271">
        <ele>392.6</ele>
        <time>2026-05-09T12:02:12Z</time>
      </trkpt>
      <trkpt lat="46.11023" lon="5.40271">
        <ele>392.6</ele>
        <time>2026-05-09T12:02:13Z</time>
      </trkpt>
      <trkpt lat="46.11024" lon="5.40271">
        <ele>392.6</ele>
        <time>2026-05-09T12:02:14Z</time>
      </trkpt>
      <trkpt lat="46.11026" lon="5.4027">
        <ele>392.4</ele>
        <time>2026-05-09T12:02:15Z</time>
      </trkpt>
      <trkpt lat="46.11027" lon="5.4027">
        <ele>392.4</ele>
        <time>2026-05-09T12:02:16Z</time>
      </trkpt>
      <trkpt lat="46.11029" lon="5.4027">
        <ele>392.4</ele>
        <time>2026-05-09T12:02:17Z</time>
      </trkpt>
      <trkpt lat="46.1103" lon="5.4027">
        <ele>392.4</ele>
        <time>2026-05-09T12:02:18Z</time>
      </trkpt>
      <trkpt lat="46.1103" lon="5.4027">
        <ele>392.4</ele>
        <time>2026-05-09T12:02:19Z</time>
      </trkpt>
      <trkpt lat="46.11031" lon="5.4027">
        <ele>392.4</ele>
        <time>2026-05-09T12:02:20Z</time>
      </trkpt>
      <trkpt lat="46.11032" lon="5.4027">
        <ele>392.4</ele>
        <time>2026-05-09T12:02:21Z</time>
      </trkpt>
      <trkpt lat="46.11032" lon="5.4027">
        <ele>392.4</ele>
        <time>2026-05-09T12:02:22Z</time>
      </trkpt>
      <trkpt lat="46.11033" lon="5.40271">
        <ele>392.4</ele>
        <time>2026-05-09T12:02:23Z</time>
      </trkpt>
      <trkpt lat="46.11034" lon="5.40271">
        <ele>392.6</ele>
        <time>2026-05-09T12:02:24Z</time>
      </trkpt>
      <trkpt lat="46.11035" lon="5.40272">
        <ele>392.6</ele>
        <time>2026-05-09T12:02:25Z</time>
      </trkpt>
      <trkpt lat="46.11036" lon="5.40272">
        <ele>392.6</ele>
        <time>2026-05-09T12:02:26Z</time>
      </trkpt>
      <trkpt lat="46.11037" lon="5.40273">
        <ele>392.6</ele>
        <time>2026-05-09T12:02:27Z</time>
      </trkpt>
      <trkpt lat="46.11037" lon="5.40273">
        <ele>392.6</ele>
        <time>2026-05-09T12:02:28Z</time>
      </trkpt>
      <trkpt lat="46.11038" lon="5.40273">
        <ele>392.6</ele>
        <time>2026-05-09T12:02:29Z</time>
      </trkpt>
      <trkpt lat="46.11039" lon="5.40274">
        <ele>392.6</ele>
        <time>2026-05-09T12:02:30Z</time>
      </trkpt>
      <trkpt lat="46.1104" lon="5.40275">
        <ele>392.6</ele>
        <time>2026-05-09T12:02:31Z</time>
      </trkpt>
      <trkpt lat="46.11041" lon="5.40275">
        <ele>392.6</ele>
        <time>2026-05-09T12:02:32Z</time>
      </trkpt>
      <trkpt lat="46.11042" lon="5.40276">
        <ele>392.6</ele>
        <time>2026-05-09T12:02:33Z</time>
      </trkpt>
      <trkpt lat="46.11043" lon="5.40277">
        <ele>392.6</ele>
        <time>2026-05-09T12:02:34Z</time>
      </trkpt>
      <trkpt lat="46.11044" lon="5.40277">
        <ele>392.6</ele>
        <time>2026-05-09T12:02:35Z</time>
      </trkpt>
      <trkpt lat="46.11044" lon="5.40278">
        <ele>392.6</ele>
        <time>2026-05-09T12:02:36Z</time>
      </trkpt>
      <trkpt lat="46.11045" lon="5.40277">
        <ele>392.6</ele>
        <time>2026-05-09T12:02:37Z</time>
      </trkpt>
      <trkpt lat="46.11045" lon="5.40277">
        <ele>392.6</ele>
        <time>2026-05-09T12:02:38Z</time>
      </trkpt>
      <trkpt lat="46.11045" lon="5.40277">
        <ele>392.6</ele>
        <time>2026-05-09T12:02:39Z</time>
      </trkpt>
      <trkpt lat="46.11044" lon="5.40278">
        <ele>392.6</ele>
        <time>2026-05-09T12:02:40Z</time>
      </trkpt>
      <trkpt lat="46.11044" lon="5.40279">
        <ele>392.6</ele>
        <time>2026-05-09T12:02:41Z</time>
      </trkpt>
      <trkpt lat="46.11044" lon="5.40278">
        <ele>392.6</ele>
        <time>2026-05-09T12:02:42Z</time>
      </trkpt>
      <trkpt lat="46.11044" lon="5.40278">
        <ele>392.6</ele>
        <time>2026-05-09T12:02:43Z</time>
      </trkpt>
      <trkpt lat="46.11044" lon="5.40278">
        <ele>392.6</ele>
        <time>2026-05-09T12:02:44Z</time>
      </trkpt>
      <trkpt lat="46.11045" lon="5.40277">
        <ele>392.6</ele>
        <time>2026-05-09T12:02:45Z</time>
      </trkpt>
      <trkpt lat="46.11064" lon="5.40313">
        <ele>388</ele>
        <time>2026-05-09T12:36:16Z</time>
      </trkpt>
      <trkpt lat="46.11063" lon="5.40317">
        <ele>388.4</ele>
        <time>2026-05-09T12:36:17Z</time>
      </trkpt>
      <trkpt lat="46.11063" lon="5.4032">
        <ele>388.4</ele>
        <time>2026-05-09T12:36:18Z</time>
      </trkpt>
      <trkpt lat="46.11063" lon="5.40324">
        <ele>388.4</ele>
        <time>2026-05-09T12:36:19Z</time>
      </trkpt>
      <trkpt lat="46.11063" lon="5.40328">
        <ele>388.4</ele>
        <time>2026-05-09T12:36:20Z</time>
      </trkpt>
      <trkpt lat="46.11063" lon="5.40333">
        <ele>388.4</ele>
        <time>2026-05-09T12:36:21Z</time>
      </trkpt>
      <trkpt lat="46.11063" lon="5.40338">
        <ele>388.4</ele>
        <time>2026-05-09T12:36:22Z</time>
      </trkpt>
      <trkpt lat="46.11062" lon="5.40344">
        <ele>388.2</ele>
        <time>2026-05-09T12:36:23Z</time>
      </trkpt>
      <trkpt lat="46.1106" lon="5.40349">
        <ele>388.2</ele>
        <time>2026-05-09T12:36:24Z</time>
      </trkpt>
      <trkpt lat="46.11058" lon="5.40355">
        <ele>388.2</ele>
        <time>2026-05-09T12:36:25Z</time>
      </trkpt>
      <trkpt lat="46.11057" lon="5.4036">
        <ele>387.8</ele>
        <time>2026-05-09T12:36:26Z</time>
      </trkpt>
      <trkpt lat="46.11054" lon="5.40366">
        <ele>387.6</ele>
        <time>2026-05-09T12:36:27Z</time>
      </trkpt>
      <trkpt lat="46.11051" lon="5.40372">
        <ele>387.6</ele>
        <time>2026-05-09T12:36:28Z</time>
      </trkpt>
      <trkpt lat="46.11048" lon="5.40377">
        <ele>387.4</ele>
        <time>2026-05-09T12:36:29Z</time>
      </trkpt>
      <trkpt lat="46.11044" lon="5.40381">
        <ele>387.4</ele>
        <time>2026-05-09T12:36:30Z</time>
      </trkpt>
      <trkpt lat="46.1104" lon="5.40385">
        <ele>387.4</ele>
        <time>2026-05-09T12:36:31Z</time>
      </trkpt>
      <trkpt lat="46.11036" lon="5.40388">
        <ele>387</ele>
        <time>2026-05-09T12:36:32Z</time>
      </trkpt>
      <trkpt lat="46.11031" lon="5.40392">
        <ele>387</ele>
        <time>2026-05-09T12:36:33Z</time>
      </trkpt>
      <trkpt lat="46.11026" lon="5.40396">
        <ele>387</ele>
        <time>2026-05-09T12:36:34Z</time>
      </trkpt>
      <trkpt lat="46.11021" lon="5.40399">
        <ele>386.4</ele>
        <time>2026-05-09T12:36:35Z</time>
      </trkpt>
      <trkpt lat="46.11015" lon="5.40403">
        <ele>386.4</ele>
        <time>2026-05-09T12:36:36Z</time>
      </trkpt>
      <trkpt lat="46.1101" lon="5.40406">
        <ele>386</ele>
        <time>2026-05-09T12:36:37Z</time>
      </trkpt>
      <trkpt lat="46.11005" lon="5.4041">
        <ele>385.6</ele>
        <time>2026-05-09T12:36:38Z</time>
      </trkpt>
      <trkpt lat="46.11" lon="5.40412">
        <ele>385.6</ele>
        <time>2026-05-09T12:36:39Z</time>
      </trkpt>
      <trkpt lat="46.10994" lon="5.40416">
        <ele>385</ele>
        <time>2026-05-09T12:36:40Z</time>
      </trkpt>
      <trkpt lat="46.10989" lon="5.4042">
        <ele>385</ele>
        <time>2026-05-09T12:36:41Z</time>
      </trkpt>
      <trkpt lat="46.10984" lon="5.40423">
        <ele>384.6</ele>
        <time>2026-05-09T12:36:42Z</time>
      </trkpt>
      <trkpt lat="46.10978" lon="5.40426">
        <ele>384.6</ele>
        <time>2026-05-09T12:36:43Z</time>
      </trkpt>
      <trkpt lat="46.10973" lon="5.4043">
        <ele>383.6</ele>
        <time>2026-05-09T12:36:44Z</time>
      </trkpt>
      <trkpt lat="46.10967" lon="5.40433">
        <ele>383.4</ele>
        <time>2026-05-09T12:36:45Z</time>
      </trkpt>
      <trkpt lat="46.10962" lon="5.40437">
        <ele>383.4</ele>
        <time>2026-05-09T12:36:46Z</time>
      </trkpt>
      <trkpt lat="46.10956" lon="5.4044">
        <ele>382.8</ele>
        <time>2026-05-09T12:36:47Z</time>
      </trkpt>
      <trkpt lat="46.10945" lon="5.40445">
        <ele>382.4</ele>
        <time>2026-05-09T12:36:48Z</time>
      </trkpt>
      <trkpt lat="46.10938" lon="5.40447">
        <ele>382.4</ele>
        <time>2026-05-09T12:36:49Z</time>
      </trkpt>
      <trkpt lat="46.10932" lon="5.40449">
        <ele>382</ele>
        <time>2026-05-09T12:36:50Z</time>
      </trkpt>
      <trkpt lat="46.10926" lon="5.4045">
        <ele>381.8</ele>
        <time>2026-05-09T12:36:51Z</time>
      </trkpt>
      <trkpt lat="46.10918" lon="5.4045">
        <ele>381.6</ele>
        <time>2026-05-09T12:36:52Z</time>
      </trkpt>
      <trkpt lat="46.10912" lon="5.40449">
        <ele>381.6</ele>
        <time>2026-05-09T12:36:53Z</time>
      </trkpt>
      <trkpt lat="46.10905" lon="5.40448">
        <ele>381</ele>
        <time>2026-05-09T12:36:54Z</time>
      </trkpt>
      <trkpt lat="46.109" lon="5.40447">
        <ele>380.6</ele>
        <time>2026-05-09T12:36:55Z</time>
      </trkpt>
      <trkpt lat="46.10894" lon="5.40446">
        <ele>380.4</ele>
        <time>2026-05-09T12:36:56Z</time>
      </trkpt>
      <trkpt lat="46.10887" lon="5.40444">
        <ele>380</ele>
        <time>2026-05-09T12:36:57Z</time>
      </trkpt>
      <trkpt lat="46.1088" lon="5.40442">
        <ele>379.4</ele>
        <time>2026-05-09T12:36:58Z</time>
      </trkpt>
      <trkpt lat="46.10873" lon="5.4044">
        <ele>379</ele>
        <time>2026-05-09T12:36:59Z</time>
      </trkpt>
      <trkpt lat="46.10866" lon="5.40442">
        <ele>378.6</ele>
        <time>2026-05-09T12:37:00Z</time>
      </trkpt>
      <trkpt lat="46.10861" lon="5.40442">
        <ele>378</ele>
        <time>2026-05-09T12:37:01Z</time>
      </trkpt>
      <trkpt lat="46.10855" lon="5.40443">
        <ele>377.4</ele>
        <time>2026-05-09T12:37:02Z</time>
      </trkpt>
      <trkpt lat="46.10847" lon="5.40446">
        <ele>376.8</ele>
        <time>2026-05-09T12:37:03Z</time>
      </trkpt>
      <trkpt lat="46.10841" lon="5.4045">
        <ele>376.6</ele>
        <time>2026-05-09T12:37:04Z</time>
      </trkpt>
      <trkpt lat="46.10834" lon="5.40452">
        <ele>376.6</ele>
        <time>2026-05-09T12:37:05Z</time>
      </trkpt>
      <trkpt lat="46.10826" lon="5.40455">
        <ele>376</ele>
        <time>2026-05-09T12:37:06Z</time>
      </trkpt>
      <trkpt lat="46.10818" lon="5.40459">
        <ele>375.6</ele>
        <time>2026-05-09T12:37:07Z</time>
      </trkpt>
      <trkpt lat="46.10811" lon="5.40462">
        <ele>375</ele>
        <time>2026-05-09T12:37:08Z</time>
      </trkpt>
      <trkpt lat="46.10804" lon="5.40464">
        <ele>374.4</ele>
        <time>2026-05-09T12:37:09Z</time>
      </trkpt>
      <trkpt lat="46.10798" lon="5.40467">
        <ele>374</ele>
        <time>2026-05-09T12:37:10Z</time>
      </trkpt>
      <trkpt lat="46.10791" lon="5.4047">
        <ele>373.6</ele>
        <time>2026-05-09T12:37:11Z</time>
      </trkpt>
      <trkpt lat="46.10785" lon="5.40473">
        <ele>373.2</ele>
        <time>2026-05-09T12:37:12Z</time>
      </trkpt>
      <trkpt lat="46.10777" lon="5.40476">
        <ele>372.8</ele>
        <time>2026-05-09T12:37:13Z</time>
      </trkpt>
      <trkpt lat="46.10771" lon="5.40478">
        <ele>372.2</ele>
        <time>2026-05-09T12:37:14Z</time>
      </trkpt>
      <trkpt lat="46.10765" lon="5.40481">
        <ele>371.4</ele>
        <time>2026-05-09T12:37:15Z</time>
      </trkpt>
      <trkpt lat="46.1076" lon="5.40484">
        <ele>371.4</ele>
        <time>2026-05-09T12:37:16Z</time>
      </trkpt>
      <trkpt lat="46.10754" lon="5.40488">
        <ele>371</ele>
        <time>2026-05-09T12:37:17Z</time>
      </trkpt>
      <trkpt lat="46.10749" lon="5.40492">
        <ele>370.4</ele>
        <time>2026-05-09T12:37:18Z</time>
      </trkpt>
      <trkpt lat="46.10745" lon="5.405">
        <ele>370.2</ele>
        <time>2026-05-09T12:37:19Z</time>
      </trkpt>
      <trkpt lat="46.10741" lon="5.40509">
        <ele>369.6</ele>
        <time>2026-05-09T12:37:20Z</time>
      </trkpt>
      <trkpt lat="46.10737" lon="5.40518">
        <ele>369.2</ele>
        <time>2026-05-09T12:37:21Z</time>
      </trkpt>
      <trkpt lat="46.10733" lon="5.40528">
        <ele>368.8</ele>
        <time>2026-05-09T12:37:22Z</time>
      </trkpt>
      <trkpt lat="46.10731" lon="5.40538">
        <ele>368.2</ele>
        <time>2026-05-09T12:37:23Z</time>
      </trkpt>
      <trkpt lat="46.10728" lon="5.40548">
        <ele>368</ele>
        <time>2026-05-09T12:37:24Z</time>
      </trkpt>
      <trkpt lat="46.10726" lon="5.40558">
        <ele>367.6</ele>
        <time>2026-05-09T12:37:25Z</time>
      </trkpt>
      <trkpt lat="46.10721" lon="5.40567">
        <ele>367.2</ele>
        <time>2026-05-09T12:37:26Z</time>
      </trkpt>
      <trkpt lat="46.10716" lon="5.40574">
        <ele>367</ele>
        <time>2026-05-09T12:37:27Z</time>
      </trkpt>
      <trkpt lat="46.1071" lon="5.40582">
        <ele>366.6</ele>
        <time>2026-05-09T12:37:28Z</time>
      </trkpt>
      <trkpt lat="46.10703" lon="5.40588">
        <ele>366</ele>
        <time>2026-05-09T12:37:29Z</time>
      </trkpt>
      <trkpt lat="46.10696" lon="5.40594">
        <ele>365.6</ele>
        <time>2026-05-09T12:37:30Z</time>
      </trkpt>
      <trkpt lat="46.10688" lon="5.40598">
        <ele>365</ele>
        <time>2026-05-09T12:37:31Z</time>
      </trkpt>
      <trkpt lat="46.1068" lon="5.40599">
        <ele>364.4</ele>
        <time>2026-05-09T12:37:32Z</time>
      </trkpt>
      <trkpt lat="46.10671" lon="5.40601">
        <ele>363.8</ele>
        <time>2026-05-09T12:37:33Z</time>
      </trkpt>
      <trkpt lat="46.10663" lon="5.40601">
        <ele>363.2</ele>
        <time>2026-05-09T12:37:34Z</time>
      </trkpt>
      <trkpt lat="46.10655" lon="5.40601">
        <ele>363.2</ele>
        <time>2026-05-09T12:37:35Z</time>
      </trkpt>
      <trkpt lat="46.10646" lon="5.406">
        <ele>362.6</ele>
        <time>2026-05-09T12:37:36Z</time>
      </trkpt>
      <trkpt lat="46.10638" lon="5.406">
        <ele>362.2</ele>
        <time>2026-05-09T12:37:37Z</time>
      </trkpt>
      <trkpt lat="46.1063" lon="5.40599">
        <ele>362.2</ele>
        <time>2026-05-09T12:37:38Z</time>
      </trkpt>
      <trkpt lat="46.10622" lon="5.40599">
        <ele>361.6</ele>
        <time>2026-05-09T12:37:39Z</time>
      </trkpt>
      <trkpt lat="46.10614" lon="5.40599">
        <ele>361</ele>
        <time>2026-05-09T12:37:40Z</time>
      </trkpt>
      <trkpt lat="46.10606" lon="5.40597">
        <ele>360.4</ele>
        <time>2026-05-09T12:37:41Z</time>
      </trkpt>
      <trkpt lat="46.10599" lon="5.40596">
        <ele>360.2</ele>
        <time>2026-05-09T12:37:42Z</time>
      </trkpt>
      <trkpt lat="46.10591" lon="5.40595">
        <ele>359.8</ele>
        <time>2026-05-09T12:37:43Z</time>
      </trkpt>
      <trkpt lat="46.10583" lon="5.40593">
        <ele>359.4</ele>
        <time>2026-05-09T12:37:44Z</time>
      </trkpt>
      <trkpt lat="46.10575" lon="5.40591">
        <ele>359.2</ele>
        <time>2026-05-09T12:37:45Z</time>
      </trkpt>
      <trkpt lat="46.10567" lon="5.40588">
        <ele>358.4</ele>
        <time>2026-05-09T12:37:46Z</time>
      </trkpt>
      <trkpt lat="46.10559" lon="5.40586">
        <ele>357.8</ele>
        <time>2026-05-09T12:37:47Z</time>
      </trkpt>
      <trkpt lat="46.1055" lon="5.40584">
        <ele>357</ele>
        <time>2026-05-09T12:37:48Z</time>
      </trkpt>
      <trkpt lat="46.10541" lon="5.40581">
        <ele>356.6</ele>
        <time>2026-05-09T12:37:49Z</time>
      </trkpt>
      <trkpt lat="46.10532" lon="5.40578">
        <ele>356</ele>
        <time>2026-05-09T12:37:50Z</time>
      </trkpt>
      <trkpt lat="46.10523" lon="5.40575">
        <ele>355.4</ele>
        <time>2026-05-09T12:37:51Z</time>
      </trkpt>
      <trkpt lat="46.10513" lon="5.40572">
        <ele>354.8</ele>
        <time>2026-05-09T12:37:52Z</time>
      </trkpt>
      <trkpt lat="46.10504" lon="5.40569">
        <ele>354.4</ele>
        <time>2026-05-09T12:37:53Z</time>
      </trkpt>
      <trkpt lat="46.10494" lon="5.40567">
        <ele>353.8</ele>
        <time>2026-05-09T12:37:54Z</time>
      </trkpt>
      <trkpt lat="46.10484" lon="5.40566">
        <ele>353.2</ele>
        <time>2026-05-09T12:37:55Z</time>
      </trkpt>
      <trkpt lat="46.10474" lon="5.40564">
        <ele>352.8</ele>
        <time>2026-05-09T12:37:56Z</time>
      </trkpt>
      <trkpt lat="46.10464" lon="5.40563">
        <ele>352.6</ele>
        <time>2026-05-09T12:37:57Z</time>
      </trkpt>
      <trkpt lat="46.10453" lon="5.40561">
        <ele>352</ele>
        <time>2026-05-09T12:37:58Z</time>
      </trkpt>
      <trkpt lat="46.10443" lon="5.4056">
        <ele>351.2</ele>
        <time>2026-05-09T12:37:59Z</time>
      </trkpt>
      <trkpt lat="46.10433" lon="5.40559">
        <ele>350.6</ele>
        <time>2026-05-09T12:38:00Z</time>
      </trkpt>
      <trkpt lat="46.10422" lon="5.40557">
        <ele>349.8</ele>
        <time>2026-05-09T12:38:01Z</time>
      </trkpt>
      <trkpt lat="46.10411" lon="5.40554">
        <ele>349.2</ele>
        <time>2026-05-09T12:38:02Z</time>
      </trkpt>
      <trkpt lat="46.10411" lon="5.40554">
        <ele>348.8</ele>
        <time>2026-05-09T12:38:03Z</time>
      </trkpt>
      <trkpt lat="46.104" lon="5.40551">
        <ele>348.2</ele>
        <time>2026-05-09T12:38:04Z</time>
      </trkpt>
      <trkpt lat="46.1039" lon="5.40548">
        <ele>347.6</ele>
        <time>2026-05-09T12:38:05Z</time>
      </trkpt>
      <trkpt lat="46.10379" lon="5.40545">
        <ele>347</ele>
        <time>2026-05-09T12:38:06Z</time>
      </trkpt>
      <trkpt lat="46.10369" lon="5.40542">
        <ele>346.4</ele>
        <time>2026-05-09T12:38:07Z</time>
      </trkpt>
      <trkpt lat="46.10359" lon="5.40539">
        <ele>346.2</ele>
        <time>2026-05-09T12:38:08Z</time>
      </trkpt>
      <trkpt lat="46.10348" lon="5.40537">
        <ele>345.6</ele>
        <time>2026-05-09T12:38:09Z</time>
      </trkpt>
      <trkpt lat="46.10338" lon="5.40535">
        <ele>345.2</ele>
        <time>2026-05-09T12:38:10Z</time>
      </trkpt>
      <trkpt lat="46.10327" lon="5.40533">
        <ele>344.8</ele>
        <time>2026-05-09T12:38:11Z</time>
      </trkpt>
      <trkpt lat="46.10316" lon="5.40531">
        <ele>344.4</ele>
        <time>2026-05-09T12:38:12Z</time>
      </trkpt>
      <trkpt lat="46.10305" lon="5.40529">
        <ele>343.6</ele>
        <time>2026-05-09T12:38:13Z</time>
      </trkpt>
      <trkpt lat="46.10294" lon="5.40528">
        <ele>342.8</ele>
        <time>2026-05-09T12:38:14Z</time>
      </trkpt>
      <trkpt lat="46.10283" lon="5.40526">
        <ele>342.2</ele>
        <time>2026-05-09T12:38:15Z</time>
      </trkpt>
      <trkpt lat="46.10273" lon="5.40524">
        <ele>341.4</ele>
        <time>2026-05-09T12:38:16Z</time>
      </trkpt>
      <trkpt lat="46.10262" lon="5.40522">
        <ele>340.8</ele>
        <time>2026-05-09T12:38:17Z</time>
      </trkpt>
      <trkpt lat="46.1025" lon="5.40519">
        <ele>340.2</ele>
        <time>2026-05-09T12:38:18Z</time>
      </trkpt>
      <trkpt lat="46.1024" lon="5.40516">
        <ele>339.8</ele>
        <time>2026-05-09T12:38:19Z</time>
      </trkpt>
      <trkpt lat="46.10229" lon="5.40511">
        <ele>339</ele>
        <time>2026-05-09T12:38:20Z</time>
      </trkpt>
      <trkpt lat="46.10218" lon="5.40507">
        <ele>338.4</ele>
        <time>2026-05-09T12:38:21Z</time>
      </trkpt>
      <trkpt lat="46.10208" lon="5.40502">
        <ele>338.4</ele>
        <time>2026-05-09T12:38:22Z</time>
      </trkpt>
      <trkpt lat="46.10197" lon="5.40498">
        <ele>337.8</ele>
        <time>2026-05-09T12:38:23Z</time>
      </trkpt>
      <trkpt lat="46.10186" lon="5.40494">
        <ele>337.2</ele>
        <time>2026-05-09T12:38:24Z</time>
      </trkpt>
      <trkpt lat="46.10176" lon="5.40489">
        <ele>336.6</ele>
        <time>2026-05-09T12:38:25Z</time>
      </trkpt>
      <trkpt lat="46.10165" lon="5.40483">
        <ele>335.8</ele>
        <time>2026-05-09T12:38:26Z</time>
      </trkpt>
      <trkpt lat="46.10154" lon="5.40478">
        <ele>335</ele>
        <time>2026-05-09T12:38:27Z</time>
      </trkpt>
      <trkpt lat="46.10143" lon="5.40474">
        <ele>334.4</ele>
        <time>2026-05-09T12:38:28Z</time>
      </trkpt>
      <trkpt lat="46.10132" lon="5.4047">
        <ele>333.6</ele>
        <time>2026-05-09T12:38:29Z</time>
      </trkpt>
      <trkpt lat="46.10121" lon="5.40465">
        <ele>332.8</ele>
        <time>2026-05-09T12:38:30Z</time>
      </trkpt>
      <trkpt lat="46.1011" lon="5.4046">
        <ele>332.2</ele>
        <time>2026-05-09T12:38:31Z</time>
      </trkpt>
      <trkpt lat="46.10098" lon="5.40455">
        <ele>331.6</ele>
        <time>2026-05-09T12:38:32Z</time>
      </trkpt>
      <trkpt lat="46.10086" lon="5.4045">
        <ele>331</ele>
        <time>2026-05-09T12:38:33Z</time>
      </trkpt>
      <trkpt lat="46.10075" lon="5.40446">
        <ele>330.2</ele>
        <time>2026-05-09T12:38:34Z</time>
      </trkpt>
      <trkpt lat="46.10063" lon="5.40442">
        <ele>329.4</ele>
        <time>2026-05-09T12:38:35Z</time>
      </trkpt>
      <trkpt lat="46.10052" lon="5.40437">
        <ele>328.8</ele>
        <time>2026-05-09T12:38:36Z</time>
      </trkpt>
      <trkpt lat="46.10041" lon="5.40432">
        <ele>328.4</ele>
        <time>2026-05-09T12:38:37Z</time>
      </trkpt>
      <trkpt lat="46.10029" lon="5.40428">
        <ele>327.8</ele>
        <time>2026-05-09T12:38:38Z</time>
      </trkpt>
      <trkpt lat="46.10018" lon="5.40424">
        <ele>327.4</ele>
        <time>2026-05-09T12:38:39Z</time>
      </trkpt>
      <trkpt lat="46.10007" lon="5.4042">
        <ele>326.8</ele>
        <time>2026-05-09T12:38:40Z</time>
      </trkpt>
      <trkpt lat="46.09996" lon="5.40415">
        <ele>325.8</ele>
        <time>2026-05-09T12:38:41Z</time>
      </trkpt>
      <trkpt lat="46.09985" lon="5.40411">
        <ele>325</ele>
        <time>2026-05-09T12:38:42Z</time>
      </trkpt>
      <trkpt lat="46.09975" lon="5.40407">
        <ele>324.8</ele>
        <time>2026-05-09T12:38:43Z</time>
      </trkpt>
      <trkpt lat="46.09964" lon="5.40402">
        <ele>324</ele>
        <time>2026-05-09T12:38:44Z</time>
      </trkpt>
      <trkpt lat="46.09954" lon="5.40399">
        <ele>323.2</ele>
        <time>2026-05-09T12:38:45Z</time>
      </trkpt>
      <trkpt lat="46.09944" lon="5.40395">
        <ele>322.6</ele>
        <time>2026-05-09T12:38:46Z</time>
      </trkpt>
      <trkpt lat="46.09933" lon="5.40391">
        <ele>322</ele>
        <time>2026-05-09T12:38:47Z</time>
      </trkpt>
      <trkpt lat="46.09922" lon="5.40388">
        <ele>321</ele>
        <time>2026-05-09T12:38:48Z</time>
      </trkpt>
      <trkpt lat="46.09911" lon="5.40385">
        <ele>320</ele>
        <time>2026-05-09T12:38:49Z</time>
      </trkpt>
      <trkpt lat="46.099" lon="5.40382">
        <ele>319</ele>
        <time>2026-05-09T12:38:50Z</time>
      </trkpt>
      <trkpt lat="46.09889" lon="5.40378">
        <ele>318.6</ele>
        <time>2026-05-09T12:38:51Z</time>
      </trkpt>
      <trkpt lat="46.09878" lon="5.40375">
        <ele>318</ele>
        <time>2026-05-09T12:38:52Z</time>
      </trkpt>
      <trkpt lat="46.09867" lon="5.40371">
        <ele>317.4</ele>
        <time>2026-05-09T12:38:53Z</time>
      </trkpt>
      <trkpt lat="46.09855" lon="5.40368">
        <ele>316.8</ele>
        <time>2026-05-09T12:38:54Z</time>
      </trkpt>
      <trkpt lat="46.09844" lon="5.40365">
        <ele>316</ele>
        <time>2026-05-09T12:38:55Z</time>
      </trkpt>
      <trkpt lat="46.09832" lon="5.40362">
        <ele>315.4</ele>
        <time>2026-05-09T12:38:56Z</time>
      </trkpt>
      <trkpt lat="46.09821" lon="5.4036">
        <ele>315.2</ele>
        <time>2026-05-09T12:38:57Z</time>
      </trkpt>
      <trkpt lat="46.09809" lon="5.40357">
        <ele>314.6</ele>
        <time>2026-05-09T12:38:58Z</time>
      </trkpt>
      <trkpt lat="46.09798" lon="5.40355">
        <ele>313.8</ele>
        <time>2026-05-09T12:38:59Z</time>
      </trkpt>
      <trkpt lat="46.09786" lon="5.40353">
        <ele>313</ele>
        <time>2026-05-09T12:39:00Z</time>
      </trkpt>
      <trkpt lat="46.09775" lon="5.4035">
        <ele>312.2</ele>
        <time>2026-05-09T12:39:01Z</time>
      </trkpt>
      <trkpt lat="46.09763" lon="5.40348">
        <ele>311.4</ele>
        <time>2026-05-09T12:39:02Z</time>
      </trkpt>
      <trkpt lat="46.09752" lon="5.40345">
        <ele>310.6</ele>
        <time>2026-05-09T12:39:03Z</time>
      </trkpt>
      <trkpt lat="46.0974" lon="5.40343">
        <ele>309.8</ele>
        <time>2026-05-09T12:39:04Z</time>
      </trkpt>
      <trkpt lat="46.09729" lon="5.40339">
        <ele>309.2</ele>
        <time>2026-05-09T12:39:05Z</time>
      </trkpt>
      <trkpt lat="46.09717" lon="5.40336">
        <ele>308.8</ele>
        <time>2026-05-09T12:39:06Z</time>
      </trkpt>
      <trkpt lat="46.09705" lon="5.40333">
        <ele>308</ele>
        <time>2026-05-09T12:39:07Z</time>
      </trkpt>
      <trkpt lat="46.09693" lon="5.4033">
        <ele>307.6</ele>
        <time>2026-05-09T12:39:08Z</time>
      </trkpt>
      <trkpt lat="46.09681" lon="5.40327">
        <ele>307</ele>
        <time>2026-05-09T12:39:09Z</time>
      </trkpt>
      <trkpt lat="46.09669" lon="5.40324">
        <ele>306</ele>
        <time>2026-05-09T12:39:10Z</time>
      </trkpt>
      <trkpt lat="46.09657" lon="5.40322">
        <ele>305.4</ele>
        <time>2026-05-09T12:39:11Z</time>
      </trkpt>
      <trkpt lat="46.09645" lon="5.4032">
        <ele>304.8</ele>
        <time>2026-05-09T12:39:12Z</time>
      </trkpt>
      <trkpt lat="46.09633" lon="5.40317">
        <ele>304</ele>
        <time>2026-05-09T12:39:13Z</time>
      </trkpt>
      <trkpt lat="46.09621" lon="5.40314">
        <ele>303.4</ele>
        <time>2026-05-09T12:39:14Z</time>
      </trkpt>
      <trkpt lat="46.09609" lon="5.40311">
        <ele>302.6</ele>
        <time>2026-05-09T12:39:15Z</time>
      </trkpt>
      <trkpt lat="46.09597" lon="5.40308">
        <ele>301.6</ele>
        <time>2026-05-09T12:39:16Z</time>
      </trkpt>
      <trkpt lat="46.09585" lon="5.40306">
        <ele>301</ele>
        <time>2026-05-09T12:39:17Z</time>
      </trkpt>
      <trkpt lat="46.09573" lon="5.40304">
        <ele>300.2</ele>
        <time>2026-05-09T12:39:18Z</time>
      </trkpt>
      <trkpt lat="46.0956" lon="5.40303">
        <ele>299.4</ele>
        <time>2026-05-09T12:39:19Z</time>
      </trkpt>
      <trkpt lat="46.09548" lon="5.40301">
        <ele>299</ele>
        <time>2026-05-09T12:39:20Z</time>
      </trkpt>
      <trkpt lat="46.09536" lon="5.40298">
        <ele>298.6</ele>
        <time>2026-05-09T12:39:21Z</time>
      </trkpt>
      <trkpt lat="46.09523" lon="5.40297">
        <ele>298</ele>
        <time>2026-05-09T12:39:22Z</time>
      </trkpt>
      <trkpt lat="46.09498" lon="5.40295">
        <ele>297.2</ele>
        <time>2026-05-09T12:39:23Z</time>
      </trkpt>
      <trkpt lat="46.09485" lon="5.40294">
        <ele>296.4</ele>
        <time>2026-05-09T12:39:24Z</time>
      </trkpt>
      <trkpt lat="46.09473" lon="5.40293">
        <ele>295.6</ele>
        <time>2026-05-09T12:39:25Z</time>
      </trkpt>
      <trkpt lat="46.0946" lon="5.40293">
        <ele>295</ele>
        <time>2026-05-09T12:39:26Z</time>
      </trkpt>
      <trkpt lat="46.09447" lon="5.40293">
        <ele>294.2</ele>
        <time>2026-05-09T12:39:27Z</time>
      </trkpt>
      <trkpt lat="46.09435" lon="5.40293">
        <ele>293.4</ele>
        <time>2026-05-09T12:39:28Z</time>
      </trkpt>
      <trkpt lat="46.09422" lon="5.40293">
        <ele>292.8</ele>
        <time>2026-05-09T12:39:29Z</time>
      </trkpt>
      <trkpt lat="46.0941" lon="5.40293">
        <ele>292</ele>
        <time>2026-05-09T12:39:30Z</time>
      </trkpt>
      <trkpt lat="46.09397" lon="5.40292">
        <ele>291.4</ele>
        <time>2026-05-09T12:39:31Z</time>
      </trkpt>
      <trkpt lat="46.09384" lon="5.4029">
        <ele>290.8</ele>
        <time>2026-05-09T12:39:32Z</time>
      </trkpt>
      <trkpt lat="46.09372" lon="5.4029">
        <ele>289.6</ele>
        <time>2026-05-09T12:39:33Z</time>
      </trkpt>
      <trkpt lat="46.09359" lon="5.40288">
        <ele>288.8</ele>
        <time>2026-05-09T12:39:34Z</time>
      </trkpt>
      <trkpt lat="46.09347" lon="5.40287">
        <ele>288</ele>
        <time>2026-05-09T12:39:35Z</time>
      </trkpt>
      <trkpt lat="46.09335" lon="5.40286">
        <ele>287.2</ele>
        <time>2026-05-09T12:39:36Z</time>
      </trkpt>
      <trkpt lat="46.09322" lon="5.40285">
        <ele>286.6</ele>
        <time>2026-05-09T12:39:37Z</time>
      </trkpt>
      <trkpt lat="46.0931" lon="5.40284">
        <ele>285.6</ele>
        <time>2026-05-09T12:39:38Z</time>
      </trkpt>
      <trkpt lat="46.09297" lon="5.40282">
        <ele>285</ele>
        <time>2026-05-09T12:39:39Z</time>
      </trkpt>
      <trkpt lat="46.09284" lon="5.40281">
        <ele>284.6</ele>
        <time>2026-05-09T12:39:40Z</time>
      </trkpt>
      <trkpt lat="46.09272" lon="5.40279">
        <ele>283.4</ele>
        <time>2026-05-09T12:39:41Z</time>
      </trkpt>
      <trkpt lat="46.0926" lon="5.40277">
        <ele>282.4</ele>
        <time>2026-05-09T12:39:42Z</time>
      </trkpt>
      <trkpt lat="46.09247" lon="5.40275">
        <ele>281.6</ele>
        <time>2026-05-09T12:39:43Z</time>
      </trkpt>
      <trkpt lat="46.09234" lon="5.40273">
        <ele>281.2</ele>
        <time>2026-05-09T12:39:44Z</time>
      </trkpt>
      <trkpt lat="46.09222" lon="5.40272">
        <ele>280.6</ele>
        <time>2026-05-09T12:39:45Z</time>
      </trkpt>
      <trkpt lat="46.0921" lon="5.4027">
        <ele>279.8</ele>
        <time>2026-05-09T12:39:46Z</time>
      </trkpt>
      <trkpt lat="46.09197" lon="5.40267">
        <ele>279.2</ele>
        <time>2026-05-09T12:39:47Z</time>
      </trkpt>
      <trkpt lat="46.09185" lon="5.40265">
        <ele>278.6</ele>
        <time>2026-05-09T12:39:48Z</time>
      </trkpt>
      <trkpt lat="46.09173" lon="5.40263">
        <ele>277.8</ele>
        <time>2026-05-09T12:39:49Z</time>
      </trkpt>
      <trkpt lat="46.09161" lon="5.40259">
        <ele>277</ele>
        <time>2026-05-09T12:39:50Z</time>
      </trkpt>
      <trkpt lat="46.09149" lon="5.40256">
        <ele>276.4</ele>
        <time>2026-05-09T12:39:51Z</time>
      </trkpt>
      <trkpt lat="46.09138" lon="5.40254">
        <ele>275.4</ele>
        <time>2026-05-09T12:39:52Z</time>
      </trkpt>
      <trkpt lat="46.09127" lon="5.40252">
        <ele>274.4</ele>
        <time>2026-05-09T12:39:53Z</time>
      </trkpt>
      <trkpt lat="46.09117" lon="5.40249">
        <ele>273.6</ele>
        <time>2026-05-09T12:39:54Z</time>
      </trkpt>
      <trkpt lat="46.09106" lon="5.40247">
        <ele>272.8</ele>
        <time>2026-05-09T12:39:55Z</time>
      </trkpt>
      <trkpt lat="46.09095" lon="5.40245">
        <ele>272.2</ele>
        <time>2026-05-09T12:39:56Z</time>
      </trkpt>
      <trkpt lat="46.09084" lon="5.40243">
        <ele>271.4</ele>
        <time>2026-05-09T12:39:57Z</time>
      </trkpt>
      <trkpt lat="46.09075" lon="5.40241">
        <ele>270.6</ele>
        <time>2026-05-09T12:39:58Z</time>
      </trkpt>
      <trkpt lat="46.09065" lon="5.4024">
        <ele>270</ele>
        <time>2026-05-09T12:39:59Z</time>
      </trkpt>
      <trkpt lat="46.09057" lon="5.4024">
        <ele>269.2</ele>
        <time>2026-05-09T12:40:00Z</time>
      </trkpt>
      <trkpt lat="46.09048" lon="5.40239">
        <ele>268.8</ele>
        <time>2026-05-09T12:40:01Z</time>
      </trkpt>
      <trkpt lat="46.09041" lon="5.40238">
        <ele>268.4</ele>
        <time>2026-05-09T12:40:02Z</time>
      </trkpt>
      <trkpt lat="46.09033" lon="5.40239">
        <ele>268</ele>
        <time>2026-05-09T12:40:03Z</time>
      </trkpt>
      <trkpt lat="46.09025" lon="5.40241">
        <ele>267.6</ele>
        <time>2026-05-09T12:40:04Z</time>
      </trkpt>
      <trkpt lat="46.0902" lon="5.40247">
        <ele>267.2</ele>
        <time>2026-05-09T12:40:05Z</time>
      </trkpt>
      <trkpt lat="46.09016" lon="5.40253">
        <ele>267</ele>
        <time>2026-05-09T12:40:06Z</time>
      </trkpt>
      <trkpt lat="46.09013" lon="5.40261">
        <ele>266.6</ele>
        <time>2026-05-09T12:40:07Z</time>
      </trkpt>
      <trkpt lat="46.0901" lon="5.40268">
        <ele>266.4</ele>
        <time>2026-05-09T12:40:08Z</time>
      </trkpt>
      <trkpt lat="46.09008" lon="5.40275">
        <ele>266.4</ele>
        <time>2026-05-09T12:40:09Z</time>
      </trkpt>
      <trkpt lat="46.09007" lon="5.4028">
        <ele>266.4</ele>
        <time>2026-05-09T12:40:10Z</time>
      </trkpt>
      <trkpt lat="46.09006" lon="5.40284">
        <ele>266.4</ele>
        <time>2026-05-09T12:40:11Z</time>
      </trkpt>
      <trkpt lat="46.09004" lon="5.40286">
        <ele>266.4</ele>
        <time>2026-05-09T12:40:12Z</time>
      </trkpt>
      <trkpt lat="46.09003" lon="5.40289">
        <ele>266.4</ele>
        <time>2026-05-09T12:40:13Z</time>
      </trkpt>
      <trkpt lat="46.09003" lon="5.40292">
        <ele>266</ele>
        <time>2026-05-09T12:40:14Z</time>
      </trkpt>
      <trkpt lat="46.09002" lon="5.40295">
        <ele>266</ele>
        <time>2026-05-09T12:40:15Z</time>
      </trkpt>
      <trkpt lat="46.09002" lon="5.40297">
        <ele>265.8</ele>
        <time>2026-05-09T12:40:16Z</time>
      </trkpt>
      <trkpt lat="46.09001" lon="5.40299">
        <ele>265.8</ele>
        <time>2026-05-09T12:40:17Z</time>
      </trkpt>
      <trkpt lat="46.09" lon="5.40302">
        <ele>265.8</ele>
        <time>2026-05-09T12:40:18Z</time>
      </trkpt>
      <trkpt lat="46.08999" lon="5.40303">
        <ele>265.8</ele>
        <time>2026-05-09T12:40:19Z</time>
      </trkpt>
      <trkpt lat="46.08999" lon="5.40304">
        <ele>265.8</ele>
        <time>2026-05-09T12:40:20Z</time>
      </trkpt>
      <trkpt lat="46.08999" lon="5.40303">
        <ele>265.8</ele>
        <time>2026-05-09T12:40:21Z</time>
      </trkpt>
      <trkpt lat="46.09" lon="5.40303">
        <ele>265.8</ele>
        <time>2026-05-09T12:40:22Z</time>
      </trkpt>
      <trkpt lat="46.09" lon="5.40305">
        <ele>265.8</ele>
        <time>2026-05-09T12:40:31Z</time>
      </trkpt>
      <trkpt lat="46.08999" lon="5.40307">
        <ele>265.8</ele>
        <time>2026-05-09T12:40:32Z</time>
      </trkpt>
      <trkpt lat="46.08999" lon="5.40309">
        <ele>265.8</ele>
        <time>2026-05-09T12:40:33Z</time>
      </trkpt>
      <trkpt lat="46.08998" lon="5.40311">
        <ele>265.8</ele>
        <time>2026-05-09T12:40:34Z</time>
      </trkpt>
      <trkpt lat="46.08998" lon="5.40313">
        <ele>265.8</ele>
        <time>2026-05-09T12:40:35Z</time>
      </trkpt>
      <trkpt lat="46.08997" lon="5.40316">
        <ele>265.8</ele>
        <time>2026-05-09T12:40:36Z</time>
      </trkpt>
      <trkpt lat="46.08996" lon="5.40319">
        <ele>265.8</ele>
        <time>2026-05-09T12:40:37Z</time>
      </trkpt>
      <trkpt lat="46.08995" lon="5.40322">
        <ele>265.8</ele>
        <time>2026-05-09T12:40:38Z</time>
      </trkpt>
      <trkpt lat="46.08994" lon="5.40325">
        <ele>265.6</ele>
        <time>2026-05-09T12:40:39Z</time>
      </trkpt>
      <trkpt lat="46.08993" lon="5.40329">
        <ele>265.6</ele>
        <time>2026-05-09T12:40:40Z</time>
      </trkpt>
      <trkpt lat="46.08992" lon="5.40332">
        <ele>265.6</ele>
        <time>2026-05-09T12:40:41Z</time>
      </trkpt>
      <trkpt lat="46.08991" lon="5.40336">
        <ele>265.6</ele>
        <time>2026-05-09T12:40:42Z</time>
      </trkpt>
      <trkpt lat="46.08991" lon="5.40339">
        <ele>265.6</ele>
        <time>2026-05-09T12:40:43Z</time>
      </trkpt>
      <trkpt lat="46.0899" lon="5.40343">
        <ele>265.6</ele>
        <time>2026-05-09T12:40:44Z</time>
      </trkpt>
      <trkpt lat="46.08989" lon="5.40347">
        <ele>265.6</ele>
        <time>2026-05-09T12:40:45Z</time>
      </trkpt>
      <trkpt lat="46.08988" lon="5.40351">
        <ele>265.6</ele>
        <time>2026-05-09T12:40:46Z</time>
      </trkpt>
      <trkpt lat="46.08988" lon="5.40354">
        <ele>265.6</ele>
        <time>2026-05-09T12:40:47Z</time>
      </trkpt>
      <trkpt lat="46.08987" lon="5.40358">
        <ele>265.4</ele>
        <time>2026-05-09T12:40:48Z</time>
      </trkpt>
      <trkpt lat="46.08986" lon="5.40361">
        <ele>265.4</ele>
        <time>2026-05-09T12:40:49Z</time>
      </trkpt>
      <trkpt lat="46.08985" lon="5.40364">
        <ele>265.4</ele>
        <time>2026-05-09T12:40:50Z</time>
      </trkpt>
      <trkpt lat="46.08984" lon="5.40367">
        <ele>265.4</ele>
        <time>2026-05-09T12:40:51Z</time>
      </trkpt>
      <trkpt lat="46.08984" lon="5.40369">
        <ele>265.4</ele>
        <time>2026-05-09T12:40:52Z</time>
      </trkpt>
      <trkpt lat="46.08983" lon="5.4037">
        <ele>265.4</ele>
        <time>2026-05-09T12:40:53Z</time>
      </trkpt>
      <trkpt lat="46.08983" lon="5.40371">
        <ele>265.4</ele>
        <time>2026-05-09T12:40:54Z</time>
      </trkpt>
      <trkpt lat="46.08983" lon="5.40372">
        <ele>265.4</ele>
        <time>2026-05-09T12:40:55Z</time>
      </trkpt>
      <trkpt lat="46.08983" lon="5.40372">
        <ele>265.4</ele>
        <time>2026-05-09T12:40:56Z</time>
      </trkpt>
      <trkpt lat="46.08984" lon="5.40377">
        <ele>265.6</ele>
        <time>2026-05-09T12:42:07Z</time>
      </trkpt>
      <trkpt lat="46.08983" lon="5.40379">
        <ele>265.6</ele>
        <time>2026-05-09T12:42:08Z</time>
      </trkpt>
      <trkpt lat="46.08983" lon="5.40381">
        <ele>265.6</ele>
        <time>2026-05-09T12:42:09Z</time>
      </trkpt>
      <trkpt lat="46.08982" lon="5.40384">
        <ele>265.2</ele>
        <time>2026-05-09T12:42:10Z</time>
      </trkpt>
      <trkpt lat="46.08982" lon="5.40388">
        <ele>265.2</ele>
        <time>2026-05-09T12:42:11Z</time>
      </trkpt>
      <trkpt lat="46.08981" lon="5.4039">
        <ele>265.2</ele>
        <time>2026-05-09T12:42:12Z</time>
      </trkpt>
      <trkpt lat="46.0898" lon="5.40393">
        <ele>265</ele>
        <time>2026-05-09T12:42:13Z</time>
      </trkpt>
      <trkpt lat="46.0898" lon="5.40396">
        <ele>265</ele>
        <time>2026-05-09T12:42:14Z</time>
      </trkpt>
      <trkpt lat="46.08979" lon="5.40399">
        <ele>265</ele>
        <time>2026-05-09T12:42:15Z</time>
      </trkpt>
      <trkpt lat="46.08978" lon="5.40401">
        <ele>265</ele>
        <time>2026-05-09T12:42:16Z</time>
      </trkpt>
      <trkpt lat="46.08975" lon="5.40403">
        <ele>265</ele>
        <time>2026-05-09T12:42:17Z</time>
      </trkpt>
      <trkpt lat="46.08972" lon="5.40403">
        <ele>265</ele>
        <time>2026-05-09T12:42:18Z</time>
      </trkpt>
      <trkpt lat="46.08969" lon="5.40402">
        <ele>265</ele>
        <time>2026-05-09T12:42:19Z</time>
      </trkpt>
      <trkpt lat="46.08965" lon="5.40399">
        <ele>264.6</ele>
        <time>2026-05-09T12:42:20Z</time>
      </trkpt>
      <trkpt lat="46.08962" lon="5.40395">
        <ele>264.4</ele>
        <time>2026-05-09T12:42:21Z</time>
      </trkpt>
      <trkpt lat="46.08959" lon="5.4039">
        <ele>264.4</ele>
        <time>2026-05-09T12:42:22Z</time>
      </trkpt>
      <trkpt lat="46.08955" lon="5.40383">
        <ele>264.4</ele>
        <time>2026-05-09T12:42:23Z</time>
      </trkpt>
      <trkpt lat="46.08951" lon="5.40379">
        <ele>264</ele>
        <time>2026-05-09T12:42:24Z</time>
      </trkpt>
      <trkpt lat="46.08946" lon="5.40375">
        <ele>264</ele>
        <time>2026-05-09T12:42:25Z</time>
      </trkpt>
      <trkpt lat="46.08941" lon="5.40372">
        <ele>263.6</ele>
        <time>2026-05-09T12:42:26Z</time>
      </trkpt>
      <trkpt lat="46.08937" lon="5.40369">
        <ele>263.6</ele>
        <time>2026-05-09T12:42:27Z</time>
      </trkpt>
      <trkpt lat="46.08936" lon="5.40363">
        <ele>263.6</ele>
        <time>2026-05-09T12:42:28Z</time>
      </trkpt>
      <trkpt lat="46.08933" lon="5.4036">
        <ele>263.4</ele>
        <time>2026-05-09T12:42:29Z</time>
      </trkpt>
      <trkpt lat="46.0893" lon="5.40358">
        <ele>263.2</ele>
        <time>2026-05-09T12:42:30Z</time>
      </trkpt>
      <trkpt lat="46.08926" lon="5.40356">
        <ele>263.2</ele>
        <time>2026-05-09T12:42:31Z</time>
      </trkpt>
      <trkpt lat="46.08922" lon="5.40354">
        <ele>263.2</ele>
        <time>2026-05-09T12:42:32Z</time>
      </trkpt>
      <trkpt lat="46.08918" lon="5.40352">
        <ele>263.2</ele>
        <time>2026-05-09T12:42:33Z</time>
      </trkpt>
      <trkpt lat="46.08914" lon="5.4035">
        <ele>263.2</ele>
        <time>2026-05-09T12:42:34Z</time>
      </trkpt>
      <trkpt lat="46.0891" lon="5.40347">
        <ele>262.6</ele>
        <time>2026-05-09T12:42:35Z</time>
      </trkpt>
      <trkpt lat="46.08902" lon="5.40344">
        <ele>262.6</ele>
        <time>2026-05-09T12:42:36Z</time>
      </trkpt>
      <trkpt lat="46.08898" lon="5.40342">
        <ele>262.6</ele>
        <time>2026-05-09T12:42:37Z</time>
      </trkpt>
      <trkpt lat="46.08894" lon="5.4034">
        <ele>262.6</ele>
        <time>2026-05-09T12:42:38Z</time>
      </trkpt>
      <trkpt lat="46.0889" lon="5.40334">
        <ele>262.6</ele>
        <time>2026-05-09T12:42:39Z</time>
      </trkpt>
      <trkpt lat="46.08886" lon="5.40333">
        <ele>262.6</ele>
        <time>2026-05-09T12:42:40Z</time>
      </trkpt>
      <trkpt lat="46.0888" lon="5.40333">
        <ele>262.4</ele>
        <time>2026-05-09T12:42:41Z</time>
      </trkpt>
      <trkpt lat="46.08877" lon="5.40331">
        <ele>262.4</ele>
        <time>2026-05-09T12:42:42Z</time>
      </trkpt>
      <trkpt lat="46.08872" lon="5.40328">
        <ele>262.4</ele>
        <time>2026-05-09T12:42:43Z</time>
      </trkpt>
      <trkpt lat="46.08868" lon="5.40327">
        <ele>261.8</ele>
        <time>2026-05-09T12:42:44Z</time>
      </trkpt>
      <trkpt lat="46.08863" lon="5.40324">
        <ele>261.8</ele>
        <time>2026-05-09T12:42:45Z</time>
      </trkpt>
      <trkpt lat="46.08858" lon="5.40323">
        <ele>261.8</ele>
        <time>2026-05-09T12:42:46Z</time>
      </trkpt>
      <trkpt lat="46.08854" lon="5.40321">
        <ele>261.8</ele>
        <time>2026-05-09T12:42:47Z</time>
      </trkpt>
      <trkpt lat="46.0885" lon="5.4032">
        <ele>261.6</ele>
        <time>2026-05-09T12:42:48Z</time>
      </trkpt>
      <trkpt lat="46.08847" lon="5.40319">
        <ele>261.6</ele>
        <time>2026-05-09T12:42:49Z</time>
      </trkpt>
      <trkpt lat="46.08844" lon="5.40318">
        <ele>261.6</ele>
        <time>2026-05-09T12:42:50Z</time>
      </trkpt>
      <trkpt lat="46.0884" lon="5.40317">
        <ele>261.8</ele>
        <time>2026-05-09T12:42:51Z</time>
      </trkpt>
      <trkpt lat="46.08835" lon="5.40314">
        <ele>261.8</ele>
        <time>2026-05-09T12:42:52Z</time>
      </trkpt>
      <trkpt lat="46.08831" lon="5.40312">
        <ele>261.8</ele>
        <time>2026-05-09T12:42:53Z</time>
      </trkpt>
      <trkpt lat="46.08827" lon="5.4031">
        <ele>261.8</ele>
        <time>2026-05-09T12:42:54Z</time>
      </trkpt>
      <trkpt lat="46.08824" lon="5.40309">
        <ele>262.4</ele>
        <time>2026-05-09T12:42:55Z</time>
      </trkpt>
      <trkpt lat="46.08819" lon="5.40307">
        <ele>262</ele>
        <time>2026-05-09T12:42:56Z</time>
      </trkpt>
      <trkpt lat="46.08816" lon="5.40307">
        <ele>262</ele>
        <time>2026-05-09T12:42:57Z</time>
      </trkpt>
      <trkpt lat="46.08813" lon="5.40304">
        <ele>262</ele>
        <time>2026-05-09T12:42:58Z</time>
      </trkpt>
      <trkpt lat="46.08808" lon="5.403">
        <ele>262</ele>
        <time>2026-05-09T12:42:59Z</time>
      </trkpt>
      <trkpt lat="46.08805" lon="5.40298">
        <ele>262</ele>
        <time>2026-05-09T12:43:00Z</time>
      </trkpt>
      <trkpt lat="46.08801" lon="5.40295">
        <ele>262</ele>
        <time>2026-05-09T12:43:01Z</time>
      </trkpt>
      <trkpt lat="46.08798" lon="5.40294">
        <ele>262</ele>
        <time>2026-05-09T12:43:02Z</time>
      </trkpt>
      <trkpt lat="46.08795" lon="5.40292">
        <ele>262</ele>
        <time>2026-05-09T12:43:03Z</time>
      </trkpt>
      <trkpt lat="46.08792" lon="5.4029">
        <ele>262</ele>
        <time>2026-05-09T12:43:04Z</time>
      </trkpt>
      <trkpt lat="46.0879" lon="5.40289">
        <ele>262</ele>
        <time>2026-05-09T12:43:05Z</time>
      </trkpt>
      <trkpt lat="46.08788" lon="5.40288">
        <ele>262</ele>
        <time>2026-05-09T12:43:06Z</time>
      </trkpt>
      <trkpt lat="46.08787" lon="5.40287">
        <ele>262</ele>
        <time>2026-05-09T12:43:07Z</time>
      </trkpt>
      <trkpt lat="46.08785" lon="5.40286">
        <ele>262</ele>
        <time>2026-05-09T12:43:08Z</time>
      </trkpt>
      <trkpt lat="46.08783" lon="5.40286">
        <ele>262</ele>
        <time>2026-05-09T12:43:09Z</time>
      </trkpt>
      <trkpt lat="46.08781" lon="5.40286">
        <ele>262</ele>
        <time>2026-05-09T12:43:10Z</time>
      </trkpt>
      <trkpt lat="46.0878" lon="5.40285">
        <ele>262</ele>
        <time>2026-05-09T12:43:11Z</time>
      </trkpt>
      <trkpt lat="46.08779" lon="5.40284">
        <ele>261.8</ele>
        <time>2026-05-09T12:43:12Z</time>
      </trkpt>
      <trkpt lat="46.08779" lon="5.40284">
        <ele>261.8</ele>
        <time>2026-05-09T12:43:13Z</time>
      </trkpt>
      <trkpt lat="46.08777" lon="5.40283">
        <ele>261.8</ele>
        <time>2026-05-09T12:43:14Z</time>
      </trkpt>
      <trkpt lat="46.08776" lon="5.40283">
        <ele>261.8</ele>
        <time>2026-05-09T12:43:15Z</time>
      </trkpt>
      <trkpt lat="46.08775" lon="5.40282">
        <ele>261.8</ele>
        <time>2026-05-09T12:43:16Z</time>
      </trkpt>
      <trkpt lat="46.08773" lon="5.40282">
        <ele>261.8</ele>
        <time>2026-05-09T12:43:17Z</time>
      </trkpt>
      <trkpt lat="46.08772" lon="5.40282">
        <ele>261.8</ele>
        <time>2026-05-09T12:43:18Z</time>
      </trkpt>
      <trkpt lat="46.08771" lon="5.40282">
        <ele>261.8</ele>
        <time>2026-05-09T12:43:19Z</time>
      </trkpt>
      <trkpt lat="46.08769" lon="5.40282">
        <ele>261.8</ele>
        <time>2026-05-09T12:43:20Z</time>
      </trkpt>
      <trkpt lat="46.08767" lon="5.40281">
        <ele>261.8</ele>
        <time>2026-05-09T12:43:21Z</time>
      </trkpt>
      <trkpt lat="46.08765" lon="5.40279">
        <ele>261.8</ele>
        <time>2026-05-09T12:43:22Z</time>
      </trkpt>
      <trkpt lat="46.08763" lon="5.40277">
        <ele>261.8</ele>
        <time>2026-05-09T12:43:23Z</time>
      </trkpt>
      <trkpt lat="46.08761" lon="5.40275">
        <ele>261.8</ele>
        <time>2026-05-09T12:43:24Z</time>
      </trkpt>
      <trkpt lat="46.08758" lon="5.40273">
        <ele>261.8</ele>
        <time>2026-05-09T12:43:25Z</time>
      </trkpt>
      <trkpt lat="46.08755" lon="5.40271">
        <ele>261.4</ele>
        <time>2026-05-09T12:43:26Z</time>
      </trkpt>
      <trkpt lat="46.08752" lon="5.40269">
        <ele>261.4</ele>
        <time>2026-05-09T12:43:27Z</time>
      </trkpt>
      <trkpt lat="46.08748" lon="5.40267">
        <ele>261.2</ele>
        <time>2026-05-09T12:43:28Z</time>
      </trkpt>
      <trkpt lat="46.08745" lon="5.40265">
        <ele>261</ele>
        <time>2026-05-09T12:43:29Z</time>
      </trkpt>
      <trkpt lat="46.08741" lon="5.40263">
        <ele>260.8</ele>
        <time>2026-05-09T12:43:30Z</time>
      </trkpt>
      <trkpt lat="46.08737" lon="5.40262">
        <ele>260.8</ele>
        <time>2026-05-09T12:43:31Z</time>
      </trkpt>
      <trkpt lat="46.08733" lon="5.4026">
        <ele>260.8</ele>
        <time>2026-05-09T12:43:32Z</time>
      </trkpt>
      <trkpt lat="46.08728" lon="5.40259">
        <ele>260.8</ele>
        <time>2026-05-09T12:43:33Z</time>
      </trkpt>
      <trkpt lat="46.08723" lon="5.40256">
        <ele>260.8</ele>
        <time>2026-05-09T12:43:34Z</time>
      </trkpt>
      <trkpt lat="46.08718" lon="5.40255">
        <ele>260.4</ele>
        <time>2026-05-09T12:43:35Z</time>
      </trkpt>
      <trkpt lat="46.08714" lon="5.40253">
        <ele>260.4</ele>
        <time>2026-05-09T12:43:36Z</time>
      </trkpt>
      <trkpt lat="46.08708" lon="5.40252">
        <ele>260.4</ele>
        <time>2026-05-09T12:43:37Z</time>
      </trkpt>
      <trkpt lat="46.08704" lon="5.4025">
        <ele>259.4</ele>
        <time>2026-05-09T12:43:38Z</time>
      </trkpt>
      <trkpt lat="46.08699" lon="5.40248">
        <ele>259.4</ele>
        <time>2026-05-09T12:43:39Z</time>
      </trkpt>
      <trkpt lat="46.08695" lon="5.40246">
        <ele>259.4</ele>
        <time>2026-05-09T12:43:40Z</time>
      </trkpt>
      <trkpt lat="46.08692" lon="5.40244">
        <ele>259.4</ele>
        <time>2026-05-09T12:43:41Z</time>
      </trkpt>
      <trkpt lat="46.08688" lon="5.40242">
        <ele>259.4</ele>
        <time>2026-05-09T12:43:42Z</time>
      </trkpt>
      <trkpt lat="46.08685" lon="5.4024">
        <ele>259.2</ele>
        <time>2026-05-09T12:43:43Z</time>
      </trkpt>
      <trkpt lat="46.08683" lon="5.4024">
        <ele>259.2</ele>
        <time>2026-05-09T12:43:44Z</time>
      </trkpt>
      <trkpt lat="46.0868" lon="5.40239">
        <ele>259.2</ele>
        <time>2026-05-09T12:43:45Z</time>
      </trkpt>
      <trkpt lat="46.08677" lon="5.4024">
        <ele>259.2</ele>
        <time>2026-05-09T12:43:46Z</time>
      </trkpt>
      <trkpt lat="46.08675" lon="5.40243">
        <ele>259.2</ele>
        <time>2026-05-09T12:43:47Z</time>
      </trkpt>
      <trkpt lat="46.08674" lon="5.40244">
        <ele>259.2</ele>
        <time>2026-05-09T12:43:48Z</time>
      </trkpt>
      <trkpt lat="46.08673" lon="5.40248">
        <ele>259.4</ele>
        <time>2026-05-09T12:43:49Z</time>
      </trkpt>
      <trkpt lat="46.08672" lon="5.4025">
        <ele>259.4</ele>
        <time>2026-05-09T12:43:50Z</time>
      </trkpt>
      <trkpt lat="46.08671" lon="5.40252">
        <ele>259.4</ele>
        <time>2026-05-09T12:43:51Z</time>
      </trkpt>
      <trkpt lat="46.08669" lon="5.40255">
        <ele>259.6</ele>
        <time>2026-05-09T12:43:52Z</time>
      </trkpt>
      <trkpt lat="46.08668" lon="5.40257">
        <ele>259.6</ele>
        <time>2026-05-09T12:43:53Z</time>
      </trkpt>
      <trkpt lat="46.08667" lon="5.4026">
        <ele>259.6</ele>
        <time>2026-05-09T12:43:54Z</time>
      </trkpt>
      <trkpt lat="46.08665" lon="5.40264">
        <ele>259.6</ele>
        <time>2026-05-09T12:43:55Z</time>
      </trkpt>
      <trkpt lat="46.08663" lon="5.40267">
        <ele>259.2</ele>
        <time>2026-05-09T12:43:56Z</time>
      </trkpt>
      <trkpt lat="46.08662" lon="5.4027">
        <ele>259.2</ele>
        <time>2026-05-09T12:43:57Z</time>
      </trkpt>
      <trkpt lat="46.0866" lon="5.40273">
        <ele>259.2</ele>
        <time>2026-05-09T12:43:58Z</time>
      </trkpt>
      <trkpt lat="46.08659" lon="5.40277">
        <ele>259.2</ele>
        <time>2026-05-09T12:43:59Z</time>
      </trkpt>
      <trkpt lat="46.08657" lon="5.40281">
        <ele>259.2</ele>
        <time>2026-05-09T12:44:00Z</time>
      </trkpt>
      <trkpt lat="46.08655" lon="5.40286">
        <ele>259.2</ele>
        <time>2026-05-09T12:44:01Z</time>
      </trkpt>
      <trkpt lat="46.08653" lon="5.4029">
        <ele>259.2</ele>
        <time>2026-05-09T12:44:02Z</time>
      </trkpt>
      <trkpt lat="46.08652" lon="5.40294">
        <ele>259.2</ele>
        <time>2026-05-09T12:44:03Z</time>
      </trkpt>
      <trkpt lat="46.08649" lon="5.40299">
        <ele>259.6</ele>
        <time>2026-05-09T12:44:04Z</time>
      </trkpt>
      <trkpt lat="46.08647" lon="5.40303">
        <ele>259.6</ele>
        <time>2026-05-09T12:44:05Z</time>
      </trkpt>
      <trkpt lat="46.08645" lon="5.40306">
        <ele>259.6</ele>
        <time>2026-05-09T12:44:06Z</time>
      </trkpt>
      <trkpt lat="46.08644" lon="5.40309">
        <ele>259.4</ele>
        <time>2026-05-09T12:44:07Z</time>
      </trkpt>
      <trkpt lat="46.08644" lon="5.40309">
        <ele>259.4</ele>
        <time>2026-05-09T12:44:08Z</time>
      </trkpt>
      <trkpt lat="46.08642" lon="5.40313">
        <ele>259.6</ele>
        <time>2026-05-09T12:44:09Z</time>
      </trkpt>
      <trkpt lat="46.08641" lon="5.40316">
        <ele>260</ele>
        <time>2026-05-09T12:44:10Z</time>
      </trkpt>
      <trkpt lat="46.0864" lon="5.4032">
        <ele>260</ele>
        <time>2026-05-09T12:44:11Z</time>
      </trkpt>
      <trkpt lat="46.08639" lon="5.40324">
        <ele>259.2</ele>
        <time>2026-05-09T12:44:12Z</time>
      </trkpt>
      <trkpt lat="46.08638" lon="5.40328">
        <ele>259.6</ele>
        <time>2026-05-09T12:44:13Z</time>
      </trkpt>
      <trkpt lat="46.08637" lon="5.40331">
        <ele>259.8</ele>
        <time>2026-05-09T12:44:14Z</time>
      </trkpt>
      <trkpt lat="46.08636" lon="5.40335">
        <ele>259.8</ele>
        <time>2026-05-09T12:44:15Z</time>
      </trkpt>
      <trkpt lat="46.08635" lon="5.40339">
        <ele>260.2</ele>
        <time>2026-05-09T12:44:16Z</time>
      </trkpt>
      <trkpt lat="46.08634" lon="5.40342">
        <ele>260.2</ele>
        <time>2026-05-09T12:44:17Z</time>
      </trkpt>
      <trkpt lat="46.08634" lon="5.40345">
        <ele>260.4</ele>
        <time>2026-05-09T12:44:18Z</time>
      </trkpt>
      <trkpt lat="46.08632" lon="5.40349">
        <ele>260.4</ele>
        <time>2026-05-09T12:44:19Z</time>
      </trkpt>
      <trkpt lat="46.08631" lon="5.40353">
        <ele>260.4</ele>
        <time>2026-05-09T12:44:20Z</time>
      </trkpt>
      <trkpt lat="46.0863" lon="5.40356">
        <ele>260.8</ele>
        <time>2026-05-09T12:44:21Z</time>
      </trkpt>
      <trkpt lat="46.08629" lon="5.40359">
        <ele>260.8</ele>
        <time>2026-05-09T12:44:22Z</time>
      </trkpt>
      <trkpt lat="46.08628" lon="5.40362">
        <ele>260.8</ele>
        <time>2026-05-09T12:44:23Z</time>
      </trkpt>
      <trkpt lat="46.08627" lon="5.40365">
        <ele>260.8</ele>
        <time>2026-05-09T12:44:24Z</time>
      </trkpt>
      <trkpt lat="46.08626" lon="5.40368">
        <ele>261.2</ele>
        <time>2026-05-09T12:44:25Z</time>
      </trkpt>
      <trkpt lat="46.08625" lon="5.40371">
        <ele>261.2</ele>
        <time>2026-05-09T12:44:26Z</time>
      </trkpt>
      <trkpt lat="46.08624" lon="5.40373">
        <ele>261.4</ele>
        <time>2026-05-09T12:44:27Z</time>
      </trkpt>
      <trkpt lat="46.08622" lon="5.40376">
        <ele>261.4</ele>
        <time>2026-05-09T12:44:28Z</time>
      </trkpt>
      <trkpt lat="46.08621" lon="5.40379">
        <ele>261.4</ele>
        <time>2026-05-09T12:44:29Z</time>
      </trkpt>
      <trkpt lat="46.08619" lon="5.40383">
        <ele>261.4</ele>
        <time>2026-05-09T12:44:30Z</time>
      </trkpt>
      <trkpt lat="46.08617" lon="5.40386">
        <ele>262</ele>
        <time>2026-05-09T12:44:31Z</time>
      </trkpt>
      <trkpt lat="46.08616" lon="5.40388">
        <ele>262</ele>
        <time>2026-05-09T12:44:32Z</time>
      </trkpt>
      <trkpt lat="46.08616" lon="5.4039">
        <ele>262</ele>
        <time>2026-05-09T12:44:33Z</time>
      </trkpt>
      <trkpt lat="46.08616" lon="5.40393">
        <ele>262.2</ele>
        <time>2026-05-09T12:44:34Z</time>
      </trkpt>
      <trkpt lat="46.08618" lon="5.40397">
        <ele>262.2</ele>
        <time>2026-05-09T12:44:35Z</time>
      </trkpt>
      <trkpt lat="46.0862" lon="5.404">
        <ele>262.2</ele>
        <time>2026-05-09T12:44:36Z</time>
      </trkpt>
      <trkpt lat="46.08624" lon="5.40402">
        <ele>262.2</ele>
        <time>2026-05-09T12:44:37Z</time>
      </trkpt>
      <trkpt lat="46.08627" lon="5.40403">
        <ele>262.2</ele>
        <time>2026-05-09T12:44:38Z</time>
      </trkpt>
      <trkpt lat="46.0863" lon="5.40404">
        <ele>262.2</ele>
        <time>2026-05-09T12:44:39Z</time>
      </trkpt>
      <trkpt lat="46.08633" lon="5.40405">
        <ele>262.2</ele>
        <time>2026-05-09T12:44:40Z</time>
      </trkpt>
      <trkpt lat="46.08636" lon="5.40405">
        <ele>262.6</ele>
        <time>2026-05-09T12:44:41Z</time>
      </trkpt>
      <trkpt lat="46.08639" lon="5.40407">
        <ele>262.6</ele>
        <time>2026-05-09T12:44:42Z</time>
      </trkpt>
      <trkpt lat="46.08642" lon="5.40408">
        <ele>262.6</ele>
        <time>2026-05-09T12:44:43Z</time>
      </trkpt>
      <trkpt lat="46.08645" lon="5.4041">
        <ele>262.8</ele>
        <time>2026-05-09T12:44:44Z</time>
      </trkpt>
      <trkpt lat="46.08648" lon="5.40412">
        <ele>262.8</ele>
        <time>2026-05-09T12:44:45Z</time>
      </trkpt>
      <trkpt lat="46.08651" lon="5.40414">
        <ele>262.8</ele>
        <time>2026-05-09T12:44:46Z</time>
      </trkpt>
      <trkpt lat="46.08655" lon="5.40417">
        <ele>263</ele>
        <time>2026-05-09T12:44:47Z</time>
      </trkpt>
      <trkpt lat="46.08658" lon="5.40419">
        <ele>263</ele>
        <time>2026-05-09T12:44:48Z</time>
      </trkpt>
      <trkpt lat="46.08661" lon="5.40422">
        <ele>263</ele>
        <time>2026-05-09T12:44:49Z</time>
      </trkpt>
      <trkpt lat="46.08664" lon="5.40424">
        <ele>263.4</ele>
        <time>2026-05-09T12:44:50Z</time>
      </trkpt>
      <trkpt lat="46.08667" lon="5.40426">
        <ele>263.4</ele>
        <time>2026-05-09T12:44:51Z</time>
      </trkpt>
      <trkpt lat="46.0867" lon="5.40428">
        <ele>263.4</ele>
        <time>2026-05-09T12:44:52Z</time>
      </trkpt>
      <trkpt lat="46.08673" lon="5.4043">
        <ele>263.4</ele>
        <time>2026-05-09T12:44:53Z</time>
      </trkpt>
      <trkpt lat="46.08676" lon="5.40432">
        <ele>263.4</ele>
        <time>2026-05-09T12:44:54Z</time>
      </trkpt>
      <trkpt lat="46.08679" lon="5.40434">
        <ele>263.4</ele>
        <time>2026-05-09T12:44:55Z</time>
      </trkpt>
      <trkpt lat="46.08682" lon="5.40436">
        <ele>263.4</ele>
        <time>2026-05-09T12:44:56Z</time>
      </trkpt>
      <trkpt lat="46.08685" lon="5.40437">
        <ele>263.4</ele>
        <time>2026-05-09T12:44:57Z</time>
      </trkpt>
      <trkpt lat="46.08689" lon="5.40438">
        <ele>263.4</ele>
        <time>2026-05-09T12:44:58Z</time>
      </trkpt>
      <trkpt lat="46.08692" lon="5.40439">
        <ele>263.4</ele>
        <time>2026-05-09T12:44:59Z</time>
      </trkpt>
      <trkpt lat="46.08695" lon="5.40437">
        <ele>263.2</ele>
        <time>2026-05-09T12:45:00Z</time>
      </trkpt>
      <trkpt lat="46.08698" lon="5.40434">
        <ele>263.2</ele>
        <time>2026-05-09T12:45:01Z</time>
      </trkpt>
      <trkpt lat="46.08701" lon="5.4043">
        <ele>263.2</ele>
        <time>2026-05-09T12:45:02Z</time>
      </trkpt>
      <trkpt lat="46.08703" lon="5.40426">
        <ele>263.2</ele>
        <time>2026-05-09T12:45:03Z</time>
      </trkpt>
      <trkpt lat="46.08705" lon="5.4042">
        <ele>262.8</ele>
        <time>2026-05-09T12:45:04Z</time>
      </trkpt>
      <trkpt lat="46.08706" lon="5.40415">
        <ele>262.8</ele>
        <time>2026-05-09T12:45:05Z</time>
      </trkpt>
      <trkpt lat="46.08707" lon="5.40409">
        <ele>262.8</ele>
        <time>2026-05-09T12:45:06Z</time>
      </trkpt>
      <trkpt lat="46.08709" lon="5.40404">
        <ele>262.6</ele>
        <time>2026-05-09T12:45:07Z</time>
      </trkpt>
      <trkpt lat="46.0871" lon="5.40399">
        <ele>262.6</ele>
        <time>2026-05-09T12:45:08Z</time>
      </trkpt>
      <trkpt lat="46.08712" lon="5.40394">
        <ele>262.6</ele>
        <time>2026-05-09T12:45:09Z</time>
      </trkpt>
      <trkpt lat="46.08713" lon="5.40389">
        <ele>262.6</ele>
        <time>2026-05-09T12:45:10Z</time>
      </trkpt>
      <trkpt lat="46.08714" lon="5.40384">
        <ele>262.6</ele>
        <time>2026-05-09T12:45:11Z</time>
      </trkpt>
      <trkpt lat="46.08716" lon="5.4038">
        <ele>262.6</ele>
        <time>2026-05-09T12:45:12Z</time>
      </trkpt>
      <trkpt lat="46.08718" lon="5.40377">
        <ele>262.6</ele>
        <time>2026-05-09T12:45:13Z</time>
      </trkpt>
      <trkpt lat="46.0872" lon="5.40375">
        <ele>262.4</ele>
        <time>2026-05-09T12:45:14Z</time>
      </trkpt>
      <trkpt lat="46.08722" lon="5.40375">
        <ele>262.4</ele>
        <time>2026-05-09T12:45:15Z</time>
      </trkpt>
      <trkpt lat="46.08724" lon="5.40374">
        <ele>262.4</ele>
        <time>2026-05-09T12:45:16Z</time>
      </trkpt>
      <trkpt lat="46.08726" lon="5.40374">
        <ele>262.4</ele>
        <time>2026-05-09T12:45:17Z</time>
      </trkpt>
      <trkpt lat="46.08728" lon="5.40373">
        <ele>262.4</ele>
        <time>2026-05-09T12:45:18Z</time>
      </trkpt>
      <trkpt lat="46.08729" lon="5.40371">
        <ele>262.4</ele>
        <time>2026-05-09T12:45:19Z</time>
      </trkpt>
      <trkpt lat="46.08729" lon="5.4037">
        <ele>262.4</ele>
        <time>2026-05-09T12:45:20Z</time>
      </trkpt>
      <trkpt lat="46.08729" lon="5.40368">
        <ele>262.4</ele>
        <time>2026-05-09T12:45:21Z</time>
      </trkpt>
      <trkpt lat="46.08729" lon="5.40368">
        <ele>262.4</ele>
        <time>2026-05-09T12:45:22Z</time>
      </trkpt>
      <trkpt lat="46.08729" lon="5.40368">
        <ele>262.4</ele>
        <time>2026-05-09T12:45:23Z</time>
      </trkpt>
      <trkpt lat="46.08728" lon="5.40367">
        <ele>262.6</ele>
        <time>2026-05-09T12:45:26Z</time>
      </trkpt>
      <trkpt lat="46.08727" lon="5.40366">
        <ele>262.6</ele>
        <time>2026-05-09T12:45:27Z</time>
      </trkpt>
      <trkpt lat="46.08727" lon="5.40365">
        <ele>262.6</ele>
        <time>2026-05-09T12:45:28Z</time>
      </trkpt>
      <trkpt lat="46.08726" lon="5.40365">
        <ele>262.6</ele>
        <time>2026-05-09T12:45:29Z</time>
      </trkpt>
      <trkpt lat="46.08726" lon="5.4037">
        <ele>262.8</ele>
        <time>2026-05-09T12:48:26Z</time>
      </trkpt>
      <trkpt lat="46.08726" lon="5.4037">
        <ele>262.8</ele>
        <time>2026-05-09T12:48:27Z</time>
      </trkpt>
      <trkpt lat="46.08726" lon="5.4037">
        <ele>262.4</ele>
        <time>2026-05-09T12:48:28Z</time>
      </trkpt>
      <trkpt lat="46.08725" lon="5.40371">
        <ele>262.2</ele>
        <time>2026-05-09T12:48:29Z</time>
      </trkpt>
      <trkpt lat="46.08725" lon="5.40372">
        <ele>262.2</ele>
        <time>2026-05-09T12:48:30Z</time>
      </trkpt>
      <trkpt lat="46.08725" lon="5.40373">
        <ele>262</ele>
        <time>2026-05-09T12:48:31Z</time>
      </trkpt>
      <trkpt lat="46.08725" lon="5.40373">
        <ele>262</ele>
        <time>2026-05-09T12:48:32Z</time>
      </trkpt>
      <trkpt lat="46.08725" lon="5.40372">
        <ele>262</ele>
        <time>2026-05-09T12:48:33Z</time>
      </trkpt>
      <trkpt lat="46.08725" lon="5.40371">
        <ele>262.6</ele>
        <time>2026-05-09T12:51:34Z</time>
      </trkpt>
      <trkpt lat="46.08725" lon="5.40372">
        <ele>262.6</ele>
        <time>2026-05-09T12:51:35Z</time>
      </trkpt>
      <trkpt lat="46.08725" lon="5.40372">
        <ele>262.6</ele>
        <time>2026-05-09T12:51:36Z</time>
      </trkpt>
      <trkpt lat="46.08725" lon="5.40373">
        <ele>262.6</ele>
        <time>2026-05-09T12:51:37Z</time>
      </trkpt>
      <trkpt lat="46.08722" lon="5.40375">
        <ele>262.6</ele>
        <time>2026-05-09T12:51:40Z</time>
      </trkpt>
      <trkpt lat="46.0872" lon="5.40377">
        <ele>262.6</ele>
        <time>2026-05-09T12:51:41Z</time>
      </trkpt>
      <trkpt lat="46.08719" lon="5.40378">
        <ele>262.6</ele>
        <time>2026-05-09T12:51:42Z</time>
      </trkpt>
      <trkpt lat="46.08717" lon="5.4038">
        <ele>262.6</ele>
        <time>2026-05-09T12:51:43Z</time>
      </trkpt>
      <trkpt lat="46.08716" lon="5.40383">
        <ele>263</ele>
        <time>2026-05-09T12:51:44Z</time>
      </trkpt>
      <trkpt lat="46.08714" lon="5.40385">
        <ele>263</ele>
        <time>2026-05-09T12:51:45Z</time>
      </trkpt>
      <trkpt lat="46.08713" lon="5.40387">
        <ele>263</ele>
        <time>2026-05-09T12:51:46Z</time>
      </trkpt>
      <trkpt lat="46.08712" lon="5.40389">
        <ele>263</ele>
        <time>2026-05-09T12:51:47Z</time>
      </trkpt>
      <trkpt lat="46.08712" lon="5.40392">
        <ele>263</ele>
        <time>2026-05-09T12:51:48Z</time>
      </trkpt>
      <trkpt lat="46.08711" lon="5.40394">
        <ele>263</ele>
        <time>2026-05-09T12:51:49Z</time>
      </trkpt>
      <trkpt lat="46.0871" lon="5.40397">
        <ele>263</ele>
        <time>2026-05-09T12:51:50Z</time>
      </trkpt>
      <trkpt lat="46.08709" lon="5.40399">
        <ele>263</ele>
        <time>2026-05-09T12:51:51Z</time>
      </trkpt>
      <trkpt lat="46.08708" lon="5.40402">
        <ele>263</ele>
        <time>2026-05-09T12:51:52Z</time>
      </trkpt>
      <trkpt lat="46.08706" lon="5.40405">
        <ele>263</ele>
        <time>2026-05-09T12:51:53Z</time>
      </trkpt>
      <trkpt lat="46.08705" lon="5.40407">
        <ele>263</ele>
        <time>2026-05-09T12:51:54Z</time>
      </trkpt>
      <trkpt lat="46.08704" lon="5.4041">
        <ele>263</ele>
        <time>2026-05-09T12:51:55Z</time>
      </trkpt>
      <trkpt lat="46.08704" lon="5.40413">
        <ele>263</ele>
        <time>2026-05-09T12:51:56Z</time>
      </trkpt>
      <trkpt lat="46.08702" lon="5.40415">
        <ele>263</ele>
        <time>2026-05-09T12:51:57Z</time>
      </trkpt>
      <trkpt lat="46.08701" lon="5.40418">
        <ele>263</ele>
        <time>2026-05-09T12:51:58Z</time>
      </trkpt>
      <trkpt lat="46.08701" lon="5.40421">
        <ele>263.2</ele>
        <time>2026-05-09T12:51:59Z</time>
      </trkpt>
      <trkpt lat="46.087" lon="5.40423">
        <ele>263.2</ele>
        <time>2026-05-09T12:52:00Z</time>
      </trkpt>
      <trkpt lat="46.08699" lon="5.40425">
        <ele>263.2</ele>
        <time>2026-05-09T12:52:01Z</time>
      </trkpt>
      <trkpt lat="46.08698" lon="5.40428">
        <ele>263.2</ele>
        <time>2026-05-09T12:52:02Z</time>
      </trkpt>
      <trkpt lat="46.08697" lon="5.4043">
        <ele>263.2</ele>
        <time>2026-05-09T12:52:03Z</time>
      </trkpt>
      <trkpt lat="46.08696" lon="5.40432">
        <ele>263.2</ele>
        <time>2026-05-09T12:52:04Z</time>
      </trkpt>
      <trkpt lat="46.08695" lon="5.40434">
        <ele>263.2</ele>
        <time>2026-05-09T12:52:05Z</time>
      </trkpt>
      <trkpt lat="46.08693" lon="5.40436">
        <ele>263.2</ele>
        <time>2026-05-09T12:52:06Z</time>
      </trkpt>
      <trkpt lat="46.08692" lon="5.40438">
        <ele>263.4</ele>
        <time>2026-05-09T12:52:07Z</time>
      </trkpt>
      <trkpt lat="46.0869" lon="5.4044">
        <ele>263.4</ele>
        <time>2026-05-09T12:52:08Z</time>
      </trkpt>
      <trkpt lat="46.08689" lon="5.40442">
        <ele>263.4</ele>
        <time>2026-05-09T12:52:09Z</time>
      </trkpt>
      <trkpt lat="46.08689" lon="5.40445">
        <ele>263.6</ele>
        <time>2026-05-09T12:52:10Z</time>
      </trkpt>
      <trkpt lat="46.08689" lon="5.40448">
        <ele>263.6</ele>
        <time>2026-05-09T12:52:11Z</time>
      </trkpt>
      <trkpt lat="46.08689" lon="5.40451">
        <ele>263.6</ele>
        <time>2026-05-09T12:52:12Z</time>
      </trkpt>
      <trkpt lat="46.08689" lon="5.40455">
        <ele>263.6</ele>
        <time>2026-05-09T12:52:13Z</time>
      </trkpt>
      <trkpt lat="46.08689" lon="5.40458">
        <ele>263.8</ele>
        <time>2026-05-09T12:52:14Z</time>
      </trkpt>
      <trkpt lat="46.08689" lon="5.40461">
        <ele>263.8</ele>
        <time>2026-05-09T12:52:15Z</time>
      </trkpt>
      <trkpt lat="46.08688" lon="5.40465">
        <ele>263.8</ele>
        <time>2026-05-09T12:52:16Z</time>
      </trkpt>
      <trkpt lat="46.08688" lon="5.40469">
        <ele>264</ele>
        <time>2026-05-09T12:52:17Z</time>
      </trkpt>
      <trkpt lat="46.08687" lon="5.40473">
        <ele>264</ele>
        <time>2026-05-09T12:52:18Z</time>
      </trkpt>
      <trkpt lat="46.08686" lon="5.40476">
        <ele>264</ele>
        <time>2026-05-09T12:52:19Z</time>
      </trkpt>
      <trkpt lat="46.08685" lon="5.4048">
        <ele>264</ele>
        <time>2026-05-09T12:52:20Z</time>
      </trkpt>
      <trkpt lat="46.08684" lon="5.40484">
        <ele>264</ele>
        <time>2026-05-09T12:52:21Z</time>
      </trkpt>
      <trkpt lat="46.08683" lon="5.40488">
        <ele>264</ele>
        <time>2026-05-09T12:52:22Z</time>
      </trkpt>
      <trkpt lat="46.08682" lon="5.40492">
        <ele>264</ele>
        <time>2026-05-09T12:52:23Z</time>
      </trkpt>
      <trkpt lat="46.08681" lon="5.40495">
        <ele>264</ele>
        <time>2026-05-09T12:52:24Z</time>
      </trkpt>
      <trkpt lat="46.08681" lon="5.40498">
        <ele>264</ele>
        <time>2026-05-09T12:52:25Z</time>
      </trkpt>
      <trkpt lat="46.0868" lon="5.40501">
        <ele>264.4</ele>
        <time>2026-05-09T12:52:26Z</time>
      </trkpt>
      <trkpt lat="46.08679" lon="5.40506">
        <ele>264.4</ele>
        <time>2026-05-09T12:52:27Z</time>
      </trkpt>
      <trkpt lat="46.08678" lon="5.4051">
        <ele>264.4</ele>
        <time>2026-05-09T12:52:28Z</time>
      </trkpt>
      <trkpt lat="46.08677" lon="5.40514">
        <ele>264.4</ele>
        <time>2026-05-09T12:52:29Z</time>
      </trkpt>
      <trkpt lat="46.08676" lon="5.40518">
        <ele>264.4</ele>
        <time>2026-05-09T12:52:30Z</time>
      </trkpt>
      <trkpt lat="46.08674" lon="5.40522">
        <ele>264.4</ele>
        <time>2026-05-09T12:52:31Z</time>
      </trkpt>
      <trkpt lat="46.08673" lon="5.40526">
        <ele>264.4</ele>
        <time>2026-05-09T12:52:32Z</time>
      </trkpt>
      <trkpt lat="46.08672" lon="5.4053">
        <ele>264.4</ele>
        <time>2026-05-09T12:52:33Z</time>
      </trkpt>
      <trkpt lat="46.08671" lon="5.40534">
        <ele>264.6</ele>
        <time>2026-05-09T12:52:34Z</time>
      </trkpt>
      <trkpt lat="46.08669" lon="5.40537">
        <ele>264.6</ele>
        <time>2026-05-09T12:52:35Z</time>
      </trkpt>
      <trkpt lat="46.08667" lon="5.40541">
        <ele>264.6</ele>
        <time>2026-05-09T12:52:36Z</time>
      </trkpt>
      <trkpt lat="46.08666" lon="5.40544">
        <ele>264.6</ele>
        <time>2026-05-09T12:52:37Z</time>
      </trkpt>
      <trkpt lat="46.08664" lon="5.40548">
        <ele>265</ele>
        <time>2026-05-09T12:52:38Z</time>
      </trkpt>
      <trkpt lat="46.08664" lon="5.40548">
        <ele>265</ele>
        <time>2026-05-09T12:52:39Z</time>
      </trkpt>
      <trkpt lat="46.08663" lon="5.40551">
        <ele>265</ele>
        <time>2026-05-09T12:52:40Z</time>
      </trkpt>
      <trkpt lat="46.08661" lon="5.40554">
        <ele>265.2</ele>
        <time>2026-05-09T12:52:41Z</time>
      </trkpt>
      <trkpt lat="46.08659" lon="5.40557">
        <ele>265.2</ele>
        <time>2026-05-09T12:52:42Z</time>
      </trkpt>
      <trkpt lat="46.08658" lon="5.4056">
        <ele>265.4</ele>
        <time>2026-05-09T12:52:43Z</time>
      </trkpt>
      <trkpt lat="46.08656" lon="5.40562">
        <ele>265.4</ele>
        <time>2026-05-09T12:52:44Z</time>
      </trkpt>
      <trkpt lat="46.08655" lon="5.40565">
        <ele>265.4</ele>
        <time>2026-05-09T12:52:45Z</time>
      </trkpt>
      <trkpt lat="46.08653" lon="5.40567">
        <ele>265.6</ele>
        <time>2026-05-09T12:52:46Z</time>
      </trkpt>
      <trkpt lat="46.08652" lon="5.4057">
        <ele>265.6</ele>
        <time>2026-05-09T12:52:47Z</time>
      </trkpt>
      <trkpt lat="46.08651" lon="5.40573">
        <ele>265.8</ele>
        <time>2026-05-09T12:52:48Z</time>
      </trkpt>
      <trkpt lat="46.0865" lon="5.40576">
        <ele>265.8</ele>
        <time>2026-05-09T12:52:49Z</time>
      </trkpt>
      <trkpt lat="46.08649" lon="5.40578">
        <ele>266.2</ele>
        <time>2026-05-09T12:52:50Z</time>
      </trkpt>
      <trkpt lat="46.08648" lon="5.40581">
        <ele>266.4</ele>
        <time>2026-05-09T12:52:51Z</time>
      </trkpt>
      <trkpt lat="46.08647" lon="5.40583">
        <ele>266.4</ele>
        <time>2026-05-09T12:52:52Z</time>
      </trkpt>
      <trkpt lat="46.08647" lon="5.40586">
        <ele>266.6</ele>
        <time>2026-05-09T12:52:53Z</time>
      </trkpt>
      <trkpt lat="46.08646" lon="5.40589">
        <ele>266.8</ele>
        <time>2026-05-09T12:52:54Z</time>
      </trkpt>
      <trkpt lat="46.08646" lon="5.40591">
        <ele>267</ele>
        <time>2026-05-09T12:52:55Z</time>
      </trkpt>
      <trkpt lat="46.08645" lon="5.40594">
        <ele>267.4</ele>
        <time>2026-05-09T12:52:56Z</time>
      </trkpt>
      <trkpt lat="46.08644" lon="5.40596">
        <ele>267.4</ele>
        <time>2026-05-09T12:52:57Z</time>
      </trkpt>
      <trkpt lat="46.08644" lon="5.40598">
        <ele>267.6</ele>
        <time>2026-05-09T12:52:58Z</time>
      </trkpt>
      <trkpt lat="46.08644" lon="5.406">
        <ele>267.8</ele>
        <time>2026-05-09T12:52:59Z</time>
      </trkpt>
      <trkpt lat="46.08643" lon="5.40603">
        <ele>268.2</ele>
        <time>2026-05-09T12:53:00Z</time>
      </trkpt>
      <trkpt lat="46.08643" lon="5.40605">
        <ele>268.4</ele>
        <time>2026-05-09T12:53:01Z</time>
      </trkpt>
      <trkpt lat="46.08643" lon="5.40608">
        <ele>268.4</ele>
        <time>2026-05-09T12:53:02Z</time>
      </trkpt>
      <trkpt lat="46.08643" lon="5.4061">
        <ele>268.8</ele>
        <time>2026-05-09T12:53:03Z</time>
      </trkpt>
      <trkpt lat="46.08644" lon="5.40612">
        <ele>269</ele>
        <time>2026-05-09T12:53:04Z</time>
      </trkpt>
      <trkpt lat="46.08644" lon="5.40614">
        <ele>269.2</ele>
        <time>2026-05-09T12:53:05Z</time>
      </trkpt>
      <trkpt lat="46.08643" lon="5.40616">
        <ele>269.6</ele>
        <time>2026-05-09T12:53:06Z</time>
      </trkpt>
      <trkpt lat="46.08643" lon="5.40618">
        <ele>269.8</ele>
        <time>2026-05-09T12:53:07Z</time>
      </trkpt>
      <trkpt lat="46.08643" lon="5.4062">
        <ele>270</ele>
        <time>2026-05-09T12:53:08Z</time>
      </trkpt>
      <trkpt lat="46.08643" lon="5.40622">
        <ele>270</ele>
        <time>2026-05-09T12:53:09Z</time>
      </trkpt>
      <trkpt lat="46.08643" lon="5.40625">
        <ele>270.4</ele>
        <time>2026-05-09T12:53:10Z</time>
      </trkpt>
      <trkpt lat="46.08643" lon="5.40627">
        <ele>270.4</ele>
        <time>2026-05-09T12:53:11Z</time>
      </trkpt>
      <trkpt lat="46.08643" lon="5.40629">
        <ele>270.6</ele>
        <time>2026-05-09T12:53:12Z</time>
      </trkpt>
      <trkpt lat="46.08644" lon="5.40631">
        <ele>270.6</ele>
        <time>2026-05-09T12:53:13Z</time>
      </trkpt>
      <trkpt lat="46.08645" lon="5.40632">
        <ele>270.8</ele>
        <time>2026-05-09T12:53:14Z</time>
      </trkpt>
      <trkpt lat="46.08645" lon="5.40634">
        <ele>270.8</ele>
        <time>2026-05-09T12:53:15Z</time>
      </trkpt>
      <trkpt lat="46.08645" lon="5.40635">
        <ele>270.8</ele>
        <time>2026-05-09T12:53:16Z</time>
      </trkpt>
      <trkpt lat="46.08646" lon="5.40635">
        <ele>270.8</ele>
        <time>2026-05-09T12:53:17Z</time>
      </trkpt>
      <trkpt lat="46.08646" lon="5.40636">
        <ele>271.2</ele>
        <time>2026-05-09T12:53:18Z</time>
      </trkpt>
      <trkpt lat="46.08646" lon="5.40637">
        <ele>271.2</ele>
        <time>2026-05-09T12:53:19Z</time>
      </trkpt>
      <trkpt lat="46.08647" lon="5.40639">
        <ele>271.2</ele>
        <time>2026-05-09T12:53:20Z</time>
      </trkpt>
      <trkpt lat="46.08649" lon="5.40642">
        <ele>271.4</ele>
        <time>2026-05-09T12:53:21Z</time>
      </trkpt>
      <trkpt lat="46.0865" lon="5.40644">
        <ele>271.4</ele>
        <time>2026-05-09T12:53:22Z</time>
      </trkpt>
      <trkpt lat="46.08651" lon="5.40646">
        <ele>271.4</ele>
        <time>2026-05-09T12:53:23Z</time>
      </trkpt>
      <trkpt lat="46.08653" lon="5.40647">
        <ele>271.8</ele>
        <time>2026-05-09T12:53:24Z</time>
      </trkpt>
      <trkpt lat="46.08655" lon="5.40649">
        <ele>271.8</ele>
        <time>2026-05-09T12:53:25Z</time>
      </trkpt>
      <trkpt lat="46.08656" lon="5.40652">
        <ele>271.8</ele>
        <time>2026-05-09T12:53:26Z</time>
      </trkpt>
      <trkpt lat="46.08656" lon="5.40654">
        <ele>271.8</ele>
        <time>2026-05-09T12:53:27Z</time>
      </trkpt>
      <trkpt lat="46.08657" lon="5.40657">
        <ele>272.2</ele>
        <time>2026-05-09T12:53:28Z</time>
      </trkpt>
      <trkpt lat="46.08657" lon="5.4066">
        <ele>272.2</ele>
        <time>2026-05-09T12:53:29Z</time>
      </trkpt>
      <trkpt lat="46.08657" lon="5.40663">
        <ele>272.6</ele>
        <time>2026-05-09T12:53:30Z</time>
      </trkpt>
      <trkpt lat="46.08657" lon="5.40665">
        <ele>272.8</ele>
        <time>2026-05-09T12:53:31Z</time>
      </trkpt>
      <trkpt lat="46.08657" lon="5.40668">
        <ele>272.8</ele>
        <time>2026-05-09T12:53:32Z</time>
      </trkpt>
      <trkpt lat="46.08657" lon="5.4067">
        <ele>273.4</ele>
        <time>2026-05-09T12:53:33Z</time>
      </trkpt>
      <trkpt lat="46.08657" lon="5.40672">
        <ele>273.4</ele>
        <time>2026-05-09T12:53:34Z</time>
      </trkpt>
      <trkpt lat="46.08657" lon="5.40675">
        <ele>273.4</ele>
        <time>2026-05-09T12:53:35Z</time>
      </trkpt>
      <trkpt lat="46.08656" lon="5.40678">
        <ele>273.4</ele>
        <time>2026-05-09T12:53:36Z</time>
      </trkpt>
      <trkpt lat="46.08656" lon="5.40681">
        <ele>273.6</ele>
        <time>2026-05-09T12:53:37Z</time>
      </trkpt>
      <trkpt lat="46.08655" lon="5.40684">
        <ele>273.6</ele>
        <time>2026-05-09T12:53:38Z</time>
      </trkpt>
      <trkpt lat="46.08655" lon="5.40686">
        <ele>273.6</ele>
        <time>2026-05-09T12:53:39Z</time>
      </trkpt>
      <trkpt lat="46.08655" lon="5.4069">
        <ele>273.6</ele>
        <time>2026-05-09T12:53:40Z</time>
      </trkpt>
      <trkpt lat="46.08655" lon="5.40693">
        <ele>273.6</ele>
        <time>2026-05-09T12:53:41Z</time>
      </trkpt>
      <trkpt lat="46.08656" lon="5.40697">
        <ele>273.6</ele>
        <time>2026-05-09T12:53:42Z</time>
      </trkpt>
      <trkpt lat="46.08656" lon="5.40701">
        <ele>273.6</ele>
        <time>2026-05-09T12:53:43Z</time>
      </trkpt>
      <trkpt lat="46.08656" lon="5.40704">
        <ele>274</ele>
        <time>2026-05-09T12:53:44Z</time>
      </trkpt>
      <trkpt lat="46.08657" lon="5.40706">
        <ele>274</ele>
        <time>2026-05-09T12:53:45Z</time>
      </trkpt>
      <trkpt lat="46.08656" lon="5.40709">
        <ele>274</ele>
        <time>2026-05-09T12:53:46Z</time>
      </trkpt>
      <trkpt lat="46.08656" lon="5.40711">
        <ele>274</ele>
        <time>2026-05-09T12:53:47Z</time>
      </trkpt>
      <trkpt lat="46.08656" lon="5.40713">
        <ele>274.2</ele>
        <time>2026-05-09T12:53:48Z</time>
      </trkpt>
      <trkpt lat="46.08656" lon="5.40714">
        <ele>274.2</ele>
        <time>2026-05-09T12:53:49Z</time>
      </trkpt>
      <trkpt lat="46.08656" lon="5.40715">
        <ele>274.2</ele>
        <time>2026-05-09T12:53:50Z</time>
      </trkpt>
      <trkpt lat="46.08656" lon="5.40717">
        <ele>274.2</ele>
        <time>2026-05-09T12:53:51Z</time>
      </trkpt>
      <trkpt lat="46.08657" lon="5.40718">
        <ele>274.2</ele>
        <time>2026-05-09T12:53:52Z</time>
      </trkpt>
      <trkpt lat="46.08658" lon="5.40719">
        <ele>274.2</ele>
        <time>2026-05-09T12:53:53Z</time>
      </trkpt>
      <trkpt lat="46.0866" lon="5.40718">
        <ele>274.2</ele>
        <time>2026-05-09T12:53:54Z</time>
      </trkpt>
      <trkpt lat="46.0866" lon="5.40715">
        <ele>274.2</ele>
        <time>2026-05-09T12:53:55Z</time>
      </trkpt>
      <trkpt lat="46.0866" lon="5.40712">
        <ele>274.2</ele>
        <time>2026-05-09T12:53:56Z</time>
      </trkpt>
      <trkpt lat="46.0866" lon="5.40709">
        <ele>274.2</ele>
        <time>2026-05-09T12:53:57Z</time>
      </trkpt>
      <trkpt lat="46.08659" lon="5.40706">
        <ele>274.2</ele>
        <time>2026-05-09T12:53:58Z</time>
      </trkpt>
      <trkpt lat="46.08657" lon="5.40698">
        <ele>274.2</ele>
        <time>2026-05-09T12:53:59Z</time>
      </trkpt>
      <trkpt lat="46.08656" lon="5.40695">
        <ele>274.2</ele>
        <time>2026-05-09T12:54:00Z</time>
      </trkpt>
      <trkpt lat="46.08654" lon="5.40692">
        <ele>274.2</ele>
        <time>2026-05-09T12:54:01Z</time>
      </trkpt>
      <trkpt lat="46.08651" lon="5.4069">
        <ele>273.8</ele>
        <time>2026-05-09T12:54:02Z</time>
      </trkpt>
      <trkpt lat="46.08647" lon="5.4069">
        <ele>273.8</ele>
        <time>2026-05-09T12:54:03Z</time>
      </trkpt>
      <trkpt lat="46.08644" lon="5.4069">
        <ele>273.8</ele>
        <time>2026-05-09T12:54:04Z</time>
      </trkpt>
      <trkpt lat="46.08642" lon="5.40691">
        <ele>273.8</ele>
        <time>2026-05-09T12:54:05Z</time>
      </trkpt>
      <trkpt lat="46.08639" lon="5.40692">
        <ele>274</ele>
        <time>2026-05-09T12:54:06Z</time>
      </trkpt>
      <trkpt lat="46.08636" lon="5.40692">
        <ele>274</ele>
        <time>2026-05-09T12:54:07Z</time>
      </trkpt>
      <trkpt lat="46.08633" lon="5.40692">
        <ele>274</ele>
        <time>2026-05-09T12:54:08Z</time>
      </trkpt>
      <trkpt lat="46.0863" lon="5.40692">
        <ele>274</ele>
        <time>2026-05-09T12:54:09Z</time>
      </trkpt>
      <trkpt lat="46.08627" lon="5.40693">
        <ele>273.8</ele>
        <time>2026-05-09T12:54:10Z</time>
      </trkpt>
      <trkpt lat="46.08624" lon="5.40693">
        <ele>273.8</ele>
        <time>2026-05-09T12:54:11Z</time>
      </trkpt>
      <trkpt lat="46.08622" lon="5.40695">
        <ele>273.8</ele>
        <time>2026-05-09T12:54:12Z</time>
      </trkpt>
      <trkpt lat="46.08621" lon="5.40698">
        <ele>273.8</ele>
        <time>2026-05-09T12:54:13Z</time>
      </trkpt>
      <trkpt lat="46.08619" lon="5.407">
        <ele>273.8</ele>
        <time>2026-05-09T12:54:14Z</time>
      </trkpt>
      <trkpt lat="46.08618" lon="5.40702">
        <ele>273.8</ele>
        <time>2026-05-09T12:54:15Z</time>
      </trkpt>
      <trkpt lat="46.08616" lon="5.40704">
        <ele>274</ele>
        <time>2026-05-09T12:54:16Z</time>
      </trkpt>
      <trkpt lat="46.08614" lon="5.40704">
        <ele>274</ele>
        <time>2026-05-09T12:54:17Z</time>
      </trkpt>
      <trkpt lat="46.08612" lon="5.40705">
        <ele>274</ele>
        <time>2026-05-09T12:54:18Z</time>
      </trkpt>
      <trkpt lat="46.0861" lon="5.40707">
        <ele>274.4</ele>
        <time>2026-05-09T12:54:19Z</time>
      </trkpt>
      <trkpt lat="46.08609" lon="5.40708">
        <ele>274.6</ele>
        <time>2026-05-09T12:54:20Z</time>
      </trkpt>
      <trkpt lat="46.08607" lon="5.40711">
        <ele>274.6</ele>
        <time>2026-05-09T12:54:21Z</time>
      </trkpt>
      <trkpt lat="46.08605" lon="5.40714">
        <ele>274.6</ele>
        <time>2026-05-09T12:54:22Z</time>
      </trkpt>
      <trkpt lat="46.08605" lon="5.40717">
        <ele>274.6</ele>
        <time>2026-05-09T12:54:23Z</time>
      </trkpt>
      <trkpt lat="46.08605" lon="5.4072">
        <ele>274.6</ele>
        <time>2026-05-09T12:54:24Z</time>
      </trkpt>
      <trkpt lat="46.08605" lon="5.40724">
        <ele>274.2</ele>
        <time>2026-05-09T12:54:25Z</time>
      </trkpt>
      <trkpt lat="46.08605" lon="5.40728">
        <ele>273.8</ele>
        <time>2026-05-09T12:54:26Z</time>
      </trkpt>
      <trkpt lat="46.08605" lon="5.40731">
        <ele>274</ele>
        <time>2026-05-09T12:54:27Z</time>
      </trkpt>
      <trkpt lat="46.08605" lon="5.40734">
        <ele>274</ele>
        <time>2026-05-09T12:54:28Z</time>
      </trkpt>
      <trkpt lat="46.08604" lon="5.40737">
        <ele>274</ele>
        <time>2026-05-09T12:54:29Z</time>
      </trkpt>
      <trkpt lat="46.08604" lon="5.40741">
        <ele>273.8</ele>
        <time>2026-05-09T12:54:30Z</time>
      </trkpt>
      <trkpt lat="46.08603" lon="5.40744">
        <ele>274.4</ele>
        <time>2026-05-09T12:54:31Z</time>
      </trkpt>
      <trkpt lat="46.08603" lon="5.40748">
        <ele>274.8</ele>
        <time>2026-05-09T12:54:32Z</time>
      </trkpt>
      <trkpt lat="46.08602" lon="5.40752">
        <ele>274.4</ele>
        <time>2026-05-09T12:54:33Z</time>
      </trkpt>
      <trkpt lat="46.08601" lon="5.40756">
        <ele>274.4</ele>
        <time>2026-05-09T12:54:34Z</time>
      </trkpt>
      <trkpt lat="46.086" lon="5.40761">
        <ele>274</ele>
        <time>2026-05-09T12:54:35Z</time>
      </trkpt>
      <trkpt lat="46.08599" lon="5.40766">
        <ele>274</ele>
        <time>2026-05-09T12:54:36Z</time>
      </trkpt>
      <trkpt lat="46.08598" lon="5.40771">
        <ele>274</ele>
        <time>2026-05-09T12:54:37Z</time>
      </trkpt>
      <trkpt lat="46.08597" lon="5.40776">
        <ele>274</ele>
        <time>2026-05-09T12:54:38Z</time>
      </trkpt>
      <trkpt lat="46.08597" lon="5.4078">
        <ele>274</ele>
        <time>2026-05-09T12:54:39Z</time>
      </trkpt>
      <trkpt lat="46.08595" lon="5.40785">
        <ele>273.8</ele>
        <time>2026-05-09T12:54:40Z</time>
      </trkpt>
      <trkpt lat="46.08594" lon="5.4079">
        <ele>273.8</ele>
        <time>2026-05-09T12:54:41Z</time>
      </trkpt>
      <trkpt lat="46.08592" lon="5.40793">
        <ele>273.4</ele>
        <time>2026-05-09T12:54:42Z</time>
      </trkpt>
      <trkpt lat="46.0859" lon="5.40797">
        <ele>273.2</ele>
        <time>2026-05-09T12:54:43Z</time>
      </trkpt>
      <trkpt lat="46.08588" lon="5.408">
        <ele>273.2</ele>
        <time>2026-05-09T12:54:44Z</time>
      </trkpt>
      <trkpt lat="46.08586" lon="5.40804">
        <ele>272.8</ele>
        <time>2026-05-09T12:54:45Z</time>
      </trkpt>
      <trkpt lat="46.08583" lon="5.40808">
        <ele>272.6</ele>
        <time>2026-05-09T12:54:46Z</time>
      </trkpt>
      <trkpt lat="46.08582" lon="5.40812">
        <ele>272.6</ele>
        <time>2026-05-09T12:54:47Z</time>
      </trkpt>
      <trkpt lat="46.08581" lon="5.40816">
        <ele>272.6</ele>
        <time>2026-05-09T12:54:48Z</time>
      </trkpt>
      <trkpt lat="46.08581" lon="5.4082">
        <ele>272.6</ele>
        <time>2026-05-09T12:54:49Z</time>
      </trkpt>
      <trkpt lat="46.0858" lon="5.40823">
        <ele>272.6</ele>
        <time>2026-05-09T12:54:50Z</time>
      </trkpt>
      <trkpt lat="46.08578" lon="5.40827">
        <ele>272.6</ele>
        <time>2026-05-09T12:54:51Z</time>
      </trkpt>
      <trkpt lat="46.08576" lon="5.40831">
        <ele>272.2</ele>
        <time>2026-05-09T12:54:52Z</time>
      </trkpt>
      <trkpt lat="46.08574" lon="5.40835">
        <ele>272.2</ele>
        <time>2026-05-09T12:54:53Z</time>
      </trkpt>
      <trkpt lat="46.08572" lon="5.40839">
        <ele>272</ele>
        <time>2026-05-09T12:54:54Z</time>
      </trkpt>
      <trkpt lat="46.0857" lon="5.40843">
        <ele>272</ele>
        <time>2026-05-09T12:54:55Z</time>
      </trkpt>
      <trkpt lat="46.08568" lon="5.40847">
        <ele>271.6</ele>
        <time>2026-05-09T12:54:56Z</time>
      </trkpt>
      <trkpt lat="46.08567" lon="5.4085">
        <ele>271.4</ele>
        <time>2026-05-09T12:54:57Z</time>
      </trkpt>
      <trkpt lat="46.08565" lon="5.40854">
        <ele>271.4</ele>
        <time>2026-05-09T12:54:58Z</time>
      </trkpt>
      <trkpt lat="46.08563" lon="5.40857">
        <ele>271.4</ele>
        <time>2026-05-09T12:54:59Z</time>
      </trkpt>
      <trkpt lat="46.08561" lon="5.4086">
        <ele>271.4</ele>
        <time>2026-05-09T12:55:00Z</time>
      </trkpt>
      <trkpt lat="46.08559" lon="5.40864">
        <ele>271</ele>
        <time>2026-05-09T12:55:01Z</time>
      </trkpt>
      <trkpt lat="46.08558" lon="5.40868">
        <ele>271</ele>
        <time>2026-05-09T12:55:02Z</time>
      </trkpt>
      <trkpt lat="46.08557" lon="5.40874">
        <ele>270.8</ele>
        <time>2026-05-09T12:55:03Z</time>
      </trkpt>
      <trkpt lat="46.08556" lon="5.40879">
        <ele>270.8</ele>
        <time>2026-05-09T12:55:04Z</time>
      </trkpt>
      <trkpt lat="46.08555" lon="5.40883">
        <ele>270.8</ele>
        <time>2026-05-09T12:55:05Z</time>
      </trkpt>
      <trkpt lat="46.08554" lon="5.40888">
        <ele>270.8</ele>
        <time>2026-05-09T12:55:06Z</time>
      </trkpt>
      <trkpt lat="46.08553" lon="5.40893">
        <ele>270.8</ele>
        <time>2026-05-09T12:55:07Z</time>
      </trkpt>
      <trkpt lat="46.08552" lon="5.40898">
        <ele>270.8</ele>
        <time>2026-05-09T12:55:08Z</time>
      </trkpt>
      <trkpt lat="46.08552" lon="5.40902">
        <ele>270.8</ele>
        <time>2026-05-09T12:55:09Z</time>
      </trkpt>
      <trkpt lat="46.08551" lon="5.40907">
        <ele>270.8</ele>
        <time>2026-05-09T12:55:10Z</time>
      </trkpt>
      <trkpt lat="46.0855" lon="5.40912">
        <ele>270.8</ele>
        <time>2026-05-09T12:55:11Z</time>
      </trkpt>
      <trkpt lat="46.0855" lon="5.40916">
        <ele>270.8</ele>
        <time>2026-05-09T12:55:12Z</time>
      </trkpt>
      <trkpt lat="46.08549" lon="5.40921">
        <ele>270.8</ele>
        <time>2026-05-09T12:55:13Z</time>
      </trkpt>
      <trkpt lat="46.08548" lon="5.40925">
        <ele>271.2</ele>
        <time>2026-05-09T12:55:14Z</time>
      </trkpt>
      <trkpt lat="46.08548" lon="5.40929">
        <ele>271.2</ele>
        <time>2026-05-09T12:55:15Z</time>
      </trkpt>
      <trkpt lat="46.08546" lon="5.40932">
        <ele>271.2</ele>
        <time>2026-05-09T12:55:16Z</time>
      </trkpt>
      <trkpt lat="46.08544" lon="5.40936">
        <ele>271.2</ele>
        <time>2026-05-09T12:55:17Z</time>
      </trkpt>
      <trkpt lat="46.08543" lon="5.40938">
        <ele>271.2</ele>
        <time>2026-05-09T12:55:18Z</time>
      </trkpt>
      <trkpt lat="46.08543" lon="5.40941">
        <ele>271.2</ele>
        <time>2026-05-09T12:55:19Z</time>
      </trkpt>
      <trkpt lat="46.08543" lon="5.40944">
        <ele>271.4</ele>
        <time>2026-05-09T12:55:20Z</time>
      </trkpt>
      <trkpt lat="46.08543" lon="5.40946">
        <ele>271.4</ele>
        <time>2026-05-09T12:55:21Z</time>
      </trkpt>
      <trkpt lat="46.08544" lon="5.40948">
        <ele>271.4</ele>
        <time>2026-05-09T12:55:22Z</time>
      </trkpt>
      <trkpt lat="46.08545" lon="5.40951">
        <ele>271.4</ele>
        <time>2026-05-09T12:55:23Z</time>
      </trkpt>
      <trkpt lat="46.08547" lon="5.40953">
        <ele>271.4</ele>
        <time>2026-05-09T12:55:24Z</time>
      </trkpt>
      <trkpt lat="46.08549" lon="5.40955">
        <ele>271.8</ele>
        <time>2026-05-09T12:55:25Z</time>
      </trkpt>
      <trkpt lat="46.0855" lon="5.40958">
        <ele>271.8</ele>
        <time>2026-05-09T12:55:26Z</time>
      </trkpt>
      <trkpt lat="46.08552" lon="5.4096">
        <ele>271.8</ele>
        <time>2026-05-09T12:55:27Z</time>
      </trkpt>
      <trkpt lat="46.08554" lon="5.40962">
        <ele>272.2</ele>
        <time>2026-05-09T12:55:28Z</time>
      </trkpt>
      <trkpt lat="46.08556" lon="5.40965">
        <ele>272.6</ele>
        <time>2026-05-09T12:55:29Z</time>
      </trkpt>
      <trkpt lat="46.08557" lon="5.40968">
        <ele>272.6</ele>
        <time>2026-05-09T12:55:30Z</time>
      </trkpt>
      <trkpt lat="46.08558" lon="5.40971">
        <ele>272.8</ele>
        <time>2026-05-09T12:55:31Z</time>
      </trkpt>
      <trkpt lat="46.08559" lon="5.40975">
        <ele>272.8</ele>
        <time>2026-05-09T12:55:32Z</time>
      </trkpt>
      <trkpt lat="46.08559" lon="5.40979">
        <ele>272.8</ele>
        <time>2026-05-09T12:55:33Z</time>
      </trkpt>
      <trkpt lat="46.0856" lon="5.40982">
        <ele>273.2</ele>
        <time>2026-05-09T12:55:34Z</time>
      </trkpt>
      <trkpt lat="46.0856" lon="5.40986">
        <ele>273.2</ele>
        <time>2026-05-09T12:55:35Z</time>
      </trkpt>
      <trkpt lat="46.0856" lon="5.4099">
        <ele>273.2</ele>
        <time>2026-05-09T12:55:36Z</time>
      </trkpt>
      <trkpt lat="46.08559" lon="5.40993">
        <ele>273.2</ele>
        <time>2026-05-09T12:55:37Z</time>
      </trkpt>
      <trkpt lat="46.08559" lon="5.40996">
        <ele>273.4</ele>
        <time>2026-05-09T12:55:38Z</time>
      </trkpt>
      <trkpt lat="46.08558" lon="5.41">
        <ele>273.4</ele>
        <time>2026-05-09T12:55:39Z</time>
      </trkpt>
      <trkpt lat="46.08558" lon="5.41003">
        <ele>273.4</ele>
        <time>2026-05-09T12:55:40Z</time>
      </trkpt>
      <trkpt lat="46.08557" lon="5.41006">
        <ele>273.4</ele>
        <time>2026-05-09T12:55:41Z</time>
      </trkpt>
      <trkpt lat="46.08557" lon="5.41006">
        <ele>273.6</ele>
        <time>2026-05-09T12:55:42Z</time>
      </trkpt>
      <trkpt lat="46.08556" lon="5.4101">
        <ele>273.6</ele>
        <time>2026-05-09T12:55:43Z</time>
      </trkpt>
      <trkpt lat="46.08556" lon="5.41013">
        <ele>273.6</ele>
        <time>2026-05-09T12:55:44Z</time>
      </trkpt>
      <trkpt lat="46.08555" lon="5.41018">
        <ele>273.6</ele>
        <time>2026-05-09T12:55:45Z</time>
      </trkpt>
      <trkpt lat="46.08554" lon="5.41023">
        <ele>273.6</ele>
        <time>2026-05-09T12:55:46Z</time>
      </trkpt>
      <trkpt lat="46.08553" lon="5.41027">
        <ele>273.6</ele>
        <time>2026-05-09T12:55:47Z</time>
      </trkpt>
      <trkpt lat="46.08552" lon="5.41032">
        <ele>273.6</ele>
        <time>2026-05-09T12:55:48Z</time>
      </trkpt>
      <trkpt lat="46.08551" lon="5.41037">
        <ele>273.6</ele>
        <time>2026-05-09T12:55:49Z</time>
      </trkpt>
      <trkpt lat="46.0855" lon="5.41042">
        <ele>273.6</ele>
        <time>2026-05-09T12:55:50Z</time>
      </trkpt>
      <trkpt lat="46.08548" lon="5.41047">
        <ele>273.4</ele>
        <time>2026-05-09T12:55:51Z</time>
      </trkpt>
      <trkpt lat="46.08547" lon="5.41052">
        <ele>273.4</ele>
        <time>2026-05-09T12:55:52Z</time>
      </trkpt>
      <trkpt lat="46.08546" lon="5.41058">
        <ele>273.4</ele>
        <time>2026-05-09T12:55:53Z</time>
      </trkpt>
      <trkpt lat="46.08544" lon="5.41063">
        <ele>273.4</ele>
        <time>2026-05-09T12:55:54Z</time>
      </trkpt>
      <trkpt lat="46.08543" lon="5.41069">
        <ele>273.4</ele>
        <time>2026-05-09T12:55:55Z</time>
      </trkpt>
      <trkpt lat="46.08541" lon="5.41075">
        <ele>273.4</ele>
        <time>2026-05-09T12:55:56Z</time>
      </trkpt>
      <trkpt lat="46.08539" lon="5.41081">
        <ele>273</ele>
        <time>2026-05-09T12:55:57Z</time>
      </trkpt>
      <trkpt lat="46.08538" lon="5.41086">
        <ele>272.8</ele>
        <time>2026-05-09T12:55:58Z</time>
      </trkpt>
      <trkpt lat="46.08536" lon="5.41091">
        <ele>272.8</ele>
        <time>2026-05-09T12:55:59Z</time>
      </trkpt>
      <trkpt lat="46.08533" lon="5.41094">
        <ele>272.4</ele>
        <time>2026-05-09T12:56:00Z</time>
      </trkpt>
      <trkpt lat="46.0853" lon="5.41099">
        <ele>272.2</ele>
        <time>2026-05-09T12:56:01Z</time>
      </trkpt>
      <trkpt lat="46.08529" lon="5.41104">
        <ele>272.2</ele>
        <time>2026-05-09T12:56:02Z</time>
      </trkpt>
      <trkpt lat="46.08529" lon="5.4111">
        <ele>271.8</ele>
        <time>2026-05-09T12:56:03Z</time>
      </trkpt>
      <trkpt lat="46.0853" lon="5.41116">
        <ele>271.8</ele>
        <time>2026-05-09T12:56:04Z</time>
      </trkpt>
      <trkpt lat="46.08531" lon="5.41123">
        <ele>271.8</ele>
        <time>2026-05-09T12:56:05Z</time>
      </trkpt>
      <trkpt lat="46.08531" lon="5.41129">
        <ele>271.8</ele>
        <time>2026-05-09T12:56:06Z</time>
      </trkpt>
      <trkpt lat="46.0853" lon="5.41135">
        <ele>271.8</ele>
        <time>2026-05-09T12:56:07Z</time>
      </trkpt>
      <trkpt lat="46.08529" lon="5.41142">
        <ele>271.8</ele>
        <time>2026-05-09T12:56:08Z</time>
      </trkpt>
      <trkpt lat="46.08528" lon="5.41147">
        <ele>271.8</ele>
        <time>2026-05-09T12:56:09Z</time>
      </trkpt>
      <trkpt lat="46.08526" lon="5.41152">
        <ele>271.8</ele>
        <time>2026-05-09T12:56:10Z</time>
      </trkpt>
      <trkpt lat="46.08525" lon="5.41157">
        <ele>271.8</ele>
        <time>2026-05-09T12:56:11Z</time>
      </trkpt>
      <trkpt lat="46.08522" lon="5.41161">
        <ele>272.2</ele>
        <time>2026-05-09T12:56:12Z</time>
      </trkpt>
      <trkpt lat="46.0852" lon="5.41165">
        <ele>272.2</ele>
        <time>2026-05-09T12:56:13Z</time>
      </trkpt>
      <trkpt lat="46.08518" lon="5.41169">
        <ele>272.2</ele>
        <time>2026-05-09T12:56:14Z</time>
      </trkpt>
      <trkpt lat="46.08515" lon="5.41173">
        <ele>272.4</ele>
        <time>2026-05-09T12:56:15Z</time>
      </trkpt>
      <trkpt lat="46.08513" lon="5.41177">
        <ele>272.4</ele>
        <time>2026-05-09T12:56:16Z</time>
      </trkpt>
      <trkpt lat="46.0851" lon="5.41181">
        <ele>272.6</ele>
        <time>2026-05-09T12:56:17Z</time>
      </trkpt>
      <trkpt lat="46.08508" lon="5.41185">
        <ele>272.6</ele>
        <time>2026-05-09T12:56:18Z</time>
      </trkpt>
      <trkpt lat="46.08505" lon="5.41189">
        <ele>272.6</ele>
        <time>2026-05-09T12:56:19Z</time>
      </trkpt>
      <trkpt lat="46.08502" lon="5.41193">
        <ele>272.6</ele>
        <time>2026-05-09T12:56:20Z</time>
      </trkpt>
      <trkpt lat="46.085" lon="5.41197">
        <ele>272.6</ele>
        <time>2026-05-09T12:56:21Z</time>
      </trkpt>
      <trkpt lat="46.08497" lon="5.41201">
        <ele>272.6</ele>
        <time>2026-05-09T12:56:22Z</time>
      </trkpt>
      <trkpt lat="46.08495" lon="5.41205">
        <ele>272.6</ele>
        <time>2026-05-09T12:56:23Z</time>
      </trkpt>
      <trkpt lat="46.08492" lon="5.4121">
        <ele>272.8</ele>
        <time>2026-05-09T12:56:24Z</time>
      </trkpt>
      <trkpt lat="46.0849" lon="5.41214">
        <ele>272.8</ele>
        <time>2026-05-09T12:56:25Z</time>
      </trkpt>
      <trkpt lat="46.08487" lon="5.41218">
        <ele>272.8</ele>
        <time>2026-05-09T12:56:26Z</time>
      </trkpt>
      <trkpt lat="46.08485" lon="5.41223">
        <ele>272.8</ele>
        <time>2026-05-09T12:56:27Z</time>
      </trkpt>
      <trkpt lat="46.08483" lon="5.41227">
        <ele>272.8</ele>
        <time>2026-05-09T12:56:28Z</time>
      </trkpt>
      <trkpt lat="46.08481" lon="5.41231">
        <ele>273</ele>
        <time>2026-05-09T12:56:29Z</time>
      </trkpt>
      <trkpt lat="46.08479" lon="5.41236">
        <ele>273</ele>
        <time>2026-05-09T12:56:30Z</time>
      </trkpt>
      <trkpt lat="46.08477" lon="5.4124">
        <ele>273</ele>
        <time>2026-05-09T12:56:31Z</time>
      </trkpt>
      <trkpt lat="46.08475" lon="5.41245">
        <ele>273</ele>
        <time>2026-05-09T12:56:32Z</time>
      </trkpt>
      <trkpt lat="46.08474" lon="5.4125">
        <ele>273</ele>
        <time>2026-05-09T12:56:33Z</time>
      </trkpt>
      <trkpt lat="46.08473" lon="5.41255">
        <ele>273</ele>
        <time>2026-05-09T12:56:34Z</time>
      </trkpt>
      <trkpt lat="46.08472" lon="5.4126">
        <ele>273</ele>
        <time>2026-05-09T12:56:35Z</time>
      </trkpt>
      <trkpt lat="46.08471" lon="5.41265">
        <ele>273</ele>
        <time>2026-05-09T12:56:36Z</time>
      </trkpt>
      <trkpt lat="46.0847" lon="5.4127">
        <ele>273</ele>
        <time>2026-05-09T12:56:37Z</time>
      </trkpt>
      <trkpt lat="46.0847" lon="5.41275">
        <ele>273</ele>
        <time>2026-05-09T12:56:38Z</time>
      </trkpt>
      <trkpt lat="46.08469" lon="5.41281">
        <ele>273</ele>
        <time>2026-05-09T12:56:39Z</time>
      </trkpt>
      <trkpt lat="46.08468" lon="5.41286">
        <ele>273.4</ele>
        <time>2026-05-09T12:56:40Z</time>
      </trkpt>
      <trkpt lat="46.08468" lon="5.41291">
        <ele>273.4</ele>
        <time>2026-05-09T12:56:41Z</time>
      </trkpt>
      <trkpt lat="46.08468" lon="5.41297">
        <ele>273.4</ele>
        <time>2026-05-09T12:56:42Z</time>
      </trkpt>
      <trkpt lat="46.08468" lon="5.41302">
        <ele>273.4</ele>
        <time>2026-05-09T12:56:43Z</time>
      </trkpt>
      <trkpt lat="46.08468" lon="5.41307">
        <ele>273.4</ele>
        <time>2026-05-09T12:56:44Z</time>
      </trkpt>
      <trkpt lat="46.08468" lon="5.41313">
        <ele>273.4</ele>
        <time>2026-05-09T12:56:45Z</time>
      </trkpt>
      <trkpt lat="46.08468" lon="5.41318">
        <ele>273.6</ele>
        <time>2026-05-09T12:56:46Z</time>
      </trkpt>
      <trkpt lat="46.08469" lon="5.41324">
        <ele>273.6</ele>
        <time>2026-05-09T12:56:47Z</time>
      </trkpt>
      <trkpt lat="46.08469" lon="5.41329">
        <ele>273.6</ele>
        <time>2026-05-09T12:56:48Z</time>
      </trkpt>
      <trkpt lat="46.0847" lon="5.41334">
        <ele>273.6</ele>
        <time>2026-05-09T12:56:49Z</time>
      </trkpt>
      <trkpt lat="46.0847" lon="5.41339">
        <ele>273.6</ele>
        <time>2026-05-09T12:56:50Z</time>
      </trkpt>
      <trkpt lat="46.08471" lon="5.41344">
        <ele>273.6</ele>
        <time>2026-05-09T12:56:51Z</time>
      </trkpt>
      <trkpt lat="46.08471" lon="5.41349">
        <ele>273.6</ele>
        <time>2026-05-09T12:56:52Z</time>
      </trkpt>
      <trkpt lat="46.08472" lon="5.41354">
        <ele>273.8</ele>
        <time>2026-05-09T12:56:53Z</time>
      </trkpt>
      <trkpt lat="46.08472" lon="5.41359">
        <ele>273.8</ele>
        <time>2026-05-09T12:56:54Z</time>
      </trkpt>
      <trkpt lat="46.08473" lon="5.41364">
        <ele>273.8</ele>
        <time>2026-05-09T12:56:55Z</time>
      </trkpt>
      <trkpt lat="46.08474" lon="5.41369">
        <ele>273.8</ele>
        <time>2026-05-09T12:56:56Z</time>
      </trkpt>
      <trkpt lat="46.08474" lon="5.41374">
        <ele>273.8</ele>
        <time>2026-05-09T12:56:57Z</time>
      </trkpt>
      <trkpt lat="46.08475" lon="5.41379">
        <ele>274</ele>
        <time>2026-05-09T12:56:58Z</time>
      </trkpt>
      <trkpt lat="46.08476" lon="5.41383">
        <ele>274</ele>
        <time>2026-05-09T12:56:59Z</time>
      </trkpt>
      <trkpt lat="46.08477" lon="5.41388">
        <ele>274</ele>
        <time>2026-05-09T12:57:00Z</time>
      </trkpt>
      <trkpt lat="46.08477" lon="5.41394">
        <ele>274</ele>
        <time>2026-05-09T12:57:01Z</time>
      </trkpt>
      <trkpt lat="46.08477" lon="5.41394">
        <ele>274</ele>
        <time>2026-05-09T12:57:02Z</time>
      </trkpt>
      <trkpt lat="46.08477" lon="5.41394">
        <ele>274</ele>
        <time>2026-05-09T12:57:03Z</time>
      </trkpt>
      <trkpt lat="46.08478" lon="5.41415">
        <ele>274</ele>
        <time>2026-05-09T12:57:05Z</time>
      </trkpt>
      <trkpt lat="46.08478" lon="5.41426">
        <ele>274</ele>
        <time>2026-05-09T12:57:06Z</time>
      </trkpt>
      <trkpt lat="46.08478" lon="5.41431">
        <ele>274</ele>
        <time>2026-05-09T12:57:07Z</time>
      </trkpt>
      <trkpt lat="46.08477" lon="5.41436">
        <ele>274</ele>
        <time>2026-05-09T12:57:08Z</time>
      </trkpt>
      <trkpt lat="46.08477" lon="5.41442">
        <ele>274</ele>
        <time>2026-05-09T12:57:09Z</time>
      </trkpt>
      <trkpt lat="46.08476" lon="5.41447">
        <ele>274</ele>
        <time>2026-05-09T12:57:10Z</time>
      </trkpt>
      <trkpt lat="46.08475" lon="5.41452">
        <ele>274</ele>
        <time>2026-05-09T12:57:11Z</time>
      </trkpt>
      <trkpt lat="46.08475" lon="5.41458">
        <ele>274</ele>
        <time>2026-05-09T12:57:12Z</time>
      </trkpt>
      <trkpt lat="46.08474" lon="5.41463">
        <ele>274</ele>
        <time>2026-05-09T12:57:13Z</time>
      </trkpt>
      <trkpt lat="46.08473" lon="5.41469">
        <ele>274.2</ele>
        <time>2026-05-09T12:57:14Z</time>
      </trkpt>
      <trkpt lat="46.08473" lon="5.41474">
        <ele>274.2</ele>
        <time>2026-05-09T12:57:15Z</time>
      </trkpt>
      <trkpt lat="46.08472" lon="5.4148">
        <ele>274.2</ele>
        <time>2026-05-09T12:57:16Z</time>
      </trkpt>
      <trkpt lat="46.08472" lon="5.41485">
        <ele>274.6</ele>
        <time>2026-05-09T12:57:17Z</time>
      </trkpt>
      <trkpt lat="46.08472" lon="5.41491">
        <ele>274.6</ele>
        <time>2026-05-09T12:57:18Z</time>
      </trkpt>
      <trkpt lat="46.08471" lon="5.41496">
        <ele>274.6</ele>
        <time>2026-05-09T12:57:19Z</time>
      </trkpt>
      <trkpt lat="46.08471" lon="5.41502">
        <ele>274.8</ele>
        <time>2026-05-09T12:57:20Z</time>
      </trkpt>
      <trkpt lat="46.0847" lon="5.41507">
        <ele>274.8</ele>
        <time>2026-05-09T12:57:21Z</time>
      </trkpt>
      <trkpt lat="46.08469" lon="5.41512">
        <ele>274.8</ele>
        <time>2026-05-09T12:57:22Z</time>
      </trkpt>
      <trkpt lat="46.08468" lon="5.41518">
        <ele>274.8</ele>
        <time>2026-05-09T12:57:23Z</time>
      </trkpt>
      <trkpt lat="46.08467" lon="5.41523">
        <ele>274.8</ele>
        <time>2026-05-09T12:57:24Z</time>
      </trkpt>
      <trkpt lat="46.08467" lon="5.41528">
        <ele>274.8</ele>
        <time>2026-05-09T12:57:25Z</time>
      </trkpt>
      <trkpt lat="46.08466" lon="5.41534">
        <ele>274.8</ele>
        <time>2026-05-09T12:57:26Z</time>
      </trkpt>
      <trkpt lat="46.08465" lon="5.41539">
        <ele>275</ele>
        <time>2026-05-09T12:57:27Z</time>
      </trkpt>
      <trkpt lat="46.08465" lon="5.41544">
        <ele>275.2</ele>
        <time>2026-05-09T12:57:28Z</time>
      </trkpt>
      <trkpt lat="46.08464" lon="5.4155">
        <ele>275.2</ele>
        <time>2026-05-09T12:57:29Z</time>
      </trkpt>
      <trkpt lat="46.08463" lon="5.41555">
        <ele>275.2</ele>
        <time>2026-05-09T12:57:30Z</time>
      </trkpt>
      <trkpt lat="46.08462" lon="5.41561">
        <ele>275.2</ele>
        <time>2026-05-09T12:57:31Z</time>
      </trkpt>
      <trkpt lat="46.08461" lon="5.41567">
        <ele>275.2</ele>
        <time>2026-05-09T12:57:32Z</time>
      </trkpt>
      <trkpt lat="46.0846" lon="5.41572">
        <ele>275.6</ele>
        <time>2026-05-09T12:57:33Z</time>
      </trkpt>
      <trkpt lat="46.08459" lon="5.41578">
        <ele>275.6</ele>
        <time>2026-05-09T12:57:34Z</time>
      </trkpt>
      <trkpt lat="46.08459" lon="5.41584">
        <ele>275.6</ele>
        <time>2026-05-09T12:57:35Z</time>
      </trkpt>
      <trkpt lat="46.08458" lon="5.4159">
        <ele>275.6</ele>
        <time>2026-05-09T12:57:36Z</time>
      </trkpt>
      <trkpt lat="46.08457" lon="5.41596">
        <ele>276</ele>
        <time>2026-05-09T12:57:37Z</time>
      </trkpt>
      <trkpt lat="46.08457" lon="5.41601">
        <ele>276.2</ele>
        <time>2026-05-09T12:57:38Z</time>
      </trkpt>
      <trkpt lat="46.08456" lon="5.41607">
        <ele>276.2</ele>
        <time>2026-05-09T12:57:39Z</time>
      </trkpt>
      <trkpt lat="46.08455" lon="5.41612">
        <ele>276.2</ele>
        <time>2026-05-09T12:57:40Z</time>
      </trkpt>
      <trkpt lat="46.08455" lon="5.41618">
        <ele>276.2</ele>
        <time>2026-05-09T12:57:41Z</time>
      </trkpt>
      <trkpt lat="46.08454" lon="5.41624">
        <ele>276.6</ele>
        <time>2026-05-09T12:57:42Z</time>
      </trkpt>
      <trkpt lat="46.08454" lon="5.4163">
        <ele>276.6</ele>
        <time>2026-05-09T12:57:43Z</time>
      </trkpt>
      <trkpt lat="46.08453" lon="5.41635">
        <ele>276.6</ele>
        <time>2026-05-09T12:57:44Z</time>
      </trkpt>
      <trkpt lat="46.08453" lon="5.41635">
        <ele>276.6</ele>
        <time>2026-05-09T12:57:45Z</time>
      </trkpt>
      <trkpt lat="46.08453" lon="5.41635">
        <ele>276.6</ele>
        <time>2026-05-09T12:57:46Z</time>
      </trkpt>
      <trkpt lat="46.08452" lon="5.41647">
        <ele>276.8</ele>
        <time>2026-05-09T12:57:47Z</time>
      </trkpt>
      <trkpt lat="46.08452" lon="5.41652">
        <ele>276.8</ele>
        <time>2026-05-09T12:57:48Z</time>
      </trkpt>
      <trkpt lat="46.08452" lon="5.41658">
        <ele>276.8</ele>
        <time>2026-05-09T12:57:49Z</time>
      </trkpt>
      <trkpt lat="46.08452" lon="5.41664">
        <ele>277</ele>
        <time>2026-05-09T12:57:50Z</time>
      </trkpt>
      <trkpt lat="46.08452" lon="5.41669">
        <ele>277</ele>
        <time>2026-05-09T12:57:51Z</time>
      </trkpt>
      <trkpt lat="46.08452" lon="5.41675">
        <ele>277</ele>
        <time>2026-05-09T12:57:52Z</time>
      </trkpt>
      <trkpt lat="46.08452" lon="5.41681">
        <ele>277</ele>
        <time>2026-05-09T12:57:53Z</time>
      </trkpt>
      <trkpt lat="46.08453" lon="5.41687">
        <ele>277</ele>
        <time>2026-05-09T12:57:54Z</time>
      </trkpt>
      <trkpt lat="46.08453" lon="5.41693">
        <ele>277</ele>
        <time>2026-05-09T12:57:55Z</time>
      </trkpt>
      <trkpt lat="46.08454" lon="5.41698">
        <ele>277</ele>
        <time>2026-05-09T12:57:56Z</time>
      </trkpt>
      <trkpt lat="46.08455" lon="5.41704">
        <ele>277</ele>
        <time>2026-05-09T12:57:57Z</time>
      </trkpt>
      <trkpt lat="46.08455" lon="5.4171">
        <ele>277.2</ele>
        <time>2026-05-09T12:57:58Z</time>
      </trkpt>
      <trkpt lat="46.08456" lon="5.41716">
        <ele>277.2</ele>
        <time>2026-05-09T12:57:59Z</time>
      </trkpt>
      <trkpt lat="46.08457" lon="5.41722">
        <ele>277.2</ele>
        <time>2026-05-09T12:58:00Z</time>
      </trkpt>
      <trkpt lat="46.08457" lon="5.41728">
        <ele>277.2</ele>
        <time>2026-05-09T12:58:01Z</time>
      </trkpt>
      <trkpt lat="46.08457" lon="5.41734">
        <ele>277.2</ele>
        <time>2026-05-09T12:58:02Z</time>
      </trkpt>
      <trkpt lat="46.08458" lon="5.4174">
        <ele>277.2</ele>
        <time>2026-05-09T12:58:03Z</time>
      </trkpt>
      <trkpt lat="46.08457" lon="5.41746">
        <ele>277.2</ele>
        <time>2026-05-09T12:58:04Z</time>
      </trkpt>
      <trkpt lat="46.08457" lon="5.41752">
        <ele>277.2</ele>
        <time>2026-05-09T12:58:05Z</time>
      </trkpt>
      <trkpt lat="46.08457" lon="5.41758">
        <ele>277.2</ele>
        <time>2026-05-09T12:58:06Z</time>
      </trkpt>
      <trkpt lat="46.08456" lon="5.41764">
        <ele>277.2</ele>
        <time>2026-05-09T12:58:07Z</time>
      </trkpt>
      <trkpt lat="46.08456" lon="5.4177">
        <ele>277.2</ele>
        <time>2026-05-09T12:58:08Z</time>
      </trkpt>
      <trkpt lat="46.08456" lon="5.41776">
        <ele>277.2</ele>
        <time>2026-05-09T12:58:09Z</time>
      </trkpt>
      <trkpt lat="46.08456" lon="5.41782">
        <ele>277.6</ele>
        <time>2026-05-09T12:58:10Z</time>
      </trkpt>
      <trkpt lat="46.08456" lon="5.41788">
        <ele>277.8</ele>
        <time>2026-05-09T12:58:11Z</time>
      </trkpt>
      <trkpt lat="46.08455" lon="5.41793">
        <ele>277.8</ele>
        <time>2026-05-09T12:58:12Z</time>
      </trkpt>
      <trkpt lat="46.08455" lon="5.41799">
        <ele>277.8</ele>
        <time>2026-05-09T12:58:13Z</time>
      </trkpt>
      <trkpt lat="46.08455" lon="5.41805">
        <ele>277.8</ele>
        <time>2026-05-09T12:58:14Z</time>
      </trkpt>
      <trkpt lat="46.08455" lon="5.4181">
        <ele>277.8</ele>
        <time>2026-05-09T12:58:15Z</time>
      </trkpt>
      <trkpt lat="46.08455" lon="5.41816">
        <ele>278</ele>
        <time>2026-05-09T12:58:16Z</time>
      </trkpt>
      <trkpt lat="46.08454" lon="5.41821">
        <ele>278</ele>
        <time>2026-05-09T12:58:17Z</time>
      </trkpt>
      <trkpt lat="46.08454" lon="5.41826">
        <ele>278</ele>
        <time>2026-05-09T12:58:18Z</time>
      </trkpt>
      <trkpt lat="46.08454" lon="5.41831">
        <ele>278.2</ele>
        <time>2026-05-09T12:58:19Z</time>
      </trkpt>
      <trkpt lat="46.08454" lon="5.41835">
        <ele>278.2</ele>
        <time>2026-05-09T12:58:20Z</time>
      </trkpt>
      <trkpt lat="46.08454" lon="5.41839">
        <ele>278.6</ele>
        <time>2026-05-09T12:58:21Z</time>
      </trkpt>
      <trkpt lat="46.08454" lon="5.41843">
        <ele>278.6</ele>
        <time>2026-05-09T12:58:22Z</time>
      </trkpt>
      <trkpt lat="46.08453" lon="5.41847">
        <ele>279</ele>
        <time>2026-05-09T12:58:23Z</time>
      </trkpt>
      <trkpt lat="46.08453" lon="5.41851">
        <ele>279.2</ele>
        <time>2026-05-09T12:58:24Z</time>
      </trkpt>
      <trkpt lat="46.08453" lon="5.41854">
        <ele>279.2</ele>
        <time>2026-05-09T12:58:25Z</time>
      </trkpt>
      <trkpt lat="46.08453" lon="5.41858">
        <ele>279.4</ele>
        <time>2026-05-09T12:58:26Z</time>
      </trkpt>
      <trkpt lat="46.08453" lon="5.41862">
        <ele>279.4</ele>
        <time>2026-05-09T12:58:27Z</time>
      </trkpt>
      <trkpt lat="46.08453" lon="5.41866">
        <ele>279.4</ele>
        <time>2026-05-09T12:58:28Z</time>
      </trkpt>
      <trkpt lat="46.08454" lon="5.4187">
        <ele>279.6</ele>
        <time>2026-05-09T12:58:29Z</time>
      </trkpt>
      <trkpt lat="46.08454" lon="5.41873">
        <ele>279.6</ele>
        <time>2026-05-09T12:58:30Z</time>
      </trkpt>
      <trkpt lat="46.08454" lon="5.41877">
        <ele>279.6</ele>
        <time>2026-05-09T12:58:31Z</time>
      </trkpt>
      <trkpt lat="46.08454" lon="5.4188">
        <ele>280</ele>
        <time>2026-05-09T12:58:32Z</time>
      </trkpt>
      <trkpt lat="46.08454" lon="5.41884">
        <ele>280</ele>
        <time>2026-05-09T12:58:33Z</time>
      </trkpt>
      <trkpt lat="46.08454" lon="5.41887">
        <ele>280.4</ele>
        <time>2026-05-09T12:58:34Z</time>
      </trkpt>
      <trkpt lat="46.08453" lon="5.41894">
        <ele>280.4</ele>
        <time>2026-05-09T12:58:35Z</time>
      </trkpt>
      <trkpt lat="46.08453" lon="5.41898">
        <ele>280.6</ele>
        <time>2026-05-09T12:58:36Z</time>
      </trkpt>
      <trkpt lat="46.08452" lon="5.41901">
        <ele>280.6</ele>
        <time>2026-05-09T12:58:37Z</time>
      </trkpt>
      <trkpt lat="46.08451" lon="5.41904">
        <ele>280.8</ele>
        <time>2026-05-09T12:58:38Z</time>
      </trkpt>
      <trkpt lat="46.0845" lon="5.41908">
        <ele>280.8</ele>
        <time>2026-05-09T12:58:39Z</time>
      </trkpt>
      <trkpt lat="46.08449" lon="5.41911">
        <ele>281.2</ele>
        <time>2026-05-09T12:58:40Z</time>
      </trkpt>
      <trkpt lat="46.08448" lon="5.41915">
        <ele>281.2</ele>
        <time>2026-05-09T12:58:41Z</time>
      </trkpt>
      <trkpt lat="46.08446" lon="5.41919">
        <ele>281.2</ele>
        <time>2026-05-09T12:58:42Z</time>
      </trkpt>
      <trkpt lat="46.08445" lon="5.41922">
        <ele>281.2</ele>
        <time>2026-05-09T12:58:43Z</time>
      </trkpt>
      <trkpt lat="46.08443" lon="5.41925">
        <ele>281.4</ele>
        <time>2026-05-09T12:58:44Z</time>
      </trkpt>
      <trkpt lat="46.08442" lon="5.41929">
        <ele>281.4</ele>
        <time>2026-05-09T12:58:45Z</time>
      </trkpt>
      <trkpt lat="46.0844" lon="5.41933">
        <ele>281.4</ele>
        <time>2026-05-09T12:58:46Z</time>
      </trkpt>
      <trkpt lat="46.08438" lon="5.41936">
        <ele>281.4</ele>
        <time>2026-05-09T12:58:47Z</time>
      </trkpt>
      <trkpt lat="46.08437" lon="5.4194">
        <ele>281.4</ele>
        <time>2026-05-09T12:58:48Z</time>
      </trkpt>
      <trkpt lat="46.08435" lon="5.41944">
        <ele>281.4</ele>
        <time>2026-05-09T12:58:49Z</time>
      </trkpt>
      <trkpt lat="46.08433" lon="5.41948">
        <ele>281.4</ele>
        <time>2026-05-09T12:58:50Z</time>
      </trkpt>
      <trkpt lat="46.08432" lon="5.41951">
        <ele>281.4</ele>
        <time>2026-05-09T12:58:51Z</time>
      </trkpt>
      <trkpt lat="46.0843" lon="5.41955">
        <ele>281.6</ele>
        <time>2026-05-09T12:58:52Z</time>
      </trkpt>
      <trkpt lat="46.08429" lon="5.41959">
        <ele>281.6</ele>
        <time>2026-05-09T12:58:53Z</time>
      </trkpt>
      <trkpt lat="46.08427" lon="5.41963">
        <ele>281.6</ele>
        <time>2026-05-09T12:58:54Z</time>
      </trkpt>
      <trkpt lat="46.08426" lon="5.41967">
        <ele>281.6</ele>
        <time>2026-05-09T12:58:55Z</time>
      </trkpt>
      <trkpt lat="46.08424" lon="5.41971">
        <ele>281.6</ele>
        <time>2026-05-09T12:58:56Z</time>
      </trkpt>
      <trkpt lat="46.08422" lon="5.41975">
        <ele>281.6</ele>
        <time>2026-05-09T12:58:57Z</time>
      </trkpt>
      <trkpt lat="46.08421" lon="5.41979">
        <ele>281.6</ele>
        <time>2026-05-09T12:58:58Z</time>
      </trkpt>
      <trkpt lat="46.08419" lon="5.41982">
        <ele>281.6</ele>
        <time>2026-05-09T12:58:59Z</time>
      </trkpt>
      <trkpt lat="46.08417" lon="5.41986">
        <ele>281.6</ele>
        <time>2026-05-09T12:59:00Z</time>
      </trkpt>
      <trkpt lat="46.08416" lon="5.4199">
        <ele>281.6</ele>
        <time>2026-05-09T12:59:01Z</time>
      </trkpt>
      <trkpt lat="46.08415" lon="5.41995">
        <ele>281.6</ele>
        <time>2026-05-09T12:59:02Z</time>
      </trkpt>
      <trkpt lat="46.08413" lon="5.41999">
        <ele>281.6</ele>
        <time>2026-05-09T12:59:03Z</time>
      </trkpt>
      <trkpt lat="46.08412" lon="5.42003">
        <ele>281.8</ele>
        <time>2026-05-09T12:59:04Z</time>
      </trkpt>
      <trkpt lat="46.0841" lon="5.42007">
        <ele>282.2</ele>
        <time>2026-05-09T12:59:05Z</time>
      </trkpt>
      <trkpt lat="46.08409" lon="5.42011">
        <ele>282.2</ele>
        <time>2026-05-09T12:59:06Z</time>
      </trkpt>
      <trkpt lat="46.08407" lon="5.42015">
        <ele>282.4</ele>
        <time>2026-05-09T12:59:07Z</time>
      </trkpt>
      <trkpt lat="46.08406" lon="5.4202">
        <ele>282.4</ele>
        <time>2026-05-09T12:59:08Z</time>
      </trkpt>
      <trkpt lat="46.08404" lon="5.42024">
        <ele>282.6</ele>
        <time>2026-05-09T12:59:09Z</time>
      </trkpt>
      <trkpt lat="46.08403" lon="5.42029">
        <ele>282.6</ele>
        <time>2026-05-09T12:59:10Z</time>
      </trkpt>
      <trkpt lat="46.08402" lon="5.42034">
        <ele>282.6</ele>
        <time>2026-05-09T12:59:11Z</time>
      </trkpt>
      <trkpt lat="46.08401" lon="5.42038">
        <ele>282.6</ele>
        <time>2026-05-09T12:59:12Z</time>
      </trkpt>
      <trkpt lat="46.084" lon="5.42043">
        <ele>282.6</ele>
        <time>2026-05-09T12:59:13Z</time>
      </trkpt>
      <trkpt lat="46.08399" lon="5.42048">
        <ele>282.6</ele>
        <time>2026-05-09T12:59:14Z</time>
      </trkpt>
      <trkpt lat="46.08399" lon="5.42053">
        <ele>282.6</ele>
        <time>2026-05-09T12:59:15Z</time>
      </trkpt>
      <trkpt lat="46.08398" lon="5.42058">
        <ele>282.6</ele>
        <time>2026-05-09T12:59:16Z</time>
      </trkpt>
      <trkpt lat="46.08398" lon="5.42062">
        <ele>282.6</ele>
        <time>2026-05-09T12:59:17Z</time>
      </trkpt>
      <trkpt lat="46.08397" lon="5.42067">
        <ele>282.6</ele>
        <time>2026-05-09T12:59:18Z</time>
      </trkpt>
      <trkpt lat="46.08397" lon="5.42072">
        <ele>282.6</ele>
        <time>2026-05-09T12:59:19Z</time>
      </trkpt>
      <trkpt lat="46.08397" lon="5.42077">
        <ele>282.6</ele>
        <time>2026-05-09T12:59:20Z</time>
      </trkpt>
      <trkpt lat="46.08396" lon="5.42082">
        <ele>282.6</ele>
        <time>2026-05-09T12:59:21Z</time>
      </trkpt>
      <trkpt lat="46.08396" lon="5.42087">
        <ele>282.6</ele>
        <time>2026-05-09T12:59:22Z</time>
      </trkpt>
      <trkpt lat="46.08396" lon="5.42091">
        <ele>282.6</ele>
        <time>2026-05-09T12:59:23Z</time>
      </trkpt>
      <trkpt lat="46.08396" lon="5.42096">
        <ele>282.6</ele>
        <time>2026-05-09T12:59:24Z</time>
      </trkpt>
      <trkpt lat="46.08395" lon="5.42101">
        <ele>282.6</ele>
        <time>2026-05-09T12:59:25Z</time>
      </trkpt>
      <trkpt lat="46.08395" lon="5.42106">
        <ele>282.6</ele>
        <time>2026-05-09T12:59:26Z</time>
      </trkpt>
      <trkpt lat="46.08394" lon="5.4211">
        <ele>282.8</ele>
        <time>2026-05-09T12:59:27Z</time>
      </trkpt>
      <trkpt lat="46.08394" lon="5.42115">
        <ele>282.8</ele>
        <time>2026-05-09T12:59:28Z</time>
      </trkpt>
      <trkpt lat="46.08393" lon="5.4212">
        <ele>283</ele>
        <time>2026-05-09T12:59:29Z</time>
      </trkpt>
      <trkpt lat="46.08393" lon="5.42124">
        <ele>283</ele>
        <time>2026-05-09T12:59:30Z</time>
      </trkpt>
      <trkpt lat="46.08392" lon="5.42129">
        <ele>283.4</ele>
        <time>2026-05-09T12:59:31Z</time>
      </trkpt>
      <trkpt lat="46.08391" lon="5.42134">
        <ele>283.4</ele>
        <time>2026-05-09T12:59:32Z</time>
      </trkpt>
      <trkpt lat="46.08391" lon="5.42138">
        <ele>283.4</ele>
        <time>2026-05-09T12:59:33Z</time>
      </trkpt>
      <trkpt lat="46.0839" lon="5.42143">
        <ele>283.4</ele>
        <time>2026-05-09T12:59:34Z</time>
      </trkpt>
      <trkpt lat="46.08389" lon="5.42148">
        <ele>283.4</ele>
        <time>2026-05-09T12:59:35Z</time>
      </trkpt>
      <trkpt lat="46.08388" lon="5.42153">
        <ele>283.4</ele>
        <time>2026-05-09T12:59:36Z</time>
      </trkpt>
      <trkpt lat="46.08388" lon="5.42158">
        <ele>283.4</ele>
        <time>2026-05-09T12:59:37Z</time>
      </trkpt>
      <trkpt lat="46.08387" lon="5.42163">
        <ele>283.6</ele>
        <time>2026-05-09T12:59:38Z</time>
      </trkpt>
      <trkpt lat="46.08386" lon="5.42167">
        <ele>283.6</ele>
        <time>2026-05-09T12:59:39Z</time>
      </trkpt>
      <trkpt lat="46.08386" lon="5.42172">
        <ele>284</ele>
        <time>2026-05-09T12:59:40Z</time>
      </trkpt>
      <trkpt lat="46.08385" lon="5.42177">
        <ele>284</ele>
        <time>2026-05-09T12:59:41Z</time>
      </trkpt>
      <trkpt lat="46.08384" lon="5.42182">
        <ele>284.2</ele>
        <time>2026-05-09T12:59:42Z</time>
      </trkpt>
      <trkpt lat="46.08383" lon="5.42186">
        <ele>284.2</ele>
        <time>2026-05-09T12:59:43Z</time>
      </trkpt>
      <trkpt lat="46.08382" lon="5.42191">
        <ele>284.2</ele>
        <time>2026-05-09T12:59:44Z</time>
      </trkpt>
      <trkpt lat="46.08381" lon="5.42196">
        <ele>284.2</ele>
        <time>2026-05-09T12:59:45Z</time>
      </trkpt>
      <trkpt lat="46.08381" lon="5.422">
        <ele>284.4</ele>
        <time>2026-05-09T12:59:46Z</time>
      </trkpt>
      <trkpt lat="46.0838" lon="5.42205">
        <ele>284.4</ele>
        <time>2026-05-09T12:59:47Z</time>
      </trkpt>
      <trkpt lat="46.08379" lon="5.4221">
        <ele>284.4</ele>
        <time>2026-05-09T12:59:48Z</time>
      </trkpt>
      <trkpt lat="46.08378" lon="5.42214">
        <ele>284.4</ele>
        <time>2026-05-09T12:59:49Z</time>
      </trkpt>
      <trkpt lat="46.08378" lon="5.42218">
        <ele>284.4</ele>
        <time>2026-05-09T12:59:50Z</time>
      </trkpt>
      <trkpt lat="46.08377" lon="5.42222">
        <ele>284.6</ele>
        <time>2026-05-09T12:59:51Z</time>
      </trkpt>
      <trkpt lat="46.08376" lon="5.42227">
        <ele>284.6</ele>
        <time>2026-05-09T12:59:52Z</time>
      </trkpt>
      <trkpt lat="46.08376" lon="5.42231">
        <ele>284.6</ele>
        <time>2026-05-09T12:59:53Z</time>
      </trkpt>
      <trkpt lat="46.08375" lon="5.42236">
        <ele>284.6</ele>
        <time>2026-05-09T12:59:54Z</time>
      </trkpt>
      <trkpt lat="46.08374" lon="5.4224">
        <ele>284.6</ele>
        <time>2026-05-09T12:59:55Z</time>
      </trkpt>
      <trkpt lat="46.08374" lon="5.42245">
        <ele>285</ele>
        <time>2026-05-09T12:59:56Z</time>
      </trkpt>
      <trkpt lat="46.08373" lon="5.42249">
        <ele>285.2</ele>
        <time>2026-05-09T12:59:57Z</time>
      </trkpt>
      <trkpt lat="46.08373" lon="5.42253">
        <ele>285.4</ele>
        <time>2026-05-09T12:59:58Z</time>
      </trkpt>
      <trkpt lat="46.08372" lon="5.42257">
        <ele>285.4</ele>
        <time>2026-05-09T12:59:59Z</time>
      </trkpt>
      <trkpt lat="46.08371" lon="5.42261">
        <ele>285.8</ele>
        <time>2026-05-09T13:00:00Z</time>
      </trkpt>
      <trkpt lat="46.08371" lon="5.42265">
        <ele>286</ele>
        <time>2026-05-09T13:00:01Z</time>
      </trkpt>
      <trkpt lat="46.0837" lon="5.42269">
        <ele>286</ele>
        <time>2026-05-09T13:00:02Z</time>
      </trkpt>
      <trkpt lat="46.0837" lon="5.42269">
        <ele>286.4</ele>
        <time>2026-05-09T13:00:03Z</time>
      </trkpt>
      <trkpt lat="46.0837" lon="5.42273">
        <ele>286.6</ele>
        <time>2026-05-09T13:00:04Z</time>
      </trkpt>
      <trkpt lat="46.08369" lon="5.42277">
        <ele>286.6</ele>
        <time>2026-05-09T13:00:05Z</time>
      </trkpt>
      <trkpt lat="46.08369" lon="5.42281">
        <ele>286.6</ele>
        <time>2026-05-09T13:00:06Z</time>
      </trkpt>
      <trkpt lat="46.08369" lon="5.42285">
        <ele>286.8</ele>
        <time>2026-05-09T13:00:07Z</time>
      </trkpt>
      <trkpt lat="46.08368" lon="5.42288">
        <ele>286.8</ele>
        <time>2026-05-09T13:00:08Z</time>
      </trkpt>
      <trkpt lat="46.08368" lon="5.42293">
        <ele>287.2</ele>
        <time>2026-05-09T13:00:09Z</time>
      </trkpt>
      <trkpt lat="46.08367" lon="5.42297">
        <ele>287.2</ele>
        <time>2026-05-09T13:00:10Z</time>
      </trkpt>
      <trkpt lat="46.08367" lon="5.42301">
        <ele>287.2</ele>
        <time>2026-05-09T13:00:11Z</time>
      </trkpt>
      <trkpt lat="46.08367" lon="5.42305">
        <ele>287.2</ele>
        <time>2026-05-09T13:00:12Z</time>
      </trkpt>
      <trkpt lat="46.08367" lon="5.42309">
        <ele>287.4</ele>
        <time>2026-05-09T13:00:13Z</time>
      </trkpt>
      <trkpt lat="46.08367" lon="5.42313">
        <ele>287.6</ele>
        <time>2026-05-09T13:00:14Z</time>
      </trkpt>
      <trkpt lat="46.08366" lon="5.42316">
        <ele>287.6</ele>
        <time>2026-05-09T13:00:15Z</time>
      </trkpt>
      <trkpt lat="46.08365" lon="5.4232">
        <ele>287.6</ele>
        <time>2026-05-09T13:00:16Z</time>
      </trkpt>
      <trkpt lat="46.08364" lon="5.42325">
        <ele>287.6</ele>
        <time>2026-05-09T13:00:17Z</time>
      </trkpt>
      <trkpt lat="46.08363" lon="5.4233">
        <ele>287.6</ele>
        <time>2026-05-09T13:00:18Z</time>
      </trkpt>
      <trkpt lat="46.08362" lon="5.42334">
        <ele>287.6</ele>
        <time>2026-05-09T13:00:19Z</time>
      </trkpt>
      <trkpt lat="46.08361" lon="5.42339">
        <ele>287.6</ele>
        <time>2026-05-09T13:00:20Z</time>
      </trkpt>
      <trkpt lat="46.08359" lon="5.42344">
        <ele>287.6</ele>
        <time>2026-05-09T13:00:21Z</time>
      </trkpt>
      <trkpt lat="46.08358" lon="5.4235">
        <ele>287.4</ele>
        <time>2026-05-09T13:00:22Z</time>
      </trkpt>
      <trkpt lat="46.08355" lon="5.42355">
        <ele>287.4</ele>
        <time>2026-05-09T13:00:23Z</time>
      </trkpt>
      <trkpt lat="46.08352" lon="5.4236">
        <ele>287.4</ele>
        <time>2026-05-09T13:00:24Z</time>
      </trkpt>
      <trkpt lat="46.08349" lon="5.42366">
        <ele>287.4</ele>
        <time>2026-05-09T13:00:25Z</time>
      </trkpt>
      <trkpt lat="46.08347" lon="5.42372">
        <ele>287</ele>
        <time>2026-05-09T13:00:26Z</time>
      </trkpt>
      <trkpt lat="46.08344" lon="5.42378">
        <ele>286.8</ele>
        <time>2026-05-09T13:00:27Z</time>
      </trkpt>
      <trkpt lat="46.08341" lon="5.42384">
        <ele>286.8</ele>
        <time>2026-05-09T13:00:28Z</time>
      </trkpt>
      <trkpt lat="46.08338" lon="5.42389">
        <ele>286.8</ele>
        <time>2026-05-09T13:00:29Z</time>
      </trkpt>
      <trkpt lat="46.08334" lon="5.42395">
        <ele>286.8</ele>
        <time>2026-05-09T13:00:30Z</time>
      </trkpt>
      <trkpt lat="46.08331" lon="5.424">
        <ele>286.4</ele>
        <time>2026-05-09T13:00:31Z</time>
      </trkpt>
      <trkpt lat="46.08328" lon="5.42405">
        <ele>286.4</ele>
        <time>2026-05-09T13:00:32Z</time>
      </trkpt>
      <trkpt lat="46.08324" lon="5.42409">
        <ele>286.8</ele>
        <time>2026-05-09T13:00:33Z</time>
      </trkpt>
      <trkpt lat="46.08321" lon="5.42413">
        <ele>286.8</ele>
        <time>2026-05-09T13:00:34Z</time>
      </trkpt>
      <trkpt lat="46.08318" lon="5.42418">
        <ele>286.8</ele>
        <time>2026-05-09T13:00:35Z</time>
      </trkpt>
      <trkpt lat="46.08314" lon="5.42423">
        <ele>286.8</ele>
        <time>2026-05-09T13:00:36Z</time>
      </trkpt>
      <trkpt lat="46.0831" lon="5.42427">
        <ele>286.8</ele>
        <time>2026-05-09T13:00:37Z</time>
      </trkpt>
      <trkpt lat="46.08307" lon="5.42433">
        <ele>286.8</ele>
        <time>2026-05-09T13:00:38Z</time>
      </trkpt>
      <trkpt lat="46.08303" lon="5.42437">
        <ele>286.8</ele>
        <time>2026-05-09T13:00:39Z</time>
      </trkpt>
      <trkpt lat="46.08299" lon="5.42443">
        <ele>286.4</ele>
        <time>2026-05-09T13:00:40Z</time>
      </trkpt>
      <trkpt lat="46.08295" lon="5.42448">
        <ele>286.4</ele>
        <time>2026-05-09T13:00:41Z</time>
      </trkpt>
      <trkpt lat="46.08292" lon="5.42454">
        <ele>286</ele>
        <time>2026-05-09T13:00:42Z</time>
      </trkpt>
      <trkpt lat="46.08289" lon="5.4246">
        <ele>286</ele>
        <time>2026-05-09T13:00:43Z</time>
      </trkpt>
      <trkpt lat="46.08286" lon="5.42466">
        <ele>286</ele>
        <time>2026-05-09T13:00:44Z</time>
      </trkpt>
      <trkpt lat="46.08283" lon="5.42472">
        <ele>285.8</ele>
        <time>2026-05-09T13:00:45Z</time>
      </trkpt>
      <trkpt lat="46.0828" lon="5.42477">
        <ele>285.8</ele>
        <time>2026-05-09T13:00:46Z</time>
      </trkpt>
      <trkpt lat="46.08277" lon="5.42483">
        <ele>285.8</ele>
        <time>2026-05-09T13:00:47Z</time>
      </trkpt>
      <trkpt lat="46.08273" lon="5.42487">
        <ele>285.8</ele>
        <time>2026-05-09T13:00:48Z</time>
      </trkpt>
      <trkpt lat="46.0827" lon="5.42492">
        <ele>285.8</ele>
        <time>2026-05-09T13:00:49Z</time>
      </trkpt>
      <trkpt lat="46.08267" lon="5.42498">
        <ele>285.8</ele>
        <time>2026-05-09T13:00:50Z</time>
      </trkpt>
      <trkpt lat="46.08264" lon="5.42503">
        <ele>285.8</ele>
        <time>2026-05-09T13:00:51Z</time>
      </trkpt>
      <trkpt lat="46.08262" lon="5.42508">
        <ele>286</ele>
        <time>2026-05-09T13:00:52Z</time>
      </trkpt>
      <trkpt lat="46.08259" lon="5.42512">
        <ele>286</ele>
        <time>2026-05-09T13:00:53Z</time>
      </trkpt>
      <trkpt lat="46.08257" lon="5.42517">
        <ele>286</ele>
        <time>2026-05-09T13:00:54Z</time>
      </trkpt>
      <trkpt lat="46.08254" lon="5.42523">
        <ele>286</ele>
        <time>2026-05-09T13:00:55Z</time>
      </trkpt>
      <trkpt lat="46.08251" lon="5.42527">
        <ele>286</ele>
        <time>2026-05-09T13:00:56Z</time>
      </trkpt>
      <trkpt lat="46.08249" lon="5.42532">
        <ele>286</ele>
        <time>2026-05-09T13:00:57Z</time>
      </trkpt>
      <trkpt lat="46.08245" lon="5.42537">
        <ele>286</ele>
        <time>2026-05-09T13:00:58Z</time>
      </trkpt>
      <trkpt lat="46.08243" lon="5.42542">
        <ele>286.4</ele>
        <time>2026-05-09T13:00:59Z</time>
      </trkpt>
      <trkpt lat="46.0824" lon="5.42546">
        <ele>286.4</ele>
        <time>2026-05-09T13:01:00Z</time>
      </trkpt>
      <trkpt lat="46.08237" lon="5.4255">
        <ele>286.6</ele>
        <time>2026-05-09T13:01:01Z</time>
      </trkpt>
      <trkpt lat="46.08235" lon="5.42555">
        <ele>286.6</ele>
        <time>2026-05-09T13:01:02Z</time>
      </trkpt>
      <trkpt lat="46.08232" lon="5.42559">
        <ele>286.8</ele>
        <time>2026-05-09T13:01:03Z</time>
      </trkpt>
      <trkpt lat="46.08229" lon="5.42563">
        <ele>286.8</ele>
        <time>2026-05-09T13:01:04Z</time>
      </trkpt>
      <trkpt lat="46.08226" lon="5.42567">
        <ele>286.8</ele>
        <time>2026-05-09T13:01:05Z</time>
      </trkpt>
      <trkpt lat="46.08223" lon="5.42571">
        <ele>287.2</ele>
        <time>2026-05-09T13:01:06Z</time>
      </trkpt>
      <trkpt lat="46.0822" lon="5.42575">
        <ele>287.4</ele>
        <time>2026-05-09T13:01:07Z</time>
      </trkpt>
      <trkpt lat="46.08217" lon="5.42578">
        <ele>287.4</ele>
        <time>2026-05-09T13:01:08Z</time>
      </trkpt>
      <trkpt lat="46.08214" lon="5.42581">
        <ele>287.4</ele>
        <time>2026-05-09T13:01:09Z</time>
      </trkpt>
      <trkpt lat="46.08211" lon="5.42584">
        <ele>287.8</ele>
        <time>2026-05-09T13:01:10Z</time>
      </trkpt>
      <trkpt lat="46.08208" lon="5.42587">
        <ele>287.8</ele>
        <time>2026-05-09T13:01:11Z</time>
      </trkpt>
      <trkpt lat="46.08205" lon="5.4259">
        <ele>287.8</ele>
        <time>2026-05-09T13:01:12Z</time>
      </trkpt>
      <trkpt lat="46.08202" lon="5.42593">
        <ele>287.8</ele>
        <time>2026-05-09T13:01:13Z</time>
      </trkpt>
      <trkpt lat="46.08198" lon="5.42596">
        <ele>287.8</ele>
        <time>2026-05-09T13:01:14Z</time>
      </trkpt>
      <trkpt lat="46.08194" lon="5.42598">
        <ele>287.6</ele>
        <time>2026-05-09T13:01:15Z</time>
      </trkpt>
      <trkpt lat="46.0819" lon="5.42599">
        <ele>287.6</ele>
        <time>2026-05-09T13:01:16Z</time>
      </trkpt>
      <trkpt lat="46.08186" lon="5.42601">
        <ele>287.6</ele>
        <time>2026-05-09T13:01:17Z</time>
      </trkpt>
      <trkpt lat="46.08182" lon="5.42602">
        <ele>287.6</ele>
        <time>2026-05-09T13:01:18Z</time>
      </trkpt>
      <trkpt lat="46.08178" lon="5.42604">
        <ele>287.8</ele>
        <time>2026-05-09T13:01:19Z</time>
      </trkpt>
      <trkpt lat="46.08174" lon="5.42606">
        <ele>287.8</ele>
        <time>2026-05-09T13:01:20Z</time>
      </trkpt>
      <trkpt lat="46.0817" lon="5.42608">
        <ele>287.8</ele>
        <time>2026-05-09T13:01:21Z</time>
      </trkpt>
      <trkpt lat="46.08166" lon="5.42611">
        <ele>287.8</ele>
        <time>2026-05-09T13:01:22Z</time>
      </trkpt>
      <trkpt lat="46.08161" lon="5.42614">
        <ele>287.8</ele>
        <time>2026-05-09T13:01:23Z</time>
      </trkpt>
      <trkpt lat="46.08152" lon="5.4262">
        <ele>287.8</ele>
        <time>2026-05-09T13:01:24Z</time>
      </trkpt>
      <trkpt lat="46.08147" lon="5.42623">
        <ele>287.8</ele>
        <time>2026-05-09T13:01:25Z</time>
      </trkpt>
      <trkpt lat="46.08143" lon="5.42627">
        <ele>287.4</ele>
        <time>2026-05-09T13:01:26Z</time>
      </trkpt>
      <trkpt lat="46.08139" lon="5.42629">
        <ele>287.4</ele>
        <time>2026-05-09T13:01:27Z</time>
      </trkpt>
      <trkpt lat="46.08135" lon="5.42632">
        <ele>287.4</ele>
        <time>2026-05-09T13:01:28Z</time>
      </trkpt>
      <trkpt lat="46.0813" lon="5.42635">
        <ele>287.2</ele>
        <time>2026-05-09T13:01:29Z</time>
      </trkpt>
      <trkpt lat="46.08126" lon="5.42638">
        <ele>287.2</ele>
        <time>2026-05-09T13:01:30Z</time>
      </trkpt>
      <trkpt lat="46.08122" lon="5.4264">
        <ele>287.2</ele>
        <time>2026-05-09T13:01:31Z</time>
      </trkpt>
      <trkpt lat="46.08117" lon="5.42642">
        <ele>287</ele>
        <time>2026-05-09T13:01:32Z</time>
      </trkpt>
      <trkpt lat="46.08113" lon="5.42644">
        <ele>287</ele>
        <time>2026-05-09T13:01:33Z</time>
      </trkpt>
      <trkpt lat="46.08108" lon="5.42646">
        <ele>287</ele>
        <time>2026-05-09T13:01:34Z</time>
      </trkpt>
      <trkpt lat="46.08104" lon="5.42648">
        <ele>287</ele>
        <time>2026-05-09T13:01:35Z</time>
      </trkpt>
      <trkpt lat="46.081" lon="5.4265">
        <ele>287.2</ele>
        <time>2026-05-09T13:01:36Z</time>
      </trkpt>
      <trkpt lat="46.08096" lon="5.42651">
        <ele>287.2</ele>
        <time>2026-05-09T13:01:37Z</time>
      </trkpt>
      <trkpt lat="46.08092" lon="5.42653">
        <ele>287.2</ele>
        <time>2026-05-09T13:01:38Z</time>
      </trkpt>
      <trkpt lat="46.08088" lon="5.42655">
        <ele>287.2</ele>
        <time>2026-05-09T13:01:39Z</time>
      </trkpt>
      <trkpt lat="46.08084" lon="5.42657">
        <ele>287.2</ele>
        <time>2026-05-09T13:01:40Z</time>
      </trkpt>
      <trkpt lat="46.0808" lon="5.42658">
        <ele>287.2</ele>
        <time>2026-05-09T13:01:41Z</time>
      </trkpt>
      <trkpt lat="46.08076" lon="5.4266">
        <ele>287.2</ele>
        <time>2026-05-09T13:01:42Z</time>
      </trkpt>
      <trkpt lat="46.08073" lon="5.42663">
        <ele>287.2</ele>
        <time>2026-05-09T13:01:43Z</time>
      </trkpt>
      <trkpt lat="46.08069" lon="5.42666">
        <ele>287.2</ele>
        <time>2026-05-09T13:01:44Z</time>
      </trkpt>
      <trkpt lat="46.08065" lon="5.42669">
        <ele>287.2</ele>
        <time>2026-05-09T13:01:45Z</time>
      </trkpt>
      <trkpt lat="46.08061" lon="5.42672">
        <ele>287</ele>
        <time>2026-05-09T13:01:46Z</time>
      </trkpt>
      <trkpt lat="46.08057" lon="5.42677">
        <ele>287</ele>
        <time>2026-05-09T13:01:47Z</time>
      </trkpt>
      <trkpt lat="46.08053" lon="5.42681">
        <ele>286.6</ele>
        <time>2026-05-09T13:01:48Z</time>
      </trkpt>
      <trkpt lat="46.08048" lon="5.42685">
        <ele>286.6</ele>
        <time>2026-05-09T13:01:49Z</time>
      </trkpt>
      <trkpt lat="46.08045" lon="5.4269">
        <ele>286.6</ele>
        <time>2026-05-09T13:01:50Z</time>
      </trkpt>
      <trkpt lat="46.08041" lon="5.42695">
        <ele>286.2</ele>
        <time>2026-05-09T13:01:51Z</time>
      </trkpt>
      <trkpt lat="46.08038" lon="5.42701">
        <ele>286.2</ele>
        <time>2026-05-09T13:01:52Z</time>
      </trkpt>
      <trkpt lat="46.08036" lon="5.42708">
        <ele>286.2</ele>
        <time>2026-05-09T13:01:53Z</time>
      </trkpt>
      <trkpt lat="46.08033" lon="5.42715">
        <ele>286.2</ele>
        <time>2026-05-09T13:01:54Z</time>
      </trkpt>
      <trkpt lat="46.08031" lon="5.42721">
        <ele>286</ele>
        <time>2026-05-09T13:01:55Z</time>
      </trkpt>
      <trkpt lat="46.08029" lon="5.42728">
        <ele>286</ele>
        <time>2026-05-09T13:01:56Z</time>
      </trkpt>
      <trkpt lat="46.08027" lon="5.42736">
        <ele>286</ele>
        <time>2026-05-09T13:01:57Z</time>
      </trkpt>
      <trkpt lat="46.08026" lon="5.42742">
        <ele>286.4</ele>
        <time>2026-05-09T13:01:58Z</time>
      </trkpt>
      <trkpt lat="46.08025" lon="5.42748">
        <ele>286.4</ele>
        <time>2026-05-09T13:01:59Z</time>
      </trkpt>
      <trkpt lat="46.08024" lon="5.42754">
        <ele>286.6</ele>
        <time>2026-05-09T13:02:00Z</time>
      </trkpt>
      <trkpt lat="46.08024" lon="5.42759">
        <ele>286.6</ele>
        <time>2026-05-09T13:02:01Z</time>
      </trkpt>
      <trkpt lat="46.08023" lon="5.42765">
        <ele>286.6</ele>
        <time>2026-05-09T13:02:02Z</time>
      </trkpt>
      <trkpt lat="46.08022" lon="5.4277">
        <ele>286.6</ele>
        <time>2026-05-09T13:02:03Z</time>
      </trkpt>
      <trkpt lat="46.08021" lon="5.42776">
        <ele>286.8</ele>
        <time>2026-05-09T13:02:04Z</time>
      </trkpt>
      <trkpt lat="46.08019" lon="5.42782">
        <ele>286.8</ele>
        <time>2026-05-09T13:02:05Z</time>
      </trkpt>
      <trkpt lat="46.08017" lon="5.42788">
        <ele>286.8</ele>
        <time>2026-05-09T13:02:06Z</time>
      </trkpt>
      <trkpt lat="46.08016" lon="5.42795">
        <ele>286.8</ele>
        <time>2026-05-09T13:02:07Z</time>
      </trkpt>
      <trkpt lat="46.08014" lon="5.42801">
        <ele>286.8</ele>
        <time>2026-05-09T13:02:08Z</time>
      </trkpt>
      <trkpt lat="46.0801" lon="5.42807">
        <ele>286.6</ele>
        <time>2026-05-09T13:02:09Z</time>
      </trkpt>
      <trkpt lat="46.08006" lon="5.42812">
        <ele>286.6</ele>
        <time>2026-05-09T13:02:10Z</time>
      </trkpt>
      <trkpt lat="46.08001" lon="5.42817">
        <ele>286.4</ele>
        <time>2026-05-09T13:02:11Z</time>
      </trkpt>
      <trkpt lat="46.07995" lon="5.42819">
        <ele>286.4</ele>
        <time>2026-05-09T13:02:12Z</time>
      </trkpt>
      <trkpt lat="46.07989" lon="5.42824">
        <ele>286.2</ele>
        <time>2026-05-09T13:02:13Z</time>
      </trkpt>
      <trkpt lat="46.07983" lon="5.42827">
        <ele>286.2</ele>
        <time>2026-05-09T13:02:14Z</time>
      </trkpt>
      <trkpt lat="46.07977" lon="5.42829">
        <ele>286.2</ele>
        <time>2026-05-09T13:02:15Z</time>
      </trkpt>
      <trkpt lat="46.07973" lon="5.42832">
        <ele>286.2</ele>
        <time>2026-05-09T13:02:16Z</time>
      </trkpt>
      <trkpt lat="46.07968" lon="5.42835">
        <ele>286</ele>
        <time>2026-05-09T13:02:17Z</time>
      </trkpt>
      <trkpt lat="46.07964" lon="5.42838">
        <ele>286</ele>
        <time>2026-05-09T13:02:18Z</time>
      </trkpt>
      <trkpt lat="46.0796" lon="5.42841">
        <ele>286</ele>
        <time>2026-05-09T13:02:19Z</time>
      </trkpt>
      <trkpt lat="46.07956" lon="5.42845">
        <ele>286</ele>
        <time>2026-05-09T13:02:20Z</time>
      </trkpt>
      <trkpt lat="46.07952" lon="5.42848">
        <ele>286</ele>
        <time>2026-05-09T13:02:21Z</time>
      </trkpt>
      <trkpt lat="46.07949" lon="5.42851">
        <ele>286</ele>
        <time>2026-05-09T13:02:22Z</time>
      </trkpt>
      <trkpt lat="46.07946" lon="5.42854">
        <ele>286</ele>
        <time>2026-05-09T13:02:23Z</time>
      </trkpt>
      <trkpt lat="46.07944" lon="5.42859">
        <ele>286</ele>
        <time>2026-05-09T13:02:24Z</time>
      </trkpt>
      <trkpt lat="46.07942" lon="5.42861">
        <ele>286</ele>
        <time>2026-05-09T13:02:25Z</time>
      </trkpt>
      <trkpt lat="46.0794" lon="5.42863">
        <ele>286.2</ele>
        <time>2026-05-09T13:02:26Z</time>
      </trkpt>
      <trkpt lat="46.07939" lon="5.42864">
        <ele>286.2</ele>
        <time>2026-05-09T13:02:27Z</time>
      </trkpt>
      <trkpt lat="46.07939" lon="5.42864">
        <ele>286.4</ele>
        <time>2026-05-09T13:02:28Z</time>
      </trkpt>
      <trkpt lat="46.0794" lon="5.42863">
        <ele>286.4</ele>
        <time>2026-05-09T13:02:29Z</time>
      </trkpt>
      <trkpt lat="46.0794" lon="5.42861">
        <ele>286.6</ele>
        <time>2026-05-09T13:02:32Z</time>
      </trkpt>
      <trkpt lat="46.0794" lon="5.4286">
        <ele>286.6</ele>
        <time>2026-05-09T13:02:33Z</time>
      </trkpt>
      <trkpt lat="46.0794" lon="5.42859">
        <ele>286.6</ele>
        <time>2026-05-09T13:02:34Z</time>
      </trkpt>
      <trkpt lat="46.07941" lon="5.42857">
        <ele>286.4</ele>
        <time>2026-05-09T13:02:35Z</time>
      </trkpt>
      <trkpt lat="46.07942" lon="5.42856">
        <ele>286.4</ele>
        <time>2026-05-09T13:02:36Z</time>
      </trkpt>
      <trkpt lat="46.07942" lon="5.42855">
        <ele>286.4</ele>
        <time>2026-05-09T13:02:37Z</time>
      </trkpt>
      <trkpt lat="46.07942" lon="5.42855">
        <ele>286.4</ele>
        <time>2026-05-09T13:02:38Z</time>
      </trkpt>
      <trkpt lat="46.07942" lon="5.42855">
        <ele>286.4</ele>
        <time>2026-05-09T13:02:39Z</time>
      </trkpt>
      <trkpt lat="46.07942" lon="5.42855">
        <ele>286.4</ele>
        <time>2026-05-09T13:02:40Z</time>
      </trkpt>
      <trkpt lat="46.0794" lon="5.42856">
        <ele>285.8</ele>
        <time>2026-05-09T13:03:22Z</time>
      </trkpt>
      <trkpt lat="46.0794" lon="5.42857">
        <ele>285.8</ele>
        <time>2026-05-09T13:03:23Z</time>
      </trkpt>
      <trkpt lat="46.0794" lon="5.42858">
        <ele>285.8</ele>
        <time>2026-05-09T13:03:24Z</time>
      </trkpt>
      <trkpt lat="46.0794" lon="5.42859">
        <ele>285.8</ele>
        <time>2026-05-09T13:03:25Z</time>
      </trkpt>
      <trkpt lat="46.07939" lon="5.4286">
        <ele>285.6</ele>
        <time>2026-05-09T13:03:26Z</time>
      </trkpt>
      <trkpt lat="46.07939" lon="5.42861">
        <ele>285.6</ele>
        <time>2026-05-09T13:03:27Z</time>
      </trkpt>
      <trkpt lat="46.07938" lon="5.42863">
        <ele>285.6</ele>
        <time>2026-05-09T13:03:28Z</time>
      </trkpt>
      <trkpt lat="46.07937" lon="5.42864">
        <ele>285.6</ele>
        <time>2026-05-09T13:03:29Z</time>
      </trkpt>
      <trkpt lat="46.07936" lon="5.42865">
        <ele>285.6</ele>
        <time>2026-05-09T13:03:30Z</time>
      </trkpt>
      <trkpt lat="46.07935" lon="5.42866">
        <ele>285.8</ele>
        <time>2026-05-09T13:03:31Z</time>
      </trkpt>
      <trkpt lat="46.07935" lon="5.42867">
        <ele>285.8</ele>
        <time>2026-05-09T13:03:32Z</time>
      </trkpt>
      <trkpt lat="46.07934" lon="5.42868">
        <ele>286.2</ele>
        <time>2026-05-09T13:03:33Z</time>
      </trkpt>
      <trkpt lat="46.07933" lon="5.42868">
        <ele>286.2</ele>
        <time>2026-05-09T13:03:34Z</time>
      </trkpt>
      <trkpt lat="46.07932" lon="5.42868">
        <ele>286.4</ele>
        <time>2026-05-09T13:03:35Z</time>
      </trkpt>
      <trkpt lat="46.07931" lon="5.42868">
        <ele>286.4</ele>
        <time>2026-05-09T13:03:36Z</time>
      </trkpt>
      <trkpt lat="46.07931" lon="5.42868">
        <ele>286.4</ele>
        <time>2026-05-09T13:03:37Z</time>
      </trkpt>
      <trkpt lat="46.0793" lon="5.42868">
        <ele>286.4</ele>
        <time>2026-05-09T13:03:38Z</time>
      </trkpt>
      <trkpt lat="46.07929" lon="5.42867">
        <ele>286.4</ele>
        <time>2026-05-09T13:03:39Z</time>
      </trkpt>
      <trkpt lat="46.07929" lon="5.42867">
        <ele>286.6</ele>
        <time>2026-05-09T13:03:40Z</time>
      </trkpt>
      <trkpt lat="46.07926" lon="5.42868">
        <ele>286.8</ele>
        <time>2026-05-09T13:05:26Z</time>
      </trkpt>
      <trkpt lat="46.07926" lon="5.42868">
        <ele>286.8</ele>
        <time>2026-05-09T13:05:27Z</time>
      </trkpt>
      <trkpt lat="46.07925" lon="5.42868">
        <ele>286.8</ele>
        <time>2026-05-09T13:05:28Z</time>
      </trkpt>
      <trkpt lat="46.07924" lon="5.42867">
        <ele>287</ele>
        <time>2026-05-09T13:05:29Z</time>
      </trkpt>
      <trkpt lat="46.07924" lon="5.42867">
        <ele>287</ele>
        <time>2026-05-09T13:05:30Z</time>
      </trkpt>
      <trkpt lat="46.07924" lon="5.42867">
        <ele>287</ele>
        <time>2026-05-09T13:05:31Z</time>
      </trkpt>
      <trkpt lat="46.07922" lon="5.42866">
        <ele>287.2</ele>
        <time>2026-05-09T13:05:34Z</time>
      </trkpt>
      <trkpt lat="46.07921" lon="5.42866">
        <ele>287.2</ele>
        <time>2026-05-09T13:05:35Z</time>
      </trkpt>
      <trkpt lat="46.07919" lon="5.42865">
        <ele>287.2</ele>
        <time>2026-05-09T13:05:36Z</time>
      </trkpt>
      <trkpt lat="46.07917" lon="5.42865">
        <ele>287</ele>
        <time>2026-05-09T13:05:37Z</time>
      </trkpt>
      <trkpt lat="46.07914" lon="5.42864">
        <ele>287</ele>
        <time>2026-05-09T13:05:38Z</time>
      </trkpt>
      <trkpt lat="46.07912" lon="5.42862">
        <ele>286.8</ele>
        <time>2026-05-09T13:05:39Z</time>
      </trkpt>
      <trkpt lat="46.07911" lon="5.4286">
        <ele>286.8</ele>
        <time>2026-05-09T13:05:40Z</time>
      </trkpt>
      <trkpt lat="46.07909" lon="5.42859">
        <ele>286.8</ele>
        <time>2026-05-09T13:05:41Z</time>
      </trkpt>
      <trkpt lat="46.07906" lon="5.42858">
        <ele>286.8</ele>
        <time>2026-05-09T13:05:42Z</time>
      </trkpt>
      <trkpt lat="46.07904" lon="5.42856">
        <ele>286.4</ele>
        <time>2026-05-09T13:05:43Z</time>
      </trkpt>
      <trkpt lat="46.07903" lon="5.42853">
        <ele>286.4</ele>
        <time>2026-05-09T13:05:44Z</time>
      </trkpt>
      <trkpt lat="46.07902" lon="5.42851">
        <ele>286.2</ele>
        <time>2026-05-09T13:05:45Z</time>
      </trkpt>
      <trkpt lat="46.07903" lon="5.42849">
        <ele>286.2</ele>
        <time>2026-05-09T13:05:46Z</time>
      </trkpt>
      <trkpt lat="46.07903" lon="5.42848">
        <ele>286.2</ele>
        <time>2026-05-09T13:05:47Z</time>
      </trkpt>
      <trkpt lat="46.07904" lon="5.42849">
        <ele>286.2</ele>
        <time>2026-05-09T13:05:48Z</time>
      </trkpt>
      <trkpt lat="46.07904" lon="5.42849">
        <ele>286.2</ele>
        <time>2026-05-09T13:05:49Z</time>
      </trkpt>
      <trkpt lat="46.07905" lon="5.42848">
        <ele>286.8</ele>
        <time>2026-05-09T13:06:27Z</time>
      </trkpt>
      <trkpt lat="46.07904" lon="5.42847">
        <ele>286.8</ele>
        <time>2026-05-09T13:06:28Z</time>
      </trkpt>
      <trkpt lat="46.07904" lon="5.42846">
        <ele>286.8</ele>
        <time>2026-05-09T13:06:29Z</time>
      </trkpt>
      <trkpt lat="46.07903" lon="5.42846">
        <ele>286.8</ele>
        <time>2026-05-09T13:06:30Z</time>
      </trkpt>
      <trkpt lat="46.07902" lon="5.42847">
        <ele>286.8</ele>
        <time>2026-05-09T13:06:31Z</time>
      </trkpt>
      <trkpt lat="46.07902" lon="5.42847">
        <ele>286.8</ele>
        <time>2026-05-09T13:06:32Z</time>
      </trkpt>
      <trkpt lat="46.07902" lon="5.42848">
        <ele>286.6</ele>
        <time>2026-05-09T13:06:38Z</time>
      </trkpt>
      <trkpt lat="46.07902" lon="5.42851">
        <ele>286.6</ele>
        <time>2026-05-09T13:06:39Z</time>
      </trkpt>
      <trkpt lat="46.07903" lon="5.42853">
        <ele>286.6</ele>
        <time>2026-05-09T13:06:40Z</time>
      </trkpt>
      <trkpt lat="46.07904" lon="5.42854">
        <ele>286.6</ele>
        <time>2026-05-09T13:06:41Z</time>
      </trkpt>
      <trkpt lat="46.07906" lon="5.42855">
        <ele>286.6</ele>
        <time>2026-05-09T13:06:42Z</time>
      </trkpt>
      <trkpt lat="46.07908" lon="5.42856">
        <ele>286.6</ele>
        <time>2026-05-09T13:06:43Z</time>
      </trkpt>
      <trkpt lat="46.0791" lon="5.42857">
        <ele>286.6</ele>
        <time>2026-05-09T13:06:44Z</time>
      </trkpt>
      <trkpt lat="46.07912" lon="5.42857">
        <ele>286.8</ele>
        <time>2026-05-09T13:06:45Z</time>
      </trkpt>
      <trkpt lat="46.07914" lon="5.42858">
        <ele>286.8</ele>
        <time>2026-05-09T13:06:46Z</time>
      </trkpt>
      <trkpt lat="46.07915" lon="5.4286">
        <ele>286.8</ele>
        <time>2026-05-09T13:06:47Z</time>
      </trkpt>
      <trkpt lat="46.07917" lon="5.42861">
        <ele>286.8</ele>
        <time>2026-05-09T13:06:48Z</time>
      </trkpt>
      <trkpt lat="46.07917" lon="5.42863">
        <ele>286.8</ele>
        <time>2026-05-09T13:06:49Z</time>
      </trkpt>
      <trkpt lat="46.07918" lon="5.42865">
        <ele>286.8</ele>
        <time>2026-05-09T13:06:50Z</time>
      </trkpt>
      <trkpt lat="46.07919" lon="5.42866">
        <ele>286.8</ele>
        <time>2026-05-09T13:06:51Z</time>
      </trkpt>
      <trkpt lat="46.07921" lon="5.42866">
        <ele>286.8</ele>
        <time>2026-05-09T13:06:52Z</time>
      </trkpt>
      <trkpt lat="46.07921" lon="5.42864">
        <ele>286.8</ele>
        <time>2026-05-09T13:06:53Z</time>
      </trkpt>
      <trkpt lat="46.07921" lon="5.42862">
        <ele>286.8</ele>
        <time>2026-05-09T13:06:54Z</time>
      </trkpt>
      <trkpt lat="46.07919" lon="5.42861">
        <ele>286.8</ele>
        <time>2026-05-09T13:06:55Z</time>
      </trkpt>
      <trkpt lat="46.07918" lon="5.4286">
        <ele>287</ele>
        <time>2026-05-09T13:06:56Z</time>
      </trkpt>
      <trkpt lat="46.07917" lon="5.42859">
        <ele>287</ele>
        <time>2026-05-09T13:06:57Z</time>
      </trkpt>
      <trkpt lat="46.07917" lon="5.42859">
        <ele>287</ele>
        <time>2026-05-09T13:06:58Z</time>
      </trkpt>
      <trkpt lat="46.07915" lon="5.42856">
        <ele>287.2</ele>
        <time>2026-05-09T13:07:16Z</time>
      </trkpt>
      <trkpt lat="46.07913" lon="5.42855">
        <ele>287.2</ele>
        <time>2026-05-09T13:07:17Z</time>
      </trkpt>
      <trkpt lat="46.07911" lon="5.42855">
        <ele>287.2</ele>
        <time>2026-05-09T13:07:18Z</time>
      </trkpt>
      <trkpt lat="46.0791" lon="5.42854">
        <ele>287.2</ele>
        <time>2026-05-09T13:07:19Z</time>
      </trkpt>
      <trkpt lat="46.07908" lon="5.42853">
        <ele>287</ele>
        <time>2026-05-09T13:07:20Z</time>
      </trkpt>
      <trkpt lat="46.07906" lon="5.42853">
        <ele>287</ele>
        <time>2026-05-09T13:07:21Z</time>
      </trkpt>
      <trkpt lat="46.07904" lon="5.42851">
        <ele>287</ele>
        <time>2026-05-09T13:07:22Z</time>
      </trkpt>
      <trkpt lat="46.07901" lon="5.4285">
        <ele>287</ele>
        <time>2026-05-09T13:07:23Z</time>
      </trkpt>
      <trkpt lat="46.07899" lon="5.42848">
        <ele>287</ele>
        <time>2026-05-09T13:07:24Z</time>
      </trkpt>
      <trkpt lat="46.07897" lon="5.42847">
        <ele>287</ele>
        <time>2026-05-09T13:07:25Z</time>
      </trkpt>
      <trkpt lat="46.07895" lon="5.42845">
        <ele>287</ele>
        <time>2026-05-09T13:07:26Z</time>
      </trkpt>
      <trkpt lat="46.07893" lon="5.42842">
        <ele>287</ele>
        <time>2026-05-09T13:07:27Z</time>
      </trkpt>
      <trkpt lat="46.07892" lon="5.4284">
        <ele>287.2</ele>
        <time>2026-05-09T13:07:28Z</time>
      </trkpt>
      <trkpt lat="46.0789" lon="5.42837">
        <ele>287</ele>
        <time>2026-05-09T13:07:29Z</time>
      </trkpt>
      <trkpt lat="46.07889" lon="5.42835">
        <ele>286.6</ele>
        <time>2026-05-09T13:07:30Z</time>
      </trkpt>
      <trkpt lat="46.07887" lon="5.42833">
        <ele>286.4</ele>
        <time>2026-05-09T13:07:31Z</time>
      </trkpt>
      <trkpt lat="46.07885" lon="5.42831">
        <ele>286.4</ele>
        <time>2026-05-09T13:07:32Z</time>
      </trkpt>
      <trkpt lat="46.07883" lon="5.42829">
        <ele>286.4</ele>
        <time>2026-05-09T13:07:33Z</time>
      </trkpt>
      <trkpt lat="46.07881" lon="5.42827">
        <ele>286.4</ele>
        <time>2026-05-09T13:07:34Z</time>
      </trkpt>
      <trkpt lat="46.07879" lon="5.42824">
        <ele>286.4</ele>
        <time>2026-05-09T13:07:35Z</time>
      </trkpt>
      <trkpt lat="46.07877" lon="5.42822">
        <ele>286.4</ele>
        <time>2026-05-09T13:07:36Z</time>
      </trkpt>
      <trkpt lat="46.07876" lon="5.42819">
        <ele>286.4</ele>
        <time>2026-05-09T13:07:37Z</time>
      </trkpt>
      <trkpt lat="46.07875" lon="5.42818">
        <ele>286.4</ele>
        <time>2026-05-09T13:07:38Z</time>
      </trkpt>
      <trkpt lat="46.07874" lon="5.42814">
        <ele>286.4</ele>
        <time>2026-05-09T13:07:39Z</time>
      </trkpt>
      <trkpt lat="46.07873" lon="5.42812">
        <ele>286.4</ele>
        <time>2026-05-09T13:07:40Z</time>
      </trkpt>
      <trkpt lat="46.07872" lon="5.4281">
        <ele>286.4</ele>
        <time>2026-05-09T13:07:41Z</time>
      </trkpt>
      <trkpt lat="46.0787" lon="5.42809">
        <ele>286.4</ele>
        <time>2026-05-09T13:07:42Z</time>
      </trkpt>
      <trkpt lat="46.07869" lon="5.42808">
        <ele>286.8</ele>
        <time>2026-05-09T13:07:43Z</time>
      </trkpt>
      <trkpt lat="46.07868" lon="5.42807">
        <ele>286.8</ele>
        <time>2026-05-09T13:07:44Z</time>
      </trkpt>
      <trkpt lat="46.07866" lon="5.42806">
        <ele>286.8</ele>
        <time>2026-05-09T13:07:45Z</time>
      </trkpt>
      <trkpt lat="46.07865" lon="5.42805">
        <ele>286.8</ele>
        <time>2026-05-09T13:07:46Z</time>
      </trkpt>
      <trkpt lat="46.07864" lon="5.42804">
        <ele>286.8</ele>
        <time>2026-05-09T13:07:47Z</time>
      </trkpt>
      <trkpt lat="46.07862" lon="5.42804">
        <ele>286.8</ele>
        <time>2026-05-09T13:07:48Z</time>
      </trkpt>
      <trkpt lat="46.07861" lon="5.42803">
        <ele>287</ele>
        <time>2026-05-09T13:07:49Z</time>
      </trkpt>
      <trkpt lat="46.0786" lon="5.42803">
        <ele>287</ele>
        <time>2026-05-09T13:07:50Z</time>
      </trkpt>
      <trkpt lat="46.07857" lon="5.42803">
        <ele>287</ele>
        <time>2026-05-09T13:07:51Z</time>
      </trkpt>
      <trkpt lat="46.07857" lon="5.42803">
        <ele>287</ele>
        <time>2026-05-09T13:07:52Z</time>
      </trkpt>
      <trkpt lat="46.07857" lon="5.42803">
        <ele>287.4</ele>
        <time>2026-05-09T13:07:53Z</time>
      </trkpt>
      <trkpt lat="46.07857" lon="5.42803">
        <ele>287.4</ele>
        <time>2026-05-09T13:07:54Z</time>
      </trkpt>
      <trkpt lat="46.0785" lon="5.42805">
        <ele>287.4</ele>
        <time>2026-05-09T13:07:55Z</time>
      </trkpt>
      <trkpt lat="46.07847" lon="5.42805">
        <ele>287.4</ele>
        <time>2026-05-09T13:07:56Z</time>
      </trkpt>
      <trkpt lat="46.07845" lon="5.42804">
        <ele>287.4</ele>
        <time>2026-05-09T13:07:57Z</time>
      </trkpt>
      <trkpt lat="46.07842" lon="5.42803">
        <ele>287.4</ele>
        <time>2026-05-09T13:07:58Z</time>
      </trkpt>
      <trkpt lat="46.0784" lon="5.42802">
        <ele>287.4</ele>
        <time>2026-05-09T13:07:59Z</time>
      </trkpt>
      <trkpt lat="46.07839" lon="5.42802">
        <ele>287.4</ele>
        <time>2026-05-09T13:08:00Z</time>
      </trkpt>
      <trkpt lat="46.07837" lon="5.42801">
        <ele>287.4</ele>
        <time>2026-05-09T13:08:01Z</time>
      </trkpt>
      <trkpt lat="46.07835" lon="5.42801">
        <ele>287.4</ele>
        <time>2026-05-09T13:08:02Z</time>
      </trkpt>
      <trkpt lat="46.07833" lon="5.42799">
        <ele>287.4</ele>
        <time>2026-05-09T13:08:03Z</time>
      </trkpt>
      <trkpt lat="46.07831" lon="5.42797">
        <ele>287.4</ele>
        <time>2026-05-09T13:08:04Z</time>
      </trkpt>
      <trkpt lat="46.07829" lon="5.42796">
        <ele>287.4</ele>
        <time>2026-05-09T13:08:05Z</time>
      </trkpt>
      <trkpt lat="46.07826" lon="5.42795">
        <ele>287.6</ele>
        <time>2026-05-09T13:08:06Z</time>
      </trkpt>
      <trkpt lat="46.07824" lon="5.42795">
        <ele>287.6</ele>
        <time>2026-05-09T13:08:07Z</time>
      </trkpt>
      <trkpt lat="46.07821" lon="5.42796">
        <ele>287.6</ele>
        <time>2026-05-09T13:08:08Z</time>
      </trkpt>
      <trkpt lat="46.07819" lon="5.42797">
        <ele>287.6</ele>
        <time>2026-05-09T13:08:09Z</time>
      </trkpt>
      <trkpt lat="46.07817" lon="5.42798">
        <ele>287.6</ele>
        <time>2026-05-09T13:08:10Z</time>
      </trkpt>
      <trkpt lat="46.07815" lon="5.42798">
        <ele>287.6</ele>
        <time>2026-05-09T13:08:11Z</time>
      </trkpt>
      <trkpt lat="46.07813" lon="5.42798">
        <ele>287.6</ele>
        <time>2026-05-09T13:08:12Z</time>
      </trkpt>
      <trkpt lat="46.07812" lon="5.42798">
        <ele>287.6</ele>
        <time>2026-05-09T13:08:13Z</time>
      </trkpt>
      <trkpt lat="46.07809" lon="5.42799">
        <ele>287.6</ele>
        <time>2026-05-09T13:08:14Z</time>
      </trkpt>
      <trkpt lat="46.07807" lon="5.428">
        <ele>287.6</ele>
        <time>2026-05-09T13:08:15Z</time>
      </trkpt>
      <trkpt lat="46.07805" lon="5.428">
        <ele>287.6</ele>
        <time>2026-05-09T13:08:16Z</time>
      </trkpt>
      <trkpt lat="46.07803" lon="5.42801">
        <ele>287.6</ele>
        <time>2026-05-09T13:08:17Z</time>
      </trkpt>
      <trkpt lat="46.07801" lon="5.42801">
        <ele>287.8</ele>
        <time>2026-05-09T13:08:18Z</time>
      </trkpt>
      <trkpt lat="46.078" lon="5.42801">
        <ele>287.8</ele>
        <time>2026-05-09T13:08:19Z</time>
      </trkpt>
      <trkpt lat="46.07798" lon="5.42802">
        <ele>287.8</ele>
        <time>2026-05-09T13:08:20Z</time>
      </trkpt>
      <trkpt lat="46.07797" lon="5.42802">
        <ele>287.8</ele>
        <time>2026-05-09T13:08:21Z</time>
      </trkpt>
      <trkpt lat="46.07796" lon="5.42802">
        <ele>287.8</ele>
        <time>2026-05-09T13:08:22Z</time>
      </trkpt>
      <trkpt lat="46.07794" lon="5.42801">
        <ele>287.8</ele>
        <time>2026-05-09T13:08:23Z</time>
      </trkpt>
      <trkpt lat="46.07793" lon="5.42801">
        <ele>288</ele>
        <time>2026-05-09T13:08:24Z</time>
      </trkpt>
      <trkpt lat="46.07793" lon="5.428">
        <ele>288</ele>
        <time>2026-05-09T13:08:25Z</time>
      </trkpt>
      <trkpt lat="46.07793" lon="5.428">
        <ele>288</ele>
        <time>2026-05-09T13:08:26Z</time>
      </trkpt>
      <trkpt lat="46.07793" lon="5.42799">
        <ele>288</ele>
        <time>2026-05-09T13:08:27Z</time>
      </trkpt>
      <trkpt lat="46.07792" lon="5.42799">
        <ele>288</ele>
        <time>2026-05-09T13:08:28Z</time>
      </trkpt>
      <trkpt lat="46.07789" lon="5.42798">
        <ele>288</ele>
        <time>2026-05-09T13:08:29Z</time>
      </trkpt>
      <trkpt lat="46.07787" lon="5.42799">
        <ele>288</ele>
        <time>2026-05-09T13:08:30Z</time>
      </trkpt>
      <trkpt lat="46.07785" lon="5.42802">
        <ele>288</ele>
        <time>2026-05-09T13:08:31Z</time>
      </trkpt>
      <trkpt lat="46.07783" lon="5.42807">
        <ele>288</ele>
        <time>2026-05-09T13:08:32Z</time>
      </trkpt>
      <trkpt lat="46.07782" lon="5.42812">
        <ele>288</ele>
        <time>2026-05-09T13:08:33Z</time>
      </trkpt>
      <trkpt lat="46.07781" lon="5.42818">
        <ele>288</ele>
        <time>2026-05-09T13:08:34Z</time>
      </trkpt>
      <trkpt lat="46.0778" lon="5.42824">
        <ele>287.8</ele>
        <time>2026-05-09T13:08:35Z</time>
      </trkpt>
      <trkpt lat="46.0778" lon="5.42824">
        <ele>287.8</ele>
        <time>2026-05-09T13:08:36Z</time>
      </trkpt>
      <trkpt lat="46.0778" lon="5.42824">
        <ele>288.2</ele>
        <time>2026-05-09T13:08:37Z</time>
      </trkpt>
      <trkpt lat="46.07776" lon="5.42841">
        <ele>288.2</ele>
        <time>2026-05-09T13:08:38Z</time>
      </trkpt>
      <trkpt lat="46.07775" lon="5.42847">
        <ele>288.2</ele>
        <time>2026-05-09T13:08:39Z</time>
      </trkpt>
      <trkpt lat="46.07774" lon="5.42854">
        <ele>288.4</ele>
        <time>2026-05-09T13:08:40Z</time>
      </trkpt>
      <trkpt lat="46.07772" lon="5.4286">
        <ele>288.4</ele>
        <time>2026-05-09T13:08:41Z</time>
      </trkpt>
      <trkpt lat="46.07771" lon="5.42866">
        <ele>288.2</ele>
        <time>2026-05-09T13:08:42Z</time>
      </trkpt>
      <trkpt lat="46.0777" lon="5.42873">
        <ele>288.4</ele>
        <time>2026-05-09T13:08:43Z</time>
      </trkpt>
      <trkpt lat="46.07768" lon="5.4288">
        <ele>288.4</ele>
        <time>2026-05-09T13:08:44Z</time>
      </trkpt>
      <trkpt lat="46.07767" lon="5.42885">
        <ele>288.6</ele>
        <time>2026-05-09T13:08:45Z</time>
      </trkpt>
      <trkpt lat="46.07766" lon="5.42891">
        <ele>288.6</ele>
        <time>2026-05-09T13:08:46Z</time>
      </trkpt>
      <trkpt lat="46.07764" lon="5.42896">
        <ele>288.6</ele>
        <time>2026-05-09T13:08:47Z</time>
      </trkpt>
      <trkpt lat="46.07763" lon="5.42902">
        <ele>288.6</ele>
        <time>2026-05-09T13:08:48Z</time>
      </trkpt>
      <trkpt lat="46.07762" lon="5.42908">
        <ele>289</ele>
        <time>2026-05-09T13:08:49Z</time>
      </trkpt>
      <trkpt lat="46.0776" lon="5.42914">
        <ele>289</ele>
        <time>2026-05-09T13:08:50Z</time>
      </trkpt>
      <trkpt lat="46.07759" lon="5.4292">
        <ele>289</ele>
        <time>2026-05-09T13:08:51Z</time>
      </trkpt>
      <trkpt lat="46.07757" lon="5.42927">
        <ele>289</ele>
        <time>2026-05-09T13:08:52Z</time>
      </trkpt>
      <trkpt lat="46.07755" lon="5.42932">
        <ele>289.2</ele>
        <time>2026-05-09T13:08:53Z</time>
      </trkpt>
      <trkpt lat="46.07754" lon="5.42938">
        <ele>289.2</ele>
        <time>2026-05-09T13:08:54Z</time>
      </trkpt>
      <trkpt lat="46.07752" lon="5.42945">
        <ele>289.2</ele>
        <time>2026-05-09T13:08:55Z</time>
      </trkpt>
      <trkpt lat="46.07751" lon="5.4295">
        <ele>289.6</ele>
        <time>2026-05-09T13:08:56Z</time>
      </trkpt>
      <trkpt lat="46.0775" lon="5.42957">
        <ele>289.6</ele>
        <time>2026-05-09T13:08:57Z</time>
      </trkpt>
      <trkpt lat="46.07749" lon="5.42963">
        <ele>289.8</ele>
        <time>2026-05-09T13:08:58Z</time>
      </trkpt>
      <trkpt lat="46.07747" lon="5.4297">
        <ele>289.8</ele>
        <time>2026-05-09T13:08:59Z</time>
      </trkpt>
      <trkpt lat="46.07745" lon="5.42976">
        <ele>289.8</ele>
        <time>2026-05-09T13:09:00Z</time>
      </trkpt>
      <trkpt lat="46.07744" lon="5.42983">
        <ele>289.8</ele>
        <time>2026-05-09T13:09:01Z</time>
      </trkpt>
      <trkpt lat="46.07743" lon="5.4299">
        <ele>289.8</ele>
        <time>2026-05-09T13:09:02Z</time>
      </trkpt>
      <trkpt lat="46.07741" lon="5.42996">
        <ele>289.8</ele>
        <time>2026-05-09T13:09:03Z</time>
      </trkpt>
      <trkpt lat="46.07739" lon="5.43003">
        <ele>289.8</ele>
        <time>2026-05-09T13:09:04Z</time>
      </trkpt>
      <trkpt lat="46.07738" lon="5.4301">
        <ele>289.8</ele>
        <time>2026-05-09T13:09:05Z</time>
      </trkpt>
      <trkpt lat="46.07736" lon="5.43016">
        <ele>290</ele>
        <time>2026-05-09T13:09:06Z</time>
      </trkpt>
      <trkpt lat="46.07735" lon="5.43023">
        <ele>290</ele>
        <time>2026-05-09T13:09:07Z</time>
      </trkpt>
      <trkpt lat="46.07733" lon="5.4303">
        <ele>290</ele>
        <time>2026-05-09T13:09:08Z</time>
      </trkpt>
      <trkpt lat="46.07731" lon="5.43036">
        <ele>290</ele>
        <time>2026-05-09T13:09:09Z</time>
      </trkpt>
      <trkpt lat="46.07731" lon="5.43041">
        <ele>290.4</ele>
        <time>2026-05-09T13:09:10Z</time>
      </trkpt>
      <trkpt lat="46.07729" lon="5.43048">
        <ele>290.4</ele>
        <time>2026-05-09T13:09:11Z</time>
      </trkpt>
      <trkpt lat="46.07728" lon="5.43054">
        <ele>290.4</ele>
        <time>2026-05-09T13:09:12Z</time>
      </trkpt>
      <trkpt lat="46.07726" lon="5.43061">
        <ele>290.4</ele>
        <time>2026-05-09T13:09:13Z</time>
      </trkpt>
      <trkpt lat="46.07725" lon="5.43067">
        <ele>290.4</ele>
        <time>2026-05-09T13:09:14Z</time>
      </trkpt>
      <trkpt lat="46.07723" lon="5.43074">
        <ele>290.4</ele>
        <time>2026-05-09T13:09:15Z</time>
      </trkpt>
      <trkpt lat="46.07721" lon="5.4308">
        <ele>290.4</ele>
        <time>2026-05-09T13:09:16Z</time>
      </trkpt>
      <trkpt lat="46.0772" lon="5.43087">
        <ele>290.4</ele>
        <time>2026-05-09T13:09:17Z</time>
      </trkpt>
      <trkpt lat="46.07718" lon="5.43094">
        <ele>290.4</ele>
        <time>2026-05-09T13:09:18Z</time>
      </trkpt>
      <trkpt lat="46.07716" lon="5.43101">
        <ele>290.4</ele>
        <time>2026-05-09T13:09:19Z</time>
      </trkpt>
      <trkpt lat="46.07714" lon="5.43107">
        <ele>290.4</ele>
        <time>2026-05-09T13:09:20Z</time>
      </trkpt>
      <trkpt lat="46.07713" lon="5.43114">
        <ele>290.4</ele>
        <time>2026-05-09T13:09:21Z</time>
      </trkpt>
      <trkpt lat="46.07711" lon="5.43122">
        <ele>290.4</ele>
        <time>2026-05-09T13:09:22Z</time>
      </trkpt>
      <trkpt lat="46.0771" lon="5.43129">
        <ele>290.4</ele>
        <time>2026-05-09T13:09:23Z</time>
      </trkpt>
      <trkpt lat="46.07709" lon="5.43135">
        <ele>290.6</ele>
        <time>2026-05-09T13:09:24Z</time>
      </trkpt>
      <trkpt lat="46.07708" lon="5.43142">
        <ele>290.6</ele>
        <time>2026-05-09T13:09:25Z</time>
      </trkpt>
      <trkpt lat="46.07706" lon="5.4315">
        <ele>290.8</ele>
        <time>2026-05-09T13:09:26Z</time>
      </trkpt>
      <trkpt lat="46.07704" lon="5.43157">
        <ele>290.8</ele>
        <time>2026-05-09T13:09:27Z</time>
      </trkpt>
      <trkpt lat="46.07702" lon="5.43165">
        <ele>290.6</ele>
        <time>2026-05-09T13:09:28Z</time>
      </trkpt>
      <trkpt lat="46.07701" lon="5.43173">
        <ele>290.6</ele>
        <time>2026-05-09T13:09:29Z</time>
      </trkpt>
      <trkpt lat="46.07698" lon="5.4318">
        <ele>290.6</ele>
        <time>2026-05-09T13:09:30Z</time>
      </trkpt>
      <trkpt lat="46.07697" lon="5.43188">
        <ele>290.6</ele>
        <time>2026-05-09T13:09:31Z</time>
      </trkpt>
      <trkpt lat="46.07695" lon="5.43196">
        <ele>290.6</ele>
        <time>2026-05-09T13:09:32Z</time>
      </trkpt>
      <trkpt lat="46.07694" lon="5.43203">
        <ele>290.6</ele>
        <time>2026-05-09T13:09:33Z</time>
      </trkpt>
      <trkpt lat="46.07691" lon="5.4321">
        <ele>290.4</ele>
        <time>2026-05-09T13:09:34Z</time>
      </trkpt>
      <trkpt lat="46.0769" lon="5.43217">
        <ele>290.4</ele>
        <time>2026-05-09T13:09:35Z</time>
      </trkpt>
      <trkpt lat="46.07688" lon="5.43225">
        <ele>290.4</ele>
        <time>2026-05-09T13:09:36Z</time>
      </trkpt>
      <trkpt lat="46.07686" lon="5.43232">
        <ele>290.6</ele>
        <time>2026-05-09T13:09:37Z</time>
      </trkpt>
      <trkpt lat="46.07684" lon="5.4324">
        <ele>290.6</ele>
        <time>2026-05-09T13:09:38Z</time>
      </trkpt>
      <trkpt lat="46.07683" lon="5.43247">
        <ele>290.8</ele>
        <time>2026-05-09T13:09:39Z</time>
      </trkpt>
      <trkpt lat="46.07681" lon="5.43255">
        <ele>290.8</ele>
        <time>2026-05-09T13:09:40Z</time>
      </trkpt>
      <trkpt lat="46.07679" lon="5.43262">
        <ele>290.8</ele>
        <time>2026-05-09T13:09:41Z</time>
      </trkpt>
      <trkpt lat="46.07678" lon="5.4327">
        <ele>290.8</ele>
        <time>2026-05-09T13:09:42Z</time>
      </trkpt>
      <trkpt lat="46.07676" lon="5.43277">
        <ele>290.8</ele>
        <time>2026-05-09T13:09:43Z</time>
      </trkpt>
      <trkpt lat="46.07675" lon="5.43285">
        <ele>291.2</ele>
        <time>2026-05-09T13:09:44Z</time>
      </trkpt>
      <trkpt lat="46.07673" lon="5.43292">
        <ele>291.2</ele>
        <time>2026-05-09T13:09:45Z</time>
      </trkpt>
      <trkpt lat="46.07672" lon="5.43299">
        <ele>291.2</ele>
        <time>2026-05-09T13:09:46Z</time>
      </trkpt>
      <trkpt lat="46.0767" lon="5.43306">
        <ele>291.4</ele>
        <time>2026-05-09T13:09:47Z</time>
      </trkpt>
      <trkpt lat="46.07668" lon="5.43314">
        <ele>291.4</ele>
        <time>2026-05-09T13:09:48Z</time>
      </trkpt>
      <trkpt lat="46.07667" lon="5.43321">
        <ele>291.6</ele>
        <time>2026-05-09T13:09:49Z</time>
      </trkpt>
      <trkpt lat="46.07665" lon="5.43329">
        <ele>291.6</ele>
        <time>2026-05-09T13:09:50Z</time>
      </trkpt>
      <trkpt lat="46.07664" lon="5.43336">
        <ele>291.8</ele>
        <time>2026-05-09T13:09:51Z</time>
      </trkpt>
      <trkpt lat="46.07662" lon="5.43343">
        <ele>291.8</ele>
        <time>2026-05-09T13:09:52Z</time>
      </trkpt>
      <trkpt lat="46.07661" lon="5.4335">
        <ele>292</ele>
        <time>2026-05-09T13:09:53Z</time>
      </trkpt>
      <trkpt lat="46.07661" lon="5.4335">
        <ele>292</ele>
        <time>2026-05-09T13:09:54Z</time>
      </trkpt>
      <trkpt lat="46.07659" lon="5.43357">
        <ele>292</ele>
        <time>2026-05-09T13:09:55Z</time>
      </trkpt>
      <trkpt lat="46.07658" lon="5.43365">
        <ele>292</ele>
        <time>2026-05-09T13:09:56Z</time>
      </trkpt>
      <trkpt lat="46.07656" lon="5.43372">
        <ele>292</ele>
        <time>2026-05-09T13:09:57Z</time>
      </trkpt>
      <trkpt lat="46.07655" lon="5.43379">
        <ele>292.4</ele>
        <time>2026-05-09T13:09:58Z</time>
      </trkpt>
      <trkpt lat="46.07653" lon="5.43386">
        <ele>292.4</ele>
        <time>2026-05-09T13:09:59Z</time>
      </trkpt>
      <trkpt lat="46.07651" lon="5.43393">
        <ele>292.4</ele>
        <time>2026-05-09T13:10:00Z</time>
      </trkpt>
      <trkpt lat="46.07649" lon="5.434">
        <ele>292.4</ele>
        <time>2026-05-09T13:10:01Z</time>
      </trkpt>
      <trkpt lat="46.07648" lon="5.43407">
        <ele>292.8</ele>
        <time>2026-05-09T13:10:02Z</time>
      </trkpt>
      <trkpt lat="46.07646" lon="5.43414">
        <ele>292.8</ele>
        <time>2026-05-09T13:10:03Z</time>
      </trkpt>
      <trkpt lat="46.07644" lon="5.43422">
        <ele>292.8</ele>
        <time>2026-05-09T13:10:04Z</time>
      </trkpt>
      <trkpt lat="46.07643" lon="5.4343">
        <ele>293</ele>
        <time>2026-05-09T13:10:05Z</time>
      </trkpt>
      <trkpt lat="46.07641" lon="5.43437">
        <ele>293</ele>
        <time>2026-05-09T13:10:06Z</time>
      </trkpt>
      <trkpt lat="46.0764" lon="5.43444">
        <ele>293</ele>
        <time>2026-05-09T13:10:07Z</time>
      </trkpt>
      <trkpt lat="46.07638" lon="5.43451">
        <ele>293</ele>
        <time>2026-05-09T13:10:08Z</time>
      </trkpt>
      <trkpt lat="46.07636" lon="5.43459">
        <ele>293</ele>
        <time>2026-05-09T13:10:09Z</time>
      </trkpt>
      <trkpt lat="46.07634" lon="5.43466">
        <ele>293</ele>
        <time>2026-05-09T13:10:10Z</time>
      </trkpt>
      <trkpt lat="46.07633" lon="5.43474">
        <ele>293.4</ele>
        <time>2026-05-09T13:10:11Z</time>
      </trkpt>
      <trkpt lat="46.07631" lon="5.43481">
        <ele>293.4</ele>
        <time>2026-05-09T13:10:12Z</time>
      </trkpt>
      <trkpt lat="46.0763" lon="5.43489">
        <ele>293.4</ele>
        <time>2026-05-09T13:10:13Z</time>
      </trkpt>
      <trkpt lat="46.07628" lon="5.43496">
        <ele>293.4</ele>
        <time>2026-05-09T13:10:14Z</time>
      </trkpt>
      <trkpt lat="46.07626" lon="5.43504">
        <ele>293.4</ele>
        <time>2026-05-09T13:10:15Z</time>
      </trkpt>
      <trkpt lat="46.07625" lon="5.43511">
        <ele>293.4</ele>
        <time>2026-05-09T13:10:16Z</time>
      </trkpt>
      <trkpt lat="46.07623" lon="5.43519">
        <ele>293.6</ele>
        <time>2026-05-09T13:10:17Z</time>
      </trkpt>
      <trkpt lat="46.07622" lon="5.43526">
        <ele>293.6</ele>
        <time>2026-05-09T13:10:18Z</time>
      </trkpt>
      <trkpt lat="46.0762" lon="5.43533">
        <ele>293.6</ele>
        <time>2026-05-09T13:10:19Z</time>
      </trkpt>
      <trkpt lat="46.07619" lon="5.43541">
        <ele>293.8</ele>
        <time>2026-05-09T13:10:20Z</time>
      </trkpt>
      <trkpt lat="46.07617" lon="5.43549">
        <ele>293.8</ele>
        <time>2026-05-09T13:10:21Z</time>
      </trkpt>
      <trkpt lat="46.07615" lon="5.43556">
        <ele>293.8</ele>
        <time>2026-05-09T13:10:22Z</time>
      </trkpt>
      <trkpt lat="46.07613" lon="5.43563">
        <ele>294.2</ele>
        <time>2026-05-09T13:10:23Z</time>
      </trkpt>
      <trkpt lat="46.07612" lon="5.43571">
        <ele>294.2</ele>
        <time>2026-05-09T13:10:24Z</time>
      </trkpt>
      <trkpt lat="46.0761" lon="5.43578">
        <ele>294.2</ele>
        <time>2026-05-09T13:10:25Z</time>
      </trkpt>
      <trkpt lat="46.07608" lon="5.43586">
        <ele>294.4</ele>
        <time>2026-05-09T13:10:26Z</time>
      </trkpt>
      <trkpt lat="46.07606" lon="5.43594">
        <ele>294.4</ele>
        <time>2026-05-09T13:10:27Z</time>
      </trkpt>
      <trkpt lat="46.07604" lon="5.43602">
        <ele>294.4</ele>
        <time>2026-05-09T13:10:28Z</time>
      </trkpt>
      <trkpt lat="46.07602" lon="5.4361">
        <ele>294.4</ele>
        <time>2026-05-09T13:10:29Z</time>
      </trkpt>
      <trkpt lat="46.076" lon="5.43617">
        <ele>294.4</ele>
        <time>2026-05-09T13:10:30Z</time>
      </trkpt>
      <trkpt lat="46.07599" lon="5.43625">
        <ele>294.4</ele>
        <time>2026-05-09T13:10:31Z</time>
      </trkpt>
      <trkpt lat="46.07596" lon="5.43632">
        <ele>294.4</ele>
        <time>2026-05-09T13:10:32Z</time>
      </trkpt>
      <trkpt lat="46.07594" lon="5.4364">
        <ele>294.4</ele>
        <time>2026-05-09T13:10:33Z</time>
      </trkpt>
      <trkpt lat="46.07593" lon="5.43647">
        <ele>294.4</ele>
        <time>2026-05-09T13:10:34Z</time>
      </trkpt>
      <trkpt lat="46.07591" lon="5.43656">
        <ele>294.8</ele>
        <time>2026-05-09T13:10:35Z</time>
      </trkpt>
      <trkpt lat="46.07589" lon="5.43663">
        <ele>294.8</ele>
        <time>2026-05-09T13:10:36Z</time>
      </trkpt>
      <trkpt lat="46.07587" lon="5.43671">
        <ele>294.8</ele>
        <time>2026-05-09T13:10:37Z</time>
      </trkpt>
      <trkpt lat="46.07585" lon="5.43678">
        <ele>294.8</ele>
        <time>2026-05-09T13:10:38Z</time>
      </trkpt>
      <trkpt lat="46.07584" lon="5.43686">
        <ele>295</ele>
        <time>2026-05-09T13:10:39Z</time>
      </trkpt>
      <trkpt lat="46.07582" lon="5.43694">
        <ele>295</ele>
        <time>2026-05-09T13:10:40Z</time>
      </trkpt>
      <trkpt lat="46.07581" lon="5.43702">
        <ele>295</ele>
        <time>2026-05-09T13:10:41Z</time>
      </trkpt>
      <trkpt lat="46.07579" lon="5.43709">
        <ele>295</ele>
        <time>2026-05-09T13:10:42Z</time>
      </trkpt>
      <trkpt lat="46.07577" lon="5.43717">
        <ele>295</ele>
        <time>2026-05-09T13:10:43Z</time>
      </trkpt>
      <trkpt lat="46.07576" lon="5.43724">
        <ele>295.2</ele>
        <time>2026-05-09T13:10:44Z</time>
      </trkpt>
      <trkpt lat="46.07574" lon="5.43732">
        <ele>295.2</ele>
        <time>2026-05-09T13:10:45Z</time>
      </trkpt>
      <trkpt lat="46.07572" lon="5.43739">
        <ele>295.2</ele>
        <time>2026-05-09T13:10:46Z</time>
      </trkpt>
      <trkpt lat="46.0757" lon="5.43747">
        <ele>295.2</ele>
        <time>2026-05-09T13:10:47Z</time>
      </trkpt>
      <trkpt lat="46.07568" lon="5.43755">
        <ele>295.6</ele>
        <time>2026-05-09T13:10:48Z</time>
      </trkpt>
      <trkpt lat="46.07567" lon="5.43762">
        <ele>295.6</ele>
        <time>2026-05-09T13:10:49Z</time>
      </trkpt>
      <trkpt lat="46.07565" lon="5.4377">
        <ele>295.6</ele>
        <time>2026-05-09T13:10:50Z</time>
      </trkpt>
      <trkpt lat="46.07563" lon="5.43778">
        <ele>295.6</ele>
        <time>2026-05-09T13:10:51Z</time>
      </trkpt>
      <trkpt lat="46.07561" lon="5.43786">
        <ele>295.6</ele>
        <time>2026-05-09T13:10:52Z</time>
      </trkpt>
      <trkpt lat="46.07559" lon="5.43794">
        <ele>295.6</ele>
        <time>2026-05-09T13:10:53Z</time>
      </trkpt>
      <trkpt lat="46.07557" lon="5.43802">
        <ele>295.6</ele>
        <time>2026-05-09T13:10:54Z</time>
      </trkpt>
      <trkpt lat="46.07555" lon="5.4381">
        <ele>295.6</ele>
        <time>2026-05-09T13:10:55Z</time>
      </trkpt>
      <trkpt lat="46.07553" lon="5.43818">
        <ele>295.8</ele>
        <time>2026-05-09T13:10:56Z</time>
      </trkpt>
      <trkpt lat="46.07552" lon="5.43827">
        <ele>295.8</ele>
        <time>2026-05-09T13:10:57Z</time>
      </trkpt>
      <trkpt lat="46.0755" lon="5.43835">
        <ele>295.8</ele>
        <time>2026-05-09T13:10:58Z</time>
      </trkpt>
      <trkpt lat="46.07548" lon="5.43843">
        <ele>296</ele>
        <time>2026-05-09T13:10:59Z</time>
      </trkpt>
      <trkpt lat="46.07546" lon="5.43851">
        <ele>296</ele>
        <time>2026-05-09T13:11:00Z</time>
      </trkpt>
      <trkpt lat="46.07545" lon="5.43859">
        <ele>296</ele>
        <time>2026-05-09T13:11:01Z</time>
      </trkpt>
      <trkpt lat="46.07543" lon="5.43867">
        <ele>296</ele>
        <time>2026-05-09T13:11:02Z</time>
      </trkpt>
      <trkpt lat="46.07541" lon="5.43875">
        <ele>296</ele>
        <time>2026-05-09T13:11:03Z</time>
      </trkpt>
      <trkpt lat="46.07539" lon="5.43883">
        <ele>296.2</ele>
        <time>2026-05-09T13:11:04Z</time>
      </trkpt>
      <trkpt lat="46.07537" lon="5.4389">
        <ele>296.2</ele>
        <time>2026-05-09T13:11:05Z</time>
      </trkpt>
      <trkpt lat="46.07536" lon="5.43898">
        <ele>296.2</ele>
        <time>2026-05-09T13:11:06Z</time>
      </trkpt>
      <trkpt lat="46.07534" lon="5.43905">
        <ele>296.6</ele>
        <time>2026-05-09T13:11:07Z</time>
      </trkpt>
      <trkpt lat="46.07532" lon="5.43913">
        <ele>296.6</ele>
        <time>2026-05-09T13:11:08Z</time>
      </trkpt>
      <trkpt lat="46.07528" lon="5.43928">
        <ele>296.8</ele>
        <time>2026-05-09T13:11:09Z</time>
      </trkpt>
      <trkpt lat="46.07527" lon="5.43936">
        <ele>296.8</ele>
        <time>2026-05-09T13:11:10Z</time>
      </trkpt>
      <trkpt lat="46.07526" lon="5.43943">
        <ele>296.8</ele>
        <time>2026-05-09T13:11:11Z</time>
      </trkpt>
      <trkpt lat="46.07524" lon="5.4395">
        <ele>296.8</ele>
        <time>2026-05-09T13:11:12Z</time>
      </trkpt>
      <trkpt lat="46.07522" lon="5.43957">
        <ele>296.8</ele>
        <time>2026-05-09T13:11:13Z</time>
      </trkpt>
      <trkpt lat="46.07521" lon="5.43965">
        <ele>297.2</ele>
        <time>2026-05-09T13:11:14Z</time>
      </trkpt>
      <trkpt lat="46.07519" lon="5.43973">
        <ele>297.2</ele>
        <time>2026-05-09T13:11:15Z</time>
      </trkpt>
      <trkpt lat="46.07517" lon="5.4398">
        <ele>297.2</ele>
        <time>2026-05-09T13:11:16Z</time>
      </trkpt>
      <trkpt lat="46.07516" lon="5.43988">
        <ele>297.2</ele>
        <time>2026-05-09T13:11:17Z</time>
      </trkpt>
      <trkpt lat="46.07514" lon="5.43995">
        <ele>297.2</ele>
        <time>2026-05-09T13:11:18Z</time>
      </trkpt>
      <trkpt lat="46.07512" lon="5.44003">
        <ele>297.2</ele>
        <time>2026-05-09T13:11:19Z</time>
      </trkpt>
      <trkpt lat="46.0751" lon="5.44011">
        <ele>297.2</ele>
        <time>2026-05-09T13:11:20Z</time>
      </trkpt>
      <trkpt lat="46.07508" lon="5.44018">
        <ele>297.2</ele>
        <time>2026-05-09T13:11:21Z</time>
      </trkpt>
      <trkpt lat="46.07507" lon="5.44027">
        <ele>297.2</ele>
        <time>2026-05-09T13:11:22Z</time>
      </trkpt>
      <trkpt lat="46.07504" lon="5.44035">
        <ele>297.4</ele>
        <time>2026-05-09T13:11:23Z</time>
      </trkpt>
      <trkpt lat="46.07503" lon="5.44043">
        <ele>297.4</ele>
        <time>2026-05-09T13:11:24Z</time>
      </trkpt>
      <trkpt lat="46.07501" lon="5.44051">
        <ele>297.4</ele>
        <time>2026-05-09T13:11:25Z</time>
      </trkpt>
      <trkpt lat="46.07499" lon="5.44059">
        <ele>297.4</ele>
        <time>2026-05-09T13:11:26Z</time>
      </trkpt>
      <trkpt lat="46.07496" lon="5.44068">
        <ele>297.6</ele>
        <time>2026-05-09T13:11:27Z</time>
      </trkpt>
      <trkpt lat="46.07494" lon="5.44076">
        <ele>297.6</ele>
        <time>2026-05-09T13:11:28Z</time>
      </trkpt>
      <trkpt lat="46.07494" lon="5.44084">
        <ele>297.6</ele>
        <time>2026-05-09T13:11:29Z</time>
      </trkpt>
      <trkpt lat="46.07492" lon="5.44092">
        <ele>297.6</ele>
        <time>2026-05-09T13:11:30Z</time>
      </trkpt>
      <trkpt lat="46.0749" lon="5.441">
        <ele>297.6</ele>
        <time>2026-05-09T13:11:31Z</time>
      </trkpt>
      <trkpt lat="46.07488" lon="5.44108">
        <ele>297.6</ele>
        <time>2026-05-09T13:11:32Z</time>
      </trkpt>
      <trkpt lat="46.07487" lon="5.44116">
        <ele>297.6</ele>
        <time>2026-05-09T13:11:33Z</time>
      </trkpt>
      <trkpt lat="46.07485" lon="5.44124">
        <ele>297.6</ele>
        <time>2026-05-09T13:11:34Z</time>
      </trkpt>
      <trkpt lat="46.07484" lon="5.44132">
        <ele>297.6</ele>
        <time>2026-05-09T13:11:35Z</time>
      </trkpt>
      <trkpt lat="46.07482" lon="5.4414">
        <ele>297.6</ele>
        <time>2026-05-09T13:11:36Z</time>
      </trkpt>
      <trkpt lat="46.07482" lon="5.44148">
        <ele>298</ele>
        <time>2026-05-09T13:11:37Z</time>
      </trkpt>
      <trkpt lat="46.07479" lon="5.44156">
        <ele>298</ele>
        <time>2026-05-09T13:11:38Z</time>
      </trkpt>
      <trkpt lat="46.07477" lon="5.44163">
        <ele>298</ele>
        <time>2026-05-09T13:11:39Z</time>
      </trkpt>
      <trkpt lat="46.07475" lon="5.4417">
        <ele>298</ele>
        <time>2026-05-09T13:11:40Z</time>
      </trkpt>
      <trkpt lat="46.07473" lon="5.44178">
        <ele>298.2</ele>
        <time>2026-05-09T13:11:41Z</time>
      </trkpt>
      <trkpt lat="46.07471" lon="5.44186">
        <ele>298</ele>
        <time>2026-05-09T13:11:42Z</time>
      </trkpt>
      <trkpt lat="46.07469" lon="5.44194">
        <ele>298.2</ele>
        <time>2026-05-09T13:11:43Z</time>
      </trkpt>
      <trkpt lat="46.07468" lon="5.44201">
        <ele>298.2</ele>
        <time>2026-05-09T13:11:44Z</time>
      </trkpt>
      <trkpt lat="46.07467" lon="5.44209">
        <ele>298.2</ele>
        <time>2026-05-09T13:11:45Z</time>
      </trkpt>
      <trkpt lat="46.07465" lon="5.44216">
        <ele>298.2</ele>
        <time>2026-05-09T13:11:46Z</time>
      </trkpt>
      <trkpt lat="46.07464" lon="5.44224">
        <ele>298.2</ele>
        <time>2026-05-09T13:11:47Z</time>
      </trkpt>
      <trkpt lat="46.07462" lon="5.4423">
        <ele>298.6</ele>
        <time>2026-05-09T13:11:48Z</time>
      </trkpt>
      <trkpt lat="46.0746" lon="5.44239">
        <ele>298.6</ele>
        <time>2026-05-09T13:11:49Z</time>
      </trkpt>
      <trkpt lat="46.07459" lon="5.44246">
        <ele>298.8</ele>
        <time>2026-05-09T13:11:50Z</time>
      </trkpt>
      <trkpt lat="46.07457" lon="5.44254">
        <ele>298.8</ele>
        <time>2026-05-09T13:11:51Z</time>
      </trkpt>
      <trkpt lat="46.07456" lon="5.44261">
        <ele>298.8</ele>
        <time>2026-05-09T13:11:52Z</time>
      </trkpt>
      <trkpt lat="46.07454" lon="5.44269">
        <ele>299</ele>
        <time>2026-05-09T13:11:53Z</time>
      </trkpt>
      <trkpt lat="46.07453" lon="5.44276">
        <ele>299</ele>
        <time>2026-05-09T13:11:54Z</time>
      </trkpt>
      <trkpt lat="46.07452" lon="5.44283">
        <ele>299.2</ele>
        <time>2026-05-09T13:11:55Z</time>
      </trkpt>
      <trkpt lat="46.07449" lon="5.4429">
        <ele>299.6</ele>
        <time>2026-05-09T13:11:56Z</time>
      </trkpt>
      <trkpt lat="46.07447" lon="5.44298">
        <ele>299.6</ele>
        <time>2026-05-09T13:11:57Z</time>
      </trkpt>
      <trkpt lat="46.07446" lon="5.44305">
        <ele>299.6</ele>
        <time>2026-05-09T13:11:58Z</time>
      </trkpt>
      <trkpt lat="46.07444" lon="5.44312">
        <ele>299.6</ele>
        <time>2026-05-09T13:11:59Z</time>
      </trkpt>
      <trkpt lat="46.07443" lon="5.4432">
        <ele>299.6</ele>
        <time>2026-05-09T13:12:00Z</time>
      </trkpt>
      <trkpt lat="46.07441" lon="5.44327">
        <ele>299.6</ele>
        <time>2026-05-09T13:12:01Z</time>
      </trkpt>
      <trkpt lat="46.07439" lon="5.44334">
        <ele>299.8</ele>
        <time>2026-05-09T13:12:02Z</time>
      </trkpt>
      <trkpt lat="46.07438" lon="5.44341">
        <ele>299.8</ele>
        <time>2026-05-09T13:12:03Z</time>
      </trkpt>
      <trkpt lat="46.07436" lon="5.44348">
        <ele>299.8</ele>
        <time>2026-05-09T13:12:04Z</time>
      </trkpt>
      <trkpt lat="46.07434" lon="5.44355">
        <ele>300</ele>
        <time>2026-05-09T13:12:05Z</time>
      </trkpt>
      <trkpt lat="46.07432" lon="5.44361">
        <ele>300</ele>
        <time>2026-05-09T13:12:06Z</time>
      </trkpt>
      <trkpt lat="46.07432" lon="5.44368">
        <ele>300</ele>
        <time>2026-05-09T13:12:07Z</time>
      </trkpt>
      <trkpt lat="46.0743" lon="5.44375">
        <ele>300</ele>
        <time>2026-05-09T13:12:08Z</time>
      </trkpt>
      <trkpt lat="46.07428" lon="5.44382">
        <ele>300.4</ele>
        <time>2026-05-09T13:12:09Z</time>
      </trkpt>
      <trkpt lat="46.07426" lon="5.44389">
        <ele>300.4</ele>
        <time>2026-05-09T13:12:10Z</time>
      </trkpt>
      <trkpt lat="46.07425" lon="5.44396">
        <ele>300.8</ele>
        <time>2026-05-09T13:12:11Z</time>
      </trkpt>
      <trkpt lat="46.07423" lon="5.44402">
        <ele>300.8</ele>
        <time>2026-05-09T13:12:12Z</time>
      </trkpt>
      <trkpt lat="46.07422" lon="5.44409">
        <ele>300.8</ele>
        <time>2026-05-09T13:12:13Z</time>
      </trkpt>
      <trkpt lat="46.0742" lon="5.44416">
        <ele>301</ele>
        <time>2026-05-09T13:12:14Z</time>
      </trkpt>
      <trkpt lat="46.07418" lon="5.44422">
        <ele>301.2</ele>
        <time>2026-05-09T13:12:15Z</time>
      </trkpt>
      <trkpt lat="46.07416" lon="5.44429">
        <ele>301.2</ele>
        <time>2026-05-09T13:12:16Z</time>
      </trkpt>
      <trkpt lat="46.07415" lon="5.44436">
        <ele>301.2</ele>
        <time>2026-05-09T13:12:17Z</time>
      </trkpt>
      <trkpt lat="46.07413" lon="5.44443">
        <ele>301.6</ele>
        <time>2026-05-09T13:12:18Z</time>
      </trkpt>
      <trkpt lat="46.07411" lon="5.44449">
        <ele>301.6</ele>
        <time>2026-05-09T13:12:19Z</time>
      </trkpt>
      <trkpt lat="46.07409" lon="5.44456">
        <ele>301.8</ele>
        <time>2026-05-09T13:12:20Z</time>
      </trkpt>
      <trkpt lat="46.07407" lon="5.44462">
        <ele>301.8</ele>
        <time>2026-05-09T13:12:21Z</time>
      </trkpt>
      <trkpt lat="46.07406" lon="5.4447">
        <ele>301.8</ele>
        <time>2026-05-09T13:12:22Z</time>
      </trkpt>
      <trkpt lat="46.07404" lon="5.44477">
        <ele>302.2</ele>
        <time>2026-05-09T13:12:23Z</time>
      </trkpt>
      <trkpt lat="46.07402" lon="5.44484">
        <ele>302.2</ele>
        <time>2026-05-09T13:12:24Z</time>
      </trkpt>
      <trkpt lat="46.07401" lon="5.44491">
        <ele>302.4</ele>
        <time>2026-05-09T13:12:25Z</time>
      </trkpt>
      <trkpt lat="46.074" lon="5.44499">
        <ele>302.4</ele>
        <time>2026-05-09T13:12:26Z</time>
      </trkpt>
      <trkpt lat="46.07399" lon="5.44506">
        <ele>302.8</ele>
        <time>2026-05-09T13:12:27Z</time>
      </trkpt>
      <trkpt lat="46.07398" lon="5.44514">
        <ele>302.8</ele>
        <time>2026-05-09T13:12:28Z</time>
      </trkpt>
      <trkpt lat="46.07397" lon="5.44521">
        <ele>302.8</ele>
        <time>2026-05-09T13:12:29Z</time>
      </trkpt>
      <trkpt lat="46.07397" lon="5.44529">
        <ele>302.8</ele>
        <time>2026-05-09T13:12:30Z</time>
      </trkpt>
      <trkpt lat="46.07396" lon="5.44537">
        <ele>302.8</ele>
        <time>2026-05-09T13:12:31Z</time>
      </trkpt>
      <trkpt lat="46.07395" lon="5.44545">
        <ele>302.8</ele>
        <time>2026-05-09T13:12:32Z</time>
      </trkpt>
      <trkpt lat="46.07395" lon="5.44553">
        <ele>302.8</ele>
        <time>2026-05-09T13:12:33Z</time>
      </trkpt>
      <trkpt lat="46.07394" lon="5.44561">
        <ele>302.8</ele>
        <time>2026-05-09T13:12:34Z</time>
      </trkpt>
      <trkpt lat="46.07393" lon="5.44569">
        <ele>302.8</ele>
        <time>2026-05-09T13:12:35Z</time>
      </trkpt>
      <trkpt lat="46.07393" lon="5.44577">
        <ele>302.8</ele>
        <time>2026-05-09T13:12:36Z</time>
      </trkpt>
      <trkpt lat="46.07392" lon="5.44586">
        <ele>303</ele>
        <time>2026-05-09T13:12:37Z</time>
      </trkpt>
      <trkpt lat="46.07391" lon="5.44594">
        <ele>303</ele>
        <time>2026-05-09T13:12:38Z</time>
      </trkpt>
      <trkpt lat="46.0739" lon="5.44603">
        <ele>303</ele>
        <time>2026-05-09T13:12:39Z</time>
      </trkpt>
      <trkpt lat="46.0739" lon="5.44611">
        <ele>303</ele>
        <time>2026-05-09T13:12:40Z</time>
      </trkpt>
      <trkpt lat="46.0739" lon="5.4462">
        <ele>303</ele>
        <time>2026-05-09T13:12:41Z</time>
      </trkpt>
      <trkpt lat="46.0739" lon="5.44628">
        <ele>303</ele>
        <time>2026-05-09T13:12:42Z</time>
      </trkpt>
      <trkpt lat="46.07389" lon="5.44636">
        <ele>303</ele>
        <time>2026-05-09T13:12:43Z</time>
      </trkpt>
      <trkpt lat="46.07388" lon="5.44644">
        <ele>303</ele>
        <time>2026-05-09T13:12:44Z</time>
      </trkpt>
      <trkpt lat="46.07388" lon="5.44653">
        <ele>303</ele>
        <time>2026-05-09T13:12:45Z</time>
      </trkpt>
      <trkpt lat="46.07387" lon="5.44661">
        <ele>303</ele>
        <time>2026-05-09T13:12:46Z</time>
      </trkpt>
      <trkpt lat="46.07386" lon="5.44669">
        <ele>303</ele>
        <time>2026-05-09T13:12:47Z</time>
      </trkpt>
      <trkpt lat="46.07386" lon="5.44677">
        <ele>303</ele>
        <time>2026-05-09T13:12:48Z</time>
      </trkpt>
      <trkpt lat="46.07386" lon="5.44685">
        <ele>303.2</ele>
        <time>2026-05-09T13:12:49Z</time>
      </trkpt>
      <trkpt lat="46.07385" lon="5.44694">
        <ele>303.6</ele>
        <time>2026-05-09T13:12:50Z</time>
      </trkpt>
      <trkpt lat="46.07384" lon="5.44701">
        <ele>303.8</ele>
        <time>2026-05-09T13:12:51Z</time>
      </trkpt>
      <trkpt lat="46.07384" lon="5.44701">
        <ele>303.8</ele>
        <time>2026-05-09T13:12:52Z</time>
      </trkpt>
      <trkpt lat="46.07384" lon="5.44709">
        <ele>303.8</ele>
        <time>2026-05-09T13:12:53Z</time>
      </trkpt>
      <trkpt lat="46.07383" lon="5.44717">
        <ele>304</ele>
        <time>2026-05-09T13:12:54Z</time>
      </trkpt>
      <trkpt lat="46.07382" lon="5.44725">
        <ele>304</ele>
        <time>2026-05-09T13:12:55Z</time>
      </trkpt>
      <trkpt lat="46.07382" lon="5.44732">
        <ele>304.2</ele>
        <time>2026-05-09T13:12:56Z</time>
      </trkpt>
      <trkpt lat="46.07382" lon="5.4474">
        <ele>304.2</ele>
        <time>2026-05-09T13:12:57Z</time>
      </trkpt>
      <trkpt lat="46.07381" lon="5.44748">
        <ele>304.4</ele>
        <time>2026-05-09T13:12:58Z</time>
      </trkpt>
      <trkpt lat="46.0738" lon="5.44755">
        <ele>304.8</ele>
        <time>2026-05-09T13:12:59Z</time>
      </trkpt>
      <trkpt lat="46.0738" lon="5.44763">
        <ele>304.8</ele>
        <time>2026-05-09T13:13:00Z</time>
      </trkpt>
      <trkpt lat="46.07379" lon="5.4477">
        <ele>304.8</ele>
        <time>2026-05-09T13:13:01Z</time>
      </trkpt>
      <trkpt lat="46.07379" lon="5.44778">
        <ele>304.6</ele>
        <time>2026-05-09T13:13:02Z</time>
      </trkpt>
      <trkpt lat="46.07378" lon="5.44784">
        <ele>304.6</ele>
        <time>2026-05-09T13:13:03Z</time>
      </trkpt>
      <trkpt lat="46.07377" lon="5.44791">
        <ele>304.6</ele>
        <time>2026-05-09T13:13:04Z</time>
      </trkpt>
      <trkpt lat="46.07377" lon="5.44799">
        <ele>304.8</ele>
        <time>2026-05-09T13:13:05Z</time>
      </trkpt>
      <trkpt lat="46.07377" lon="5.44806">
        <ele>305</ele>
        <time>2026-05-09T13:13:06Z</time>
      </trkpt>
      <trkpt lat="46.07376" lon="5.44813">
        <ele>305</ele>
        <time>2026-05-09T13:13:07Z</time>
      </trkpt>
      <trkpt lat="46.07376" lon="5.4482">
        <ele>305</ele>
        <time>2026-05-09T13:13:08Z</time>
      </trkpt>
      <trkpt lat="46.07376" lon="5.44828">
        <ele>305</ele>
        <time>2026-05-09T13:13:09Z</time>
      </trkpt>
      <trkpt lat="46.07376" lon="5.44835">
        <ele>305</ele>
        <time>2026-05-09T13:13:10Z</time>
      </trkpt>
      <trkpt lat="46.07376" lon="5.44842">
        <ele>305</ele>
        <time>2026-05-09T13:13:11Z</time>
      </trkpt>
      <trkpt lat="46.07376" lon="5.44849">
        <ele>305.4</ele>
        <time>2026-05-09T13:13:12Z</time>
      </trkpt>
      <trkpt lat="46.07377" lon="5.44856">
        <ele>305.4</ele>
        <time>2026-05-09T13:13:13Z</time>
      </trkpt>
      <trkpt lat="46.07377" lon="5.44864">
        <ele>305.6</ele>
        <time>2026-05-09T13:13:14Z</time>
      </trkpt>
      <trkpt lat="46.07377" lon="5.44871">
        <ele>305.8</ele>
        <time>2026-05-09T13:13:15Z</time>
      </trkpt>
      <trkpt lat="46.07377" lon="5.44878">
        <ele>305.8</ele>
        <time>2026-05-09T13:13:16Z</time>
      </trkpt>
      <trkpt lat="46.07377" lon="5.44885">
        <ele>305.8</ele>
        <time>2026-05-09T13:13:17Z</time>
      </trkpt>
      <trkpt lat="46.07377" lon="5.44893">
        <ele>305.8</ele>
        <time>2026-05-09T13:13:18Z</time>
      </trkpt>
      <trkpt lat="46.07378" lon="5.449">
        <ele>305.8</ele>
        <time>2026-05-09T13:13:19Z</time>
      </trkpt>
      <trkpt lat="46.07378" lon="5.44907">
        <ele>306</ele>
        <time>2026-05-09T13:13:20Z</time>
      </trkpt>
      <trkpt lat="46.07379" lon="5.44914">
        <ele>306</ele>
        <time>2026-05-09T13:13:21Z</time>
      </trkpt>
      <trkpt lat="46.0738" lon="5.44922">
        <ele>306.4</ele>
        <time>2026-05-09T13:13:22Z</time>
      </trkpt>
      <trkpt lat="46.0738" lon="5.44929">
        <ele>306.4</ele>
        <time>2026-05-09T13:13:23Z</time>
      </trkpt>
      <trkpt lat="46.07381" lon="5.44936">
        <ele>306.6</ele>
        <time>2026-05-09T13:13:24Z</time>
      </trkpt>
      <trkpt lat="46.07382" lon="5.44943">
        <ele>306.6</ele>
        <time>2026-05-09T13:13:25Z</time>
      </trkpt>
      <trkpt lat="46.07383" lon="5.4495">
        <ele>306.8</ele>
        <time>2026-05-09T13:13:26Z</time>
      </trkpt>
      <trkpt lat="46.07384" lon="5.44957">
        <ele>306.8</ele>
        <time>2026-05-09T13:13:27Z</time>
      </trkpt>
      <trkpt lat="46.07384" lon="5.44964">
        <ele>307.2</ele>
        <time>2026-05-09T13:13:28Z</time>
      </trkpt>
      <trkpt lat="46.07385" lon="5.44971">
        <ele>307.2</ele>
        <time>2026-05-09T13:13:29Z</time>
      </trkpt>
      <trkpt lat="46.07385" lon="5.44978">
        <ele>307.2</ele>
        <time>2026-05-09T13:13:30Z</time>
      </trkpt>
      <trkpt lat="46.07385" lon="5.44984">
        <ele>307.2</ele>
        <time>2026-05-09T13:13:31Z</time>
      </trkpt>
      <trkpt lat="46.07386" lon="5.44991">
        <ele>307.2</ele>
        <time>2026-05-09T13:13:32Z</time>
      </trkpt>
      <trkpt lat="46.07386" lon="5.44999">
        <ele>307.4</ele>
        <time>2026-05-09T13:13:33Z</time>
      </trkpt>
      <trkpt lat="46.07387" lon="5.45005">
        <ele>307.4</ele>
        <time>2026-05-09T13:13:34Z</time>
      </trkpt>
      <trkpt lat="46.07388" lon="5.45011">
        <ele>307.4</ele>
        <time>2026-05-09T13:13:35Z</time>
      </trkpt>
      <trkpt lat="46.07388" lon="5.45018">
        <ele>307.6</ele>
        <time>2026-05-09T13:13:36Z</time>
      </trkpt>
      <trkpt lat="46.07389" lon="5.45024">
        <ele>307.6</ele>
        <time>2026-05-09T13:13:37Z</time>
      </trkpt>
      <trkpt lat="46.0739" lon="5.4503">
        <ele>307.6</ele>
        <time>2026-05-09T13:13:38Z</time>
      </trkpt>
      <trkpt lat="46.07391" lon="5.45036">
        <ele>307.8</ele>
        <time>2026-05-09T13:13:39Z</time>
      </trkpt>
      <trkpt lat="46.07392" lon="5.45043">
        <ele>307.8</ele>
        <time>2026-05-09T13:13:40Z</time>
      </trkpt>
      <trkpt lat="46.07393" lon="5.45049">
        <ele>307.8</ele>
        <time>2026-05-09T13:13:41Z</time>
      </trkpt>
      <trkpt lat="46.07394" lon="5.45055">
        <ele>308.2</ele>
        <time>2026-05-09T13:13:42Z</time>
      </trkpt>
      <trkpt lat="46.07395" lon="5.4506">
        <ele>308.2</ele>
        <time>2026-05-09T13:13:43Z</time>
      </trkpt>
      <trkpt lat="46.07396" lon="5.45067">
        <ele>308.4</ele>
        <time>2026-05-09T13:13:44Z</time>
      </trkpt>
      <trkpt lat="46.07397" lon="5.45072">
        <ele>308.4</ele>
        <time>2026-05-09T13:13:45Z</time>
      </trkpt>
      <trkpt lat="46.07395" lon="5.45078">
        <ele>308.4</ele>
        <time>2026-05-09T13:13:46Z</time>
      </trkpt>
      <trkpt lat="46.07393" lon="5.45083">
        <ele>308.4</ele>
        <time>2026-05-09T13:13:47Z</time>
      </trkpt>
      <trkpt lat="46.07389" lon="5.45087">
        <ele>308.4</ele>
        <time>2026-05-09T13:13:48Z</time>
      </trkpt>
      <trkpt lat="46.07386" lon="5.45088">
        <ele>308.4</ele>
        <time>2026-05-09T13:13:49Z</time>
      </trkpt>
      <trkpt lat="46.07383" lon="5.45089">
        <ele>308.4</ele>
        <time>2026-05-09T13:13:50Z</time>
      </trkpt>
      <trkpt lat="46.07379" lon="5.45091">
        <ele>308.4</ele>
        <time>2026-05-09T13:13:51Z</time>
      </trkpt>
      <trkpt lat="46.07376" lon="5.45092">
        <ele>308.6</ele>
        <time>2026-05-09T13:13:52Z</time>
      </trkpt>
      <trkpt lat="46.07373" lon="5.45092">
        <ele>308.8</ele>
        <time>2026-05-09T13:13:53Z</time>
      </trkpt>
      <trkpt lat="46.07371" lon="5.45094">
        <ele>308.8</ele>
        <time>2026-05-09T13:13:54Z</time>
      </trkpt>
      <trkpt lat="46.07369" lon="5.45093">
        <ele>309.2</ele>
        <time>2026-05-09T13:13:55Z</time>
      </trkpt>
      <trkpt lat="46.07368" lon="5.45094">
        <ele>309.2</ele>
        <time>2026-05-09T13:13:56Z</time>
      </trkpt>
      <trkpt lat="46.07368" lon="5.45094">
        <ele>309.2</ele>
        <time>2026-05-09T13:13:57Z</time>
      </trkpt>
      <trkpt lat="46.07368" lon="5.45095">
        <ele>309.4</ele>
        <time>2026-05-09T13:13:58Z</time>
      </trkpt>
      <trkpt lat="46.07365" lon="5.45099">
        <ele>309.2</ele>
        <time>2026-05-09T13:14:26Z</time>
      </trkpt>
      <trkpt lat="46.07363" lon="5.45101">
        <ele>309.2</ele>
        <time>2026-05-09T13:14:27Z</time>
      </trkpt>
      <trkpt lat="46.07361" lon="5.45102">
        <ele>309.2</ele>
        <time>2026-05-09T13:14:28Z</time>
      </trkpt>
      <trkpt lat="46.0736" lon="5.45104">
        <ele>309.2</ele>
        <time>2026-05-09T13:14:29Z</time>
      </trkpt>
      <trkpt lat="46.07358" lon="5.45105">
        <ele>309.2</ele>
        <time>2026-05-09T13:14:30Z</time>
      </trkpt>
      <trkpt lat="46.07356" lon="5.45106">
        <ele>309.2</ele>
        <time>2026-05-09T13:14:31Z</time>
      </trkpt>
      <trkpt lat="46.07354" lon="5.45107">
        <ele>309.2</ele>
        <time>2026-05-09T13:14:32Z</time>
      </trkpt>
      <trkpt lat="46.07351" lon="5.45109">
        <ele>309.2</ele>
        <time>2026-05-09T13:14:33Z</time>
      </trkpt>
      <trkpt lat="46.07349" lon="5.45111">
        <ele>309.2</ele>
        <time>2026-05-09T13:14:34Z</time>
      </trkpt>
      <trkpt lat="46.07346" lon="5.45113">
        <ele>309.2</ele>
        <time>2026-05-09T13:14:35Z</time>
      </trkpt>
      <trkpt lat="46.07344" lon="5.45115">
        <ele>309.2</ele>
        <time>2026-05-09T13:14:36Z</time>
      </trkpt>
      <trkpt lat="46.07342" lon="5.45117">
        <ele>309.2</ele>
        <time>2026-05-09T13:14:37Z</time>
      </trkpt>
      <trkpt lat="46.0734" lon="5.4512">
        <ele>309.2</ele>
        <time>2026-05-09T13:14:38Z</time>
      </trkpt>
      <trkpt lat="46.07338" lon="5.45123">
        <ele>309.4</ele>
        <time>2026-05-09T13:14:39Z</time>
      </trkpt>
      <trkpt lat="46.07336" lon="5.45125">
        <ele>309.4</ele>
        <time>2026-05-09T13:14:40Z</time>
      </trkpt>
      <trkpt lat="46.07333" lon="5.45128">
        <ele>309.4</ele>
        <time>2026-05-09T13:14:41Z</time>
      </trkpt>
      <trkpt lat="46.07331" lon="5.45131">
        <ele>309.4</ele>
        <time>2026-05-09T13:14:42Z</time>
      </trkpt>
      <trkpt lat="46.07328" lon="5.45134">
        <ele>309.4</ele>
        <time>2026-05-09T13:14:43Z</time>
      </trkpt>
      <trkpt lat="46.07326" lon="5.45137">
        <ele>309.4</ele>
        <time>2026-05-09T13:14:44Z</time>
      </trkpt>
      <trkpt lat="46.07324" lon="5.4514">
        <ele>309.4</ele>
        <time>2026-05-09T13:14:45Z</time>
      </trkpt>
      <trkpt lat="46.07321" lon="5.45144">
        <ele>309.4</ele>
        <time>2026-05-09T13:14:46Z</time>
      </trkpt>
      <trkpt lat="46.07318" lon="5.45148">
        <ele>309.4</ele>
        <time>2026-05-09T13:14:47Z</time>
      </trkpt>
      <trkpt lat="46.07316" lon="5.45151">
        <ele>309.4</ele>
        <time>2026-05-09T13:14:48Z</time>
      </trkpt>
      <trkpt lat="46.07313" lon="5.45154">
        <ele>309.4</ele>
        <time>2026-05-09T13:14:49Z</time>
      </trkpt>
      <trkpt lat="46.0731" lon="5.45158">
        <ele>309.4</ele>
        <time>2026-05-09T13:14:50Z</time>
      </trkpt>
      <trkpt lat="46.07307" lon="5.45163">
        <ele>309.4</ele>
        <time>2026-05-09T13:14:51Z</time>
      </trkpt>
      <trkpt lat="46.07303" lon="5.45165">
        <ele>309.4</ele>
        <time>2026-05-09T13:14:52Z</time>
      </trkpt>
      <trkpt lat="46.073" lon="5.45169">
        <ele>309.4</ele>
        <time>2026-05-09T13:14:53Z</time>
      </trkpt>
      <trkpt lat="46.07297" lon="5.45171">
        <ele>309.4</ele>
        <time>2026-05-09T13:14:54Z</time>
      </trkpt>
      <trkpt lat="46.07293" lon="5.45174">
        <ele>309.4</ele>
        <time>2026-05-09T13:14:55Z</time>
      </trkpt>
      <trkpt lat="46.0729" lon="5.45177">
        <ele>309.4</ele>
        <time>2026-05-09T13:14:56Z</time>
      </trkpt>
      <trkpt lat="46.07286" lon="5.45179">
        <ele>309.4</ele>
        <time>2026-05-09T13:14:57Z</time>
      </trkpt>
      <trkpt lat="46.07282" lon="5.45181">
        <ele>309.4</ele>
        <time>2026-05-09T13:14:58Z</time>
      </trkpt>
      <trkpt lat="46.07279" lon="5.45183">
        <ele>309.4</ele>
        <time>2026-05-09T13:14:59Z</time>
      </trkpt>
      <trkpt lat="46.07275" lon="5.45184">
        <ele>309.4</ele>
        <time>2026-05-09T13:15:00Z</time>
      </trkpt>
      <trkpt lat="46.07271" lon="5.45185">
        <ele>309.4</ele>
        <time>2026-05-09T13:15:01Z</time>
      </trkpt>
      <trkpt lat="46.07267" lon="5.45186">
        <ele>309.4</ele>
        <time>2026-05-09T13:15:02Z</time>
      </trkpt>
      <trkpt lat="46.07263" lon="5.45187">
        <ele>309.4</ele>
        <time>2026-05-09T13:15:03Z</time>
      </trkpt>
      <trkpt lat="46.07259" lon="5.45189">
        <ele>309.4</ele>
        <time>2026-05-09T13:15:04Z</time>
      </trkpt>
      <trkpt lat="46.07255" lon="5.4519">
        <ele>309.4</ele>
        <time>2026-05-09T13:15:05Z</time>
      </trkpt>
      <trkpt lat="46.07252" lon="5.45191">
        <ele>309.4</ele>
        <time>2026-05-09T13:15:06Z</time>
      </trkpt>
      <trkpt lat="46.07247" lon="5.45192">
        <ele>309.4</ele>
        <time>2026-05-09T13:15:07Z</time>
      </trkpt>
      <trkpt lat="46.07244" lon="5.45192">
        <ele>309.4</ele>
        <time>2026-05-09T13:15:08Z</time>
      </trkpt>
      <trkpt lat="46.0724" lon="5.45193">
        <ele>309.4</ele>
        <time>2026-05-09T13:15:09Z</time>
      </trkpt>
      <trkpt lat="46.07236" lon="5.45194">
        <ele>309.2</ele>
        <time>2026-05-09T13:15:10Z</time>
      </trkpt>
      <trkpt lat="46.07232" lon="5.45196">
        <ele>309.2</ele>
        <time>2026-05-09T13:15:11Z</time>
      </trkpt>
      <trkpt lat="46.07228" lon="5.45197">
        <ele>309.4</ele>
        <time>2026-05-09T13:15:12Z</time>
      </trkpt>
      <trkpt lat="46.07224" lon="5.45198">
        <ele>309.4</ele>
        <time>2026-05-09T13:15:13Z</time>
      </trkpt>
      <trkpt lat="46.07221" lon="5.45199">
        <ele>309.4</ele>
        <time>2026-05-09T13:15:14Z</time>
      </trkpt>
      <trkpt lat="46.07217" lon="5.45201">
        <ele>309.4</ele>
        <time>2026-05-09T13:15:15Z</time>
      </trkpt>
      <trkpt lat="46.07213" lon="5.45203">
        <ele>309.6</ele>
        <time>2026-05-09T13:15:16Z</time>
      </trkpt>
      <trkpt lat="46.07209" lon="5.45205">
        <ele>309.6</ele>
        <time>2026-05-09T13:15:17Z</time>
      </trkpt>
      <trkpt lat="46.07206" lon="5.45206">
        <ele>309.6</ele>
        <time>2026-05-09T13:15:18Z</time>
      </trkpt>
      <trkpt lat="46.07202" lon="5.45209">
        <ele>309.6</ele>
        <time>2026-05-09T13:15:19Z</time>
      </trkpt>
      <trkpt lat="46.07198" lon="5.45211">
        <ele>309.6</ele>
        <time>2026-05-09T13:15:20Z</time>
      </trkpt>
      <trkpt lat="46.07194" lon="5.45213">
        <ele>310</ele>
        <time>2026-05-09T13:15:21Z</time>
      </trkpt>
      <trkpt lat="46.0719" lon="5.45214">
        <ele>310</ele>
        <time>2026-05-09T13:15:22Z</time>
      </trkpt>
      <trkpt lat="46.07186" lon="5.45216">
        <ele>310</ele>
        <time>2026-05-09T13:15:23Z</time>
      </trkpt>
      <trkpt lat="46.07181" lon="5.45218">
        <ele>310</ele>
        <time>2026-05-09T13:15:24Z</time>
      </trkpt>
      <trkpt lat="46.07177" lon="5.4522">
        <ele>310</ele>
        <time>2026-05-09T13:15:25Z</time>
      </trkpt>
      <trkpt lat="46.07173" lon="5.45223">
        <ele>310.4</ele>
        <time>2026-05-09T13:15:26Z</time>
      </trkpt>
      <trkpt lat="46.07169" lon="5.45224">
        <ele>310.4</ele>
        <time>2026-05-09T13:15:27Z</time>
      </trkpt>
      <trkpt lat="46.07165" lon="5.45226">
        <ele>310.4</ele>
        <time>2026-05-09T13:15:28Z</time>
      </trkpt>
      <trkpt lat="46.07162" lon="5.45228">
        <ele>310.4</ele>
        <time>2026-05-09T13:15:29Z</time>
      </trkpt>
      <trkpt lat="46.07158" lon="5.45229">
        <ele>310.4</ele>
        <time>2026-05-09T13:15:30Z</time>
      </trkpt>
      <trkpt lat="46.07154" lon="5.45231">
        <ele>310.8</ele>
        <time>2026-05-09T13:15:31Z</time>
      </trkpt>
      <trkpt lat="46.07151" lon="5.45233">
        <ele>310.8</ele>
        <time>2026-05-09T13:15:32Z</time>
      </trkpt>
      <trkpt lat="46.07147" lon="5.45234">
        <ele>310.8</ele>
        <time>2026-05-09T13:15:33Z</time>
      </trkpt>
      <trkpt lat="46.07144" lon="5.45236">
        <ele>310.8</ele>
        <time>2026-05-09T13:15:34Z</time>
      </trkpt>
      <trkpt lat="46.07144" lon="5.45236">
        <ele>310.8</ele>
        <time>2026-05-09T13:15:35Z</time>
      </trkpt>
      <trkpt lat="46.0714" lon="5.45238">
        <ele>311.2</ele>
        <time>2026-05-09T13:15:36Z</time>
      </trkpt>
      <trkpt lat="46.07136" lon="5.45239">
        <ele>311.2</ele>
        <time>2026-05-09T13:15:37Z</time>
      </trkpt>
      <trkpt lat="46.07132" lon="5.45241">
        <ele>311.2</ele>
        <time>2026-05-09T13:15:38Z</time>
      </trkpt>
      <trkpt lat="46.07128" lon="5.45242">
        <ele>311.2</ele>
        <time>2026-05-09T13:15:39Z</time>
      </trkpt>
      <trkpt lat="46.07125" lon="5.45244">
        <ele>311.4</ele>
        <time>2026-05-09T13:15:40Z</time>
      </trkpt>
      <trkpt lat="46.07121" lon="5.45246">
        <ele>311.4</ele>
        <time>2026-05-09T13:15:41Z</time>
      </trkpt>
      <trkpt lat="46.07117" lon="5.45248">
        <ele>311.4</ele>
        <time>2026-05-09T13:15:42Z</time>
      </trkpt>
      <trkpt lat="46.07113" lon="5.4525">
        <ele>311.4</ele>
        <time>2026-05-09T13:15:43Z</time>
      </trkpt>
      <trkpt lat="46.07109" lon="5.45251">
        <ele>311.8</ele>
        <time>2026-05-09T13:15:44Z</time>
      </trkpt>
      <trkpt lat="46.07106" lon="5.45253">
        <ele>311.8</ele>
        <time>2026-05-09T13:15:45Z</time>
      </trkpt>
      <trkpt lat="46.07102" lon="5.45255">
        <ele>312</ele>
        <time>2026-05-09T13:15:46Z</time>
      </trkpt>
      <trkpt lat="46.07099" lon="5.45256">
        <ele>312</ele>
        <time>2026-05-09T13:15:47Z</time>
      </trkpt>
      <trkpt lat="46.07096" lon="5.45259">
        <ele>312.2</ele>
        <time>2026-05-09T13:15:48Z</time>
      </trkpt>
      <trkpt lat="46.07092" lon="5.45261">
        <ele>312.2</ele>
        <time>2026-05-09T13:15:49Z</time>
      </trkpt>
      <trkpt lat="46.07089" lon="5.45262">
        <ele>312.2</ele>
        <time>2026-05-09T13:15:50Z</time>
      </trkpt>
      <trkpt lat="46.07085" lon="5.45264">
        <ele>312.2</ele>
        <time>2026-05-09T13:15:51Z</time>
      </trkpt>
      <trkpt lat="46.07082" lon="5.45266">
        <ele>312.2</ele>
        <time>2026-05-09T13:15:52Z</time>
      </trkpt>
      <trkpt lat="46.07078" lon="5.45267">
        <ele>312.2</ele>
        <time>2026-05-09T13:15:53Z</time>
      </trkpt>
      <trkpt lat="46.07074" lon="5.45269">
        <ele>312.2</ele>
        <time>2026-05-09T13:15:54Z</time>
      </trkpt>
      <trkpt lat="46.07071" lon="5.45271">
        <ele>312.6</ele>
        <time>2026-05-09T13:15:55Z</time>
      </trkpt>
      <trkpt lat="46.07067" lon="5.45273">
        <ele>312.6</ele>
        <time>2026-05-09T13:15:56Z</time>
      </trkpt>
      <trkpt lat="46.07064" lon="5.45275">
        <ele>312.6</ele>
        <time>2026-05-09T13:15:57Z</time>
      </trkpt>
      <trkpt lat="46.0706" lon="5.45277">
        <ele>312.8</ele>
        <time>2026-05-09T13:15:58Z</time>
      </trkpt>
      <trkpt lat="46.07056" lon="5.45278">
        <ele>312.8</ele>
        <time>2026-05-09T13:15:59Z</time>
      </trkpt>
      <trkpt lat="46.07052" lon="5.4528">
        <ele>312.8</ele>
        <time>2026-05-09T13:16:00Z</time>
      </trkpt>
      <trkpt lat="46.07049" lon="5.45281">
        <ele>312.8</ele>
        <time>2026-05-09T13:16:01Z</time>
      </trkpt>
      <trkpt lat="46.07045" lon="5.45283">
        <ele>312.8</ele>
        <time>2026-05-09T13:16:02Z</time>
      </trkpt>
      <trkpt lat="46.07041" lon="5.45284">
        <ele>313</ele>
        <time>2026-05-09T13:16:03Z</time>
      </trkpt>
      <trkpt lat="46.07038" lon="5.45285">
        <ele>313</ele>
        <time>2026-05-09T13:16:04Z</time>
      </trkpt>
      <trkpt lat="46.07034" lon="5.45286">
        <ele>313</ele>
        <time>2026-05-09T13:16:05Z</time>
      </trkpt>
      <trkpt lat="46.0703" lon="5.45286">
        <ele>313.4</ele>
        <time>2026-05-09T13:16:06Z</time>
      </trkpt>
      <trkpt lat="46.07026" lon="5.45287">
        <ele>313.4</ele>
        <time>2026-05-09T13:16:07Z</time>
      </trkpt>
      <trkpt lat="46.07022" lon="5.45288">
        <ele>313.6</ele>
        <time>2026-05-09T13:16:08Z</time>
      </trkpt>
      <trkpt lat="46.07018" lon="5.45288">
        <ele>313.6</ele>
        <time>2026-05-09T13:16:09Z</time>
      </trkpt>
      <trkpt lat="46.07014" lon="5.45288">
        <ele>313.6</ele>
        <time>2026-05-09T13:16:10Z</time>
      </trkpt>
      <trkpt lat="46.0701" lon="5.45288">
        <ele>313.6</ele>
        <time>2026-05-09T13:16:11Z</time>
      </trkpt>
      <trkpt lat="46.07006" lon="5.45288">
        <ele>313.6</ele>
        <time>2026-05-09T13:16:12Z</time>
      </trkpt>
      <trkpt lat="46.07002" lon="5.45288">
        <ele>313.6</ele>
        <time>2026-05-09T13:16:13Z</time>
      </trkpt>
      <trkpt lat="46.06998" lon="5.45287">
        <ele>313.6</ele>
        <time>2026-05-09T13:16:14Z</time>
      </trkpt>
      <trkpt lat="46.06994" lon="5.45287">
        <ele>313.6</ele>
        <time>2026-05-09T13:16:15Z</time>
      </trkpt>
      <trkpt lat="46.0699" lon="5.45286">
        <ele>314</ele>
        <time>2026-05-09T13:16:16Z</time>
      </trkpt>
      <trkpt lat="46.06986" lon="5.45286">
        <ele>314</ele>
        <time>2026-05-09T13:16:17Z</time>
      </trkpt>
      <trkpt lat="46.06983" lon="5.45285">
        <ele>314.2</ele>
        <time>2026-05-09T13:16:18Z</time>
      </trkpt>
      <trkpt lat="46.06979" lon="5.45284">
        <ele>314.2</ele>
        <time>2026-05-09T13:16:19Z</time>
      </trkpt>
      <trkpt lat="46.06975" lon="5.45283">
        <ele>314.2</ele>
        <time>2026-05-09T13:16:20Z</time>
      </trkpt>
      <trkpt lat="46.06971" lon="5.45282">
        <ele>314.4</ele>
        <time>2026-05-09T13:16:21Z</time>
      </trkpt>
      <trkpt lat="46.06967" lon="5.45281">
        <ele>314.4</ele>
        <time>2026-05-09T13:16:22Z</time>
      </trkpt>
      <trkpt lat="46.06963" lon="5.4528">
        <ele>314.6</ele>
        <time>2026-05-09T13:16:23Z</time>
      </trkpt>
      <trkpt lat="46.06959" lon="5.4528">
        <ele>314.6</ele>
        <time>2026-05-09T13:16:24Z</time>
      </trkpt>
      <trkpt lat="46.06955" lon="5.45279">
        <ele>314.6</ele>
        <time>2026-05-09T13:16:25Z</time>
      </trkpt>
      <trkpt lat="46.06951" lon="5.4528">
        <ele>314.6</ele>
        <time>2026-05-09T13:16:26Z</time>
      </trkpt>
      <trkpt lat="46.06947" lon="5.4528">
        <ele>314.6</ele>
        <time>2026-05-09T13:16:27Z</time>
      </trkpt>
      <trkpt lat="46.06943" lon="5.45281">
        <ele>314.8</ele>
        <time>2026-05-09T13:16:28Z</time>
      </trkpt>
      <trkpt lat="46.06939" lon="5.45282">
        <ele>314.8</ele>
        <time>2026-05-09T13:16:29Z</time>
      </trkpt>
      <trkpt lat="46.06935" lon="5.45283">
        <ele>314.8</ele>
        <time>2026-05-09T13:16:30Z</time>
      </trkpt>
      <trkpt lat="46.06931" lon="5.45284">
        <ele>314.8</ele>
        <time>2026-05-09T13:16:31Z</time>
      </trkpt>
      <trkpt lat="46.06927" lon="5.45286">
        <ele>315.2</ele>
        <time>2026-05-09T13:16:32Z</time>
      </trkpt>
      <trkpt lat="46.06923" lon="5.45287">
        <ele>315.2</ele>
        <time>2026-05-09T13:16:33Z</time>
      </trkpt>
      <trkpt lat="46.06919" lon="5.45289">
        <ele>315.2</ele>
        <time>2026-05-09T13:16:34Z</time>
      </trkpt>
      <trkpt lat="46.06915" lon="5.4529">
        <ele>315.2</ele>
        <time>2026-05-09T13:16:35Z</time>
      </trkpt>
      <trkpt lat="46.06911" lon="5.45292">
        <ele>315.4</ele>
        <time>2026-05-09T13:16:36Z</time>
      </trkpt>
      <trkpt lat="46.06907" lon="5.45293">
        <ele>315.4</ele>
        <time>2026-05-09T13:16:37Z</time>
      </trkpt>
      <trkpt lat="46.06904" lon="5.45294">
        <ele>315.4</ele>
        <time>2026-05-09T13:16:38Z</time>
      </trkpt>
      <trkpt lat="46.069" lon="5.45295">
        <ele>315.4</ele>
        <time>2026-05-09T13:16:39Z</time>
      </trkpt>
      <trkpt lat="46.06896" lon="5.45297">
        <ele>315.6</ele>
        <time>2026-05-09T13:16:40Z</time>
      </trkpt>
      <trkpt lat="46.06892" lon="5.45298">
        <ele>315.6</ele>
        <time>2026-05-09T13:16:41Z</time>
      </trkpt>
      <trkpt lat="46.06889" lon="5.453">
        <ele>315.6</ele>
        <time>2026-05-09T13:16:42Z</time>
      </trkpt>
      <trkpt lat="46.06885" lon="5.45301">
        <ele>316</ele>
        <time>2026-05-09T13:16:43Z</time>
      </trkpt>
      <trkpt lat="46.06881" lon="5.45303">
        <ele>316</ele>
        <time>2026-05-09T13:16:44Z</time>
      </trkpt>
      <trkpt lat="46.06877" lon="5.45304">
        <ele>316</ele>
        <time>2026-05-09T13:16:45Z</time>
      </trkpt>
      <trkpt lat="46.06873" lon="5.45306">
        <ele>316</ele>
        <time>2026-05-09T13:16:46Z</time>
      </trkpt>
      <trkpt lat="46.0687" lon="5.45307">
        <ele>316.2</ele>
        <time>2026-05-09T13:16:47Z</time>
      </trkpt>
      <trkpt lat="46.06866" lon="5.45308">
        <ele>316.2</ele>
        <time>2026-05-09T13:16:48Z</time>
      </trkpt>
      <trkpt lat="46.06858" lon="5.45311">
        <ele>316.4</ele>
        <time>2026-05-09T13:16:49Z</time>
      </trkpt>
      <trkpt lat="46.06854" lon="5.45313">
        <ele>316.4</ele>
        <time>2026-05-09T13:16:50Z</time>
      </trkpt>
      <trkpt lat="46.06851" lon="5.45314">
        <ele>316.4</ele>
        <time>2026-05-09T13:16:51Z</time>
      </trkpt>
      <trkpt lat="46.06847" lon="5.45316">
        <ele>316.4</ele>
        <time>2026-05-09T13:16:52Z</time>
      </trkpt>
      <trkpt lat="46.06843" lon="5.45317">
        <ele>316.4</ele>
        <time>2026-05-09T13:16:53Z</time>
      </trkpt>
      <trkpt lat="46.0684" lon="5.45318">
        <ele>316.6</ele>
        <time>2026-05-09T13:16:54Z</time>
      </trkpt>
      <trkpt lat="46.06836" lon="5.4532">
        <ele>316.6</ele>
        <time>2026-05-09T13:16:55Z</time>
      </trkpt>
      <trkpt lat="46.06832" lon="5.45321">
        <ele>316.6</ele>
        <time>2026-05-09T13:16:56Z</time>
      </trkpt>
      <trkpt lat="46.06828" lon="5.45323">
        <ele>316.6</ele>
        <time>2026-05-09T13:16:57Z</time>
      </trkpt>
      <trkpt lat="46.06825" lon="5.45324">
        <ele>317</ele>
        <time>2026-05-09T13:16:58Z</time>
      </trkpt>
      <trkpt lat="46.06821" lon="5.45325">
        <ele>317</ele>
        <time>2026-05-09T13:16:59Z</time>
      </trkpt>
      <trkpt lat="46.06818" lon="5.45326">
        <ele>317</ele>
        <time>2026-05-09T13:17:00Z</time>
      </trkpt>
      <trkpt lat="46.06814" lon="5.45328">
        <ele>317</ele>
        <time>2026-05-09T13:17:01Z</time>
      </trkpt>
      <trkpt lat="46.0681" lon="5.45329">
        <ele>317</ele>
        <time>2026-05-09T13:17:02Z</time>
      </trkpt>
      <trkpt lat="46.06807" lon="5.4533">
        <ele>317</ele>
        <time>2026-05-09T13:17:03Z</time>
      </trkpt>
      <trkpt lat="46.06803" lon="5.45332">
        <ele>317.4</ele>
        <time>2026-05-09T13:17:04Z</time>
      </trkpt>
      <trkpt lat="46.068" lon="5.45333">
        <ele>317.4</ele>
        <time>2026-05-09T13:17:05Z</time>
      </trkpt>
      <trkpt lat="46.06796" lon="5.45334">
        <ele>317.6</ele>
        <time>2026-05-09T13:17:06Z</time>
      </trkpt>
      <trkpt lat="46.06792" lon="5.45335">
        <ele>317.6</ele>
        <time>2026-05-09T13:17:07Z</time>
      </trkpt>
      <trkpt lat="46.06789" lon="5.45337">
        <ele>317.6</ele>
        <time>2026-05-09T13:17:08Z</time>
      </trkpt>
      <trkpt lat="46.06785" lon="5.45338">
        <ele>317.6</ele>
        <time>2026-05-09T13:17:09Z</time>
      </trkpt>
      <trkpt lat="46.06782" lon="5.45339">
        <ele>318</ele>
        <time>2026-05-09T13:17:10Z</time>
      </trkpt>
      <trkpt lat="46.06778" lon="5.4534">
        <ele>318.2</ele>
        <time>2026-05-09T13:17:11Z</time>
      </trkpt>
      <trkpt lat="46.06775" lon="5.45341">
        <ele>318.2</ele>
        <time>2026-05-09T13:17:12Z</time>
      </trkpt>
      <trkpt lat="46.06771" lon="5.45342">
        <ele>318.2</ele>
        <time>2026-05-09T13:17:13Z</time>
      </trkpt>
      <trkpt lat="46.06768" lon="5.45343">
        <ele>318.6</ele>
        <time>2026-05-09T13:17:14Z</time>
      </trkpt>
      <trkpt lat="46.06764" lon="5.45345">
        <ele>318.8</ele>
        <time>2026-05-09T13:17:15Z</time>
      </trkpt>
      <trkpt lat="46.06761" lon="5.45346">
        <ele>318.8</ele>
        <time>2026-05-09T13:17:16Z</time>
      </trkpt>
      <trkpt lat="46.06757" lon="5.45347">
        <ele>319.2</ele>
        <time>2026-05-09T13:17:17Z</time>
      </trkpt>
      <trkpt lat="46.06754" lon="5.45349">
        <ele>319.2</ele>
        <time>2026-05-09T13:17:18Z</time>
      </trkpt>
      <trkpt lat="46.0675" lon="5.45351">
        <ele>319.2</ele>
        <time>2026-05-09T13:17:19Z</time>
      </trkpt>
      <trkpt lat="46.06747" lon="5.45352">
        <ele>319.2</ele>
        <time>2026-05-09T13:17:20Z</time>
      </trkpt>
      <trkpt lat="46.06743" lon="5.45354">
        <ele>319.4</ele>
        <time>2026-05-09T13:17:21Z</time>
      </trkpt>
      <trkpt lat="46.0674" lon="5.45355">
        <ele>319.4</ele>
        <time>2026-05-09T13:17:22Z</time>
      </trkpt>
      <trkpt lat="46.06736" lon="5.45356">
        <ele>319.4</ele>
        <time>2026-05-09T13:17:23Z</time>
      </trkpt>
      <trkpt lat="46.06733" lon="5.45358">
        <ele>319.8</ele>
        <time>2026-05-09T13:17:24Z</time>
      </trkpt>
      <trkpt lat="46.06729" lon="5.45359">
        <ele>319.8</ele>
        <time>2026-05-09T13:17:25Z</time>
      </trkpt>
      <trkpt lat="46.06725" lon="5.4536">
        <ele>320</ele>
        <time>2026-05-09T13:17:26Z</time>
      </trkpt>
      <trkpt lat="46.06722" lon="5.45362">
        <ele>320</ele>
        <time>2026-05-09T13:17:27Z</time>
      </trkpt>
      <trkpt lat="46.06718" lon="5.45362">
        <ele>320</ele>
        <time>2026-05-09T13:17:28Z</time>
      </trkpt>
      <trkpt lat="46.06715" lon="5.45363">
        <ele>320</ele>
        <time>2026-05-09T13:17:29Z</time>
      </trkpt>
      <trkpt lat="46.06711" lon="5.45364">
        <ele>320</ele>
        <time>2026-05-09T13:17:30Z</time>
      </trkpt>
      <trkpt lat="46.06707" lon="5.45366">
        <ele>320.4</ele>
        <time>2026-05-09T13:17:31Z</time>
      </trkpt>
      <trkpt lat="46.06704" lon="5.45367">
        <ele>320.4</ele>
        <time>2026-05-09T13:17:32Z</time>
      </trkpt>
      <trkpt lat="46.067" lon="5.45369">
        <ele>320.4</ele>
        <time>2026-05-09T13:17:33Z</time>
      </trkpt>
      <trkpt lat="46.06696" lon="5.4537">
        <ele>320.8</ele>
        <time>2026-05-09T13:17:34Z</time>
      </trkpt>
      <trkpt lat="46.06692" lon="5.45372">
        <ele>320.8</ele>
        <time>2026-05-09T13:17:35Z</time>
      </trkpt>
      <trkpt lat="46.06689" lon="5.45372">
        <ele>320.8</ele>
        <time>2026-05-09T13:17:36Z</time>
      </trkpt>
      <trkpt lat="46.06685" lon="5.45374">
        <ele>320.8</ele>
        <time>2026-05-09T13:17:37Z</time>
      </trkpt>
      <trkpt lat="46.06681" lon="5.45375">
        <ele>320.8</ele>
        <time>2026-05-09T13:17:38Z</time>
      </trkpt>
      <trkpt lat="46.06677" lon="5.45376">
        <ele>320.8</ele>
        <time>2026-05-09T13:17:39Z</time>
      </trkpt>
      <trkpt lat="46.06673" lon="5.45377">
        <ele>321</ele>
        <time>2026-05-09T13:17:40Z</time>
      </trkpt>
      <trkpt lat="46.06669" lon="5.45377">
        <ele>321</ele>
        <time>2026-05-09T13:17:41Z</time>
      </trkpt>
      <trkpt lat="46.06665" lon="5.45378">
        <ele>321</ele>
        <time>2026-05-09T13:17:42Z</time>
      </trkpt>
      <trkpt lat="46.06662" lon="5.45379">
        <ele>321.2</ele>
        <time>2026-05-09T13:17:43Z</time>
      </trkpt>
      <trkpt lat="46.06658" lon="5.4538">
        <ele>321.2</ele>
        <time>2026-05-09T13:17:44Z</time>
      </trkpt>
      <trkpt lat="46.06654" lon="5.45381">
        <ele>321.2</ele>
        <time>2026-05-09T13:17:45Z</time>
      </trkpt>
      <trkpt lat="46.0665" lon="5.45382">
        <ele>321.2</ele>
        <time>2026-05-09T13:17:46Z</time>
      </trkpt>
      <trkpt lat="46.06646" lon="5.45383">
        <ele>321.4</ele>
        <time>2026-05-09T13:17:47Z</time>
      </trkpt>
      <trkpt lat="46.06642" lon="5.45384">
        <ele>321.4</ele>
        <time>2026-05-09T13:17:48Z</time>
      </trkpt>
      <trkpt lat="46.06638" lon="5.45385">
        <ele>321.4</ele>
        <time>2026-05-09T13:17:49Z</time>
      </trkpt>
      <trkpt lat="46.06634" lon="5.45386">
        <ele>321.4</ele>
        <time>2026-05-09T13:17:50Z</time>
      </trkpt>
      <trkpt lat="46.0663" lon="5.45387">
        <ele>321.4</ele>
        <time>2026-05-09T13:17:51Z</time>
      </trkpt>
      <trkpt lat="46.06626" lon="5.45389">
        <ele>321.4</ele>
        <time>2026-05-09T13:17:52Z</time>
      </trkpt>
      <trkpt lat="46.06622" lon="5.4539">
        <ele>321.4</ele>
        <time>2026-05-09T13:17:53Z</time>
      </trkpt>
      <trkpt lat="46.06619" lon="5.4539">
        <ele>321.8</ele>
        <time>2026-05-09T13:17:54Z</time>
      </trkpt>
      <trkpt lat="46.06615" lon="5.45391">
        <ele>321.8</ele>
        <time>2026-05-09T13:17:55Z</time>
      </trkpt>
      <trkpt lat="46.06611" lon="5.45392">
        <ele>321.8</ele>
        <time>2026-05-09T13:17:56Z</time>
      </trkpt>
      <trkpt lat="46.06607" lon="5.45393">
        <ele>321.8</ele>
        <time>2026-05-09T13:17:57Z</time>
      </trkpt>
      <trkpt lat="46.06603" lon="5.45394">
        <ele>322</ele>
        <time>2026-05-09T13:17:58Z</time>
      </trkpt>
      <trkpt lat="46.06599" lon="5.45395">
        <ele>322.2</ele>
        <time>2026-05-09T13:17:59Z</time>
      </trkpt>
      <trkpt lat="46.06595" lon="5.45396">
        <ele>322.2</ele>
        <time>2026-05-09T13:18:00Z</time>
      </trkpt>
      <trkpt lat="46.06592" lon="5.45397">
        <ele>322.4</ele>
        <time>2026-05-09T13:18:01Z</time>
      </trkpt>
      <trkpt lat="46.06588" lon="5.45398">
        <ele>322.4</ele>
        <time>2026-05-09T13:18:02Z</time>
      </trkpt>
      <trkpt lat="46.06584" lon="5.45399">
        <ele>322.4</ele>
        <time>2026-05-09T13:18:03Z</time>
      </trkpt>
      <trkpt lat="46.0658" lon="5.454">
        <ele>322.8</ele>
        <time>2026-05-09T13:18:04Z</time>
      </trkpt>
      <trkpt lat="46.06576" lon="5.45401">
        <ele>322.8</ele>
        <time>2026-05-09T13:18:05Z</time>
      </trkpt>
      <trkpt lat="46.06572" lon="5.45402">
        <ele>322.8</ele>
        <time>2026-05-09T13:18:06Z</time>
      </trkpt>
      <trkpt lat="46.06568" lon="5.45403">
        <ele>323</ele>
        <time>2026-05-09T13:18:07Z</time>
      </trkpt>
      <trkpt lat="46.06564" lon="5.45404">
        <ele>323</ele>
        <time>2026-05-09T13:18:08Z</time>
      </trkpt>
      <trkpt lat="46.0656" lon="5.45405">
        <ele>323</ele>
        <time>2026-05-09T13:18:09Z</time>
      </trkpt>
      <trkpt lat="46.06557" lon="5.45407">
        <ele>323</ele>
        <time>2026-05-09T13:18:10Z</time>
      </trkpt>
      <trkpt lat="46.06553" lon="5.45408">
        <ele>323</ele>
        <time>2026-05-09T13:18:11Z</time>
      </trkpt>
      <trkpt lat="46.06549" lon="5.45409">
        <ele>323.4</ele>
        <time>2026-05-09T13:18:12Z</time>
      </trkpt>
      <trkpt lat="46.06546" lon="5.4541">
        <ele>323.4</ele>
        <time>2026-05-09T13:18:13Z</time>
      </trkpt>
      <trkpt lat="46.06542" lon="5.45411">
        <ele>323.4</ele>
        <time>2026-05-09T13:18:14Z</time>
      </trkpt>
      <trkpt lat="46.06538" lon="5.45412">
        <ele>323.4</ele>
        <time>2026-05-09T13:18:15Z</time>
      </trkpt>
      <trkpt lat="46.06534" lon="5.45413">
        <ele>323.4</ele>
        <time>2026-05-09T13:18:16Z</time>
      </trkpt>
      <trkpt lat="46.0653" lon="5.45415">
        <ele>323.6</ele>
        <time>2026-05-09T13:18:17Z</time>
      </trkpt>
      <trkpt lat="46.06527" lon="5.45416">
        <ele>323.6</ele>
        <time>2026-05-09T13:18:18Z</time>
      </trkpt>
      <trkpt lat="46.06523" lon="5.45417">
        <ele>323.6</ele>
        <time>2026-05-09T13:18:19Z</time>
      </trkpt>
      <trkpt lat="46.06519" lon="5.45418">
        <ele>323.6</ele>
        <time>2026-05-09T13:18:20Z</time>
      </trkpt>
      <trkpt lat="46.06516" lon="5.4542">
        <ele>323.8</ele>
        <time>2026-05-09T13:18:21Z</time>
      </trkpt>
      <trkpt lat="46.06512" lon="5.45422">
        <ele>323.8</ele>
        <time>2026-05-09T13:18:22Z</time>
      </trkpt>
      <trkpt lat="46.06512" lon="5.45422">
        <ele>323.8</ele>
        <time>2026-05-09T13:18:23Z</time>
      </trkpt>
      <trkpt lat="46.06509" lon="5.45425">
        <ele>323.8</ele>
        <time>2026-05-09T13:18:24Z</time>
      </trkpt>
      <trkpt lat="46.06506" lon="5.45427">
        <ele>323.8</ele>
        <time>2026-05-09T13:18:25Z</time>
      </trkpt>
      <trkpt lat="46.06503" lon="5.4543">
        <ele>323.8</ele>
        <time>2026-05-09T13:18:26Z</time>
      </trkpt>
      <trkpt lat="46.065" lon="5.45434">
        <ele>324.2</ele>
        <time>2026-05-09T13:18:27Z</time>
      </trkpt>
      <trkpt lat="46.06497" lon="5.45437">
        <ele>324.2</ele>
        <time>2026-05-09T13:18:28Z</time>
      </trkpt>
      <trkpt lat="46.06494" lon="5.45441">
        <ele>324.2</ele>
        <time>2026-05-09T13:18:29Z</time>
      </trkpt>
      <trkpt lat="46.06492" lon="5.45445">
        <ele>324.2</ele>
        <time>2026-05-09T13:18:30Z</time>
      </trkpt>
      <trkpt lat="46.06489" lon="5.45448">
        <ele>324.6</ele>
        <time>2026-05-09T13:18:31Z</time>
      </trkpt>
      <trkpt lat="46.06486" lon="5.45452">
        <ele>324.6</ele>
        <time>2026-05-09T13:18:32Z</time>
      </trkpt>
      <trkpt lat="46.06483" lon="5.45456">
        <ele>324.6</ele>
        <time>2026-05-09T13:18:33Z</time>
      </trkpt>
      <trkpt lat="46.06481" lon="5.45459">
        <ele>324.8</ele>
        <time>2026-05-09T13:18:34Z</time>
      </trkpt>
      <trkpt lat="46.06478" lon="5.45463">
        <ele>324.8</ele>
        <time>2026-05-09T13:18:35Z</time>
      </trkpt>
      <trkpt lat="46.06476" lon="5.45468">
        <ele>324.8</ele>
        <time>2026-05-09T13:18:36Z</time>
      </trkpt>
      <trkpt lat="46.06473" lon="5.45472">
        <ele>325.2</ele>
        <time>2026-05-09T13:18:37Z</time>
      </trkpt>
      <trkpt lat="46.06471" lon="5.45476">
        <ele>325.2</ele>
        <time>2026-05-09T13:18:38Z</time>
      </trkpt>
      <trkpt lat="46.06469" lon="5.45481">
        <ele>325.6</ele>
        <time>2026-05-09T13:18:39Z</time>
      </trkpt>
      <trkpt lat="46.06466" lon="5.45485">
        <ele>325.6</ele>
        <time>2026-05-09T13:18:40Z</time>
      </trkpt>
      <trkpt lat="46.06464" lon="5.4549">
        <ele>325.6</ele>
        <time>2026-05-09T13:18:41Z</time>
      </trkpt>
      <trkpt lat="46.06462" lon="5.45494">
        <ele>325.6</ele>
        <time>2026-05-09T13:18:42Z</time>
      </trkpt>
      <trkpt lat="46.0646" lon="5.45499">
        <ele>325.6</ele>
        <time>2026-05-09T13:18:43Z</time>
      </trkpt>
      <trkpt lat="46.06459" lon="5.45504">
        <ele>326</ele>
        <time>2026-05-09T13:18:44Z</time>
      </trkpt>
      <trkpt lat="46.06457" lon="5.45509">
        <ele>326</ele>
        <time>2026-05-09T13:18:45Z</time>
      </trkpt>
      <trkpt lat="46.06456" lon="5.45514">
        <ele>326.4</ele>
        <time>2026-05-09T13:18:46Z</time>
      </trkpt>
      <trkpt lat="46.06455" lon="5.45518">
        <ele>326.4</ele>
        <time>2026-05-09T13:18:47Z</time>
      </trkpt>
      <trkpt lat="46.06454" lon="5.45522">
        <ele>326.4</ele>
        <time>2026-05-09T13:18:48Z</time>
      </trkpt>
      <trkpt lat="46.06452" lon="5.45526">
        <ele>327</ele>
        <time>2026-05-09T13:18:49Z</time>
      </trkpt>
      <trkpt lat="46.06451" lon="5.45531">
        <ele>327</ele>
        <time>2026-05-09T13:18:50Z</time>
      </trkpt>
      <trkpt lat="46.0645" lon="5.45535">
        <ele>327.2</ele>
        <time>2026-05-09T13:18:51Z</time>
      </trkpt>
      <trkpt lat="46.06449" lon="5.45539">
        <ele>327.2</ele>
        <time>2026-05-09T13:18:52Z</time>
      </trkpt>
      <trkpt lat="46.06448" lon="5.45543">
        <ele>327.6</ele>
        <time>2026-05-09T13:18:53Z</time>
      </trkpt>
      <trkpt lat="46.06447" lon="5.45547">
        <ele>327.8</ele>
        <time>2026-05-09T13:18:54Z</time>
      </trkpt>
      <trkpt lat="46.06446" lon="5.45551">
        <ele>327.8</ele>
        <time>2026-05-09T13:18:55Z</time>
      </trkpt>
      <trkpt lat="46.06444" lon="5.45554">
        <ele>328.2</ele>
        <time>2026-05-09T13:18:56Z</time>
      </trkpt>
      <trkpt lat="46.06441" lon="5.45557">
        <ele>328.4</ele>
        <time>2026-05-09T13:18:57Z</time>
      </trkpt>
      <trkpt lat="46.06438" lon="5.45559">
        <ele>328.4</ele>
        <time>2026-05-09T13:18:58Z</time>
      </trkpt>
      <trkpt lat="46.06435" lon="5.45561">
        <ele>328.4</ele>
        <time>2026-05-09T13:18:59Z</time>
      </trkpt>
      <trkpt lat="46.06431" lon="5.45562">
        <ele>328.4</ele>
        <time>2026-05-09T13:19:00Z</time>
      </trkpt>
      <trkpt lat="46.06428" lon="5.45563">
        <ele>328.6</ele>
        <time>2026-05-09T13:19:01Z</time>
      </trkpt>
      <trkpt lat="46.06425" lon="5.45563">
        <ele>328.6</ele>
        <time>2026-05-09T13:19:02Z</time>
      </trkpt>
      <trkpt lat="46.06422" lon="5.45563">
        <ele>329.2</ele>
        <time>2026-05-09T13:19:03Z</time>
      </trkpt>
      <trkpt lat="46.06418" lon="5.45564">
        <ele>329.4</ele>
        <time>2026-05-09T13:19:04Z</time>
      </trkpt>
      <trkpt lat="46.06415" lon="5.45564">
        <ele>329.4</ele>
        <time>2026-05-09T13:19:05Z</time>
      </trkpt>
      <trkpt lat="46.06412" lon="5.45564">
        <ele>329.6</ele>
        <time>2026-05-09T13:19:06Z</time>
      </trkpt>
      <trkpt lat="46.06409" lon="5.45563">
        <ele>329.6</ele>
        <time>2026-05-09T13:19:07Z</time>
      </trkpt>
      <trkpt lat="46.06407" lon="5.45563">
        <ele>330</ele>
        <time>2026-05-09T13:19:08Z</time>
      </trkpt>
      <trkpt lat="46.06404" lon="5.45562">
        <ele>330</ele>
        <time>2026-05-09T13:19:09Z</time>
      </trkpt>
      <trkpt lat="46.06402" lon="5.45561">
        <ele>330.4</ele>
        <time>2026-05-09T13:19:10Z</time>
      </trkpt>
      <trkpt lat="46.06399" lon="5.45561">
        <ele>330.6</ele>
        <time>2026-05-09T13:19:11Z</time>
      </trkpt>
      <trkpt lat="46.06397" lon="5.4556">
        <ele>330.8</ele>
        <time>2026-05-09T13:19:12Z</time>
      </trkpt>
      <trkpt lat="46.06394" lon="5.45559">
        <ele>330.8</ele>
        <time>2026-05-09T13:19:13Z</time>
      </trkpt>
      <trkpt lat="46.06392" lon="5.45559">
        <ele>331</ele>
        <time>2026-05-09T13:19:14Z</time>
      </trkpt>
      <trkpt lat="46.0639" lon="5.45558">
        <ele>331.2</ele>
        <time>2026-05-09T13:19:15Z</time>
      </trkpt>
      <trkpt lat="46.06388" lon="5.45557">
        <ele>331.6</ele>
        <time>2026-05-09T13:19:16Z</time>
      </trkpt>
      <trkpt lat="46.06386" lon="5.45556">
        <ele>331.8</ele>
        <time>2026-05-09T13:19:17Z</time>
      </trkpt>
      <trkpt lat="46.06384" lon="5.45555">
        <ele>331.8</ele>
        <time>2026-05-09T13:19:18Z</time>
      </trkpt>
      <trkpt lat="46.06382" lon="5.45555">
        <ele>332</ele>
        <time>2026-05-09T13:19:19Z</time>
      </trkpt>
      <trkpt lat="46.0638" lon="5.45554">
        <ele>332</ele>
        <time>2026-05-09T13:19:20Z</time>
      </trkpt>
      <trkpt lat="46.06377" lon="5.45554">
        <ele>332</ele>
        <time>2026-05-09T13:19:21Z</time>
      </trkpt>
      <trkpt lat="46.06375" lon="5.45554">
        <ele>332.2</ele>
        <time>2026-05-09T13:19:22Z</time>
      </trkpt>
      <trkpt lat="46.06373" lon="5.45555">
        <ele>332.2</ele>
        <time>2026-05-09T13:19:23Z</time>
      </trkpt>
      <trkpt lat="46.06371" lon="5.45555">
        <ele>332.2</ele>
        <time>2026-05-09T13:19:24Z</time>
      </trkpt>
      <trkpt lat="46.06368" lon="5.45556">
        <ele>332.2</ele>
        <time>2026-05-09T13:19:25Z</time>
      </trkpt>
      <trkpt lat="46.06366" lon="5.45556">
        <ele>332.4</ele>
        <time>2026-05-09T13:19:26Z</time>
      </trkpt>
      <trkpt lat="46.06364" lon="5.45556">
        <ele>332.4</ele>
        <time>2026-05-09T13:19:27Z</time>
      </trkpt>
      <trkpt lat="46.06362" lon="5.45557">
        <ele>332.4</ele>
        <time>2026-05-09T13:19:28Z</time>
      </trkpt>
      <trkpt lat="46.06359" lon="5.45557">
        <ele>332.8</ele>
        <time>2026-05-09T13:19:29Z</time>
      </trkpt>
      <trkpt lat="46.06357" lon="5.45558">
        <ele>332.8</ele>
        <time>2026-05-09T13:19:30Z</time>
      </trkpt>
      <trkpt lat="46.06355" lon="5.45558">
        <ele>333</ele>
        <time>2026-05-09T13:19:31Z</time>
      </trkpt>
      <trkpt lat="46.06353" lon="5.45559">
        <ele>333</ele>
        <time>2026-05-09T13:19:32Z</time>
      </trkpt>
      <trkpt lat="46.06351" lon="5.45559">
        <ele>333.6</ele>
        <time>2026-05-09T13:19:33Z</time>
      </trkpt>
      <trkpt lat="46.06349" lon="5.4556">
        <ele>333.8</ele>
        <time>2026-05-09T13:19:34Z</time>
      </trkpt>
      <trkpt lat="46.06346" lon="5.45561">
        <ele>333.8</ele>
        <time>2026-05-09T13:19:35Z</time>
      </trkpt>
      <trkpt lat="46.06344" lon="5.45561">
        <ele>334</ele>
        <time>2026-05-09T13:19:36Z</time>
      </trkpt>
      <trkpt lat="46.06342" lon="5.45562">
        <ele>334</ele>
        <time>2026-05-09T13:19:37Z</time>
      </trkpt>
      <trkpt lat="46.0634" lon="5.45563">
        <ele>334.4</ele>
        <time>2026-05-09T13:19:38Z</time>
      </trkpt>
      <trkpt lat="46.06338" lon="5.45564">
        <ele>334.4</ele>
        <time>2026-05-09T13:19:39Z</time>
      </trkpt>
      <trkpt lat="46.06336" lon="5.45565">
        <ele>334.6</ele>
        <time>2026-05-09T13:19:40Z</time>
      </trkpt>
      <trkpt lat="46.06334" lon="5.45567">
        <ele>334.6</ele>
        <time>2026-05-09T13:19:41Z</time>
      </trkpt>
      <trkpt lat="46.06332" lon="5.45568">
        <ele>334.8</ele>
        <time>2026-05-09T13:19:42Z</time>
      </trkpt>
      <trkpt lat="46.06329" lon="5.4557">
        <ele>334.8</ele>
        <time>2026-05-09T13:19:43Z</time>
      </trkpt>
      <trkpt lat="46.06327" lon="5.45571">
        <ele>335.2</ele>
        <time>2026-05-09T13:19:44Z</time>
      </trkpt>
      <trkpt lat="46.06322" lon="5.45573">
        <ele>335.2</ele>
        <time>2026-05-09T13:19:45Z</time>
      </trkpt>
      <trkpt lat="46.0632" lon="5.45574">
        <ele>335.4</ele>
        <time>2026-05-09T13:19:46Z</time>
      </trkpt>
      <trkpt lat="46.06317" lon="5.45576">
        <ele>335.4</ele>
        <time>2026-05-09T13:19:47Z</time>
      </trkpt>
      <trkpt lat="46.06315" lon="5.45578">
        <ele>335.4</ele>
        <time>2026-05-09T13:19:48Z</time>
      </trkpt>
      <trkpt lat="46.06313" lon="5.4558">
        <ele>335.8</ele>
        <time>2026-05-09T13:19:49Z</time>
      </trkpt>
      <trkpt lat="46.06312" lon="5.45581">
        <ele>335.8</ele>
        <time>2026-05-09T13:19:50Z</time>
      </trkpt>
      <trkpt lat="46.06312" lon="5.45581">
        <ele>336</ele>
        <time>2026-05-09T13:19:51Z</time>
      </trkpt>
      <trkpt lat="46.06312" lon="5.45581">
        <ele>336</ele>
        <time>2026-05-09T13:19:52Z</time>
      </trkpt>
      <trkpt lat="46.06312" lon="5.45579">
        <ele>335.8</ele>
        <time>2026-05-09T13:20:16Z</time>
      </trkpt>
      <trkpt lat="46.06311" lon="5.4558">
        <ele>335.8</ele>
        <time>2026-05-09T13:20:17Z</time>
      </trkpt>
      <trkpt lat="46.06309" lon="5.4558">
        <ele>335.8</ele>
        <time>2026-05-09T13:20:18Z</time>
      </trkpt>
      <trkpt lat="46.06307" lon="5.45581">
        <ele>336</ele>
        <time>2026-05-09T13:20:19Z</time>
      </trkpt>
      <trkpt lat="46.06305" lon="5.45582">
        <ele>336</ele>
        <time>2026-05-09T13:20:20Z</time>
      </trkpt>
      <trkpt lat="46.06303" lon="5.45583">
        <ele>336</ele>
        <time>2026-05-09T13:20:21Z</time>
      </trkpt>
      <trkpt lat="46.06301" lon="5.45583">
        <ele>336</ele>
        <time>2026-05-09T13:20:22Z</time>
      </trkpt>
      <trkpt lat="46.06299" lon="5.45584">
        <ele>336</ele>
        <time>2026-05-09T13:20:23Z</time>
      </trkpt>
      <trkpt lat="46.06298" lon="5.45586">
        <ele>336.2</ele>
        <time>2026-05-09T13:20:24Z</time>
      </trkpt>
      <trkpt lat="46.06295" lon="5.45588">
        <ele>336.2</ele>
        <time>2026-05-09T13:20:25Z</time>
      </trkpt>
      <trkpt lat="46.06294" lon="5.45589">
        <ele>336.4</ele>
        <time>2026-05-09T13:20:26Z</time>
      </trkpt>
      <trkpt lat="46.06291" lon="5.45591">
        <ele>336.4</ele>
        <time>2026-05-09T13:20:27Z</time>
      </trkpt>
      <trkpt lat="46.06289" lon="5.45593">
        <ele>336.8</ele>
        <time>2026-05-09T13:20:28Z</time>
      </trkpt>
      <trkpt lat="46.06287" lon="5.45595">
        <ele>337.2</ele>
        <time>2026-05-09T13:20:29Z</time>
      </trkpt>
      <trkpt lat="46.06285" lon="5.45597">
        <ele>337.2</ele>
        <time>2026-05-09T13:20:30Z</time>
      </trkpt>
      <trkpt lat="46.06282" lon="5.45598">
        <ele>337.2</ele>
        <time>2026-05-09T13:20:31Z</time>
      </trkpt>
      <trkpt lat="46.0628" lon="5.456">
        <ele>337.4</ele>
        <time>2026-05-09T13:20:32Z</time>
      </trkpt>
      <trkpt lat="46.06278" lon="5.45603">
        <ele>337.4</ele>
        <time>2026-05-09T13:20:33Z</time>
      </trkpt>
      <trkpt lat="46.06276" lon="5.45605">
        <ele>337.4</ele>
        <time>2026-05-09T13:20:34Z</time>
      </trkpt>
      <trkpt lat="46.06274" lon="5.45606">
        <ele>337.6</ele>
        <time>2026-05-09T13:20:35Z</time>
      </trkpt>
      <trkpt lat="46.06272" lon="5.45608">
        <ele>337.6</ele>
        <time>2026-05-09T13:20:36Z</time>
      </trkpt>
      <trkpt lat="46.0627" lon="5.4561">
        <ele>337.6</ele>
        <time>2026-05-09T13:20:37Z</time>
      </trkpt>
      <trkpt lat="46.06267" lon="5.45612">
        <ele>338</ele>
        <time>2026-05-09T13:20:38Z</time>
      </trkpt>
      <trkpt lat="46.06265" lon="5.45614">
        <ele>338</ele>
        <time>2026-05-09T13:20:39Z</time>
      </trkpt>
      <trkpt lat="46.06263" lon="5.45615">
        <ele>338.4</ele>
        <time>2026-05-09T13:20:40Z</time>
      </trkpt>
      <trkpt lat="46.06261" lon="5.45616">
        <ele>338.4</ele>
        <time>2026-05-09T13:20:41Z</time>
      </trkpt>
      <trkpt lat="46.0626" lon="5.45617">
        <ele>338.6</ele>
        <time>2026-05-09T13:20:42Z</time>
      </trkpt>
      <trkpt lat="46.06258" lon="5.45618">
        <ele>338.6</ele>
        <time>2026-05-09T13:20:43Z</time>
      </trkpt>
      <trkpt lat="46.06256" lon="5.45619">
        <ele>338.8</ele>
        <time>2026-05-09T13:20:44Z</time>
      </trkpt>
      <trkpt lat="46.06253" lon="5.4562">
        <ele>338.8</ele>
        <time>2026-05-09T13:20:45Z</time>
      </trkpt>
      <trkpt lat="46.06251" lon="5.45621">
        <ele>338.8</ele>
        <time>2026-05-09T13:20:46Z</time>
      </trkpt>
      <trkpt lat="46.06249" lon="5.45622">
        <ele>339</ele>
        <time>2026-05-09T13:20:47Z</time>
      </trkpt>
      <trkpt lat="46.06247" lon="5.45624">
        <ele>339.2</ele>
        <time>2026-05-09T13:20:48Z</time>
      </trkpt>
      <trkpt lat="46.06245" lon="5.45625">
        <ele>339.2</ele>
        <time>2026-05-09T13:20:49Z</time>
      </trkpt>
      <trkpt lat="46.06243" lon="5.45627">
        <ele>339.2</ele>
        <time>2026-05-09T13:20:50Z</time>
      </trkpt>
      <trkpt lat="46.0624" lon="5.45628">
        <ele>339.4</ele>
        <time>2026-05-09T13:20:51Z</time>
      </trkpt>
      <trkpt lat="46.06238" lon="5.45629">
        <ele>339.4</ele>
        <time>2026-05-09T13:20:52Z</time>
      </trkpt>
      <trkpt lat="46.06238" lon="5.45629">
        <ele>340</ele>
        <time>2026-05-09T13:20:53Z</time>
      </trkpt>
      <trkpt lat="46.06234" lon="5.45632">
        <ele>340.4</ele>
        <time>2026-05-09T13:20:54Z</time>
      </trkpt>
      <trkpt lat="46.06232" lon="5.45633">
        <ele>340.6</ele>
        <time>2026-05-09T13:20:55Z</time>
      </trkpt>
      <trkpt lat="46.0623" lon="5.45635">
        <ele>340.6</ele>
        <time>2026-05-09T13:20:56Z</time>
      </trkpt>
      <trkpt lat="46.06228" lon="5.45636">
        <ele>340.8</ele>
        <time>2026-05-09T13:20:57Z</time>
      </trkpt>
      <trkpt lat="46.06225" lon="5.45637">
        <ele>340.8</ele>
        <time>2026-05-09T13:20:58Z</time>
      </trkpt>
      <trkpt lat="46.06223" lon="5.45639">
        <ele>341.2</ele>
        <time>2026-05-09T13:20:59Z</time>
      </trkpt>
      <trkpt lat="46.0622" lon="5.4564">
        <ele>341.2</ele>
        <time>2026-05-09T13:21:00Z</time>
      </trkpt>
      <trkpt lat="46.06218" lon="5.45642">
        <ele>341.6</ele>
        <time>2026-05-09T13:21:01Z</time>
      </trkpt>
      <trkpt lat="46.06216" lon="5.45643">
        <ele>341.6</ele>
        <time>2026-05-09T13:21:02Z</time>
      </trkpt>
      <trkpt lat="46.06214" lon="5.45645">
        <ele>341.8</ele>
        <time>2026-05-09T13:21:03Z</time>
      </trkpt>
      <trkpt lat="46.06211" lon="5.45647">
        <ele>341.8</ele>
        <time>2026-05-09T13:21:04Z</time>
      </trkpt>
      <trkpt lat="46.06209" lon="5.45649">
        <ele>342</ele>
        <time>2026-05-09T13:21:05Z</time>
      </trkpt>
      <trkpt lat="46.06207" lon="5.45651">
        <ele>342</ele>
        <time>2026-05-09T13:21:06Z</time>
      </trkpt>
      <trkpt lat="46.06205" lon="5.45653">
        <ele>342</ele>
        <time>2026-05-09T13:21:07Z</time>
      </trkpt>
      <trkpt lat="46.06203" lon="5.45655">
        <ele>342.4</ele>
        <time>2026-05-09T13:21:08Z</time>
      </trkpt>
      <trkpt lat="46.062" lon="5.45656">
        <ele>342.4</ele>
        <time>2026-05-09T13:21:09Z</time>
      </trkpt>
      <trkpt lat="46.06198" lon="5.45658">
        <ele>342.6</ele>
        <time>2026-05-09T13:21:10Z</time>
      </trkpt>
      <trkpt lat="46.06196" lon="5.4566">
        <ele>342.6</ele>
        <time>2026-05-09T13:21:11Z</time>
      </trkpt>
      <trkpt lat="46.06194" lon="5.45662">
        <ele>342.6</ele>
        <time>2026-05-09T13:21:12Z</time>
      </trkpt>
      <trkpt lat="46.06192" lon="5.45664">
        <ele>342.8</ele>
        <time>2026-05-09T13:21:13Z</time>
      </trkpt>
      <trkpt lat="46.06189" lon="5.45666">
        <ele>342.8</ele>
        <time>2026-05-09T13:21:14Z</time>
      </trkpt>
      <trkpt lat="46.06187" lon="5.45668">
        <ele>342.8</ele>
        <time>2026-05-09T13:21:15Z</time>
      </trkpt>
      <trkpt lat="46.06185" lon="5.45669">
        <ele>342.8</ele>
        <time>2026-05-09T13:21:16Z</time>
      </trkpt>
      <trkpt lat="46.06183" lon="5.4567">
        <ele>342.8</ele>
        <time>2026-05-09T13:21:17Z</time>
      </trkpt>
      <trkpt lat="46.06181" lon="5.45672">
        <ele>342.8</ele>
        <time>2026-05-09T13:21:18Z</time>
      </trkpt>
      <trkpt lat="46.06179" lon="5.45674">
        <ele>342.8</ele>
        <time>2026-05-09T13:21:19Z</time>
      </trkpt>
      <trkpt lat="46.06176" lon="5.45676">
        <ele>343</ele>
        <time>2026-05-09T13:21:20Z</time>
      </trkpt>
      <trkpt lat="46.06174" lon="5.45678">
        <ele>343</ele>
        <time>2026-05-09T13:21:21Z</time>
      </trkpt>
      <trkpt lat="46.06172" lon="5.45679">
        <ele>343</ele>
        <time>2026-05-09T13:21:22Z</time>
      </trkpt>
      <trkpt lat="46.0617" lon="5.45681">
        <ele>343</ele>
        <time>2026-05-09T13:21:23Z</time>
      </trkpt>
      <trkpt lat="46.06168" lon="5.45682">
        <ele>343</ele>
        <time>2026-05-09T13:21:24Z</time>
      </trkpt>
      <trkpt lat="46.06166" lon="5.45683">
        <ele>343</ele>
        <time>2026-05-09T13:21:25Z</time>
      </trkpt>
      <trkpt lat="46.06163" lon="5.45685">
        <ele>343.4</ele>
        <time>2026-05-09T13:21:26Z</time>
      </trkpt>
      <trkpt lat="46.06161" lon="5.45687">
        <ele>343.4</ele>
        <time>2026-05-09T13:21:27Z</time>
      </trkpt>
      <trkpt lat="46.06159" lon="5.45689">
        <ele>343.6</ele>
        <time>2026-05-09T13:21:28Z</time>
      </trkpt>
      <trkpt lat="46.06157" lon="5.45691">
        <ele>343.8</ele>
        <time>2026-05-09T13:21:29Z</time>
      </trkpt>
      <trkpt lat="46.06155" lon="5.45693">
        <ele>343.8</ele>
        <time>2026-05-09T13:21:30Z</time>
      </trkpt>
      <trkpt lat="46.06152" lon="5.45695">
        <ele>343.8</ele>
        <time>2026-05-09T13:21:31Z</time>
      </trkpt>
      <trkpt lat="46.0615" lon="5.45697">
        <ele>344.2</ele>
        <time>2026-05-09T13:21:32Z</time>
      </trkpt>
      <trkpt lat="46.06144" lon="5.45701">
        <ele>344.2</ele>
        <time>2026-05-09T13:21:33Z</time>
      </trkpt>
      <trkpt lat="46.06141" lon="5.45703">
        <ele>344.2</ele>
        <time>2026-05-09T13:21:34Z</time>
      </trkpt>
      <trkpt lat="46.06139" lon="5.45705">
        <ele>344.2</ele>
        <time>2026-05-09T13:21:35Z</time>
      </trkpt>
      <trkpt lat="46.06138" lon="5.45708">
        <ele>344.2</ele>
        <time>2026-05-09T13:21:36Z</time>
      </trkpt>
      <trkpt lat="46.06136" lon="5.45711">
        <ele>344.4</ele>
        <time>2026-05-09T13:21:37Z</time>
      </trkpt>
      <trkpt lat="46.06135" lon="5.45715">
        <ele>344.4</ele>
        <time>2026-05-09T13:21:38Z</time>
      </trkpt>
      <trkpt lat="46.06135" lon="5.4572">
        <ele>344.4</ele>
        <time>2026-05-09T13:21:39Z</time>
      </trkpt>
      <trkpt lat="46.06134" lon="5.45724">
        <ele>344.4</ele>
        <time>2026-05-09T13:21:40Z</time>
      </trkpt>
      <trkpt lat="46.06134" lon="5.45729">
        <ele>344.6</ele>
        <time>2026-05-09T13:21:41Z</time>
      </trkpt>
      <trkpt lat="46.06133" lon="5.45734">
        <ele>344.6</ele>
        <time>2026-05-09T13:21:42Z</time>
      </trkpt>
      <trkpt lat="46.06132" lon="5.45738">
        <ele>344.6</ele>
        <time>2026-05-09T13:21:43Z</time>
      </trkpt>
      <trkpt lat="46.06132" lon="5.45742">
        <ele>344.6</ele>
        <time>2026-05-09T13:21:44Z</time>
      </trkpt>
      <trkpt lat="46.06131" lon="5.45745">
        <ele>344.6</ele>
        <time>2026-05-09T13:21:45Z</time>
      </trkpt>
      <trkpt lat="46.0613" lon="5.45749">
        <ele>344.6</ele>
        <time>2026-05-09T13:21:46Z</time>
      </trkpt>
      <trkpt lat="46.0613" lon="5.45752">
        <ele>344.6</ele>
        <time>2026-05-09T13:21:47Z</time>
      </trkpt>
      <trkpt lat="46.06129" lon="5.45755">
        <ele>344.6</ele>
        <time>2026-05-09T13:21:48Z</time>
      </trkpt>
      <trkpt lat="46.06128" lon="5.45759">
        <ele>344.6</ele>
        <time>2026-05-09T13:21:49Z</time>
      </trkpt>
      <trkpt lat="46.06127" lon="5.45762">
        <ele>345</ele>
        <time>2026-05-09T13:21:50Z</time>
      </trkpt>
      <trkpt lat="46.06126" lon="5.45766">
        <ele>345</ele>
        <time>2026-05-09T13:21:51Z</time>
      </trkpt>
      <trkpt lat="46.06126" lon="5.4577">
        <ele>345</ele>
        <time>2026-05-09T13:21:52Z</time>
      </trkpt>
      <trkpt lat="46.06125" lon="5.45773">
        <ele>345.2</ele>
        <time>2026-05-09T13:21:53Z</time>
      </trkpt>
      <trkpt lat="46.06124" lon="5.45776">
        <ele>345.2</ele>
        <time>2026-05-09T13:21:54Z</time>
      </trkpt>
      <trkpt lat="46.06123" lon="5.45779">
        <ele>345.6</ele>
        <time>2026-05-09T13:21:55Z</time>
      </trkpt>
      <trkpt lat="46.06122" lon="5.45782">
        <ele>345.6</ele>
        <time>2026-05-09T13:21:56Z</time>
      </trkpt>
      <trkpt lat="46.06121" lon="5.45785">
        <ele>345.8</ele>
        <time>2026-05-09T13:21:57Z</time>
      </trkpt>
      <trkpt lat="46.06122" lon="5.45789">
        <ele>345.8</ele>
        <time>2026-05-09T13:21:58Z</time>
      </trkpt>
      <trkpt lat="46.06121" lon="5.45792">
        <ele>346.2</ele>
        <time>2026-05-09T13:21:59Z</time>
      </trkpt>
      <trkpt lat="46.06121" lon="5.45794">
        <ele>346.2</ele>
        <time>2026-05-09T13:22:00Z</time>
      </trkpt>
      <trkpt lat="46.06121" lon="5.45797">
        <ele>346.4</ele>
        <time>2026-05-09T13:22:01Z</time>
      </trkpt>
      <trkpt lat="46.06121" lon="5.45799">
        <ele>346.4</ele>
        <time>2026-05-09T13:22:02Z</time>
      </trkpt>
      <trkpt lat="46.06122" lon="5.45802">
        <ele>346.8</ele>
        <time>2026-05-09T13:22:03Z</time>
      </trkpt>
      <trkpt lat="46.06122" lon="5.45805">
        <ele>347</ele>
        <time>2026-05-09T13:22:04Z</time>
      </trkpt>
      <trkpt lat="46.06123" lon="5.45808">
        <ele>347.2</ele>
        <time>2026-05-09T13:22:05Z</time>
      </trkpt>
      <trkpt lat="46.06124" lon="5.45811">
        <ele>347.2</ele>
        <time>2026-05-09T13:22:06Z</time>
      </trkpt>
      <trkpt lat="46.06125" lon="5.45813">
        <ele>347.6</ele>
        <time>2026-05-09T13:22:07Z</time>
      </trkpt>
      <trkpt lat="46.06126" lon="5.45816">
        <ele>347.6</ele>
        <time>2026-05-09T13:22:08Z</time>
      </trkpt>
      <trkpt lat="46.06126" lon="5.45818">
        <ele>347.6</ele>
        <time>2026-05-09T13:22:09Z</time>
      </trkpt>
      <trkpt lat="46.06127" lon="5.45821">
        <ele>347.6</ele>
        <time>2026-05-09T13:22:10Z</time>
      </trkpt>
      <trkpt lat="46.06127" lon="5.45824">
        <ele>347.8</ele>
        <time>2026-05-09T13:22:11Z</time>
      </trkpt>
      <trkpt lat="46.06128" lon="5.45826">
        <ele>347.8</ele>
        <time>2026-05-09T13:22:12Z</time>
      </trkpt>
      <trkpt lat="46.06128" lon="5.45829">
        <ele>348</ele>
        <time>2026-05-09T13:22:13Z</time>
      </trkpt>
      <trkpt lat="46.06129" lon="5.45832">
        <ele>348</ele>
        <time>2026-05-09T13:22:14Z</time>
      </trkpt>
      <trkpt lat="46.0613" lon="5.45835">
        <ele>348</ele>
        <time>2026-05-09T13:22:15Z</time>
      </trkpt>
      <trkpt lat="46.06131" lon="5.45837">
        <ele>348.4</ele>
        <time>2026-05-09T13:22:16Z</time>
      </trkpt>
      <trkpt lat="46.06132" lon="5.4584">
        <ele>348.6</ele>
        <time>2026-05-09T13:22:17Z</time>
      </trkpt>
      <trkpt lat="46.06133" lon="5.45843">
        <ele>348.6</ele>
        <time>2026-05-09T13:22:18Z</time>
      </trkpt>
      <trkpt lat="46.06133" lon="5.45845">
        <ele>349</ele>
        <time>2026-05-09T13:22:19Z</time>
      </trkpt>
      <trkpt lat="46.06134" lon="5.45847">
        <ele>349</ele>
        <time>2026-05-09T13:22:20Z</time>
      </trkpt>
      <trkpt lat="46.06135" lon="5.4585">
        <ele>349.2</ele>
        <time>2026-05-09T13:22:21Z</time>
      </trkpt>
      <trkpt lat="46.06136" lon="5.45852">
        <ele>349.6</ele>
        <time>2026-05-09T13:22:22Z</time>
      </trkpt>
      <trkpt lat="46.06137" lon="5.45855">
        <ele>349.6</ele>
        <time>2026-05-09T13:22:23Z</time>
      </trkpt>
      <trkpt lat="46.06137" lon="5.45858">
        <ele>349.8</ele>
        <time>2026-05-09T13:22:24Z</time>
      </trkpt>
      <trkpt lat="46.06137" lon="5.4586">
        <ele>350</ele>
        <time>2026-05-09T13:22:25Z</time>
      </trkpt>
      <trkpt lat="46.06137" lon="5.45863">
        <ele>350.4</ele>
        <time>2026-05-09T13:22:26Z</time>
      </trkpt>
      <trkpt lat="46.06137" lon="5.45865">
        <ele>350.6</ele>
        <time>2026-05-09T13:22:27Z</time>
      </trkpt>
      <trkpt lat="46.06137" lon="5.45867">
        <ele>350.6</ele>
        <time>2026-05-09T13:22:28Z</time>
      </trkpt>
      <trkpt lat="46.06138" lon="5.4587">
        <ele>350.8</ele>
        <time>2026-05-09T13:22:29Z</time>
      </trkpt>
      <trkpt lat="46.06138" lon="5.45873">
        <ele>350.8</ele>
        <time>2026-05-09T13:22:30Z</time>
      </trkpt>
      <trkpt lat="46.06138" lon="5.45875">
        <ele>350.8</ele>
        <time>2026-05-09T13:22:31Z</time>
      </trkpt>
      <trkpt lat="46.06138" lon="5.45878">
        <ele>351.2</ele>
        <time>2026-05-09T13:22:32Z</time>
      </trkpt>
      <trkpt lat="46.06138" lon="5.45881">
        <ele>351.2</ele>
        <time>2026-05-09T13:22:33Z</time>
      </trkpt>
      <trkpt lat="46.06138" lon="5.45883">
        <ele>351.6</ele>
        <time>2026-05-09T13:22:34Z</time>
      </trkpt>
      <trkpt lat="46.06138" lon="5.45885">
        <ele>351.6</ele>
        <time>2026-05-09T13:22:35Z</time>
      </trkpt>
      <trkpt lat="46.06137" lon="5.45888">
        <ele>352</ele>
        <time>2026-05-09T13:22:36Z</time>
      </trkpt>
      <trkpt lat="46.06136" lon="5.4589">
        <ele>352.2</ele>
        <time>2026-05-09T13:22:37Z</time>
      </trkpt>
      <trkpt lat="46.06134" lon="5.45892">
        <ele>352.2</ele>
        <time>2026-05-09T13:22:38Z</time>
      </trkpt>
      <trkpt lat="46.06134" lon="5.45895">
        <ele>352.4</ele>
        <time>2026-05-09T13:22:39Z</time>
      </trkpt>
      <trkpt lat="46.06133" lon="5.45898">
        <ele>352.4</ele>
        <time>2026-05-09T13:22:40Z</time>
      </trkpt>
      <trkpt lat="46.06133" lon="5.459">
        <ele>352.6</ele>
        <time>2026-05-09T13:22:41Z</time>
      </trkpt>
      <trkpt lat="46.06132" lon="5.45902">
        <ele>352.8</ele>
        <time>2026-05-09T13:22:42Z</time>
      </trkpt>
      <trkpt lat="46.06131" lon="5.45904">
        <ele>352.8</ele>
        <time>2026-05-09T13:22:43Z</time>
      </trkpt>
      <trkpt lat="46.0613" lon="5.45907">
        <ele>352.8</ele>
        <time>2026-05-09T13:22:44Z</time>
      </trkpt>
      <trkpt lat="46.06128" lon="5.45909">
        <ele>352.8</ele>
        <time>2026-05-09T13:22:45Z</time>
      </trkpt>
      <trkpt lat="46.06127" lon="5.45911">
        <ele>353.2</ele>
        <time>2026-05-09T13:22:46Z</time>
      </trkpt>
      <trkpt lat="46.06126" lon="5.45913">
        <ele>353.2</ele>
        <time>2026-05-09T13:22:47Z</time>
      </trkpt>
      <trkpt lat="46.06125" lon="5.45915">
        <ele>353.4</ele>
        <time>2026-05-09T13:22:48Z</time>
      </trkpt>
      <trkpt lat="46.06123" lon="5.45917">
        <ele>353.4</ele>
        <time>2026-05-09T13:22:49Z</time>
      </trkpt>
      <trkpt lat="46.06122" lon="5.45919">
        <ele>353.8</ele>
        <time>2026-05-09T13:22:50Z</time>
      </trkpt>
      <trkpt lat="46.06121" lon="5.45921">
        <ele>353.8</ele>
        <time>2026-05-09T13:22:51Z</time>
      </trkpt>
      <trkpt lat="46.0612" lon="5.45924">
        <ele>354.2</ele>
        <time>2026-05-09T13:22:52Z</time>
      </trkpt>
      <trkpt lat="46.06119" lon="5.45926">
        <ele>354.2</ele>
        <time>2026-05-09T13:22:53Z</time>
      </trkpt>
      <trkpt lat="46.06118" lon="5.45928">
        <ele>354.2</ele>
        <time>2026-05-09T13:22:54Z</time>
      </trkpt>
      <trkpt lat="46.06117" lon="5.4593">
        <ele>354.2</ele>
        <time>2026-05-09T13:22:55Z</time>
      </trkpt>
      <trkpt lat="46.06116" lon="5.45933">
        <ele>354.6</ele>
        <time>2026-05-09T13:22:56Z</time>
      </trkpt>
      <trkpt lat="46.06114" lon="5.45934">
        <ele>354.6</ele>
        <time>2026-05-09T13:22:57Z</time>
      </trkpt>
      <trkpt lat="46.06113" lon="5.45936">
        <ele>355</ele>
        <time>2026-05-09T13:22:58Z</time>
      </trkpt>
      <trkpt lat="46.06112" lon="5.45938">
        <ele>355</ele>
        <time>2026-05-09T13:22:59Z</time>
      </trkpt>
      <trkpt lat="46.06111" lon="5.4594">
        <ele>355.2</ele>
        <time>2026-05-09T13:23:00Z</time>
      </trkpt>
      <trkpt lat="46.06111" lon="5.45942">
        <ele>355.2</ele>
        <time>2026-05-09T13:23:01Z</time>
      </trkpt>
      <trkpt lat="46.06109" lon="5.45944">
        <ele>355.2</ele>
        <time>2026-05-09T13:23:02Z</time>
      </trkpt>
      <trkpt lat="46.06108" lon="5.45945">
        <ele>355.2</ele>
        <time>2026-05-09T13:23:03Z</time>
      </trkpt>
      <trkpt lat="46.06106" lon="5.45946">
        <ele>355.6</ele>
        <time>2026-05-09T13:23:04Z</time>
      </trkpt>
      <trkpt lat="46.06105" lon="5.45947">
        <ele>355.6</ele>
        <time>2026-05-09T13:23:05Z</time>
      </trkpt>
      <trkpt lat="46.06103" lon="5.45949">
        <ele>356</ele>
        <time>2026-05-09T13:23:06Z</time>
      </trkpt>
      <trkpt lat="46.06101" lon="5.4595">
        <ele>356</ele>
        <time>2026-05-09T13:23:07Z</time>
      </trkpt>
      <trkpt lat="46.06099" lon="5.45952">
        <ele>356.4</ele>
        <time>2026-05-09T13:23:08Z</time>
      </trkpt>
      <trkpt lat="46.06097" lon="5.45953">
        <ele>356.4</ele>
        <time>2026-05-09T13:23:09Z</time>
      </trkpt>
      <trkpt lat="46.06096" lon="5.45955">
        <ele>356.4</ele>
        <time>2026-05-09T13:23:10Z</time>
      </trkpt>
      <trkpt lat="46.06095" lon="5.45956">
        <ele>356.4</ele>
        <time>2026-05-09T13:23:11Z</time>
      </trkpt>
      <trkpt lat="46.06093" lon="5.45958">
        <ele>356.4</ele>
        <time>2026-05-09T13:23:12Z</time>
      </trkpt>
      <trkpt lat="46.06092" lon="5.4596">
        <ele>357</ele>
        <time>2026-05-09T13:23:13Z</time>
      </trkpt>
      <trkpt lat="46.06092" lon="5.4596">
        <ele>357</ele>
        <time>2026-05-09T13:23:14Z</time>
      </trkpt>
      <trkpt lat="46.06091" lon="5.45962">
        <ele>357</ele>
        <time>2026-05-09T13:23:15Z</time>
      </trkpt>
      <trkpt lat="46.0609" lon="5.45964">
        <ele>357.4</ele>
        <time>2026-05-09T13:23:16Z</time>
      </trkpt>
      <trkpt lat="46.06089" lon="5.45966">
        <ele>357.6</ele>
        <time>2026-05-09T13:23:17Z</time>
      </trkpt>
      <trkpt lat="46.06088" lon="5.45968">
        <ele>357.6</ele>
        <time>2026-05-09T13:23:18Z</time>
      </trkpt>
      <trkpt lat="46.06087" lon="5.4597">
        <ele>357.6</ele>
        <time>2026-05-09T13:23:19Z</time>
      </trkpt>
      <trkpt lat="46.06085" lon="5.45971">
        <ele>358</ele>
        <time>2026-05-09T13:23:20Z</time>
      </trkpt>
      <trkpt lat="46.06083" lon="5.45973">
        <ele>358.2</ele>
        <time>2026-05-09T13:23:21Z</time>
      </trkpt>
      <trkpt lat="46.06082" lon="5.45973">
        <ele>358.4</ele>
        <time>2026-05-09T13:23:22Z</time>
      </trkpt>
      <trkpt lat="46.06081" lon="5.45974">
        <ele>358.8</ele>
        <time>2026-05-09T13:23:23Z</time>
      </trkpt>
      <trkpt lat="46.06081" lon="5.45976">
        <ele>359</ele>
        <time>2026-05-09T13:23:24Z</time>
      </trkpt>
      <trkpt lat="46.0608" lon="5.45978">
        <ele>359</ele>
        <time>2026-05-09T13:23:25Z</time>
      </trkpt>
      <trkpt lat="46.0608" lon="5.4598">
        <ele>359.4</ele>
        <time>2026-05-09T13:23:26Z</time>
      </trkpt>
      <trkpt lat="46.06079" lon="5.45983">
        <ele>359.6</ele>
        <time>2026-05-09T13:23:27Z</time>
      </trkpt>
      <trkpt lat="46.06078" lon="5.45985">
        <ele>359.6</ele>
        <time>2026-05-09T13:23:28Z</time>
      </trkpt>
      <trkpt lat="46.06076" lon="5.45988">
        <ele>359.6</ele>
        <time>2026-05-09T13:23:29Z</time>
      </trkpt>
      <trkpt lat="46.06076" lon="5.4599">
        <ele>360</ele>
        <time>2026-05-09T13:23:30Z</time>
      </trkpt>
      <trkpt lat="46.06076" lon="5.45992">
        <ele>360</ele>
        <time>2026-05-09T13:23:31Z</time>
      </trkpt>
      <trkpt lat="46.06075" lon="5.45995">
        <ele>360.2</ele>
        <time>2026-05-09T13:23:32Z</time>
      </trkpt>
      <trkpt lat="46.06073" lon="5.45997">
        <ele>360.2</ele>
        <time>2026-05-09T13:23:33Z</time>
      </trkpt>
      <trkpt lat="46.06072" lon="5.45999">
        <ele>360.2</ele>
        <time>2026-05-09T13:23:34Z</time>
      </trkpt>
      <trkpt lat="46.06072" lon="5.46001">
        <ele>360.4</ele>
        <time>2026-05-09T13:23:35Z</time>
      </trkpt>
      <trkpt lat="46.06072" lon="5.46004">
        <ele>360.4</ele>
        <time>2026-05-09T13:23:36Z</time>
      </trkpt>
      <trkpt lat="46.06072" lon="5.46007">
        <ele>360.8</ele>
        <time>2026-05-09T13:23:37Z</time>
      </trkpt>
      <trkpt lat="46.06072" lon="5.46009">
        <ele>361</ele>
        <time>2026-05-09T13:23:38Z</time>
      </trkpt>
      <trkpt lat="46.06071" lon="5.46011">
        <ele>361</ele>
        <time>2026-05-09T13:23:39Z</time>
      </trkpt>
      <trkpt lat="46.06069" lon="5.46013">
        <ele>361</ele>
        <time>2026-05-09T13:23:40Z</time>
      </trkpt>
      <trkpt lat="46.06067" lon="5.46015">
        <ele>361</ele>
        <time>2026-05-09T13:23:41Z</time>
      </trkpt>
      <trkpt lat="46.06065" lon="5.46017">
        <ele>361.2</ele>
        <time>2026-05-09T13:23:42Z</time>
      </trkpt>
      <trkpt lat="46.06063" lon="5.46019">
        <ele>361.4</ele>
        <time>2026-05-09T13:23:43Z</time>
      </trkpt>
      <trkpt lat="46.06063" lon="5.46021">
        <ele>361.4</ele>
        <time>2026-05-09T13:23:44Z</time>
      </trkpt>
      <trkpt lat="46.06062" lon="5.46023">
        <ele>361.4</ele>
        <time>2026-05-09T13:23:45Z</time>
      </trkpt>
      <trkpt lat="46.06061" lon="5.46025">
        <ele>361.8</ele>
        <time>2026-05-09T13:23:46Z</time>
      </trkpt>
      <trkpt lat="46.0606" lon="5.46028">
        <ele>361.8</ele>
        <time>2026-05-09T13:23:47Z</time>
      </trkpt>
      <trkpt lat="46.06059" lon="5.4603">
        <ele>362.2</ele>
        <time>2026-05-09T13:23:48Z</time>
      </trkpt>
      <trkpt lat="46.0606" lon="5.46032">
        <ele>362.2</ele>
        <time>2026-05-09T13:23:49Z</time>
      </trkpt>
      <trkpt lat="46.0606" lon="5.46035">
        <ele>362.2</ele>
        <time>2026-05-09T13:23:50Z</time>
      </trkpt>
      <trkpt lat="46.0606" lon="5.46038">
        <ele>362.2</ele>
        <time>2026-05-09T13:23:51Z</time>
      </trkpt>
      <trkpt lat="46.06061" lon="5.46041">
        <ele>362.4</ele>
        <time>2026-05-09T13:23:52Z</time>
      </trkpt>
      <trkpt lat="46.06063" lon="5.46044">
        <ele>362.4</ele>
        <time>2026-05-09T13:23:53Z</time>
      </trkpt>
      <trkpt lat="46.06064" lon="5.46046">
        <ele>362.4</ele>
        <time>2026-05-09T13:23:54Z</time>
      </trkpt>
      <trkpt lat="46.06066" lon="5.46049">
        <ele>362.6</ele>
        <time>2026-05-09T13:23:55Z</time>
      </trkpt>
      <trkpt lat="46.06068" lon="5.46051">
        <ele>362.6</ele>
        <time>2026-05-09T13:23:56Z</time>
      </trkpt>
      <trkpt lat="46.06071" lon="5.46053">
        <ele>362.6</ele>
        <time>2026-05-09T13:23:57Z</time>
      </trkpt>
      <trkpt lat="46.06073" lon="5.46054">
        <ele>363</ele>
        <time>2026-05-09T13:23:58Z</time>
      </trkpt>
      <trkpt lat="46.06074" lon="5.46055">
        <ele>363.2</ele>
        <time>2026-05-09T13:23:59Z</time>
      </trkpt>
      <trkpt lat="46.06076" lon="5.46056">
        <ele>363.2</ele>
        <time>2026-05-09T13:24:00Z</time>
      </trkpt>
      <trkpt lat="46.06079" lon="5.46056">
        <ele>363.2</ele>
        <time>2026-05-09T13:24:01Z</time>
      </trkpt>
      <trkpt lat="46.06081" lon="5.46056">
        <ele>363.6</ele>
        <time>2026-05-09T13:24:02Z</time>
      </trkpt>
      <trkpt lat="46.06083" lon="5.46056">
        <ele>363.6</ele>
        <time>2026-05-09T13:24:03Z</time>
      </trkpt>
      <trkpt lat="46.06085" lon="5.46056">
        <ele>363.8</ele>
        <time>2026-05-09T13:24:04Z</time>
      </trkpt>
      <trkpt lat="46.06087" lon="5.46056">
        <ele>363.8</ele>
        <time>2026-05-09T13:24:05Z</time>
      </trkpt>
      <trkpt lat="46.06089" lon="5.46056">
        <ele>364.2</ele>
        <time>2026-05-09T13:24:06Z</time>
      </trkpt>
      <trkpt lat="46.06091" lon="5.46055">
        <ele>364.4</ele>
        <time>2026-05-09T13:24:07Z</time>
      </trkpt>
      <trkpt lat="46.06093" lon="5.46055">
        <ele>364.4</ele>
        <time>2026-05-09T13:24:08Z</time>
      </trkpt>
      <trkpt lat="46.06094" lon="5.46054">
        <ele>364.8</ele>
        <time>2026-05-09T13:24:09Z</time>
      </trkpt>
      <trkpt lat="46.06096" lon="5.46054">
        <ele>365</ele>
        <time>2026-05-09T13:24:10Z</time>
      </trkpt>
      <trkpt lat="46.06097" lon="5.46054">
        <ele>365</ele>
        <time>2026-05-09T13:24:11Z</time>
      </trkpt>
      <trkpt lat="46.06099" lon="5.46053">
        <ele>365.4</ele>
        <time>2026-05-09T13:24:12Z</time>
      </trkpt>
      <trkpt lat="46.06101" lon="5.46053">
        <ele>365.4</ele>
        <time>2026-05-09T13:24:13Z</time>
      </trkpt>
      <trkpt lat="46.06103" lon="5.46052">
        <ele>365.8</ele>
        <time>2026-05-09T13:24:14Z</time>
      </trkpt>
      <trkpt lat="46.06104" lon="5.46052">
        <ele>365.8</ele>
        <time>2026-05-09T13:24:15Z</time>
      </trkpt>
      <trkpt lat="46.06106" lon="5.46052">
        <ele>365.8</ele>
        <time>2026-05-09T13:24:16Z</time>
      </trkpt>
      <trkpt lat="46.06107" lon="5.46052">
        <ele>366</ele>
        <time>2026-05-09T13:24:17Z</time>
      </trkpt>
      <trkpt lat="46.06108" lon="5.46051">
        <ele>366</ele>
        <time>2026-05-09T13:24:18Z</time>
      </trkpt>
      <trkpt lat="46.06109" lon="5.46051">
        <ele>366.2</ele>
        <time>2026-05-09T13:24:19Z</time>
      </trkpt>
      <trkpt lat="46.06111" lon="5.46051">
        <ele>366.2</ele>
        <time>2026-05-09T13:24:20Z</time>
      </trkpt>
      <trkpt lat="46.06113" lon="5.46051">
        <ele>366.2</ele>
        <time>2026-05-09T13:24:21Z</time>
      </trkpt>
      <trkpt lat="46.06115" lon="5.46052">
        <ele>366.6</ele>
        <time>2026-05-09T13:24:22Z</time>
      </trkpt>
      <trkpt lat="46.06117" lon="5.46052">
        <ele>366.6</ele>
        <time>2026-05-09T13:24:23Z</time>
      </trkpt>
      <trkpt lat="46.06118" lon="5.46052">
        <ele>366.8</ele>
        <time>2026-05-09T13:24:24Z</time>
      </trkpt>
      <trkpt lat="46.0612" lon="5.46053">
        <ele>366.8</ele>
        <time>2026-05-09T13:24:25Z</time>
      </trkpt>
      <trkpt lat="46.06121" lon="5.46053">
        <ele>367.2</ele>
        <time>2026-05-09T13:24:26Z</time>
      </trkpt>
      <trkpt lat="46.06123" lon="5.46054">
        <ele>367.2</ele>
        <time>2026-05-09T13:24:27Z</time>
      </trkpt>
      <trkpt lat="46.06124" lon="5.46055">
        <ele>367.6</ele>
        <time>2026-05-09T13:24:28Z</time>
      </trkpt>
      <trkpt lat="46.06126" lon="5.46058">
        <ele>367.8</ele>
        <time>2026-05-09T13:24:29Z</time>
      </trkpt>
      <trkpt lat="46.06127" lon="5.46059">
        <ele>367.8</ele>
        <time>2026-05-09T13:24:30Z</time>
      </trkpt>
      <trkpt lat="46.06128" lon="5.46061">
        <ele>368.2</ele>
        <time>2026-05-09T13:24:31Z</time>
      </trkpt>
      <trkpt lat="46.0613" lon="5.46063">
        <ele>368.2</ele>
        <time>2026-05-09T13:24:32Z</time>
      </trkpt>
      <trkpt lat="46.06131" lon="5.46065">
        <ele>368.6</ele>
        <time>2026-05-09T13:24:33Z</time>
      </trkpt>
      <trkpt lat="46.06132" lon="5.46066">
        <ele>368.6</ele>
        <time>2026-05-09T13:24:34Z</time>
      </trkpt>
      <trkpt lat="46.06133" lon="5.46068">
        <ele>368.8</ele>
        <time>2026-05-09T13:24:35Z</time>
      </trkpt>
      <trkpt lat="46.06134" lon="5.46069">
        <ele>368.8</ele>
        <time>2026-05-09T13:24:36Z</time>
      </trkpt>
      <trkpt lat="46.06135" lon="5.4607">
        <ele>369.2</ele>
        <time>2026-05-09T13:24:37Z</time>
      </trkpt>
      <trkpt lat="46.06135" lon="5.46071">
        <ele>369.2</ele>
        <time>2026-05-09T13:24:38Z</time>
      </trkpt>
      <trkpt lat="46.06135" lon="5.46073">
        <ele>369.2</ele>
        <time>2026-05-09T13:24:39Z</time>
      </trkpt>
      <trkpt lat="46.06136" lon="5.46075">
        <ele>369.4</ele>
        <time>2026-05-09T13:24:40Z</time>
      </trkpt>
      <trkpt lat="46.06137" lon="5.46077">
        <ele>369.4</ele>
        <time>2026-05-09T13:24:41Z</time>
      </trkpt>
      <trkpt lat="46.06138" lon="5.46078">
        <ele>369.6</ele>
        <time>2026-05-09T13:24:42Z</time>
      </trkpt>
      <trkpt lat="46.06139" lon="5.46079">
        <ele>369.6</ele>
        <time>2026-05-09T13:24:43Z</time>
      </trkpt>
      <trkpt lat="46.06141" lon="5.46081">
        <ele>369.8</ele>
        <time>2026-05-09T13:24:44Z</time>
      </trkpt>
      <trkpt lat="46.06142" lon="5.46082">
        <ele>369.8</ele>
        <time>2026-05-09T13:24:45Z</time>
      </trkpt>
      <trkpt lat="46.06144" lon="5.46083">
        <ele>370.2</ele>
        <time>2026-05-09T13:24:46Z</time>
      </trkpt>
      <trkpt lat="46.06145" lon="5.46085">
        <ele>370.2</ele>
        <time>2026-05-09T13:24:47Z</time>
      </trkpt>
      <trkpt lat="46.06147" lon="5.46087">
        <ele>370.4</ele>
        <time>2026-05-09T13:24:48Z</time>
      </trkpt>
      <trkpt lat="46.06148" lon="5.46089">
        <ele>370.4</ele>
        <time>2026-05-09T13:24:49Z</time>
      </trkpt>
      <trkpt lat="46.06151" lon="5.46091">
        <ele>370.6</ele>
        <time>2026-05-09T13:24:50Z</time>
      </trkpt>
      <trkpt lat="46.06153" lon="5.46093">
        <ele>370.6</ele>
        <time>2026-05-09T13:24:51Z</time>
      </trkpt>
      <trkpt lat="46.06155" lon="5.46094">
        <ele>371</ele>
        <time>2026-05-09T13:24:52Z</time>
      </trkpt>
      <trkpt lat="46.06156" lon="5.46097">
        <ele>371</ele>
        <time>2026-05-09T13:24:53Z</time>
      </trkpt>
      <trkpt lat="46.06157" lon="5.46099">
        <ele>371</ele>
        <time>2026-05-09T13:24:54Z</time>
      </trkpt>
      <trkpt lat="46.06158" lon="5.46101">
        <ele>371</ele>
        <time>2026-05-09T13:24:55Z</time>
      </trkpt>
      <trkpt lat="46.06159" lon="5.46103">
        <ele>371.4</ele>
        <time>2026-05-09T13:24:56Z</time>
      </trkpt>
      <trkpt lat="46.06161" lon="5.46105">
        <ele>371.4</ele>
        <time>2026-05-09T13:24:57Z</time>
      </trkpt>
      <trkpt lat="46.06163" lon="5.46107">
        <ele>371.8</ele>
        <time>2026-05-09T13:24:58Z</time>
      </trkpt>
      <trkpt lat="46.06164" lon="5.46108">
        <ele>371.8</ele>
        <time>2026-05-09T13:24:59Z</time>
      </trkpt>
      <trkpt lat="46.06165" lon="5.4611">
        <ele>371.8</ele>
        <time>2026-05-09T13:25:00Z</time>
      </trkpt>
      <trkpt lat="46.06166" lon="5.46112">
        <ele>372</ele>
        <time>2026-05-09T13:25:01Z</time>
      </trkpt>
      <trkpt lat="46.06167" lon="5.46114">
        <ele>372</ele>
        <time>2026-05-09T13:25:02Z</time>
      </trkpt>
      <trkpt lat="46.06169" lon="5.46116">
        <ele>372.2</ele>
        <time>2026-05-09T13:25:03Z</time>
      </trkpt>
      <trkpt lat="46.0617" lon="5.46118">
        <ele>372.2</ele>
        <time>2026-05-09T13:25:04Z</time>
      </trkpt>
      <trkpt lat="46.06171" lon="5.46119">
        <ele>372.2</ele>
        <time>2026-05-09T13:25:05Z</time>
      </trkpt>
      <trkpt lat="46.06172" lon="5.46121">
        <ele>372.2</ele>
        <time>2026-05-09T13:25:06Z</time>
      </trkpt>
      <trkpt lat="46.06173" lon="5.46122">
        <ele>372.6</ele>
        <time>2026-05-09T13:25:07Z</time>
      </trkpt>
      <trkpt lat="46.06174" lon="5.46124">
        <ele>372.8</ele>
        <time>2026-05-09T13:25:08Z</time>
      </trkpt>
      <trkpt lat="46.06175" lon="5.46126">
        <ele>372.8</ele>
        <time>2026-05-09T13:25:09Z</time>
      </trkpt>
      <trkpt lat="46.06176" lon="5.46128">
        <ele>373.4</ele>
        <time>2026-05-09T13:25:10Z</time>
      </trkpt>
      <trkpt lat="46.06176" lon="5.4613">
        <ele>373.4</ele>
        <time>2026-05-09T13:25:11Z</time>
      </trkpt>
      <trkpt lat="46.06177" lon="5.46133">
        <ele>373.6</ele>
        <time>2026-05-09T13:25:12Z</time>
      </trkpt>
      <trkpt lat="46.06177" lon="5.46135">
        <ele>373.6</ele>
        <time>2026-05-09T13:25:13Z</time>
      </trkpt>
      <trkpt lat="46.06177" lon="5.46137">
        <ele>373.8</ele>
        <time>2026-05-09T13:25:14Z</time>
      </trkpt>
      <trkpt lat="46.06178" lon="5.46139">
        <ele>373.8</ele>
        <time>2026-05-09T13:25:15Z</time>
      </trkpt>
      <trkpt lat="46.06178" lon="5.46141">
        <ele>373.8</ele>
        <time>2026-05-09T13:25:16Z</time>
      </trkpt>
      <trkpt lat="46.06179" lon="5.46144">
        <ele>374.4</ele>
        <time>2026-05-09T13:25:17Z</time>
      </trkpt>
      <trkpt lat="46.0618" lon="5.46146">
        <ele>374.4</ele>
        <time>2026-05-09T13:25:18Z</time>
      </trkpt>
      <trkpt lat="46.0618" lon="5.46148">
        <ele>374.4</ele>
        <time>2026-05-09T13:25:19Z</time>
      </trkpt>
      <trkpt lat="46.0618" lon="5.46151">
        <ele>374.6</ele>
        <time>2026-05-09T13:25:20Z</time>
      </trkpt>
      <trkpt lat="46.0618" lon="5.46154">
        <ele>375</ele>
        <time>2026-05-09T13:25:21Z</time>
      </trkpt>
      <trkpt lat="46.0618" lon="5.46156">
        <ele>375</ele>
        <time>2026-05-09T13:25:22Z</time>
      </trkpt>
      <trkpt lat="46.06181" lon="5.46158">
        <ele>375.2</ele>
        <time>2026-05-09T13:25:23Z</time>
      </trkpt>
      <trkpt lat="46.06181" lon="5.46161">
        <ele>375.4</ele>
        <time>2026-05-09T13:25:24Z</time>
      </trkpt>
      <trkpt lat="46.06181" lon="5.46163">
        <ele>375.6</ele>
        <time>2026-05-09T13:25:25Z</time>
      </trkpt>
      <trkpt lat="46.06181" lon="5.46165">
        <ele>375.6</ele>
        <time>2026-05-09T13:25:26Z</time>
      </trkpt>
      <trkpt lat="46.06182" lon="5.46168">
        <ele>375.8</ele>
        <time>2026-05-09T13:25:27Z</time>
      </trkpt>
      <trkpt lat="46.06182" lon="5.4617">
        <ele>375.8</ele>
        <time>2026-05-09T13:25:28Z</time>
      </trkpt>
      <trkpt lat="46.06182" lon="5.46173">
        <ele>376.2</ele>
        <time>2026-05-09T13:25:29Z</time>
      </trkpt>
      <trkpt lat="46.06182" lon="5.46175">
        <ele>376.4</ele>
        <time>2026-05-09T13:25:30Z</time>
      </trkpt>
      <trkpt lat="46.06183" lon="5.46177">
        <ele>376.6</ele>
        <time>2026-05-09T13:25:31Z</time>
      </trkpt>
      <trkpt lat="46.06183" lon="5.46179">
        <ele>376.6</ele>
        <time>2026-05-09T13:25:32Z</time>
      </trkpt>
      <trkpt lat="46.06184" lon="5.46181">
        <ele>377</ele>
        <time>2026-05-09T13:25:33Z</time>
      </trkpt>
      <trkpt lat="46.06184" lon="5.46184">
        <ele>377</ele>
        <time>2026-05-09T13:25:34Z</time>
      </trkpt>
      <trkpt lat="46.06185" lon="5.46186">
        <ele>377.2</ele>
        <time>2026-05-09T13:25:35Z</time>
      </trkpt>
      <trkpt lat="46.06186" lon="5.46189">
        <ele>377.2</ele>
        <time>2026-05-09T13:25:36Z</time>
      </trkpt>
      <trkpt lat="46.06187" lon="5.46191">
        <ele>377.2</ele>
        <time>2026-05-09T13:25:37Z</time>
      </trkpt>
      <trkpt lat="46.06188" lon="5.46193">
        <ele>377.4</ele>
        <time>2026-05-09T13:25:38Z</time>
      </trkpt>
      <trkpt lat="46.06188" lon="5.46195">
        <ele>377.8</ele>
        <time>2026-05-09T13:25:39Z</time>
      </trkpt>
      <trkpt lat="46.06188" lon="5.46197">
        <ele>377.8</ele>
        <time>2026-05-09T13:25:40Z</time>
      </trkpt>
      <trkpt lat="46.06188" lon="5.462">
        <ele>378</ele>
        <time>2026-05-09T13:25:41Z</time>
      </trkpt>
      <trkpt lat="46.06188" lon="5.46202">
        <ele>378</ele>
        <time>2026-05-09T13:25:42Z</time>
      </trkpt>
      <trkpt lat="46.06188" lon="5.46204">
        <ele>378.2</ele>
        <time>2026-05-09T13:25:43Z</time>
      </trkpt>
      <trkpt lat="46.06189" lon="5.46207">
        <ele>378.2</ele>
        <time>2026-05-09T13:25:44Z</time>
      </trkpt>
      <trkpt lat="46.0619" lon="5.46209">
        <ele>378.6</ele>
        <time>2026-05-09T13:25:45Z</time>
      </trkpt>
      <trkpt lat="46.06191" lon="5.46211">
        <ele>378.6</ele>
        <time>2026-05-09T13:25:46Z</time>
      </trkpt>
      <trkpt lat="46.06192" lon="5.46214">
        <ele>378.8</ele>
        <time>2026-05-09T13:25:47Z</time>
      </trkpt>
      <trkpt lat="46.06193" lon="5.46216">
        <ele>378.8</ele>
        <time>2026-05-09T13:25:48Z</time>
      </trkpt>
      <trkpt lat="46.06195" lon="5.46219">
        <ele>379.2</ele>
        <time>2026-05-09T13:25:49Z</time>
      </trkpt>
      <trkpt lat="46.06196" lon="5.46221">
        <ele>379.2</ele>
        <time>2026-05-09T13:25:50Z</time>
      </trkpt>
      <trkpt lat="46.06197" lon="5.46223">
        <ele>379.4</ele>
        <time>2026-05-09T13:25:51Z</time>
      </trkpt>
      <trkpt lat="46.06198" lon="5.46225">
        <ele>379.4</ele>
        <time>2026-05-09T13:25:52Z</time>
      </trkpt>
      <trkpt lat="46.06199" lon="5.46227">
        <ele>379.6</ele>
        <time>2026-05-09T13:25:53Z</time>
      </trkpt>
      <trkpt lat="46.062" lon="5.46229">
        <ele>379.6</ele>
        <time>2026-05-09T13:25:54Z</time>
      </trkpt>
      <trkpt lat="46.06201" lon="5.4623">
        <ele>380</ele>
        <time>2026-05-09T13:25:55Z</time>
      </trkpt>
      <trkpt lat="46.06202" lon="5.46232">
        <ele>380</ele>
        <time>2026-05-09T13:25:56Z</time>
      </trkpt>
      <trkpt lat="46.06204" lon="5.46235">
        <ele>380.4</ele>
        <time>2026-05-09T13:25:57Z</time>
      </trkpt>
      <trkpt lat="46.06205" lon="5.46237">
        <ele>380.4</ele>
        <time>2026-05-09T13:25:58Z</time>
      </trkpt>
      <trkpt lat="46.06206" lon="5.46239">
        <ele>380.4</ele>
        <time>2026-05-09T13:25:59Z</time>
      </trkpt>
      <trkpt lat="46.06207" lon="5.46242">
        <ele>380.6</ele>
        <time>2026-05-09T13:26:00Z</time>
      </trkpt>
      <trkpt lat="46.06208" lon="5.46244">
        <ele>380.8</ele>
        <time>2026-05-09T13:26:01Z</time>
      </trkpt>
      <trkpt lat="46.06209" lon="5.46247">
        <ele>380.8</ele>
        <time>2026-05-09T13:26:02Z</time>
      </trkpt>
      <trkpt lat="46.0621" lon="5.46249">
        <ele>380.8</ele>
        <time>2026-05-09T13:26:03Z</time>
      </trkpt>
      <trkpt lat="46.06212" lon="5.46252">
        <ele>381</ele>
        <time>2026-05-09T13:26:04Z</time>
      </trkpt>
      <trkpt lat="46.06213" lon="5.46254">
        <ele>381</ele>
        <time>2026-05-09T13:26:05Z</time>
      </trkpt>
      <trkpt lat="46.06213" lon="5.46254">
        <ele>381</ele>
        <time>2026-05-09T13:26:06Z</time>
      </trkpt>
      <trkpt lat="46.06215" lon="5.46256">
        <ele>381.4</ele>
        <time>2026-05-09T13:26:07Z</time>
      </trkpt>
      <trkpt lat="46.06216" lon="5.46257">
        <ele>381.4</ele>
        <time>2026-05-09T13:26:08Z</time>
      </trkpt>
      <trkpt lat="46.06218" lon="5.46259">
        <ele>381.4</ele>
        <time>2026-05-09T13:26:09Z</time>
      </trkpt>
      <trkpt lat="46.0622" lon="5.46261">
        <ele>381.4</ele>
        <time>2026-05-09T13:26:10Z</time>
      </trkpt>
      <trkpt lat="46.06222" lon="5.46262">
        <ele>381.4</ele>
        <time>2026-05-09T13:26:11Z</time>
      </trkpt>
      <trkpt lat="46.06224" lon="5.46263">
        <ele>381.8</ele>
        <time>2026-05-09T13:26:12Z</time>
      </trkpt>
      <trkpt lat="46.06225" lon="5.46265">
        <ele>381.8</ele>
        <time>2026-05-09T13:26:13Z</time>
      </trkpt>
      <trkpt lat="46.06226" lon="5.46266">
        <ele>381.8</ele>
        <time>2026-05-09T13:26:14Z</time>
      </trkpt>
      <trkpt lat="46.06227" lon="5.46268">
        <ele>381.8</ele>
        <time>2026-05-09T13:26:15Z</time>
      </trkpt>
      <trkpt lat="46.06229" lon="5.4627">
        <ele>382.2</ele>
        <time>2026-05-09T13:26:16Z</time>
      </trkpt>
      <trkpt lat="46.06231" lon="5.46271">
        <ele>382.2</ele>
        <time>2026-05-09T13:26:17Z</time>
      </trkpt>
      <trkpt lat="46.06233" lon="5.46272">
        <ele>382.6</ele>
        <time>2026-05-09T13:26:18Z</time>
      </trkpt>
      <trkpt lat="46.06235" lon="5.46273">
        <ele>382.6</ele>
        <time>2026-05-09T13:26:19Z</time>
      </trkpt>
      <trkpt lat="46.06238" lon="5.46275">
        <ele>382.8</ele>
        <time>2026-05-09T13:26:20Z</time>
      </trkpt>
      <trkpt lat="46.0624" lon="5.46276">
        <ele>382.8</ele>
        <time>2026-05-09T13:26:21Z</time>
      </trkpt>
      <trkpt lat="46.06241" lon="5.46277">
        <ele>382.8</ele>
        <time>2026-05-09T13:26:22Z</time>
      </trkpt>
      <trkpt lat="46.06242" lon="5.46279">
        <ele>383.2</ele>
        <time>2026-05-09T13:26:23Z</time>
      </trkpt>
      <trkpt lat="46.06244" lon="5.46281">
        <ele>383.4</ele>
        <time>2026-05-09T13:26:24Z</time>
      </trkpt>
      <trkpt lat="46.06245" lon="5.46283">
        <ele>383.4</ele>
        <time>2026-05-09T13:26:25Z</time>
      </trkpt>
      <trkpt lat="46.06247" lon="5.46285">
        <ele>383.6</ele>
        <time>2026-05-09T13:26:26Z</time>
      </trkpt>
      <trkpt lat="46.06248" lon="5.46287">
        <ele>384</ele>
        <time>2026-05-09T13:26:27Z</time>
      </trkpt>
      <trkpt lat="46.06249" lon="5.4629">
        <ele>384</ele>
        <time>2026-05-09T13:26:28Z</time>
      </trkpt>
      <trkpt lat="46.06249" lon="5.46292">
        <ele>384.2</ele>
        <time>2026-05-09T13:26:29Z</time>
      </trkpt>
      <trkpt lat="46.0625" lon="5.46295">
        <ele>384.2</ele>
        <time>2026-05-09T13:26:30Z</time>
      </trkpt>
      <trkpt lat="46.0625" lon="5.46297">
        <ele>384.2</ele>
        <time>2026-05-09T13:26:31Z</time>
      </trkpt>
      <trkpt lat="46.06251" lon="5.463">
        <ele>384.4</ele>
        <time>2026-05-09T13:26:32Z</time>
      </trkpt>
      <trkpt lat="46.06251" lon="5.46303">
        <ele>384.4</ele>
        <time>2026-05-09T13:26:33Z</time>
      </trkpt>
      <trkpt lat="46.06251" lon="5.46305">
        <ele>384.4</ele>
        <time>2026-05-09T13:26:34Z</time>
      </trkpt>
      <trkpt lat="46.06251" lon="5.46308">
        <ele>384.8</ele>
        <time>2026-05-09T13:26:35Z</time>
      </trkpt>
      <trkpt lat="46.06251" lon="5.46311">
        <ele>384.8</ele>
        <time>2026-05-09T13:26:36Z</time>
      </trkpt>
      <trkpt lat="46.06251" lon="5.46314">
        <ele>385.2</ele>
        <time>2026-05-09T13:26:37Z</time>
      </trkpt>
      <trkpt lat="46.0625" lon="5.46316">
        <ele>385.4</ele>
        <time>2026-05-09T13:26:38Z</time>
      </trkpt>
      <trkpt lat="46.0625" lon="5.46319">
        <ele>386.2</ele>
        <time>2026-05-09T13:26:39Z</time>
      </trkpt>
      <trkpt lat="46.0625" lon="5.46322">
        <ele>386.2</ele>
        <time>2026-05-09T13:26:40Z</time>
      </trkpt>
      <trkpt lat="46.0625" lon="5.46325">
        <ele>386.4</ele>
        <time>2026-05-09T13:26:41Z</time>
      </trkpt>
      <trkpt lat="46.0625" lon="5.46327">
        <ele>386.6</ele>
        <time>2026-05-09T13:26:42Z</time>
      </trkpt>
      <trkpt lat="46.06249" lon="5.4633">
        <ele>386.6</ele>
        <time>2026-05-09T13:26:43Z</time>
      </trkpt>
      <trkpt lat="46.06249" lon="5.46333">
        <ele>386.8</ele>
        <time>2026-05-09T13:26:44Z</time>
      </trkpt>
      <trkpt lat="46.06248" lon="5.46335">
        <ele>386.8</ele>
        <time>2026-05-09T13:26:45Z</time>
      </trkpt>
      <trkpt lat="46.06248" lon="5.46338">
        <ele>387.2</ele>
        <time>2026-05-09T13:26:46Z</time>
      </trkpt>
      <trkpt lat="46.06248" lon="5.4634">
        <ele>387.2</ele>
        <time>2026-05-09T13:26:47Z</time>
      </trkpt>
      <trkpt lat="46.06247" lon="5.46343">
        <ele>387.6</ele>
        <time>2026-05-09T13:26:48Z</time>
      </trkpt>
      <trkpt lat="46.06247" lon="5.46346">
        <ele>387.6</ele>
        <time>2026-05-09T13:26:49Z</time>
      </trkpt>
      <trkpt lat="46.06246" lon="5.46349">
        <ele>387.6</ele>
        <time>2026-05-09T13:26:50Z</time>
      </trkpt>
      <trkpt lat="46.06246" lon="5.46351">
        <ele>387.8</ele>
        <time>2026-05-09T13:26:51Z</time>
      </trkpt>
      <trkpt lat="46.06245" lon="5.46354">
        <ele>388.2</ele>
        <time>2026-05-09T13:26:52Z</time>
      </trkpt>
      <trkpt lat="46.06245" lon="5.46356">
        <ele>388.2</ele>
        <time>2026-05-09T13:26:53Z</time>
      </trkpt>
      <trkpt lat="46.06244" lon="5.46359">
        <ele>388.4</ele>
        <time>2026-05-09T13:26:54Z</time>
      </trkpt>
      <trkpt lat="46.06243" lon="5.46361">
        <ele>388.4</ele>
        <time>2026-05-09T13:26:55Z</time>
      </trkpt>
      <trkpt lat="46.06241" lon="5.46364">
        <ele>388.8</ele>
        <time>2026-05-09T13:26:56Z</time>
      </trkpt>
      <trkpt lat="46.0624" lon="5.46366">
        <ele>388.8</ele>
        <time>2026-05-09T13:26:57Z</time>
      </trkpt>
      <trkpt lat="46.0624" lon="5.46369">
        <ele>388.8</ele>
        <time>2026-05-09T13:26:58Z</time>
      </trkpt>
      <trkpt lat="46.0624" lon="5.46371">
        <ele>389</ele>
        <time>2026-05-09T13:26:59Z</time>
      </trkpt>
      <trkpt lat="46.0624" lon="5.46374">
        <ele>389</ele>
        <time>2026-05-09T13:27:00Z</time>
      </trkpt>
      <trkpt lat="46.0624" lon="5.46376">
        <ele>389.2</ele>
        <time>2026-05-09T13:27:01Z</time>
      </trkpt>
      <trkpt lat="46.06239" lon="5.46379">
        <ele>389.2</ele>
        <time>2026-05-09T13:27:02Z</time>
      </trkpt>
      <trkpt lat="46.06239" lon="5.46381">
        <ele>389.6</ele>
        <time>2026-05-09T13:27:03Z</time>
      </trkpt>
      <trkpt lat="46.06239" lon="5.46383">
        <ele>389.6</ele>
        <time>2026-05-09T13:27:04Z</time>
      </trkpt>
      <trkpt lat="46.06238" lon="5.46385">
        <ele>389.6</ele>
        <time>2026-05-09T13:27:05Z</time>
      </trkpt>
      <trkpt lat="46.06238" lon="5.46388">
        <ele>389.8</ele>
        <time>2026-05-09T13:27:06Z</time>
      </trkpt>
      <trkpt lat="46.06237" lon="5.4639">
        <ele>389.8</ele>
        <time>2026-05-09T13:27:07Z</time>
      </trkpt>
      <trkpt lat="46.06236" lon="5.46392">
        <ele>390.2</ele>
        <time>2026-05-09T13:27:08Z</time>
      </trkpt>
      <trkpt lat="46.06236" lon="5.46394">
        <ele>390.4</ele>
        <time>2026-05-09T13:27:09Z</time>
      </trkpt>
      <trkpt lat="46.06236" lon="5.46396">
        <ele>390.4</ele>
        <time>2026-05-09T13:27:10Z</time>
      </trkpt>
      <trkpt lat="46.06237" lon="5.46398">
        <ele>390.4</ele>
        <time>2026-05-09T13:27:11Z</time>
      </trkpt>
      <trkpt lat="46.06237" lon="5.464">
        <ele>390.6</ele>
        <time>2026-05-09T13:27:12Z</time>
      </trkpt>
      <trkpt lat="46.06238" lon="5.46403">
        <ele>390.8</ele>
        <time>2026-05-09T13:27:13Z</time>
      </trkpt>
      <trkpt lat="46.06237" lon="5.46405">
        <ele>390.8</ele>
        <time>2026-05-09T13:27:14Z</time>
      </trkpt>
      <trkpt lat="46.06237" lon="5.46407">
        <ele>391</ele>
        <time>2026-05-09T13:27:15Z</time>
      </trkpt>
      <trkpt lat="46.06236" lon="5.46409">
        <ele>391</ele>
        <time>2026-05-09T13:27:16Z</time>
      </trkpt>
      <trkpt lat="46.06235" lon="5.46411">
        <ele>391</ele>
        <time>2026-05-09T13:27:17Z</time>
      </trkpt>
      <trkpt lat="46.06235" lon="5.46414">
        <ele>391.6</ele>
        <time>2026-05-09T13:27:18Z</time>
      </trkpt>
      <trkpt lat="46.06235" lon="5.46416">
        <ele>391.8</ele>
        <time>2026-05-09T13:27:19Z</time>
      </trkpt>
      <trkpt lat="46.06235" lon="5.46418">
        <ele>391.8</ele>
        <time>2026-05-09T13:27:20Z</time>
      </trkpt>
      <trkpt lat="46.06234" lon="5.46421">
        <ele>392</ele>
        <time>2026-05-09T13:27:21Z</time>
      </trkpt>
      <trkpt lat="46.06234" lon="5.46422">
        <ele>392</ele>
        <time>2026-05-09T13:27:22Z</time>
      </trkpt>
      <trkpt lat="46.06233" lon="5.46424">
        <ele>392</ele>
        <time>2026-05-09T13:27:23Z</time>
      </trkpt>
      <trkpt lat="46.06233" lon="5.46425">
        <ele>392.4</ele>
        <time>2026-05-09T13:27:24Z</time>
      </trkpt>
      <trkpt lat="46.06232" lon="5.46427">
        <ele>392.4</ele>
        <time>2026-05-09T13:27:25Z</time>
      </trkpt>
      <trkpt lat="46.06231" lon="5.46429">
        <ele>392.8</ele>
        <time>2026-05-09T13:27:26Z</time>
      </trkpt>
      <trkpt lat="46.0623" lon="5.46431">
        <ele>392.8</ele>
        <time>2026-05-09T13:27:27Z</time>
      </trkpt>
      <trkpt lat="46.06229" lon="5.46432">
        <ele>392.8</ele>
        <time>2026-05-09T13:27:28Z</time>
      </trkpt>
      <trkpt lat="46.06228" lon="5.46433">
        <ele>393</ele>
        <time>2026-05-09T13:27:29Z</time>
      </trkpt>
      <trkpt lat="46.06227" lon="5.46435">
        <ele>393.4</ele>
        <time>2026-05-09T13:27:30Z</time>
      </trkpt>
      <trkpt lat="46.06226" lon="5.46436">
        <ele>393.4</ele>
        <time>2026-05-09T13:27:31Z</time>
      </trkpt>
      <trkpt lat="46.06224" lon="5.46438">
        <ele>393.4</ele>
        <time>2026-05-09T13:27:32Z</time>
      </trkpt>
      <trkpt lat="46.06223" lon="5.4644">
        <ele>393.4</ele>
        <time>2026-05-09T13:27:33Z</time>
      </trkpt>
      <trkpt lat="46.06221" lon="5.46441">
        <ele>393.6</ele>
        <time>2026-05-09T13:27:34Z</time>
      </trkpt>
      <trkpt lat="46.0622" lon="5.46443">
        <ele>394</ele>
        <time>2026-05-09T13:27:35Z</time>
      </trkpt>
      <trkpt lat="46.06218" lon="5.46445">
        <ele>394.2</ele>
        <time>2026-05-09T13:27:36Z</time>
      </trkpt>
      <trkpt lat="46.06217" lon="5.46446">
        <ele>394.2</ele>
        <time>2026-05-09T13:27:37Z</time>
      </trkpt>
      <trkpt lat="46.06215" lon="5.46448">
        <ele>394.4</ele>
        <time>2026-05-09T13:27:38Z</time>
      </trkpt>
      <trkpt lat="46.06214" lon="5.46449">
        <ele>394.4</ele>
        <time>2026-05-09T13:27:39Z</time>
      </trkpt>
      <trkpt lat="46.06212" lon="5.46451">
        <ele>394.4</ele>
        <time>2026-05-09T13:27:40Z</time>
      </trkpt>
      <trkpt lat="46.06211" lon="5.46452">
        <ele>394.6</ele>
        <time>2026-05-09T13:27:41Z</time>
      </trkpt>
      <trkpt lat="46.06209" lon="5.46454">
        <ele>394.6</ele>
        <time>2026-05-09T13:27:42Z</time>
      </trkpt>
      <trkpt lat="46.06208" lon="5.46455">
        <ele>395</ele>
        <time>2026-05-09T13:27:43Z</time>
      </trkpt>
      <trkpt lat="46.06206" lon="5.46457">
        <ele>395</ele>
        <time>2026-05-09T13:27:44Z</time>
      </trkpt>
      <trkpt lat="46.06205" lon="5.46458">
        <ele>395.2</ele>
        <time>2026-05-09T13:27:45Z</time>
      </trkpt>
      <trkpt lat="46.06203" lon="5.4646">
        <ele>395.2</ele>
        <time>2026-05-09T13:27:46Z</time>
      </trkpt>
      <trkpt lat="46.06202" lon="5.46462">
        <ele>395.2</ele>
        <time>2026-05-09T13:27:47Z</time>
      </trkpt>
      <trkpt lat="46.06201" lon="5.46463">
        <ele>395.4</ele>
        <time>2026-05-09T13:27:48Z</time>
      </trkpt>
      <trkpt lat="46.06199" lon="5.46465">
        <ele>395.4</ele>
        <time>2026-05-09T13:27:49Z</time>
      </trkpt>
      <trkpt lat="46.06198" lon="5.46466">
        <ele>395.4</ele>
        <time>2026-05-09T13:27:50Z</time>
      </trkpt>
      <trkpt lat="46.06196" lon="5.46468">
        <ele>395.6</ele>
        <time>2026-05-09T13:27:51Z</time>
      </trkpt>
      <trkpt lat="46.06195" lon="5.46469">
        <ele>395.8</ele>
        <time>2026-05-09T13:27:52Z</time>
      </trkpt>
      <trkpt lat="46.06194" lon="5.4647">
        <ele>395.8</ele>
        <time>2026-05-09T13:27:53Z</time>
      </trkpt>
      <trkpt lat="46.06192" lon="5.46472">
        <ele>396.2</ele>
        <time>2026-05-09T13:27:54Z</time>
      </trkpt>
      <trkpt lat="46.06191" lon="5.46473">
        <ele>396.2</ele>
        <time>2026-05-09T13:27:55Z</time>
      </trkpt>
      <trkpt lat="46.0619" lon="5.46475">
        <ele>396.2</ele>
        <time>2026-05-09T13:27:56Z</time>
      </trkpt>
      <trkpt lat="46.06188" lon="5.46476">
        <ele>396.4</ele>
        <time>2026-05-09T13:27:57Z</time>
      </trkpt>
      <trkpt lat="46.06187" lon="5.46478">
        <ele>396.4</ele>
        <time>2026-05-09T13:27:58Z</time>
      </trkpt>
      <trkpt lat="46.06185" lon="5.46479">
        <ele>396.6</ele>
        <time>2026-05-09T13:27:59Z</time>
      </trkpt>
      <trkpt lat="46.06184" lon="5.46481">
        <ele>396.6</ele>
        <time>2026-05-09T13:28:00Z</time>
      </trkpt>
      <trkpt lat="46.06182" lon="5.46483">
        <ele>397</ele>
        <time>2026-05-09T13:28:01Z</time>
      </trkpt>
      <trkpt lat="46.06181" lon="5.46485">
        <ele>397</ele>
        <time>2026-05-09T13:28:02Z</time>
      </trkpt>
      <trkpt lat="46.06179" lon="5.46486">
        <ele>397.4</ele>
        <time>2026-05-09T13:28:03Z</time>
      </trkpt>
      <trkpt lat="46.06178" lon="5.46488">
        <ele>397.4</ele>
        <time>2026-05-09T13:28:04Z</time>
      </trkpt>
      <trkpt lat="46.06177" lon="5.4649">
        <ele>397.6</ele>
        <time>2026-05-09T13:28:05Z</time>
      </trkpt>
      <trkpt lat="46.06175" lon="5.46491">
        <ele>397.6</ele>
        <time>2026-05-09T13:28:06Z</time>
      </trkpt>
      <trkpt lat="46.06174" lon="5.46492">
        <ele>397.6</ele>
        <time>2026-05-09T13:28:07Z</time>
      </trkpt>
      <trkpt lat="46.06172" lon="5.46494">
        <ele>398</ele>
        <time>2026-05-09T13:28:08Z</time>
      </trkpt>
      <trkpt lat="46.06171" lon="5.46496">
        <ele>398.2</ele>
        <time>2026-05-09T13:28:09Z</time>
      </trkpt>
      <trkpt lat="46.06169" lon="5.46498">
        <ele>398.2</ele>
        <time>2026-05-09T13:28:10Z</time>
      </trkpt>
      <trkpt lat="46.06168" lon="5.46499">
        <ele>398.2</ele>
        <time>2026-05-09T13:28:11Z</time>
      </trkpt>
      <trkpt lat="46.06167" lon="5.46501">
        <ele>398.6</ele>
        <time>2026-05-09T13:28:12Z</time>
      </trkpt>
      <trkpt lat="46.06165" lon="5.46502">
        <ele>398.8</ele>
        <time>2026-05-09T13:28:13Z</time>
      </trkpt>
      <trkpt lat="46.06164" lon="5.46503">
        <ele>398.8</ele>
        <time>2026-05-09T13:28:14Z</time>
      </trkpt>
      <trkpt lat="46.06162" lon="5.46504">
        <ele>398.8</ele>
        <time>2026-05-09T13:28:15Z</time>
      </trkpt>
      <trkpt lat="46.0616" lon="5.46505">
        <ele>399.2</ele>
        <time>2026-05-09T13:28:16Z</time>
      </trkpt>
      <trkpt lat="46.06159" lon="5.46507">
        <ele>399.2</ele>
        <time>2026-05-09T13:28:17Z</time>
      </trkpt>
      <trkpt lat="46.06157" lon="5.46508">
        <ele>399.4</ele>
        <time>2026-05-09T13:28:18Z</time>
      </trkpt>
      <trkpt lat="46.06155" lon="5.46509">
        <ele>399.4</ele>
        <time>2026-05-09T13:28:19Z</time>
      </trkpt>
      <trkpt lat="46.06154" lon="5.46511">
        <ele>400</ele>
        <time>2026-05-09T13:28:20Z</time>
      </trkpt>
      <trkpt lat="46.06152" lon="5.46512">
        <ele>400.2</ele>
        <time>2026-05-09T13:28:21Z</time>
      </trkpt>
      <trkpt lat="46.0615" lon="5.46513">
        <ele>400.2</ele>
        <time>2026-05-09T13:28:22Z</time>
      </trkpt>
      <trkpt lat="46.06148" lon="5.46514">
        <ele>400.4</ele>
        <time>2026-05-09T13:28:23Z</time>
      </trkpt>
      <trkpt lat="46.06147" lon="5.46515">
        <ele>400.4</ele>
        <time>2026-05-09T13:28:24Z</time>
      </trkpt>
      <trkpt lat="46.06146" lon="5.46517">
        <ele>400.4</ele>
        <time>2026-05-09T13:28:25Z</time>
      </trkpt>
      <trkpt lat="46.06144" lon="5.46518">
        <ele>400.8</ele>
        <time>2026-05-09T13:28:26Z</time>
      </trkpt>
      <trkpt lat="46.06142" lon="5.46518">
        <ele>400.8</ele>
        <time>2026-05-09T13:28:27Z</time>
      </trkpt>
      <trkpt lat="46.06141" lon="5.46519">
        <ele>401</ele>
        <time>2026-05-09T13:28:28Z</time>
      </trkpt>
      <trkpt lat="46.0614" lon="5.4652">
        <ele>401</ele>
        <time>2026-05-09T13:28:29Z</time>
      </trkpt>
      <trkpt lat="46.06138" lon="5.46521">
        <ele>401.4</ele>
        <time>2026-05-09T13:28:30Z</time>
      </trkpt>
      <trkpt lat="46.06136" lon="5.46522">
        <ele>401.6</ele>
        <time>2026-05-09T13:28:31Z</time>
      </trkpt>
      <trkpt lat="46.06135" lon="5.46522">
        <ele>401.6</ele>
        <time>2026-05-09T13:28:32Z</time>
      </trkpt>
      <trkpt lat="46.06133" lon="5.46524">
        <ele>402</ele>
        <time>2026-05-09T13:28:33Z</time>
      </trkpt>
      <trkpt lat="46.06131" lon="5.46525">
        <ele>402</ele>
        <time>2026-05-09T13:28:34Z</time>
      </trkpt>
      <trkpt lat="46.0613" lon="5.46526">
        <ele>402.2</ele>
        <time>2026-05-09T13:28:35Z</time>
      </trkpt>
      <trkpt lat="46.06128" lon="5.46528">
        <ele>402.2</ele>
        <time>2026-05-09T13:28:36Z</time>
      </trkpt>
      <trkpt lat="46.06127" lon="5.4653">
        <ele>402.4</ele>
        <time>2026-05-09T13:28:37Z</time>
      </trkpt>
      <trkpt lat="46.06125" lon="5.46532">
        <ele>402.4</ele>
        <time>2026-05-09T13:28:38Z</time>
      </trkpt>
      <trkpt lat="46.06125" lon="5.46534">
        <ele>402.6</ele>
        <time>2026-05-09T13:28:39Z</time>
      </trkpt>
      <trkpt lat="46.06123" lon="5.46535">
        <ele>402.6</ele>
        <time>2026-05-09T13:28:40Z</time>
      </trkpt>
      <trkpt lat="46.06122" lon="5.46537">
        <ele>403</ele>
        <time>2026-05-09T13:28:41Z</time>
      </trkpt>
      <trkpt lat="46.0612" lon="5.46538">
        <ele>403</ele>
        <time>2026-05-09T13:28:42Z</time>
      </trkpt>
      <trkpt lat="46.06118" lon="5.4654">
        <ele>403.2</ele>
        <time>2026-05-09T13:28:43Z</time>
      </trkpt>
      <trkpt lat="46.06117" lon="5.46542">
        <ele>403.2</ele>
        <time>2026-05-09T13:28:44Z</time>
      </trkpt>
      <trkpt lat="46.06116" lon="5.46543">
        <ele>403.2</ele>
        <time>2026-05-09T13:28:45Z</time>
      </trkpt>
      <trkpt lat="46.06115" lon="5.46544">
        <ele>403.4</ele>
        <time>2026-05-09T13:28:46Z</time>
      </trkpt>
      <trkpt lat="46.06114" lon="5.46546">
        <ele>403.4</ele>
        <time>2026-05-09T13:28:47Z</time>
      </trkpt>
      <trkpt lat="46.06112" lon="5.46548">
        <ele>403.8</ele>
        <time>2026-05-09T13:28:48Z</time>
      </trkpt>
      <trkpt lat="46.06111" lon="5.46549">
        <ele>404</ele>
        <time>2026-05-09T13:28:49Z</time>
      </trkpt>
      <trkpt lat="46.06109" lon="5.4655">
        <ele>404</ele>
        <time>2026-05-09T13:28:50Z</time>
      </trkpt>
      <trkpt lat="46.06107" lon="5.46551">
        <ele>404.2</ele>
        <time>2026-05-09T13:28:51Z</time>
      </trkpt>
      <trkpt lat="46.06106" lon="5.46552">
        <ele>404.2</ele>
        <time>2026-05-09T13:28:52Z</time>
      </trkpt>
      <trkpt lat="46.06105" lon="5.46553">
        <ele>404.4</ele>
        <time>2026-05-09T13:28:53Z</time>
      </trkpt>
      <trkpt lat="46.06104" lon="5.46555">
        <ele>404.4</ele>
        <time>2026-05-09T13:28:54Z</time>
      </trkpt>
      <trkpt lat="46.06104" lon="5.46555">
        <ele>404.6</ele>
        <time>2026-05-09T13:28:55Z</time>
      </trkpt>
      <trkpt lat="46.06104" lon="5.46557">
        <ele>405</ele>
        <time>2026-05-09T13:28:56Z</time>
      </trkpt>
      <trkpt lat="46.06103" lon="5.46558">
        <ele>405</ele>
        <time>2026-05-09T13:28:57Z</time>
      </trkpt>
      <trkpt lat="46.06102" lon="5.4656">
        <ele>405.2</ele>
        <time>2026-05-09T13:28:58Z</time>
      </trkpt>
      <trkpt lat="46.06102" lon="5.46562">
        <ele>405.2</ele>
        <time>2026-05-09T13:28:59Z</time>
      </trkpt>
      <trkpt lat="46.06101" lon="5.46564">
        <ele>405.4</ele>
        <time>2026-05-09T13:29:00Z</time>
      </trkpt>
      <trkpt lat="46.061" lon="5.46566">
        <ele>405.4</ele>
        <time>2026-05-09T13:29:01Z</time>
      </trkpt>
      <trkpt lat="46.06099" lon="5.46568">
        <ele>405.8</ele>
        <time>2026-05-09T13:29:02Z</time>
      </trkpt>
      <trkpt lat="46.06098" lon="5.46569">
        <ele>405.8</ele>
        <time>2026-05-09T13:29:03Z</time>
      </trkpt>
      <trkpt lat="46.06097" lon="5.46572">
        <ele>406</ele>
        <time>2026-05-09T13:29:04Z</time>
      </trkpt>
      <trkpt lat="46.06096" lon="5.46574">
        <ele>406</ele>
        <time>2026-05-09T13:29:05Z</time>
      </trkpt>
      <trkpt lat="46.06095" lon="5.46576">
        <ele>406.2</ele>
        <time>2026-05-09T13:29:06Z</time>
      </trkpt>
      <trkpt lat="46.06093" lon="5.46578">
        <ele>406.4</ele>
        <time>2026-05-09T13:29:07Z</time>
      </trkpt>
      <trkpt lat="46.06091" lon="5.4658">
        <ele>406.6</ele>
        <time>2026-05-09T13:29:08Z</time>
      </trkpt>
      <trkpt lat="46.0609" lon="5.46582">
        <ele>406.8</ele>
        <time>2026-05-09T13:29:09Z</time>
      </trkpt>
      <trkpt lat="46.06088" lon="5.46583">
        <ele>406.8</ele>
        <time>2026-05-09T13:29:10Z</time>
      </trkpt>
      <trkpt lat="46.06087" lon="5.46584">
        <ele>407.2</ele>
        <time>2026-05-09T13:29:11Z</time>
      </trkpt>
      <trkpt lat="46.06086" lon="5.46584">
        <ele>407.2</ele>
        <time>2026-05-09T13:29:12Z</time>
      </trkpt>
      <trkpt lat="46.06085" lon="5.46585">
        <ele>407.6</ele>
        <time>2026-05-09T13:29:13Z</time>
      </trkpt>
      <trkpt lat="46.06084" lon="5.46586">
        <ele>407.8</ele>
        <time>2026-05-09T13:29:14Z</time>
      </trkpt>
      <trkpt lat="46.06083" lon="5.46586">
        <ele>408</ele>
        <time>2026-05-09T13:29:15Z</time>
      </trkpt>
      <trkpt lat="46.06081" lon="5.46586">
        <ele>408</ele>
        <time>2026-05-09T13:29:16Z</time>
      </trkpt>
      <trkpt lat="46.0608" lon="5.46585">
        <ele>408</ele>
        <time>2026-05-09T13:29:17Z</time>
      </trkpt>
      <trkpt lat="46.0608" lon="5.46584">
        <ele>408</ele>
        <time>2026-05-09T13:29:18Z</time>
      </trkpt>
      <trkpt lat="46.06079" lon="5.46582">
        <ele>408.4</ele>
        <time>2026-05-09T13:29:19Z</time>
      </trkpt>
      <trkpt lat="46.06078" lon="5.4658">
        <ele>408.4</ele>
        <time>2026-05-09T13:29:20Z</time>
      </trkpt>
      <trkpt lat="46.06078" lon="5.46578">
        <ele>408.6</ele>
        <time>2026-05-09T13:29:21Z</time>
      </trkpt>
      <trkpt lat="46.06079" lon="5.46576">
        <ele>409</ele>
        <time>2026-05-09T13:29:22Z</time>
      </trkpt>
      <trkpt lat="46.06079" lon="5.46573">
        <ele>409</ele>
        <time>2026-05-09T13:29:23Z</time>
      </trkpt>
      <trkpt lat="46.06079" lon="5.46571">
        <ele>409.2</ele>
        <time>2026-05-09T13:29:24Z</time>
      </trkpt>
      <trkpt lat="46.0608" lon="5.46568">
        <ele>409.2</ele>
        <time>2026-05-09T13:29:25Z</time>
      </trkpt>
      <trkpt lat="46.0608" lon="5.46566">
        <ele>409.6</ele>
        <time>2026-05-09T13:29:26Z</time>
      </trkpt>
      <trkpt lat="46.06082" lon="5.46564">
        <ele>409.6</ele>
        <time>2026-05-09T13:29:27Z</time>
      </trkpt>
      <trkpt lat="46.06084" lon="5.46562">
        <ele>409.6</ele>
        <time>2026-05-09T13:29:28Z</time>
      </trkpt>
      <trkpt lat="46.06085" lon="5.4656">
        <ele>409.8</ele>
        <time>2026-05-09T13:29:29Z</time>
      </trkpt>
      <trkpt lat="46.06087" lon="5.46557">
        <ele>409.8</ele>
        <time>2026-05-09T13:29:30Z</time>
      </trkpt>
      <trkpt lat="46.06089" lon="5.46554">
        <ele>409.8</ele>
        <time>2026-05-09T13:29:31Z</time>
      </trkpt>
      <trkpt lat="46.0609" lon="5.46552">
        <ele>410.2</ele>
        <time>2026-05-09T13:29:32Z</time>
      </trkpt>
      <trkpt lat="46.06091" lon="5.46549">
        <ele>410.2</ele>
        <time>2026-05-09T13:29:33Z</time>
      </trkpt>
      <trkpt lat="46.06092" lon="5.46546">
        <ele>410.4</ele>
        <time>2026-05-09T13:29:34Z</time>
      </trkpt>
      <trkpt lat="46.06092" lon="5.46544">
        <ele>410.4</ele>
        <time>2026-05-09T13:29:35Z</time>
      </trkpt>
      <trkpt lat="46.06093" lon="5.46541">
        <ele>410.4</ele>
        <time>2026-05-09T13:29:36Z</time>
      </trkpt>
      <trkpt lat="46.06093" lon="5.46537">
        <ele>410.8</ele>
        <time>2026-05-09T13:29:37Z</time>
      </trkpt>
      <trkpt lat="46.06093" lon="5.46534">
        <ele>410.8</ele>
        <time>2026-05-09T13:29:38Z</time>
      </trkpt>
      <trkpt lat="46.06093" lon="5.46531">
        <ele>411</ele>
        <time>2026-05-09T13:29:39Z</time>
      </trkpt>
      <trkpt lat="46.06093" lon="5.4653">
        <ele>411.4</ele>
        <time>2026-05-09T13:29:40Z</time>
      </trkpt>
      <trkpt lat="46.06092" lon="5.46527">
        <ele>411.4</ele>
        <time>2026-05-09T13:29:41Z</time>
      </trkpt>
      <trkpt lat="46.06092" lon="5.46524">
        <ele>411.4</ele>
        <time>2026-05-09T13:29:42Z</time>
      </trkpt>
      <trkpt lat="46.06093" lon="5.46522">
        <ele>411.4</ele>
        <time>2026-05-09T13:29:43Z</time>
      </trkpt>
      <trkpt lat="46.06095" lon="5.46519">
        <ele>411.8</ele>
        <time>2026-05-09T13:29:44Z</time>
      </trkpt>
      <trkpt lat="46.06097" lon="5.46516">
        <ele>411.8</ele>
        <time>2026-05-09T13:29:45Z</time>
      </trkpt>
      <trkpt lat="46.06098" lon="5.46514">
        <ele>412</ele>
        <time>2026-05-09T13:29:46Z</time>
      </trkpt>
      <trkpt lat="46.06099" lon="5.46511">
        <ele>412.2</ele>
        <time>2026-05-09T13:29:47Z</time>
      </trkpt>
      <trkpt lat="46.06099" lon="5.46509">
        <ele>412.2</ele>
        <time>2026-05-09T13:29:48Z</time>
      </trkpt>
      <trkpt lat="46.061" lon="5.46507">
        <ele>412.2</ele>
        <time>2026-05-09T13:29:49Z</time>
      </trkpt>
      <trkpt lat="46.06102" lon="5.46504">
        <ele>412.6</ele>
        <time>2026-05-09T13:29:50Z</time>
      </trkpt>
      <trkpt lat="46.06103" lon="5.46501">
        <ele>412.6</ele>
        <time>2026-05-09T13:29:51Z</time>
      </trkpt>
      <trkpt lat="46.06104" lon="5.46499">
        <ele>412.8</ele>
        <time>2026-05-09T13:29:52Z</time>
      </trkpt>
      <trkpt lat="46.06104" lon="5.46496">
        <ele>413</ele>
        <time>2026-05-09T13:29:53Z</time>
      </trkpt>
      <trkpt lat="46.06104" lon="5.46494">
        <ele>413</ele>
        <time>2026-05-09T13:29:54Z</time>
      </trkpt>
      <trkpt lat="46.06103" lon="5.46492">
        <ele>413.2</ele>
        <time>2026-05-09T13:29:55Z</time>
      </trkpt>
      <trkpt lat="46.06104" lon="5.4649">
        <ele>413.2</ele>
        <time>2026-05-09T13:29:56Z</time>
      </trkpt>
      <trkpt lat="46.06105" lon="5.46487">
        <ele>413.2</ele>
        <time>2026-05-09T13:29:57Z</time>
      </trkpt>
      <trkpt lat="46.06106" lon="5.46486">
        <ele>413.4</ele>
        <time>2026-05-09T13:29:58Z</time>
      </trkpt>
      <trkpt lat="46.06108" lon="5.46484">
        <ele>413.4</ele>
        <time>2026-05-09T13:29:59Z</time>
      </trkpt>
      <trkpt lat="46.06109" lon="5.46482">
        <ele>413.8</ele>
        <time>2026-05-09T13:30:00Z</time>
      </trkpt>
      <trkpt lat="46.0611" lon="5.4648">
        <ele>413.8</ele>
        <time>2026-05-09T13:30:01Z</time>
      </trkpt>
      <trkpt lat="46.06111" lon="5.46478">
        <ele>413.8</ele>
        <time>2026-05-09T13:30:02Z</time>
      </trkpt>
      <trkpt lat="46.06112" lon="5.46476">
        <ele>414.2</ele>
        <time>2026-05-09T13:30:03Z</time>
      </trkpt>
      <trkpt lat="46.06113" lon="5.46474">
        <ele>414.2</ele>
        <time>2026-05-09T13:30:04Z</time>
      </trkpt>
      <trkpt lat="46.06116" lon="5.4647">
        <ele>414.4</ele>
        <time>2026-05-09T13:30:05Z</time>
      </trkpt>
      <trkpt lat="46.06117" lon="5.46469">
        <ele>414.4</ele>
        <time>2026-05-09T13:30:06Z</time>
      </trkpt>
      <trkpt lat="46.06119" lon="5.46467">
        <ele>414.6</ele>
        <time>2026-05-09T13:30:07Z</time>
      </trkpt>
      <trkpt lat="46.0612" lon="5.46465">
        <ele>414.8</ele>
        <time>2026-05-09T13:30:08Z</time>
      </trkpt>
      <trkpt lat="46.06121" lon="5.46462">
        <ele>414.8</ele>
        <time>2026-05-09T13:30:09Z</time>
      </trkpt>
      <trkpt lat="46.06122" lon="5.46459">
        <ele>415.2</ele>
        <time>2026-05-09T13:30:10Z</time>
      </trkpt>
      <trkpt lat="46.06123" lon="5.46457">
        <ele>415.2</ele>
        <time>2026-05-09T13:30:11Z</time>
      </trkpt>
      <trkpt lat="46.06124" lon="5.46455">
        <ele>415.4</ele>
        <time>2026-05-09T13:30:12Z</time>
      </trkpt>
      <trkpt lat="46.06124" lon="5.46452">
        <ele>415.4</ele>
        <time>2026-05-09T13:30:13Z</time>
      </trkpt>
      <trkpt lat="46.06124" lon="5.46449">
        <ele>415.6</ele>
        <time>2026-05-09T13:30:14Z</time>
      </trkpt>
      <trkpt lat="46.06125" lon="5.46447">
        <ele>415.6</ele>
        <time>2026-05-09T13:30:15Z</time>
      </trkpt>
      <trkpt lat="46.06126" lon="5.46444">
        <ele>415.8</ele>
        <time>2026-05-09T13:30:16Z</time>
      </trkpt>
      <trkpt lat="46.06127" lon="5.46442">
        <ele>415.8</ele>
        <time>2026-05-09T13:30:17Z</time>
      </trkpt>
      <trkpt lat="46.06128" lon="5.46439">
        <ele>415.8</ele>
        <time>2026-05-09T13:30:18Z</time>
      </trkpt>
      <trkpt lat="46.06129" lon="5.46437">
        <ele>416</ele>
        <time>2026-05-09T13:30:19Z</time>
      </trkpt>
      <trkpt lat="46.0613" lon="5.46435">
        <ele>416.4</ele>
        <time>2026-05-09T13:30:20Z</time>
      </trkpt>
      <trkpt lat="46.0613" lon="5.46433">
        <ele>416.4</ele>
        <time>2026-05-09T13:30:21Z</time>
      </trkpt>
      <trkpt lat="46.06131" lon="5.4643">
        <ele>416.6</ele>
        <time>2026-05-09T13:30:22Z</time>
      </trkpt>
      <trkpt lat="46.06131" lon="5.46428">
        <ele>416.6</ele>
        <time>2026-05-09T13:30:23Z</time>
      </trkpt>
      <trkpt lat="46.06133" lon="5.46425">
        <ele>417</ele>
        <time>2026-05-09T13:30:24Z</time>
      </trkpt>
      <trkpt lat="46.06134" lon="5.46423">
        <ele>417.2</ele>
        <time>2026-05-09T13:30:25Z</time>
      </trkpt>
      <trkpt lat="46.06134" lon="5.46421">
        <ele>417.2</ele>
        <time>2026-05-09T13:30:26Z</time>
      </trkpt>
      <trkpt lat="46.06135" lon="5.46419">
        <ele>417.6</ele>
        <time>2026-05-09T13:30:27Z</time>
      </trkpt>
      <trkpt lat="46.06136" lon="5.46417">
        <ele>417.6</ele>
        <time>2026-05-09T13:30:28Z</time>
      </trkpt>
      <trkpt lat="46.06137" lon="5.46414">
        <ele>417.6</ele>
        <time>2026-05-09T13:30:29Z</time>
      </trkpt>
      <trkpt lat="46.06138" lon="5.46412">
        <ele>418</ele>
        <time>2026-05-09T13:30:30Z</time>
      </trkpt>
      <trkpt lat="46.06139" lon="5.4641">
        <ele>418</ele>
        <time>2026-05-09T13:30:31Z</time>
      </trkpt>
      <trkpt lat="46.06139" lon="5.46408">
        <ele>418.2</ele>
        <time>2026-05-09T13:30:32Z</time>
      </trkpt>
      <trkpt lat="46.0614" lon="5.46405">
        <ele>418.2</ele>
        <time>2026-05-09T13:30:33Z</time>
      </trkpt>
      <trkpt lat="46.06141" lon="5.46403">
        <ele>418.6</ele>
        <time>2026-05-09T13:30:34Z</time>
      </trkpt>
      <trkpt lat="46.06141" lon="5.46401">
        <ele>418.6</ele>
        <time>2026-05-09T13:30:35Z</time>
      </trkpt>
      <trkpt lat="46.06141" lon="5.46398">
        <ele>419</ele>
        <time>2026-05-09T13:30:36Z</time>
      </trkpt>
      <trkpt lat="46.06142" lon="5.46396">
        <ele>419</ele>
        <time>2026-05-09T13:30:37Z</time>
      </trkpt>
      <trkpt lat="46.06142" lon="5.46393">
        <ele>419.2</ele>
        <time>2026-05-09T13:30:38Z</time>
      </trkpt>
      <trkpt lat="46.06143" lon="5.46391">
        <ele>419.2</ele>
        <time>2026-05-09T13:30:39Z</time>
      </trkpt>
      <trkpt lat="46.06143" lon="5.46388">
        <ele>419.2</ele>
        <time>2026-05-09T13:30:40Z</time>
      </trkpt>
      <trkpt lat="46.06143" lon="5.46385">
        <ele>419.2</ele>
        <time>2026-05-09T13:30:41Z</time>
      </trkpt>
      <trkpt lat="46.06144" lon="5.46382">
        <ele>419.4</ele>
        <time>2026-05-09T13:30:42Z</time>
      </trkpt>
      <trkpt lat="46.06144" lon="5.4638">
        <ele>419.4</ele>
        <time>2026-05-09T13:30:43Z</time>
      </trkpt>
      <trkpt lat="46.06145" lon="5.46377">
        <ele>419.8</ele>
        <time>2026-05-09T13:30:44Z</time>
      </trkpt>
      <trkpt lat="46.06145" lon="5.46375">
        <ele>419.8</ele>
        <time>2026-05-09T13:30:45Z</time>
      </trkpt>
      <trkpt lat="46.06145" lon="5.46373">
        <ele>420</ele>
        <time>2026-05-09T13:30:46Z</time>
      </trkpt>
      <trkpt lat="46.06145" lon="5.4637">
        <ele>420</ele>
        <time>2026-05-09T13:30:47Z</time>
      </trkpt>
      <trkpt lat="46.06145" lon="5.46368">
        <ele>420</ele>
        <time>2026-05-09T13:30:48Z</time>
      </trkpt>
      <trkpt lat="46.06144" lon="5.46365">
        <ele>420.2</ele>
        <time>2026-05-09T13:30:49Z</time>
      </trkpt>
      <trkpt lat="46.06144" lon="5.46363">
        <ele>420.2</ele>
        <time>2026-05-09T13:30:50Z</time>
      </trkpt>
      <trkpt lat="46.06144" lon="5.46361">
        <ele>420.2</ele>
        <time>2026-05-09T13:30:51Z</time>
      </trkpt>
      <trkpt lat="46.06143" lon="5.46358">
        <ele>420.6</ele>
        <time>2026-05-09T13:30:52Z</time>
      </trkpt>
      <trkpt lat="46.06143" lon="5.46355">
        <ele>420.6</ele>
        <time>2026-05-09T13:30:53Z</time>
      </trkpt>
      <trkpt lat="46.06142" lon="5.46353">
        <ele>420.8</ele>
        <time>2026-05-09T13:30:54Z</time>
      </trkpt>
      <trkpt lat="46.06142" lon="5.46351">
        <ele>420.8</ele>
        <time>2026-05-09T13:30:55Z</time>
      </trkpt>
      <trkpt lat="46.06142" lon="5.46349">
        <ele>421.2</ele>
        <time>2026-05-09T13:30:56Z</time>
      </trkpt>
      <trkpt lat="46.06142" lon="5.46346">
        <ele>421.4</ele>
        <time>2026-05-09T13:30:57Z</time>
      </trkpt>
      <trkpt lat="46.06143" lon="5.46344">
        <ele>421.4</ele>
        <time>2026-05-09T13:30:58Z</time>
      </trkpt>
      <trkpt lat="46.06142" lon="5.46342">
        <ele>421.4</ele>
        <time>2026-05-09T13:30:59Z</time>
      </trkpt>
      <trkpt lat="46.06141" lon="5.46339">
        <ele>421.8</ele>
        <time>2026-05-09T13:31:00Z</time>
      </trkpt>
      <trkpt lat="46.06141" lon="5.46336">
        <ele>421.8</ele>
        <time>2026-05-09T13:31:01Z</time>
      </trkpt>
      <trkpt lat="46.0614" lon="5.46334">
        <ele>422</ele>
        <time>2026-05-09T13:31:02Z</time>
      </trkpt>
      <trkpt lat="46.06139" lon="5.46331">
        <ele>422</ele>
        <time>2026-05-09T13:31:03Z</time>
      </trkpt>
      <trkpt lat="46.06138" lon="5.46329">
        <ele>422.2</ele>
        <time>2026-05-09T13:31:04Z</time>
      </trkpt>
      <trkpt lat="46.06138" lon="5.46328">
        <ele>422.2</ele>
        <time>2026-05-09T13:31:05Z</time>
      </trkpt>
      <trkpt lat="46.06137" lon="5.46327">
        <ele>422.4</ele>
        <time>2026-05-09T13:31:06Z</time>
      </trkpt>
      <trkpt lat="46.06136" lon="5.46324">
        <ele>422.4</ele>
        <time>2026-05-09T13:31:07Z</time>
      </trkpt>
      <trkpt lat="46.06135" lon="5.46322">
        <ele>422.6</ele>
        <time>2026-05-09T13:31:08Z</time>
      </trkpt>
      <trkpt lat="46.06135" lon="5.46319">
        <ele>422.6</ele>
        <time>2026-05-09T13:31:09Z</time>
      </trkpt>
      <trkpt lat="46.06134" lon="5.46317">
        <ele>423</ele>
        <time>2026-05-09T13:31:10Z</time>
      </trkpt>
      <trkpt lat="46.06134" lon="5.46315">
        <ele>423</ele>
        <time>2026-05-09T13:31:11Z</time>
      </trkpt>
      <trkpt lat="46.06132" lon="5.46313">
        <ele>423</ele>
        <time>2026-05-09T13:31:12Z</time>
      </trkpt>
      <trkpt lat="46.06132" lon="5.46312">
        <ele>423.4</ele>
        <time>2026-05-09T13:31:13Z</time>
      </trkpt>
      <trkpt lat="46.06131" lon="5.4631">
        <ele>423.4</ele>
        <time>2026-05-09T13:31:14Z</time>
      </trkpt>
      <trkpt lat="46.0613" lon="5.46309">
        <ele>423.4</ele>
        <time>2026-05-09T13:31:15Z</time>
      </trkpt>
      <trkpt lat="46.06129" lon="5.46307">
        <ele>423.4</ele>
        <time>2026-05-09T13:31:16Z</time>
      </trkpt>
      <trkpt lat="46.06128" lon="5.46305">
        <ele>423.6</ele>
        <time>2026-05-09T13:31:17Z</time>
      </trkpt>
      <trkpt lat="46.06126" lon="5.46303">
        <ele>423.6</ele>
        <time>2026-05-09T13:31:18Z</time>
      </trkpt>
      <trkpt lat="46.06125" lon="5.46302">
        <ele>423.8</ele>
        <time>2026-05-09T13:31:19Z</time>
      </trkpt>
      <trkpt lat="46.06124" lon="5.463">
        <ele>423.8</ele>
        <time>2026-05-09T13:31:20Z</time>
      </trkpt>
      <trkpt lat="46.06123" lon="5.46299">
        <ele>423.8</ele>
        <time>2026-05-09T13:31:21Z</time>
      </trkpt>
      <trkpt lat="46.06122" lon="5.46298">
        <ele>424.2</ele>
        <time>2026-05-09T13:31:22Z</time>
      </trkpt>
      <trkpt lat="46.06122" lon="5.46296">
        <ele>424.2</ele>
        <time>2026-05-09T13:31:23Z</time>
      </trkpt>
      <trkpt lat="46.06121" lon="5.46295">
        <ele>424.2</ele>
        <time>2026-05-09T13:31:24Z</time>
      </trkpt>
      <trkpt lat="46.06119" lon="5.46293">
        <ele>424.2</ele>
        <time>2026-05-09T13:31:25Z</time>
      </trkpt>
      <trkpt lat="46.06118" lon="5.46291">
        <ele>424.4</ele>
        <time>2026-05-09T13:31:26Z</time>
      </trkpt>
      <trkpt lat="46.06117" lon="5.4629">
        <ele>424.4</ele>
        <time>2026-05-09T13:31:27Z</time>
      </trkpt>
      <trkpt lat="46.06116" lon="5.46288">
        <ele>424.8</ele>
        <time>2026-05-09T13:31:28Z</time>
      </trkpt>
      <trkpt lat="46.06114" lon="5.46287">
        <ele>424.8</ele>
        <time>2026-05-09T13:31:29Z</time>
      </trkpt>
      <trkpt lat="46.06112" lon="5.46286">
        <ele>425.2</ele>
        <time>2026-05-09T13:31:30Z</time>
      </trkpt>
      <trkpt lat="46.06111" lon="5.46284">
        <ele>425.2</ele>
        <time>2026-05-09T13:31:31Z</time>
      </trkpt>
      <trkpt lat="46.06109" lon="5.46283">
        <ele>425.2</ele>
        <time>2026-05-09T13:31:32Z</time>
      </trkpt>
      <trkpt lat="46.06109" lon="5.46283">
        <ele>425.2</ele>
        <time>2026-05-09T13:31:33Z</time>
      </trkpt>
      <trkpt lat="46.06108" lon="5.46281">
        <ele>425.4</ele>
        <time>2026-05-09T13:31:34Z</time>
      </trkpt>
      <trkpt lat="46.06107" lon="5.4628">
        <ele>425.4</ele>
        <time>2026-05-09T13:31:35Z</time>
      </trkpt>
      <trkpt lat="46.06106" lon="5.46279">
        <ele>425.8</ele>
        <time>2026-05-09T13:31:36Z</time>
      </trkpt>
      <trkpt lat="46.06104" lon="5.46277">
        <ele>425.8</ele>
        <time>2026-05-09T13:31:37Z</time>
      </trkpt>
      <trkpt lat="46.06102" lon="5.46276">
        <ele>425.8</ele>
        <time>2026-05-09T13:31:38Z</time>
      </trkpt>
      <trkpt lat="46.06101" lon="5.46274">
        <ele>426</ele>
        <time>2026-05-09T13:31:39Z</time>
      </trkpt>
      <trkpt lat="46.06099" lon="5.46273">
        <ele>426</ele>
        <time>2026-05-09T13:31:40Z</time>
      </trkpt>
      <trkpt lat="46.06097" lon="5.46272">
        <ele>426.2</ele>
        <time>2026-05-09T13:31:41Z</time>
      </trkpt>
      <trkpt lat="46.06095" lon="5.46272">
        <ele>426.2</ele>
        <time>2026-05-09T13:31:42Z</time>
      </trkpt>
      <trkpt lat="46.06094" lon="5.46271">
        <ele>426.2</ele>
        <time>2026-05-09T13:31:43Z</time>
      </trkpt>
      <trkpt lat="46.06092" lon="5.46271">
        <ele>426.4</ele>
        <time>2026-05-09T13:31:44Z</time>
      </trkpt>
      <trkpt lat="46.0609" lon="5.4627">
        <ele>426.4</ele>
        <time>2026-05-09T13:31:45Z</time>
      </trkpt>
      <trkpt lat="46.06088" lon="5.46269">
        <ele>426.8</ele>
        <time>2026-05-09T13:31:46Z</time>
      </trkpt>
      <trkpt lat="46.06087" lon="5.46269">
        <ele>426.8</ele>
        <time>2026-05-09T13:31:47Z</time>
      </trkpt>
      <trkpt lat="46.06085" lon="5.46268">
        <ele>427</ele>
        <time>2026-05-09T13:31:48Z</time>
      </trkpt>
      <trkpt lat="46.06083" lon="5.46267">
        <ele>427</ele>
        <time>2026-05-09T13:31:49Z</time>
      </trkpt>
      <trkpt lat="46.06081" lon="5.46267">
        <ele>427</ele>
        <time>2026-05-09T13:31:50Z</time>
      </trkpt>
      <trkpt lat="46.0608" lon="5.46266">
        <ele>427.2</ele>
        <time>2026-05-09T13:31:51Z</time>
      </trkpt>
      <trkpt lat="46.06078" lon="5.46265">
        <ele>427.2</ele>
        <time>2026-05-09T13:31:52Z</time>
      </trkpt>
      <trkpt lat="46.06076" lon="5.46265">
        <ele>427.6</ele>
        <time>2026-05-09T13:31:53Z</time>
      </trkpt>
      <trkpt lat="46.06075" lon="5.46264">
        <ele>427.6</ele>
        <time>2026-05-09T13:31:54Z</time>
      </trkpt>
      <trkpt lat="46.06073" lon="5.46263">
        <ele>427.8</ele>
        <time>2026-05-09T13:31:55Z</time>
      </trkpt>
      <trkpt lat="46.06071" lon="5.46263">
        <ele>427.8</ele>
        <time>2026-05-09T13:31:56Z</time>
      </trkpt>
      <trkpt lat="46.0607" lon="5.46262">
        <ele>428.2</ele>
        <time>2026-05-09T13:31:57Z</time>
      </trkpt>
      <trkpt lat="46.06068" lon="5.46262">
        <ele>428.2</ele>
        <time>2026-05-09T13:31:58Z</time>
      </trkpt>
      <trkpt lat="46.06066" lon="5.46261">
        <ele>428.4</ele>
        <time>2026-05-09T13:31:59Z</time>
      </trkpt>
      <trkpt lat="46.06064" lon="5.46261">
        <ele>428.4</ele>
        <time>2026-05-09T13:32:00Z</time>
      </trkpt>
      <trkpt lat="46.06063" lon="5.46261">
        <ele>428.6</ele>
        <time>2026-05-09T13:32:01Z</time>
      </trkpt>
      <trkpt lat="46.06061" lon="5.4626">
        <ele>428.6</ele>
        <time>2026-05-09T13:32:02Z</time>
      </trkpt>
      <trkpt lat="46.06059" lon="5.4626">
        <ele>429</ele>
        <time>2026-05-09T13:32:03Z</time>
      </trkpt>
      <trkpt lat="46.06057" lon="5.46259">
        <ele>429</ele>
        <time>2026-05-09T13:32:04Z</time>
      </trkpt>
      <trkpt lat="46.06055" lon="5.46259">
        <ele>429</ele>
        <time>2026-05-09T13:32:05Z</time>
      </trkpt>
      <trkpt lat="46.06054" lon="5.46258">
        <ele>429</ele>
        <time>2026-05-09T13:32:06Z</time>
      </trkpt>
      <trkpt lat="46.06052" lon="5.46258">
        <ele>429.2</ele>
        <time>2026-05-09T13:32:07Z</time>
      </trkpt>
      <trkpt lat="46.0605" lon="5.46258">
        <ele>429.2</ele>
        <time>2026-05-09T13:32:08Z</time>
      </trkpt>
      <trkpt lat="46.06049" lon="5.46258">
        <ele>429.4</ele>
        <time>2026-05-09T13:32:09Z</time>
      </trkpt>
      <trkpt lat="46.06047" lon="5.46258">
        <ele>429.4</ele>
        <time>2026-05-09T13:32:10Z</time>
      </trkpt>
      <trkpt lat="46.06045" lon="5.46258">
        <ele>429.8</ele>
        <time>2026-05-09T13:32:11Z</time>
      </trkpt>
      <trkpt lat="46.06044" lon="5.46258">
        <ele>429.8</ele>
        <time>2026-05-09T13:32:12Z</time>
      </trkpt>
      <trkpt lat="46.06042" lon="5.46258">
        <ele>430</ele>
        <time>2026-05-09T13:32:13Z</time>
      </trkpt>
      <trkpt lat="46.0604" lon="5.46258">
        <ele>430</ele>
        <time>2026-05-09T13:32:14Z</time>
      </trkpt>
      <trkpt lat="46.06038" lon="5.46258">
        <ele>430</ele>
        <time>2026-05-09T13:32:15Z</time>
      </trkpt>
      <trkpt lat="46.06037" lon="5.46257">
        <ele>430</ele>
        <time>2026-05-09T13:32:16Z</time>
      </trkpt>
      <trkpt lat="46.06035" lon="5.46257">
        <ele>430.4</ele>
        <time>2026-05-09T13:32:17Z</time>
      </trkpt>
      <trkpt lat="46.06034" lon="5.46257">
        <ele>430.4</ele>
        <time>2026-05-09T13:32:18Z</time>
      </trkpt>
      <trkpt lat="46.06032" lon="5.46257">
        <ele>430.6</ele>
        <time>2026-05-09T13:32:19Z</time>
      </trkpt>
      <trkpt lat="46.0603" lon="5.46257">
        <ele>430.6</ele>
        <time>2026-05-09T13:32:20Z</time>
      </trkpt>
      <trkpt lat="46.06028" lon="5.46257">
        <ele>430.6</ele>
        <time>2026-05-09T13:32:21Z</time>
      </trkpt>
      <trkpt lat="46.06026" lon="5.46256">
        <ele>430.8</ele>
        <time>2026-05-09T13:32:22Z</time>
      </trkpt>
      <trkpt lat="46.06025" lon="5.46256">
        <ele>430.8</ele>
        <time>2026-05-09T13:32:23Z</time>
      </trkpt>
      <trkpt lat="46.06023" lon="5.46256">
        <ele>431</ele>
        <time>2026-05-09T13:32:24Z</time>
      </trkpt>
      <trkpt lat="46.06021" lon="5.46256">
        <ele>431.2</ele>
        <time>2026-05-09T13:32:25Z</time>
      </trkpt>
      <trkpt lat="46.0602" lon="5.46256">
        <ele>431.2</ele>
        <time>2026-05-09T13:32:26Z</time>
      </trkpt>
      <trkpt lat="46.06018" lon="5.46256">
        <ele>431.2</ele>
        <time>2026-05-09T13:32:27Z</time>
      </trkpt>
      <trkpt lat="46.06017" lon="5.46255">
        <ele>431.4</ele>
        <time>2026-05-09T13:32:28Z</time>
      </trkpt>
      <trkpt lat="46.06015" lon="5.46255">
        <ele>431.4</ele>
        <time>2026-05-09T13:32:29Z</time>
      </trkpt>
      <trkpt lat="46.06013" lon="5.46254">
        <ele>431.4</ele>
        <time>2026-05-09T13:32:30Z</time>
      </trkpt>
      <trkpt lat="46.06011" lon="5.46254">
        <ele>431.8</ele>
        <time>2026-05-09T13:32:31Z</time>
      </trkpt>
      <trkpt lat="46.0601" lon="5.46253">
        <ele>431.8</ele>
        <time>2026-05-09T13:32:32Z</time>
      </trkpt>
      <trkpt lat="46.06008" lon="5.46253">
        <ele>432</ele>
        <time>2026-05-09T13:32:33Z</time>
      </trkpt>
      <trkpt lat="46.06007" lon="5.46253">
        <ele>432</ele>
        <time>2026-05-09T13:32:34Z</time>
      </trkpt>
      <trkpt lat="46.06005" lon="5.46253">
        <ele>432.2</ele>
        <time>2026-05-09T13:32:35Z</time>
      </trkpt>
      <trkpt lat="46.06004" lon="5.46253">
        <ele>432.2</ele>
        <time>2026-05-09T13:32:36Z</time>
      </trkpt>
      <trkpt lat="46.06002" lon="5.46253">
        <ele>432.6</ele>
        <time>2026-05-09T13:32:37Z</time>
      </trkpt>
      <trkpt lat="46.06001" lon="5.46253">
        <ele>432.6</ele>
        <time>2026-05-09T13:32:38Z</time>
      </trkpt>
      <trkpt lat="46.06" lon="5.46253">
        <ele>433</ele>
        <time>2026-05-09T13:32:39Z</time>
      </trkpt>
      <trkpt lat="46.05998" lon="5.46253">
        <ele>433</ele>
        <time>2026-05-09T13:32:40Z</time>
      </trkpt>
      <trkpt lat="46.05996" lon="5.46253">
        <ele>433.2</ele>
        <time>2026-05-09T13:32:41Z</time>
      </trkpt>
      <trkpt lat="46.05994" lon="5.46254">
        <ele>433.6</ele>
        <time>2026-05-09T13:32:42Z</time>
      </trkpt>
      <trkpt lat="46.05992" lon="5.46255">
        <ele>434</ele>
        <time>2026-05-09T13:32:43Z</time>
      </trkpt>
      <trkpt lat="46.05989" lon="5.46257">
        <ele>434.2</ele>
        <time>2026-05-09T13:32:44Z</time>
      </trkpt>
      <trkpt lat="46.05988" lon="5.46258">
        <ele>434.2</ele>
        <time>2026-05-09T13:32:45Z</time>
      </trkpt>
      <trkpt lat="46.05986" lon="5.46258">
        <ele>434.6</ele>
        <time>2026-05-09T13:32:46Z</time>
      </trkpt>
      <trkpt lat="46.05984" lon="5.46259">
        <ele>434.6</ele>
        <time>2026-05-09T13:32:47Z</time>
      </trkpt>
      <trkpt lat="46.05982" lon="5.4626">
        <ele>434.6</ele>
        <time>2026-05-09T13:32:48Z</time>
      </trkpt>
      <trkpt lat="46.0598" lon="5.4626">
        <ele>435</ele>
        <time>2026-05-09T13:32:49Z</time>
      </trkpt>
      <trkpt lat="46.05978" lon="5.46261">
        <ele>435</ele>
        <time>2026-05-09T13:32:50Z</time>
      </trkpt>
      <trkpt lat="46.05977" lon="5.46262">
        <ele>435</ele>
        <time>2026-05-09T13:32:51Z</time>
      </trkpt>
      <trkpt lat="46.05975" lon="5.46263">
        <ele>435.2</ele>
        <time>2026-05-09T13:32:52Z</time>
      </trkpt>
      <trkpt lat="46.05973" lon="5.46264">
        <ele>435.2</ele>
        <time>2026-05-09T13:32:53Z</time>
      </trkpt>
      <trkpt lat="46.05972" lon="5.46265">
        <ele>435.4</ele>
        <time>2026-05-09T13:32:54Z</time>
      </trkpt>
      <trkpt lat="46.0597" lon="5.46266">
        <ele>435.4</ele>
        <time>2026-05-09T13:32:55Z</time>
      </trkpt>
      <trkpt lat="46.05968" lon="5.46267">
        <ele>435.6</ele>
        <time>2026-05-09T13:32:56Z</time>
      </trkpt>
      <trkpt lat="46.05967" lon="5.46268">
        <ele>435.6</ele>
        <time>2026-05-09T13:32:57Z</time>
      </trkpt>
      <trkpt lat="46.05965" lon="5.46269">
        <ele>436</ele>
        <time>2026-05-09T13:32:58Z</time>
      </trkpt>
      <trkpt lat="46.05963" lon="5.4627">
        <ele>436</ele>
        <time>2026-05-09T13:32:59Z</time>
      </trkpt>
      <trkpt lat="46.05962" lon="5.46271">
        <ele>436</ele>
        <time>2026-05-09T13:33:00Z</time>
      </trkpt>
      <trkpt lat="46.0596" lon="5.46271">
        <ele>436.4</ele>
        <time>2026-05-09T13:33:01Z</time>
      </trkpt>
      <trkpt lat="46.05958" lon="5.46272">
        <ele>436.4</ele>
        <time>2026-05-09T13:33:02Z</time>
      </trkpt>
      <trkpt lat="46.05956" lon="5.46273">
        <ele>436.6</ele>
        <time>2026-05-09T13:33:03Z</time>
      </trkpt>
      <trkpt lat="46.05954" lon="5.46274">
        <ele>436.6</ele>
        <time>2026-05-09T13:33:04Z</time>
      </trkpt>
      <trkpt lat="46.05953" lon="5.46275">
        <ele>437</ele>
        <time>2026-05-09T13:33:05Z</time>
      </trkpt>
      <trkpt lat="46.05951" lon="5.46276">
        <ele>437</ele>
        <time>2026-05-09T13:33:06Z</time>
      </trkpt>
      <trkpt lat="46.05949" lon="5.46276">
        <ele>437.2</ele>
        <time>2026-05-09T13:33:07Z</time>
      </trkpt>
      <trkpt lat="46.05947" lon="5.46277">
        <ele>437.2</ele>
        <time>2026-05-09T13:33:08Z</time>
      </trkpt>
      <trkpt lat="46.05945" lon="5.46277">
        <ele>437.2</ele>
        <time>2026-05-09T13:33:09Z</time>
      </trkpt>
      <trkpt lat="46.05944" lon="5.46277">
        <ele>437.2</ele>
        <time>2026-05-09T13:33:10Z</time>
      </trkpt>
      <trkpt lat="46.05942" lon="5.46277">
        <ele>437.4</ele>
        <time>2026-05-09T13:33:11Z</time>
      </trkpt>
      <trkpt lat="46.05941" lon="5.46277">
        <ele>437.4</ele>
        <time>2026-05-09T13:33:12Z</time>
      </trkpt>
      <trkpt lat="46.05939" lon="5.46276">
        <ele>437.4</ele>
        <time>2026-05-09T13:33:13Z</time>
      </trkpt>
      <trkpt lat="46.05937" lon="5.46276">
        <ele>437.8</ele>
        <time>2026-05-09T13:33:14Z</time>
      </trkpt>
      <trkpt lat="46.05935" lon="5.46276">
        <ele>437.8</ele>
        <time>2026-05-09T13:33:15Z</time>
      </trkpt>
      <trkpt lat="46.05934" lon="5.46276">
        <ele>438.2</ele>
        <time>2026-05-09T13:33:16Z</time>
      </trkpt>
      <trkpt lat="46.05933" lon="5.46275">
        <ele>438.2</ele>
        <time>2026-05-09T13:33:17Z</time>
      </trkpt>
      <trkpt lat="46.05931" lon="5.46274">
        <ele>438.2</ele>
        <time>2026-05-09T13:33:18Z</time>
      </trkpt>
      <trkpt lat="46.05929" lon="5.46273">
        <ele>438.4</ele>
        <time>2026-05-09T13:33:19Z</time>
      </trkpt>
      <trkpt lat="46.05928" lon="5.46272">
        <ele>438.6</ele>
        <time>2026-05-09T13:33:20Z</time>
      </trkpt>
      <trkpt lat="46.05926" lon="5.4627">
        <ele>438.6</ele>
        <time>2026-05-09T13:33:21Z</time>
      </trkpt>
      <trkpt lat="46.05925" lon="5.46269">
        <ele>438.8</ele>
        <time>2026-05-09T13:33:22Z</time>
      </trkpt>
      <trkpt lat="46.05923" lon="5.46268">
        <ele>438.8</ele>
        <time>2026-05-09T13:33:23Z</time>
      </trkpt>
      <trkpt lat="46.05922" lon="5.46267">
        <ele>439</ele>
        <time>2026-05-09T13:33:24Z</time>
      </trkpt>
      <trkpt lat="46.0592" lon="5.46265">
        <ele>439</ele>
        <time>2026-05-09T13:33:25Z</time>
      </trkpt>
      <trkpt lat="46.05919" lon="5.46263">
        <ele>439.4</ele>
        <time>2026-05-09T13:33:26Z</time>
      </trkpt>
      <trkpt lat="46.05918" lon="5.46261">
        <ele>439.6</ele>
        <time>2026-05-09T13:33:27Z</time>
      </trkpt>
      <trkpt lat="46.05916" lon="5.46259">
        <ele>439.8</ele>
        <time>2026-05-09T13:33:28Z</time>
      </trkpt>
      <trkpt lat="46.05915" lon="5.46257">
        <ele>440.2</ele>
        <time>2026-05-09T13:33:29Z</time>
      </trkpt>
      <trkpt lat="46.05914" lon="5.46255">
        <ele>440.2</ele>
        <time>2026-05-09T13:33:30Z</time>
      </trkpt>
      <trkpt lat="46.05913" lon="5.46253">
        <ele>440.4</ele>
        <time>2026-05-09T13:33:31Z</time>
      </trkpt>
      <trkpt lat="46.05912" lon="5.46252">
        <ele>440.6</ele>
        <time>2026-05-09T13:33:32Z</time>
      </trkpt>
      <trkpt lat="46.05911" lon="5.46251">
        <ele>440.6</ele>
        <time>2026-05-09T13:33:33Z</time>
      </trkpt>
      <trkpt lat="46.0591" lon="5.46249">
        <ele>441</ele>
        <time>2026-05-09T13:33:34Z</time>
      </trkpt>
      <trkpt lat="46.05909" lon="5.46247">
        <ele>441</ele>
        <time>2026-05-09T13:33:35Z</time>
      </trkpt>
      <trkpt lat="46.05908" lon="5.46245">
        <ele>441</ele>
        <time>2026-05-09T13:33:36Z</time>
      </trkpt>
      <trkpt lat="46.05906" lon="5.46244">
        <ele>441.2</ele>
        <time>2026-05-09T13:33:37Z</time>
      </trkpt>
      <trkpt lat="46.05905" lon="5.46243">
        <ele>441.6</ele>
        <time>2026-05-09T13:33:38Z</time>
      </trkpt>
      <trkpt lat="46.05904" lon="5.46243">
        <ele>441.6</ele>
        <time>2026-05-09T13:33:39Z</time>
      </trkpt>
      <trkpt lat="46.05902" lon="5.46242">
        <ele>441.8</ele>
        <time>2026-05-09T13:33:40Z</time>
      </trkpt>
      <trkpt lat="46.05901" lon="5.46241">
        <ele>441.8</ele>
        <time>2026-05-09T13:33:41Z</time>
      </trkpt>
      <trkpt lat="46.059" lon="5.4624">
        <ele>442</ele>
        <time>2026-05-09T13:33:42Z</time>
      </trkpt>
      <trkpt lat="46.05898" lon="5.46239">
        <ele>442.2</ele>
        <time>2026-05-09T13:33:43Z</time>
      </trkpt>
      <trkpt lat="46.05897" lon="5.46239">
        <ele>442.2</ele>
        <time>2026-05-09T13:33:44Z</time>
      </trkpt>
      <trkpt lat="46.05896" lon="5.46238">
        <ele>442.8</ele>
        <time>2026-05-09T13:33:45Z</time>
      </trkpt>
      <trkpt lat="46.05895" lon="5.46238">
        <ele>442.8</ele>
        <time>2026-05-09T13:33:46Z</time>
      </trkpt>
      <trkpt lat="46.05893" lon="5.46237">
        <ele>443</ele>
        <time>2026-05-09T13:33:47Z</time>
      </trkpt>
      <trkpt lat="46.05891" lon="5.46236">
        <ele>443</ele>
        <time>2026-05-09T13:33:48Z</time>
      </trkpt>
      <trkpt lat="46.05889" lon="5.46235">
        <ele>443</ele>
        <time>2026-05-09T13:33:49Z</time>
      </trkpt>
      <trkpt lat="46.05887" lon="5.46234">
        <ele>443.2</ele>
        <time>2026-05-09T13:33:50Z</time>
      </trkpt>
      <trkpt lat="46.05885" lon="5.46234">
        <ele>443.2</ele>
        <time>2026-05-09T13:33:51Z</time>
      </trkpt>
      <trkpt lat="46.05884" lon="5.46234">
        <ele>443.4</ele>
        <time>2026-05-09T13:33:52Z</time>
      </trkpt>
      <trkpt lat="46.05883" lon="5.46233">
        <ele>443.4</ele>
        <time>2026-05-09T13:33:53Z</time>
      </trkpt>
      <trkpt lat="46.05881" lon="5.46233">
        <ele>443.8</ele>
        <time>2026-05-09T13:33:54Z</time>
      </trkpt>
      <trkpt lat="46.0588" lon="5.46232">
        <ele>443.8</ele>
        <time>2026-05-09T13:33:55Z</time>
      </trkpt>
      <trkpt lat="46.05878" lon="5.46231">
        <ele>443.8</ele>
        <time>2026-05-09T13:33:56Z</time>
      </trkpt>
      <trkpt lat="46.05877" lon="5.4623">
        <ele>444</ele>
        <time>2026-05-09T13:33:57Z</time>
      </trkpt>
      <trkpt lat="46.05875" lon="5.4623">
        <ele>444</ele>
        <time>2026-05-09T13:33:58Z</time>
      </trkpt>
      <trkpt lat="46.05873" lon="5.46229">
        <ele>444.4</ele>
        <time>2026-05-09T13:33:59Z</time>
      </trkpt>
      <trkpt lat="46.05871" lon="5.46228">
        <ele>444.4</ele>
        <time>2026-05-09T13:34:00Z</time>
      </trkpt>
      <trkpt lat="46.05869" lon="5.46228">
        <ele>444.8</ele>
        <time>2026-05-09T13:34:01Z</time>
      </trkpt>
      <trkpt lat="46.05867" lon="5.46227">
        <ele>445</ele>
        <time>2026-05-09T13:34:02Z</time>
      </trkpt>
      <trkpt lat="46.05865" lon="5.46227">
        <ele>445</ele>
        <time>2026-05-09T13:34:03Z</time>
      </trkpt>
      <trkpt lat="46.05863" lon="5.46227">
        <ele>445</ele>
        <time>2026-05-09T13:34:04Z</time>
      </trkpt>
      <trkpt lat="46.05862" lon="5.46227">
        <ele>445.4</ele>
        <time>2026-05-09T13:34:05Z</time>
      </trkpt>
      <trkpt lat="46.0586" lon="5.46227">
        <ele>445.6</ele>
        <time>2026-05-09T13:34:06Z</time>
      </trkpt>
      <trkpt lat="46.05859" lon="5.46226">
        <ele>445.6</ele>
        <time>2026-05-09T13:34:07Z</time>
      </trkpt>
      <trkpt lat="46.05857" lon="5.46226">
        <ele>446</ele>
        <time>2026-05-09T13:34:08Z</time>
      </trkpt>
      <trkpt lat="46.05855" lon="5.46225">
        <ele>446</ele>
        <time>2026-05-09T13:34:09Z</time>
      </trkpt>
      <trkpt lat="46.05853" lon="5.46224">
        <ele>446.4</ele>
        <time>2026-05-09T13:34:10Z</time>
      </trkpt>
      <trkpt lat="46.05851" lon="5.46223">
        <ele>446.4</ele>
        <time>2026-05-09T13:34:11Z</time>
      </trkpt>
      <trkpt lat="46.05849" lon="5.46222">
        <ele>446.4</ele>
        <time>2026-05-09T13:34:12Z</time>
      </trkpt>
      <trkpt lat="46.05849" lon="5.46222">
        <ele>446.6</ele>
        <time>2026-05-09T13:34:13Z</time>
      </trkpt>
      <trkpt lat="46.05848" lon="5.46222">
        <ele>446.6</ele>
        <time>2026-05-09T13:34:14Z</time>
      </trkpt>
      <trkpt lat="46.05846" lon="5.46222">
        <ele>446.8</ele>
        <time>2026-05-09T13:34:15Z</time>
      </trkpt>
      <trkpt lat="46.05845" lon="5.46221">
        <ele>446.8</ele>
        <time>2026-05-09T13:34:16Z</time>
      </trkpt>
      <trkpt lat="46.05843" lon="5.46221">
        <ele>447</ele>
        <time>2026-05-09T13:34:17Z</time>
      </trkpt>
      <trkpt lat="46.05841" lon="5.4622">
        <ele>447</ele>
        <time>2026-05-09T13:34:18Z</time>
      </trkpt>
      <trkpt lat="46.0584" lon="5.4622">
        <ele>447.4</ele>
        <time>2026-05-09T13:34:19Z</time>
      </trkpt>
      <trkpt lat="46.05838" lon="5.4622">
        <ele>447.4</ele>
        <time>2026-05-09T13:34:20Z</time>
      </trkpt>
      <trkpt lat="46.05837" lon="5.4622">
        <ele>447.4</ele>
        <time>2026-05-09T13:34:21Z</time>
      </trkpt>
      <trkpt lat="46.05834" lon="5.46219">
        <ele>447.4</ele>
        <time>2026-05-09T13:34:22Z</time>
      </trkpt>
      <trkpt lat="46.05832" lon="5.46219">
        <ele>447.6</ele>
        <time>2026-05-09T13:34:23Z</time>
      </trkpt>
      <trkpt lat="46.05829" lon="5.46218">
        <ele>447.8</ele>
        <time>2026-05-09T13:34:24Z</time>
      </trkpt>
      <trkpt lat="46.05827" lon="5.46217">
        <ele>447.8</ele>
        <time>2026-05-09T13:34:25Z</time>
      </trkpt>
      <trkpt lat="46.05825" lon="5.46217">
        <ele>448</ele>
        <time>2026-05-09T13:34:26Z</time>
      </trkpt>
      <trkpt lat="46.05824" lon="5.46216">
        <ele>448</ele>
        <time>2026-05-09T13:34:27Z</time>
      </trkpt>
      <trkpt lat="46.05822" lon="5.46216">
        <ele>448</ele>
        <time>2026-05-09T13:34:28Z</time>
      </trkpt>
      <trkpt lat="46.0582" lon="5.46216">
        <ele>448.4</ele>
        <time>2026-05-09T13:34:29Z</time>
      </trkpt>
      <trkpt lat="46.05819" lon="5.46216">
        <ele>448.4</ele>
        <time>2026-05-09T13:34:30Z</time>
      </trkpt>
      <trkpt lat="46.05817" lon="5.46216">
        <ele>448.6</ele>
        <time>2026-05-09T13:34:31Z</time>
      </trkpt>
      <trkpt lat="46.05816" lon="5.46216">
        <ele>448.6</ele>
        <time>2026-05-09T13:34:32Z</time>
      </trkpt>
      <trkpt lat="46.05814" lon="5.46216">
        <ele>448.6</ele>
        <time>2026-05-09T13:34:33Z</time>
      </trkpt>
      <trkpt lat="46.05812" lon="5.46215">
        <ele>449</ele>
        <time>2026-05-09T13:34:34Z</time>
      </trkpt>
      <trkpt lat="46.0581" lon="5.46214">
        <ele>449</ele>
        <time>2026-05-09T13:34:35Z</time>
      </trkpt>
      <trkpt lat="46.05808" lon="5.46213">
        <ele>449.4</ele>
        <time>2026-05-09T13:34:36Z</time>
      </trkpt>
      <trkpt lat="46.05807" lon="5.46212">
        <ele>449.4</ele>
        <time>2026-05-09T13:34:37Z</time>
      </trkpt>
      <trkpt lat="46.05805" lon="5.46211">
        <ele>449.6</ele>
        <time>2026-05-09T13:34:38Z</time>
      </trkpt>
      <trkpt lat="46.05803" lon="5.46211">
        <ele>449.6</ele>
        <time>2026-05-09T13:34:39Z</time>
      </trkpt>
      <trkpt lat="46.05802" lon="5.46211">
        <ele>449.8</ele>
        <time>2026-05-09T13:34:40Z</time>
      </trkpt>
      <trkpt lat="46.058" lon="5.46211">
        <ele>449.8</ele>
        <time>2026-05-09T13:34:41Z</time>
      </trkpt>
      <trkpt lat="46.05799" lon="5.46211">
        <ele>450.2</ele>
        <time>2026-05-09T13:34:42Z</time>
      </trkpt>
      <trkpt lat="46.05797" lon="5.46211">
        <ele>450.2</ele>
        <time>2026-05-09T13:34:43Z</time>
      </trkpt>
      <trkpt lat="46.05796" lon="5.46211">
        <ele>450.4</ele>
        <time>2026-05-09T13:34:44Z</time>
      </trkpt>
      <trkpt lat="46.05794" lon="5.46211">
        <ele>450.4</ele>
        <time>2026-05-09T13:34:45Z</time>
      </trkpt>
      <trkpt lat="46.05793" lon="5.4621">
        <ele>450.6</ele>
        <time>2026-05-09T13:34:46Z</time>
      </trkpt>
      <trkpt lat="46.05792" lon="5.4621">
        <ele>450.6</ele>
        <time>2026-05-09T13:34:47Z</time>
      </trkpt>
      <trkpt lat="46.0579" lon="5.4621">
        <ele>451</ele>
        <time>2026-05-09T13:34:48Z</time>
      </trkpt>
      <trkpt lat="46.05789" lon="5.4621">
        <ele>451.2</ele>
        <time>2026-05-09T13:34:49Z</time>
      </trkpt>
      <trkpt lat="46.05787" lon="5.4621">
        <ele>451.6</ele>
        <time>2026-05-09T13:34:50Z</time>
      </trkpt>
      <trkpt lat="46.05785" lon="5.4621">
        <ele>451.6</ele>
        <time>2026-05-09T13:34:51Z</time>
      </trkpt>
      <trkpt lat="46.05784" lon="5.46211">
        <ele>452</ele>
        <time>2026-05-09T13:34:52Z</time>
      </trkpt>
      <trkpt lat="46.05783" lon="5.46211">
        <ele>452</ele>
        <time>2026-05-09T13:34:53Z</time>
      </trkpt>
      <trkpt lat="46.05781" lon="5.46212">
        <ele>452.4</ele>
        <time>2026-05-09T13:34:54Z</time>
      </trkpt>
      <trkpt lat="46.0578" lon="5.46213">
        <ele>452.4</ele>
        <time>2026-05-09T13:34:55Z</time>
      </trkpt>
      <trkpt lat="46.05779" lon="5.46213">
        <ele>452.8</ele>
        <time>2026-05-09T13:34:56Z</time>
      </trkpt>
      <trkpt lat="46.05777" lon="5.46213">
        <ele>453</ele>
        <time>2026-05-09T13:34:57Z</time>
      </trkpt>
      <trkpt lat="46.05775" lon="5.46213">
        <ele>453</ele>
        <time>2026-05-09T13:34:58Z</time>
      </trkpt>
      <trkpt lat="46.05774" lon="5.46212">
        <ele>453.2</ele>
        <time>2026-05-09T13:34:59Z</time>
      </trkpt>
      <trkpt lat="46.05772" lon="5.46212">
        <ele>453.2</ele>
        <time>2026-05-09T13:35:00Z</time>
      </trkpt>
      <trkpt lat="46.0577" lon="5.46211">
        <ele>453.4</ele>
        <time>2026-05-09T13:35:01Z</time>
      </trkpt>
      <trkpt lat="46.05768" lon="5.46211">
        <ele>453.4</ele>
        <time>2026-05-09T13:35:02Z</time>
      </trkpt>
      <trkpt lat="46.05766" lon="5.4621">
        <ele>453.8</ele>
        <time>2026-05-09T13:35:03Z</time>
      </trkpt>
      <trkpt lat="46.05764" lon="5.4621">
        <ele>454</ele>
        <time>2026-05-09T13:35:04Z</time>
      </trkpt>
      <trkpt lat="46.05763" lon="5.4621">
        <ele>454</ele>
        <time>2026-05-09T13:35:05Z</time>
      </trkpt>
      <trkpt lat="46.05761" lon="5.4621">
        <ele>454.2</ele>
        <time>2026-05-09T13:35:06Z</time>
      </trkpt>
      <trkpt lat="46.05759" lon="5.4621">
        <ele>454.2</ele>
        <time>2026-05-09T13:35:07Z</time>
      </trkpt>
      <trkpt lat="46.05757" lon="5.46209">
        <ele>454.2</ele>
        <time>2026-05-09T13:35:08Z</time>
      </trkpt>
      <trkpt lat="46.05755" lon="5.46209">
        <ele>454.4</ele>
        <time>2026-05-09T13:35:09Z</time>
      </trkpt>
      <trkpt lat="46.05754" lon="5.46209">
        <ele>454.4</ele>
        <time>2026-05-09T13:35:10Z</time>
      </trkpt>
      <trkpt lat="46.05752" lon="5.46208">
        <ele>454.4</ele>
        <time>2026-05-09T13:35:11Z</time>
      </trkpt>
      <trkpt lat="46.05751" lon="5.46208">
        <ele>454.8</ele>
        <time>2026-05-09T13:35:12Z</time>
      </trkpt>
      <trkpt lat="46.0575" lon="5.46208">
        <ele>454.8</ele>
        <time>2026-05-09T13:35:13Z</time>
      </trkpt>
      <trkpt lat="46.05748" lon="5.46208">
        <ele>454.8</ele>
        <time>2026-05-09T13:35:14Z</time>
      </trkpt>
      <trkpt lat="46.05746" lon="5.46207">
        <ele>455</ele>
        <time>2026-05-09T13:35:15Z</time>
      </trkpt>
      <trkpt lat="46.05744" lon="5.46207">
        <ele>455</ele>
        <time>2026-05-09T13:35:16Z</time>
      </trkpt>
      <trkpt lat="46.05743" lon="5.46206">
        <ele>455.4</ele>
        <time>2026-05-09T13:35:17Z</time>
      </trkpt>
      <trkpt lat="46.05741" lon="5.46206">
        <ele>455.4</ele>
        <time>2026-05-09T13:35:18Z</time>
      </trkpt>
      <trkpt lat="46.0574" lon="5.46205">
        <ele>455.4</ele>
        <time>2026-05-09T13:35:19Z</time>
      </trkpt>
      <trkpt lat="46.05738" lon="5.46204">
        <ele>455.6</ele>
        <time>2026-05-09T13:35:20Z</time>
      </trkpt>
      <trkpt lat="46.05736" lon="5.46203">
        <ele>455.6</ele>
        <time>2026-05-09T13:35:21Z</time>
      </trkpt>
      <trkpt lat="46.05734" lon="5.46201">
        <ele>455.8</ele>
        <time>2026-05-09T13:35:22Z</time>
      </trkpt>
      <trkpt lat="46.05732" lon="5.462">
        <ele>455.8</ele>
        <time>2026-05-09T13:35:23Z</time>
      </trkpt>
      <trkpt lat="46.05729" lon="5.46196">
        <ele>456.2</ele>
        <time>2026-05-09T13:35:24Z</time>
      </trkpt>
      <trkpt lat="46.05728" lon="5.46194">
        <ele>456.2</ele>
        <time>2026-05-09T13:35:25Z</time>
      </trkpt>
      <trkpt lat="46.05726" lon="5.46192">
        <ele>456.4</ele>
        <time>2026-05-09T13:35:26Z</time>
      </trkpt>
      <trkpt lat="46.05725" lon="5.46191">
        <ele>456.4</ele>
        <time>2026-05-09T13:35:27Z</time>
      </trkpt>
      <trkpt lat="46.05725" lon="5.46191">
        <ele>456.8</ele>
        <time>2026-05-09T13:35:28Z</time>
      </trkpt>
      <trkpt lat="46.05724" lon="5.46189">
        <ele>456.8</ele>
        <time>2026-05-09T13:35:29Z</time>
      </trkpt>
      <trkpt lat="46.05723" lon="5.46186">
        <ele>456.8</ele>
        <time>2026-05-09T13:35:30Z</time>
      </trkpt>
      <trkpt lat="46.05722" lon="5.46185">
        <ele>457.2</ele>
        <time>2026-05-09T13:35:31Z</time>
      </trkpt>
      <trkpt lat="46.05722" lon="5.46184">
        <ele>457.4</ele>
        <time>2026-05-09T13:35:32Z</time>
      </trkpt>
      <trkpt lat="46.05721" lon="5.46181">
        <ele>457.4</ele>
        <time>2026-05-09T13:35:33Z</time>
      </trkpt>
      <trkpt lat="46.0572" lon="5.46179">
        <ele>457.6</ele>
        <time>2026-05-09T13:35:34Z</time>
      </trkpt>
      <trkpt lat="46.0572" lon="5.46178">
        <ele>457.4</ele>
        <time>2026-05-09T13:35:35Z</time>
      </trkpt>
      <trkpt lat="46.0572" lon="5.46177">
        <ele>457.4</ele>
        <time>2026-05-09T13:35:36Z</time>
      </trkpt>
      <trkpt lat="46.0572" lon="5.46174">
        <ele>457.8</ele>
        <time>2026-05-09T13:35:37Z</time>
      </trkpt>
      <trkpt lat="46.05721" lon="5.46171">
        <ele>458</ele>
        <time>2026-05-09T13:35:38Z</time>
      </trkpt>
      <trkpt lat="46.05721" lon="5.46169">
        <ele>458</ele>
        <time>2026-05-09T13:35:39Z</time>
      </trkpt>
      <trkpt lat="46.05721" lon="5.46168">
        <ele>458.6</ele>
        <time>2026-05-09T13:35:40Z</time>
      </trkpt>
      <trkpt lat="46.0572" lon="5.46166">
        <ele>458.6</ele>
        <time>2026-05-09T13:35:41Z</time>
      </trkpt>
      <trkpt lat="46.0572" lon="5.46164">
        <ele>458.6</ele>
        <time>2026-05-09T13:35:42Z</time>
      </trkpt>
      <trkpt lat="46.0572" lon="5.46161">
        <ele>458.8</ele>
        <time>2026-05-09T13:35:43Z</time>
      </trkpt>
      <trkpt lat="46.0572" lon="5.46159">
        <ele>458.8</ele>
        <time>2026-05-09T13:35:44Z</time>
      </trkpt>
      <trkpt lat="46.05721" lon="5.46157">
        <ele>459</ele>
        <time>2026-05-09T13:35:45Z</time>
      </trkpt>
      <trkpt lat="46.05722" lon="5.46156">
        <ele>459</ele>
        <time>2026-05-09T13:35:46Z</time>
      </trkpt>
      <trkpt lat="46.05723" lon="5.46153">
        <ele>459.2</ele>
        <time>2026-05-09T13:35:47Z</time>
      </trkpt>
      <trkpt lat="46.05723" lon="5.4615">
        <ele>459.2</ele>
        <time>2026-05-09T13:35:48Z</time>
      </trkpt>
      <trkpt lat="46.05723" lon="5.46147">
        <ele>459.2</ele>
        <time>2026-05-09T13:35:49Z</time>
      </trkpt>
      <trkpt lat="46.05724" lon="5.46144">
        <ele>459.2</ele>
        <time>2026-05-09T13:35:50Z</time>
      </trkpt>
      <trkpt lat="46.05724" lon="5.46142">
        <ele>459.6</ele>
        <time>2026-05-09T13:35:51Z</time>
      </trkpt>
      <trkpt lat="46.05724" lon="5.46139">
        <ele>459.6</ele>
        <time>2026-05-09T13:35:52Z</time>
      </trkpt>
      <trkpt lat="46.05725" lon="5.46135">
        <ele>459.8</ele>
        <time>2026-05-09T13:35:53Z</time>
      </trkpt>
      <trkpt lat="46.05726" lon="5.46133">
        <ele>459.8</ele>
        <time>2026-05-09T13:35:54Z</time>
      </trkpt>
      <trkpt lat="46.05727" lon="5.4613">
        <ele>460</ele>
        <time>2026-05-09T13:35:55Z</time>
      </trkpt>
      <trkpt lat="46.05727" lon="5.46127">
        <ele>460</ele>
        <time>2026-05-09T13:35:56Z</time>
      </trkpt>
      <trkpt lat="46.05728" lon="5.46125">
        <ele>460.2</ele>
        <time>2026-05-09T13:35:57Z</time>
      </trkpt>
      <trkpt lat="46.05728" lon="5.46123">
        <ele>460.2</ele>
        <time>2026-05-09T13:35:58Z</time>
      </trkpt>
      <trkpt lat="46.05729" lon="5.4612">
        <ele>460.2</ele>
        <time>2026-05-09T13:35:59Z</time>
      </trkpt>
      <trkpt lat="46.05731" lon="5.46117">
        <ele>460.6</ele>
        <time>2026-05-09T13:36:00Z</time>
      </trkpt>
      <trkpt lat="46.05732" lon="5.46114">
        <ele>460.6</ele>
        <time>2026-05-09T13:36:01Z</time>
      </trkpt>
      <trkpt lat="46.05733" lon="5.46112">
        <ele>461</ele>
        <time>2026-05-09T13:36:02Z</time>
      </trkpt>
      <trkpt lat="46.05734" lon="5.4611">
        <ele>461</ele>
        <time>2026-05-09T13:36:03Z</time>
      </trkpt>
      <trkpt lat="46.05735" lon="5.46108">
        <ele>461.2</ele>
        <time>2026-05-09T13:36:04Z</time>
      </trkpt>
      <trkpt lat="46.05737" lon="5.46105">
        <ele>461.2</ele>
        <time>2026-05-09T13:36:05Z</time>
      </trkpt>
      <trkpt lat="46.05737" lon="5.46103">
        <ele>461.4</ele>
        <time>2026-05-09T13:36:06Z</time>
      </trkpt>
      <trkpt lat="46.05738" lon="5.46101">
        <ele>461.4</ele>
        <time>2026-05-09T13:36:07Z</time>
      </trkpt>
      <trkpt lat="46.05739" lon="5.46099">
        <ele>461.4</ele>
        <time>2026-05-09T13:36:08Z</time>
      </trkpt>
      <trkpt lat="46.0574" lon="5.46098">
        <ele>462</ele>
        <time>2026-05-09T13:36:09Z</time>
      </trkpt>
      <trkpt lat="46.0574" lon="5.46096">
        <ele>462</ele>
        <time>2026-05-09T13:36:10Z</time>
      </trkpt>
      <trkpt lat="46.0574" lon="5.46095">
        <ele>462.4</ele>
        <time>2026-05-09T13:36:11Z</time>
      </trkpt>
      <trkpt lat="46.0574" lon="5.46094">
        <ele>462.4</ele>
        <time>2026-05-09T13:36:12Z</time>
      </trkpt>
      <trkpt lat="46.0574" lon="5.46092">
        <ele>462.4</ele>
        <time>2026-05-09T13:36:13Z</time>
      </trkpt>
      <trkpt lat="46.05741" lon="5.46091">
        <ele>462.6</ele>
        <time>2026-05-09T13:36:14Z</time>
      </trkpt>
      <trkpt lat="46.05743" lon="5.4609">
        <ele>462.6</ele>
        <time>2026-05-09T13:36:15Z</time>
      </trkpt>
      <trkpt lat="46.05744" lon="5.46088">
        <ele>462.8</ele>
        <time>2026-05-09T13:36:16Z</time>
      </trkpt>
      <trkpt lat="46.05745" lon="5.46087">
        <ele>463</ele>
        <time>2026-05-09T13:36:17Z</time>
      </trkpt>
      <trkpt lat="46.05746" lon="5.46086">
        <ele>463</ele>
        <time>2026-05-09T13:36:18Z</time>
      </trkpt>
      <trkpt lat="46.05746" lon="5.46085">
        <ele>463.2</ele>
        <time>2026-05-09T13:36:19Z</time>
      </trkpt>
      <trkpt lat="46.05747" lon="5.46084">
        <ele>463.2</ele>
        <time>2026-05-09T13:36:20Z</time>
      </trkpt>
      <trkpt lat="46.05748" lon="5.46083">
        <ele>463.6</ele>
        <time>2026-05-09T13:36:21Z</time>
      </trkpt>
      <trkpt lat="46.05749" lon="5.46081">
        <ele>463.6</ele>
        <time>2026-05-09T13:36:22Z</time>
      </trkpt>
      <trkpt lat="46.05751" lon="5.4608">
        <ele>463.8</ele>
        <time>2026-05-09T13:36:23Z</time>
      </trkpt>
      <trkpt lat="46.05753" lon="5.46078">
        <ele>463.8</ele>
        <time>2026-05-09T13:36:24Z</time>
      </trkpt>
      <trkpt lat="46.05755" lon="5.46076">
        <ele>463.8</ele>
        <time>2026-05-09T13:36:25Z</time>
      </trkpt>
      <trkpt lat="46.05757" lon="5.46075">
        <ele>464.2</ele>
        <time>2026-05-09T13:36:26Z</time>
      </trkpt>
      <trkpt lat="46.05759" lon="5.46074">
        <ele>464.2</ele>
        <time>2026-05-09T13:36:27Z</time>
      </trkpt>
      <trkpt lat="46.0576" lon="5.46072">
        <ele>464.4</ele>
        <time>2026-05-09T13:36:28Z</time>
      </trkpt>
      <trkpt lat="46.05761" lon="5.46071">
        <ele>464.6</ele>
        <time>2026-05-09T13:36:29Z</time>
      </trkpt>
      <trkpt lat="46.05763" lon="5.46069">
        <ele>464.6</ele>
        <time>2026-05-09T13:36:30Z</time>
      </trkpt>
      <trkpt lat="46.05764" lon="5.46068">
        <ele>464.6</ele>
        <time>2026-05-09T13:36:31Z</time>
      </trkpt>
      <trkpt lat="46.05766" lon="5.46067">
        <ele>464.8</ele>
        <time>2026-05-09T13:36:32Z</time>
      </trkpt>
      <trkpt lat="46.05769" lon="5.46066">
        <ele>464.8</ele>
        <time>2026-05-09T13:36:33Z</time>
      </trkpt>
      <trkpt lat="46.0577" lon="5.46064">
        <ele>465.2</ele>
        <time>2026-05-09T13:36:34Z</time>
      </trkpt>
      <trkpt lat="46.05772" lon="5.46063">
        <ele>465.2</ele>
        <time>2026-05-09T13:36:35Z</time>
      </trkpt>
      <trkpt lat="46.05774" lon="5.46062">
        <ele>465.2</ele>
        <time>2026-05-09T13:36:36Z</time>
      </trkpt>
      <trkpt lat="46.05776" lon="5.46061">
        <ele>465.6</ele>
        <time>2026-05-09T13:36:37Z</time>
      </trkpt>
      <trkpt lat="46.05777" lon="5.4606">
        <ele>465.6</ele>
        <time>2026-05-09T13:36:38Z</time>
      </trkpt>
      <trkpt lat="46.05779" lon="5.46059">
        <ele>465.8</ele>
        <time>2026-05-09T13:36:39Z</time>
      </trkpt>
      <trkpt lat="46.05781" lon="5.46058">
        <ele>465.8</ele>
        <time>2026-05-09T13:36:40Z</time>
      </trkpt>
      <trkpt lat="46.05783" lon="5.46057">
        <ele>465.8</ele>
        <time>2026-05-09T13:36:41Z</time>
      </trkpt>
      <trkpt lat="46.05784" lon="5.46056">
        <ele>466.2</ele>
        <time>2026-05-09T13:36:42Z</time>
      </trkpt>
      <trkpt lat="46.05785" lon="5.46055">
        <ele>466.2</ele>
        <time>2026-05-09T13:36:43Z</time>
      </trkpt>
      <trkpt lat="46.05787" lon="5.46053">
        <ele>466.2</ele>
        <time>2026-05-09T13:36:44Z</time>
      </trkpt>
      <trkpt lat="46.05788" lon="5.46051">
        <ele>466.2</ele>
        <time>2026-05-09T13:36:45Z</time>
      </trkpt>
      <trkpt lat="46.05789" lon="5.4605">
        <ele>466.4</ele>
        <time>2026-05-09T13:36:46Z</time>
      </trkpt>
      <trkpt lat="46.05791" lon="5.46048">
        <ele>466.6</ele>
        <time>2026-05-09T13:36:47Z</time>
      </trkpt>
      <trkpt lat="46.05792" lon="5.46047">
        <ele>466.6</ele>
        <time>2026-05-09T13:36:48Z</time>
      </trkpt>
      <trkpt lat="46.05794" lon="5.46045">
        <ele>466.8</ele>
        <time>2026-05-09T13:36:49Z</time>
      </trkpt>
      <trkpt lat="46.05795" lon="5.46043">
        <ele>467</ele>
        <time>2026-05-09T13:36:50Z</time>
      </trkpt>
      <trkpt lat="46.05795" lon="5.46043">
        <ele>467</ele>
        <time>2026-05-09T13:36:51Z</time>
      </trkpt>
      <trkpt lat="46.05797" lon="5.46041">
        <ele>467.4</ele>
        <time>2026-05-09T13:36:52Z</time>
      </trkpt>
      <trkpt lat="46.05798" lon="5.4604">
        <ele>467.4</ele>
        <time>2026-05-09T13:36:53Z</time>
      </trkpt>
      <trkpt lat="46.05799" lon="5.46038">
        <ele>467.6</ele>
        <time>2026-05-09T13:36:54Z</time>
      </trkpt>
      <trkpt lat="46.05801" lon="5.46036">
        <ele>467.6</ele>
        <time>2026-05-09T13:36:55Z</time>
      </trkpt>
      <trkpt lat="46.05802" lon="5.46034">
        <ele>467.8</ele>
        <time>2026-05-09T13:36:56Z</time>
      </trkpt>
      <trkpt lat="46.05803" lon="5.46032">
        <ele>467.8</ele>
        <time>2026-05-09T13:36:57Z</time>
      </trkpt>
      <trkpt lat="46.05804" lon="5.46031">
        <ele>468.2</ele>
        <time>2026-05-09T13:36:58Z</time>
      </trkpt>
      <trkpt lat="46.05805" lon="5.46029">
        <ele>468.2</ele>
        <time>2026-05-09T13:36:59Z</time>
      </trkpt>
      <trkpt lat="46.05806" lon="5.46027">
        <ele>468.2</ele>
        <time>2026-05-09T13:37:00Z</time>
      </trkpt>
      <trkpt lat="46.05807" lon="5.46025">
        <ele>468.4</ele>
        <time>2026-05-09T13:37:01Z</time>
      </trkpt>
      <trkpt lat="46.05808" lon="5.46023">
        <ele>468.4</ele>
        <time>2026-05-09T13:37:02Z</time>
      </trkpt>
      <trkpt lat="46.05809" lon="5.46021">
        <ele>468.4</ele>
        <time>2026-05-09T13:37:03Z</time>
      </trkpt>
      <trkpt lat="46.0581" lon="5.46019">
        <ele>468.4</ele>
        <time>2026-05-09T13:37:04Z</time>
      </trkpt>
      <trkpt lat="46.0581" lon="5.46018">
        <ele>468.4</ele>
        <time>2026-05-09T13:37:05Z</time>
      </trkpt>
      <trkpt lat="46.05811" lon="5.46016">
        <ele>468.8</ele>
        <time>2026-05-09T13:37:06Z</time>
      </trkpt>
      <trkpt lat="46.05812" lon="5.46013">
        <ele>469</ele>
        <time>2026-05-09T13:37:07Z</time>
      </trkpt>
      <trkpt lat="46.05813" lon="5.46011">
        <ele>469</ele>
        <time>2026-05-09T13:37:08Z</time>
      </trkpt>
      <trkpt lat="46.05814" lon="5.46009">
        <ele>469.2</ele>
        <time>2026-05-09T13:37:09Z</time>
      </trkpt>
      <trkpt lat="46.05815" lon="5.46007">
        <ele>469.2</ele>
        <time>2026-05-09T13:37:10Z</time>
      </trkpt>
      <trkpt lat="46.05815" lon="5.46005">
        <ele>469.6</ele>
        <time>2026-05-09T13:37:11Z</time>
      </trkpt>
      <trkpt lat="46.05816" lon="5.46003">
        <ele>469.6</ele>
        <time>2026-05-09T13:37:12Z</time>
      </trkpt>
      <trkpt lat="46.05817" lon="5.46001">
        <ele>469.8</ele>
        <time>2026-05-09T13:37:13Z</time>
      </trkpt>
      <trkpt lat="46.05818" lon="5.45998">
        <ele>469.8</ele>
        <time>2026-05-09T13:37:14Z</time>
      </trkpt>
      <trkpt lat="46.05819" lon="5.45996">
        <ele>469.8</ele>
        <time>2026-05-09T13:37:15Z</time>
      </trkpt>
      <trkpt lat="46.05819" lon="5.45994">
        <ele>470.2</ele>
        <time>2026-05-09T13:37:16Z</time>
      </trkpt>
      <trkpt lat="46.0582" lon="5.45992">
        <ele>470.2</ele>
        <time>2026-05-09T13:37:17Z</time>
      </trkpt>
      <trkpt lat="46.05821" lon="5.45989">
        <ele>470.2</ele>
        <time>2026-05-09T13:37:18Z</time>
      </trkpt>
      <trkpt lat="46.05821" lon="5.45987">
        <ele>470.4</ele>
        <time>2026-05-09T13:37:19Z</time>
      </trkpt>
      <trkpt lat="46.05822" lon="5.45985">
        <ele>470.8</ele>
        <time>2026-05-09T13:37:20Z</time>
      </trkpt>
      <trkpt lat="46.05823" lon="5.45982">
        <ele>470.8</ele>
        <time>2026-05-09T13:37:21Z</time>
      </trkpt>
      <trkpt lat="46.05823" lon="5.4598">
        <ele>471</ele>
        <time>2026-05-09T13:37:22Z</time>
      </trkpt>
      <trkpt lat="46.05824" lon="5.45978">
        <ele>471</ele>
        <time>2026-05-09T13:37:23Z</time>
      </trkpt>
      <trkpt lat="46.05825" lon="5.45976">
        <ele>471</ele>
        <time>2026-05-09T13:37:24Z</time>
      </trkpt>
      <trkpt lat="46.05825" lon="5.45974">
        <ele>471.2</ele>
        <time>2026-05-09T13:37:25Z</time>
      </trkpt>
      <trkpt lat="46.05826" lon="5.45972">
        <ele>471.2</ele>
        <time>2026-05-09T13:37:26Z</time>
      </trkpt>
      <trkpt lat="46.05827" lon="5.4597">
        <ele>471.4</ele>
        <time>2026-05-09T13:37:27Z</time>
      </trkpt>
      <trkpt lat="46.05827" lon="5.45968">
        <ele>471.4</ele>
        <time>2026-05-09T13:37:28Z</time>
      </trkpt>
      <trkpt lat="46.05828" lon="5.45965">
        <ele>471.6</ele>
        <time>2026-05-09T13:37:29Z</time>
      </trkpt>
      <trkpt lat="46.05828" lon="5.45963">
        <ele>471.6</ele>
        <time>2026-05-09T13:37:30Z</time>
      </trkpt>
      <trkpt lat="46.05829" lon="5.45961">
        <ele>472</ele>
        <time>2026-05-09T13:37:31Z</time>
      </trkpt>
      <trkpt lat="46.0583" lon="5.45959">
        <ele>472</ele>
        <time>2026-05-09T13:37:32Z</time>
      </trkpt>
      <trkpt lat="46.0583" lon="5.45957">
        <ele>472</ele>
        <time>2026-05-09T13:37:33Z</time>
      </trkpt>
      <trkpt lat="46.0583" lon="5.45954">
        <ele>472.4</ele>
        <time>2026-05-09T13:37:34Z</time>
      </trkpt>
      <trkpt lat="46.05831" lon="5.45952">
        <ele>472.4</ele>
        <time>2026-05-09T13:37:35Z</time>
      </trkpt>
      <trkpt lat="46.05832" lon="5.4595">
        <ele>472.6</ele>
        <time>2026-05-09T13:37:36Z</time>
      </trkpt>
      <trkpt lat="46.05833" lon="5.45948">
        <ele>472.6</ele>
        <time>2026-05-09T13:37:37Z</time>
      </trkpt>
      <trkpt lat="46.05834" lon="5.45946">
        <ele>472.6</ele>
        <time>2026-05-09T13:37:38Z</time>
      </trkpt>
      <trkpt lat="46.05834" lon="5.45943">
        <ele>473</ele>
        <time>2026-05-09T13:37:39Z</time>
      </trkpt>
      <trkpt lat="46.05835" lon="5.45941">
        <ele>473</ele>
        <time>2026-05-09T13:37:40Z</time>
      </trkpt>
      <trkpt lat="46.05836" lon="5.45939">
        <ele>473</ele>
        <time>2026-05-09T13:37:41Z</time>
      </trkpt>
      <trkpt lat="46.05837" lon="5.45937">
        <ele>473</ele>
        <time>2026-05-09T13:37:42Z</time>
      </trkpt>
      <trkpt lat="46.05837" lon="5.45934">
        <ele>473.2</ele>
        <time>2026-05-09T13:37:43Z</time>
      </trkpt>
      <trkpt lat="46.05838" lon="5.45933">
        <ele>473.2</ele>
        <time>2026-05-09T13:37:44Z</time>
      </trkpt>
      <trkpt lat="46.05839" lon="5.4593">
        <ele>473.2</ele>
        <time>2026-05-09T13:37:45Z</time>
      </trkpt>
      <trkpt lat="46.0584" lon="5.45928">
        <ele>473.6</ele>
        <time>2026-05-09T13:37:46Z</time>
      </trkpt>
      <trkpt lat="46.05841" lon="5.45926">
        <ele>473.6</ele>
        <time>2026-05-09T13:37:47Z</time>
      </trkpt>
      <trkpt lat="46.05842" lon="5.45924">
        <ele>473.8</ele>
        <time>2026-05-09T13:37:48Z</time>
      </trkpt>
      <trkpt lat="46.05843" lon="5.45922">
        <ele>473.8</ele>
        <time>2026-05-09T13:37:49Z</time>
      </trkpt>
      <trkpt lat="46.05844" lon="5.45919">
        <ele>473.8</ele>
        <time>2026-05-09T13:37:50Z</time>
      </trkpt>
      <trkpt lat="46.05845" lon="5.45917">
        <ele>474</ele>
        <time>2026-05-09T13:37:51Z</time>
      </trkpt>
      <trkpt lat="46.05845" lon="5.45915">
        <ele>474</ele>
        <time>2026-05-09T13:37:52Z</time>
      </trkpt>
      <trkpt lat="46.05845" lon="5.45915">
        <ele>474</ele>
        <time>2026-05-09T13:37:53Z</time>
      </trkpt>
      <trkpt lat="46.05846" lon="5.45913">
        <ele>474.4</ele>
        <time>2026-05-09T13:37:54Z</time>
      </trkpt>
      <trkpt lat="46.05846" lon="5.45911">
        <ele>474.4</ele>
        <time>2026-05-09T13:37:55Z</time>
      </trkpt>
      <trkpt lat="46.05846" lon="5.45909">
        <ele>474.4</ele>
        <time>2026-05-09T13:37:56Z</time>
      </trkpt>
      <trkpt lat="46.05846" lon="5.45907">
        <ele>474.6</ele>
        <time>2026-05-09T13:37:57Z</time>
      </trkpt>
      <trkpt lat="46.05845" lon="5.45905">
        <ele>475</ele>
        <time>2026-05-09T13:37:58Z</time>
      </trkpt>
      <trkpt lat="46.05845" lon="5.45903">
        <ele>475</ele>
        <time>2026-05-09T13:37:59Z</time>
      </trkpt>
      <trkpt lat="46.05844" lon="5.45902">
        <ele>475.2</ele>
        <time>2026-05-09T13:38:00Z</time>
      </trkpt>
      <trkpt lat="46.05843" lon="5.45901">
        <ele>475.2</ele>
        <time>2026-05-09T13:38:01Z</time>
      </trkpt>
      <trkpt lat="46.05842" lon="5.459">
        <ele>475.4</ele>
        <time>2026-05-09T13:38:02Z</time>
      </trkpt>
      <trkpt lat="46.0584" lon="5.45899">
        <ele>475.4</ele>
        <time>2026-05-09T13:38:03Z</time>
      </trkpt>
      <trkpt lat="46.05838" lon="5.45898">
        <ele>475.8</ele>
        <time>2026-05-09T13:38:04Z</time>
      </trkpt>
      <trkpt lat="46.05836" lon="5.45898">
        <ele>476</ele>
        <time>2026-05-09T13:38:05Z</time>
      </trkpt>
      <trkpt lat="46.05832" lon="5.45899">
        <ele>476</ele>
        <time>2026-05-09T13:38:06Z</time>
      </trkpt>
      <trkpt lat="46.05831" lon="5.45901">
        <ele>476.2</ele>
        <time>2026-05-09T13:38:07Z</time>
      </trkpt>
      <trkpt lat="46.0583" lon="5.45903">
        <ele>476.2</ele>
        <time>2026-05-09T13:38:08Z</time>
      </trkpt>
      <trkpt lat="46.05829" lon="5.45906">
        <ele>476.2</ele>
        <time>2026-05-09T13:38:09Z</time>
      </trkpt>
      <trkpt lat="46.05828" lon="5.45909">
        <ele>476.6</ele>
        <time>2026-05-09T13:38:10Z</time>
      </trkpt>
      <trkpt lat="46.05827" lon="5.45912">
        <ele>476.8</ele>
        <time>2026-05-09T13:38:11Z</time>
      </trkpt>
      <trkpt lat="46.05826" lon="5.45914">
        <ele>476.8</ele>
        <time>2026-05-09T13:38:12Z</time>
      </trkpt>
      <trkpt lat="46.05825" lon="5.45917">
        <ele>477.2</ele>
        <time>2026-05-09T13:38:13Z</time>
      </trkpt>
      <trkpt lat="46.05824" lon="5.45919">
        <ele>477.2</ele>
        <time>2026-05-09T13:38:14Z</time>
      </trkpt>
      <trkpt lat="46.05823" lon="5.45921">
        <ele>477.2</ele>
        <time>2026-05-09T13:38:15Z</time>
      </trkpt>
      <trkpt lat="46.05822" lon="5.45923">
        <ele>477.4</ele>
        <time>2026-05-09T13:38:16Z</time>
      </trkpt>
      <trkpt lat="46.0582" lon="5.45924">
        <ele>477.4</ele>
        <time>2026-05-09T13:38:17Z</time>
      </trkpt>
      <trkpt lat="46.05819" lon="5.45926">
        <ele>477.8</ele>
        <time>2026-05-09T13:38:18Z</time>
      </trkpt>
      <trkpt lat="46.05818" lon="5.45929">
        <ele>477.8</ele>
        <time>2026-05-09T13:38:19Z</time>
      </trkpt>
      <trkpt lat="46.05818" lon="5.45931">
        <ele>478.2</ele>
        <time>2026-05-09T13:38:20Z</time>
      </trkpt>
      <trkpt lat="46.05816" lon="5.45934">
        <ele>478.2</ele>
        <time>2026-05-09T13:38:21Z</time>
      </trkpt>
      <trkpt lat="46.05815" lon="5.45936">
        <ele>478.4</ele>
        <time>2026-05-09T13:38:22Z</time>
      </trkpt>
      <trkpt lat="46.05814" lon="5.45938">
        <ele>478.4</ele>
        <time>2026-05-09T13:38:23Z</time>
      </trkpt>
      <trkpt lat="46.05813" lon="5.45939">
        <ele>478.6</ele>
        <time>2026-05-09T13:38:24Z</time>
      </trkpt>
      <trkpt lat="46.05812" lon="5.45941">
        <ele>478.6</ele>
        <time>2026-05-09T13:38:25Z</time>
      </trkpt>
      <trkpt lat="46.05812" lon="5.45943">
        <ele>479</ele>
        <time>2026-05-09T13:38:26Z</time>
      </trkpt>
      <trkpt lat="46.05812" lon="5.45944">
        <ele>479</ele>
        <time>2026-05-09T13:38:27Z</time>
      </trkpt>
      <trkpt lat="46.05812" lon="5.45946">
        <ele>479.2</ele>
        <time>2026-05-09T13:38:28Z</time>
      </trkpt>
      <trkpt lat="46.0581" lon="5.45949">
        <ele>479.2</ele>
        <time>2026-05-09T13:38:29Z</time>
      </trkpt>
      <trkpt lat="46.05809" lon="5.45951">
        <ele>479.2</ele>
        <time>2026-05-09T13:38:30Z</time>
      </trkpt>
      <trkpt lat="46.05808" lon="5.45953">
        <ele>479.4</ele>
        <time>2026-05-09T13:38:31Z</time>
      </trkpt>
      <trkpt lat="46.05806" lon="5.45954">
        <ele>479.6</ele>
        <time>2026-05-09T13:38:32Z</time>
      </trkpt>
      <trkpt lat="46.05805" lon="5.45956">
        <ele>479.6</ele>
        <time>2026-05-09T13:38:33Z</time>
      </trkpt>
      <trkpt lat="46.05804" lon="5.45958">
        <ele>479.6</ele>
        <time>2026-05-09T13:38:34Z</time>
      </trkpt>
      <trkpt lat="46.05803" lon="5.4596">
        <ele>479.6</ele>
        <time>2026-05-09T13:38:35Z</time>
      </trkpt>
      <trkpt lat="46.05803" lon="5.45961">
        <ele>480</ele>
        <time>2026-05-09T13:38:36Z</time>
      </trkpt>
      <trkpt lat="46.05802" lon="5.45963">
        <ele>480</ele>
        <time>2026-05-09T13:38:37Z</time>
      </trkpt>
      <trkpt lat="46.058" lon="5.45964">
        <ele>480</ele>
        <time>2026-05-09T13:38:38Z</time>
      </trkpt>
      <trkpt lat="46.05799" lon="5.45966">
        <ele>480.2</ele>
        <time>2026-05-09T13:38:39Z</time>
      </trkpt>
      <trkpt lat="46.05797" lon="5.45968">
        <ele>480.2</ele>
        <time>2026-05-09T13:38:40Z</time>
      </trkpt>
      <trkpt lat="46.05796" lon="5.45969">
        <ele>480.4</ele>
        <time>2026-05-09T13:38:41Z</time>
      </trkpt>
      <trkpt lat="46.05795" lon="5.45971">
        <ele>480.4</ele>
        <time>2026-05-09T13:38:42Z</time>
      </trkpt>
      <trkpt lat="46.05793" lon="5.45973">
        <ele>480.4</ele>
        <time>2026-05-09T13:38:43Z</time>
      </trkpt>
      <trkpt lat="46.05792" lon="5.45974">
        <ele>480.8</ele>
        <time>2026-05-09T13:38:44Z</time>
      </trkpt>
      <trkpt lat="46.05791" lon="5.45974">
        <ele>480.8</ele>
        <time>2026-05-09T13:38:45Z</time>
      </trkpt>
      <trkpt lat="46.05789" lon="5.45975">
        <ele>480.8</ele>
        <time>2026-05-09T13:38:46Z</time>
      </trkpt>
      <trkpt lat="46.05788" lon="5.45977">
        <ele>481</ele>
        <time>2026-05-09T13:38:47Z</time>
      </trkpt>
      <trkpt lat="46.05786" lon="5.45979">
        <ele>481</ele>
        <time>2026-05-09T13:38:48Z</time>
      </trkpt>
      <trkpt lat="46.05784" lon="5.45982">
        <ele>481.2</ele>
        <time>2026-05-09T13:38:49Z</time>
      </trkpt>
      <trkpt lat="46.05783" lon="5.45983">
        <ele>481.2</ele>
        <time>2026-05-09T13:38:50Z</time>
      </trkpt>
      <trkpt lat="46.05782" lon="5.45984">
        <ele>481.6</ele>
        <time>2026-05-09T13:38:51Z</time>
      </trkpt>
      <trkpt lat="46.0578" lon="5.45985">
        <ele>481.6</ele>
        <time>2026-05-09T13:38:52Z</time>
      </trkpt>
      <trkpt lat="46.05778" lon="5.45987">
        <ele>481.8</ele>
        <time>2026-05-09T13:38:53Z</time>
      </trkpt>
      <trkpt lat="46.05777" lon="5.45988">
        <ele>481.8</ele>
        <time>2026-05-09T13:38:54Z</time>
      </trkpt>
      <trkpt lat="46.05775" lon="5.4599">
        <ele>481.8</ele>
        <time>2026-05-09T13:38:55Z</time>
      </trkpt>
      <trkpt lat="46.05774" lon="5.45992">
        <ele>482.2</ele>
        <time>2026-05-09T13:38:56Z</time>
      </trkpt>
      <trkpt lat="46.05772" lon="5.45993">
        <ele>482.2</ele>
        <time>2026-05-09T13:38:57Z</time>
      </trkpt>
      <trkpt lat="46.05771" lon="5.45993">
        <ele>482.2</ele>
        <time>2026-05-09T13:38:58Z</time>
      </trkpt>
      <trkpt lat="46.05769" lon="5.45993">
        <ele>482.4</ele>
        <time>2026-05-09T13:38:59Z</time>
      </trkpt>
      <trkpt lat="46.05768" lon="5.45993">
        <ele>482.6</ele>
        <time>2026-05-09T13:39:00Z</time>
      </trkpt>
      <trkpt lat="46.05766" lon="5.45994">
        <ele>482.6</ele>
        <time>2026-05-09T13:39:01Z</time>
      </trkpt>
      <trkpt lat="46.05764" lon="5.45996">
        <ele>482.8</ele>
        <time>2026-05-09T13:39:02Z</time>
      </trkpt>
      <trkpt lat="46.05763" lon="5.45997">
        <ele>482.8</ele>
        <time>2026-05-09T13:39:03Z</time>
      </trkpt>
      <trkpt lat="46.05761" lon="5.45998">
        <ele>482.8</ele>
        <time>2026-05-09T13:39:04Z</time>
      </trkpt>
      <trkpt lat="46.05759" lon="5.45999">
        <ele>483.2</ele>
        <time>2026-05-09T13:39:05Z</time>
      </trkpt>
      <trkpt lat="46.05757" lon="5.46">
        <ele>483.2</ele>
        <time>2026-05-09T13:39:06Z</time>
      </trkpt>
      <trkpt lat="46.05755" lon="5.46001">
        <ele>483.4</ele>
        <time>2026-05-09T13:39:07Z</time>
      </trkpt>
      <trkpt lat="46.05754" lon="5.46001">
        <ele>483.4</ele>
        <time>2026-05-09T13:39:08Z</time>
      </trkpt>
      <trkpt lat="46.05752" lon="5.46001">
        <ele>483.4</ele>
        <time>2026-05-09T13:39:09Z</time>
      </trkpt>
      <trkpt lat="46.0575" lon="5.46002">
        <ele>483.8</ele>
        <time>2026-05-09T13:39:10Z</time>
      </trkpt>
      <trkpt lat="46.05748" lon="5.46003">
        <ele>483.8</ele>
        <time>2026-05-09T13:39:11Z</time>
      </trkpt>
      <trkpt lat="46.05746" lon="5.46005">
        <ele>484</ele>
        <time>2026-05-09T13:39:12Z</time>
      </trkpt>
      <trkpt lat="46.05744" lon="5.46006">
        <ele>484</ele>
        <time>2026-05-09T13:39:13Z</time>
      </trkpt>
      <trkpt lat="46.05743" lon="5.46008">
        <ele>484</ele>
        <time>2026-05-09T13:39:14Z</time>
      </trkpt>
      <trkpt lat="46.05741" lon="5.46008">
        <ele>484.2</ele>
        <time>2026-05-09T13:39:15Z</time>
      </trkpt>
      <trkpt lat="46.05739" lon="5.46008">
        <ele>484.2</ele>
        <time>2026-05-09T13:39:16Z</time>
      </trkpt>
      <trkpt lat="46.05738" lon="5.46007">
        <ele>484.6</ele>
        <time>2026-05-09T13:39:17Z</time>
      </trkpt>
      <trkpt lat="46.05736" lon="5.46007">
        <ele>484.6</ele>
        <time>2026-05-09T13:39:18Z</time>
      </trkpt>
      <trkpt lat="46.05734" lon="5.46006">
        <ele>484.8</ele>
        <time>2026-05-09T13:39:19Z</time>
      </trkpt>
      <trkpt lat="46.05732" lon="5.46006">
        <ele>484.8</ele>
        <time>2026-05-09T13:39:20Z</time>
      </trkpt>
      <trkpt lat="46.0573" lon="5.46006">
        <ele>484.8</ele>
        <time>2026-05-09T13:39:21Z</time>
      </trkpt>
      <trkpt lat="46.05728" lon="5.46007">
        <ele>484.8</ele>
        <time>2026-05-09T13:39:22Z</time>
      </trkpt>
      <trkpt lat="46.05727" lon="5.46008">
        <ele>484.8</ele>
        <time>2026-05-09T13:39:23Z</time>
      </trkpt>
      <trkpt lat="46.05725" lon="5.46008">
        <ele>485.2</ele>
        <time>2026-05-09T13:39:24Z</time>
      </trkpt>
      <trkpt lat="46.05723" lon="5.46008">
        <ele>485.2</ele>
        <time>2026-05-09T13:39:25Z</time>
      </trkpt>
      <trkpt lat="46.05722" lon="5.46009">
        <ele>485.4</ele>
        <time>2026-05-09T13:39:26Z</time>
      </trkpt>
      <trkpt lat="46.0572" lon="5.46009">
        <ele>485.8</ele>
        <time>2026-05-09T13:39:27Z</time>
      </trkpt>
      <trkpt lat="46.05718" lon="5.46009">
        <ele>485.8</ele>
        <time>2026-05-09T13:39:28Z</time>
      </trkpt>
      <trkpt lat="46.05718" lon="5.46009">
        <ele>486</ele>
        <time>2026-05-09T13:39:29Z</time>
      </trkpt>
      <trkpt lat="46.05717" lon="5.46009">
        <ele>486</ele>
        <time>2026-05-09T13:39:30Z</time>
      </trkpt>
      <trkpt lat="46.05715" lon="5.46009">
        <ele>486</ele>
        <time>2026-05-09T13:39:31Z</time>
      </trkpt>
      <trkpt lat="46.05714" lon="5.46009">
        <ele>486.4</ele>
        <time>2026-05-09T13:39:32Z</time>
      </trkpt>
      <trkpt lat="46.05712" lon="5.46009">
        <ele>486.4</ele>
        <time>2026-05-09T13:39:33Z</time>
      </trkpt>
      <trkpt lat="46.0571" lon="5.4601">
        <ele>486.6</ele>
        <time>2026-05-09T13:39:34Z</time>
      </trkpt>
      <trkpt lat="46.05709" lon="5.46011">
        <ele>486.8</ele>
        <time>2026-05-09T13:39:35Z</time>
      </trkpt>
      <trkpt lat="46.05708" lon="5.46011">
        <ele>486.8</ele>
        <time>2026-05-09T13:39:36Z</time>
      </trkpt>
      <trkpt lat="46.05706" lon="5.46012">
        <ele>487.2</ele>
        <time>2026-05-09T13:39:37Z</time>
      </trkpt>
      <trkpt lat="46.05705" lon="5.46012">
        <ele>487.2</ele>
        <time>2026-05-09T13:39:38Z</time>
      </trkpt>
      <trkpt lat="46.05704" lon="5.46013">
        <ele>487.6</ele>
        <time>2026-05-09T13:39:39Z</time>
      </trkpt>
      <trkpt lat="46.05703" lon="5.46013">
        <ele>487.6</ele>
        <time>2026-05-09T13:39:40Z</time>
      </trkpt>
      <trkpt lat="46.05701" lon="5.46014">
        <ele>487.8</ele>
        <time>2026-05-09T13:39:41Z</time>
      </trkpt>
      <trkpt lat="46.057" lon="5.46014">
        <ele>487.8</ele>
        <time>2026-05-09T13:39:42Z</time>
      </trkpt>
      <trkpt lat="46.05698" lon="5.46015">
        <ele>488.2</ele>
        <time>2026-05-09T13:39:43Z</time>
      </trkpt>
      <trkpt lat="46.05697" lon="5.46015">
        <ele>488.2</ele>
        <time>2026-05-09T13:39:44Z</time>
      </trkpt>
      <trkpt lat="46.05695" lon="5.46016">
        <ele>488.4</ele>
        <time>2026-05-09T13:39:45Z</time>
      </trkpt>
      <trkpt lat="46.05694" lon="5.46017">
        <ele>488.4</ele>
        <time>2026-05-09T13:39:46Z</time>
      </trkpt>
      <trkpt lat="46.05693" lon="5.46017">
        <ele>488.4</ele>
        <time>2026-05-09T13:39:47Z</time>
      </trkpt>
      <trkpt lat="46.05691" lon="5.46017">
        <ele>488.8</ele>
        <time>2026-05-09T13:39:48Z</time>
      </trkpt>
      <trkpt lat="46.0569" lon="5.46018">
        <ele>488.8</ele>
        <time>2026-05-09T13:39:49Z</time>
      </trkpt>
      <trkpt lat="46.05689" lon="5.46018">
        <ele>489.2</ele>
        <time>2026-05-09T13:39:50Z</time>
      </trkpt>
      <trkpt lat="46.05687" lon="5.46018">
        <ele>489.2</ele>
        <time>2026-05-09T13:39:51Z</time>
      </trkpt>
      <trkpt lat="46.05686" lon="5.46019">
        <ele>489.4</ele>
        <time>2026-05-09T13:39:52Z</time>
      </trkpt>
      <trkpt lat="46.05685" lon="5.4602">
        <ele>489.4</ele>
        <time>2026-05-09T13:39:53Z</time>
      </trkpt>
      <trkpt lat="46.05683" lon="5.4602">
        <ele>489.6</ele>
        <time>2026-05-09T13:39:54Z</time>
      </trkpt>
      <trkpt lat="46.05682" lon="5.46021">
        <ele>489.6</ele>
        <time>2026-05-09T13:39:55Z</time>
      </trkpt>
      <trkpt lat="46.0568" lon="5.46021">
        <ele>490</ele>
        <time>2026-05-09T13:39:56Z</time>
      </trkpt>
      <trkpt lat="46.05679" lon="5.46022">
        <ele>490</ele>
        <time>2026-05-09T13:39:57Z</time>
      </trkpt>
      <trkpt lat="46.05677" lon="5.46022">
        <ele>490.2</ele>
        <time>2026-05-09T13:39:58Z</time>
      </trkpt>
      <trkpt lat="46.05675" lon="5.46022">
        <ele>490.2</ele>
        <time>2026-05-09T13:39:59Z</time>
      </trkpt>
      <trkpt lat="46.05674" lon="5.46023">
        <ele>490.2</ele>
        <time>2026-05-09T13:40:00Z</time>
      </trkpt>
      <trkpt lat="46.05674" lon="5.46023">
        <ele>490.6</ele>
        <time>2026-05-09T13:40:01Z</time>
      </trkpt>
      <trkpt lat="46.05674" lon="5.46023">
        <ele>490.6</ele>
        <time>2026-05-09T13:40:02Z</time>
      </trkpt>
      <trkpt lat="46.05668" lon="5.46027">
        <ele>490.6</ele>
        <time>2026-05-09T13:40:03Z</time>
      </trkpt>
      <trkpt lat="46.05666" lon="5.46029">
        <ele>490.6</ele>
        <time>2026-05-09T13:40:04Z</time>
      </trkpt>
      <trkpt lat="46.05665" lon="5.46031">
        <ele>490.6</ele>
        <time>2026-05-09T13:40:05Z</time>
      </trkpt>
      <trkpt lat="46.05663" lon="5.46033">
        <ele>490.6</ele>
        <time>2026-05-09T13:40:06Z</time>
      </trkpt>
      <trkpt lat="46.05662" lon="5.46035">
        <ele>490.8</ele>
        <time>2026-05-09T13:40:07Z</time>
      </trkpt>
      <trkpt lat="46.05661" lon="5.46037">
        <ele>490.8</ele>
        <time>2026-05-09T13:40:08Z</time>
      </trkpt>
      <trkpt lat="46.0566" lon="5.46039">
        <ele>490.8</ele>
        <time>2026-05-09T13:40:09Z</time>
      </trkpt>
      <trkpt lat="46.05659" lon="5.46041">
        <ele>491</ele>
        <time>2026-05-09T13:40:10Z</time>
      </trkpt>
      <trkpt lat="46.05659" lon="5.46043">
        <ele>491</ele>
        <time>2026-05-09T13:40:11Z</time>
      </trkpt>
      <trkpt lat="46.05659" lon="5.46045">
        <ele>491.2</ele>
        <time>2026-05-09T13:40:12Z</time>
      </trkpt>
      <trkpt lat="46.05659" lon="5.46047">
        <ele>491.2</ele>
        <time>2026-05-09T13:40:13Z</time>
      </trkpt>
      <trkpt lat="46.05658" lon="5.46049">
        <ele>491.6</ele>
        <time>2026-05-09T13:40:14Z</time>
      </trkpt>
      <trkpt lat="46.05658" lon="5.46051">
        <ele>491.6</ele>
        <time>2026-05-09T13:40:15Z</time>
      </trkpt>
      <trkpt lat="46.05657" lon="5.46053">
        <ele>491.8</ele>
        <time>2026-05-09T13:40:16Z</time>
      </trkpt>
      <trkpt lat="46.05657" lon="5.46055">
        <ele>491.8</ele>
        <time>2026-05-09T13:40:17Z</time>
      </trkpt>
      <trkpt lat="46.05656" lon="5.46057">
        <ele>492</ele>
        <time>2026-05-09T13:40:18Z</time>
      </trkpt>
      <trkpt lat="46.05655" lon="5.46058">
        <ele>492.6</ele>
        <time>2026-05-09T13:40:19Z</time>
      </trkpt>
      <trkpt lat="46.05654" lon="5.4606">
        <ele>492.6</ele>
        <time>2026-05-09T13:40:20Z</time>
      </trkpt>
      <trkpt lat="46.05654" lon="5.46061">
        <ele>492.6</ele>
        <time>2026-05-09T13:40:21Z</time>
      </trkpt>
      <trkpt lat="46.05653" lon="5.46063">
        <ele>493</ele>
        <time>2026-05-09T13:40:22Z</time>
      </trkpt>
      <trkpt lat="46.05652" lon="5.46066">
        <ele>493</ele>
        <time>2026-05-09T13:40:23Z</time>
      </trkpt>
      <trkpt lat="46.05652" lon="5.46068">
        <ele>493</ele>
        <time>2026-05-09T13:40:24Z</time>
      </trkpt>
      <trkpt lat="46.05651" lon="5.4607">
        <ele>493.2</ele>
        <time>2026-05-09T13:40:25Z</time>
      </trkpt>
      <trkpt lat="46.0565" lon="5.46072">
        <ele>493.4</ele>
        <time>2026-05-09T13:40:26Z</time>
      </trkpt>
      <trkpt lat="46.05649" lon="5.46074">
        <ele>493.4</ele>
        <time>2026-05-09T13:40:27Z</time>
      </trkpt>
      <trkpt lat="46.05647" lon="5.46076">
        <ele>493.8</ele>
        <time>2026-05-09T13:40:28Z</time>
      </trkpt>
      <trkpt lat="46.05646" lon="5.46077">
        <ele>493.8</ele>
        <time>2026-05-09T13:40:29Z</time>
      </trkpt>
      <trkpt lat="46.05646" lon="5.46079">
        <ele>493.8</ele>
        <time>2026-05-09T13:40:30Z</time>
      </trkpt>
      <trkpt lat="46.05646" lon="5.46082">
        <ele>494</ele>
        <time>2026-05-09T13:40:31Z</time>
      </trkpt>
      <trkpt lat="46.05646" lon="5.46085">
        <ele>494</ele>
        <time>2026-05-09T13:40:32Z</time>
      </trkpt>
      <trkpt lat="46.05647" lon="5.46087">
        <ele>494.4</ele>
        <time>2026-05-09T13:40:33Z</time>
      </trkpt>
      <trkpt lat="46.05647" lon="5.4609">
        <ele>494.4</ele>
        <time>2026-05-09T13:40:34Z</time>
      </trkpt>
      <trkpt lat="46.05647" lon="5.46092">
        <ele>494.4</ele>
        <time>2026-05-09T13:40:35Z</time>
      </trkpt>
      <trkpt lat="46.05648" lon="5.46097">
        <ele>494.4</ele>
        <time>2026-05-09T13:40:36Z</time>
      </trkpt>
      <trkpt lat="46.05648" lon="5.46099">
        <ele>494.8</ele>
        <time>2026-05-09T13:40:37Z</time>
      </trkpt>
      <trkpt lat="46.05647" lon="5.46101">
        <ele>494.8</ele>
        <time>2026-05-09T13:40:38Z</time>
      </trkpt>
      <trkpt lat="46.05646" lon="5.46103">
        <ele>495.2</ele>
        <time>2026-05-09T13:40:39Z</time>
      </trkpt>
      <trkpt lat="46.05645" lon="5.46104">
        <ele>495.2</ele>
        <time>2026-05-09T13:40:40Z</time>
      </trkpt>
      <trkpt lat="46.05644" lon="5.46105">
        <ele>495.2</ele>
        <time>2026-05-09T13:40:41Z</time>
      </trkpt>
      <trkpt lat="46.05643" lon="5.46106">
        <ele>495.4</ele>
        <time>2026-05-09T13:40:42Z</time>
      </trkpt>
      <trkpt lat="46.05642" lon="5.46107">
        <ele>495.4</ele>
        <time>2026-05-09T13:40:43Z</time>
      </trkpt>
      <trkpt lat="46.05642" lon="5.46107">
        <ele>495.4</ele>
        <time>2026-05-09T13:40:44Z</time>
      </trkpt>
      <trkpt lat="46.05641" lon="5.46112">
        <ele>495.6</ele>
        <time>2026-05-09T13:40:45Z</time>
      </trkpt>
      <trkpt lat="46.0564" lon="5.46115">
        <ele>495.6</ele>
        <time>2026-05-09T13:40:46Z</time>
      </trkpt>
      <trkpt lat="46.05639" lon="5.46117">
        <ele>495.8</ele>
        <time>2026-05-09T13:40:47Z</time>
      </trkpt>
      <trkpt lat="46.05638" lon="5.46118">
        <ele>495.8</ele>
        <time>2026-05-09T13:40:48Z</time>
      </trkpt>
      <trkpt lat="46.05637" lon="5.4612">
        <ele>495.8</ele>
        <time>2026-05-09T13:40:49Z</time>
      </trkpt>
      <trkpt lat="46.05636" lon="5.46122">
        <ele>495.8</ele>
        <time>2026-05-09T13:40:50Z</time>
      </trkpt>
      <trkpt lat="46.05635" lon="5.46124">
        <ele>496</ele>
        <time>2026-05-09T13:40:51Z</time>
      </trkpt>
      <trkpt lat="46.05634" lon="5.46127">
        <ele>496</ele>
        <time>2026-05-09T13:40:52Z</time>
      </trkpt>
      <trkpt lat="46.05633" lon="5.46128">
        <ele>496.4</ele>
        <time>2026-05-09T13:40:53Z</time>
      </trkpt>
      <trkpt lat="46.05632" lon="5.4613">
        <ele>496.4</ele>
        <time>2026-05-09T13:40:54Z</time>
      </trkpt>
      <trkpt lat="46.05632" lon="5.46132">
        <ele>496.8</ele>
        <time>2026-05-09T13:40:55Z</time>
      </trkpt>
      <trkpt lat="46.05631" lon="5.46132">
        <ele>496.8</ele>
        <time>2026-05-09T13:40:56Z</time>
      </trkpt>
      <trkpt lat="46.05631" lon="5.46133">
        <ele>496.8</ele>
        <time>2026-05-09T13:40:57Z</time>
      </trkpt>
      <trkpt lat="46.0563" lon="5.46135">
        <ele>497</ele>
        <time>2026-05-09T13:40:58Z</time>
      </trkpt>
      <trkpt lat="46.0563" lon="5.46137">
        <ele>497</ele>
        <time>2026-05-09T13:40:59Z</time>
      </trkpt>
      <trkpt lat="46.0563" lon="5.4614">
        <ele>497.4</ele>
        <time>2026-05-09T13:41:00Z</time>
      </trkpt>
      <trkpt lat="46.05629" lon="5.46142">
        <ele>497.4</ele>
        <time>2026-05-09T13:41:01Z</time>
      </trkpt>
      <trkpt lat="46.05629" lon="5.46143">
        <ele>497.4</ele>
        <time>2026-05-09T13:41:02Z</time>
      </trkpt>
      <trkpt lat="46.05629" lon="5.46143">
        <ele>497.8</ele>
        <time>2026-05-09T13:41:03Z</time>
      </trkpt>
      <trkpt lat="46.05629" lon="5.46145">
        <ele>497.8</ele>
        <time>2026-05-09T13:41:04Z</time>
      </trkpt>
      <trkpt lat="46.05629" lon="5.46147">
        <ele>498</ele>
        <time>2026-05-09T13:41:05Z</time>
      </trkpt>
      <trkpt lat="46.05629" lon="5.46148">
        <ele>498</ele>
        <time>2026-05-09T13:41:06Z</time>
      </trkpt>
      <trkpt lat="46.05629" lon="5.46149">
        <ele>498</ele>
        <time>2026-05-09T13:41:07Z</time>
      </trkpt>
      <trkpt lat="46.05629" lon="5.46152">
        <ele>498.4</ele>
        <time>2026-05-09T13:41:08Z</time>
      </trkpt>
      <trkpt lat="46.05628" lon="5.46154">
        <ele>498.4</ele>
        <time>2026-05-09T13:41:09Z</time>
      </trkpt>
      <trkpt lat="46.05628" lon="5.46156">
        <ele>498.6</ele>
        <time>2026-05-09T13:41:10Z</time>
      </trkpt>
      <trkpt lat="46.05628" lon="5.46158">
        <ele>498.6</ele>
        <time>2026-05-09T13:41:11Z</time>
      </trkpt>
      <trkpt lat="46.05628" lon="5.46159">
        <ele>498.8</ele>
        <time>2026-05-09T13:41:12Z</time>
      </trkpt>
      <trkpt lat="46.05627" lon="5.46162">
        <ele>498.8</ele>
        <time>2026-05-09T13:41:13Z</time>
      </trkpt>
      <trkpt lat="46.05627" lon="5.46165">
        <ele>498.8</ele>
        <time>2026-05-09T13:41:14Z</time>
      </trkpt>
      <trkpt lat="46.05627" lon="5.46167">
        <ele>499.2</ele>
        <time>2026-05-09T13:41:15Z</time>
      </trkpt>
      <trkpt lat="46.05627" lon="5.4617">
        <ele>499.2</ele>
        <time>2026-05-09T13:41:16Z</time>
      </trkpt>
      <trkpt lat="46.05627" lon="5.46173">
        <ele>499.4</ele>
        <time>2026-05-09T13:41:17Z</time>
      </trkpt>
      <trkpt lat="46.05627" lon="5.46175">
        <ele>499.4</ele>
        <time>2026-05-09T13:41:18Z</time>
      </trkpt>
      <trkpt lat="46.05627" lon="5.46179">
        <ele>499.6</ele>
        <time>2026-05-09T13:41:19Z</time>
      </trkpt>
      <trkpt lat="46.05627" lon="5.46181">
        <ele>499.6</ele>
        <time>2026-05-09T13:41:20Z</time>
      </trkpt>
      <trkpt lat="46.05627" lon="5.46184">
        <ele>499.6</ele>
        <time>2026-05-09T13:41:21Z</time>
      </trkpt>
      <trkpt lat="46.05627" lon="5.46187">
        <ele>499.6</ele>
        <time>2026-05-09T13:41:22Z</time>
      </trkpt>
      <trkpt lat="46.05627" lon="5.46189">
        <ele>499.6</ele>
        <time>2026-05-09T13:41:23Z</time>
      </trkpt>
      <trkpt lat="46.05627" lon="5.46192">
        <ele>499.8</ele>
        <time>2026-05-09T13:41:24Z</time>
      </trkpt>
      <trkpt lat="46.05627" lon="5.46195">
        <ele>499.8</ele>
        <time>2026-05-09T13:41:25Z</time>
      </trkpt>
      <trkpt lat="46.05627" lon="5.46198">
        <ele>499.8</ele>
        <time>2026-05-09T13:41:26Z</time>
      </trkpt>
      <trkpt lat="46.05627" lon="5.46201">
        <ele>500</ele>
        <time>2026-05-09T13:41:27Z</time>
      </trkpt>
      <trkpt lat="46.05627" lon="5.46203">
        <ele>500</ele>
        <time>2026-05-09T13:41:28Z</time>
      </trkpt>
      <trkpt lat="46.05627" lon="5.46206">
        <ele>500</ele>
        <time>2026-05-09T13:41:29Z</time>
      </trkpt>
      <trkpt lat="46.05627" lon="5.46209">
        <ele>500.4</ele>
        <time>2026-05-09T13:41:30Z</time>
      </trkpt>
      <trkpt lat="46.05627" lon="5.46212">
        <ele>500.4</ele>
        <time>2026-05-09T13:41:31Z</time>
      </trkpt>
      <trkpt lat="46.05626" lon="5.46214">
        <ele>500.6</ele>
        <time>2026-05-09T13:41:32Z</time>
      </trkpt>
      <trkpt lat="46.05626" lon="5.46216">
        <ele>500.6</ele>
        <time>2026-05-09T13:41:33Z</time>
      </trkpt>
      <trkpt lat="46.05625" lon="5.46218">
        <ele>500.6</ele>
        <time>2026-05-09T13:41:34Z</time>
      </trkpt>
      <trkpt lat="46.05625" lon="5.4622">
        <ele>500.6</ele>
        <time>2026-05-09T13:41:35Z</time>
      </trkpt>
      <trkpt lat="46.05625" lon="5.46222">
        <ele>501</ele>
        <time>2026-05-09T13:41:36Z</time>
      </trkpt>
      <trkpt lat="46.05624" lon="5.46224">
        <ele>501.2</ele>
        <time>2026-05-09T13:41:37Z</time>
      </trkpt>
      <trkpt lat="46.05624" lon="5.46226">
        <ele>501.4</ele>
        <time>2026-05-09T13:41:38Z</time>
      </trkpt>
      <trkpt lat="46.05623" lon="5.46228">
        <ele>501.4</ele>
        <time>2026-05-09T13:41:39Z</time>
      </trkpt>
      <trkpt lat="46.05621" lon="5.46229">
        <ele>501.4</ele>
        <time>2026-05-09T13:41:40Z</time>
      </trkpt>
      <trkpt lat="46.0562" lon="5.4623">
        <ele>501.8</ele>
        <time>2026-05-09T13:41:41Z</time>
      </trkpt>
      <trkpt lat="46.05619" lon="5.46231">
        <ele>501.8</ele>
        <time>2026-05-09T13:41:42Z</time>
      </trkpt>
      <trkpt lat="46.05618" lon="5.46232">
        <ele>502</ele>
        <time>2026-05-09T13:41:43Z</time>
      </trkpt>
      <trkpt lat="46.05616" lon="5.46233">
        <ele>502</ele>
        <time>2026-05-09T13:41:44Z</time>
      </trkpt>
      <trkpt lat="46.05615" lon="5.46235">
        <ele>502</ele>
        <time>2026-05-09T13:41:45Z</time>
      </trkpt>
      <trkpt lat="46.05613" lon="5.46236">
        <ele>502.2</ele>
        <time>2026-05-09T13:41:46Z</time>
      </trkpt>
      <trkpt lat="46.05612" lon="5.46237">
        <ele>502.2</ele>
        <time>2026-05-09T13:41:47Z</time>
      </trkpt>
      <trkpt lat="46.0561" lon="5.46238">
        <ele>502.8</ele>
        <time>2026-05-09T13:41:48Z</time>
      </trkpt>
      <trkpt lat="46.05609" lon="5.46239">
        <ele>503.2</ele>
        <time>2026-05-09T13:41:49Z</time>
      </trkpt>
      <trkpt lat="46.05608" lon="5.46239">
        <ele>503.4</ele>
        <time>2026-05-09T13:41:50Z</time>
      </trkpt>
      <trkpt lat="46.05606" lon="5.46239">
        <ele>503.4</ele>
        <time>2026-05-09T13:41:51Z</time>
      </trkpt>
      <trkpt lat="46.05604" lon="5.4624">
        <ele>503.4</ele>
        <time>2026-05-09T13:41:52Z</time>
      </trkpt>
      <trkpt lat="46.05602" lon="5.46239">
        <ele>503.8</ele>
        <time>2026-05-09T13:41:53Z</time>
      </trkpt>
      <trkpt lat="46.056" lon="5.46239">
        <ele>503.8</ele>
        <time>2026-05-09T13:41:54Z</time>
      </trkpt>
      <trkpt lat="46.05598" lon="5.46239">
        <ele>503.8</ele>
        <time>2026-05-09T13:41:55Z</time>
      </trkpt>
      <trkpt lat="46.05597" lon="5.46239">
        <ele>504.2</ele>
        <time>2026-05-09T13:41:56Z</time>
      </trkpt>
      <trkpt lat="46.05595" lon="5.4624">
        <ele>504.4</ele>
        <time>2026-05-09T13:41:57Z</time>
      </trkpt>
      <trkpt lat="46.05593" lon="5.4624">
        <ele>504.8</ele>
        <time>2026-05-09T13:41:58Z</time>
      </trkpt>
      <trkpt lat="46.05592" lon="5.4624">
        <ele>504.8</ele>
        <time>2026-05-09T13:41:59Z</time>
      </trkpt>
      <trkpt lat="46.0559" lon="5.46241">
        <ele>504.8</ele>
        <time>2026-05-09T13:42:00Z</time>
      </trkpt>
      <trkpt lat="46.05587" lon="5.46242">
        <ele>504.8</ele>
        <time>2026-05-09T13:42:01Z</time>
      </trkpt>
      <trkpt lat="46.05586" lon="5.46243">
        <ele>504.8</ele>
        <time>2026-05-09T13:42:02Z</time>
      </trkpt>
      <trkpt lat="46.05584" lon="5.46244">
        <ele>504.8</ele>
        <time>2026-05-09T13:42:03Z</time>
      </trkpt>
      <trkpt lat="46.05583" lon="5.46244">
        <ele>504.8</ele>
        <time>2026-05-09T13:42:04Z</time>
      </trkpt>
      <trkpt lat="46.05581" lon="5.46244">
        <ele>504.8</ele>
        <time>2026-05-09T13:42:05Z</time>
      </trkpt>
      <trkpt lat="46.0558" lon="5.46244">
        <ele>504.8</ele>
        <time>2026-05-09T13:42:06Z</time>
      </trkpt>
      <trkpt lat="46.05578" lon="5.46245">
        <ele>504.8</ele>
        <time>2026-05-09T13:42:07Z</time>
      </trkpt>
      <trkpt lat="46.05577" lon="5.46245">
        <ele>504.8</ele>
        <time>2026-05-09T13:42:08Z</time>
      </trkpt>
      <trkpt lat="46.05575" lon="5.46245">
        <ele>504.8</ele>
        <time>2026-05-09T13:42:09Z</time>
      </trkpt>
      <trkpt lat="46.05574" lon="5.46245">
        <ele>504.8</ele>
        <time>2026-05-09T13:42:10Z</time>
      </trkpt>
      <trkpt lat="46.05573" lon="5.46245">
        <ele>504.8</ele>
        <time>2026-05-09T13:42:11Z</time>
      </trkpt>
      <trkpt lat="46.05571" lon="5.46247">
        <ele>504.8</ele>
        <time>2026-05-09T13:42:12Z</time>
      </trkpt>
      <trkpt lat="46.05569" lon="5.46248">
        <ele>504.8</ele>
        <time>2026-05-09T13:42:13Z</time>
      </trkpt>
      <trkpt lat="46.05568" lon="5.46249">
        <ele>504.8</ele>
        <time>2026-05-09T13:42:14Z</time>
      </trkpt>
      <trkpt lat="46.05566" lon="5.4625">
        <ele>504.4</ele>
        <time>2026-05-09T13:42:15Z</time>
      </trkpt>
      <trkpt lat="46.05562" lon="5.46253">
        <ele>504.4</ele>
        <time>2026-05-09T13:42:16Z</time>
      </trkpt>
      <trkpt lat="46.0556" lon="5.46255">
        <ele>504.2</ele>
        <time>2026-05-09T13:42:17Z</time>
      </trkpt>
      <trkpt lat="46.05558" lon="5.46258">
        <ele>504.2</ele>
        <time>2026-05-09T13:42:18Z</time>
      </trkpt>
      <trkpt lat="46.05556" lon="5.46261">
        <ele>503.8</ele>
        <time>2026-05-09T13:42:19Z</time>
      </trkpt>
      <trkpt lat="46.05554" lon="5.46265">
        <ele>503.8</ele>
        <time>2026-05-09T13:42:20Z</time>
      </trkpt>
      <trkpt lat="46.05551" lon="5.46269">
        <ele>503.6</ele>
        <time>2026-05-09T13:42:21Z</time>
      </trkpt>
      <trkpt lat="46.05548" lon="5.46272">
        <ele>503.6</ele>
        <time>2026-05-09T13:42:22Z</time>
      </trkpt>
      <trkpt lat="46.05544" lon="5.46276">
        <ele>503.2</ele>
        <time>2026-05-09T13:42:23Z</time>
      </trkpt>
      <trkpt lat="46.0554" lon="5.46281">
        <ele>503.2</ele>
        <time>2026-05-09T13:42:24Z</time>
      </trkpt>
      <trkpt lat="46.05536" lon="5.46285">
        <ele>503</ele>
        <time>2026-05-09T13:42:25Z</time>
      </trkpt>
      <trkpt lat="46.05532" lon="5.4629">
        <ele>503</ele>
        <time>2026-05-09T13:42:26Z</time>
      </trkpt>
      <trkpt lat="46.05529" lon="5.46296">
        <ele>502.6</ele>
        <time>2026-05-09T13:42:27Z</time>
      </trkpt>
      <trkpt lat="46.05524" lon="5.463">
        <ele>502.6</ele>
        <time>2026-05-09T13:42:28Z</time>
      </trkpt>
      <trkpt lat="46.0552" lon="5.46303">
        <ele>502.2</ele>
        <time>2026-05-09T13:42:29Z</time>
      </trkpt>
      <trkpt lat="46.05515" lon="5.46309">
        <ele>501.8</ele>
        <time>2026-05-09T13:42:30Z</time>
      </trkpt>
      <trkpt lat="46.0551" lon="5.46313">
        <ele>501.6</ele>
        <time>2026-05-09T13:42:31Z</time>
      </trkpt>
      <trkpt lat="46.05505" lon="5.46318">
        <ele>501.6</ele>
        <time>2026-05-09T13:42:32Z</time>
      </trkpt>
      <trkpt lat="46.05499" lon="5.46322">
        <ele>501.2</ele>
        <time>2026-05-09T13:42:33Z</time>
      </trkpt>
      <trkpt lat="46.05494" lon="5.46326">
        <ele>501.2</ele>
        <time>2026-05-09T13:42:34Z</time>
      </trkpt>
      <trkpt lat="46.05489" lon="5.4633">
        <ele>501</ele>
        <time>2026-05-09T13:42:35Z</time>
      </trkpt>
      <trkpt lat="46.05484" lon="5.46333">
        <ele>501</ele>
        <time>2026-05-09T13:42:36Z</time>
      </trkpt>
      <trkpt lat="46.05479" lon="5.46337">
        <ele>500.6</ele>
        <time>2026-05-09T13:42:37Z</time>
      </trkpt>
      <trkpt lat="46.05474" lon="5.46341">
        <ele>500.2</ele>
        <time>2026-05-09T13:42:38Z</time>
      </trkpt>
      <trkpt lat="46.05469" lon="5.46344">
        <ele>500.2</ele>
        <time>2026-05-09T13:42:39Z</time>
      </trkpt>
      <trkpt lat="46.05463" lon="5.46347">
        <ele>499.8</ele>
        <time>2026-05-09T13:42:40Z</time>
      </trkpt>
      <trkpt lat="46.05457" lon="5.46351">
        <ele>499.6</ele>
        <time>2026-05-09T13:42:41Z</time>
      </trkpt>
      <trkpt lat="46.05451" lon="5.46354">
        <ele>499.2</ele>
        <time>2026-05-09T13:42:42Z</time>
      </trkpt>
      <trkpt lat="46.05445" lon="5.46356">
        <ele>499.2</ele>
        <time>2026-05-09T13:42:43Z</time>
      </trkpt>
      <trkpt lat="46.05439" lon="5.4636">
        <ele>498.8</ele>
        <time>2026-05-09T13:42:44Z</time>
      </trkpt>
      <trkpt lat="46.05432" lon="5.46364">
        <ele>498.4</ele>
        <time>2026-05-09T13:42:45Z</time>
      </trkpt>
      <trkpt lat="46.05426" lon="5.46367">
        <ele>498.2</ele>
        <time>2026-05-09T13:42:46Z</time>
      </trkpt>
      <trkpt lat="46.05419" lon="5.46371">
        <ele>498.2</ele>
        <time>2026-05-09T13:42:47Z</time>
      </trkpt>
      <trkpt lat="46.05412" lon="5.46375">
        <ele>497.8</ele>
        <time>2026-05-09T13:42:48Z</time>
      </trkpt>
      <trkpt lat="46.05405" lon="5.46379">
        <ele>497.6</ele>
        <time>2026-05-09T13:42:49Z</time>
      </trkpt>
      <trkpt lat="46.05398" lon="5.46383">
        <ele>497.2</ele>
        <time>2026-05-09T13:42:50Z</time>
      </trkpt>
      <trkpt lat="46.05391" lon="5.46387">
        <ele>497</ele>
        <time>2026-05-09T13:42:51Z</time>
      </trkpt>
      <trkpt lat="46.05384" lon="5.46392">
        <ele>496.6</ele>
        <time>2026-05-09T13:42:52Z</time>
      </trkpt>
      <trkpt lat="46.05377" lon="5.46397">
        <ele>496.4</ele>
        <time>2026-05-09T13:42:53Z</time>
      </trkpt>
      <trkpt lat="46.0537" lon="5.46401">
        <ele>496</ele>
        <time>2026-05-09T13:42:54Z</time>
      </trkpt>
      <trkpt lat="46.05364" lon="5.46406">
        <ele>495.6</ele>
        <time>2026-05-09T13:42:55Z</time>
      </trkpt>
      <trkpt lat="46.05357" lon="5.4641">
        <ele>495.4</ele>
        <time>2026-05-09T13:42:56Z</time>
      </trkpt>
      <trkpt lat="46.05351" lon="5.46414">
        <ele>495.4</ele>
        <time>2026-05-09T13:42:57Z</time>
      </trkpt>
      <trkpt lat="46.05344" lon="5.46418">
        <ele>495</ele>
        <time>2026-05-09T13:42:58Z</time>
      </trkpt>
      <trkpt lat="46.05337" lon="5.4642">
        <ele>494.6</ele>
        <time>2026-05-09T13:42:59Z</time>
      </trkpt>
      <trkpt lat="46.05331" lon="5.46422">
        <ele>494.4</ele>
        <time>2026-05-09T13:43:00Z</time>
      </trkpt>
      <trkpt lat="46.05324" lon="5.46425">
        <ele>494.4</ele>
        <time>2026-05-09T13:43:01Z</time>
      </trkpt>
      <trkpt lat="46.05318" lon="5.46427">
        <ele>494.4</ele>
        <time>2026-05-09T13:43:02Z</time>
      </trkpt>
      <trkpt lat="46.05312" lon="5.46429">
        <ele>494</ele>
        <time>2026-05-09T13:43:03Z</time>
      </trkpt>
      <trkpt lat="46.05306" lon="5.46432">
        <ele>494</ele>
        <time>2026-05-09T13:43:04Z</time>
      </trkpt>
      <trkpt lat="46.053" lon="5.46434">
        <ele>494</ele>
        <time>2026-05-09T13:43:05Z</time>
      </trkpt>
      <trkpt lat="46.05294" lon="5.46435">
        <ele>493.8</ele>
        <time>2026-05-09T13:43:06Z</time>
      </trkpt>
      <trkpt lat="46.05288" lon="5.46436">
        <ele>493.8</ele>
        <time>2026-05-09T13:43:07Z</time>
      </trkpt>
      <trkpt lat="46.05282" lon="5.46436">
        <ele>493.8</ele>
        <time>2026-05-09T13:43:08Z</time>
      </trkpt>
      <trkpt lat="46.05276" lon="5.46435">
        <ele>493.8</ele>
        <time>2026-05-09T13:43:09Z</time>
      </trkpt>
      <trkpt lat="46.05271" lon="5.46433">
        <ele>493.8</ele>
        <time>2026-05-09T13:43:10Z</time>
      </trkpt>
      <trkpt lat="46.05265" lon="5.46431">
        <ele>493.6</ele>
        <time>2026-05-09T13:43:11Z</time>
      </trkpt>
      <trkpt lat="46.0526" lon="5.46428">
        <ele>493.6</ele>
        <time>2026-05-09T13:43:12Z</time>
      </trkpt>
      <trkpt lat="46.05255" lon="5.46425">
        <ele>493.6</ele>
        <time>2026-05-09T13:43:13Z</time>
      </trkpt>
      <trkpt lat="46.0525" lon="5.46422">
        <ele>493.8</ele>
        <time>2026-05-09T13:43:14Z</time>
      </trkpt>
      <trkpt lat="46.05246" lon="5.46419">
        <ele>493.8</ele>
        <time>2026-05-09T13:43:15Z</time>
      </trkpt>
      <trkpt lat="46.05242" lon="5.46415">
        <ele>494</ele>
        <time>2026-05-09T13:43:16Z</time>
      </trkpt>
      <trkpt lat="46.05237" lon="5.46412">
        <ele>494</ele>
        <time>2026-05-09T13:43:17Z</time>
      </trkpt>
      <trkpt lat="46.05233" lon="5.46408">
        <ele>494</ele>
        <time>2026-05-09T13:43:18Z</time>
      </trkpt>
      <trkpt lat="46.05229" lon="5.46405">
        <ele>494.4</ele>
        <time>2026-05-09T13:43:19Z</time>
      </trkpt>
      <trkpt lat="46.05226" lon="5.46401">
        <ele>494.4</ele>
        <time>2026-05-09T13:43:20Z</time>
      </trkpt>
      <trkpt lat="46.05222" lon="5.46398">
        <ele>494.4</ele>
        <time>2026-05-09T13:43:21Z</time>
      </trkpt>
      <trkpt lat="46.05219" lon="5.46394">
        <ele>494.8</ele>
        <time>2026-05-09T13:43:22Z</time>
      </trkpt>
      <trkpt lat="46.05216" lon="5.46391">
        <ele>494.8</ele>
        <time>2026-05-09T13:43:23Z</time>
      </trkpt>
      <trkpt lat="46.05213" lon="5.46386">
        <ele>495</ele>
        <time>2026-05-09T13:43:24Z</time>
      </trkpt>
      <trkpt lat="46.05209" lon="5.46383">
        <ele>495</ele>
        <time>2026-05-09T13:43:25Z</time>
      </trkpt>
      <trkpt lat="46.05206" lon="5.46379">
        <ele>495</ele>
        <time>2026-05-09T13:43:26Z</time>
      </trkpt>
      <trkpt lat="46.05201" lon="5.46375">
        <ele>495</ele>
        <time>2026-05-09T13:43:27Z</time>
      </trkpt>
      <trkpt lat="46.05197" lon="5.46371">
        <ele>495</ele>
        <time>2026-05-09T13:43:28Z</time>
      </trkpt>
      <trkpt lat="46.05192" lon="5.46369">
        <ele>495</ele>
        <time>2026-05-09T13:43:29Z</time>
      </trkpt>
      <trkpt lat="46.05188" lon="5.46367">
        <ele>495</ele>
        <time>2026-05-09T13:43:30Z</time>
      </trkpt>
      <trkpt lat="46.05183" lon="5.46366">
        <ele>495.2</ele>
        <time>2026-05-09T13:43:31Z</time>
      </trkpt>
      <trkpt lat="46.05179" lon="5.46365">
        <ele>495.2</ele>
        <time>2026-05-09T13:43:32Z</time>
      </trkpt>
      <trkpt lat="46.05175" lon="5.46364">
        <ele>495.2</ele>
        <time>2026-05-09T13:43:33Z</time>
      </trkpt>
      <trkpt lat="46.0517" lon="5.46363">
        <ele>495.2</ele>
        <time>2026-05-09T13:43:34Z</time>
      </trkpt>
      <trkpt lat="46.05165" lon="5.46361">
        <ele>495.2</ele>
        <time>2026-05-09T13:43:35Z</time>
      </trkpt>
      <trkpt lat="46.05161" lon="5.4636">
        <ele>495.2</ele>
        <time>2026-05-09T13:43:36Z</time>
      </trkpt>
      <trkpt lat="46.05156" lon="5.46358">
        <ele>495.2</ele>
        <time>2026-05-09T13:43:37Z</time>
      </trkpt>
      <trkpt lat="46.05152" lon="5.46356">
        <ele>495</ele>
        <time>2026-05-09T13:43:38Z</time>
      </trkpt>
      <trkpt lat="46.05147" lon="5.46355">
        <ele>495</ele>
        <time>2026-05-09T13:43:39Z</time>
      </trkpt>
      <trkpt lat="46.05143" lon="5.46353">
        <ele>495</ele>
        <time>2026-05-09T13:43:40Z</time>
      </trkpt>
      <trkpt lat="46.05138" lon="5.46352">
        <ele>495</ele>
        <time>2026-05-09T13:43:41Z</time>
      </trkpt>
      <trkpt lat="46.05134" lon="5.46351">
        <ele>495</ele>
        <time>2026-05-09T13:43:42Z</time>
      </trkpt>
      <trkpt lat="46.05134" lon="5.46351">
        <ele>495.2</ele>
        <time>2026-05-09T13:43:43Z</time>
      </trkpt>
      <trkpt lat="46.0513" lon="5.4635">
        <ele>495.2</ele>
        <time>2026-05-09T13:43:44Z</time>
      </trkpt>
      <trkpt lat="46.05126" lon="5.46348">
        <ele>495.2</ele>
        <time>2026-05-09T13:43:45Z</time>
      </trkpt>
      <trkpt lat="46.05121" lon="5.46347">
        <ele>495.2</ele>
        <time>2026-05-09T13:43:46Z</time>
      </trkpt>
      <trkpt lat="46.05117" lon="5.46345">
        <ele>495.2</ele>
        <time>2026-05-09T13:43:47Z</time>
      </trkpt>
      <trkpt lat="46.05112" lon="5.46343">
        <ele>495.2</ele>
        <time>2026-05-09T13:43:48Z</time>
      </trkpt>
      <trkpt lat="46.05109" lon="5.46344">
        <ele>495.2</ele>
        <time>2026-05-09T13:43:49Z</time>
      </trkpt>
      <trkpt lat="46.05104" lon="5.46343">
        <ele>495.2</ele>
        <time>2026-05-09T13:43:50Z</time>
      </trkpt>
      <trkpt lat="46.051" lon="5.46341">
        <ele>495.2</ele>
        <time>2026-05-09T13:43:51Z</time>
      </trkpt>
      <trkpt lat="46.05096" lon="5.4634">
        <ele>495.2</ele>
        <time>2026-05-09T13:43:52Z</time>
      </trkpt>
      <trkpt lat="46.05091" lon="5.46338">
        <ele>495.2</ele>
        <time>2026-05-09T13:43:53Z</time>
      </trkpt>
      <trkpt lat="46.05087" lon="5.46337">
        <ele>495.2</ele>
        <time>2026-05-09T13:43:54Z</time>
      </trkpt>
      <trkpt lat="46.05083" lon="5.46336">
        <ele>495.2</ele>
        <time>2026-05-09T13:43:55Z</time>
      </trkpt>
      <trkpt lat="46.05079" lon="5.46334">
        <ele>495.2</ele>
        <time>2026-05-09T13:43:56Z</time>
      </trkpt>
      <trkpt lat="46.05074" lon="5.46332">
        <ele>495.6</ele>
        <time>2026-05-09T13:43:57Z</time>
      </trkpt>
      <trkpt lat="46.0507" lon="5.46331">
        <ele>495.6</ele>
        <time>2026-05-09T13:43:58Z</time>
      </trkpt>
      <trkpt lat="46.05066" lon="5.46329">
        <ele>495.6</ele>
        <time>2026-05-09T13:43:59Z</time>
      </trkpt>
      <trkpt lat="46.05061" lon="5.46329">
        <ele>495.6</ele>
        <time>2026-05-09T13:44:00Z</time>
      </trkpt>
      <trkpt lat="46.05057" lon="5.46328">
        <ele>495.8</ele>
        <time>2026-05-09T13:44:01Z</time>
      </trkpt>
      <trkpt lat="46.05053" lon="5.46327">
        <ele>495.8</ele>
        <time>2026-05-09T13:44:02Z</time>
      </trkpt>
      <trkpt lat="46.05049" lon="5.46325">
        <ele>495.8</ele>
        <time>2026-05-09T13:44:03Z</time>
      </trkpt>
      <trkpt lat="46.05045" lon="5.46324">
        <ele>495.8</ele>
        <time>2026-05-09T13:44:04Z</time>
      </trkpt>
      <trkpt lat="46.05042" lon="5.46322">
        <ele>495.8</ele>
        <time>2026-05-09T13:44:05Z</time>
      </trkpt>
      <trkpt lat="46.05038" lon="5.46322">
        <ele>495.8</ele>
        <time>2026-05-09T13:44:06Z</time>
      </trkpt>
      <trkpt lat="46.05034" lon="5.46321">
        <ele>495.8</ele>
        <time>2026-05-09T13:44:07Z</time>
      </trkpt>
      <trkpt lat="46.0503" lon="5.4632">
        <ele>495.8</ele>
        <time>2026-05-09T13:44:08Z</time>
      </trkpt>
      <trkpt lat="46.05026" lon="5.4632">
        <ele>495.8</ele>
        <time>2026-05-09T13:44:09Z</time>
      </trkpt>
      <trkpt lat="46.05023" lon="5.4632">
        <ele>495.8</ele>
        <time>2026-05-09T13:44:10Z</time>
      </trkpt>
      <trkpt lat="46.05018" lon="5.46319">
        <ele>495.8</ele>
        <time>2026-05-09T13:44:11Z</time>
      </trkpt>
      <trkpt lat="46.05014" lon="5.46319">
        <ele>495.8</ele>
        <time>2026-05-09T13:44:12Z</time>
      </trkpt>
      <trkpt lat="46.0501" lon="5.46318">
        <ele>495.8</ele>
        <time>2026-05-09T13:44:13Z</time>
      </trkpt>
      <trkpt lat="46.05006" lon="5.46317">
        <ele>495.4</ele>
        <time>2026-05-09T13:44:14Z</time>
      </trkpt>
      <trkpt lat="46.05002" lon="5.46315">
        <ele>495.4</ele>
        <time>2026-05-09T13:44:15Z</time>
      </trkpt>
      <trkpt lat="46.04998" lon="5.46315">
        <ele>495</ele>
        <time>2026-05-09T13:44:16Z</time>
      </trkpt>
      <trkpt lat="46.04994" lon="5.46314">
        <ele>495</ele>
        <time>2026-05-09T13:44:17Z</time>
      </trkpt>
      <trkpt lat="46.0499" lon="5.46314">
        <ele>495</ele>
        <time>2026-05-09T13:44:18Z</time>
      </trkpt>
      <trkpt lat="46.04985" lon="5.46314">
        <ele>495</ele>
        <time>2026-05-09T13:44:19Z</time>
      </trkpt>
      <trkpt lat="46.04981" lon="5.46313">
        <ele>494.8</ele>
        <time>2026-05-09T13:44:20Z</time>
      </trkpt>
      <trkpt lat="46.04976" lon="5.46313">
        <ele>494.8</ele>
        <time>2026-05-09T13:44:21Z</time>
      </trkpt>
      <trkpt lat="46.04971" lon="5.46313">
        <ele>494.8</ele>
        <time>2026-05-09T13:44:22Z</time>
      </trkpt>
      <trkpt lat="46.04966" lon="5.46315">
        <ele>494.6</ele>
        <time>2026-05-09T13:44:23Z</time>
      </trkpt>
      <trkpt lat="46.04961" lon="5.46315">
        <ele>494.6</ele>
        <time>2026-05-09T13:44:24Z</time>
      </trkpt>
      <trkpt lat="46.04955" lon="5.46315">
        <ele>494</ele>
        <time>2026-05-09T13:44:25Z</time>
      </trkpt>
      <trkpt lat="46.0495" lon="5.46316">
        <ele>493.8</ele>
        <time>2026-05-09T13:44:26Z</time>
      </trkpt>
      <trkpt lat="46.04945" lon="5.46317">
        <ele>493.8</ele>
        <time>2026-05-09T13:44:27Z</time>
      </trkpt>
      <trkpt lat="46.04939" lon="5.46317">
        <ele>493.6</ele>
        <time>2026-05-09T13:44:28Z</time>
      </trkpt>
      <trkpt lat="46.04935" lon="5.46318">
        <ele>493.6</ele>
        <time>2026-05-09T13:44:29Z</time>
      </trkpt>
      <trkpt lat="46.04929" lon="5.46316">
        <ele>493.6</ele>
        <time>2026-05-09T13:44:30Z</time>
      </trkpt>
      <trkpt lat="46.04924" lon="5.46316">
        <ele>493.6</ele>
        <time>2026-05-09T13:44:31Z</time>
      </trkpt>
      <trkpt lat="46.04919" lon="5.46315">
        <ele>493.6</ele>
        <time>2026-05-09T13:44:32Z</time>
      </trkpt>
      <trkpt lat="46.04915" lon="5.46317">
        <ele>493.6</ele>
        <time>2026-05-09T13:44:33Z</time>
      </trkpt>
      <trkpt lat="46.0491" lon="5.46317">
        <ele>493.6</ele>
        <time>2026-05-09T13:44:34Z</time>
      </trkpt>
      <trkpt lat="46.04906" lon="5.46317">
        <ele>493.6</ele>
        <time>2026-05-09T13:44:35Z</time>
      </trkpt>
      <trkpt lat="46.04901" lon="5.46318">
        <ele>493.8</ele>
        <time>2026-05-09T13:44:36Z</time>
      </trkpt>
      <trkpt lat="46.04897" lon="5.46319">
        <ele>493.8</ele>
        <time>2026-05-09T13:44:37Z</time>
      </trkpt>
      <trkpt lat="46.04893" lon="5.4632">
        <ele>494</ele>
        <time>2026-05-09T13:44:38Z</time>
      </trkpt>
      <trkpt lat="46.0489" lon="5.46321">
        <ele>494</ele>
        <time>2026-05-09T13:44:39Z</time>
      </trkpt>
      <trkpt lat="46.04887" lon="5.46321">
        <ele>494</ele>
        <time>2026-05-09T13:44:40Z</time>
      </trkpt>
      <trkpt lat="46.04885" lon="5.46322">
        <ele>494.4</ele>
        <time>2026-05-09T13:44:41Z</time>
      </trkpt>
      <trkpt lat="46.04882" lon="5.46322">
        <ele>494.4</ele>
        <time>2026-05-09T13:44:42Z</time>
      </trkpt>
      <trkpt lat="46.0488" lon="5.46323">
        <ele>494.6</ele>
        <time>2026-05-09T13:44:43Z</time>
      </trkpt>
      <trkpt lat="46.04877" lon="5.46323">
        <ele>494.6</ele>
        <time>2026-05-09T13:44:44Z</time>
      </trkpt>
      <trkpt lat="46.04875" lon="5.46324">
        <ele>494.6</ele>
        <time>2026-05-09T13:44:45Z</time>
      </trkpt>
      <trkpt lat="46.04873" lon="5.46324">
        <ele>495</ele>
        <time>2026-05-09T13:44:46Z</time>
      </trkpt>
      <trkpt lat="46.0487" lon="5.46324">
        <ele>495.4</ele>
        <time>2026-05-09T13:44:47Z</time>
      </trkpt>
      <trkpt lat="46.04868" lon="5.46324">
        <ele>495.6</ele>
        <time>2026-05-09T13:44:48Z</time>
      </trkpt>
      <trkpt lat="46.04866" lon="5.46325">
        <ele>495.6</ele>
        <time>2026-05-09T13:44:49Z</time>
      </trkpt>
      <trkpt lat="46.04864" lon="5.46326">
        <ele>496</ele>
        <time>2026-05-09T13:44:50Z</time>
      </trkpt>
      <trkpt lat="46.04862" lon="5.46326">
        <ele>496.2</ele>
        <time>2026-05-09T13:44:51Z</time>
      </trkpt>
      <trkpt lat="46.0486" lon="5.46326">
        <ele>496.2</ele>
        <time>2026-05-09T13:44:52Z</time>
      </trkpt>
      <trkpt lat="46.04858" lon="5.46326">
        <ele>496.4</ele>
        <time>2026-05-09T13:44:53Z</time>
      </trkpt>
      <trkpt lat="46.04857" lon="5.46326">
        <ele>496.6</ele>
        <time>2026-05-09T13:44:54Z</time>
      </trkpt>
      <trkpt lat="46.04855" lon="5.46326">
        <ele>496.6</ele>
        <time>2026-05-09T13:44:55Z</time>
      </trkpt>
      <trkpt lat="46.04853" lon="5.46327">
        <ele>497</ele>
        <time>2026-05-09T13:44:56Z</time>
      </trkpt>
      <trkpt lat="46.04851" lon="5.46327">
        <ele>497.4</ele>
        <time>2026-05-09T13:44:57Z</time>
      </trkpt>
      <trkpt lat="46.04849" lon="5.46327">
        <ele>497.6</ele>
        <time>2026-05-09T13:44:58Z</time>
      </trkpt>
      <trkpt lat="46.04847" lon="5.46327">
        <ele>497.8</ele>
        <time>2026-05-09T13:44:59Z</time>
      </trkpt>
      <trkpt lat="46.04843" lon="5.46327">
        <ele>497.8</ele>
        <time>2026-05-09T13:45:00Z</time>
      </trkpt>
      <trkpt lat="46.04841" lon="5.46327">
        <ele>498</ele>
        <time>2026-05-09T13:45:01Z</time>
      </trkpt>
      <trkpt lat="46.04839" lon="5.46327">
        <ele>498</ele>
        <time>2026-05-09T13:45:02Z</time>
      </trkpt>
      <trkpt lat="46.04837" lon="5.46327">
        <ele>498.4</ele>
        <time>2026-05-09T13:45:03Z</time>
      </trkpt>
      <trkpt lat="46.04835" lon="5.46328">
        <ele>498.4</ele>
        <time>2026-05-09T13:45:04Z</time>
      </trkpt>
      <trkpt lat="46.04833" lon="5.46328">
        <ele>498.8</ele>
        <time>2026-05-09T13:45:05Z</time>
      </trkpt>
      <trkpt lat="46.04831" lon="5.46327">
        <ele>499</ele>
        <time>2026-05-09T13:45:06Z</time>
      </trkpt>
      <trkpt lat="46.0483" lon="5.46327">
        <ele>499.2</ele>
        <time>2026-05-09T13:45:07Z</time>
      </trkpt>
      <trkpt lat="46.04828" lon="5.46327">
        <ele>499.2</ele>
        <time>2026-05-09T13:45:08Z</time>
      </trkpt>
      <trkpt lat="46.04826" lon="5.46327">
        <ele>499.2</ele>
        <time>2026-05-09T13:45:09Z</time>
      </trkpt>
      <trkpt lat="46.04825" lon="5.46327">
        <ele>499.6</ele>
        <time>2026-05-09T13:45:10Z</time>
      </trkpt>
      <trkpt lat="46.04823" lon="5.46327">
        <ele>499.6</ele>
        <time>2026-05-09T13:45:11Z</time>
      </trkpt>
      <trkpt lat="46.04821" lon="5.46328">
        <ele>499.8</ele>
        <time>2026-05-09T13:45:12Z</time>
      </trkpt>
      <trkpt lat="46.0482" lon="5.46327">
        <ele>499.8</ele>
        <time>2026-05-09T13:45:13Z</time>
      </trkpt>
      <trkpt lat="46.04818" lon="5.46328">
        <ele>499.8</ele>
        <time>2026-05-09T13:45:14Z</time>
      </trkpt>
      <trkpt lat="46.04816" lon="5.46328">
        <ele>500</ele>
        <time>2026-05-09T13:45:15Z</time>
      </trkpt>
      <trkpt lat="46.04814" lon="5.46329">
        <ele>500</ele>
        <time>2026-05-09T13:45:16Z</time>
      </trkpt>
      <trkpt lat="46.04812" lon="5.46329">
        <ele>500</ele>
        <time>2026-05-09T13:45:17Z</time>
      </trkpt>
      <trkpt lat="46.0481" lon="5.4633">
        <ele>500</ele>
        <time>2026-05-09T13:45:18Z</time>
      </trkpt>
      <trkpt lat="46.04808" lon="5.4633">
        <ele>500.2</ele>
        <time>2026-05-09T13:45:19Z</time>
      </trkpt>
      <trkpt lat="46.04807" lon="5.4633">
        <ele>500.2</ele>
        <time>2026-05-09T13:45:20Z</time>
      </trkpt>
      <trkpt lat="46.04805" lon="5.4633">
        <ele>500.2</ele>
        <time>2026-05-09T13:45:21Z</time>
      </trkpt>
      <trkpt lat="46.04803" lon="5.46331">
        <ele>500.2</ele>
        <time>2026-05-09T13:45:22Z</time>
      </trkpt>
      <trkpt lat="46.04801" lon="5.46331">
        <ele>500.4</ele>
        <time>2026-05-09T13:45:23Z</time>
      </trkpt>
      <trkpt lat="46.04799" lon="5.46332">
        <ele>500.4</ele>
        <time>2026-05-09T13:45:24Z</time>
      </trkpt>
      <trkpt lat="46.04797" lon="5.46332">
        <ele>500.8</ele>
        <time>2026-05-09T13:45:25Z</time>
      </trkpt>
      <trkpt lat="46.04795" lon="5.46332">
        <ele>501.2</ele>
        <time>2026-05-09T13:45:26Z</time>
      </trkpt>
      <trkpt lat="46.04793" lon="5.46333">
        <ele>501.2</ele>
        <time>2026-05-09T13:45:27Z</time>
      </trkpt>
      <trkpt lat="46.04791" lon="5.46333">
        <ele>501.4</ele>
        <time>2026-05-09T13:45:28Z</time>
      </trkpt>
      <trkpt lat="46.04789" lon="5.46332">
        <ele>501.4</ele>
        <time>2026-05-09T13:45:29Z</time>
      </trkpt>
      <trkpt lat="46.04787" lon="5.46332">
        <ele>501.6</ele>
        <time>2026-05-09T13:45:30Z</time>
      </trkpt>
      <trkpt lat="46.04785" lon="5.46332">
        <ele>501.6</ele>
        <time>2026-05-09T13:45:31Z</time>
      </trkpt>
      <trkpt lat="46.04783" lon="5.46332">
        <ele>501.6</ele>
        <time>2026-05-09T13:45:32Z</time>
      </trkpt>
      <trkpt lat="46.04781" lon="5.46333">
        <ele>502</ele>
        <time>2026-05-09T13:45:33Z</time>
      </trkpt>
      <trkpt lat="46.04779" lon="5.46333">
        <ele>502</ele>
        <time>2026-05-09T13:45:34Z</time>
      </trkpt>
      <trkpt lat="46.04777" lon="5.46333">
        <ele>502</ele>
        <time>2026-05-09T13:45:35Z</time>
      </trkpt>
      <trkpt lat="46.04775" lon="5.46334">
        <ele>502.2</ele>
        <time>2026-05-09T13:45:36Z</time>
      </trkpt>
      <trkpt lat="46.04773" lon="5.46334">
        <ele>502.2</ele>
        <time>2026-05-09T13:45:37Z</time>
      </trkpt>
      <trkpt lat="46.04771" lon="5.46334">
        <ele>502.2</ele>
        <time>2026-05-09T13:45:38Z</time>
      </trkpt>
      <trkpt lat="46.04769" lon="5.46335">
        <ele>502.4</ele>
        <time>2026-05-09T13:45:39Z</time>
      </trkpt>
      <trkpt lat="46.04767" lon="5.46335">
        <ele>502.4</ele>
        <time>2026-05-09T13:45:40Z</time>
      </trkpt>
      <trkpt lat="46.04766" lon="5.46335">
        <ele>502.8</ele>
        <time>2026-05-09T13:45:41Z</time>
      </trkpt>
      <trkpt lat="46.04764" lon="5.46335">
        <ele>502.8</ele>
        <time>2026-05-09T13:45:42Z</time>
      </trkpt>
      <trkpt lat="46.04762" lon="5.46335">
        <ele>503</ele>
        <time>2026-05-09T13:45:43Z</time>
      </trkpt>
      <trkpt lat="46.0476" lon="5.46335">
        <ele>503</ele>
        <time>2026-05-09T13:45:44Z</time>
      </trkpt>
      <trkpt lat="46.04758" lon="5.46335">
        <ele>503</ele>
        <time>2026-05-09T13:45:45Z</time>
      </trkpt>
      <trkpt lat="46.04756" lon="5.46335">
        <ele>503.2</ele>
        <time>2026-05-09T13:45:46Z</time>
      </trkpt>
      <trkpt lat="46.04754" lon="5.46335">
        <ele>503.4</ele>
        <time>2026-05-09T13:45:47Z</time>
      </trkpt>
      <trkpt lat="46.04752" lon="5.46335">
        <ele>503.4</ele>
        <time>2026-05-09T13:45:48Z</time>
      </trkpt>
      <trkpt lat="46.0475" lon="5.46335">
        <ele>503.4</ele>
        <time>2026-05-09T13:45:49Z</time>
      </trkpt>
      <trkpt lat="46.04747" lon="5.46335">
        <ele>503.8</ele>
        <time>2026-05-09T13:45:50Z</time>
      </trkpt>
      <trkpt lat="46.04745" lon="5.46335">
        <ele>503.8</ele>
        <time>2026-05-09T13:45:51Z</time>
      </trkpt>
      <trkpt lat="46.04744" lon="5.46335">
        <ele>504.2</ele>
        <time>2026-05-09T13:45:52Z</time>
      </trkpt>
      <trkpt lat="46.04742" lon="5.46335">
        <ele>504.2</ele>
        <time>2026-05-09T13:45:53Z</time>
      </trkpt>
      <trkpt lat="46.04739" lon="5.46335">
        <ele>504.6</ele>
        <time>2026-05-09T13:45:54Z</time>
      </trkpt>
      <trkpt lat="46.04737" lon="5.46335">
        <ele>504.6</ele>
        <time>2026-05-09T13:45:55Z</time>
      </trkpt>
      <trkpt lat="46.04735" lon="5.46335">
        <ele>505</ele>
        <time>2026-05-09T13:45:56Z</time>
      </trkpt>
      <trkpt lat="46.04733" lon="5.46334">
        <ele>505.2</ele>
        <time>2026-05-09T13:45:57Z</time>
      </trkpt>
      <trkpt lat="46.04731" lon="5.46334">
        <ele>505.2</ele>
        <time>2026-05-09T13:45:58Z</time>
      </trkpt>
      <trkpt lat="46.04729" lon="5.46335">
        <ele>505.2</ele>
        <time>2026-05-09T13:45:59Z</time>
      </trkpt>
      <trkpt lat="46.04727" lon="5.46335">
        <ele>505.4</ele>
        <time>2026-05-09T13:46:00Z</time>
      </trkpt>
      <trkpt lat="46.04725" lon="5.46336">
        <ele>505.4</ele>
        <time>2026-05-09T13:46:01Z</time>
      </trkpt>
      <trkpt lat="46.04723" lon="5.46336">
        <ele>505.4</ele>
        <time>2026-05-09T13:46:02Z</time>
      </trkpt>
      <trkpt lat="46.04722" lon="5.46336">
        <ele>505.4</ele>
        <time>2026-05-09T13:46:03Z</time>
      </trkpt>
      <trkpt lat="46.0472" lon="5.46336">
        <ele>505.4</ele>
        <time>2026-05-09T13:46:04Z</time>
      </trkpt>
      <trkpt lat="46.04718" lon="5.46336">
        <ele>505.6</ele>
        <time>2026-05-09T13:46:05Z</time>
      </trkpt>
      <trkpt lat="46.04717" lon="5.46336">
        <ele>505.6</ele>
        <time>2026-05-09T13:46:06Z</time>
      </trkpt>
      <trkpt lat="46.04715" lon="5.46336">
        <ele>506</ele>
        <time>2026-05-09T13:46:07Z</time>
      </trkpt>
      <trkpt lat="46.04714" lon="5.46336">
        <ele>506</ele>
        <time>2026-05-09T13:46:08Z</time>
      </trkpt>
      <trkpt lat="46.04714" lon="5.46337">
        <ele>506.2</ele>
        <time>2026-05-09T13:46:09Z</time>
      </trkpt>
      <trkpt lat="46.04714" lon="5.46337">
        <ele>506.2</ele>
        <time>2026-05-09T13:46:10Z</time>
      </trkpt>
      <trkpt lat="46.04715" lon="5.46337">
        <ele>506.2</ele>
        <time>2026-05-09T13:46:11Z</time>
      </trkpt>
      <trkpt lat="46.04714" lon="5.46337">
        <ele>505.6</ele>
        <time>2026-05-09T13:46:22Z</time>
      </trkpt>
      <trkpt lat="46.04714" lon="5.46338">
        <ele>505.6</ele>
        <time>2026-05-09T13:46:23Z</time>
      </trkpt>
      <trkpt lat="46.04713" lon="5.46339">
        <ele>505.6</ele>
        <time>2026-05-09T13:46:24Z</time>
      </trkpt>
      <trkpt lat="46.04712" lon="5.4634">
        <ele>505.6</ele>
        <time>2026-05-09T13:46:25Z</time>
      </trkpt>
      <trkpt lat="46.04712" lon="5.4634">
        <ele>505.6</ele>
        <time>2026-05-09T13:46:26Z</time>
      </trkpt>
      <trkpt lat="46.04712" lon="5.4634">
        <ele>505.6</ele>
        <time>2026-05-09T13:46:27Z</time>
      </trkpt>
      <trkpt lat="46.04712" lon="5.4634">
        <ele>505.6</ele>
        <time>2026-05-09T13:46:28Z</time>
      </trkpt>
      <trkpt lat="46.0471" lon="5.46343">
        <ele>506</ele>
        <time>2026-05-09T13:49:49Z</time>
      </trkpt>
      <trkpt lat="46.04709" lon="5.46344">
        <ele>506.4</ele>
        <time>2026-05-09T13:49:50Z</time>
      </trkpt>
      <trkpt lat="46.04708" lon="5.46344">
        <ele>506.4</ele>
        <time>2026-05-09T13:49:51Z</time>
      </trkpt>
      <trkpt lat="46.04706" lon="5.46345">
        <ele>506.4</ele>
        <time>2026-05-09T13:49:52Z</time>
      </trkpt>
      <trkpt lat="46.04705" lon="5.46345">
        <ele>506.6</ele>
        <time>2026-05-09T13:49:53Z</time>
      </trkpt>
      <trkpt lat="46.04703" lon="5.46345">
        <ele>506.6</ele>
        <time>2026-05-09T13:49:54Z</time>
      </trkpt>
      <trkpt lat="46.04702" lon="5.46346">
        <ele>507</ele>
        <time>2026-05-09T13:49:55Z</time>
      </trkpt>
      <trkpt lat="46.04701" lon="5.46346">
        <ele>507</ele>
        <time>2026-05-09T13:49:56Z</time>
      </trkpt>
      <trkpt lat="46.04699" lon="5.46346">
        <ele>507</ele>
        <time>2026-05-09T13:49:57Z</time>
      </trkpt>
      <trkpt lat="46.04697" lon="5.46347">
        <ele>507.2</ele>
        <time>2026-05-09T13:49:58Z</time>
      </trkpt>
      <trkpt lat="46.04696" lon="5.46347">
        <ele>507.2</ele>
        <time>2026-05-09T13:49:59Z</time>
      </trkpt>
      <trkpt lat="46.04695" lon="5.46348">
        <ele>507.2</ele>
        <time>2026-05-09T13:50:00Z</time>
      </trkpt>
      <trkpt lat="46.04693" lon="5.46348">
        <ele>507.6</ele>
        <time>2026-05-09T13:50:01Z</time>
      </trkpt>
      <trkpt lat="46.04692" lon="5.46348">
        <ele>507.6</ele>
        <time>2026-05-09T13:50:02Z</time>
      </trkpt>
      <trkpt lat="46.0469" lon="5.46349">
        <ele>507.6</ele>
        <time>2026-05-09T13:50:03Z</time>
      </trkpt>
      <trkpt lat="46.04689" lon="5.4635">
        <ele>507.6</ele>
        <time>2026-05-09T13:50:04Z</time>
      </trkpt>
      <trkpt lat="46.04687" lon="5.46351">
        <ele>507.6</ele>
        <time>2026-05-09T13:50:05Z</time>
      </trkpt>
      <trkpt lat="46.04686" lon="5.46352">
        <ele>507.6</ele>
        <time>2026-05-09T13:50:06Z</time>
      </trkpt>
      <trkpt lat="46.04684" lon="5.46352">
        <ele>507.8</ele>
        <time>2026-05-09T13:50:07Z</time>
      </trkpt>
      <trkpt lat="46.04683" lon="5.46353">
        <ele>507.8</ele>
        <time>2026-05-09T13:50:08Z</time>
      </trkpt>
      <trkpt lat="46.04681" lon="5.46355">
        <ele>507.8</ele>
        <time>2026-05-09T13:50:09Z</time>
      </trkpt>
      <trkpt lat="46.0468" lon="5.46356">
        <ele>507.8</ele>
        <time>2026-05-09T13:50:10Z</time>
      </trkpt>
      <trkpt lat="46.04679" lon="5.46357">
        <ele>508.2</ele>
        <time>2026-05-09T13:50:11Z</time>
      </trkpt>
      <trkpt lat="46.04677" lon="5.46358">
        <ele>508.4</ele>
        <time>2026-05-09T13:50:12Z</time>
      </trkpt>
      <trkpt lat="46.04675" lon="5.46359">
        <ele>508.4</ele>
        <time>2026-05-09T13:50:13Z</time>
      </trkpt>
      <trkpt lat="46.04674" lon="5.4636">
        <ele>508.6</ele>
        <time>2026-05-09T13:50:14Z</time>
      </trkpt>
      <trkpt lat="46.04673" lon="5.46361">
        <ele>508.6</ele>
        <time>2026-05-09T13:50:15Z</time>
      </trkpt>
      <trkpt lat="46.04671" lon="5.46363">
        <ele>508.8</ele>
        <time>2026-05-09T13:50:16Z</time>
      </trkpt>
      <trkpt lat="46.0467" lon="5.46364">
        <ele>509</ele>
        <time>2026-05-09T13:50:17Z</time>
      </trkpt>
      <trkpt lat="46.04668" lon="5.46365">
        <ele>509</ele>
        <time>2026-05-09T13:50:18Z</time>
      </trkpt>
      <trkpt lat="46.04666" lon="5.46367">
        <ele>509.2</ele>
        <time>2026-05-09T13:50:19Z</time>
      </trkpt>
      <trkpt lat="46.04664" lon="5.46369">
        <ele>509.2</ele>
        <time>2026-05-09T13:50:20Z</time>
      </trkpt>
      <trkpt lat="46.04663" lon="5.46371">
        <ele>509.2</ele>
        <time>2026-05-09T13:50:21Z</time>
      </trkpt>
      <trkpt lat="46.04661" lon="5.46373">
        <ele>509.2</ele>
        <time>2026-05-09T13:50:22Z</time>
      </trkpt>
      <trkpt lat="46.0466" lon="5.46375">
        <ele>509.2</ele>
        <time>2026-05-09T13:50:23Z</time>
      </trkpt>
      <trkpt lat="46.04658" lon="5.46377">
        <ele>509.2</ele>
        <time>2026-05-09T13:50:24Z</time>
      </trkpt>
      <trkpt lat="46.04657" lon="5.46379">
        <ele>509.2</ele>
        <time>2026-05-09T13:50:25Z</time>
      </trkpt>
      <trkpt lat="46.04657" lon="5.46379">
        <ele>509.6</ele>
        <time>2026-05-09T13:50:26Z</time>
      </trkpt>
      <trkpt lat="46.04657" lon="5.46379">
        <ele>509.6</ele>
        <time>2026-05-09T13:50:27Z</time>
      </trkpt>
      <trkpt lat="46.04651" lon="5.46386">
        <ele>510</ele>
        <time>2026-05-09T13:50:28Z</time>
      </trkpt>
      <trkpt lat="46.0465" lon="5.46388">
        <ele>510</ele>
        <time>2026-05-09T13:50:29Z</time>
      </trkpt>
      <trkpt lat="46.04648" lon="5.4639">
        <ele>510.4</ele>
        <time>2026-05-09T13:50:30Z</time>
      </trkpt>
      <trkpt lat="46.04647" lon="5.46391">
        <ele>510.6</ele>
        <time>2026-05-09T13:50:31Z</time>
      </trkpt>
      <trkpt lat="46.04646" lon="5.46393">
        <ele>511</ele>
        <time>2026-05-09T13:50:32Z</time>
      </trkpt>
      <trkpt lat="46.04645" lon="5.46395">
        <ele>511</ele>
        <time>2026-05-09T13:50:33Z</time>
      </trkpt>
      <trkpt lat="46.04644" lon="5.46397">
        <ele>511.2</ele>
        <time>2026-05-09T13:50:34Z</time>
      </trkpt>
      <trkpt lat="46.04643" lon="5.464">
        <ele>511.2</ele>
        <time>2026-05-09T13:50:35Z</time>
      </trkpt>
      <trkpt lat="46.04642" lon="5.46402">
        <ele>511.6</ele>
        <time>2026-05-09T13:50:36Z</time>
      </trkpt>
      <trkpt lat="46.0464" lon="5.46405">
        <ele>511.8</ele>
        <time>2026-05-09T13:50:37Z</time>
      </trkpt>
      <trkpt lat="46.04639" lon="5.46407">
        <ele>511.8</ele>
        <time>2026-05-09T13:50:38Z</time>
      </trkpt>
      <trkpt lat="46.04638" lon="5.46409">
        <ele>512.2</ele>
        <time>2026-05-09T13:50:39Z</time>
      </trkpt>
      <trkpt lat="46.04637" lon="5.46412">
        <ele>512.2</ele>
        <time>2026-05-09T13:50:40Z</time>
      </trkpt>
      <trkpt lat="46.04636" lon="5.46415">
        <ele>512.6</ele>
        <time>2026-05-09T13:50:41Z</time>
      </trkpt>
      <trkpt lat="46.04635" lon="5.46417">
        <ele>512.6</ele>
        <time>2026-05-09T13:50:42Z</time>
      </trkpt>
      <trkpt lat="46.04634" lon="5.4642">
        <ele>512.8</ele>
        <time>2026-05-09T13:50:43Z</time>
      </trkpt>
      <trkpt lat="46.04633" lon="5.46423">
        <ele>512.8</ele>
        <time>2026-05-09T13:50:44Z</time>
      </trkpt>
      <trkpt lat="46.04632" lon="5.46425">
        <ele>512.8</ele>
        <time>2026-05-09T13:50:45Z</time>
      </trkpt>
      <trkpt lat="46.04632" lon="5.46425">
        <ele>512.8</ele>
        <time>2026-05-09T13:50:46Z</time>
      </trkpt>
      <trkpt lat="46.04631" lon="5.46428">
        <ele>512.8</ele>
        <time>2026-05-09T13:50:47Z</time>
      </trkpt>
      <trkpt lat="46.0463" lon="5.4643">
        <ele>513.2</ele>
        <time>2026-05-09T13:50:48Z</time>
      </trkpt>
      <trkpt lat="46.04629" lon="5.46432">
        <ele>513.2</ele>
        <time>2026-05-09T13:50:49Z</time>
      </trkpt>
      <trkpt lat="46.04628" lon="5.46435">
        <ele>513.6</ele>
        <time>2026-05-09T13:50:50Z</time>
      </trkpt>
      <trkpt lat="46.04627" lon="5.46437">
        <ele>513.8</ele>
        <time>2026-05-09T13:50:51Z</time>
      </trkpt>
      <trkpt lat="46.04626" lon="5.4644">
        <ele>514</ele>
        <time>2026-05-09T13:50:52Z</time>
      </trkpt>
      <trkpt lat="46.04626" lon="5.46443">
        <ele>514</ele>
        <time>2026-05-09T13:50:53Z</time>
      </trkpt>
      <trkpt lat="46.04625" lon="5.46445">
        <ele>514</ele>
        <time>2026-05-09T13:50:54Z</time>
      </trkpt>
      <trkpt lat="46.04624" lon="5.46448">
        <ele>514.2</ele>
        <time>2026-05-09T13:50:55Z</time>
      </trkpt>
      <trkpt lat="46.04623" lon="5.4645">
        <ele>514.2</ele>
        <time>2026-05-09T13:50:56Z</time>
      </trkpt>
      <trkpt lat="46.04622" lon="5.46452">
        <ele>514.2</ele>
        <time>2026-05-09T13:50:57Z</time>
      </trkpt>
      <trkpt lat="46.04621" lon="5.46455">
        <ele>514.2</ele>
        <time>2026-05-09T13:50:58Z</time>
      </trkpt>
      <trkpt lat="46.0462" lon="5.46458">
        <ele>514.2</ele>
        <time>2026-05-09T13:50:59Z</time>
      </trkpt>
      <trkpt lat="46.0462" lon="5.4646">
        <ele>514.2</ele>
        <time>2026-05-09T13:51:00Z</time>
      </trkpt>
      <trkpt lat="46.04619" lon="5.46462">
        <ele>514.6</ele>
        <time>2026-05-09T13:51:01Z</time>
      </trkpt>
      <trkpt lat="46.04618" lon="5.46464">
        <ele>514.8</ele>
        <time>2026-05-09T13:51:02Z</time>
      </trkpt>
      <trkpt lat="46.04617" lon="5.46466">
        <ele>514.8</ele>
        <time>2026-05-09T13:51:03Z</time>
      </trkpt>
      <trkpt lat="46.04616" lon="5.46468">
        <ele>514.8</ele>
        <time>2026-05-09T13:51:04Z</time>
      </trkpt>
      <trkpt lat="46.04616" lon="5.46469">
        <ele>514.8</ele>
        <time>2026-05-09T13:51:05Z</time>
      </trkpt>
      <trkpt lat="46.04615" lon="5.46472">
        <ele>514.8</ele>
        <time>2026-05-09T13:51:06Z</time>
      </trkpt>
      <trkpt lat="46.04614" lon="5.46474">
        <ele>515.2</ele>
        <time>2026-05-09T13:51:07Z</time>
      </trkpt>
      <trkpt lat="46.04614" lon="5.46476">
        <ele>515.2</ele>
        <time>2026-05-09T13:51:08Z</time>
      </trkpt>
      <trkpt lat="46.04613" lon="5.46478">
        <ele>515.4</ele>
        <time>2026-05-09T13:51:09Z</time>
      </trkpt>
      <trkpt lat="46.04612" lon="5.4648">
        <ele>515.4</ele>
        <time>2026-05-09T13:51:10Z</time>
      </trkpt>
      <trkpt lat="46.04612" lon="5.46482">
        <ele>515.6</ele>
        <time>2026-05-09T13:51:11Z</time>
      </trkpt>
      <trkpt lat="46.04611" lon="5.46484">
        <ele>515.6</ele>
        <time>2026-05-09T13:51:12Z</time>
      </trkpt>
      <trkpt lat="46.0461" lon="5.46486">
        <ele>516</ele>
        <time>2026-05-09T13:51:13Z</time>
      </trkpt>
      <trkpt lat="46.0461" lon="5.46489">
        <ele>516</ele>
        <time>2026-05-09T13:51:14Z</time>
      </trkpt>
      <trkpt lat="46.04609" lon="5.46491">
        <ele>516</ele>
        <time>2026-05-09T13:51:15Z</time>
      </trkpt>
      <trkpt lat="46.04608" lon="5.46492">
        <ele>516.2</ele>
        <time>2026-05-09T13:51:16Z</time>
      </trkpt>
      <trkpt lat="46.04607" lon="5.46494">
        <ele>516.2</ele>
        <time>2026-05-09T13:51:17Z</time>
      </trkpt>
      <trkpt lat="46.04605" lon="5.46496">
        <ele>516.4</ele>
        <time>2026-05-09T13:51:18Z</time>
      </trkpt>
      <trkpt lat="46.04604" lon="5.46498">
        <ele>516.4</ele>
        <time>2026-05-09T13:51:19Z</time>
      </trkpt>
      <trkpt lat="46.04602" lon="5.46499">
        <ele>516.8</ele>
        <time>2026-05-09T13:51:20Z</time>
      </trkpt>
      <trkpt lat="46.04601" lon="5.46501">
        <ele>517</ele>
        <time>2026-05-09T13:51:21Z</time>
      </trkpt>
      <trkpt lat="46.046" lon="5.46504">
        <ele>517.2</ele>
        <time>2026-05-09T13:51:22Z</time>
      </trkpt>
      <trkpt lat="46.04599" lon="5.46506">
        <ele>517.4</ele>
        <time>2026-05-09T13:51:23Z</time>
      </trkpt>
      <trkpt lat="46.04599" lon="5.46508">
        <ele>517.4</ele>
        <time>2026-05-09T13:51:24Z</time>
      </trkpt>
      <trkpt lat="46.04598" lon="5.4651">
        <ele>517.8</ele>
        <time>2026-05-09T13:51:25Z</time>
      </trkpt>
      <trkpt lat="46.04597" lon="5.46513">
        <ele>517.8</ele>
        <time>2026-05-09T13:51:26Z</time>
      </trkpt>
      <trkpt lat="46.04596" lon="5.46515">
        <ele>517.8</ele>
        <time>2026-05-09T13:51:27Z</time>
      </trkpt>
      <trkpt lat="46.04595" lon="5.46517">
        <ele>518</ele>
        <time>2026-05-09T13:51:28Z</time>
      </trkpt>
      <trkpt lat="46.04594" lon="5.46519">
        <ele>518</ele>
        <time>2026-05-09T13:51:29Z</time>
      </trkpt>
      <trkpt lat="46.04593" lon="5.46522">
        <ele>518.4</ele>
        <time>2026-05-09T13:51:30Z</time>
      </trkpt>
      <trkpt lat="46.04592" lon="5.46524">
        <ele>518.4</ele>
        <time>2026-05-09T13:51:31Z</time>
      </trkpt>
      <trkpt lat="46.04591" lon="5.46526">
        <ele>518.4</ele>
        <time>2026-05-09T13:51:32Z</time>
      </trkpt>
      <trkpt lat="46.04591" lon="5.46529">
        <ele>518.6</ele>
        <time>2026-05-09T13:51:33Z</time>
      </trkpt>
      <trkpt lat="46.0459" lon="5.46531">
        <ele>518.6</ele>
        <time>2026-05-09T13:51:34Z</time>
      </trkpt>
      <trkpt lat="46.04589" lon="5.46533">
        <ele>518.6</ele>
        <time>2026-05-09T13:51:35Z</time>
      </trkpt>
      <trkpt lat="46.04588" lon="5.46536">
        <ele>518.6</ele>
        <time>2026-05-09T13:51:36Z</time>
      </trkpt>
      <trkpt lat="46.04587" lon="5.46537">
        <ele>518.6</ele>
        <time>2026-05-09T13:51:37Z</time>
      </trkpt>
      <trkpt lat="46.04586" lon="5.4654">
        <ele>519</ele>
        <time>2026-05-09T13:51:38Z</time>
      </trkpt>
      <trkpt lat="46.04585" lon="5.46542">
        <ele>519</ele>
        <time>2026-05-09T13:51:39Z</time>
      </trkpt>
      <trkpt lat="46.04584" lon="5.46544">
        <ele>519.2</ele>
        <time>2026-05-09T13:51:40Z</time>
      </trkpt>
      <trkpt lat="46.04583" lon="5.46547">
        <ele>519.2</ele>
        <time>2026-05-09T13:51:41Z</time>
      </trkpt>
      <trkpt lat="46.04581" lon="5.46549">
        <ele>519.4</ele>
        <time>2026-05-09T13:51:42Z</time>
      </trkpt>
      <trkpt lat="46.04579" lon="5.4655">
        <ele>519.4</ele>
        <time>2026-05-09T13:51:43Z</time>
      </trkpt>
      <trkpt lat="46.04577" lon="5.46551">
        <ele>519.4</ele>
        <time>2026-05-09T13:51:44Z</time>
      </trkpt>
      <trkpt lat="46.04575" lon="5.46552">
        <ele>519.4</ele>
        <time>2026-05-09T13:51:45Z</time>
      </trkpt>
      <trkpt lat="46.04573" lon="5.46553">
        <ele>519.4</ele>
        <time>2026-05-09T13:51:46Z</time>
      </trkpt>
      <trkpt lat="46.04571" lon="5.46554">
        <ele>519.6</ele>
        <time>2026-05-09T13:51:47Z</time>
      </trkpt>
      <trkpt lat="46.04569" lon="5.46554">
        <ele>519.6</ele>
        <time>2026-05-09T13:51:48Z</time>
      </trkpt>
      <trkpt lat="46.04567" lon="5.46553">
        <ele>519.8</ele>
        <time>2026-05-09T13:51:49Z</time>
      </trkpt>
      <trkpt lat="46.04566" lon="5.46553">
        <ele>519.8</ele>
        <time>2026-05-09T13:51:50Z</time>
      </trkpt>
      <trkpt lat="46.04564" lon="5.46552">
        <ele>520</ele>
        <time>2026-05-09T13:51:51Z</time>
      </trkpt>
      <trkpt lat="46.04562" lon="5.46552">
        <ele>520</ele>
        <time>2026-05-09T13:51:52Z</time>
      </trkpt>
      <trkpt lat="46.0456" lon="5.4655">
        <ele>520.4</ele>
        <time>2026-05-09T13:51:53Z</time>
      </trkpt>
      <trkpt lat="46.04559" lon="5.46549">
        <ele>520.6</ele>
        <time>2026-05-09T13:51:54Z</time>
      </trkpt>
      <trkpt lat="46.04557" lon="5.46547">
        <ele>520.8</ele>
        <time>2026-05-09T13:51:55Z</time>
      </trkpt>
      <trkpt lat="46.04556" lon="5.46545">
        <ele>520.8</ele>
        <time>2026-05-09T13:51:56Z</time>
      </trkpt>
      <trkpt lat="46.04555" lon="5.46542">
        <ele>521.2</ele>
        <time>2026-05-09T13:51:57Z</time>
      </trkpt>
      <trkpt lat="46.04553" lon="5.4654">
        <ele>521.2</ele>
        <time>2026-05-09T13:51:58Z</time>
      </trkpt>
      <trkpt lat="46.04552" lon="5.46538">
        <ele>521.6</ele>
        <time>2026-05-09T13:51:59Z</time>
      </trkpt>
      <trkpt lat="46.04552" lon="5.46538">
        <ele>521.8</ele>
        <time>2026-05-09T13:52:00Z</time>
      </trkpt>
      <trkpt lat="46.0455" lon="5.46532">
        <ele>521.8</ele>
        <time>2026-05-09T13:52:01Z</time>
      </trkpt>
      <trkpt lat="46.0455" lon="5.46529">
        <ele>522.2</ele>
        <time>2026-05-09T13:52:02Z</time>
      </trkpt>
      <trkpt lat="46.04549" lon="5.46527">
        <ele>522.2</ele>
        <time>2026-05-09T13:52:03Z</time>
      </trkpt>
      <trkpt lat="46.04548" lon="5.46524">
        <ele>522.6</ele>
        <time>2026-05-09T13:52:04Z</time>
      </trkpt>
      <trkpt lat="46.04547" lon="5.46521">
        <ele>522.6</ele>
        <time>2026-05-09T13:52:05Z</time>
      </trkpt>
      <trkpt lat="46.04547" lon="5.46518">
        <ele>522.8</ele>
        <time>2026-05-09T13:52:06Z</time>
      </trkpt>
      <trkpt lat="46.04546" lon="5.46516">
        <ele>522.8</ele>
        <time>2026-05-09T13:52:07Z</time>
      </trkpt>
      <trkpt lat="46.04545" lon="5.46513">
        <ele>522.8</ele>
        <time>2026-05-09T13:52:08Z</time>
      </trkpt>
      <trkpt lat="46.04545" lon="5.4651">
        <ele>523.2</ele>
        <time>2026-05-09T13:52:09Z</time>
      </trkpt>
      <trkpt lat="46.04544" lon="5.46507">
        <ele>523.2</ele>
        <time>2026-05-09T13:52:10Z</time>
      </trkpt>
      <trkpt lat="46.04545" lon="5.46503">
        <ele>523.4</ele>
        <time>2026-05-09T13:52:11Z</time>
      </trkpt>
      <trkpt lat="46.04546" lon="5.46499">
        <ele>523.4</ele>
        <time>2026-05-09T13:52:12Z</time>
      </trkpt>
      <trkpt lat="46.04546" lon="5.46496">
        <ele>523.4</ele>
        <time>2026-05-09T13:52:13Z</time>
      </trkpt>
      <trkpt lat="46.04546" lon="5.46494">
        <ele>523.6</ele>
        <time>2026-05-09T13:52:14Z</time>
      </trkpt>
      <trkpt lat="46.04545" lon="5.46491">
        <ele>523.6</ele>
        <time>2026-05-09T13:52:15Z</time>
      </trkpt>
      <trkpt lat="46.04544" lon="5.46489">
        <ele>523.8</ele>
        <time>2026-05-09T13:52:16Z</time>
      </trkpt>
      <trkpt lat="46.04543" lon="5.46488">
        <ele>523.8</ele>
        <time>2026-05-09T13:52:17Z</time>
      </trkpt>
      <trkpt lat="46.04543" lon="5.46486">
        <ele>523.8</ele>
        <time>2026-05-09T13:52:18Z</time>
      </trkpt>
      <trkpt lat="46.04542" lon="5.46484">
        <ele>524.4</ele>
        <time>2026-05-09T13:52:19Z</time>
      </trkpt>
      <trkpt lat="46.04541" lon="5.46481">
        <ele>524.6</ele>
        <time>2026-05-09T13:52:20Z</time>
      </trkpt>
      <trkpt lat="46.0454" lon="5.46479">
        <ele>524.6</ele>
        <time>2026-05-09T13:52:21Z</time>
      </trkpt>
      <trkpt lat="46.04538" lon="5.46476">
        <ele>524.6</ele>
        <time>2026-05-09T13:52:22Z</time>
      </trkpt>
      <trkpt lat="46.04537" lon="5.46474">
        <ele>525</ele>
        <time>2026-05-09T13:52:23Z</time>
      </trkpt>
      <trkpt lat="46.04536" lon="5.46472">
        <ele>525</ele>
        <time>2026-05-09T13:52:24Z</time>
      </trkpt>
      <trkpt lat="46.04535" lon="5.46469">
        <ele>525.2</ele>
        <time>2026-05-09T13:52:25Z</time>
      </trkpt>
      <trkpt lat="46.04534" lon="5.46468">
        <ele>525.2</ele>
        <time>2026-05-09T13:52:26Z</time>
      </trkpt>
      <trkpt lat="46.04532" lon="5.46465">
        <ele>525.4</ele>
        <time>2026-05-09T13:52:27Z</time>
      </trkpt>
      <trkpt lat="46.04531" lon="5.46463">
        <ele>525.4</ele>
        <time>2026-05-09T13:52:28Z</time>
      </trkpt>
      <trkpt lat="46.0453" lon="5.46462">
        <ele>525.8</ele>
        <time>2026-05-09T13:52:29Z</time>
      </trkpt>
      <trkpt lat="46.04529" lon="5.4646">
        <ele>525.8</ele>
        <time>2026-05-09T13:52:30Z</time>
      </trkpt>
      <trkpt lat="46.04527" lon="5.46459">
        <ele>525.8</ele>
        <time>2026-05-09T13:52:31Z</time>
      </trkpt>
      <trkpt lat="46.04526" lon="5.46457">
        <ele>526</ele>
        <time>2026-05-09T13:52:32Z</time>
      </trkpt>
      <trkpt lat="46.04524" lon="5.46455">
        <ele>526</ele>
        <time>2026-05-09T13:52:33Z</time>
      </trkpt>
      <trkpt lat="46.04523" lon="5.46454">
        <ele>526.2</ele>
        <time>2026-05-09T13:52:34Z</time>
      </trkpt>
      <trkpt lat="46.04522" lon="5.46452">
        <ele>526.2</ele>
        <time>2026-05-09T13:52:35Z</time>
      </trkpt>
      <trkpt lat="46.0452" lon="5.4645">
        <ele>526.4</ele>
        <time>2026-05-09T13:52:36Z</time>
      </trkpt>
      <trkpt lat="46.04519" lon="5.46449">
        <ele>526.4</ele>
        <time>2026-05-09T13:52:37Z</time>
      </trkpt>
      <trkpt lat="46.04518" lon="5.46447">
        <ele>526.8</ele>
        <time>2026-05-09T13:52:38Z</time>
      </trkpt>
      <trkpt lat="46.04517" lon="5.46446">
        <ele>526.8</ele>
        <time>2026-05-09T13:52:39Z</time>
      </trkpt>
      <trkpt lat="46.04515" lon="5.46444">
        <ele>527</ele>
        <time>2026-05-09T13:52:40Z</time>
      </trkpt>
      <trkpt lat="46.04514" lon="5.46442">
        <ele>527</ele>
        <time>2026-05-09T13:52:41Z</time>
      </trkpt>
      <trkpt lat="46.04512" lon="5.4644">
        <ele>527.2</ele>
        <time>2026-05-09T13:52:42Z</time>
      </trkpt>
      <trkpt lat="46.04511" lon="5.46438">
        <ele>527.2</ele>
        <time>2026-05-09T13:52:43Z</time>
      </trkpt>
      <trkpt lat="46.04509" lon="5.46437">
        <ele>527.2</ele>
        <time>2026-05-09T13:52:44Z</time>
      </trkpt>
      <trkpt lat="46.04508" lon="5.46435">
        <ele>527.6</ele>
        <time>2026-05-09T13:52:45Z</time>
      </trkpt>
      <trkpt lat="46.04506" lon="5.46434">
        <ele>527.6</ele>
        <time>2026-05-09T13:52:46Z</time>
      </trkpt>
      <trkpt lat="46.04505" lon="5.46432">
        <ele>527.8</ele>
        <time>2026-05-09T13:52:47Z</time>
      </trkpt>
      <trkpt lat="46.04503" lon="5.46431">
        <ele>527.8</ele>
        <time>2026-05-09T13:52:48Z</time>
      </trkpt>
      <trkpt lat="46.04502" lon="5.4643">
        <ele>528</ele>
        <time>2026-05-09T13:52:49Z</time>
      </trkpt>
      <trkpt lat="46.04501" lon="5.46429">
        <ele>528</ele>
        <time>2026-05-09T13:52:50Z</time>
      </trkpt>
      <trkpt lat="46.04499" lon="5.46428">
        <ele>528.4</ele>
        <time>2026-05-09T13:52:51Z</time>
      </trkpt>
      <trkpt lat="46.04497" lon="5.46427">
        <ele>528.4</ele>
        <time>2026-05-09T13:52:52Z</time>
      </trkpt>
      <trkpt lat="46.04496" lon="5.46426">
        <ele>528.6</ele>
        <time>2026-05-09T13:52:53Z</time>
      </trkpt>
      <trkpt lat="46.04494" lon="5.46424">
        <ele>528.6</ele>
        <time>2026-05-09T13:52:54Z</time>
      </trkpt>
      <trkpt lat="46.04492" lon="5.46423">
        <ele>528.8</ele>
        <time>2026-05-09T13:52:55Z</time>
      </trkpt>
      <trkpt lat="46.04491" lon="5.46422">
        <ele>528.8</ele>
        <time>2026-05-09T13:52:56Z</time>
      </trkpt>
      <trkpt lat="46.0449" lon="5.46421">
        <ele>529</ele>
        <time>2026-05-09T13:52:57Z</time>
      </trkpt>
      <trkpt lat="46.04488" lon="5.4642">
        <ele>529</ele>
        <time>2026-05-09T13:52:58Z</time>
      </trkpt>
      <trkpt lat="46.04487" lon="5.46419">
        <ele>529.2</ele>
        <time>2026-05-09T13:52:59Z</time>
      </trkpt>
      <trkpt lat="46.04486" lon="5.46418">
        <ele>529.2</ele>
        <time>2026-05-09T13:53:00Z</time>
      </trkpt>
      <trkpt lat="46.04484" lon="5.46417">
        <ele>529.2</ele>
        <time>2026-05-09T13:53:01Z</time>
      </trkpt>
      <trkpt lat="46.04483" lon="5.46416">
        <ele>529.6</ele>
        <time>2026-05-09T13:53:02Z</time>
      </trkpt>
      <trkpt lat="46.04481" lon="5.46416">
        <ele>529.6</ele>
        <time>2026-05-09T13:53:03Z</time>
      </trkpt>
      <trkpt lat="46.0448" lon="5.46415">
        <ele>529.8</ele>
        <time>2026-05-09T13:53:04Z</time>
      </trkpt>
      <trkpt lat="46.04478" lon="5.46415">
        <ele>529.8</ele>
        <time>2026-05-09T13:53:05Z</time>
      </trkpt>
      <trkpt lat="46.04477" lon="5.46415">
        <ele>530.2</ele>
        <time>2026-05-09T13:53:06Z</time>
      </trkpt>
      <trkpt lat="46.04475" lon="5.46415">
        <ele>530.2</ele>
        <time>2026-05-09T13:53:07Z</time>
      </trkpt>
      <trkpt lat="46.04474" lon="5.46415">
        <ele>530.2</ele>
        <time>2026-05-09T13:53:08Z</time>
      </trkpt>
      <trkpt lat="46.04472" lon="5.46415">
        <ele>530.2</ele>
        <time>2026-05-09T13:53:09Z</time>
      </trkpt>
      <trkpt lat="46.0447" lon="5.46414">
        <ele>530.6</ele>
        <time>2026-05-09T13:53:10Z</time>
      </trkpt>
      <trkpt lat="46.04469" lon="5.46414">
        <ele>530.6</ele>
        <time>2026-05-09T13:53:11Z</time>
      </trkpt>
      <trkpt lat="46.04467" lon="5.46414">
        <ele>530.8</ele>
        <time>2026-05-09T13:53:12Z</time>
      </trkpt>
      <trkpt lat="46.04466" lon="5.46413">
        <ele>530.8</ele>
        <time>2026-05-09T13:53:13Z</time>
      </trkpt>
      <trkpt lat="46.04464" lon="5.46413">
        <ele>531.4</ele>
        <time>2026-05-09T13:53:14Z</time>
      </trkpt>
      <trkpt lat="46.04463" lon="5.46412">
        <ele>531.4</ele>
        <time>2026-05-09T13:53:15Z</time>
      </trkpt>
      <trkpt lat="46.04461" lon="5.46412">
        <ele>531.4</ele>
        <time>2026-05-09T13:53:16Z</time>
      </trkpt>
      <trkpt lat="46.04459" lon="5.46411">
        <ele>531.8</ele>
        <time>2026-05-09T13:53:17Z</time>
      </trkpt>
      <trkpt lat="46.04457" lon="5.46411">
        <ele>531.8</ele>
        <time>2026-05-09T13:53:18Z</time>
      </trkpt>
      <trkpt lat="46.04456" lon="5.46412">
        <ele>532.2</ele>
        <time>2026-05-09T13:53:19Z</time>
      </trkpt>
      <trkpt lat="46.04454" lon="5.46412">
        <ele>532.2</ele>
        <time>2026-05-09T13:53:20Z</time>
      </trkpt>
      <trkpt lat="46.04453" lon="5.46412">
        <ele>532.4</ele>
        <time>2026-05-09T13:53:21Z</time>
      </trkpt>
      <trkpt lat="46.04451" lon="5.46412">
        <ele>532.4</ele>
        <time>2026-05-09T13:53:22Z</time>
      </trkpt>
      <trkpt lat="46.0445" lon="5.46412">
        <ele>532.4</ele>
        <time>2026-05-09T13:53:23Z</time>
      </trkpt>
      <trkpt lat="46.04448" lon="5.46412">
        <ele>532.8</ele>
        <time>2026-05-09T13:53:24Z</time>
      </trkpt>
      <trkpt lat="46.04447" lon="5.46413">
        <ele>532.8</ele>
        <time>2026-05-09T13:53:25Z</time>
      </trkpt>
      <trkpt lat="46.04445" lon="5.46413">
        <ele>533</ele>
        <time>2026-05-09T13:53:26Z</time>
      </trkpt>
      <trkpt lat="46.04444" lon="5.46413">
        <ele>533</ele>
        <time>2026-05-09T13:53:27Z</time>
      </trkpt>
      <trkpt lat="46.04442" lon="5.46413">
        <ele>533</ele>
        <time>2026-05-09T13:53:28Z</time>
      </trkpt>
      <trkpt lat="46.04441" lon="5.46412">
        <ele>533</ele>
        <time>2026-05-09T13:53:29Z</time>
      </trkpt>
      <trkpt lat="46.04439" lon="5.46412">
        <ele>533.2</ele>
        <time>2026-05-09T13:53:30Z</time>
      </trkpt>
      <trkpt lat="46.04438" lon="5.46412">
        <ele>533.2</ele>
        <time>2026-05-09T13:53:31Z</time>
      </trkpt>
      <trkpt lat="46.04436" lon="5.46413">
        <ele>533.6</ele>
        <time>2026-05-09T13:53:32Z</time>
      </trkpt>
      <trkpt lat="46.04435" lon="5.46413">
        <ele>533.6</ele>
        <time>2026-05-09T13:53:33Z</time>
      </trkpt>
      <trkpt lat="46.04433" lon="5.46413">
        <ele>533.6</ele>
        <time>2026-05-09T13:53:34Z</time>
      </trkpt>
      <trkpt lat="46.04432" lon="5.46413">
        <ele>533.6</ele>
        <time>2026-05-09T13:53:35Z</time>
      </trkpt>
      <trkpt lat="46.0443" lon="5.46412">
        <ele>533.8</ele>
        <time>2026-05-09T13:53:36Z</time>
      </trkpt>
      <trkpt lat="46.04429" lon="5.46412">
        <ele>533.8</ele>
        <time>2026-05-09T13:53:37Z</time>
      </trkpt>
      <trkpt lat="46.04427" lon="5.46412">
        <ele>534</ele>
        <time>2026-05-09T13:53:38Z</time>
      </trkpt>
      <trkpt lat="46.04426" lon="5.46412">
        <ele>534</ele>
        <time>2026-05-09T13:53:39Z</time>
      </trkpt>
      <trkpt lat="46.04424" lon="5.46412">
        <ele>534</ele>
        <time>2026-05-09T13:53:40Z</time>
      </trkpt>
      <trkpt lat="46.04422" lon="5.46412">
        <ele>534.4</ele>
        <time>2026-05-09T13:53:41Z</time>
      </trkpt>
      <trkpt lat="46.0442" lon="5.46412">
        <ele>534.4</ele>
        <time>2026-05-09T13:53:42Z</time>
      </trkpt>
      <trkpt lat="46.04419" lon="5.46412">
        <ele>534.4</ele>
        <time>2026-05-09T13:53:43Z</time>
      </trkpt>
      <trkpt lat="46.04417" lon="5.46412">
        <ele>534.4</ele>
        <time>2026-05-09T13:53:44Z</time>
      </trkpt>
      <trkpt lat="46.04416" lon="5.46412">
        <ele>534.6</ele>
        <time>2026-05-09T13:53:45Z</time>
      </trkpt>
      <trkpt lat="46.04414" lon="5.46412">
        <ele>534.6</ele>
        <time>2026-05-09T13:53:46Z</time>
      </trkpt>
      <trkpt lat="46.04412" lon="5.46412">
        <ele>534.6</ele>
        <time>2026-05-09T13:53:47Z</time>
      </trkpt>
      <trkpt lat="46.04411" lon="5.46413">
        <ele>535</ele>
        <time>2026-05-09T13:53:48Z</time>
      </trkpt>
      <trkpt lat="46.04409" lon="5.46413">
        <ele>535</ele>
        <time>2026-05-09T13:53:49Z</time>
      </trkpt>
      <trkpt lat="46.04408" lon="5.46413">
        <ele>535</ele>
        <time>2026-05-09T13:53:50Z</time>
      </trkpt>
      <trkpt lat="46.04406" lon="5.46413">
        <ele>535.2</ele>
        <time>2026-05-09T13:53:51Z</time>
      </trkpt>
      <trkpt lat="46.04405" lon="5.46413">
        <ele>535.2</ele>
        <time>2026-05-09T13:53:52Z</time>
      </trkpt>
      <trkpt lat="46.04403" lon="5.46414">
        <ele>535.2</ele>
        <time>2026-05-09T13:53:53Z</time>
      </trkpt>
      <trkpt lat="46.04401" lon="5.46413">
        <ele>535.4</ele>
        <time>2026-05-09T13:53:54Z</time>
      </trkpt>
      <trkpt lat="46.044" lon="5.46413">
        <ele>535.4</ele>
        <time>2026-05-09T13:53:55Z</time>
      </trkpt>
      <trkpt lat="46.04398" lon="5.46413">
        <ele>535.4</ele>
        <time>2026-05-09T13:53:56Z</time>
      </trkpt>
      <trkpt lat="46.04396" lon="5.46412">
        <ele>535.8</ele>
        <time>2026-05-09T13:53:57Z</time>
      </trkpt>
      <trkpt lat="46.04395" lon="5.46412">
        <ele>536</ele>
        <time>2026-05-09T13:53:58Z</time>
      </trkpt>
      <trkpt lat="46.04393" lon="5.46412">
        <ele>536.2</ele>
        <time>2026-05-09T13:53:59Z</time>
      </trkpt>
      <trkpt lat="46.04392" lon="5.46412">
        <ele>536.2</ele>
        <time>2026-05-09T13:54:00Z</time>
      </trkpt>
      <trkpt lat="46.0439" lon="5.46412">
        <ele>536.2</ele>
        <time>2026-05-09T13:54:01Z</time>
      </trkpt>
      <trkpt lat="46.04389" lon="5.46412">
        <ele>536.6</ele>
        <time>2026-05-09T13:54:02Z</time>
      </trkpt>
      <trkpt lat="46.04387" lon="5.46412">
        <ele>536.8</ele>
        <time>2026-05-09T13:54:03Z</time>
      </trkpt>
      <trkpt lat="46.04385" lon="5.46412">
        <ele>536.8</ele>
        <time>2026-05-09T13:54:04Z</time>
      </trkpt>
      <trkpt lat="46.04384" lon="5.46412">
        <ele>536.8</ele>
        <time>2026-05-09T13:54:05Z</time>
      </trkpt>
      <trkpt lat="46.04382" lon="5.46412">
        <ele>537</ele>
        <time>2026-05-09T13:54:06Z</time>
      </trkpt>
      <trkpt lat="46.04381" lon="5.46413">
        <ele>537</ele>
        <time>2026-05-09T13:54:07Z</time>
      </trkpt>
      <trkpt lat="46.04379" lon="5.46413">
        <ele>537</ele>
        <time>2026-05-09T13:54:08Z</time>
      </trkpt>
      <trkpt lat="46.04378" lon="5.46412">
        <ele>537</ele>
        <time>2026-05-09T13:54:09Z</time>
      </trkpt>
      <trkpt lat="46.04376" lon="5.46412">
        <ele>537</ele>
        <time>2026-05-09T13:54:10Z</time>
      </trkpt>
      <trkpt lat="46.04374" lon="5.46412">
        <ele>537.4</ele>
        <time>2026-05-09T13:54:11Z</time>
      </trkpt>
      <trkpt lat="46.04372" lon="5.46412">
        <ele>537.6</ele>
        <time>2026-05-09T13:54:12Z</time>
      </trkpt>
      <trkpt lat="46.04371" lon="5.46412">
        <ele>537.6</ele>
        <time>2026-05-09T13:54:13Z</time>
      </trkpt>
      <trkpt lat="46.04369" lon="5.46412">
        <ele>537.6</ele>
        <time>2026-05-09T13:54:14Z</time>
      </trkpt>
      <trkpt lat="46.04367" lon="5.46412">
        <ele>538</ele>
        <time>2026-05-09T13:54:15Z</time>
      </trkpt>
      <trkpt lat="46.04366" lon="5.46412">
        <ele>538</ele>
        <time>2026-05-09T13:54:16Z</time>
      </trkpt>
      <trkpt lat="46.04364" lon="5.46412">
        <ele>538</ele>
        <time>2026-05-09T13:54:17Z</time>
      </trkpt>
      <trkpt lat="46.04362" lon="5.46413">
        <ele>538.2</ele>
        <time>2026-05-09T13:54:18Z</time>
      </trkpt>
      <trkpt lat="46.04361" lon="5.46413">
        <ele>538.2</ele>
        <time>2026-05-09T13:54:19Z</time>
      </trkpt>
      <trkpt lat="46.04359" lon="5.46413">
        <ele>538.2</ele>
        <time>2026-05-09T13:54:20Z</time>
      </trkpt>
      <trkpt lat="46.04358" lon="5.46413">
        <ele>538.2</ele>
        <time>2026-05-09T13:54:21Z</time>
      </trkpt>
      <trkpt lat="46.04356" lon="5.46413">
        <ele>538.6</ele>
        <time>2026-05-09T13:54:22Z</time>
      </trkpt>
      <trkpt lat="46.04354" lon="5.46412">
        <ele>538.6</ele>
        <time>2026-05-09T13:54:23Z</time>
      </trkpt>
      <trkpt lat="46.04353" lon="5.46412">
        <ele>539</ele>
        <time>2026-05-09T13:54:24Z</time>
      </trkpt>
      <trkpt lat="46.04352" lon="5.46412">
        <ele>539</ele>
        <time>2026-05-09T13:54:25Z</time>
      </trkpt>
      <trkpt lat="46.0435" lon="5.46412">
        <ele>539.2</ele>
        <time>2026-05-09T13:54:26Z</time>
      </trkpt>
      <trkpt lat="46.04348" lon="5.46412">
        <ele>539.2</ele>
        <time>2026-05-09T13:54:27Z</time>
      </trkpt>
      <trkpt lat="46.04347" lon="5.46412">
        <ele>539.4</ele>
        <time>2026-05-09T13:54:28Z</time>
      </trkpt>
      <trkpt lat="46.04345" lon="5.46412">
        <ele>539.4</ele>
        <time>2026-05-09T13:54:29Z</time>
      </trkpt>
      <trkpt lat="46.04343" lon="5.46412">
        <ele>539.4</ele>
        <time>2026-05-09T13:54:30Z</time>
      </trkpt>
      <trkpt lat="46.04342" lon="5.46412">
        <ele>539.8</ele>
        <time>2026-05-09T13:54:31Z</time>
      </trkpt>
      <trkpt lat="46.0434" lon="5.46412">
        <ele>539.8</ele>
        <time>2026-05-09T13:54:32Z</time>
      </trkpt>
      <trkpt lat="46.04338" lon="5.46412">
        <ele>540.2</ele>
        <time>2026-05-09T13:54:33Z</time>
      </trkpt>
      <trkpt lat="46.04337" lon="5.46412">
        <ele>540.4</ele>
        <time>2026-05-09T13:54:34Z</time>
      </trkpt>
      <trkpt lat="46.04335" lon="5.46411">
        <ele>540.4</ele>
        <time>2026-05-09T13:54:35Z</time>
      </trkpt>
      <trkpt lat="46.04334" lon="5.46411">
        <ele>540.4</ele>
        <time>2026-05-09T13:54:36Z</time>
      </trkpt>
      <trkpt lat="46.04332" lon="5.4641">
        <ele>540.6</ele>
        <time>2026-05-09T13:54:37Z</time>
      </trkpt>
      <trkpt lat="46.0433" lon="5.46411">
        <ele>540.8</ele>
        <time>2026-05-09T13:54:38Z</time>
      </trkpt>
      <trkpt lat="46.04329" lon="5.46412">
        <ele>540.8</ele>
        <time>2026-05-09T13:54:39Z</time>
      </trkpt>
      <trkpt lat="46.04327" lon="5.46413">
        <ele>541</ele>
        <time>2026-05-09T13:54:40Z</time>
      </trkpt>
      <trkpt lat="46.04327" lon="5.46413">
        <ele>541</ele>
        <time>2026-05-09T13:54:41Z</time>
      </trkpt>
      <trkpt lat="46.04326" lon="5.46413">
        <ele>541.4</ele>
        <time>2026-05-09T13:54:42Z</time>
      </trkpt>
      <trkpt lat="46.04325" lon="5.46414">
        <ele>541.4</ele>
        <time>2026-05-09T13:54:43Z</time>
      </trkpt>
      <trkpt lat="46.04323" lon="5.46415">
        <ele>541.8</ele>
        <time>2026-05-09T13:54:44Z</time>
      </trkpt>
      <trkpt lat="46.04321" lon="5.46415">
        <ele>541.8</ele>
        <time>2026-05-09T13:54:45Z</time>
      </trkpt>
      <trkpt lat="46.0432" lon="5.46416">
        <ele>542.2</ele>
        <time>2026-05-09T13:54:46Z</time>
      </trkpt>
      <trkpt lat="46.04318" lon="5.46417">
        <ele>542.2</ele>
        <time>2026-05-09T13:54:47Z</time>
      </trkpt>
      <trkpt lat="46.04317" lon="5.46418">
        <ele>542.4</ele>
        <time>2026-05-09T13:54:48Z</time>
      </trkpt>
      <trkpt lat="46.04316" lon="5.46419">
        <ele>542.4</ele>
        <time>2026-05-09T13:54:49Z</time>
      </trkpt>
      <trkpt lat="46.04314" lon="5.4642">
        <ele>542.4</ele>
        <time>2026-05-09T13:54:50Z</time>
      </trkpt>
      <trkpt lat="46.04313" lon="5.46422">
        <ele>542.4</ele>
        <time>2026-05-09T13:54:51Z</time>
      </trkpt>
      <trkpt lat="46.04312" lon="5.46423">
        <ele>542.4</ele>
        <time>2026-05-09T13:54:52Z</time>
      </trkpt>
      <trkpt lat="46.0431" lon="5.46423">
        <ele>542.4</ele>
        <time>2026-05-09T13:54:53Z</time>
      </trkpt>
      <trkpt lat="46.04308" lon="5.46424">
        <ele>542.4</ele>
        <time>2026-05-09T13:54:54Z</time>
      </trkpt>
      <trkpt lat="46.04307" lon="5.46424">
        <ele>542.8</ele>
        <time>2026-05-09T13:54:55Z</time>
      </trkpt>
      <trkpt lat="46.04305" lon="5.46425">
        <ele>542.8</ele>
        <time>2026-05-09T13:54:56Z</time>
      </trkpt>
      <trkpt lat="46.04304" lon="5.46426">
        <ele>543</ele>
        <time>2026-05-09T13:54:57Z</time>
      </trkpt>
      <trkpt lat="46.04303" lon="5.46427">
        <ele>543.2</ele>
        <time>2026-05-09T13:54:58Z</time>
      </trkpt>
      <trkpt lat="46.04301" lon="5.46429">
        <ele>543.2</ele>
        <time>2026-05-09T13:54:59Z</time>
      </trkpt>
      <trkpt lat="46.043" lon="5.4643">
        <ele>543.2</ele>
        <time>2026-05-09T13:55:00Z</time>
      </trkpt>
      <trkpt lat="46.04298" lon="5.46431">
        <ele>543.4</ele>
        <time>2026-05-09T13:55:01Z</time>
      </trkpt>
      <trkpt lat="46.04297" lon="5.46432">
        <ele>543.4</ele>
        <time>2026-05-09T13:55:02Z</time>
      </trkpt>
      <trkpt lat="46.04295" lon="5.46433">
        <ele>543.8</ele>
        <time>2026-05-09T13:55:03Z</time>
      </trkpt>
      <trkpt lat="46.04294" lon="5.46435">
        <ele>543.8</ele>
        <time>2026-05-09T13:55:04Z</time>
      </trkpt>
      <trkpt lat="46.04292" lon="5.46437">
        <ele>543.8</ele>
        <time>2026-05-09T13:55:05Z</time>
      </trkpt>
      <trkpt lat="46.04291" lon="5.46439">
        <ele>544</ele>
        <time>2026-05-09T13:55:06Z</time>
      </trkpt>
      <trkpt lat="46.04289" lon="5.46441">
        <ele>544</ele>
        <time>2026-05-09T13:55:07Z</time>
      </trkpt>
      <trkpt lat="46.04288" lon="5.46443">
        <ele>544</ele>
        <time>2026-05-09T13:55:08Z</time>
      </trkpt>
      <trkpt lat="46.04287" lon="5.46444">
        <ele>544</ele>
        <time>2026-05-09T13:55:09Z</time>
      </trkpt>
      <trkpt lat="46.04286" lon="5.46445">
        <ele>544.4</ele>
        <time>2026-05-09T13:55:10Z</time>
      </trkpt>
      <trkpt lat="46.04284" lon="5.46447">
        <ele>544.4</ele>
        <time>2026-05-09T13:55:11Z</time>
      </trkpt>
      <trkpt lat="46.04283" lon="5.46448">
        <ele>544.6</ele>
        <time>2026-05-09T13:55:12Z</time>
      </trkpt>
      <trkpt lat="46.04282" lon="5.4645">
        <ele>544.6</ele>
        <time>2026-05-09T13:55:13Z</time>
      </trkpt>
      <trkpt lat="46.04281" lon="5.46451">
        <ele>544.6</ele>
        <time>2026-05-09T13:55:14Z</time>
      </trkpt>
      <trkpt lat="46.0428" lon="5.46453">
        <ele>544.6</ele>
        <time>2026-05-09T13:55:15Z</time>
      </trkpt>
      <trkpt lat="46.04279" lon="5.46454">
        <ele>545</ele>
        <time>2026-05-09T13:55:16Z</time>
      </trkpt>
      <trkpt lat="46.04278" lon="5.46456">
        <ele>545</ele>
        <time>2026-05-09T13:55:17Z</time>
      </trkpt>
      <trkpt lat="46.04277" lon="5.46458">
        <ele>545.2</ele>
        <time>2026-05-09T13:55:18Z</time>
      </trkpt>
      <trkpt lat="46.04276" lon="5.4646">
        <ele>545.2</ele>
        <time>2026-05-09T13:55:19Z</time>
      </trkpt>
      <trkpt lat="46.04274" lon="5.46461">
        <ele>545.6</ele>
        <time>2026-05-09T13:55:20Z</time>
      </trkpt>
      <trkpt lat="46.04273" lon="5.46463">
        <ele>545.6</ele>
        <time>2026-05-09T13:55:21Z</time>
      </trkpt>
      <trkpt lat="46.04271" lon="5.46464">
        <ele>545.6</ele>
        <time>2026-05-09T13:55:22Z</time>
      </trkpt>
      <trkpt lat="46.0427" lon="5.46465">
        <ele>545.8</ele>
        <time>2026-05-09T13:55:23Z</time>
      </trkpt>
      <trkpt lat="46.04269" lon="5.46467">
        <ele>545.8</ele>
        <time>2026-05-09T13:55:24Z</time>
      </trkpt>
      <trkpt lat="46.04268" lon="5.46469">
        <ele>545.8</ele>
        <time>2026-05-09T13:55:25Z</time>
      </trkpt>
      <trkpt lat="46.04268" lon="5.46471">
        <ele>546.2</ele>
        <time>2026-05-09T13:55:26Z</time>
      </trkpt>
      <trkpt lat="46.04266" lon="5.46473">
        <ele>546.2</ele>
        <time>2026-05-09T13:55:27Z</time>
      </trkpt>
      <trkpt lat="46.04265" lon="5.46475">
        <ele>546.2</ele>
        <time>2026-05-09T13:55:28Z</time>
      </trkpt>
      <trkpt lat="46.04264" lon="5.46477">
        <ele>546.4</ele>
        <time>2026-05-09T13:55:29Z</time>
      </trkpt>
      <trkpt lat="46.04264" lon="5.46479">
        <ele>546.4</ele>
        <time>2026-05-09T13:55:30Z</time>
      </trkpt>
      <trkpt lat="46.04263" lon="5.46481">
        <ele>546.4</ele>
        <time>2026-05-09T13:55:31Z</time>
      </trkpt>
      <trkpt lat="46.04263" lon="5.46484">
        <ele>546.6</ele>
        <time>2026-05-09T13:55:32Z</time>
      </trkpt>
      <trkpt lat="46.04262" lon="5.46486">
        <ele>546.6</ele>
        <time>2026-05-09T13:55:33Z</time>
      </trkpt>
      <trkpt lat="46.04261" lon="5.46488">
        <ele>546.6</ele>
        <time>2026-05-09T13:55:34Z</time>
      </trkpt>
      <trkpt lat="46.04261" lon="5.4649">
        <ele>546.6</ele>
        <time>2026-05-09T13:55:35Z</time>
      </trkpt>
      <trkpt lat="46.0426" lon="5.46493">
        <ele>547</ele>
        <time>2026-05-09T13:55:36Z</time>
      </trkpt>
      <trkpt lat="46.0426" lon="5.46495">
        <ele>547.2</ele>
        <time>2026-05-09T13:55:37Z</time>
      </trkpt>
      <trkpt lat="46.0426" lon="5.46497">
        <ele>547.2</ele>
        <time>2026-05-09T13:55:38Z</time>
      </trkpt>
      <trkpt lat="46.04259" lon="5.465">
        <ele>547.6</ele>
        <time>2026-05-09T13:55:39Z</time>
      </trkpt>
      <trkpt lat="46.04259" lon="5.46502">
        <ele>547.6</ele>
        <time>2026-05-09T13:55:40Z</time>
      </trkpt>
      <trkpt lat="46.04259" lon="5.46504">
        <ele>547.8</ele>
        <time>2026-05-09T13:55:41Z</time>
      </trkpt>
      <trkpt lat="46.04259" lon="5.46506">
        <ele>547.8</ele>
        <time>2026-05-09T13:55:42Z</time>
      </trkpt>
      <trkpt lat="46.04259" lon="5.46508">
        <ele>548</ele>
        <time>2026-05-09T13:55:43Z</time>
      </trkpt>
      <trkpt lat="46.04259" lon="5.46511">
        <ele>548.2</ele>
        <time>2026-05-09T13:55:44Z</time>
      </trkpt>
      <trkpt lat="46.04259" lon="5.46513">
        <ele>548.2</ele>
        <time>2026-05-09T13:55:45Z</time>
      </trkpt>
      <trkpt lat="46.04259" lon="5.46515">
        <ele>548.2</ele>
        <time>2026-05-09T13:55:46Z</time>
      </trkpt>
      <trkpt lat="46.04259" lon="5.46518">
        <ele>548.6</ele>
        <time>2026-05-09T13:55:47Z</time>
      </trkpt>
      <trkpt lat="46.04259" lon="5.4652">
        <ele>548.6</ele>
        <time>2026-05-09T13:55:48Z</time>
      </trkpt>
      <trkpt lat="46.04259" lon="5.46522">
        <ele>548.8</ele>
        <time>2026-05-09T13:55:49Z</time>
      </trkpt>
      <trkpt lat="46.04259" lon="5.46524">
        <ele>548.8</ele>
        <time>2026-05-09T13:55:50Z</time>
      </trkpt>
      <trkpt lat="46.0426" lon="5.46526">
        <ele>548.8</ele>
        <time>2026-05-09T13:55:51Z</time>
      </trkpt>
      <trkpt lat="46.0426" lon="5.46528">
        <ele>549.2</ele>
        <time>2026-05-09T13:55:52Z</time>
      </trkpt>
      <trkpt lat="46.0426" lon="5.4653">
        <ele>549.2</ele>
        <time>2026-05-09T13:55:53Z</time>
      </trkpt>
      <trkpt lat="46.0426" lon="5.46532">
        <ele>549.2</ele>
        <time>2026-05-09T13:55:54Z</time>
      </trkpt>
      <trkpt lat="46.04261" lon="5.46534">
        <ele>549.2</ele>
        <time>2026-05-09T13:55:55Z</time>
      </trkpt>
      <trkpt lat="46.04261" lon="5.46536">
        <ele>549.2</ele>
        <time>2026-05-09T13:55:56Z</time>
      </trkpt>
      <trkpt lat="46.04262" lon="5.46538">
        <ele>549.2</ele>
        <time>2026-05-09T13:55:57Z</time>
      </trkpt>
      <trkpt lat="46.04262" lon="5.4654">
        <ele>549.4</ele>
        <time>2026-05-09T13:55:58Z</time>
      </trkpt>
      <trkpt lat="46.04262" lon="5.46541">
        <ele>549.4</ele>
        <time>2026-05-09T13:55:59Z</time>
      </trkpt>
      <trkpt lat="46.04263" lon="5.46543">
        <ele>549.8</ele>
        <time>2026-05-09T13:56:00Z</time>
      </trkpt>
      <trkpt lat="46.04264" lon="5.46545">
        <ele>549.8</ele>
        <time>2026-05-09T13:56:01Z</time>
      </trkpt>
      <trkpt lat="46.04264" lon="5.46547">
        <ele>550</ele>
        <time>2026-05-09T13:56:02Z</time>
      </trkpt>
      <trkpt lat="46.04265" lon="5.46549">
        <ele>550.2</ele>
        <time>2026-05-09T13:56:03Z</time>
      </trkpt>
      <trkpt lat="46.04265" lon="5.46552">
        <ele>550.2</ele>
        <time>2026-05-09T13:56:04Z</time>
      </trkpt>
      <trkpt lat="46.04266" lon="5.46556">
        <ele>550.6</ele>
        <time>2026-05-09T13:56:05Z</time>
      </trkpt>
      <trkpt lat="46.04267" lon="5.46558">
        <ele>550.6</ele>
        <time>2026-05-09T13:56:06Z</time>
      </trkpt>
      <trkpt lat="46.04267" lon="5.4656">
        <ele>550.8</ele>
        <time>2026-05-09T13:56:07Z</time>
      </trkpt>
      <trkpt lat="46.04268" lon="5.46562">
        <ele>550.8</ele>
        <time>2026-05-09T13:56:08Z</time>
      </trkpt>
      <trkpt lat="46.04269" lon="5.46564">
        <ele>551</ele>
        <time>2026-05-09T13:56:09Z</time>
      </trkpt>
      <trkpt lat="46.0427" lon="5.46565">
        <ele>551.4</ele>
        <time>2026-05-09T13:56:10Z</time>
      </trkpt>
      <trkpt lat="46.04271" lon="5.46567">
        <ele>551.6</ele>
        <time>2026-05-09T13:56:11Z</time>
      </trkpt>
      <trkpt lat="46.04271" lon="5.46569">
        <ele>551.6</ele>
        <time>2026-05-09T13:56:12Z</time>
      </trkpt>
      <trkpt lat="46.04272" lon="5.46571">
        <ele>551.6</ele>
        <time>2026-05-09T13:56:13Z</time>
      </trkpt>
      <trkpt lat="46.04272" lon="5.46572">
        <ele>551.6</ele>
        <time>2026-05-09T13:56:14Z</time>
      </trkpt>
      <trkpt lat="46.04273" lon="5.46575">
        <ele>551.8</ele>
        <time>2026-05-09T13:56:15Z</time>
      </trkpt>
      <trkpt lat="46.04273" lon="5.46577">
        <ele>551.8</ele>
        <time>2026-05-09T13:56:16Z</time>
      </trkpt>
      <trkpt lat="46.04273" lon="5.46579">
        <ele>552.2</ele>
        <time>2026-05-09T13:56:17Z</time>
      </trkpt>
      <trkpt lat="46.04273" lon="5.46581">
        <ele>552.2</ele>
        <time>2026-05-09T13:56:18Z</time>
      </trkpt>
      <trkpt lat="46.04274" lon="5.46584">
        <ele>552.2</ele>
        <time>2026-05-09T13:56:19Z</time>
      </trkpt>
      <trkpt lat="46.04274" lon="5.46586">
        <ele>552.4</ele>
        <time>2026-05-09T13:56:20Z</time>
      </trkpt>
      <trkpt lat="46.04275" lon="5.46589">
        <ele>552.4</ele>
        <time>2026-05-09T13:56:21Z</time>
      </trkpt>
      <trkpt lat="46.04275" lon="5.46592">
        <ele>552.4</ele>
        <time>2026-05-09T13:56:22Z</time>
      </trkpt>
      <trkpt lat="46.04276" lon="5.46594">
        <ele>552.4</ele>
        <time>2026-05-09T13:56:23Z</time>
      </trkpt>
      <trkpt lat="46.04277" lon="5.46596">
        <ele>552.6</ele>
        <time>2026-05-09T13:56:24Z</time>
      </trkpt>
      <trkpt lat="46.04277" lon="5.46598">
        <ele>552.6</ele>
        <time>2026-05-09T13:56:25Z</time>
      </trkpt>
      <trkpt lat="46.04278" lon="5.466">
        <ele>552.6</ele>
        <time>2026-05-09T13:56:26Z</time>
      </trkpt>
      <trkpt lat="46.04278" lon="5.46602">
        <ele>552.6</ele>
        <time>2026-05-09T13:56:27Z</time>
      </trkpt>
      <trkpt lat="46.04278" lon="5.46605">
        <ele>552.8</ele>
        <time>2026-05-09T13:56:28Z</time>
      </trkpt>
      <trkpt lat="46.04279" lon="5.46607">
        <ele>552.8</ele>
        <time>2026-05-09T13:56:29Z</time>
      </trkpt>
      <trkpt lat="46.04279" lon="5.46609">
        <ele>552.8</ele>
        <time>2026-05-09T13:56:30Z</time>
      </trkpt>
      <trkpt lat="46.0428" lon="5.46611">
        <ele>553</ele>
        <time>2026-05-09T13:56:31Z</time>
      </trkpt>
      <trkpt lat="46.0428" lon="5.46613">
        <ele>553</ele>
        <time>2026-05-09T13:56:32Z</time>
      </trkpt>
      <trkpt lat="46.04281" lon="5.46616">
        <ele>553</ele>
        <time>2026-05-09T13:56:33Z</time>
      </trkpt>
      <trkpt lat="46.04281" lon="5.46618">
        <ele>553.2</ele>
        <time>2026-05-09T13:56:34Z</time>
      </trkpt>
      <trkpt lat="46.04281" lon="5.4662">
        <ele>553.2</ele>
        <time>2026-05-09T13:56:35Z</time>
      </trkpt>
      <trkpt lat="46.04282" lon="5.46623">
        <ele>553.4</ele>
        <time>2026-05-09T13:56:36Z</time>
      </trkpt>
      <trkpt lat="46.04282" lon="5.46624">
        <ele>553.6</ele>
        <time>2026-05-09T13:56:37Z</time>
      </trkpt>
      <trkpt lat="46.04283" lon="5.46626">
        <ele>554</ele>
        <time>2026-05-09T13:56:38Z</time>
      </trkpt>
      <trkpt lat="46.04283" lon="5.46629">
        <ele>554</ele>
        <time>2026-05-09T13:56:39Z</time>
      </trkpt>
      <trkpt lat="46.04284" lon="5.46631">
        <ele>554</ele>
        <time>2026-05-09T13:56:40Z</time>
      </trkpt>
      <trkpt lat="46.04284" lon="5.46633">
        <ele>554.2</ele>
        <time>2026-05-09T13:56:41Z</time>
      </trkpt>
      <trkpt lat="46.04284" lon="5.46636">
        <ele>554.2</ele>
        <time>2026-05-09T13:56:42Z</time>
      </trkpt>
      <trkpt lat="46.04285" lon="5.46638">
        <ele>554.2</ele>
        <time>2026-05-09T13:56:43Z</time>
      </trkpt>
      <trkpt lat="46.04285" lon="5.46641">
        <ele>554.6</ele>
        <time>2026-05-09T13:56:44Z</time>
      </trkpt>
      <trkpt lat="46.04286" lon="5.46644">
        <ele>554.6</ele>
        <time>2026-05-09T13:56:45Z</time>
      </trkpt>
      <trkpt lat="46.04286" lon="5.46646">
        <ele>555</ele>
        <time>2026-05-09T13:56:46Z</time>
      </trkpt>
      <trkpt lat="46.04287" lon="5.46649">
        <ele>555</ele>
        <time>2026-05-09T13:56:47Z</time>
      </trkpt>
      <trkpt lat="46.04287" lon="5.46651">
        <ele>555.2</ele>
        <time>2026-05-09T13:56:48Z</time>
      </trkpt>
      <trkpt lat="46.04287" lon="5.46653">
        <ele>555.2</ele>
        <time>2026-05-09T13:56:49Z</time>
      </trkpt>
      <trkpt lat="46.04287" lon="5.46656">
        <ele>555.2</ele>
        <time>2026-05-09T13:56:50Z</time>
      </trkpt>
      <trkpt lat="46.04287" lon="5.46658">
        <ele>555.6</ele>
        <time>2026-05-09T13:56:51Z</time>
      </trkpt>
      <trkpt lat="46.04288" lon="5.4666">
        <ele>555.6</ele>
        <time>2026-05-09T13:56:52Z</time>
      </trkpt>
      <trkpt lat="46.04288" lon="5.46663">
        <ele>555.6</ele>
        <time>2026-05-09T13:56:53Z</time>
      </trkpt>
      <trkpt lat="46.04288" lon="5.46665">
        <ele>555.8</ele>
        <time>2026-05-09T13:56:54Z</time>
      </trkpt>
      <trkpt lat="46.04289" lon="5.46667">
        <ele>555.8</ele>
        <time>2026-05-09T13:56:55Z</time>
      </trkpt>
      <trkpt lat="46.0429" lon="5.46668">
        <ele>555.8</ele>
        <time>2026-05-09T13:56:56Z</time>
      </trkpt>
      <trkpt lat="46.0429" lon="5.4667">
        <ele>556</ele>
        <time>2026-05-09T13:56:57Z</time>
      </trkpt>
      <trkpt lat="46.0429" lon="5.46672">
        <ele>556</ele>
        <time>2026-05-09T13:56:58Z</time>
      </trkpt>
      <trkpt lat="46.0429" lon="5.46675">
        <ele>556.4</ele>
        <time>2026-05-09T13:56:59Z</time>
      </trkpt>
      <trkpt lat="46.04291" lon="5.46677">
        <ele>556.4</ele>
        <time>2026-05-09T13:57:00Z</time>
      </trkpt>
      <trkpt lat="46.04291" lon="5.4668">
        <ele>556.4</ele>
        <time>2026-05-09T13:57:01Z</time>
      </trkpt>
      <trkpt lat="46.04291" lon="5.46682">
        <ele>556.4</ele>
        <time>2026-05-09T13:57:02Z</time>
      </trkpt>
      <trkpt lat="46.0429" lon="5.46685">
        <ele>556.8</ele>
        <time>2026-05-09T13:57:03Z</time>
      </trkpt>
      <trkpt lat="46.0429" lon="5.46687">
        <ele>556.8</ele>
        <time>2026-05-09T13:57:04Z</time>
      </trkpt>
      <trkpt lat="46.0429" lon="5.4669">
        <ele>557</ele>
        <time>2026-05-09T13:57:05Z</time>
      </trkpt>
      <trkpt lat="46.04291" lon="5.46692">
        <ele>557</ele>
        <time>2026-05-09T13:57:06Z</time>
      </trkpt>
      <trkpt lat="46.04291" lon="5.46694">
        <ele>557.2</ele>
        <time>2026-05-09T13:57:07Z</time>
      </trkpt>
      <trkpt lat="46.04291" lon="5.46697">
        <ele>557.4</ele>
        <time>2026-05-09T13:57:08Z</time>
      </trkpt>
      <trkpt lat="46.04292" lon="5.46699">
        <ele>557.4</ele>
        <time>2026-05-09T13:57:09Z</time>
      </trkpt>
      <trkpt lat="46.04292" lon="5.46701">
        <ele>557.4</ele>
        <time>2026-05-09T13:57:10Z</time>
      </trkpt>
      <trkpt lat="46.04292" lon="5.46704">
        <ele>557.8</ele>
        <time>2026-05-09T13:57:11Z</time>
      </trkpt>
      <trkpt lat="46.04292" lon="5.46705">
        <ele>557.8</ele>
        <time>2026-05-09T13:57:12Z</time>
      </trkpt>
      <trkpt lat="46.04292" lon="5.46707">
        <ele>557.8</ele>
        <time>2026-05-09T13:57:13Z</time>
      </trkpt>
      <trkpt lat="46.04293" lon="5.4671">
        <ele>558.2</ele>
        <time>2026-05-09T13:57:14Z</time>
      </trkpt>
      <trkpt lat="46.04293" lon="5.46712">
        <ele>558.2</ele>
        <time>2026-05-09T13:57:15Z</time>
      </trkpt>
      <trkpt lat="46.04293" lon="5.46714">
        <ele>558.2</ele>
        <time>2026-05-09T13:57:16Z</time>
      </trkpt>
      <trkpt lat="46.04293" lon="5.46716">
        <ele>558.6</ele>
        <time>2026-05-09T13:57:17Z</time>
      </trkpt>
      <trkpt lat="46.04293" lon="5.46718">
        <ele>558.6</ele>
        <time>2026-05-09T13:57:18Z</time>
      </trkpt>
      <trkpt lat="46.04294" lon="5.4672">
        <ele>558.6</ele>
        <time>2026-05-09T13:57:19Z</time>
      </trkpt>
      <trkpt lat="46.04295" lon="5.46722">
        <ele>558.8</ele>
        <time>2026-05-09T13:57:20Z</time>
      </trkpt>
      <trkpt lat="46.04295" lon="5.46724">
        <ele>558.8</ele>
        <time>2026-05-09T13:57:21Z</time>
      </trkpt>
      <trkpt lat="46.04296" lon="5.46726">
        <ele>559.2</ele>
        <time>2026-05-09T13:57:22Z</time>
      </trkpt>
      <trkpt lat="46.04296" lon="5.46728">
        <ele>559.2</ele>
        <time>2026-05-09T13:57:23Z</time>
      </trkpt>
      <trkpt lat="46.04297" lon="5.4673">
        <ele>559.6</ele>
        <time>2026-05-09T13:57:24Z</time>
      </trkpt>
      <trkpt lat="46.04297" lon="5.46732">
        <ele>559.6</ele>
        <time>2026-05-09T13:57:25Z</time>
      </trkpt>
      <trkpt lat="46.04298" lon="5.46734">
        <ele>559.6</ele>
        <time>2026-05-09T13:57:26Z</time>
      </trkpt>
      <trkpt lat="46.04298" lon="5.46736">
        <ele>559.8</ele>
        <time>2026-05-09T13:57:27Z</time>
      </trkpt>
      <trkpt lat="46.04299" lon="5.46738">
        <ele>559.8</ele>
        <time>2026-05-09T13:57:28Z</time>
      </trkpt>
      <trkpt lat="46.043" lon="5.4674">
        <ele>560.2</ele>
        <time>2026-05-09T13:57:29Z</time>
      </trkpt>
      <trkpt lat="46.04301" lon="5.46741">
        <ele>560.2</ele>
        <time>2026-05-09T13:57:30Z</time>
      </trkpt>
      <trkpt lat="46.04302" lon="5.46743">
        <ele>560.2</ele>
        <time>2026-05-09T13:57:31Z</time>
      </trkpt>
      <trkpt lat="46.04302" lon="5.46745">
        <ele>560.6</ele>
        <time>2026-05-09T13:57:32Z</time>
      </trkpt>
      <trkpt lat="46.04303" lon="5.46747">
        <ele>560.6</ele>
        <time>2026-05-09T13:57:33Z</time>
      </trkpt>
      <trkpt lat="46.04304" lon="5.46749">
        <ele>561</ele>
        <time>2026-05-09T13:57:34Z</time>
      </trkpt>
      <trkpt lat="46.04304" lon="5.4675">
        <ele>561</ele>
        <time>2026-05-09T13:57:35Z</time>
      </trkpt>
      <trkpt lat="46.04305" lon="5.46752">
        <ele>561</ele>
        <time>2026-05-09T13:57:36Z</time>
      </trkpt>
      <trkpt lat="46.04305" lon="5.46754">
        <ele>561</ele>
        <time>2026-05-09T13:57:37Z</time>
      </trkpt>
      <trkpt lat="46.04306" lon="5.46756">
        <ele>561.2</ele>
        <time>2026-05-09T13:57:38Z</time>
      </trkpt>
      <trkpt lat="46.04306" lon="5.46756">
        <ele>561.2</ele>
        <time>2026-05-09T13:57:39Z</time>
      </trkpt>
      <trkpt lat="46.04306" lon="5.46758">
        <ele>561.2</ele>
        <time>2026-05-09T13:57:40Z</time>
      </trkpt>
      <trkpt lat="46.04307" lon="5.4676">
        <ele>561.4</ele>
        <time>2026-05-09T13:57:41Z</time>
      </trkpt>
      <trkpt lat="46.04308" lon="5.46762">
        <ele>561.4</ele>
        <time>2026-05-09T13:57:42Z</time>
      </trkpt>
      <trkpt lat="46.04309" lon="5.46763">
        <ele>561.4</ele>
        <time>2026-05-09T13:57:43Z</time>
      </trkpt>
      <trkpt lat="46.04311" lon="5.46765">
        <ele>561.8</ele>
        <time>2026-05-09T13:57:44Z</time>
      </trkpt>
      <trkpt lat="46.04312" lon="5.46767">
        <ele>561.8</ele>
        <time>2026-05-09T13:57:45Z</time>
      </trkpt>
      <trkpt lat="46.04313" lon="5.46768">
        <ele>561.8</ele>
        <time>2026-05-09T13:57:46Z</time>
      </trkpt>
      <trkpt lat="46.04315" lon="5.4677">
        <ele>562</ele>
        <time>2026-05-09T13:57:47Z</time>
      </trkpt>
      <trkpt lat="46.04316" lon="5.46772">
        <ele>562</ele>
        <time>2026-05-09T13:57:48Z</time>
      </trkpt>
      <trkpt lat="46.04318" lon="5.46773">
        <ele>562.2</ele>
        <time>2026-05-09T13:57:49Z</time>
      </trkpt>
      <trkpt lat="46.04319" lon="5.46774">
        <ele>562.2</ele>
        <time>2026-05-09T13:57:50Z</time>
      </trkpt>
      <trkpt lat="46.0432" lon="5.46776">
        <ele>562.2</ele>
        <time>2026-05-09T13:57:51Z</time>
      </trkpt>
      <trkpt lat="46.04322" lon="5.46777">
        <ele>562.6</ele>
        <time>2026-05-09T13:57:52Z</time>
      </trkpt>
      <trkpt lat="46.04323" lon="5.46778">
        <ele>562.6</ele>
        <time>2026-05-09T13:57:53Z</time>
      </trkpt>
      <trkpt lat="46.04324" lon="5.46779">
        <ele>562.8</ele>
        <time>2026-05-09T13:57:54Z</time>
      </trkpt>
      <trkpt lat="46.04326" lon="5.46779">
        <ele>562.8</ele>
        <time>2026-05-09T13:57:55Z</time>
      </trkpt>
      <trkpt lat="46.04327" lon="5.4678">
        <ele>563</ele>
        <time>2026-05-09T13:57:56Z</time>
      </trkpt>
      <trkpt lat="46.04329" lon="5.4678">
        <ele>563</ele>
        <time>2026-05-09T13:57:57Z</time>
      </trkpt>
      <trkpt lat="46.0433" lon="5.4678">
        <ele>563.4</ele>
        <time>2026-05-09T13:57:58Z</time>
      </trkpt>
      <trkpt lat="46.04331" lon="5.4678">
        <ele>563.4</ele>
        <time>2026-05-09T13:57:59Z</time>
      </trkpt>
      <trkpt lat="46.04333" lon="5.4678">
        <ele>563.4</ele>
        <time>2026-05-09T13:58:00Z</time>
      </trkpt>
      <trkpt lat="46.04335" lon="5.4678">
        <ele>563.6</ele>
        <time>2026-05-09T13:58:01Z</time>
      </trkpt>
      <trkpt lat="46.04336" lon="5.4678">
        <ele>563.6</ele>
        <time>2026-05-09T13:58:02Z</time>
      </trkpt>
      <trkpt lat="46.04338" lon="5.46779">
        <ele>563.8</ele>
        <time>2026-05-09T13:58:03Z</time>
      </trkpt>
      <trkpt lat="46.0434" lon="5.46778">
        <ele>563.8</ele>
        <time>2026-05-09T13:58:04Z</time>
      </trkpt>
      <trkpt lat="46.04342" lon="5.46778">
        <ele>564</ele>
        <time>2026-05-09T13:58:05Z</time>
      </trkpt>
      <trkpt lat="46.04343" lon="5.46777">
        <ele>564</ele>
        <time>2026-05-09T13:58:06Z</time>
      </trkpt>
      <trkpt lat="46.04345" lon="5.46777">
        <ele>564</ele>
        <time>2026-05-09T13:58:07Z</time>
      </trkpt>
      <trkpt lat="46.04346" lon="5.46777">
        <ele>564.2</ele>
        <time>2026-05-09T13:58:08Z</time>
      </trkpt>
      <trkpt lat="46.04348" lon="5.46777">
        <ele>564.6</ele>
        <time>2026-05-09T13:58:09Z</time>
      </trkpt>
      <trkpt lat="46.04349" lon="5.46777">
        <ele>564.6</ele>
        <time>2026-05-09T13:58:10Z</time>
      </trkpt>
      <trkpt lat="46.04351" lon="5.46777">
        <ele>564.8</ele>
        <time>2026-05-09T13:58:11Z</time>
      </trkpt>
      <trkpt lat="46.04352" lon="5.46777">
        <ele>564.8</ele>
        <time>2026-05-09T13:58:12Z</time>
      </trkpt>
      <trkpt lat="46.04354" lon="5.46777">
        <ele>565.2</ele>
        <time>2026-05-09T13:58:13Z</time>
      </trkpt>
      <trkpt lat="46.04356" lon="5.46777">
        <ele>565.2</ele>
        <time>2026-05-09T13:58:14Z</time>
      </trkpt>
      <trkpt lat="46.04357" lon="5.46776">
        <ele>565.2</ele>
        <time>2026-05-09T13:58:15Z</time>
      </trkpt>
      <trkpt lat="46.04359" lon="5.46776">
        <ele>565.4</ele>
        <time>2026-05-09T13:58:16Z</time>
      </trkpt>
      <trkpt lat="46.04361" lon="5.46776">
        <ele>565.4</ele>
        <time>2026-05-09T13:58:17Z</time>
      </trkpt>
      <trkpt lat="46.04363" lon="5.46776">
        <ele>565.4</ele>
        <time>2026-05-09T13:58:18Z</time>
      </trkpt>
      <trkpt lat="46.04364" lon="5.46777">
        <ele>565.4</ele>
        <time>2026-05-09T13:58:19Z</time>
      </trkpt>
      <trkpt lat="46.04366" lon="5.46777">
        <ele>565.4</ele>
        <time>2026-05-09T13:58:20Z</time>
      </trkpt>
      <trkpt lat="46.04368" lon="5.46777">
        <ele>565.8</ele>
        <time>2026-05-09T13:58:21Z</time>
      </trkpt>
      <trkpt lat="46.0437" lon="5.46777">
        <ele>565.8</ele>
        <time>2026-05-09T13:58:22Z</time>
      </trkpt>
      <trkpt lat="46.04371" lon="5.46777">
        <ele>565.8</ele>
        <time>2026-05-09T13:58:23Z</time>
      </trkpt>
      <trkpt lat="46.04373" lon="5.46778">
        <ele>566</ele>
        <time>2026-05-09T13:58:24Z</time>
      </trkpt>
      <trkpt lat="46.04374" lon="5.46778">
        <ele>566.2</ele>
        <time>2026-05-09T13:58:25Z</time>
      </trkpt>
      <trkpt lat="46.04376" lon="5.46779">
        <ele>566.2</ele>
        <time>2026-05-09T13:58:26Z</time>
      </trkpt>
      <trkpt lat="46.04377" lon="5.4678">
        <ele>566.4</ele>
        <time>2026-05-09T13:58:27Z</time>
      </trkpt>
      <trkpt lat="46.04379" lon="5.46781">
        <ele>566.4</ele>
        <time>2026-05-09T13:58:28Z</time>
      </trkpt>
      <trkpt lat="46.04381" lon="5.46781">
        <ele>566.8</ele>
        <time>2026-05-09T13:58:29Z</time>
      </trkpt>
      <trkpt lat="46.04382" lon="5.46782">
        <ele>566.8</ele>
        <time>2026-05-09T13:58:30Z</time>
      </trkpt>
      <trkpt lat="46.04384" lon="5.46783">
        <ele>567</ele>
        <time>2026-05-09T13:58:31Z</time>
      </trkpt>
      <trkpt lat="46.04385" lon="5.46784">
        <ele>567</ele>
        <time>2026-05-09T13:58:32Z</time>
      </trkpt>
      <trkpt lat="46.04387" lon="5.46785">
        <ele>567.2</ele>
        <time>2026-05-09T13:58:33Z</time>
      </trkpt>
      <trkpt lat="46.04388" lon="5.46786">
        <ele>567.2</ele>
        <time>2026-05-09T13:58:34Z</time>
      </trkpt>
      <trkpt lat="46.0439" lon="5.46786">
        <ele>567.6</ele>
        <time>2026-05-09T13:58:35Z</time>
      </trkpt>
      <trkpt lat="46.04391" lon="5.46787">
        <ele>567.6</ele>
        <time>2026-05-09T13:58:36Z</time>
      </trkpt>
      <trkpt lat="46.04393" lon="5.46789">
        <ele>567.8</ele>
        <time>2026-05-09T13:58:37Z</time>
      </trkpt>
      <trkpt lat="46.04394" lon="5.4679">
        <ele>567.8</ele>
        <time>2026-05-09T13:58:38Z</time>
      </trkpt>
      <trkpt lat="46.04396" lon="5.46791">
        <ele>567.8</ele>
        <time>2026-05-09T13:58:39Z</time>
      </trkpt>
      <trkpt lat="46.04397" lon="5.46792">
        <ele>567.8</ele>
        <time>2026-05-09T13:58:40Z</time>
      </trkpt>
      <trkpt lat="46.04399" lon="5.46792">
        <ele>568.2</ele>
        <time>2026-05-09T13:58:41Z</time>
      </trkpt>
      <trkpt lat="46.044" lon="5.46793">
        <ele>568.2</ele>
        <time>2026-05-09T13:58:42Z</time>
      </trkpt>
      <trkpt lat="46.04402" lon="5.46794">
        <ele>568.4</ele>
        <time>2026-05-09T13:58:43Z</time>
      </trkpt>
      <trkpt lat="46.04403" lon="5.46795">
        <ele>568.4</ele>
        <time>2026-05-09T13:58:44Z</time>
      </trkpt>
      <trkpt lat="46.04405" lon="5.46796">
        <ele>568.6</ele>
        <time>2026-05-09T13:58:45Z</time>
      </trkpt>
      <trkpt lat="46.04406" lon="5.46797">
        <ele>568.6</ele>
        <time>2026-05-09T13:58:46Z</time>
      </trkpt>
      <trkpt lat="46.04408" lon="5.46798">
        <ele>568.6</ele>
        <time>2026-05-09T13:58:47Z</time>
      </trkpt>
      <trkpt lat="46.0441" lon="5.46801">
        <ele>568.8</ele>
        <time>2026-05-09T13:58:48Z</time>
      </trkpt>
      <trkpt lat="46.04411" lon="5.46802">
        <ele>568.8</ele>
        <time>2026-05-09T13:58:49Z</time>
      </trkpt>
      <trkpt lat="46.04412" lon="5.46803">
        <ele>569.2</ele>
        <time>2026-05-09T13:58:50Z</time>
      </trkpt>
      <trkpt lat="46.04414" lon="5.46804">
        <ele>569.2</ele>
        <time>2026-05-09T13:58:51Z</time>
      </trkpt>
      <trkpt lat="46.04415" lon="5.46805">
        <ele>569.2</ele>
        <time>2026-05-09T13:58:52Z</time>
      </trkpt>
      <trkpt lat="46.04417" lon="5.46806">
        <ele>569.4</ele>
        <time>2026-05-09T13:58:53Z</time>
      </trkpt>
      <trkpt lat="46.04418" lon="5.46807">
        <ele>569.6</ele>
        <time>2026-05-09T13:58:54Z</time>
      </trkpt>
      <trkpt lat="46.04419" lon="5.46809">
        <ele>569.8</ele>
        <time>2026-05-09T13:58:55Z</time>
      </trkpt>
      <trkpt lat="46.04421" lon="5.4681">
        <ele>569.8</ele>
        <time>2026-05-09T13:58:56Z</time>
      </trkpt>
      <trkpt lat="46.04422" lon="5.46812">
        <ele>570</ele>
        <time>2026-05-09T13:58:57Z</time>
      </trkpt>
      <trkpt lat="46.04424" lon="5.46813">
        <ele>570.4</ele>
        <time>2026-05-09T13:58:58Z</time>
      </trkpt>
      <trkpt lat="46.04425" lon="5.46814">
        <ele>570.6</ele>
        <time>2026-05-09T13:58:59Z</time>
      </trkpt>
      <trkpt lat="46.04426" lon="5.46815">
        <ele>570.6</ele>
        <time>2026-05-09T13:59:00Z</time>
      </trkpt>
      <trkpt lat="46.04428" lon="5.46816">
        <ele>570.8</ele>
        <time>2026-05-09T13:59:01Z</time>
      </trkpt>
      <trkpt lat="46.04429" lon="5.46817">
        <ele>570.8</ele>
        <time>2026-05-09T13:59:02Z</time>
      </trkpt>
      <trkpt lat="46.04431" lon="5.46818">
        <ele>571.2</ele>
        <time>2026-05-09T13:59:03Z</time>
      </trkpt>
      <trkpt lat="46.04432" lon="5.4682">
        <ele>571.2</ele>
        <time>2026-05-09T13:59:04Z</time>
      </trkpt>
      <trkpt lat="46.04434" lon="5.46821">
        <ele>571.2</ele>
        <time>2026-05-09T13:59:05Z</time>
      </trkpt>
      <trkpt lat="46.04435" lon="5.46823">
        <ele>571.6</ele>
        <time>2026-05-09T13:59:06Z</time>
      </trkpt>
      <trkpt lat="46.04436" lon="5.46824">
        <ele>571.6</ele>
        <time>2026-05-09T13:59:07Z</time>
      </trkpt>
      <trkpt lat="46.04438" lon="5.46826">
        <ele>571.6</ele>
        <time>2026-05-09T13:59:08Z</time>
      </trkpt>
      <trkpt lat="46.04439" lon="5.46827">
        <ele>571.6</ele>
        <time>2026-05-09T13:59:09Z</time>
      </trkpt>
      <trkpt lat="46.04441" lon="5.46828">
        <ele>571.6</ele>
        <time>2026-05-09T13:59:10Z</time>
      </trkpt>
      <trkpt lat="46.04442" lon="5.4683">
        <ele>571.8</ele>
        <time>2026-05-09T13:59:11Z</time>
      </trkpt>
      <trkpt lat="46.04443" lon="5.46831">
        <ele>571.8</ele>
        <time>2026-05-09T13:59:12Z</time>
      </trkpt>
      <trkpt lat="46.04445" lon="5.46833">
        <ele>572</ele>
        <time>2026-05-09T13:59:13Z</time>
      </trkpt>
      <trkpt lat="46.04446" lon="5.46835">
        <ele>572</ele>
        <time>2026-05-09T13:59:14Z</time>
      </trkpt>
      <trkpt lat="46.04448" lon="5.46836">
        <ele>572.2</ele>
        <time>2026-05-09T13:59:15Z</time>
      </trkpt>
      <trkpt lat="46.04449" lon="5.46837">
        <ele>572.2</ele>
        <time>2026-05-09T13:59:16Z</time>
      </trkpt>
      <trkpt lat="46.04451" lon="5.46839">
        <ele>572.6</ele>
        <time>2026-05-09T13:59:17Z</time>
      </trkpt>
      <trkpt lat="46.04452" lon="5.46841">
        <ele>572.6</ele>
        <time>2026-05-09T13:59:18Z</time>
      </trkpt>
      <trkpt lat="46.04453" lon="5.46842">
        <ele>572.6</ele>
        <time>2026-05-09T13:59:19Z</time>
      </trkpt>
      <trkpt lat="46.04455" lon="5.46844">
        <ele>572.8</ele>
        <time>2026-05-09T13:59:20Z</time>
      </trkpt>
      <trkpt lat="46.04456" lon="5.46845">
        <ele>572.8</ele>
        <time>2026-05-09T13:59:21Z</time>
      </trkpt>
      <trkpt lat="46.04457" lon="5.46846">
        <ele>573.2</ele>
        <time>2026-05-09T13:59:22Z</time>
      </trkpt>
      <trkpt lat="46.04459" lon="5.46848">
        <ele>573.2</ele>
        <time>2026-05-09T13:59:23Z</time>
      </trkpt>
      <trkpt lat="46.0446" lon="5.46849">
        <ele>573.2</ele>
        <time>2026-05-09T13:59:24Z</time>
      </trkpt>
      <trkpt lat="46.04461" lon="5.46851">
        <ele>573.2</ele>
        <time>2026-05-09T13:59:25Z</time>
      </trkpt>
      <trkpt lat="46.04462" lon="5.46852">
        <ele>573.4</ele>
        <time>2026-05-09T13:59:26Z</time>
      </trkpt>
      <trkpt lat="46.04464" lon="5.46853">
        <ele>573.4</ele>
        <time>2026-05-09T13:59:27Z</time>
      </trkpt>
      <trkpt lat="46.04465" lon="5.46855">
        <ele>573.4</ele>
        <time>2026-05-09T13:59:28Z</time>
      </trkpt>
      <trkpt lat="46.04466" lon="5.46856">
        <ele>573.4</ele>
        <time>2026-05-09T13:59:29Z</time>
      </trkpt>
      <trkpt lat="46.04468" lon="5.46857">
        <ele>573.6</ele>
        <time>2026-05-09T13:59:30Z</time>
      </trkpt>
      <trkpt lat="46.04469" lon="5.46859">
        <ele>573.6</ele>
        <time>2026-05-09T13:59:31Z</time>
      </trkpt>
      <trkpt lat="46.0447" lon="5.4686">
        <ele>573.6</ele>
        <time>2026-05-09T13:59:32Z</time>
      </trkpt>
      <trkpt lat="46.04471" lon="5.46862">
        <ele>574</ele>
        <time>2026-05-09T13:59:33Z</time>
      </trkpt>
      <trkpt lat="46.04472" lon="5.46864">
        <ele>574</ele>
        <time>2026-05-09T13:59:34Z</time>
      </trkpt>
      <trkpt lat="46.04473" lon="5.46865">
        <ele>574.2</ele>
        <time>2026-05-09T13:59:35Z</time>
      </trkpt>
      <trkpt lat="46.04475" lon="5.46867">
        <ele>574.2</ele>
        <time>2026-05-09T13:59:36Z</time>
      </trkpt>
      <trkpt lat="46.04476" lon="5.46868">
        <ele>574.4</ele>
        <time>2026-05-09T13:59:37Z</time>
      </trkpt>
      <trkpt lat="46.04477" lon="5.4687">
        <ele>574.4</ele>
        <time>2026-05-09T13:59:38Z</time>
      </trkpt>
      <trkpt lat="46.04478" lon="5.46872">
        <ele>575</ele>
        <time>2026-05-09T13:59:39Z</time>
      </trkpt>
      <trkpt lat="46.04479" lon="5.46875">
        <ele>575</ele>
        <time>2026-05-09T13:59:40Z</time>
      </trkpt>
      <trkpt lat="46.0448" lon="5.46877">
        <ele>575.2</ele>
        <time>2026-05-09T13:59:41Z</time>
      </trkpt>
      <trkpt lat="46.04481" lon="5.4688">
        <ele>575.4</ele>
        <time>2026-05-09T13:59:42Z</time>
      </trkpt>
      <trkpt lat="46.04481" lon="5.46882">
        <ele>575.8</ele>
        <time>2026-05-09T13:59:43Z</time>
      </trkpt>
      <trkpt lat="46.04482" lon="5.46884">
        <ele>576</ele>
        <time>2026-05-09T13:59:44Z</time>
      </trkpt>
      <trkpt lat="46.04483" lon="5.46886">
        <ele>576.2</ele>
        <time>2026-05-09T13:59:45Z</time>
      </trkpt>
      <trkpt lat="46.04484" lon="5.46888">
        <ele>576.2</ele>
        <time>2026-05-09T13:59:46Z</time>
      </trkpt>
      <trkpt lat="46.04485" lon="5.4689">
        <ele>576.4</ele>
        <time>2026-05-09T13:59:47Z</time>
      </trkpt>
      <trkpt lat="46.04486" lon="5.46892">
        <ele>576.4</ele>
        <time>2026-05-09T13:59:48Z</time>
      </trkpt>
      <trkpt lat="46.04487" lon="5.46894">
        <ele>576.8</ele>
        <time>2026-05-09T13:59:49Z</time>
      </trkpt>
      <trkpt lat="46.04487" lon="5.46897">
        <ele>576.8</ele>
        <time>2026-05-09T13:59:50Z</time>
      </trkpt>
      <trkpt lat="46.04488" lon="5.46899">
        <ele>577</ele>
        <time>2026-05-09T13:59:51Z</time>
      </trkpt>
      <trkpt lat="46.04489" lon="5.46902">
        <ele>577</ele>
        <time>2026-05-09T13:59:52Z</time>
      </trkpt>
      <trkpt lat="46.0449" lon="5.46904">
        <ele>577.4</ele>
        <time>2026-05-09T13:59:53Z</time>
      </trkpt>
      <trkpt lat="46.04491" lon="5.46907">
        <ele>577.6</ele>
        <time>2026-05-09T13:59:54Z</time>
      </trkpt>
      <trkpt lat="46.04491" lon="5.46909">
        <ele>577.6</ele>
        <time>2026-05-09T13:59:55Z</time>
      </trkpt>
      <trkpt lat="46.04492" lon="5.46912">
        <ele>578</ele>
        <time>2026-05-09T13:59:56Z</time>
      </trkpt>
      <trkpt lat="46.04492" lon="5.46914">
        <ele>578</ele>
        <time>2026-05-09T13:59:57Z</time>
      </trkpt>
      <trkpt lat="46.04493" lon="5.46917">
        <ele>578.2</ele>
        <time>2026-05-09T13:59:58Z</time>
      </trkpt>
      <trkpt lat="46.04493" lon="5.4692">
        <ele>578.2</ele>
        <time>2026-05-09T13:59:59Z</time>
      </trkpt>
      <trkpt lat="46.04493" lon="5.46922">
        <ele>578.4</ele>
        <time>2026-05-09T14:00:00Z</time>
      </trkpt>
      <trkpt lat="46.04494" lon="5.46924">
        <ele>578.4</ele>
        <time>2026-05-09T14:00:01Z</time>
      </trkpt>
      <trkpt lat="46.04495" lon="5.46927">
        <ele>578.4</ele>
        <time>2026-05-09T14:00:02Z</time>
      </trkpt>
      <trkpt lat="46.04495" lon="5.4693">
        <ele>578.8</ele>
        <time>2026-05-09T14:00:03Z</time>
      </trkpt>
      <trkpt lat="46.04495" lon="5.46932">
        <ele>578.8</ele>
        <time>2026-05-09T14:00:04Z</time>
      </trkpt>
      <trkpt lat="46.04496" lon="5.46934">
        <ele>579</ele>
        <time>2026-05-09T14:00:05Z</time>
      </trkpt>
      <trkpt lat="46.04496" lon="5.46936">
        <ele>579</ele>
        <time>2026-05-09T14:00:06Z</time>
      </trkpt>
      <trkpt lat="46.04497" lon="5.46939">
        <ele>579</ele>
        <time>2026-05-09T14:00:07Z</time>
      </trkpt>
      <trkpt lat="46.04498" lon="5.46941">
        <ele>579.4</ele>
        <time>2026-05-09T14:00:08Z</time>
      </trkpt>
      <trkpt lat="46.04498" lon="5.46944">
        <ele>579.4</ele>
        <time>2026-05-09T14:00:09Z</time>
      </trkpt>
      <trkpt lat="46.04499" lon="5.46946">
        <ele>579.4</ele>
        <time>2026-05-09T14:00:10Z</time>
      </trkpt>
      <trkpt lat="46.04499" lon="5.46949">
        <ele>579.6</ele>
        <time>2026-05-09T14:00:11Z</time>
      </trkpt>
      <trkpt lat="46.04499" lon="5.46951">
        <ele>579.6</ele>
        <time>2026-05-09T14:00:12Z</time>
      </trkpt>
      <trkpt lat="46.04499" lon="5.46954">
        <ele>579.6</ele>
        <time>2026-05-09T14:00:13Z</time>
      </trkpt>
      <trkpt lat="46.045" lon="5.46956">
        <ele>579.6</ele>
        <time>2026-05-09T14:00:14Z</time>
      </trkpt>
      <trkpt lat="46.045" lon="5.46958">
        <ele>579.6</ele>
        <time>2026-05-09T14:00:15Z</time>
      </trkpt>
      <trkpt lat="46.04501" lon="5.46961">
        <ele>579.8</ele>
        <time>2026-05-09T14:00:16Z</time>
      </trkpt>
      <trkpt lat="46.04501" lon="5.46963">
        <ele>579.8</ele>
        <time>2026-05-09T14:00:17Z</time>
      </trkpt>
      <trkpt lat="46.04502" lon="5.46965">
        <ele>579.8</ele>
        <time>2026-05-09T14:00:18Z</time>
      </trkpt>
      <trkpt lat="46.04502" lon="5.46967">
        <ele>580</ele>
        <time>2026-05-09T14:00:19Z</time>
      </trkpt>
      <trkpt lat="46.04503" lon="5.46969">
        <ele>580</ele>
        <time>2026-05-09T14:00:20Z</time>
      </trkpt>
      <trkpt lat="46.04503" lon="5.46971">
        <ele>580.2</ele>
        <time>2026-05-09T14:00:21Z</time>
      </trkpt>
      <trkpt lat="46.04504" lon="5.46974">
        <ele>580.2</ele>
        <time>2026-05-09T14:00:22Z</time>
      </trkpt>
      <trkpt lat="46.04504" lon="5.46976">
        <ele>580.4</ele>
        <time>2026-05-09T14:00:23Z</time>
      </trkpt>
      <trkpt lat="46.04505" lon="5.46978">
        <ele>580.4</ele>
        <time>2026-05-09T14:00:24Z</time>
      </trkpt>
      <trkpt lat="46.04505" lon="5.46978">
        <ele>581</ele>
        <time>2026-05-09T14:00:25Z</time>
      </trkpt>
      <trkpt lat="46.04506" lon="5.46981">
        <ele>581</ele>
        <time>2026-05-09T14:00:26Z</time>
      </trkpt>
      <trkpt lat="46.04506" lon="5.46983">
        <ele>581</ele>
        <time>2026-05-09T14:00:27Z</time>
      </trkpt>
      <trkpt lat="46.04507" lon="5.46986">
        <ele>581</ele>
        <time>2026-05-09T14:00:28Z</time>
      </trkpt>
      <trkpt lat="46.04507" lon="5.46988">
        <ele>581</ele>
        <time>2026-05-09T14:00:29Z</time>
      </trkpt>
      <trkpt lat="46.04507" lon="5.46991">
        <ele>581</ele>
        <time>2026-05-09T14:00:30Z</time>
      </trkpt>
      <trkpt lat="46.04507" lon="5.46993">
        <ele>581</ele>
        <time>2026-05-09T14:00:31Z</time>
      </trkpt>
      <trkpt lat="46.04507" lon="5.46995">
        <ele>581</ele>
        <time>2026-05-09T14:00:32Z</time>
      </trkpt>
      <trkpt lat="46.04508" lon="5.46998">
        <ele>581</ele>
        <time>2026-05-09T14:00:33Z</time>
      </trkpt>
      <trkpt lat="46.04508" lon="5.47">
        <ele>581.2</ele>
        <time>2026-05-09T14:00:34Z</time>
      </trkpt>
      <trkpt lat="46.04509" lon="5.47002">
        <ele>581.2</ele>
        <time>2026-05-09T14:00:35Z</time>
      </trkpt>
      <trkpt lat="46.04509" lon="5.47005">
        <ele>581.6</ele>
        <time>2026-05-09T14:00:36Z</time>
      </trkpt>
      <trkpt lat="46.0451" lon="5.47007">
        <ele>581.6</ele>
        <time>2026-05-09T14:00:37Z</time>
      </trkpt>
      <trkpt lat="46.0451" lon="5.47009">
        <ele>581.6</ele>
        <time>2026-05-09T14:00:38Z</time>
      </trkpt>
      <trkpt lat="46.04511" lon="5.47012">
        <ele>581.6</ele>
        <time>2026-05-09T14:00:39Z</time>
      </trkpt>
      <trkpt lat="46.04511" lon="5.47014">
        <ele>581.8</ele>
        <time>2026-05-09T14:00:40Z</time>
      </trkpt>
      <trkpt lat="46.04511" lon="5.47016">
        <ele>581.8</ele>
        <time>2026-05-09T14:00:41Z</time>
      </trkpt>
      <trkpt lat="46.04511" lon="5.47019">
        <ele>582</ele>
        <time>2026-05-09T14:00:42Z</time>
      </trkpt>
      <trkpt lat="46.04511" lon="5.47022">
        <ele>582</ele>
        <time>2026-05-09T14:00:43Z</time>
      </trkpt>
      <trkpt lat="46.04511" lon="5.47024">
        <ele>582.2</ele>
        <time>2026-05-09T14:00:44Z</time>
      </trkpt>
      <trkpt lat="46.04512" lon="5.47026">
        <ele>582.2</ele>
        <time>2026-05-09T14:00:45Z</time>
      </trkpt>
      <trkpt lat="46.04512" lon="5.47029">
        <ele>582.6</ele>
        <time>2026-05-09T14:00:46Z</time>
      </trkpt>
      <trkpt lat="46.04512" lon="5.47031">
        <ele>582.6</ele>
        <time>2026-05-09T14:00:47Z</time>
      </trkpt>
      <trkpt lat="46.04513" lon="5.47033">
        <ele>582.6</ele>
        <time>2026-05-09T14:00:48Z</time>
      </trkpt>
      <trkpt lat="46.04513" lon="5.47036">
        <ele>582.6</ele>
        <time>2026-05-09T14:00:49Z</time>
      </trkpt>
      <trkpt lat="46.04513" lon="5.47038">
        <ele>582.6</ele>
        <time>2026-05-09T14:00:50Z</time>
      </trkpt>
      <trkpt lat="46.04513" lon="5.47041">
        <ele>582.8</ele>
        <time>2026-05-09T14:00:51Z</time>
      </trkpt>
      <trkpt lat="46.04513" lon="5.47043">
        <ele>583</ele>
        <time>2026-05-09T14:00:52Z</time>
      </trkpt>
      <trkpt lat="46.04513" lon="5.47045">
        <ele>583</ele>
        <time>2026-05-09T14:00:53Z</time>
      </trkpt>
      <trkpt lat="46.04514" lon="5.47047">
        <ele>583.4</ele>
        <time>2026-05-09T14:00:54Z</time>
      </trkpt>
      <trkpt lat="46.04514" lon="5.47049">
        <ele>583.4</ele>
        <time>2026-05-09T14:00:55Z</time>
      </trkpt>
      <trkpt lat="46.04514" lon="5.47051">
        <ele>583.6</ele>
        <time>2026-05-09T14:00:56Z</time>
      </trkpt>
      <trkpt lat="46.04515" lon="5.47053">
        <ele>583.6</ele>
        <time>2026-05-09T14:00:57Z</time>
      </trkpt>
      <trkpt lat="46.04515" lon="5.47055">
        <ele>583.6</ele>
        <time>2026-05-09T14:00:58Z</time>
      </trkpt>
      <trkpt lat="46.04515" lon="5.47057">
        <ele>583.6</ele>
        <time>2026-05-09T14:00:59Z</time>
      </trkpt>
      <trkpt lat="46.04515" lon="5.47059">
        <ele>583.6</ele>
        <time>2026-05-09T14:01:00Z</time>
      </trkpt>
      <trkpt lat="46.04516" lon="5.47061">
        <ele>583.6</ele>
        <time>2026-05-09T14:01:01Z</time>
      </trkpt>
      <trkpt lat="46.04516" lon="5.47063">
        <ele>584</ele>
        <time>2026-05-09T14:01:02Z</time>
      </trkpt>
      <trkpt lat="46.04516" lon="5.47065">
        <ele>584</ele>
        <time>2026-05-09T14:01:03Z</time>
      </trkpt>
      <trkpt lat="46.04516" lon="5.47067">
        <ele>584.2</ele>
        <time>2026-05-09T14:01:04Z</time>
      </trkpt>
      <trkpt lat="46.04516" lon="5.47069">
        <ele>584.2</ele>
        <time>2026-05-09T14:01:05Z</time>
      </trkpt>
      <trkpt lat="46.04516" lon="5.47069">
        <ele>584.2</ele>
        <time>2026-05-09T14:01:06Z</time>
      </trkpt>
      <trkpt lat="46.04516" lon="5.47069">
        <ele>584.6</ele>
        <time>2026-05-09T14:01:07Z</time>
      </trkpt>
      <trkpt lat="46.04516" lon="5.47079">
        <ele>585</ele>
        <time>2026-05-09T14:01:09Z</time>
      </trkpt>
      <trkpt lat="46.04516" lon="5.47081">
        <ele>585</ele>
        <time>2026-05-09T14:01:10Z</time>
      </trkpt>
      <trkpt lat="46.04515" lon="5.47084">
        <ele>585.4</ele>
        <time>2026-05-09T14:01:11Z</time>
      </trkpt>
      <trkpt lat="46.04515" lon="5.47086">
        <ele>585.6</ele>
        <time>2026-05-09T14:01:12Z</time>
      </trkpt>
      <trkpt lat="46.04515" lon="5.47088">
        <ele>586</ele>
        <time>2026-05-09T14:01:13Z</time>
      </trkpt>
      <trkpt lat="46.04514" lon="5.4709">
        <ele>586.2</ele>
        <time>2026-05-09T14:01:14Z</time>
      </trkpt>
      <trkpt lat="46.04514" lon="5.47092">
        <ele>586.4</ele>
        <time>2026-05-09T14:01:15Z</time>
      </trkpt>
      <trkpt lat="46.04513" lon="5.47094">
        <ele>586.6</ele>
        <time>2026-05-09T14:01:16Z</time>
      </trkpt>
      <trkpt lat="46.04513" lon="5.47096">
        <ele>586.8</ele>
        <time>2026-05-09T14:01:17Z</time>
      </trkpt>
      <trkpt lat="46.04512" lon="5.47098">
        <ele>586.8</ele>
        <time>2026-05-09T14:01:18Z</time>
      </trkpt>
      <trkpt lat="46.04511" lon="5.471">
        <ele>587.2</ele>
        <time>2026-05-09T14:01:19Z</time>
      </trkpt>
      <trkpt lat="46.04511" lon="5.47102">
        <ele>587.2</ele>
        <time>2026-05-09T14:01:20Z</time>
      </trkpt>
      <trkpt lat="46.0451" lon="5.47103">
        <ele>587.4</ele>
        <time>2026-05-09T14:01:21Z</time>
      </trkpt>
      <trkpt lat="46.0451" lon="5.47105">
        <ele>587.4</ele>
        <time>2026-05-09T14:01:22Z</time>
      </trkpt>
      <trkpt lat="46.04509" lon="5.47107">
        <ele>587.8</ele>
        <time>2026-05-09T14:01:23Z</time>
      </trkpt>
      <trkpt lat="46.04509" lon="5.47108">
        <ele>587.8</ele>
        <time>2026-05-09T14:01:24Z</time>
      </trkpt>
      <trkpt lat="46.04508" lon="5.4711">
        <ele>588.2</ele>
        <time>2026-05-09T14:01:25Z</time>
      </trkpt>
      <trkpt lat="46.04508" lon="5.47112">
        <ele>588.4</ele>
        <time>2026-05-09T14:01:26Z</time>
      </trkpt>
      <trkpt lat="46.04507" lon="5.47113">
        <ele>588.4</ele>
        <time>2026-05-09T14:01:27Z</time>
      </trkpt>
      <trkpt lat="46.04507" lon="5.47115">
        <ele>588.4</ele>
        <time>2026-05-09T14:01:28Z</time>
      </trkpt>
      <trkpt lat="46.04506" lon="5.47117">
        <ele>588.6</ele>
        <time>2026-05-09T14:01:29Z</time>
      </trkpt>
      <trkpt lat="46.04506" lon="5.4712">
        <ele>588.6</ele>
        <time>2026-05-09T14:01:30Z</time>
      </trkpt>
      <trkpt lat="46.04506" lon="5.47122">
        <ele>588.8</ele>
        <time>2026-05-09T14:01:31Z</time>
      </trkpt>
      <trkpt lat="46.04505" lon="5.47124">
        <ele>588.8</ele>
        <time>2026-05-09T14:01:32Z</time>
      </trkpt>
      <trkpt lat="46.04504" lon="5.47126">
        <ele>589.2</ele>
        <time>2026-05-09T14:01:33Z</time>
      </trkpt>
      <trkpt lat="46.04504" lon="5.47128">
        <ele>589.2</ele>
        <time>2026-05-09T14:01:34Z</time>
      </trkpt>
      <trkpt lat="46.04503" lon="5.4713">
        <ele>589.6</ele>
        <time>2026-05-09T14:01:35Z</time>
      </trkpt>
      <trkpt lat="46.04502" lon="5.47132">
        <ele>589.6</ele>
        <time>2026-05-09T14:01:36Z</time>
      </trkpt>
      <trkpt lat="46.04502" lon="5.47135">
        <ele>589.6</ele>
        <time>2026-05-09T14:01:37Z</time>
      </trkpt>
      <trkpt lat="46.04501" lon="5.47137">
        <ele>589.6</ele>
        <time>2026-05-09T14:01:38Z</time>
      </trkpt>
      <trkpt lat="46.04501" lon="5.4714">
        <ele>589.6</ele>
        <time>2026-05-09T14:01:39Z</time>
      </trkpt>
      <trkpt lat="46.04501" lon="5.47142">
        <ele>589.8</ele>
        <time>2026-05-09T14:01:40Z</time>
      </trkpt>
      <trkpt lat="46.04501" lon="5.47144">
        <ele>589.8</ele>
        <time>2026-05-09T14:01:41Z</time>
      </trkpt>
      <trkpt lat="46.045" lon="5.47146">
        <ele>590</ele>
        <time>2026-05-09T14:01:42Z</time>
      </trkpt>
      <trkpt lat="46.045" lon="5.47148">
        <ele>590</ele>
        <time>2026-05-09T14:01:43Z</time>
      </trkpt>
      <trkpt lat="46.045" lon="5.47151">
        <ele>590</ele>
        <time>2026-05-09T14:01:44Z</time>
      </trkpt>
      <trkpt lat="46.04499" lon="5.47153">
        <ele>590.2</ele>
        <time>2026-05-09T14:01:45Z</time>
      </trkpt>
      <trkpt lat="46.04499" lon="5.47156">
        <ele>590.2</ele>
        <time>2026-05-09T14:01:46Z</time>
      </trkpt>
      <trkpt lat="46.04499" lon="5.47158">
        <ele>590.2</ele>
        <time>2026-05-09T14:01:47Z</time>
      </trkpt>
      <trkpt lat="46.04498" lon="5.47161">
        <ele>590.6</ele>
        <time>2026-05-09T14:01:48Z</time>
      </trkpt>
      <trkpt lat="46.04498" lon="5.47163">
        <ele>590.6</ele>
        <time>2026-05-09T14:01:49Z</time>
      </trkpt>
      <trkpt lat="46.04497" lon="5.47165">
        <ele>590.6</ele>
        <time>2026-05-09T14:01:50Z</time>
      </trkpt>
      <trkpt lat="46.04497" lon="5.47167">
        <ele>590.8</ele>
        <time>2026-05-09T14:01:51Z</time>
      </trkpt>
      <trkpt lat="46.04497" lon="5.47169">
        <ele>590.8</ele>
        <time>2026-05-09T14:01:52Z</time>
      </trkpt>
      <trkpt lat="46.04497" lon="5.47171">
        <ele>591</ele>
        <time>2026-05-09T14:01:53Z</time>
      </trkpt>
      <trkpt lat="46.04496" lon="5.47173">
        <ele>591</ele>
        <time>2026-05-09T14:01:54Z</time>
      </trkpt>
      <trkpt lat="46.04496" lon="5.47175">
        <ele>591</ele>
        <time>2026-05-09T14:01:55Z</time>
      </trkpt>
      <trkpt lat="46.04495" lon="5.47178">
        <ele>591.2</ele>
        <time>2026-05-09T14:01:56Z</time>
      </trkpt>
      <trkpt lat="46.04495" lon="5.4718">
        <ele>591.2</ele>
        <time>2026-05-09T14:01:57Z</time>
      </trkpt>
      <trkpt lat="46.04495" lon="5.47182">
        <ele>591.2</ele>
        <time>2026-05-09T14:01:58Z</time>
      </trkpt>
      <trkpt lat="46.04495" lon="5.47184">
        <ele>591.4</ele>
        <time>2026-05-09T14:01:59Z</time>
      </trkpt>
      <trkpt lat="46.04494" lon="5.47187">
        <ele>591.4</ele>
        <time>2026-05-09T14:02:00Z</time>
      </trkpt>
      <trkpt lat="46.04494" lon="5.47189">
        <ele>591.4</ele>
        <time>2026-05-09T14:02:01Z</time>
      </trkpt>
      <trkpt lat="46.04493" lon="5.47191">
        <ele>591.6</ele>
        <time>2026-05-09T14:02:02Z</time>
      </trkpt>
      <trkpt lat="46.04493" lon="5.47193">
        <ele>591.6</ele>
        <time>2026-05-09T14:02:03Z</time>
      </trkpt>
      <trkpt lat="46.04492" lon="5.47195">
        <ele>591.6</ele>
        <time>2026-05-09T14:02:04Z</time>
      </trkpt>
      <trkpt lat="46.04492" lon="5.47197">
        <ele>592</ele>
        <time>2026-05-09T14:02:05Z</time>
      </trkpt>
      <trkpt lat="46.04492" lon="5.472">
        <ele>592</ele>
        <time>2026-05-09T14:02:06Z</time>
      </trkpt>
      <trkpt lat="46.04492" lon="5.47202">
        <ele>592</ele>
        <time>2026-05-09T14:02:07Z</time>
      </trkpt>
      <trkpt lat="46.04492" lon="5.47203">
        <ele>592.4</ele>
        <time>2026-05-09T14:02:08Z</time>
      </trkpt>
      <trkpt lat="46.04491" lon="5.47205">
        <ele>592.4</ele>
        <time>2026-05-09T14:02:09Z</time>
      </trkpt>
      <trkpt lat="46.04491" lon="5.47208">
        <ele>592.6</ele>
        <time>2026-05-09T14:02:10Z</time>
      </trkpt>
      <trkpt lat="46.0449" lon="5.4721">
        <ele>592.6</ele>
        <time>2026-05-09T14:02:11Z</time>
      </trkpt>
      <trkpt lat="46.04489" lon="5.47212">
        <ele>592.8</ele>
        <time>2026-05-09T14:02:12Z</time>
      </trkpt>
      <trkpt lat="46.04489" lon="5.47214">
        <ele>592.8</ele>
        <time>2026-05-09T14:02:13Z</time>
      </trkpt>
      <trkpt lat="46.04488" lon="5.47216">
        <ele>592.8</ele>
        <time>2026-05-09T14:02:14Z</time>
      </trkpt>
      <trkpt lat="46.04487" lon="5.47218">
        <ele>593</ele>
        <time>2026-05-09T14:02:15Z</time>
      </trkpt>
      <trkpt lat="46.04487" lon="5.4722">
        <ele>593</ele>
        <time>2026-05-09T14:02:16Z</time>
      </trkpt>
      <trkpt lat="46.04486" lon="5.47224">
        <ele>593</ele>
        <time>2026-05-09T14:02:17Z</time>
      </trkpt>
      <trkpt lat="46.04485" lon="5.47226">
        <ele>593.4</ele>
        <time>2026-05-09T14:02:18Z</time>
      </trkpt>
      <trkpt lat="46.04485" lon="5.47228">
        <ele>593.8</ele>
        <time>2026-05-09T14:02:19Z</time>
      </trkpt>
      <trkpt lat="46.04484" lon="5.47229">
        <ele>594</ele>
        <time>2026-05-09T14:02:20Z</time>
      </trkpt>
      <trkpt lat="46.04484" lon="5.47232">
        <ele>594</ele>
        <time>2026-05-09T14:02:21Z</time>
      </trkpt>
      <trkpt lat="46.04483" lon="5.47234">
        <ele>594.2</ele>
        <time>2026-05-09T14:02:22Z</time>
      </trkpt>
      <trkpt lat="46.04483" lon="5.47236">
        <ele>594.2</ele>
        <time>2026-05-09T14:02:23Z</time>
      </trkpt>
      <trkpt lat="46.04482" lon="5.47239">
        <ele>594.2</ele>
        <time>2026-05-09T14:02:24Z</time>
      </trkpt>
      <trkpt lat="46.04482" lon="5.47241">
        <ele>594.6</ele>
        <time>2026-05-09T14:02:25Z</time>
      </trkpt>
      <trkpt lat="46.04482" lon="5.47243">
        <ele>594.6</ele>
        <time>2026-05-09T14:02:26Z</time>
      </trkpt>
      <trkpt lat="46.04481" lon="5.47245">
        <ele>594.6</ele>
        <time>2026-05-09T14:02:27Z</time>
      </trkpt>
      <trkpt lat="46.04481" lon="5.47248">
        <ele>594.8</ele>
        <time>2026-05-09T14:02:28Z</time>
      </trkpt>
      <trkpt lat="46.0448" lon="5.4725">
        <ele>594.8</ele>
        <time>2026-05-09T14:02:29Z</time>
      </trkpt>
      <trkpt lat="46.0448" lon="5.47252">
        <ele>594.8</ele>
        <time>2026-05-09T14:02:30Z</time>
      </trkpt>
      <trkpt lat="46.04479" lon="5.47254">
        <ele>594.8</ele>
        <time>2026-05-09T14:02:31Z</time>
      </trkpt>
      <trkpt lat="46.04479" lon="5.47257">
        <ele>595</ele>
        <time>2026-05-09T14:02:32Z</time>
      </trkpt>
      <trkpt lat="46.04478" lon="5.47259">
        <ele>595.2</ele>
        <time>2026-05-09T14:02:33Z</time>
      </trkpt>
      <trkpt lat="46.04477" lon="5.47261">
        <ele>595.2</ele>
        <time>2026-05-09T14:02:34Z</time>
      </trkpt>
      <trkpt lat="46.04477" lon="5.47263">
        <ele>595.4</ele>
        <time>2026-05-09T14:02:35Z</time>
      </trkpt>
      <trkpt lat="46.04477" lon="5.47265">
        <ele>595.6</ele>
        <time>2026-05-09T14:02:36Z</time>
      </trkpt>
      <trkpt lat="46.04476" lon="5.47268">
        <ele>595.6</ele>
        <time>2026-05-09T14:02:37Z</time>
      </trkpt>
      <trkpt lat="46.04476" lon="5.4727">
        <ele>595.6</ele>
        <time>2026-05-09T14:02:38Z</time>
      </trkpt>
      <trkpt lat="46.04476" lon="5.47272">
        <ele>595.8</ele>
        <time>2026-05-09T14:02:39Z</time>
      </trkpt>
      <trkpt lat="46.04476" lon="5.47274">
        <ele>595.8</ele>
        <time>2026-05-09T14:02:40Z</time>
      </trkpt>
      <trkpt lat="46.04475" lon="5.47276">
        <ele>595.8</ele>
        <time>2026-05-09T14:02:41Z</time>
      </trkpt>
      <trkpt lat="46.04475" lon="5.47278">
        <ele>595.8</ele>
        <time>2026-05-09T14:02:42Z</time>
      </trkpt>
      <trkpt lat="46.04474" lon="5.4728">
        <ele>596.2</ele>
        <time>2026-05-09T14:02:43Z</time>
      </trkpt>
      <trkpt lat="46.04474" lon="5.47282">
        <ele>596.2</ele>
        <time>2026-05-09T14:02:44Z</time>
      </trkpt>
      <trkpt lat="46.04473" lon="5.47285">
        <ele>596.4</ele>
        <time>2026-05-09T14:02:45Z</time>
      </trkpt>
      <trkpt lat="46.04473" lon="5.47287">
        <ele>596.4</ele>
        <time>2026-05-09T14:02:46Z</time>
      </trkpt>
      <trkpt lat="46.04473" lon="5.4729">
        <ele>596.4</ele>
        <time>2026-05-09T14:02:47Z</time>
      </trkpt>
      <trkpt lat="46.04472" lon="5.47292">
        <ele>596.4</ele>
        <time>2026-05-09T14:02:48Z</time>
      </trkpt>
      <trkpt lat="46.04472" lon="5.47294">
        <ele>596.4</ele>
        <time>2026-05-09T14:02:49Z</time>
      </trkpt>
      <trkpt lat="46.04471" lon="5.47297">
        <ele>596.6</ele>
        <time>2026-05-09T14:02:50Z</time>
      </trkpt>
      <trkpt lat="46.0447" lon="5.47299">
        <ele>597</ele>
        <time>2026-05-09T14:02:51Z</time>
      </trkpt>
      <trkpt lat="46.0447" lon="5.47302">
        <ele>597</ele>
        <time>2026-05-09T14:02:52Z</time>
      </trkpt>
      <trkpt lat="46.0447" lon="5.47304">
        <ele>597</ele>
        <time>2026-05-09T14:02:53Z</time>
      </trkpt>
      <trkpt lat="46.04469" lon="5.47307">
        <ele>597.2</ele>
        <time>2026-05-09T14:02:54Z</time>
      </trkpt>
      <trkpt lat="46.04469" lon="5.4731">
        <ele>597.2</ele>
        <time>2026-05-09T14:02:55Z</time>
      </trkpt>
      <trkpt lat="46.04468" lon="5.47312">
        <ele>597.2</ele>
        <time>2026-05-09T14:02:56Z</time>
      </trkpt>
      <trkpt lat="46.04467" lon="5.47314">
        <ele>597.6</ele>
        <time>2026-05-09T14:02:57Z</time>
      </trkpt>
      <trkpt lat="46.04467" lon="5.47317">
        <ele>597.6</ele>
        <time>2026-05-09T14:02:58Z</time>
      </trkpt>
      <trkpt lat="46.04466" lon="5.47319">
        <ele>598</ele>
        <time>2026-05-09T14:02:59Z</time>
      </trkpt>
      <trkpt lat="46.04466" lon="5.47322">
        <ele>598</ele>
        <time>2026-05-09T14:03:00Z</time>
      </trkpt>
      <trkpt lat="46.04465" lon="5.47324">
        <ele>598</ele>
        <time>2026-05-09T14:03:01Z</time>
      </trkpt>
      <trkpt lat="46.04465" lon="5.47327">
        <ele>598</ele>
        <time>2026-05-09T14:03:02Z</time>
      </trkpt>
      <trkpt lat="46.04464" lon="5.47329">
        <ele>598.2</ele>
        <time>2026-05-09T14:03:03Z</time>
      </trkpt>
      <trkpt lat="46.04463" lon="5.47332">
        <ele>598.2</ele>
        <time>2026-05-09T14:03:04Z</time>
      </trkpt>
      <trkpt lat="46.04462" lon="5.47335">
        <ele>598.2</ele>
        <time>2026-05-09T14:03:05Z</time>
      </trkpt>
      <trkpt lat="46.04462" lon="5.47337">
        <ele>598.4</ele>
        <time>2026-05-09T14:03:06Z</time>
      </trkpt>
      <trkpt lat="46.04461" lon="5.4734">
        <ele>598.4</ele>
        <time>2026-05-09T14:03:07Z</time>
      </trkpt>
      <trkpt lat="46.04461" lon="5.47342">
        <ele>598.8</ele>
        <time>2026-05-09T14:03:08Z</time>
      </trkpt>
      <trkpt lat="46.0446" lon="5.47345">
        <ele>598.8</ele>
        <time>2026-05-09T14:03:09Z</time>
      </trkpt>
      <trkpt lat="46.0446" lon="5.47347">
        <ele>599.2</ele>
        <time>2026-05-09T14:03:10Z</time>
      </trkpt>
      <trkpt lat="46.04459" lon="5.4735">
        <ele>599.2</ele>
        <time>2026-05-09T14:03:11Z</time>
      </trkpt>
      <trkpt lat="46.04459" lon="5.47353">
        <ele>599.2</ele>
        <time>2026-05-09T14:03:12Z</time>
      </trkpt>
      <trkpt lat="46.04458" lon="5.47355">
        <ele>599.4</ele>
        <time>2026-05-09T14:03:13Z</time>
      </trkpt>
      <trkpt lat="46.04458" lon="5.47357">
        <ele>599.4</ele>
        <time>2026-05-09T14:03:14Z</time>
      </trkpt>
      <trkpt lat="46.04457" lon="5.4736">
        <ele>599.8</ele>
        <time>2026-05-09T14:03:15Z</time>
      </trkpt>
      <trkpt lat="46.04457" lon="5.47362">
        <ele>600</ele>
        <time>2026-05-09T14:03:16Z</time>
      </trkpt>
      <trkpt lat="46.04456" lon="5.47364">
        <ele>600</ele>
        <time>2026-05-09T14:03:17Z</time>
      </trkpt>
      <trkpt lat="46.04456" lon="5.47367">
        <ele>600.2</ele>
        <time>2026-05-09T14:03:18Z</time>
      </trkpt>
      <trkpt lat="46.04456" lon="5.4737">
        <ele>600.2</ele>
        <time>2026-05-09T14:03:19Z</time>
      </trkpt>
      <trkpt lat="46.04455" lon="5.47372">
        <ele>600.4</ele>
        <time>2026-05-09T14:03:20Z</time>
      </trkpt>
      <trkpt lat="46.04454" lon="5.47375">
        <ele>600.4</ele>
        <time>2026-05-09T14:03:21Z</time>
      </trkpt>
      <trkpt lat="46.04454" lon="5.47377">
        <ele>600.6</ele>
        <time>2026-05-09T14:03:22Z</time>
      </trkpt>
      <trkpt lat="46.04453" lon="5.47379">
        <ele>600.6</ele>
        <time>2026-05-09T14:03:23Z</time>
      </trkpt>
      <trkpt lat="46.04452" lon="5.47382">
        <ele>600.6</ele>
        <time>2026-05-09T14:03:24Z</time>
      </trkpt>
      <trkpt lat="46.04452" lon="5.47384">
        <ele>601</ele>
        <time>2026-05-09T14:03:25Z</time>
      </trkpt>
      <trkpt lat="46.04451" lon="5.47387">
        <ele>601</ele>
        <time>2026-05-09T14:03:26Z</time>
      </trkpt>
      <trkpt lat="46.04451" lon="5.4739">
        <ele>601</ele>
        <time>2026-05-09T14:03:27Z</time>
      </trkpt>
      <trkpt lat="46.0445" lon="5.47393">
        <ele>601.2</ele>
        <time>2026-05-09T14:03:28Z</time>
      </trkpt>
      <trkpt lat="46.0445" lon="5.47396">
        <ele>601.2</ele>
        <time>2026-05-09T14:03:29Z</time>
      </trkpt>
      <trkpt lat="46.04449" lon="5.47399">
        <ele>601.6</ele>
        <time>2026-05-09T14:03:30Z</time>
      </trkpt>
      <trkpt lat="46.04449" lon="5.47402">
        <ele>601.6</ele>
        <time>2026-05-09T14:03:31Z</time>
      </trkpt>
      <trkpt lat="46.04448" lon="5.47404">
        <ele>601.8</ele>
        <time>2026-05-09T14:03:32Z</time>
      </trkpt>
      <trkpt lat="46.04448" lon="5.47407">
        <ele>601.8</ele>
        <time>2026-05-09T14:03:33Z</time>
      </trkpt>
      <trkpt lat="46.04448" lon="5.4741">
        <ele>601.8</ele>
        <time>2026-05-09T14:03:34Z</time>
      </trkpt>
      <trkpt lat="46.04447" lon="5.47413">
        <ele>601.8</ele>
        <time>2026-05-09T14:03:35Z</time>
      </trkpt>
      <trkpt lat="46.04446" lon="5.47416">
        <ele>602</ele>
        <time>2026-05-09T14:03:36Z</time>
      </trkpt>
      <trkpt lat="46.04445" lon="5.47419">
        <ele>602</ele>
        <time>2026-05-09T14:03:37Z</time>
      </trkpt>
      <trkpt lat="46.04445" lon="5.47421">
        <ele>602.2</ele>
        <time>2026-05-09T14:03:38Z</time>
      </trkpt>
      <trkpt lat="46.04444" lon="5.47424">
        <ele>602.2</ele>
        <time>2026-05-09T14:03:39Z</time>
      </trkpt>
      <trkpt lat="46.04444" lon="5.47427">
        <ele>602.2</ele>
        <time>2026-05-09T14:03:40Z</time>
      </trkpt>
      <trkpt lat="46.04443" lon="5.4743">
        <ele>602.2</ele>
        <time>2026-05-09T14:03:41Z</time>
      </trkpt>
      <trkpt lat="46.04442" lon="5.47432">
        <ele>602.2</ele>
        <time>2026-05-09T14:03:42Z</time>
      </trkpt>
      <trkpt lat="46.04441" lon="5.47435">
        <ele>602.8</ele>
        <time>2026-05-09T14:03:43Z</time>
      </trkpt>
      <trkpt lat="46.04441" lon="5.47438">
        <ele>603</ele>
        <time>2026-05-09T14:03:44Z</time>
      </trkpt>
      <trkpt lat="46.0444" lon="5.47441">
        <ele>603</ele>
        <time>2026-05-09T14:03:45Z</time>
      </trkpt>
      <trkpt lat="46.0444" lon="5.47443">
        <ele>603.4</ele>
        <time>2026-05-09T14:03:46Z</time>
      </trkpt>
      <trkpt lat="46.04439" lon="5.47446">
        <ele>603.4</ele>
        <time>2026-05-09T14:03:47Z</time>
      </trkpt>
      <trkpt lat="46.04439" lon="5.47449">
        <ele>603.6</ele>
        <time>2026-05-09T14:03:48Z</time>
      </trkpt>
      <trkpt lat="46.04438" lon="5.47451">
        <ele>603.6</ele>
        <time>2026-05-09T14:03:49Z</time>
      </trkpt>
      <trkpt lat="46.04438" lon="5.47453">
        <ele>603.8</ele>
        <time>2026-05-09T14:03:50Z</time>
      </trkpt>
      <trkpt lat="46.04438" lon="5.47456">
        <ele>603.8</ele>
        <time>2026-05-09T14:03:51Z</time>
      </trkpt>
      <trkpt lat="46.04437" lon="5.4746">
        <ele>603.8</ele>
        <time>2026-05-09T14:03:52Z</time>
      </trkpt>
      <trkpt lat="46.04437" lon="5.47463">
        <ele>604</ele>
        <time>2026-05-09T14:03:53Z</time>
      </trkpt>
      <trkpt lat="46.04437" lon="5.47466">
        <ele>604</ele>
        <time>2026-05-09T14:03:54Z</time>
      </trkpt>
      <trkpt lat="46.04436" lon="5.47469">
        <ele>604</ele>
        <time>2026-05-09T14:03:55Z</time>
      </trkpt>
      <trkpt lat="46.04436" lon="5.47472">
        <ele>604</ele>
        <time>2026-05-09T14:03:56Z</time>
      </trkpt>
      <trkpt lat="46.04436" lon="5.47475">
        <ele>604</ele>
        <time>2026-05-09T14:03:57Z</time>
      </trkpt>
      <trkpt lat="46.04435" lon="5.47478">
        <ele>604</ele>
        <time>2026-05-09T14:03:58Z</time>
      </trkpt>
      <trkpt lat="46.04435" lon="5.47482">
        <ele>604.4</ele>
        <time>2026-05-09T14:03:59Z</time>
      </trkpt>
      <trkpt lat="46.04434" lon="5.47486">
        <ele>604.4</ele>
        <time>2026-05-09T14:04:00Z</time>
      </trkpt>
      <trkpt lat="46.04434" lon="5.4749">
        <ele>604.4</ele>
        <time>2026-05-09T14:04:01Z</time>
      </trkpt>
      <trkpt lat="46.04433" lon="5.47493">
        <ele>604.4</ele>
        <time>2026-05-09T14:04:02Z</time>
      </trkpt>
      <trkpt lat="46.04433" lon="5.47497">
        <ele>604.4</ele>
        <time>2026-05-09T14:04:03Z</time>
      </trkpt>
      <trkpt lat="46.04433" lon="5.47501">
        <ele>604.4</ele>
        <time>2026-05-09T14:04:04Z</time>
      </trkpt>
      <trkpt lat="46.04432" lon="5.47504">
        <ele>604.4</ele>
        <time>2026-05-09T14:04:05Z</time>
      </trkpt>
      <trkpt lat="46.04432" lon="5.47508">
        <ele>604.4</ele>
        <time>2026-05-09T14:04:06Z</time>
      </trkpt>
      <trkpt lat="46.04432" lon="5.47508">
        <ele>604.8</ele>
        <time>2026-05-09T14:04:07Z</time>
      </trkpt>
      <trkpt lat="46.04431" lon="5.47512">
        <ele>604.8</ele>
        <time>2026-05-09T14:04:08Z</time>
      </trkpt>
      <trkpt lat="46.04431" lon="5.47516">
        <ele>604.8</ele>
        <time>2026-05-09T14:04:09Z</time>
      </trkpt>
      <trkpt lat="46.0443" lon="5.4752">
        <ele>604.8</ele>
        <time>2026-05-09T14:04:10Z</time>
      </trkpt>
      <trkpt lat="46.0443" lon="5.47524">
        <ele>605</ele>
        <time>2026-05-09T14:04:11Z</time>
      </trkpt>
      <trkpt lat="46.04429" lon="5.47528">
        <ele>605</ele>
        <time>2026-05-09T14:04:12Z</time>
      </trkpt>
      <trkpt lat="46.04429" lon="5.47532">
        <ele>605</ele>
        <time>2026-05-09T14:04:13Z</time>
      </trkpt>
      <trkpt lat="46.04428" lon="5.47535">
        <ele>605</ele>
        <time>2026-05-09T14:04:14Z</time>
      </trkpt>
      <trkpt lat="46.04428" lon="5.47538">
        <ele>605</ele>
        <time>2026-05-09T14:04:15Z</time>
      </trkpt>
      <trkpt lat="46.04428" lon="5.47542">
        <ele>605</ele>
        <time>2026-05-09T14:04:16Z</time>
      </trkpt>
      <trkpt lat="46.04427" lon="5.47546">
        <ele>605</ele>
        <time>2026-05-09T14:04:17Z</time>
      </trkpt>
      <trkpt lat="46.04427" lon="5.4755">
        <ele>605.2</ele>
        <time>2026-05-09T14:04:18Z</time>
      </trkpt>
      <trkpt lat="46.04427" lon="5.47554">
        <ele>605.2</ele>
        <time>2026-05-09T14:04:19Z</time>
      </trkpt>
      <trkpt lat="46.04427" lon="5.47558">
        <ele>605.2</ele>
        <time>2026-05-09T14:04:20Z</time>
      </trkpt>
      <trkpt lat="46.04427" lon="5.47562">
        <ele>605.2</ele>
        <time>2026-05-09T14:04:21Z</time>
      </trkpt>
      <trkpt lat="46.04427" lon="5.47565">
        <ele>605.2</ele>
        <time>2026-05-09T14:04:22Z</time>
      </trkpt>
      <trkpt lat="46.04427" lon="5.47569">
        <ele>605.4</ele>
        <time>2026-05-09T14:04:23Z</time>
      </trkpt>
      <trkpt lat="46.04427" lon="5.47573">
        <ele>605.4</ele>
        <time>2026-05-09T14:04:24Z</time>
      </trkpt>
      <trkpt lat="46.04428" lon="5.47577">
        <ele>605.2</ele>
        <time>2026-05-09T14:04:25Z</time>
      </trkpt>
      <trkpt lat="46.04428" lon="5.47581">
        <ele>605.4</ele>
        <time>2026-05-09T14:04:26Z</time>
      </trkpt>
      <trkpt lat="46.04428" lon="5.47584">
        <ele>605.4</ele>
        <time>2026-05-09T14:04:27Z</time>
      </trkpt>
      <trkpt lat="46.04429" lon="5.47588">
        <ele>605.4</ele>
        <time>2026-05-09T14:04:28Z</time>
      </trkpt>
      <trkpt lat="46.04429" lon="5.47591">
        <ele>605.4</ele>
        <time>2026-05-09T14:04:29Z</time>
      </trkpt>
      <trkpt lat="46.0443" lon="5.47593">
        <ele>605.4</ele>
        <time>2026-05-09T14:04:30Z</time>
      </trkpt>
      <trkpt lat="46.0443" lon="5.47596">
        <ele>605.4</ele>
        <time>2026-05-09T14:04:31Z</time>
      </trkpt>
      <trkpt lat="46.0443" lon="5.47598">
        <ele>605.8</ele>
        <time>2026-05-09T14:04:32Z</time>
      </trkpt>
      <trkpt lat="46.04431" lon="5.476">
        <ele>605.8</ele>
        <time>2026-05-09T14:04:33Z</time>
      </trkpt>
      <trkpt lat="46.04431" lon="5.47601">
        <ele>605.8</ele>
        <time>2026-05-09T14:04:34Z</time>
      </trkpt>
      <trkpt lat="46.04431" lon="5.47601">
        <ele>605.6</ele>
        <time>2026-05-09T14:04:35Z</time>
      </trkpt>
      <trkpt lat="46.0443" lon="5.47601">
        <ele>605.4</ele>
        <time>2026-05-09T14:04:40Z</time>
      </trkpt>
      <trkpt lat="46.0443" lon="5.47601">
        <ele>605.4</ele>
        <time>2026-05-09T14:04:41Z</time>
      </trkpt>
      <trkpt lat="46.04436" lon="5.47602">
        <ele>606.2</ele>
        <time>2026-05-09T14:06:32Z</time>
      </trkpt>
      <trkpt lat="46.04437" lon="5.47604">
        <ele>606.2</ele>
        <time>2026-05-09T14:06:33Z</time>
      </trkpt>
      <trkpt lat="46.04438" lon="5.47608">
        <ele>606.2</ele>
        <time>2026-05-09T14:06:34Z</time>
      </trkpt>
      <trkpt lat="46.04438" lon="5.47611">
        <ele>606.2</ele>
        <time>2026-05-09T14:06:35Z</time>
      </trkpt>
      <trkpt lat="46.04439" lon="5.47614">
        <ele>606</ele>
        <time>2026-05-09T14:06:36Z</time>
      </trkpt>
      <trkpt lat="46.0444" lon="5.47617">
        <ele>606</ele>
        <time>2026-05-09T14:06:37Z</time>
      </trkpt>
      <trkpt lat="46.04441" lon="5.47621">
        <ele>606</ele>
        <time>2026-05-09T14:06:38Z</time>
      </trkpt>
      <trkpt lat="46.04443" lon="5.47624">
        <ele>606</ele>
        <time>2026-05-09T14:06:39Z</time>
      </trkpt>
      <trkpt lat="46.04444" lon="5.47627">
        <ele>606</ele>
        <time>2026-05-09T14:06:40Z</time>
      </trkpt>
      <trkpt lat="46.04445" lon="5.47628">
        <ele>606</ele>
        <time>2026-05-09T14:06:41Z</time>
      </trkpt>
      <trkpt lat="46.04447" lon="5.4763">
        <ele>606</ele>
        <time>2026-05-09T14:06:42Z</time>
      </trkpt>
      <trkpt lat="46.04449" lon="5.47633">
        <ele>606.4</ele>
        <time>2026-05-09T14:06:43Z</time>
      </trkpt>
      <trkpt lat="46.04451" lon="5.47635">
        <ele>606.4</ele>
        <time>2026-05-09T14:06:44Z</time>
      </trkpt>
      <trkpt lat="46.04453" lon="5.47637">
        <ele>606.4</ele>
        <time>2026-05-09T14:06:45Z</time>
      </trkpt>
      <trkpt lat="46.04455" lon="5.47639">
        <ele>606.4</ele>
        <time>2026-05-09T14:06:46Z</time>
      </trkpt>
      <trkpt lat="46.04457" lon="5.47641">
        <ele>606.6</ele>
        <time>2026-05-09T14:06:47Z</time>
      </trkpt>
      <trkpt lat="46.04459" lon="5.47642">
        <ele>606.6</ele>
        <time>2026-05-09T14:06:48Z</time>
      </trkpt>
      <trkpt lat="46.04462" lon="5.47644">
        <ele>606.8</ele>
        <time>2026-05-09T14:06:49Z</time>
      </trkpt>
      <trkpt lat="46.04463" lon="5.47645">
        <ele>606.8</ele>
        <time>2026-05-09T14:06:50Z</time>
      </trkpt>
      <trkpt lat="46.04465" lon="5.47646">
        <ele>606.8</ele>
        <time>2026-05-09T14:06:51Z</time>
      </trkpt>
      <trkpt lat="46.04466" lon="5.47648">
        <ele>607.2</ele>
        <time>2026-05-09T14:06:52Z</time>
      </trkpt>
      <trkpt lat="46.04468" lon="5.4765">
        <ele>607.4</ele>
        <time>2026-05-09T14:06:53Z</time>
      </trkpt>
      <trkpt lat="46.04469" lon="5.47651">
        <ele>607.4</ele>
        <time>2026-05-09T14:06:54Z</time>
      </trkpt>
      <trkpt lat="46.04471" lon="5.47653">
        <ele>607.4</ele>
        <time>2026-05-09T14:06:55Z</time>
      </trkpt>
      <trkpt lat="46.04473" lon="5.47655">
        <ele>607.4</ele>
        <time>2026-05-09T14:06:56Z</time>
      </trkpt>
      <trkpt lat="46.04474" lon="5.47656">
        <ele>607.4</ele>
        <time>2026-05-09T14:06:57Z</time>
      </trkpt>
      <trkpt lat="46.04475" lon="5.47658">
        <ele>607.6</ele>
        <time>2026-05-09T14:06:58Z</time>
      </trkpt>
      <trkpt lat="46.04477" lon="5.4766">
        <ele>608</ele>
        <time>2026-05-09T14:06:59Z</time>
      </trkpt>
      <trkpt lat="46.04478" lon="5.47662">
        <ele>608.2</ele>
        <time>2026-05-09T14:07:00Z</time>
      </trkpt>
      <trkpt lat="46.04479" lon="5.47664">
        <ele>608.2</ele>
        <time>2026-05-09T14:07:01Z</time>
      </trkpt>
      <trkpt lat="46.04481" lon="5.47666">
        <ele>608.2</ele>
        <time>2026-05-09T14:07:02Z</time>
      </trkpt>
      <trkpt lat="46.04482" lon="5.47668">
        <ele>608.4</ele>
        <time>2026-05-09T14:07:03Z</time>
      </trkpt>
      <trkpt lat="46.04484" lon="5.4767">
        <ele>608.8</ele>
        <time>2026-05-09T14:07:04Z</time>
      </trkpt>
      <trkpt lat="46.04485" lon="5.47671">
        <ele>609</ele>
        <time>2026-05-09T14:07:05Z</time>
      </trkpt>
      <trkpt lat="46.04487" lon="5.47673">
        <ele>609</ele>
        <time>2026-05-09T14:07:06Z</time>
      </trkpt>
      <trkpt lat="46.04488" lon="5.47675">
        <ele>609</ele>
        <time>2026-05-09T14:07:07Z</time>
      </trkpt>
      <trkpt lat="46.04489" lon="5.47677">
        <ele>609.2</ele>
        <time>2026-05-09T14:07:08Z</time>
      </trkpt>
      <trkpt lat="46.0449" lon="5.47679">
        <ele>609.2</ele>
        <time>2026-05-09T14:07:09Z</time>
      </trkpt>
      <trkpt lat="46.04491" lon="5.47681">
        <ele>609.2</ele>
        <time>2026-05-09T14:07:10Z</time>
      </trkpt>
      <trkpt lat="46.04492" lon="5.47683">
        <ele>609.6</ele>
        <time>2026-05-09T14:07:11Z</time>
      </trkpt>
      <trkpt lat="46.04493" lon="5.47685">
        <ele>609.6</ele>
        <time>2026-05-09T14:07:12Z</time>
      </trkpt>
      <trkpt lat="46.04494" lon="5.47687">
        <ele>610</ele>
        <time>2026-05-09T14:07:13Z</time>
      </trkpt>
      <trkpt lat="46.04495" lon="5.4769">
        <ele>610</ele>
        <time>2026-05-09T14:07:14Z</time>
      </trkpt>
      <trkpt lat="46.04495" lon="5.47692">
        <ele>610.2</ele>
        <time>2026-05-09T14:07:15Z</time>
      </trkpt>
      <trkpt lat="46.04496" lon="5.47694">
        <ele>610.4</ele>
        <time>2026-05-09T14:07:16Z</time>
      </trkpt>
      <trkpt lat="46.04497" lon="5.47696">
        <ele>610.4</ele>
        <time>2026-05-09T14:07:17Z</time>
      </trkpt>
      <trkpt lat="46.04498" lon="5.47698">
        <ele>610.8</ele>
        <time>2026-05-09T14:07:18Z</time>
      </trkpt>
      <trkpt lat="46.04499" lon="5.477">
        <ele>610.8</ele>
        <time>2026-05-09T14:07:19Z</time>
      </trkpt>
      <trkpt lat="46.04499" lon="5.47702">
        <ele>611</ele>
        <time>2026-05-09T14:07:20Z</time>
      </trkpt>
      <trkpt lat="46.045" lon="5.47704">
        <ele>611.2</ele>
        <time>2026-05-09T14:07:21Z</time>
      </trkpt>
      <trkpt lat="46.04501" lon="5.47706">
        <ele>611.2</ele>
        <time>2026-05-09T14:07:22Z</time>
      </trkpt>
      <trkpt lat="46.04502" lon="5.47708">
        <ele>611.2</ele>
        <time>2026-05-09T14:07:23Z</time>
      </trkpt>
      <trkpt lat="46.04503" lon="5.4771">
        <ele>611.6</ele>
        <time>2026-05-09T14:07:24Z</time>
      </trkpt>
      <trkpt lat="46.04504" lon="5.47712">
        <ele>611.6</ele>
        <time>2026-05-09T14:07:25Z</time>
      </trkpt>
      <trkpt lat="46.04504" lon="5.47712">
        <ele>611.8</ele>
        <time>2026-05-09T14:07:26Z</time>
      </trkpt>
      <trkpt lat="46.04505" lon="5.47713">
        <ele>611.8</ele>
        <time>2026-05-09T14:07:27Z</time>
      </trkpt>
      <trkpt lat="46.04506" lon="5.47716">
        <ele>612</ele>
        <time>2026-05-09T14:07:28Z</time>
      </trkpt>
      <trkpt lat="46.04507" lon="5.47718">
        <ele>612</ele>
        <time>2026-05-09T14:07:29Z</time>
      </trkpt>
      <trkpt lat="46.04508" lon="5.4772">
        <ele>612</ele>
        <time>2026-05-09T14:07:30Z</time>
      </trkpt>
      <trkpt lat="46.04508" lon="5.47722">
        <ele>612</ele>
        <time>2026-05-09T14:07:31Z</time>
      </trkpt>
      <trkpt lat="46.04509" lon="5.47724">
        <ele>612.2</ele>
        <time>2026-05-09T14:07:32Z</time>
      </trkpt>
      <trkpt lat="46.0451" lon="5.47726">
        <ele>612.2</ele>
        <time>2026-05-09T14:07:33Z</time>
      </trkpt>
      <trkpt lat="46.04511" lon="5.47727">
        <ele>612.6</ele>
        <time>2026-05-09T14:07:34Z</time>
      </trkpt>
      <trkpt lat="46.04512" lon="5.47729">
        <ele>612.6</ele>
        <time>2026-05-09T14:07:35Z</time>
      </trkpt>
      <trkpt lat="46.04513" lon="5.47731">
        <ele>612.8</ele>
        <time>2026-05-09T14:07:36Z</time>
      </trkpt>
      <trkpt lat="46.04514" lon="5.47733">
        <ele>612.8</ele>
        <time>2026-05-09T14:07:37Z</time>
      </trkpt>
      <trkpt lat="46.04515" lon="5.47735">
        <ele>613</ele>
        <time>2026-05-09T14:07:38Z</time>
      </trkpt>
      <trkpt lat="46.04516" lon="5.47737">
        <ele>613</ele>
        <time>2026-05-09T14:07:39Z</time>
      </trkpt>
      <trkpt lat="46.04517" lon="5.47738">
        <ele>613.4</ele>
        <time>2026-05-09T14:07:40Z</time>
      </trkpt>
      <trkpt lat="46.04518" lon="5.4774">
        <ele>613.4</ele>
        <time>2026-05-09T14:07:41Z</time>
      </trkpt>
      <trkpt lat="46.04519" lon="5.47742">
        <ele>613.4</ele>
        <time>2026-05-09T14:07:42Z</time>
      </trkpt>
      <trkpt lat="46.0452" lon="5.47744">
        <ele>613.6</ele>
        <time>2026-05-09T14:07:43Z</time>
      </trkpt>
      <trkpt lat="46.04521" lon="5.47746">
        <ele>613.6</ele>
        <time>2026-05-09T14:07:44Z</time>
      </trkpt>
      <trkpt lat="46.04522" lon="5.47748">
        <ele>613.6</ele>
        <time>2026-05-09T14:07:45Z</time>
      </trkpt>
      <trkpt lat="46.04523" lon="5.47751">
        <ele>613.8</ele>
        <time>2026-05-09T14:07:46Z</time>
      </trkpt>
      <trkpt lat="46.04524" lon="5.47753">
        <ele>613.8</ele>
        <time>2026-05-09T14:07:47Z</time>
      </trkpt>
      <trkpt lat="46.04526" lon="5.47755">
        <ele>614</ele>
        <time>2026-05-09T14:07:48Z</time>
      </trkpt>
      <trkpt lat="46.04527" lon="5.47758">
        <ele>614</ele>
        <time>2026-05-09T14:07:49Z</time>
      </trkpt>
      <trkpt lat="46.04529" lon="5.4776">
        <ele>614.4</ele>
        <time>2026-05-09T14:07:50Z</time>
      </trkpt>
      <trkpt lat="46.0453" lon="5.47762">
        <ele>614.4</ele>
        <time>2026-05-09T14:07:51Z</time>
      </trkpt>
      <trkpt lat="46.04532" lon="5.47764">
        <ele>614.4</ele>
        <time>2026-05-09T14:07:52Z</time>
      </trkpt>
      <trkpt lat="46.04533" lon="5.47766">
        <ele>614.4</ele>
        <time>2026-05-09T14:07:53Z</time>
      </trkpt>
      <trkpt lat="46.04535" lon="5.47768">
        <ele>614.6</ele>
        <time>2026-05-09T14:07:54Z</time>
      </trkpt>
      <trkpt lat="46.04536" lon="5.4777">
        <ele>614.6</ele>
        <time>2026-05-09T14:07:55Z</time>
      </trkpt>
      <trkpt lat="46.04538" lon="5.47772">
        <ele>614.6</ele>
        <time>2026-05-09T14:07:56Z</time>
      </trkpt>
      <trkpt lat="46.0454" lon="5.47773">
        <ele>615</ele>
        <time>2026-05-09T14:07:57Z</time>
      </trkpt>
      <trkpt lat="46.04542" lon="5.47775">
        <ele>615</ele>
        <time>2026-05-09T14:07:58Z</time>
      </trkpt>
      <trkpt lat="46.04544" lon="5.47776">
        <ele>615</ele>
        <time>2026-05-09T14:07:59Z</time>
      </trkpt>
      <trkpt lat="46.04546" lon="5.47778">
        <ele>615</ele>
        <time>2026-05-09T14:08:00Z</time>
      </trkpt>
      <trkpt lat="46.04548" lon="5.47779">
        <ele>615.2</ele>
        <time>2026-05-09T14:08:01Z</time>
      </trkpt>
      <trkpt lat="46.04549" lon="5.4778">
        <ele>615.2</ele>
        <time>2026-05-09T14:08:02Z</time>
      </trkpt>
      <trkpt lat="46.04551" lon="5.47781">
        <ele>615.6</ele>
        <time>2026-05-09T14:08:03Z</time>
      </trkpt>
      <trkpt lat="46.04552" lon="5.47783">
        <ele>615.6</ele>
        <time>2026-05-09T14:08:04Z</time>
      </trkpt>
      <trkpt lat="46.04554" lon="5.47785">
        <ele>615.6</ele>
        <time>2026-05-09T14:08:05Z</time>
      </trkpt>
      <trkpt lat="46.04556" lon="5.47786">
        <ele>615.6</ele>
        <time>2026-05-09T14:08:06Z</time>
      </trkpt>
      <trkpt lat="46.04558" lon="5.47787">
        <ele>615.6</ele>
        <time>2026-05-09T14:08:07Z</time>
      </trkpt>
      <trkpt lat="46.0456" lon="5.47788">
        <ele>615.6</ele>
        <time>2026-05-09T14:08:08Z</time>
      </trkpt>
      <trkpt lat="46.04562" lon="5.47789">
        <ele>615.6</ele>
        <time>2026-05-09T14:08:09Z</time>
      </trkpt>
      <trkpt lat="46.04564" lon="5.47791">
        <ele>615.6</ele>
        <time>2026-05-09T14:08:10Z</time>
      </trkpt>
      <trkpt lat="46.04566" lon="5.47792">
        <ele>615.8</ele>
        <time>2026-05-09T14:08:11Z</time>
      </trkpt>
      <trkpt lat="46.04568" lon="5.47793">
        <ele>615.8</ele>
        <time>2026-05-09T14:08:12Z</time>
      </trkpt>
      <trkpt lat="46.0457" lon="5.47795">
        <ele>616.2</ele>
        <time>2026-05-09T14:08:13Z</time>
      </trkpt>
      <trkpt lat="46.04571" lon="5.47796">
        <ele>616.2</ele>
        <time>2026-05-09T14:08:14Z</time>
      </trkpt>
      <trkpt lat="46.04573" lon="5.47797">
        <ele>616.4</ele>
        <time>2026-05-09T14:08:15Z</time>
      </trkpt>
      <trkpt lat="46.04575" lon="5.47798">
        <ele>616.4</ele>
        <time>2026-05-09T14:08:16Z</time>
      </trkpt>
      <trkpt lat="46.04577" lon="5.47799">
        <ele>616.8</ele>
        <time>2026-05-09T14:08:17Z</time>
      </trkpt>
      <trkpt lat="46.04579" lon="5.478">
        <ele>616.8</ele>
        <time>2026-05-09T14:08:18Z</time>
      </trkpt>
      <trkpt lat="46.04581" lon="5.47801">
        <ele>617</ele>
        <time>2026-05-09T14:08:19Z</time>
      </trkpt>
      <trkpt lat="46.04582" lon="5.47803">
        <ele>617</ele>
        <time>2026-05-09T14:08:20Z</time>
      </trkpt>
      <trkpt lat="46.04584" lon="5.47804">
        <ele>617</ele>
        <time>2026-05-09T14:08:21Z</time>
      </trkpt>
      <trkpt lat="46.04586" lon="5.47805">
        <ele>617</ele>
        <time>2026-05-09T14:08:22Z</time>
      </trkpt>
      <trkpt lat="46.04588" lon="5.47806">
        <ele>617.4</ele>
        <time>2026-05-09T14:08:23Z</time>
      </trkpt>
      <trkpt lat="46.0459" lon="5.47807">
        <ele>617.4</ele>
        <time>2026-05-09T14:08:24Z</time>
      </trkpt>
      <trkpt lat="46.04592" lon="5.47808">
        <ele>617.4</ele>
        <time>2026-05-09T14:08:25Z</time>
      </trkpt>
      <trkpt lat="46.04593" lon="5.4781">
        <ele>617.8</ele>
        <time>2026-05-09T14:08:26Z</time>
      </trkpt>
      <trkpt lat="46.04595" lon="5.47811">
        <ele>617.8</ele>
        <time>2026-05-09T14:08:27Z</time>
      </trkpt>
      <trkpt lat="46.04597" lon="5.47813">
        <ele>618</ele>
        <time>2026-05-09T14:08:28Z</time>
      </trkpt>
      <trkpt lat="46.04599" lon="5.47814">
        <ele>618</ele>
        <time>2026-05-09T14:08:29Z</time>
      </trkpt>
      <trkpt lat="46.046" lon="5.47815">
        <ele>618</ele>
        <time>2026-05-09T14:08:30Z</time>
      </trkpt>
      <trkpt lat="46.04602" lon="5.47817">
        <ele>618.2</ele>
        <time>2026-05-09T14:08:31Z</time>
      </trkpt>
      <trkpt lat="46.04604" lon="5.47818">
        <ele>618.2</ele>
        <time>2026-05-09T14:08:32Z</time>
      </trkpt>
      <trkpt lat="46.04605" lon="5.4782">
        <ele>618.2</ele>
        <time>2026-05-09T14:08:33Z</time>
      </trkpt>
      <trkpt lat="46.04607" lon="5.47821">
        <ele>618.8</ele>
        <time>2026-05-09T14:08:34Z</time>
      </trkpt>
      <trkpt lat="46.04609" lon="5.47822">
        <ele>618.8</ele>
        <time>2026-05-09T14:08:35Z</time>
      </trkpt>
      <trkpt lat="46.04611" lon="5.47823">
        <ele>618.8</ele>
        <time>2026-05-09T14:08:36Z</time>
      </trkpt>
      <trkpt lat="46.04614" lon="5.47826">
        <ele>618.8</ele>
        <time>2026-05-09T14:08:37Z</time>
      </trkpt>
      <trkpt lat="46.04615" lon="5.47827">
        <ele>619.2</ele>
        <time>2026-05-09T14:08:38Z</time>
      </trkpt>
      <trkpt lat="46.04617" lon="5.47829">
        <ele>619.2</ele>
        <time>2026-05-09T14:08:39Z</time>
      </trkpt>
      <trkpt lat="46.04618" lon="5.4783">
        <ele>619.6</ele>
        <time>2026-05-09T14:08:40Z</time>
      </trkpt>
      <trkpt lat="46.0462" lon="5.47832">
        <ele>619.6</ele>
        <time>2026-05-09T14:08:41Z</time>
      </trkpt>
      <trkpt lat="46.04622" lon="5.47834">
        <ele>619.8</ele>
        <time>2026-05-09T14:08:42Z</time>
      </trkpt>
      <trkpt lat="46.04623" lon="5.47835">
        <ele>619.8</ele>
        <time>2026-05-09T14:08:43Z</time>
      </trkpt>
      <trkpt lat="46.04625" lon="5.47837">
        <ele>620.2</ele>
        <time>2026-05-09T14:08:44Z</time>
      </trkpt>
      <trkpt lat="46.04627" lon="5.47839">
        <ele>620.4</ele>
        <time>2026-05-09T14:08:45Z</time>
      </trkpt>
      <trkpt lat="46.04628" lon="5.4784">
        <ele>620.4</ele>
        <time>2026-05-09T14:08:46Z</time>
      </trkpt>
      <trkpt lat="46.0463" lon="5.47842">
        <ele>620.6</ele>
        <time>2026-05-09T14:08:47Z</time>
      </trkpt>
      <trkpt lat="46.04631" lon="5.47844">
        <ele>620.6</ele>
        <time>2026-05-09T14:08:48Z</time>
      </trkpt>
      <trkpt lat="46.04633" lon="5.47845">
        <ele>620.6</ele>
        <time>2026-05-09T14:08:49Z</time>
      </trkpt>
      <trkpt lat="46.04634" lon="5.47847">
        <ele>621</ele>
        <time>2026-05-09T14:08:50Z</time>
      </trkpt>
      <trkpt lat="46.04636" lon="5.47848">
        <ele>621</ele>
        <time>2026-05-09T14:08:51Z</time>
      </trkpt>
      <trkpt lat="46.04638" lon="5.4785">
        <ele>621.2</ele>
        <time>2026-05-09T14:08:52Z</time>
      </trkpt>
      <trkpt lat="46.04639" lon="5.47851">
        <ele>621.2</ele>
        <time>2026-05-09T14:08:53Z</time>
      </trkpt>
      <trkpt lat="46.04641" lon="5.47853">
        <ele>621.2</ele>
        <time>2026-05-09T14:08:54Z</time>
      </trkpt>
      <trkpt lat="46.04642" lon="5.47854">
        <ele>621.6</ele>
        <time>2026-05-09T14:08:55Z</time>
      </trkpt>
      <trkpt lat="46.04644" lon="5.47856">
        <ele>621.6</ele>
        <time>2026-05-09T14:08:56Z</time>
      </trkpt>
      <trkpt lat="46.04646" lon="5.47858">
        <ele>621.6</ele>
        <time>2026-05-09T14:08:57Z</time>
      </trkpt>
      <trkpt lat="46.04647" lon="5.47859">
        <ele>621.8</ele>
        <time>2026-05-09T14:08:58Z</time>
      </trkpt>
      <trkpt lat="46.04649" lon="5.47861">
        <ele>621.8</ele>
        <time>2026-05-09T14:08:59Z</time>
      </trkpt>
      <trkpt lat="46.04651" lon="5.47862">
        <ele>622</ele>
        <time>2026-05-09T14:09:00Z</time>
      </trkpt>
      <trkpt lat="46.04652" lon="5.47863">
        <ele>622.4</ele>
        <time>2026-05-09T14:09:01Z</time>
      </trkpt>
      <trkpt lat="46.04654" lon="5.47865">
        <ele>622.4</ele>
        <time>2026-05-09T14:09:02Z</time>
      </trkpt>
      <trkpt lat="46.04656" lon="5.47866">
        <ele>622.4</ele>
        <time>2026-05-09T14:09:03Z</time>
      </trkpt>
      <trkpt lat="46.04658" lon="5.47867">
        <ele>622.6</ele>
        <time>2026-05-09T14:09:04Z</time>
      </trkpt>
      <trkpt lat="46.0466" lon="5.47868">
        <ele>622.6</ele>
        <time>2026-05-09T14:09:05Z</time>
      </trkpt>
      <trkpt lat="46.04662" lon="5.4787">
        <ele>623</ele>
        <time>2026-05-09T14:09:06Z</time>
      </trkpt>
      <trkpt lat="46.04663" lon="5.47871">
        <ele>623</ele>
        <time>2026-05-09T14:09:07Z</time>
      </trkpt>
      <trkpt lat="46.04665" lon="5.47872">
        <ele>623</ele>
        <time>2026-05-09T14:09:08Z</time>
      </trkpt>
      <trkpt lat="46.04667" lon="5.47873">
        <ele>623.2</ele>
        <time>2026-05-09T14:09:09Z</time>
      </trkpt>
      <trkpt lat="46.04669" lon="5.47875">
        <ele>623.2</ele>
        <time>2026-05-09T14:09:10Z</time>
      </trkpt>
      <trkpt lat="46.04671" lon="5.47876">
        <ele>623.4</ele>
        <time>2026-05-09T14:09:11Z</time>
      </trkpt>
      <trkpt lat="46.04673" lon="5.47877">
        <ele>623.4</ele>
        <time>2026-05-09T14:09:12Z</time>
      </trkpt>
      <trkpt lat="46.04674" lon="5.47878">
        <ele>623.4</ele>
        <time>2026-05-09T14:09:13Z</time>
      </trkpt>
      <trkpt lat="46.04676" lon="5.47879">
        <ele>623.8</ele>
        <time>2026-05-09T14:09:14Z</time>
      </trkpt>
      <trkpt lat="46.04677" lon="5.4788">
        <ele>623.8</ele>
        <time>2026-05-09T14:09:15Z</time>
      </trkpt>
      <trkpt lat="46.04679" lon="5.47881">
        <ele>623.8</ele>
        <time>2026-05-09T14:09:16Z</time>
      </trkpt>
      <trkpt lat="46.04681" lon="5.47883">
        <ele>623.8</ele>
        <time>2026-05-09T14:09:17Z</time>
      </trkpt>
      <trkpt lat="46.04682" lon="5.47884">
        <ele>623.8</ele>
        <time>2026-05-09T14:09:18Z</time>
      </trkpt>
      <trkpt lat="46.04684" lon="5.47885">
        <ele>624</ele>
        <time>2026-05-09T14:09:19Z</time>
      </trkpt>
      <trkpt lat="46.04685" lon="5.47886">
        <ele>624</ele>
        <time>2026-05-09T14:09:20Z</time>
      </trkpt>
      <trkpt lat="46.04687" lon="5.47888">
        <ele>624</ele>
        <time>2026-05-09T14:09:21Z</time>
      </trkpt>
      <trkpt lat="46.04688" lon="5.47889">
        <ele>624</ele>
        <time>2026-05-09T14:09:22Z</time>
      </trkpt>
      <trkpt lat="46.0469" lon="5.4789">
        <ele>624</ele>
        <time>2026-05-09T14:09:23Z</time>
      </trkpt>
      <trkpt lat="46.04692" lon="5.47891">
        <ele>624</ele>
        <time>2026-05-09T14:09:24Z</time>
      </trkpt>
      <trkpt lat="46.04693" lon="5.47892">
        <ele>624.4</ele>
        <time>2026-05-09T14:09:25Z</time>
      </trkpt>
      <trkpt lat="46.04695" lon="5.47893">
        <ele>624.4</ele>
        <time>2026-05-09T14:09:26Z</time>
      </trkpt>
      <trkpt lat="46.04697" lon="5.47894">
        <ele>624.4</ele>
        <time>2026-05-09T14:09:27Z</time>
      </trkpt>
      <trkpt lat="46.04698" lon="5.47896">
        <ele>624.8</ele>
        <time>2026-05-09T14:09:28Z</time>
      </trkpt>
      <trkpt lat="46.047" lon="5.47897">
        <ele>624.8</ele>
        <time>2026-05-09T14:09:29Z</time>
      </trkpt>
      <trkpt lat="46.04702" lon="5.47899">
        <ele>624.8</ele>
        <time>2026-05-09T14:09:30Z</time>
      </trkpt>
      <trkpt lat="46.04704" lon="5.479">
        <ele>625</ele>
        <time>2026-05-09T14:09:31Z</time>
      </trkpt>
      <trkpt lat="46.04705" lon="5.47901">
        <ele>625</ele>
        <time>2026-05-09T14:09:32Z</time>
      </trkpt>
      <trkpt lat="46.04707" lon="5.47902">
        <ele>625.4</ele>
        <time>2026-05-09T14:09:33Z</time>
      </trkpt>
      <trkpt lat="46.04709" lon="5.47904">
        <ele>625.6</ele>
        <time>2026-05-09T14:09:34Z</time>
      </trkpt>
      <trkpt lat="46.0471" lon="5.47905">
        <ele>625.6</ele>
        <time>2026-05-09T14:09:35Z</time>
      </trkpt>
      <trkpt lat="46.04712" lon="5.47906">
        <ele>626</ele>
        <time>2026-05-09T14:09:36Z</time>
      </trkpt>
      <trkpt lat="46.04713" lon="5.47908">
        <ele>626</ele>
        <time>2026-05-09T14:09:37Z</time>
      </trkpt>
      <trkpt lat="46.04714" lon="5.47909">
        <ele>626</ele>
        <time>2026-05-09T14:09:38Z</time>
      </trkpt>
      <trkpt lat="46.04716" lon="5.47911">
        <ele>626.2</ele>
        <time>2026-05-09T14:09:39Z</time>
      </trkpt>
      <trkpt lat="46.04717" lon="5.47912">
        <ele>626.2</ele>
        <time>2026-05-09T14:09:40Z</time>
      </trkpt>
      <trkpt lat="46.04718" lon="5.47914">
        <ele>626.4</ele>
        <time>2026-05-09T14:09:41Z</time>
      </trkpt>
      <trkpt lat="46.0472" lon="5.47915">
        <ele>626.4</ele>
        <time>2026-05-09T14:09:42Z</time>
      </trkpt>
      <trkpt lat="46.04721" lon="5.47917">
        <ele>626.8</ele>
        <time>2026-05-09T14:09:43Z</time>
      </trkpt>
      <trkpt lat="46.04722" lon="5.47919">
        <ele>626.8</ele>
        <time>2026-05-09T14:09:44Z</time>
      </trkpt>
      <trkpt lat="46.04723" lon="5.47921">
        <ele>627</ele>
        <time>2026-05-09T14:09:45Z</time>
      </trkpt>
      <trkpt lat="46.04724" lon="5.47923">
        <ele>627.2</ele>
        <time>2026-05-09T14:09:46Z</time>
      </trkpt>
      <trkpt lat="46.04725" lon="5.47925">
        <ele>627.2</ele>
        <time>2026-05-09T14:09:47Z</time>
      </trkpt>
      <trkpt lat="46.04726" lon="5.47927">
        <ele>627.2</ele>
        <time>2026-05-09T14:09:48Z</time>
      </trkpt>
      <trkpt lat="46.04727" lon="5.4793">
        <ele>627.4</ele>
        <time>2026-05-09T14:09:49Z</time>
      </trkpt>
      <trkpt lat="46.04728" lon="5.47932">
        <ele>627.4</ele>
        <time>2026-05-09T14:09:50Z</time>
      </trkpt>
      <trkpt lat="46.04729" lon="5.47934">
        <ele>627.8</ele>
        <time>2026-05-09T14:09:51Z</time>
      </trkpt>
      <trkpt lat="46.0473" lon="5.47937">
        <ele>627.8</ele>
        <time>2026-05-09T14:09:52Z</time>
      </trkpt>
      <trkpt lat="46.0473" lon="5.47939">
        <ele>628</ele>
        <time>2026-05-09T14:09:53Z</time>
      </trkpt>
      <trkpt lat="46.0473" lon="5.47941">
        <ele>628</ele>
        <time>2026-05-09T14:09:54Z</time>
      </trkpt>
      <trkpt lat="46.0473" lon="5.47944">
        <ele>628</ele>
        <time>2026-05-09T14:09:55Z</time>
      </trkpt>
      <trkpt lat="46.0473" lon="5.47946">
        <ele>628.2</ele>
        <time>2026-05-09T14:09:56Z</time>
      </trkpt>
      <trkpt lat="46.04731" lon="5.47948">
        <ele>628.2</ele>
        <time>2026-05-09T14:09:57Z</time>
      </trkpt>
      <trkpt lat="46.0473" lon="5.47951">
        <ele>628.4</ele>
        <time>2026-05-09T14:09:58Z</time>
      </trkpt>
      <trkpt lat="46.0473" lon="5.47953">
        <ele>628.4</ele>
        <time>2026-05-09T14:09:59Z</time>
      </trkpt>
      <trkpt lat="46.0473" lon="5.47953">
        <ele>628.8</ele>
        <time>2026-05-09T14:10:00Z</time>
      </trkpt>
      <trkpt lat="46.0473" lon="5.47955">
        <ele>628.8</ele>
        <time>2026-05-09T14:10:01Z</time>
      </trkpt>
      <trkpt lat="46.04729" lon="5.47958">
        <ele>629</ele>
        <time>2026-05-09T14:10:02Z</time>
      </trkpt>
      <trkpt lat="46.04729" lon="5.4796">
        <ele>629</ele>
        <time>2026-05-09T14:10:03Z</time>
      </trkpt>
      <trkpt lat="46.04729" lon="5.47962">
        <ele>629</ele>
        <time>2026-05-09T14:10:04Z</time>
      </trkpt>
      <trkpt lat="46.04728" lon="5.47964">
        <ele>629.4</ele>
        <time>2026-05-09T14:10:05Z</time>
      </trkpt>
      <trkpt lat="46.04727" lon="5.47967">
        <ele>629.4</ele>
        <time>2026-05-09T14:10:06Z</time>
      </trkpt>
      <trkpt lat="46.04726" lon="5.47969">
        <ele>629.6</ele>
        <time>2026-05-09T14:10:07Z</time>
      </trkpt>
      <trkpt lat="46.04726" lon="5.47971">
        <ele>629.6</ele>
        <time>2026-05-09T14:10:08Z</time>
      </trkpt>
      <trkpt lat="46.04725" lon="5.47973">
        <ele>629.6</ele>
        <time>2026-05-09T14:10:09Z</time>
      </trkpt>
      <trkpt lat="46.04724" lon="5.47975">
        <ele>629.8</ele>
        <time>2026-05-09T14:10:10Z</time>
      </trkpt>
      <trkpt lat="46.04723" lon="5.47976">
        <ele>629.8</ele>
        <time>2026-05-09T14:10:11Z</time>
      </trkpt>
      <trkpt lat="46.04722" lon="5.47978">
        <ele>630</ele>
        <time>2026-05-09T14:10:12Z</time>
      </trkpt>
      <trkpt lat="46.04721" lon="5.4798">
        <ele>630</ele>
        <time>2026-05-09T14:10:13Z</time>
      </trkpt>
      <trkpt lat="46.0472" lon="5.47982">
        <ele>630.2</ele>
        <time>2026-05-09T14:10:14Z</time>
      </trkpt>
      <trkpt lat="46.04718" lon="5.47983">
        <ele>630.2</ele>
        <time>2026-05-09T14:10:15Z</time>
      </trkpt>
      <trkpt lat="46.04717" lon="5.47985">
        <ele>630.6</ele>
        <time>2026-05-09T14:10:16Z</time>
      </trkpt>
      <trkpt lat="46.04716" lon="5.47986">
        <ele>630.6</ele>
        <time>2026-05-09T14:10:17Z</time>
      </trkpt>
      <trkpt lat="46.04715" lon="5.47987">
        <ele>631</ele>
        <time>2026-05-09T14:10:18Z</time>
      </trkpt>
      <trkpt lat="46.04714" lon="5.47989">
        <ele>631</ele>
        <time>2026-05-09T14:10:19Z</time>
      </trkpt>
      <trkpt lat="46.04713" lon="5.4799">
        <ele>631</ele>
        <time>2026-05-09T14:10:20Z</time>
      </trkpt>
      <trkpt lat="46.04711" lon="5.47992">
        <ele>631.2</ele>
        <time>2026-05-09T14:10:21Z</time>
      </trkpt>
      <trkpt lat="46.0471" lon="5.47994">
        <ele>631.2</ele>
        <time>2026-05-09T14:10:22Z</time>
      </trkpt>
      <trkpt lat="46.04709" lon="5.47995">
        <ele>631.2</ele>
        <time>2026-05-09T14:10:23Z</time>
      </trkpt>
      <trkpt lat="46.04708" lon="5.47997">
        <ele>631.4</ele>
        <time>2026-05-09T14:10:24Z</time>
      </trkpt>
      <trkpt lat="46.04707" lon="5.47998">
        <ele>631.4</ele>
        <time>2026-05-09T14:10:25Z</time>
      </trkpt>
      <trkpt lat="46.04705" lon="5.48">
        <ele>631.6</ele>
        <time>2026-05-09T14:10:26Z</time>
      </trkpt>
      <trkpt lat="46.04704" lon="5.48001">
        <ele>631.6</ele>
        <time>2026-05-09T14:10:27Z</time>
      </trkpt>
      <trkpt lat="46.04703" lon="5.48002">
        <ele>632</ele>
        <time>2026-05-09T14:10:28Z</time>
      </trkpt>
      <trkpt lat="46.04702" lon="5.48004">
        <ele>632</ele>
        <time>2026-05-09T14:10:29Z</time>
      </trkpt>
      <trkpt lat="46.04701" lon="5.48006">
        <ele>632</ele>
        <time>2026-05-09T14:10:30Z</time>
      </trkpt>
      <trkpt lat="46.047" lon="5.48007">
        <ele>632</ele>
        <time>2026-05-09T14:10:31Z</time>
      </trkpt>
      <trkpt lat="46.04699" lon="5.48009">
        <ele>632</ele>
        <time>2026-05-09T14:10:32Z</time>
      </trkpt>
      <trkpt lat="46.04698" lon="5.48011">
        <ele>632.2</ele>
        <time>2026-05-09T14:10:33Z</time>
      </trkpt>
      <trkpt lat="46.04697" lon="5.48012">
        <ele>632.2</ele>
        <time>2026-05-09T14:10:34Z</time>
      </trkpt>
      <trkpt lat="46.04696" lon="5.48014">
        <ele>632.2</ele>
        <time>2026-05-09T14:10:35Z</time>
      </trkpt>
      <trkpt lat="46.04695" lon="5.48016">
        <ele>632.4</ele>
        <time>2026-05-09T14:10:36Z</time>
      </trkpt>
      <trkpt lat="46.04694" lon="5.48018">
        <ele>632.4</ele>
        <time>2026-05-09T14:10:37Z</time>
      </trkpt>
      <trkpt lat="46.04693" lon="5.4802">
        <ele>632.6</ele>
        <time>2026-05-09T14:10:38Z</time>
      </trkpt>
      <trkpt lat="46.04692" lon="5.48022">
        <ele>632.6</ele>
        <time>2026-05-09T14:10:39Z</time>
      </trkpt>
      <trkpt lat="46.04691" lon="5.48024">
        <ele>632.6</ele>
        <time>2026-05-09T14:10:40Z</time>
      </trkpt>
      <trkpt lat="46.0469" lon="5.48025">
        <ele>633</ele>
        <time>2026-05-09T14:10:41Z</time>
      </trkpt>
      <trkpt lat="46.04689" lon="5.48027">
        <ele>633</ele>
        <time>2026-05-09T14:10:42Z</time>
      </trkpt>
      <trkpt lat="46.04687" lon="5.48029">
        <ele>633.2</ele>
        <time>2026-05-09T14:10:43Z</time>
      </trkpt>
      <trkpt lat="46.04686" lon="5.48031">
        <ele>633.2</ele>
        <time>2026-05-09T14:10:44Z</time>
      </trkpt>
      <trkpt lat="46.04685" lon="5.48033">
        <ele>633.6</ele>
        <time>2026-05-09T14:10:45Z</time>
      </trkpt>
      <trkpt lat="46.04684" lon="5.48034">
        <ele>633.6</ele>
        <time>2026-05-09T14:10:46Z</time>
      </trkpt>
      <trkpt lat="46.04683" lon="5.48036">
        <ele>633.8</ele>
        <time>2026-05-09T14:10:47Z</time>
      </trkpt>
      <trkpt lat="46.04682" lon="5.48038">
        <ele>633.8</ele>
        <time>2026-05-09T14:10:48Z</time>
      </trkpt>
      <trkpt lat="46.04681" lon="5.4804">
        <ele>634</ele>
        <time>2026-05-09T14:10:49Z</time>
      </trkpt>
      <trkpt lat="46.04679" lon="5.48042">
        <ele>634</ele>
        <time>2026-05-09T14:10:50Z</time>
      </trkpt>
      <trkpt lat="46.04678" lon="5.48044">
        <ele>634</ele>
        <time>2026-05-09T14:10:51Z</time>
      </trkpt>
      <trkpt lat="46.04677" lon="5.48046">
        <ele>634.2</ele>
        <time>2026-05-09T14:10:52Z</time>
      </trkpt>
      <trkpt lat="46.04675" lon="5.48048">
        <ele>634.2</ele>
        <time>2026-05-09T14:10:53Z</time>
      </trkpt>
      <trkpt lat="46.04674" lon="5.4805">
        <ele>634.2</ele>
        <time>2026-05-09T14:10:54Z</time>
      </trkpt>
      <trkpt lat="46.04673" lon="5.48052">
        <ele>634.2</ele>
        <time>2026-05-09T14:10:55Z</time>
      </trkpt>
      <trkpt lat="46.04672" lon="5.48054">
        <ele>634.6</ele>
        <time>2026-05-09T14:10:56Z</time>
      </trkpt>
      <trkpt lat="46.0467" lon="5.48056">
        <ele>634.6</ele>
        <time>2026-05-09T14:10:57Z</time>
      </trkpt>
      <trkpt lat="46.04669" lon="5.48058">
        <ele>634.6</ele>
        <time>2026-05-09T14:10:58Z</time>
      </trkpt>
      <trkpt lat="46.04668" lon="5.48059">
        <ele>634.8</ele>
        <time>2026-05-09T14:10:59Z</time>
      </trkpt>
      <trkpt lat="46.04667" lon="5.48061">
        <ele>634.8</ele>
        <time>2026-05-09T14:11:00Z</time>
      </trkpt>
      <trkpt lat="46.04665" lon="5.48062">
        <ele>634.8</ele>
        <time>2026-05-09T14:11:01Z</time>
      </trkpt>
      <trkpt lat="46.04664" lon="5.48064">
        <ele>635.2</ele>
        <time>2026-05-09T14:11:02Z</time>
      </trkpt>
      <trkpt lat="46.04663" lon="5.48065">
        <ele>635.2</ele>
        <time>2026-05-09T14:11:03Z</time>
      </trkpt>
      <trkpt lat="46.04662" lon="5.48066">
        <ele>635.4</ele>
        <time>2026-05-09T14:11:04Z</time>
      </trkpt>
      <trkpt lat="46.0466" lon="5.48068">
        <ele>635.4</ele>
        <time>2026-05-09T14:11:05Z</time>
      </trkpt>
      <trkpt lat="46.04659" lon="5.4807">
        <ele>635.4</ele>
        <time>2026-05-09T14:11:06Z</time>
      </trkpt>
      <trkpt lat="46.04658" lon="5.48071">
        <ele>635.8</ele>
        <time>2026-05-09T14:11:07Z</time>
      </trkpt>
      <trkpt lat="46.04656" lon="5.48072">
        <ele>636</ele>
        <time>2026-05-09T14:11:08Z</time>
      </trkpt>
      <trkpt lat="46.04655" lon="5.48073">
        <ele>636</ele>
        <time>2026-05-09T14:11:09Z</time>
      </trkpt>
      <trkpt lat="46.04653" lon="5.48074">
        <ele>636</ele>
        <time>2026-05-09T14:11:10Z</time>
      </trkpt>
      <trkpt lat="46.04651" lon="5.48075">
        <ele>636</ele>
        <time>2026-05-09T14:11:11Z</time>
      </trkpt>
      <trkpt lat="46.0465" lon="5.48076">
        <ele>636.2</ele>
        <time>2026-05-09T14:11:12Z</time>
      </trkpt>
      <trkpt lat="46.04648" lon="5.48077">
        <ele>636.2</ele>
        <time>2026-05-09T14:11:13Z</time>
      </trkpt>
      <trkpt lat="46.04647" lon="5.48078">
        <ele>636.2</ele>
        <time>2026-05-09T14:11:14Z</time>
      </trkpt>
      <trkpt lat="46.04644" lon="5.4808">
        <ele>636.2</ele>
        <time>2026-05-09T14:11:15Z</time>
      </trkpt>
      <trkpt lat="46.04642" lon="5.48082">
        <ele>636.2</ele>
        <time>2026-05-09T14:11:16Z</time>
      </trkpt>
      <trkpt lat="46.04641" lon="5.48082">
        <ele>636.6</ele>
        <time>2026-05-09T14:11:17Z</time>
      </trkpt>
      <trkpt lat="46.04639" lon="5.48083">
        <ele>636.6</ele>
        <time>2026-05-09T14:11:18Z</time>
      </trkpt>
      <trkpt lat="46.04637" lon="5.48084">
        <ele>636.8</ele>
        <time>2026-05-09T14:11:19Z</time>
      </trkpt>
      <trkpt lat="46.04635" lon="5.48085">
        <ele>637.2</ele>
        <time>2026-05-09T14:11:20Z</time>
      </trkpt>
      <trkpt lat="46.04634" lon="5.48086">
        <ele>637.2</ele>
        <time>2026-05-09T14:11:21Z</time>
      </trkpt>
      <trkpt lat="46.04632" lon="5.48087">
        <ele>637.2</ele>
        <time>2026-05-09T14:11:22Z</time>
      </trkpt>
      <trkpt lat="46.04631" lon="5.48087">
        <ele>637.2</ele>
        <time>2026-05-09T14:11:23Z</time>
      </trkpt>
      <trkpt lat="46.04629" lon="5.48088">
        <ele>637.4</ele>
        <time>2026-05-09T14:11:24Z</time>
      </trkpt>
      <trkpt lat="46.04627" lon="5.48088">
        <ele>637.4</ele>
        <time>2026-05-09T14:11:25Z</time>
      </trkpt>
      <trkpt lat="46.04626" lon="5.48088">
        <ele>637.6</ele>
        <time>2026-05-09T14:11:26Z</time>
      </trkpt>
      <trkpt lat="46.04624" lon="5.48089">
        <ele>637.6</ele>
        <time>2026-05-09T14:11:27Z</time>
      </trkpt>
      <trkpt lat="46.04622" lon="5.48089">
        <ele>637.6</ele>
        <time>2026-05-09T14:11:28Z</time>
      </trkpt>
      <trkpt lat="46.0462" lon="5.48089">
        <ele>637.8</ele>
        <time>2026-05-09T14:11:29Z</time>
      </trkpt>
      <trkpt lat="46.04619" lon="5.48089">
        <ele>637.8</ele>
        <time>2026-05-09T14:11:30Z</time>
      </trkpt>
      <trkpt lat="46.04617" lon="5.48089">
        <ele>638.2</ele>
        <time>2026-05-09T14:11:31Z</time>
      </trkpt>
      <trkpt lat="46.04615" lon="5.4809">
        <ele>638.2</ele>
        <time>2026-05-09T14:11:32Z</time>
      </trkpt>
      <trkpt lat="46.04613" lon="5.4809">
        <ele>638.4</ele>
        <time>2026-05-09T14:11:33Z</time>
      </trkpt>
      <trkpt lat="46.04611" lon="5.4809">
        <ele>638.4</ele>
        <time>2026-05-09T14:11:34Z</time>
      </trkpt>
      <trkpt lat="46.04609" lon="5.48091">
        <ele>638.6</ele>
        <time>2026-05-09T14:11:35Z</time>
      </trkpt>
      <trkpt lat="46.04608" lon="5.48091">
        <ele>638.6</ele>
        <time>2026-05-09T14:11:36Z</time>
      </trkpt>
      <trkpt lat="46.04606" lon="5.48091">
        <ele>638.6</ele>
        <time>2026-05-09T14:11:37Z</time>
      </trkpt>
      <trkpt lat="46.04604" lon="5.48091">
        <ele>638.6</ele>
        <time>2026-05-09T14:11:38Z</time>
      </trkpt>
      <trkpt lat="46.04603" lon="5.48091">
        <ele>638.8</ele>
        <time>2026-05-09T14:11:39Z</time>
      </trkpt>
      <trkpt lat="46.04601" lon="5.48092">
        <ele>638.8</ele>
        <time>2026-05-09T14:11:40Z</time>
      </trkpt>
      <trkpt lat="46.04599" lon="5.48092">
        <ele>639.2</ele>
        <time>2026-05-09T14:11:41Z</time>
      </trkpt>
      <trkpt lat="46.04598" lon="5.48091">
        <ele>639.2</ele>
        <time>2026-05-09T14:11:42Z</time>
      </trkpt>
      <trkpt lat="46.04597" lon="5.48091">
        <ele>639.2</ele>
        <time>2026-05-09T14:11:43Z</time>
      </trkpt>
      <trkpt lat="46.04595" lon="5.48091">
        <ele>639.2</ele>
        <time>2026-05-09T14:11:44Z</time>
      </trkpt>
      <trkpt lat="46.04593" lon="5.48092">
        <ele>639.2</ele>
        <time>2026-05-09T14:11:45Z</time>
      </trkpt>
      <trkpt lat="46.04591" lon="5.48092">
        <ele>639.2</ele>
        <time>2026-05-09T14:11:46Z</time>
      </trkpt>
      <trkpt lat="46.04589" lon="5.48092">
        <ele>639.2</ele>
        <time>2026-05-09T14:11:47Z</time>
      </trkpt>
      <trkpt lat="46.04587" lon="5.48092">
        <ele>639.4</ele>
        <time>2026-05-09T14:11:48Z</time>
      </trkpt>
      <trkpt lat="46.04585" lon="5.48092">
        <ele>639.4</ele>
        <time>2026-05-09T14:11:49Z</time>
      </trkpt>
      <trkpt lat="46.04584" lon="5.48092">
        <ele>639.4</ele>
        <time>2026-05-09T14:11:50Z</time>
      </trkpt>
      <trkpt lat="46.04582" lon="5.48092">
        <ele>639.6</ele>
        <time>2026-05-09T14:11:51Z</time>
      </trkpt>
      <trkpt lat="46.0458" lon="5.48092">
        <ele>639.6</ele>
        <time>2026-05-09T14:11:52Z</time>
      </trkpt>
      <trkpt lat="46.04579" lon="5.48092">
        <ele>639.6</ele>
        <time>2026-05-09T14:11:53Z</time>
      </trkpt>
      <trkpt lat="46.04577" lon="5.48093">
        <ele>639.8</ele>
        <time>2026-05-09T14:11:54Z</time>
      </trkpt>
      <trkpt lat="46.04576" lon="5.48093">
        <ele>639.8</ele>
        <time>2026-05-09T14:11:55Z</time>
      </trkpt>
      <trkpt lat="46.04574" lon="5.48093">
        <ele>640</ele>
        <time>2026-05-09T14:11:56Z</time>
      </trkpt>
      <trkpt lat="46.04572" lon="5.48093">
        <ele>640.4</ele>
        <time>2026-05-09T14:11:57Z</time>
      </trkpt>
      <trkpt lat="46.04571" lon="5.48093">
        <ele>640.6</ele>
        <time>2026-05-09T14:11:58Z</time>
      </trkpt>
      <trkpt lat="46.04569" lon="5.48093">
        <ele>640.8</ele>
        <time>2026-05-09T14:11:59Z</time>
      </trkpt>
      <trkpt lat="46.04567" lon="5.48093">
        <ele>640.8</ele>
        <time>2026-05-09T14:12:00Z</time>
      </trkpt>
      <trkpt lat="46.04566" lon="5.48093">
        <ele>641.2</ele>
        <time>2026-05-09T14:12:01Z</time>
      </trkpt>
      <trkpt lat="46.04564" lon="5.48093">
        <ele>641.2</ele>
        <time>2026-05-09T14:12:02Z</time>
      </trkpt>
      <trkpt lat="46.04563" lon="5.48093">
        <ele>641.4</ele>
        <time>2026-05-09T14:12:03Z</time>
      </trkpt>
      <trkpt lat="46.04561" lon="5.48093">
        <ele>641.4</ele>
        <time>2026-05-09T14:12:04Z</time>
      </trkpt>
      <trkpt lat="46.04559" lon="5.48093">
        <ele>641.6</ele>
        <time>2026-05-09T14:12:05Z</time>
      </trkpt>
      <trkpt lat="46.04557" lon="5.48093">
        <ele>641.6</ele>
        <time>2026-05-09T14:12:06Z</time>
      </trkpt>
      <trkpt lat="46.04555" lon="5.48093">
        <ele>641.6</ele>
        <time>2026-05-09T14:12:07Z</time>
      </trkpt>
      <trkpt lat="46.04554" lon="5.48093">
        <ele>641.8</ele>
        <time>2026-05-09T14:12:08Z</time>
      </trkpt>
      <trkpt lat="46.04552" lon="5.48093">
        <ele>641.8</ele>
        <time>2026-05-09T14:12:09Z</time>
      </trkpt>
      <trkpt lat="46.04551" lon="5.48093">
        <ele>641.8</ele>
        <time>2026-05-09T14:12:10Z</time>
      </trkpt>
      <trkpt lat="46.04549" lon="5.48092">
        <ele>642</ele>
        <time>2026-05-09T14:12:11Z</time>
      </trkpt>
      <trkpt lat="46.04547" lon="5.48092">
        <ele>642</ele>
        <time>2026-05-09T14:12:12Z</time>
      </trkpt>
      <trkpt lat="46.04545" lon="5.48092">
        <ele>642.4</ele>
        <time>2026-05-09T14:12:13Z</time>
      </trkpt>
      <trkpt lat="46.04544" lon="5.48092">
        <ele>642.4</ele>
        <time>2026-05-09T14:12:14Z</time>
      </trkpt>
      <trkpt lat="46.04542" lon="5.48091">
        <ele>642.4</ele>
        <time>2026-05-09T14:12:15Z</time>
      </trkpt>
      <trkpt lat="46.04541" lon="5.48091">
        <ele>642.4</ele>
        <time>2026-05-09T14:12:16Z</time>
      </trkpt>
      <trkpt lat="46.04539" lon="5.48091">
        <ele>642.6</ele>
        <time>2026-05-09T14:12:17Z</time>
      </trkpt>
      <trkpt lat="46.04538" lon="5.48091">
        <ele>642.6</ele>
        <time>2026-05-09T14:12:18Z</time>
      </trkpt>
      <trkpt lat="46.04536" lon="5.48091">
        <ele>642.8</ele>
        <time>2026-05-09T14:12:19Z</time>
      </trkpt>
      <trkpt lat="46.04535" lon="5.4809">
        <ele>642.8</ele>
        <time>2026-05-09T14:12:20Z</time>
      </trkpt>
      <trkpt lat="46.04533" lon="5.4809">
        <ele>642.8</ele>
        <time>2026-05-09T14:12:21Z</time>
      </trkpt>
      <trkpt lat="46.04531" lon="5.4809">
        <ele>642.8</ele>
        <time>2026-05-09T14:12:22Z</time>
      </trkpt>
      <trkpt lat="46.0453" lon="5.4809">
        <ele>643.2</ele>
        <time>2026-05-09T14:12:23Z</time>
      </trkpt>
      <trkpt lat="46.04528" lon="5.4809">
        <ele>643.2</ele>
        <time>2026-05-09T14:12:24Z</time>
      </trkpt>
      <trkpt lat="46.04527" lon="5.4809">
        <ele>643.4</ele>
        <time>2026-05-09T14:12:25Z</time>
      </trkpt>
      <trkpt lat="46.04525" lon="5.4809">
        <ele>643.4</ele>
        <time>2026-05-09T14:12:26Z</time>
      </trkpt>
      <trkpt lat="46.04523" lon="5.4809">
        <ele>643.4</ele>
        <time>2026-05-09T14:12:27Z</time>
      </trkpt>
      <trkpt lat="46.04522" lon="5.4809">
        <ele>643.4</ele>
        <time>2026-05-09T14:12:28Z</time>
      </trkpt>
      <trkpt lat="46.0452" lon="5.48091">
        <ele>643.8</ele>
        <time>2026-05-09T14:12:29Z</time>
      </trkpt>
      <trkpt lat="46.04518" lon="5.4809">
        <ele>643.8</ele>
        <time>2026-05-09T14:12:30Z</time>
      </trkpt>
      <trkpt lat="46.04516" lon="5.4809">
        <ele>643.8</ele>
        <time>2026-05-09T14:12:31Z</time>
      </trkpt>
      <trkpt lat="46.04515" lon="5.4809">
        <ele>643.8</ele>
        <time>2026-05-09T14:12:32Z</time>
      </trkpt>
      <trkpt lat="46.04513" lon="5.48089">
        <ele>644</ele>
        <time>2026-05-09T14:12:33Z</time>
      </trkpt>
      <trkpt lat="46.04512" lon="5.48089">
        <ele>644</ele>
        <time>2026-05-09T14:12:34Z</time>
      </trkpt>
      <trkpt lat="46.0451" lon="5.48089">
        <ele>644</ele>
        <time>2026-05-09T14:12:35Z</time>
      </trkpt>
      <trkpt lat="46.04508" lon="5.48088">
        <ele>644.2</ele>
        <time>2026-05-09T14:12:36Z</time>
      </trkpt>
      <trkpt lat="46.04506" lon="5.48088">
        <ele>644.2</ele>
        <time>2026-05-09T14:12:37Z</time>
      </trkpt>
      <trkpt lat="46.04505" lon="5.48087">
        <ele>644.6</ele>
        <time>2026-05-09T14:12:38Z</time>
      </trkpt>
      <trkpt lat="46.04503" lon="5.48087">
        <ele>644.6</ele>
        <time>2026-05-09T14:12:39Z</time>
      </trkpt>
      <trkpt lat="46.04502" lon="5.48086">
        <ele>644.6</ele>
        <time>2026-05-09T14:12:40Z</time>
      </trkpt>
      <trkpt lat="46.04501" lon="5.48085">
        <ele>644.6</ele>
        <time>2026-05-09T14:12:41Z</time>
      </trkpt>
      <trkpt lat="46.04499" lon="5.48085">
        <ele>645</ele>
        <time>2026-05-09T14:12:42Z</time>
      </trkpt>
      <trkpt lat="46.04498" lon="5.48084">
        <ele>645</ele>
        <time>2026-05-09T14:12:43Z</time>
      </trkpt>
      <trkpt lat="46.04496" lon="5.48084">
        <ele>645</ele>
        <time>2026-05-09T14:12:44Z</time>
      </trkpt>
      <trkpt lat="46.04496" lon="5.48084">
        <ele>645.2</ele>
        <time>2026-05-09T14:12:45Z</time>
      </trkpt>
      <trkpt lat="46.04494" lon="5.48083">
        <ele>645.2</ele>
        <time>2026-05-09T14:12:46Z</time>
      </trkpt>
      <trkpt lat="46.04493" lon="5.48082">
        <ele>645.2</ele>
        <time>2026-05-09T14:12:47Z</time>
      </trkpt>
      <trkpt lat="46.04491" lon="5.48081">
        <ele>645.2</ele>
        <time>2026-05-09T14:12:48Z</time>
      </trkpt>
      <trkpt lat="46.0449" lon="5.48081">
        <ele>645.6</ele>
        <time>2026-05-09T14:12:49Z</time>
      </trkpt>
      <trkpt lat="46.04488" lon="5.4808">
        <ele>645.6</ele>
        <time>2026-05-09T14:12:50Z</time>
      </trkpt>
      <trkpt lat="46.04486" lon="5.48079">
        <ele>645.6</ele>
        <time>2026-05-09T14:12:51Z</time>
      </trkpt>
      <trkpt lat="46.04485" lon="5.48078">
        <ele>645.8</ele>
        <time>2026-05-09T14:12:52Z</time>
      </trkpt>
      <trkpt lat="46.04482" lon="5.48077">
        <ele>645.8</ele>
        <time>2026-05-09T14:12:53Z</time>
      </trkpt>
      <trkpt lat="46.04481" lon="5.48076">
        <ele>646</ele>
        <time>2026-05-09T14:12:54Z</time>
      </trkpt>
      <trkpt lat="46.04479" lon="5.48075">
        <ele>646</ele>
        <time>2026-05-09T14:12:55Z</time>
      </trkpt>
      <trkpt lat="46.04477" lon="5.48074">
        <ele>646.2</ele>
        <time>2026-05-09T14:12:56Z</time>
      </trkpt>
      <trkpt lat="46.04476" lon="5.48073">
        <ele>646.2</ele>
        <time>2026-05-09T14:12:57Z</time>
      </trkpt>
      <trkpt lat="46.04475" lon="5.48072">
        <ele>646.8</ele>
        <time>2026-05-09T14:12:58Z</time>
      </trkpt>
      <trkpt lat="46.04473" lon="5.48071">
        <ele>646.8</ele>
        <time>2026-05-09T14:12:59Z</time>
      </trkpt>
      <trkpt lat="46.04472" lon="5.48069">
        <ele>646.8</ele>
        <time>2026-05-09T14:13:00Z</time>
      </trkpt>
      <trkpt lat="46.04471" lon="5.48068">
        <ele>647.2</ele>
        <time>2026-05-09T14:13:01Z</time>
      </trkpt>
      <trkpt lat="46.04469" lon="5.48067">
        <ele>647.2</ele>
        <time>2026-05-09T14:13:02Z</time>
      </trkpt>
      <trkpt lat="46.04468" lon="5.48066">
        <ele>647.4</ele>
        <time>2026-05-09T14:13:03Z</time>
      </trkpt>
      <trkpt lat="46.04466" lon="5.48065">
        <ele>647.4</ele>
        <time>2026-05-09T14:13:04Z</time>
      </trkpt>
      <trkpt lat="46.04465" lon="5.48064">
        <ele>647.4</ele>
        <time>2026-05-09T14:13:05Z</time>
      </trkpt>
      <trkpt lat="46.04463" lon="5.48063">
        <ele>647.6</ele>
        <time>2026-05-09T14:13:06Z</time>
      </trkpt>
      <trkpt lat="46.04461" lon="5.48062">
        <ele>647.6</ele>
        <time>2026-05-09T14:13:07Z</time>
      </trkpt>
      <trkpt lat="46.04459" lon="5.48062">
        <ele>647.6</ele>
        <time>2026-05-09T14:13:08Z</time>
      </trkpt>
      <trkpt lat="46.04457" lon="5.48062">
        <ele>647.6</ele>
        <time>2026-05-09T14:13:09Z</time>
      </trkpt>
      <trkpt lat="46.04456" lon="5.48061">
        <ele>647.6</ele>
        <time>2026-05-09T14:13:10Z</time>
      </trkpt>
      <trkpt lat="46.04454" lon="5.48061">
        <ele>648</ele>
        <time>2026-05-09T14:13:11Z</time>
      </trkpt>
      <trkpt lat="46.04452" lon="5.48061">
        <ele>648</ele>
        <time>2026-05-09T14:13:12Z</time>
      </trkpt>
      <trkpt lat="46.0445" lon="5.4806">
        <ele>648.4</ele>
        <time>2026-05-09T14:13:13Z</time>
      </trkpt>
      <trkpt lat="46.04448" lon="5.48059">
        <ele>648.4</ele>
        <time>2026-05-09T14:13:14Z</time>
      </trkpt>
      <trkpt lat="46.04447" lon="5.48058">
        <ele>648.4</ele>
        <time>2026-05-09T14:13:15Z</time>
      </trkpt>
      <trkpt lat="46.04445" lon="5.48058">
        <ele>648.4</ele>
        <time>2026-05-09T14:13:16Z</time>
      </trkpt>
      <trkpt lat="46.04443" lon="5.48057">
        <ele>648.4</ele>
        <time>2026-05-09T14:13:17Z</time>
      </trkpt>
      <trkpt lat="46.04442" lon="5.48057">
        <ele>648.6</ele>
        <time>2026-05-09T14:13:18Z</time>
      </trkpt>
      <trkpt lat="46.0444" lon="5.48057">
        <ele>648.6</ele>
        <time>2026-05-09T14:13:19Z</time>
      </trkpt>
      <trkpt lat="46.04438" lon="5.48057">
        <ele>648.6</ele>
        <time>2026-05-09T14:13:20Z</time>
      </trkpt>
      <trkpt lat="46.04437" lon="5.48056">
        <ele>648.8</ele>
        <time>2026-05-09T14:13:21Z</time>
      </trkpt>
      <trkpt lat="46.04435" lon="5.48056">
        <ele>648.8</ele>
        <time>2026-05-09T14:13:22Z</time>
      </trkpt>
      <trkpt lat="46.04433" lon="5.48056">
        <ele>648.8</ele>
        <time>2026-05-09T14:13:23Z</time>
      </trkpt>
      <trkpt lat="46.04432" lon="5.48056">
        <ele>648.8</ele>
        <time>2026-05-09T14:13:24Z</time>
      </trkpt>
      <trkpt lat="46.0443" lon="5.48056">
        <ele>648.8</ele>
        <time>2026-05-09T14:13:25Z</time>
      </trkpt>
      <trkpt lat="46.04428" lon="5.48056">
        <ele>649</ele>
        <time>2026-05-09T14:13:26Z</time>
      </trkpt>
      <trkpt lat="46.04427" lon="5.48056">
        <ele>649</ele>
        <time>2026-05-09T14:13:27Z</time>
      </trkpt>
      <trkpt lat="46.04425" lon="5.48056">
        <ele>649.2</ele>
        <time>2026-05-09T14:13:28Z</time>
      </trkpt>
      <trkpt lat="46.04423" lon="5.48056">
        <ele>649.2</ele>
        <time>2026-05-09T14:13:29Z</time>
      </trkpt>
      <trkpt lat="46.04421" lon="5.48056">
        <ele>649.2</ele>
        <time>2026-05-09T14:13:30Z</time>
      </trkpt>
      <trkpt lat="46.0442" lon="5.48056">
        <ele>649.6</ele>
        <time>2026-05-09T14:13:31Z</time>
      </trkpt>
      <trkpt lat="46.04418" lon="5.48056">
        <ele>649.6</ele>
        <time>2026-05-09T14:13:32Z</time>
      </trkpt>
      <trkpt lat="46.04417" lon="5.48056">
        <ele>649.6</ele>
        <time>2026-05-09T14:13:33Z</time>
      </trkpt>
      <trkpt lat="46.04415" lon="5.48056">
        <ele>649.8</ele>
        <time>2026-05-09T14:13:34Z</time>
      </trkpt>
      <trkpt lat="46.04414" lon="5.48057">
        <ele>649.8</ele>
        <time>2026-05-09T14:13:35Z</time>
      </trkpt>
      <trkpt lat="46.04412" lon="5.48057">
        <ele>650</ele>
        <time>2026-05-09T14:13:36Z</time>
      </trkpt>
      <trkpt lat="46.0441" lon="5.48057">
        <ele>650</ele>
        <time>2026-05-09T14:13:37Z</time>
      </trkpt>
      <trkpt lat="46.04408" lon="5.48057">
        <ele>650.2</ele>
        <time>2026-05-09T14:13:38Z</time>
      </trkpt>
      <trkpt lat="46.04407" lon="5.48057">
        <ele>650.2</ele>
        <time>2026-05-09T14:13:39Z</time>
      </trkpt>
      <trkpt lat="46.04405" lon="5.48057">
        <ele>650.2</ele>
        <time>2026-05-09T14:13:40Z</time>
      </trkpt>
      <trkpt lat="46.04403" lon="5.48057">
        <ele>650.2</ele>
        <time>2026-05-09T14:13:41Z</time>
      </trkpt>
      <trkpt lat="46.04401" lon="5.48057">
        <ele>650.6</ele>
        <time>2026-05-09T14:13:42Z</time>
      </trkpt>
      <trkpt lat="46.044" lon="5.48056">
        <ele>650.6</ele>
        <time>2026-05-09T14:13:43Z</time>
      </trkpt>
      <trkpt lat="46.04398" lon="5.48057">
        <ele>650.6</ele>
        <time>2026-05-09T14:13:44Z</time>
      </trkpt>
      <trkpt lat="46.04396" lon="5.48057">
        <ele>650.8</ele>
        <time>2026-05-09T14:13:45Z</time>
      </trkpt>
      <trkpt lat="46.04395" lon="5.48057">
        <ele>650.8</ele>
        <time>2026-05-09T14:13:46Z</time>
      </trkpt>
      <trkpt lat="46.04393" lon="5.48057">
        <ele>650.8</ele>
        <time>2026-05-09T14:13:47Z</time>
      </trkpt>
      <trkpt lat="46.04391" lon="5.48057">
        <ele>650.8</ele>
        <time>2026-05-09T14:13:48Z</time>
      </trkpt>
      <trkpt lat="46.04389" lon="5.48057">
        <ele>651</ele>
        <time>2026-05-09T14:13:49Z</time>
      </trkpt>
      <trkpt lat="46.04387" lon="5.48058">
        <ele>651</ele>
        <time>2026-05-09T14:13:50Z</time>
      </trkpt>
      <trkpt lat="46.04386" lon="5.48058">
        <ele>651</ele>
        <time>2026-05-09T14:13:51Z</time>
      </trkpt>
      <trkpt lat="46.04384" lon="5.48058">
        <ele>651.2</ele>
        <time>2026-05-09T14:13:52Z</time>
      </trkpt>
      <trkpt lat="46.04382" lon="5.48058">
        <ele>651.2</ele>
        <time>2026-05-09T14:13:53Z</time>
      </trkpt>
      <trkpt lat="46.04381" lon="5.48058">
        <ele>651.2</ele>
        <time>2026-05-09T14:13:54Z</time>
      </trkpt>
      <trkpt lat="46.04379" lon="5.48058">
        <ele>651.4</ele>
        <time>2026-05-09T14:13:55Z</time>
      </trkpt>
      <trkpt lat="46.04378" lon="5.48059">
        <ele>652.2</ele>
        <time>2026-05-09T14:13:56Z</time>
      </trkpt>
      <trkpt lat="46.04376" lon="5.48059">
        <ele>652.2</ele>
        <time>2026-05-09T14:13:57Z</time>
      </trkpt>
      <trkpt lat="46.04374" lon="5.4806">
        <ele>652.6</ele>
        <time>2026-05-09T14:13:58Z</time>
      </trkpt>
      <trkpt lat="46.04373" lon="5.4806">
        <ele>652.6</ele>
        <time>2026-05-09T14:13:59Z</time>
      </trkpt>
      <trkpt lat="46.04369" lon="5.4806">
        <ele>652.8</ele>
        <time>2026-05-09T14:14:00Z</time>
      </trkpt>
      <trkpt lat="46.04367" lon="5.4806">
        <ele>652.8</ele>
        <time>2026-05-09T14:14:01Z</time>
      </trkpt>
      <trkpt lat="46.04365" lon="5.48061">
        <ele>653</ele>
        <time>2026-05-09T14:14:02Z</time>
      </trkpt>
      <trkpt lat="46.04364" lon="5.48061">
        <ele>653</ele>
        <time>2026-05-09T14:14:03Z</time>
      </trkpt>
      <trkpt lat="46.04362" lon="5.48061">
        <ele>653.2</ele>
        <time>2026-05-09T14:14:04Z</time>
      </trkpt>
      <trkpt lat="46.0436" lon="5.48062">
        <ele>653.2</ele>
        <time>2026-05-09T14:14:05Z</time>
      </trkpt>
      <trkpt lat="46.04359" lon="5.48062">
        <ele>653.2</ele>
        <time>2026-05-09T14:14:06Z</time>
      </trkpt>
      <trkpt lat="46.04357" lon="5.48062">
        <ele>653.6</ele>
        <time>2026-05-09T14:14:07Z</time>
      </trkpt>
      <trkpt lat="46.04356" lon="5.48062">
        <ele>653.6</ele>
        <time>2026-05-09T14:14:08Z</time>
      </trkpt>
      <trkpt lat="46.04355" lon="5.48062">
        <ele>653.8</ele>
        <time>2026-05-09T14:14:09Z</time>
      </trkpt>
      <trkpt lat="46.04353" lon="5.48063">
        <ele>653.8</ele>
        <time>2026-05-09T14:14:10Z</time>
      </trkpt>
      <trkpt lat="46.04351" lon="5.48063">
        <ele>654</ele>
        <time>2026-05-09T14:14:11Z</time>
      </trkpt>
      <trkpt lat="46.04349" lon="5.48063">
        <ele>654</ele>
        <time>2026-05-09T14:14:12Z</time>
      </trkpt>
      <trkpt lat="46.04348" lon="5.48063">
        <ele>654.4</ele>
        <time>2026-05-09T14:14:13Z</time>
      </trkpt>
      <trkpt lat="46.04346" lon="5.48063">
        <ele>654.4</ele>
        <time>2026-05-09T14:14:14Z</time>
      </trkpt>
      <trkpt lat="46.04344" lon="5.48064">
        <ele>654.4</ele>
        <time>2026-05-09T14:14:15Z</time>
      </trkpt>
      <trkpt lat="46.04343" lon="5.48064">
        <ele>654.6</ele>
        <time>2026-05-09T14:14:16Z</time>
      </trkpt>
      <trkpt lat="46.04341" lon="5.48064">
        <ele>654.6</ele>
        <time>2026-05-09T14:14:17Z</time>
      </trkpt>
      <trkpt lat="46.04339" lon="5.48065">
        <ele>654.6</ele>
        <time>2026-05-09T14:14:18Z</time>
      </trkpt>
      <trkpt lat="46.04337" lon="5.48065">
        <ele>654.6</ele>
        <time>2026-05-09T14:14:19Z</time>
      </trkpt>
      <trkpt lat="46.04336" lon="5.48066">
        <ele>655</ele>
        <time>2026-05-09T14:14:20Z</time>
      </trkpt>
      <trkpt lat="46.04334" lon="5.48067">
        <ele>655</ele>
        <time>2026-05-09T14:14:21Z</time>
      </trkpt>
      <trkpt lat="46.04333" lon="5.48066">
        <ele>655.2</ele>
        <time>2026-05-09T14:14:22Z</time>
      </trkpt>
      <trkpt lat="46.04331" lon="5.48066">
        <ele>655.2</ele>
        <time>2026-05-09T14:14:23Z</time>
      </trkpt>
      <trkpt lat="46.04329" lon="5.48064">
        <ele>655.2</ele>
        <time>2026-05-09T14:14:24Z</time>
      </trkpt>
      <trkpt lat="46.04328" lon="5.48064">
        <ele>655.2</ele>
        <time>2026-05-09T14:14:25Z</time>
      </trkpt>
      <trkpt lat="46.04326" lon="5.48064">
        <ele>655.2</ele>
        <time>2026-05-09T14:14:26Z</time>
      </trkpt>
      <trkpt lat="46.04324" lon="5.48064">
        <ele>655.2</ele>
        <time>2026-05-09T14:14:27Z</time>
      </trkpt>
      <trkpt lat="46.04323" lon="5.48064">
        <ele>655.2</ele>
        <time>2026-05-09T14:14:28Z</time>
      </trkpt>
      <trkpt lat="46.04321" lon="5.48064">
        <ele>655.6</ele>
        <time>2026-05-09T14:14:29Z</time>
      </trkpt>
      <trkpt lat="46.04319" lon="5.48065">
        <ele>655.6</ele>
        <time>2026-05-09T14:14:30Z</time>
      </trkpt>
      <trkpt lat="46.04317" lon="5.48065">
        <ele>655.8</ele>
        <time>2026-05-09T14:14:31Z</time>
      </trkpt>
      <trkpt lat="46.04316" lon="5.48065">
        <ele>655.8</ele>
        <time>2026-05-09T14:14:32Z</time>
      </trkpt>
      <trkpt lat="46.04315" lon="5.48064">
        <ele>655.8</ele>
        <time>2026-05-09T14:14:33Z</time>
      </trkpt>
      <trkpt lat="46.04313" lon="5.48064">
        <ele>655.8</ele>
        <time>2026-05-09T14:14:34Z</time>
      </trkpt>
      <trkpt lat="46.04311" lon="5.48064">
        <ele>655.8</ele>
        <time>2026-05-09T14:14:35Z</time>
      </trkpt>
      <trkpt lat="46.04309" lon="5.48064">
        <ele>655.8</ele>
        <time>2026-05-09T14:14:36Z</time>
      </trkpt>
      <trkpt lat="46.04307" lon="5.48064">
        <ele>655.8</ele>
        <time>2026-05-09T14:14:37Z</time>
      </trkpt>
      <trkpt lat="46.04305" lon="5.48065">
        <ele>656</ele>
        <time>2026-05-09T14:14:38Z</time>
      </trkpt>
      <trkpt lat="46.04303" lon="5.48065">
        <ele>656</ele>
        <time>2026-05-09T14:14:39Z</time>
      </trkpt>
      <trkpt lat="46.04302" lon="5.48064">
        <ele>656</ele>
        <time>2026-05-09T14:14:40Z</time>
      </trkpt>
      <trkpt lat="46.043" lon="5.48064">
        <ele>656.2</ele>
        <time>2026-05-09T14:14:41Z</time>
      </trkpt>
      <trkpt lat="46.04298" lon="5.48063">
        <ele>656.2</ele>
        <time>2026-05-09T14:14:42Z</time>
      </trkpt>
      <trkpt lat="46.04297" lon="5.48063">
        <ele>656.4</ele>
        <time>2026-05-09T14:14:43Z</time>
      </trkpt>
      <trkpt lat="46.04296" lon="5.48062">
        <ele>656.4</ele>
        <time>2026-05-09T14:14:44Z</time>
      </trkpt>
      <trkpt lat="46.04294" lon="5.48062">
        <ele>656.8</ele>
        <time>2026-05-09T14:14:45Z</time>
      </trkpt>
      <trkpt lat="46.04294" lon="5.48062">
        <ele>656.8</ele>
        <time>2026-05-09T14:14:46Z</time>
      </trkpt>
      <trkpt lat="46.04294" lon="5.48062">
        <ele>656.8</ele>
        <time>2026-05-09T14:14:47Z</time>
      </trkpt>
      <trkpt lat="46.04294" lon="5.48062">
        <ele>656.8</ele>
        <time>2026-05-09T14:14:48Z</time>
      </trkpt>
      <trkpt lat="46.04288" lon="5.48059">
        <ele>656.8</ele>
        <time>2026-05-09T14:14:49Z</time>
      </trkpt>
      <trkpt lat="46.04287" lon="5.48059">
        <ele>656.8</ele>
        <time>2026-05-09T14:14:50Z</time>
      </trkpt>
      <trkpt lat="46.04286" lon="5.48059">
        <ele>656.8</ele>
        <time>2026-05-09T14:14:51Z</time>
      </trkpt>
      <trkpt lat="46.04284" lon="5.48058">
        <ele>656.8</ele>
        <time>2026-05-09T14:14:52Z</time>
      </trkpt>
      <trkpt lat="46.04283" lon="5.48058">
        <ele>656.8</ele>
        <time>2026-05-09T14:14:53Z</time>
      </trkpt>
      <trkpt lat="46.04281" lon="5.48057">
        <ele>657</ele>
        <time>2026-05-09T14:14:54Z</time>
      </trkpt>
      <trkpt lat="46.04279" lon="5.48056">
        <ele>657</ele>
        <time>2026-05-09T14:14:55Z</time>
      </trkpt>
      <trkpt lat="46.04278" lon="5.48056">
        <ele>657.4</ele>
        <time>2026-05-09T14:14:56Z</time>
      </trkpt>
      <trkpt lat="46.04276" lon="5.48055">
        <ele>657.6</ele>
        <time>2026-05-09T14:14:57Z</time>
      </trkpt>
      <trkpt lat="46.04274" lon="5.48055">
        <ele>657.6</ele>
        <time>2026-05-09T14:14:58Z</time>
      </trkpt>
      <trkpt lat="46.04272" lon="5.48055">
        <ele>658</ele>
        <time>2026-05-09T14:14:59Z</time>
      </trkpt>
      <trkpt lat="46.0427" lon="5.48055">
        <ele>658</ele>
        <time>2026-05-09T14:15:00Z</time>
      </trkpt>
      <trkpt lat="46.04268" lon="5.48054">
        <ele>658</ele>
        <time>2026-05-09T14:15:01Z</time>
      </trkpt>
      <trkpt lat="46.04266" lon="5.48054">
        <ele>658.2</ele>
        <time>2026-05-09T14:15:02Z</time>
      </trkpt>
      <trkpt lat="46.04264" lon="5.48053">
        <ele>658.2</ele>
        <time>2026-05-09T14:15:03Z</time>
      </trkpt>
      <trkpt lat="46.04263" lon="5.48053">
        <ele>658.4</ele>
        <time>2026-05-09T14:15:04Z</time>
      </trkpt>
      <trkpt lat="46.04261" lon="5.48052">
        <ele>658.4</ele>
        <time>2026-05-09T14:15:05Z</time>
      </trkpt>
      <trkpt lat="46.04259" lon="5.48052">
        <ele>658.6</ele>
        <time>2026-05-09T14:15:06Z</time>
      </trkpt>
      <trkpt lat="46.04257" lon="5.48052">
        <ele>658.6</ele>
        <time>2026-05-09T14:15:07Z</time>
      </trkpt>
      <trkpt lat="46.04257" lon="5.48052">
        <ele>658.8</ele>
        <time>2026-05-09T14:15:08Z</time>
      </trkpt>
      <trkpt lat="46.04256" lon="5.48051">
        <ele>658.8</ele>
        <time>2026-05-09T14:15:09Z</time>
      </trkpt>
      <trkpt lat="46.04255" lon="5.48051">
        <ele>659.2</ele>
        <time>2026-05-09T14:15:10Z</time>
      </trkpt>
      <trkpt lat="46.04253" lon="5.4805">
        <ele>659.2</ele>
        <time>2026-05-09T14:15:11Z</time>
      </trkpt>
      <trkpt lat="46.04251" lon="5.48049">
        <ele>659.2</ele>
        <time>2026-05-09T14:15:12Z</time>
      </trkpt>
      <trkpt lat="46.0425" lon="5.48049">
        <ele>659.2</ele>
        <time>2026-05-09T14:15:13Z</time>
      </trkpt>
      <trkpt lat="46.04248" lon="5.48048">
        <ele>659.4</ele>
        <time>2026-05-09T14:15:14Z</time>
      </trkpt>
      <trkpt lat="46.04247" lon="5.48046">
        <ele>659.4</ele>
        <time>2026-05-09T14:15:15Z</time>
      </trkpt>
      <trkpt lat="46.04245" lon="5.48045">
        <ele>659.4</ele>
        <time>2026-05-09T14:15:16Z</time>
      </trkpt>
      <trkpt lat="46.04241" lon="5.48044">
        <ele>659.6</ele>
        <time>2026-05-09T14:15:17Z</time>
      </trkpt>
      <trkpt lat="46.04241" lon="5.48044">
        <ele>659.6</ele>
        <time>2026-05-09T14:15:18Z</time>
      </trkpt>
      <trkpt lat="46.04239" lon="5.48044">
        <ele>660</ele>
        <time>2026-05-09T14:15:19Z</time>
      </trkpt>
      <trkpt lat="46.04237" lon="5.48044">
        <ele>660</ele>
        <time>2026-05-09T14:15:20Z</time>
      </trkpt>
      <trkpt lat="46.04236" lon="5.48044">
        <ele>660.2</ele>
        <time>2026-05-09T14:15:21Z</time>
      </trkpt>
      <trkpt lat="46.04235" lon="5.48044">
        <ele>660.2</ele>
        <time>2026-05-09T14:15:22Z</time>
      </trkpt>
      <trkpt lat="46.04234" lon="5.48044">
        <ele>660.4</ele>
        <time>2026-05-09T14:15:23Z</time>
      </trkpt>
      <trkpt lat="46.04232" lon="5.48045">
        <ele>660.4</ele>
        <time>2026-05-09T14:15:24Z</time>
      </trkpt>
      <trkpt lat="46.04231" lon="5.48045">
        <ele>660.6</ele>
        <time>2026-05-09T14:15:25Z</time>
      </trkpt>
      <trkpt lat="46.04229" lon="5.48044">
        <ele>660.6</ele>
        <time>2026-05-09T14:15:26Z</time>
      </trkpt>
      <trkpt lat="46.04226" lon="5.48044">
        <ele>660.6</ele>
        <time>2026-05-09T14:15:27Z</time>
      </trkpt>
      <trkpt lat="46.04224" lon="5.48043">
        <ele>660.6</ele>
        <time>2026-05-09T14:15:28Z</time>
      </trkpt>
      <trkpt lat="46.04223" lon="5.48042">
        <ele>660.8</ele>
        <time>2026-05-09T14:15:29Z</time>
      </trkpt>
      <trkpt lat="46.04222" lon="5.48041">
        <ele>660.8</ele>
        <time>2026-05-09T14:15:30Z</time>
      </trkpt>
      <trkpt lat="46.0422" lon="5.4804">
        <ele>661.2</ele>
        <time>2026-05-09T14:15:31Z</time>
      </trkpt>
      <trkpt lat="46.04218" lon="5.48039">
        <ele>661.2</ele>
        <time>2026-05-09T14:15:32Z</time>
      </trkpt>
      <trkpt lat="46.04217" lon="5.48038">
        <ele>661.6</ele>
        <time>2026-05-09T14:15:33Z</time>
      </trkpt>
      <trkpt lat="46.04215" lon="5.48037">
        <ele>661.6</ele>
        <time>2026-05-09T14:15:34Z</time>
      </trkpt>
      <trkpt lat="46.04213" lon="5.48036">
        <ele>661.8</ele>
        <time>2026-05-09T14:15:35Z</time>
      </trkpt>
      <trkpt lat="46.04211" lon="5.48035">
        <ele>661.8</ele>
        <time>2026-05-09T14:15:36Z</time>
      </trkpt>
      <trkpt lat="46.04209" lon="5.48035">
        <ele>662.2</ele>
        <time>2026-05-09T14:15:37Z</time>
      </trkpt>
      <trkpt lat="46.04206" lon="5.48033">
        <ele>662.2</ele>
        <time>2026-05-09T14:15:38Z</time>
      </trkpt>
      <trkpt lat="46.04203" lon="5.48031">
        <ele>662.4</ele>
        <time>2026-05-09T14:15:39Z</time>
      </trkpt>
      <trkpt lat="46.04202" lon="5.4803">
        <ele>662.4</ele>
        <time>2026-05-09T14:15:40Z</time>
      </trkpt>
      <trkpt lat="46.04201" lon="5.48029">
        <ele>662.4</ele>
        <time>2026-05-09T14:15:41Z</time>
      </trkpt>
      <trkpt lat="46.042" lon="5.48029">
        <ele>662.8</ele>
        <time>2026-05-09T14:15:42Z</time>
      </trkpt>
      <trkpt lat="46.04198" lon="5.48028">
        <ele>662.8</ele>
        <time>2026-05-09T14:15:43Z</time>
      </trkpt>
      <trkpt lat="46.04194" lon="5.48027">
        <ele>662.8</ele>
        <time>2026-05-09T14:15:44Z</time>
      </trkpt>
      <trkpt lat="46.04192" lon="5.48027">
        <ele>662.8</ele>
        <time>2026-05-09T14:15:45Z</time>
      </trkpt>
      <trkpt lat="46.0419" lon="5.48026">
        <ele>663</ele>
        <time>2026-05-09T14:15:46Z</time>
      </trkpt>
      <trkpt lat="46.04188" lon="5.48026">
        <ele>663</ele>
        <time>2026-05-09T14:15:47Z</time>
      </trkpt>
      <trkpt lat="46.04187" lon="5.48025">
        <ele>663</ele>
        <time>2026-05-09T14:15:48Z</time>
      </trkpt>
      <trkpt lat="46.04185" lon="5.48025">
        <ele>663.4</ele>
        <time>2026-05-09T14:15:49Z</time>
      </trkpt>
      <trkpt lat="46.04183" lon="5.48024">
        <ele>663.4</ele>
        <time>2026-05-09T14:15:50Z</time>
      </trkpt>
      <trkpt lat="46.04181" lon="5.48024">
        <ele>663.6</ele>
        <time>2026-05-09T14:15:51Z</time>
      </trkpt>
      <trkpt lat="46.04179" lon="5.48024">
        <ele>663.6</ele>
        <time>2026-05-09T14:15:52Z</time>
      </trkpt>
      <trkpt lat="46.04177" lon="5.48024">
        <ele>663.8</ele>
        <time>2026-05-09T14:15:53Z</time>
      </trkpt>
      <trkpt lat="46.04176" lon="5.48025">
        <ele>663.8</ele>
        <time>2026-05-09T14:15:54Z</time>
      </trkpt>
      <trkpt lat="46.04174" lon="5.48025">
        <ele>663.8</ele>
        <time>2026-05-09T14:15:55Z</time>
      </trkpt>
      <trkpt lat="46.04172" lon="5.48025">
        <ele>664.4</ele>
        <time>2026-05-09T14:15:56Z</time>
      </trkpt>
      <trkpt lat="46.04171" lon="5.48024">
        <ele>664.4</ele>
        <time>2026-05-09T14:15:57Z</time>
      </trkpt>
      <trkpt lat="46.04169" lon="5.48025">
        <ele>664.4</ele>
        <time>2026-05-09T14:15:58Z</time>
      </trkpt>
      <trkpt lat="46.04167" lon="5.48024">
        <ele>664.4</ele>
        <time>2026-05-09T14:15:59Z</time>
      </trkpt>
      <trkpt lat="46.04165" lon="5.48024">
        <ele>664.4</ele>
        <time>2026-05-09T14:16:00Z</time>
      </trkpt>
      <trkpt lat="46.04164" lon="5.48024">
        <ele>664.6</ele>
        <time>2026-05-09T14:16:01Z</time>
      </trkpt>
      <trkpt lat="46.04162" lon="5.48023">
        <ele>664.6</ele>
        <time>2026-05-09T14:16:02Z</time>
      </trkpt>
      <trkpt lat="46.04161" lon="5.48023">
        <ele>664.8</ele>
        <time>2026-05-09T14:16:03Z</time>
      </trkpt>
      <trkpt lat="46.04159" lon="5.48022">
        <ele>664.8</ele>
        <time>2026-05-09T14:16:04Z</time>
      </trkpt>
      <trkpt lat="46.04158" lon="5.48022">
        <ele>664.8</ele>
        <time>2026-05-09T14:16:05Z</time>
      </trkpt>
      <trkpt lat="46.04156" lon="5.48021">
        <ele>664.8</ele>
        <time>2026-05-09T14:16:06Z</time>
      </trkpt>
      <trkpt lat="46.04156" lon="5.48021">
        <ele>664.8</ele>
        <time>2026-05-09T14:16:07Z</time>
      </trkpt>
      <trkpt lat="46.04155" lon="5.48022">
        <ele>665</ele>
        <time>2026-05-09T14:16:08Z</time>
      </trkpt>
      <trkpt lat="46.04153" lon="5.48023">
        <ele>665.2</ele>
        <time>2026-05-09T14:16:09Z</time>
      </trkpt>
      <trkpt lat="46.04151" lon="5.48023">
        <ele>665.2</ele>
        <time>2026-05-09T14:16:10Z</time>
      </trkpt>
      <trkpt lat="46.0415" lon="5.48023">
        <ele>665.6</ele>
        <time>2026-05-09T14:16:11Z</time>
      </trkpt>
      <trkpt lat="46.04149" lon="5.48023">
        <ele>665.6</ele>
        <time>2026-05-09T14:16:12Z</time>
      </trkpt>
      <trkpt lat="46.04148" lon="5.48022">
        <ele>665.6</ele>
        <time>2026-05-09T14:16:13Z</time>
      </trkpt>
      <trkpt lat="46.04146" lon="5.48022">
        <ele>665.6</ele>
        <time>2026-05-09T14:16:14Z</time>
      </trkpt>
      <trkpt lat="46.04145" lon="5.48021">
        <ele>665.6</ele>
        <time>2026-05-09T14:16:15Z</time>
      </trkpt>
      <trkpt lat="46.04144" lon="5.48021">
        <ele>665.6</ele>
        <time>2026-05-09T14:16:16Z</time>
      </trkpt>
      <trkpt lat="46.04142" lon="5.48022">
        <ele>665.8</ele>
        <time>2026-05-09T14:16:17Z</time>
      </trkpt>
      <trkpt lat="46.0414" lon="5.48022">
        <ele>665.8</ele>
        <time>2026-05-09T14:16:18Z</time>
      </trkpt>
      <trkpt lat="46.04138" lon="5.48022">
        <ele>665.8</ele>
        <time>2026-05-09T14:16:19Z</time>
      </trkpt>
      <trkpt lat="46.04137" lon="5.48022">
        <ele>665.8</ele>
        <time>2026-05-09T14:16:20Z</time>
      </trkpt>
      <trkpt lat="46.04135" lon="5.48022">
        <ele>666</ele>
        <time>2026-05-09T14:16:21Z</time>
      </trkpt>
      <trkpt lat="46.04134" lon="5.48021">
        <ele>666</ele>
        <time>2026-05-09T14:16:22Z</time>
      </trkpt>
      <trkpt lat="46.04132" lon="5.48021">
        <ele>666.2</ele>
        <time>2026-05-09T14:16:23Z</time>
      </trkpt>
      <trkpt lat="46.0413" lon="5.4802">
        <ele>666.2</ele>
        <time>2026-05-09T14:16:24Z</time>
      </trkpt>
      <trkpt lat="46.04128" lon="5.4802">
        <ele>666.4</ele>
        <time>2026-05-09T14:16:25Z</time>
      </trkpt>
      <trkpt lat="46.04126" lon="5.4802">
        <ele>666.4</ele>
        <time>2026-05-09T14:16:26Z</time>
      </trkpt>
      <trkpt lat="46.04125" lon="5.4802">
        <ele>666.4</ele>
        <time>2026-05-09T14:16:27Z</time>
      </trkpt>
      <trkpt lat="46.04123" lon="5.4802">
        <ele>666.4</ele>
        <time>2026-05-09T14:16:28Z</time>
      </trkpt>
      <trkpt lat="46.04122" lon="5.4802">
        <ele>666.8</ele>
        <time>2026-05-09T14:16:29Z</time>
      </trkpt>
      <trkpt lat="46.0412" lon="5.4802">
        <ele>666.8</ele>
        <time>2026-05-09T14:16:30Z</time>
      </trkpt>
      <trkpt lat="46.04119" lon="5.4802">
        <ele>666.8</ele>
        <time>2026-05-09T14:16:31Z</time>
      </trkpt>
      <trkpt lat="46.04117" lon="5.48019">
        <ele>666.8</ele>
        <time>2026-05-09T14:16:32Z</time>
      </trkpt>
      <trkpt lat="46.04116" lon="5.48019">
        <ele>667</ele>
        <time>2026-05-09T14:16:33Z</time>
      </trkpt>
      <trkpt lat="46.04114" lon="5.48018">
        <ele>667</ele>
        <time>2026-05-09T14:16:34Z</time>
      </trkpt>
      <trkpt lat="46.04113" lon="5.48017">
        <ele>667.2</ele>
        <time>2026-05-09T14:16:35Z</time>
      </trkpt>
      <trkpt lat="46.04111" lon="5.48016">
        <ele>667.2</ele>
        <time>2026-05-09T14:16:36Z</time>
      </trkpt>
      <trkpt lat="46.04109" lon="5.48016">
        <ele>667.4</ele>
        <time>2026-05-09T14:16:37Z</time>
      </trkpt>
      <trkpt lat="46.04107" lon="5.48015">
        <ele>667.6</ele>
        <time>2026-05-09T14:16:38Z</time>
      </trkpt>
      <trkpt lat="46.04106" lon="5.48015">
        <ele>667.6</ele>
        <time>2026-05-09T14:16:39Z</time>
      </trkpt>
      <trkpt lat="46.04105" lon="5.48015">
        <ele>668</ele>
        <time>2026-05-09T14:16:40Z</time>
      </trkpt>
      <trkpt lat="46.04104" lon="5.48015">
        <ele>668</ele>
        <time>2026-05-09T14:16:41Z</time>
      </trkpt>
      <trkpt lat="46.04103" lon="5.48014">
        <ele>668</ele>
        <time>2026-05-09T14:16:42Z</time>
      </trkpt>
      <trkpt lat="46.04101" lon="5.48013">
        <ele>668.2</ele>
        <time>2026-05-09T14:16:43Z</time>
      </trkpt>
      <trkpt lat="46.04099" lon="5.48013">
        <ele>668.2</ele>
        <time>2026-05-09T14:16:44Z</time>
      </trkpt>
      <trkpt lat="46.04097" lon="5.48012">
        <ele>668.2</ele>
        <time>2026-05-09T14:16:45Z</time>
      </trkpt>
      <trkpt lat="46.04095" lon="5.48011">
        <ele>668.4</ele>
        <time>2026-05-09T14:16:46Z</time>
      </trkpt>
      <trkpt lat="46.04093" lon="5.48011">
        <ele>668.4</ele>
        <time>2026-05-09T14:16:47Z</time>
      </trkpt>
      <trkpt lat="46.04091" lon="5.4801">
        <ele>668.4</ele>
        <time>2026-05-09T14:16:48Z</time>
      </trkpt>
      <trkpt lat="46.0409" lon="5.4801">
        <ele>668.4</ele>
        <time>2026-05-09T14:16:49Z</time>
      </trkpt>
      <trkpt lat="46.04088" lon="5.4801">
        <ele>668.6</ele>
        <time>2026-05-09T14:16:50Z</time>
      </trkpt>
      <trkpt lat="46.04086" lon="5.48009">
        <ele>668.6</ele>
        <time>2026-05-09T14:16:51Z</time>
      </trkpt>
      <trkpt lat="46.04084" lon="5.48008">
        <ele>669</ele>
        <time>2026-05-09T14:16:52Z</time>
      </trkpt>
      <trkpt lat="46.04083" lon="5.48006">
        <ele>669</ele>
        <time>2026-05-09T14:16:53Z</time>
      </trkpt>
      <trkpt lat="46.04081" lon="5.48005">
        <ele>669.4</ele>
        <time>2026-05-09T14:16:54Z</time>
      </trkpt>
      <trkpt lat="46.04079" lon="5.48004">
        <ele>669.4</ele>
        <time>2026-05-09T14:16:55Z</time>
      </trkpt>
      <trkpt lat="46.04078" lon="5.48004">
        <ele>669.6</ele>
        <time>2026-05-09T14:16:56Z</time>
      </trkpt>
      <trkpt lat="46.04076" lon="5.48003">
        <ele>669.6</ele>
        <time>2026-05-09T14:16:57Z</time>
      </trkpt>
      <trkpt lat="46.04075" lon="5.48003">
        <ele>669.8</ele>
        <time>2026-05-09T14:16:58Z</time>
      </trkpt>
      <trkpt lat="46.04074" lon="5.48002">
        <ele>669.8</ele>
        <time>2026-05-09T14:16:59Z</time>
      </trkpt>
      <trkpt lat="46.04072" lon="5.48002">
        <ele>670.2</ele>
        <time>2026-05-09T14:17:00Z</time>
      </trkpt>
      <trkpt lat="46.0407" lon="5.48002">
        <ele>670.4</ele>
        <time>2026-05-09T14:17:01Z</time>
      </trkpt>
      <trkpt lat="46.04069" lon="5.48002">
        <ele>670.4</ele>
        <time>2026-05-09T14:17:02Z</time>
      </trkpt>
      <trkpt lat="46.04068" lon="5.48">
        <ele>670.6</ele>
        <time>2026-05-09T14:17:03Z</time>
      </trkpt>
      <trkpt lat="46.04066" lon="5.47998">
        <ele>670.6</ele>
        <time>2026-05-09T14:17:04Z</time>
      </trkpt>
      <trkpt lat="46.04065" lon="5.47997">
        <ele>671</ele>
        <time>2026-05-09T14:17:05Z</time>
      </trkpt>
      <trkpt lat="46.04063" lon="5.47996">
        <ele>671</ele>
        <time>2026-05-09T14:17:06Z</time>
      </trkpt>
      <trkpt lat="46.04062" lon="5.47995">
        <ele>671</ele>
        <time>2026-05-09T14:17:07Z</time>
      </trkpt>
      <trkpt lat="46.04061" lon="5.47995">
        <ele>671</ele>
        <time>2026-05-09T14:17:08Z</time>
      </trkpt>
      <trkpt lat="46.04059" lon="5.47995">
        <ele>671.2</ele>
        <time>2026-05-09T14:17:09Z</time>
      </trkpt>
      <trkpt lat="46.04058" lon="5.47993">
        <ele>671.2</ele>
        <time>2026-05-09T14:17:10Z</time>
      </trkpt>
      <trkpt lat="46.04056" lon="5.47992">
        <ele>671.4</ele>
        <time>2026-05-09T14:17:11Z</time>
      </trkpt>
      <trkpt lat="46.04055" lon="5.47991">
        <ele>671.4</ele>
        <time>2026-05-09T14:17:12Z</time>
      </trkpt>
      <trkpt lat="46.04053" lon="5.4799">
        <ele>671.4</ele>
        <time>2026-05-09T14:17:13Z</time>
      </trkpt>
      <trkpt lat="46.04051" lon="5.47989">
        <ele>671.4</ele>
        <time>2026-05-09T14:17:14Z</time>
      </trkpt>
      <trkpt lat="46.0405" lon="5.47988">
        <ele>671.8</ele>
        <time>2026-05-09T14:17:15Z</time>
      </trkpt>
      <trkpt lat="46.04049" lon="5.47988">
        <ele>671.8</ele>
        <time>2026-05-09T14:17:16Z</time>
      </trkpt>
      <trkpt lat="46.04048" lon="5.47987">
        <ele>671.8</ele>
        <time>2026-05-09T14:17:17Z</time>
      </trkpt>
      <trkpt lat="46.04046" lon="5.47986">
        <ele>672</ele>
        <time>2026-05-09T14:17:18Z</time>
      </trkpt>
      <trkpt lat="46.04044" lon="5.47986">
        <ele>672</ele>
        <time>2026-05-09T14:17:19Z</time>
      </trkpt>
      <trkpt lat="46.04043" lon="5.47985">
        <ele>672.2</ele>
        <time>2026-05-09T14:17:20Z</time>
      </trkpt>
      <trkpt lat="46.04042" lon="5.47985">
        <ele>672.2</ele>
        <time>2026-05-09T14:17:21Z</time>
      </trkpt>
      <trkpt lat="46.04041" lon="5.47984">
        <ele>672.4</ele>
        <time>2026-05-09T14:17:22Z</time>
      </trkpt>
      <trkpt lat="46.0404" lon="5.47984">
        <ele>672.4</ele>
        <time>2026-05-09T14:17:23Z</time>
      </trkpt>
      <trkpt lat="46.04038" lon="5.47983">
        <ele>672.8</ele>
        <time>2026-05-09T14:17:24Z</time>
      </trkpt>
      <trkpt lat="46.04036" lon="5.47982">
        <ele>673</ele>
        <time>2026-05-09T14:17:25Z</time>
      </trkpt>
      <trkpt lat="46.04034" lon="5.47981">
        <ele>673</ele>
        <time>2026-05-09T14:17:26Z</time>
      </trkpt>
      <trkpt lat="46.04034" lon="5.4798">
        <ele>673.2</ele>
        <time>2026-05-09T14:17:27Z</time>
      </trkpt>
      <trkpt lat="46.04032" lon="5.4798">
        <ele>673.2</ele>
        <time>2026-05-09T14:17:28Z</time>
      </trkpt>
      <trkpt lat="46.0403" lon="5.47979">
        <ele>673.4</ele>
        <time>2026-05-09T14:17:29Z</time>
      </trkpt>
      <trkpt lat="46.0403" lon="5.47979">
        <ele>673.4</ele>
        <time>2026-05-09T14:17:30Z</time>
      </trkpt>
      <trkpt lat="46.04028" lon="5.47979">
        <ele>673.4</ele>
        <time>2026-05-09T14:17:31Z</time>
      </trkpt>
      <trkpt lat="46.04026" lon="5.47979">
        <ele>673.4</ele>
        <time>2026-05-09T14:17:32Z</time>
      </trkpt>
      <trkpt lat="46.04024" lon="5.47978">
        <ele>673.6</ele>
        <time>2026-05-09T14:17:33Z</time>
      </trkpt>
      <trkpt lat="46.04022" lon="5.47978">
        <ele>673.6</ele>
        <time>2026-05-09T14:17:34Z</time>
      </trkpt>
      <trkpt lat="46.04021" lon="5.47977">
        <ele>673.6</ele>
        <time>2026-05-09T14:17:35Z</time>
      </trkpt>
      <trkpt lat="46.04019" lon="5.47976">
        <ele>673.6</ele>
        <time>2026-05-09T14:17:36Z</time>
      </trkpt>
      <trkpt lat="46.04018" lon="5.47975">
        <ele>673.8</ele>
        <time>2026-05-09T14:17:37Z</time>
      </trkpt>
      <trkpt lat="46.04016" lon="5.47975">
        <ele>673.8</ele>
        <time>2026-05-09T14:17:38Z</time>
      </trkpt>
      <trkpt lat="46.04014" lon="5.47974">
        <ele>673.8</ele>
        <time>2026-05-09T14:17:39Z</time>
      </trkpt>
      <trkpt lat="46.04013" lon="5.47973">
        <ele>674.2</ele>
        <time>2026-05-09T14:17:40Z</time>
      </trkpt>
      <trkpt lat="46.04011" lon="5.47973">
        <ele>674.2</ele>
        <time>2026-05-09T14:17:41Z</time>
      </trkpt>
      <trkpt lat="46.04009" lon="5.47972">
        <ele>674.2</ele>
        <time>2026-05-09T14:17:42Z</time>
      </trkpt>
      <trkpt lat="46.04007" lon="5.47971">
        <ele>674.4</ele>
        <time>2026-05-09T14:17:43Z</time>
      </trkpt>
      <trkpt lat="46.04005" lon="5.47971">
        <ele>674.4</ele>
        <time>2026-05-09T14:17:44Z</time>
      </trkpt>
      <trkpt lat="46.04003" lon="5.4797">
        <ele>674.4</ele>
        <time>2026-05-09T14:17:45Z</time>
      </trkpt>
      <trkpt lat="46.04001" lon="5.47968">
        <ele>674.6</ele>
        <time>2026-05-09T14:17:46Z</time>
      </trkpt>
      <trkpt lat="46.03999" lon="5.47967">
        <ele>674.6</ele>
        <time>2026-05-09T14:17:47Z</time>
      </trkpt>
      <trkpt lat="46.03997" lon="5.47966">
        <ele>674.6</ele>
        <time>2026-05-09T14:17:48Z</time>
      </trkpt>
      <trkpt lat="46.03995" lon="5.47965">
        <ele>675</ele>
        <time>2026-05-09T14:17:49Z</time>
      </trkpt>
      <trkpt lat="46.03994" lon="5.47964">
        <ele>675</ele>
        <time>2026-05-09T14:17:50Z</time>
      </trkpt>
      <trkpt lat="46.03993" lon="5.47964">
        <ele>675</ele>
        <time>2026-05-09T14:17:51Z</time>
      </trkpt>
      <trkpt lat="46.03992" lon="5.47963">
        <ele>675.2</ele>
        <time>2026-05-09T14:17:52Z</time>
      </trkpt>
      <trkpt lat="46.03989" lon="5.47962">
        <ele>675.2</ele>
        <time>2026-05-09T14:17:53Z</time>
      </trkpt>
      <trkpt lat="46.03987" lon="5.47962">
        <ele>675.2</ele>
        <time>2026-05-09T14:17:54Z</time>
      </trkpt>
      <trkpt lat="46.03985" lon="5.47961">
        <ele>675.4</ele>
        <time>2026-05-09T14:17:55Z</time>
      </trkpt>
      <trkpt lat="46.03983" lon="5.4796">
        <ele>675.4</ele>
        <time>2026-05-09T14:17:56Z</time>
      </trkpt>
      <trkpt lat="46.03982" lon="5.47959">
        <ele>675.4</ele>
        <time>2026-05-09T14:17:57Z</time>
      </trkpt>
      <trkpt lat="46.0398" lon="5.47958">
        <ele>675.8</ele>
        <time>2026-05-09T14:17:58Z</time>
      </trkpt>
      <trkpt lat="46.03978" lon="5.47957">
        <ele>675.8</ele>
        <time>2026-05-09T14:17:59Z</time>
      </trkpt>
      <trkpt lat="46.03976" lon="5.47956">
        <ele>675.8</ele>
        <time>2026-05-09T14:18:00Z</time>
      </trkpt>
      <trkpt lat="46.03974" lon="5.47956">
        <ele>676.2</ele>
        <time>2026-05-09T14:18:01Z</time>
      </trkpt>
      <trkpt lat="46.03973" lon="5.47955">
        <ele>676.2</ele>
        <time>2026-05-09T14:18:02Z</time>
      </trkpt>
      <trkpt lat="46.03971" lon="5.47955">
        <ele>676.4</ele>
        <time>2026-05-09T14:18:03Z</time>
      </trkpt>
      <trkpt lat="46.0397" lon="5.47954">
        <ele>676.6</ele>
        <time>2026-05-09T14:18:04Z</time>
      </trkpt>
      <trkpt lat="46.03968" lon="5.47954">
        <ele>676.6</ele>
        <time>2026-05-09T14:18:05Z</time>
      </trkpt>
      <trkpt lat="46.03967" lon="5.47954">
        <ele>676.6</ele>
        <time>2026-05-09T14:18:06Z</time>
      </trkpt>
      <trkpt lat="46.03965" lon="5.47954">
        <ele>677</ele>
        <time>2026-05-09T14:18:07Z</time>
      </trkpt>
      <trkpt lat="46.03963" lon="5.47953">
        <ele>677</ele>
        <time>2026-05-09T14:18:08Z</time>
      </trkpt>
      <trkpt lat="46.03962" lon="5.47953">
        <ele>677.2</ele>
        <time>2026-05-09T14:18:09Z</time>
      </trkpt>
      <trkpt lat="46.03959" lon="5.47953">
        <ele>677.2</ele>
        <time>2026-05-09T14:18:10Z</time>
      </trkpt>
      <trkpt lat="46.03957" lon="5.47953">
        <ele>677.4</ele>
        <time>2026-05-09T14:18:11Z</time>
      </trkpt>
      <trkpt lat="46.03955" lon="5.47952">
        <ele>677.4</ele>
        <time>2026-05-09T14:18:12Z</time>
      </trkpt>
      <trkpt lat="46.03953" lon="5.47952">
        <ele>677.4</ele>
        <time>2026-05-09T14:18:13Z</time>
      </trkpt>
      <trkpt lat="46.03952" lon="5.47952">
        <ele>677.4</ele>
        <time>2026-05-09T14:18:14Z</time>
      </trkpt>
      <trkpt lat="46.0395" lon="5.47951">
        <ele>677.8</ele>
        <time>2026-05-09T14:18:15Z</time>
      </trkpt>
      <trkpt lat="46.03948" lon="5.47951">
        <ele>677.8</ele>
        <time>2026-05-09T14:18:16Z</time>
      </trkpt>
      <trkpt lat="46.03946" lon="5.4795">
        <ele>677.8</ele>
        <time>2026-05-09T14:18:17Z</time>
      </trkpt>
      <trkpt lat="46.03944" lon="5.47949">
        <ele>677.8</ele>
        <time>2026-05-09T14:18:18Z</time>
      </trkpt>
      <trkpt lat="46.03943" lon="5.47948">
        <ele>678.2</ele>
        <time>2026-05-09T14:18:19Z</time>
      </trkpt>
      <trkpt lat="46.03941" lon="5.47947">
        <ele>678.2</ele>
        <time>2026-05-09T14:18:20Z</time>
      </trkpt>
      <trkpt lat="46.0394" lon="5.47947">
        <ele>678.2</ele>
        <time>2026-05-09T14:18:21Z</time>
      </trkpt>
      <trkpt lat="46.03938" lon="5.47947">
        <ele>678.4</ele>
        <time>2026-05-09T14:18:22Z</time>
      </trkpt>
      <trkpt lat="46.03936" lon="5.47946">
        <ele>678.4</ele>
        <time>2026-05-09T14:18:23Z</time>
      </trkpt>
      <trkpt lat="46.03934" lon="5.47946">
        <ele>678.8</ele>
        <time>2026-05-09T14:18:24Z</time>
      </trkpt>
      <trkpt lat="46.03933" lon="5.47945">
        <ele>678.8</ele>
        <time>2026-05-09T14:18:25Z</time>
      </trkpt>
      <trkpt lat="46.03931" lon="5.47944">
        <ele>679</ele>
        <time>2026-05-09T14:18:26Z</time>
      </trkpt>
      <trkpt lat="46.03929" lon="5.47944">
        <ele>679.4</ele>
        <time>2026-05-09T14:18:27Z</time>
      </trkpt>
      <trkpt lat="46.03927" lon="5.47943">
        <ele>679.4</ele>
        <time>2026-05-09T14:18:28Z</time>
      </trkpt>
      <trkpt lat="46.03925" lon="5.47942">
        <ele>679.4</ele>
        <time>2026-05-09T14:18:29Z</time>
      </trkpt>
      <trkpt lat="46.03924" lon="5.47942">
        <ele>679.4</ele>
        <time>2026-05-09T14:18:30Z</time>
      </trkpt>
      <trkpt lat="46.03923" lon="5.47941">
        <ele>679.4</ele>
        <time>2026-05-09T14:18:31Z</time>
      </trkpt>
      <trkpt lat="46.03921" lon="5.4794">
        <ele>679.4</ele>
        <time>2026-05-09T14:18:32Z</time>
      </trkpt>
      <trkpt lat="46.03919" lon="5.47939">
        <ele>679.4</ele>
        <time>2026-05-09T14:18:33Z</time>
      </trkpt>
      <trkpt lat="46.03917" lon="5.47938">
        <ele>679.4</ele>
        <time>2026-05-09T14:18:34Z</time>
      </trkpt>
      <trkpt lat="46.03916" lon="5.47937">
        <ele>679.4</ele>
        <time>2026-05-09T14:18:35Z</time>
      </trkpt>
      <trkpt lat="46.03914" lon="5.47937">
        <ele>679.4</ele>
        <time>2026-05-09T14:18:36Z</time>
      </trkpt>
      <trkpt lat="46.03912" lon="5.47936">
        <ele>679.4</ele>
        <time>2026-05-09T14:18:37Z</time>
      </trkpt>
      <trkpt lat="46.0391" lon="5.47936">
        <ele>679.6</ele>
        <time>2026-05-09T14:18:38Z</time>
      </trkpt>
      <trkpt lat="46.03908" lon="5.47936">
        <ele>679.6</ele>
        <time>2026-05-09T14:18:39Z</time>
      </trkpt>
      <trkpt lat="46.03906" lon="5.47936">
        <ele>679.8</ele>
        <time>2026-05-09T14:18:40Z</time>
      </trkpt>
      <trkpt lat="46.03904" lon="5.47936">
        <ele>679.8</ele>
        <time>2026-05-09T14:18:41Z</time>
      </trkpt>
      <trkpt lat="46.03902" lon="5.47935">
        <ele>680</ele>
        <time>2026-05-09T14:18:42Z</time>
      </trkpt>
      <trkpt lat="46.03901" lon="5.47934">
        <ele>680</ele>
        <time>2026-05-09T14:18:43Z</time>
      </trkpt>
      <trkpt lat="46.03899" lon="5.47934">
        <ele>680.4</ele>
        <time>2026-05-09T14:18:44Z</time>
      </trkpt>
      <trkpt lat="46.03897" lon="5.47934">
        <ele>680.4</ele>
        <time>2026-05-09T14:18:45Z</time>
      </trkpt>
      <trkpt lat="46.03896" lon="5.47934">
        <ele>680.4</ele>
        <time>2026-05-09T14:18:46Z</time>
      </trkpt>
      <trkpt lat="46.03894" lon="5.47934">
        <ele>680.4</ele>
        <time>2026-05-09T14:18:47Z</time>
      </trkpt>
      <trkpt lat="46.03892" lon="5.47933">
        <ele>680.6</ele>
        <time>2026-05-09T14:18:48Z</time>
      </trkpt>
      <trkpt lat="46.03891" lon="5.47932">
        <ele>680.6</ele>
        <time>2026-05-09T14:18:49Z</time>
      </trkpt>
      <trkpt lat="46.03889" lon="5.47932">
        <ele>680.6</ele>
        <time>2026-05-09T14:18:50Z</time>
      </trkpt>
      <trkpt lat="46.03885" lon="5.47931">
        <ele>681</ele>
        <time>2026-05-09T14:18:51Z</time>
      </trkpt>
      <trkpt lat="46.03884" lon="5.47931">
        <ele>681</ele>
        <time>2026-05-09T14:18:52Z</time>
      </trkpt>
      <trkpt lat="46.03882" lon="5.47931">
        <ele>681</ele>
        <time>2026-05-09T14:18:53Z</time>
      </trkpt>
      <trkpt lat="46.0388" lon="5.4793">
        <ele>681</ele>
        <time>2026-05-09T14:18:54Z</time>
      </trkpt>
      <trkpt lat="46.03878" lon="5.4793">
        <ele>681.2</ele>
        <time>2026-05-09T14:18:55Z</time>
      </trkpt>
      <trkpt lat="46.03876" lon="5.4793">
        <ele>681.2</ele>
        <time>2026-05-09T14:18:56Z</time>
      </trkpt>
      <trkpt lat="46.03874" lon="5.4793">
        <ele>681.2</ele>
        <time>2026-05-09T14:18:57Z</time>
      </trkpt>
      <trkpt lat="46.03872" lon="5.47929">
        <ele>681.4</ele>
        <time>2026-05-09T14:18:58Z</time>
      </trkpt>
      <trkpt lat="46.03869" lon="5.47929">
        <ele>681.4</ele>
        <time>2026-05-09T14:18:59Z</time>
      </trkpt>
      <trkpt lat="46.03868" lon="5.47929">
        <ele>681.8</ele>
        <time>2026-05-09T14:19:00Z</time>
      </trkpt>
      <trkpt lat="46.03867" lon="5.47928">
        <ele>681.8</ele>
        <time>2026-05-09T14:19:01Z</time>
      </trkpt>
      <trkpt lat="46.03865" lon="5.47927">
        <ele>681.8</ele>
        <time>2026-05-09T14:19:02Z</time>
      </trkpt>
      <trkpt lat="46.03864" lon="5.47927">
        <ele>681.8</ele>
        <time>2026-05-09T14:19:03Z</time>
      </trkpt>
      <trkpt lat="46.03862" lon="5.47926">
        <ele>682.2</ele>
        <time>2026-05-09T14:19:04Z</time>
      </trkpt>
      <trkpt lat="46.03861" lon="5.47926">
        <ele>682.2</ele>
        <time>2026-05-09T14:19:05Z</time>
      </trkpt>
      <trkpt lat="46.03859" lon="5.47925">
        <ele>682.2</ele>
        <time>2026-05-09T14:19:06Z</time>
      </trkpt>
      <trkpt lat="46.03858" lon="5.47925">
        <ele>682.2</ele>
        <time>2026-05-09T14:19:07Z</time>
      </trkpt>
      <trkpt lat="46.03856" lon="5.47925">
        <ele>682.4</ele>
        <time>2026-05-09T14:19:08Z</time>
      </trkpt>
      <trkpt lat="46.03855" lon="5.47925">
        <ele>682.6</ele>
        <time>2026-05-09T14:19:09Z</time>
      </trkpt>
      <trkpt lat="46.03854" lon="5.47925">
        <ele>682.6</ele>
        <time>2026-05-09T14:19:10Z</time>
      </trkpt>
      <trkpt lat="46.03853" lon="5.47925">
        <ele>682.8</ele>
        <time>2026-05-09T14:19:11Z</time>
      </trkpt>
      <trkpt lat="46.03852" lon="5.47924">
        <ele>682.8</ele>
        <time>2026-05-09T14:19:12Z</time>
      </trkpt>
      <trkpt lat="46.03851" lon="5.47924">
        <ele>683.2</ele>
        <time>2026-05-09T14:19:13Z</time>
      </trkpt>
      <trkpt lat="46.0385" lon="5.47923">
        <ele>683.2</ele>
        <time>2026-05-09T14:19:14Z</time>
      </trkpt>
      <trkpt lat="46.03849" lon="5.47922">
        <ele>683.6</ele>
        <time>2026-05-09T14:19:15Z</time>
      </trkpt>
      <trkpt lat="46.03847" lon="5.47922">
        <ele>683.6</ele>
        <time>2026-05-09T14:19:16Z</time>
      </trkpt>
      <trkpt lat="46.03846" lon="5.47922">
        <ele>683.8</ele>
        <time>2026-05-09T14:19:17Z</time>
      </trkpt>
      <trkpt lat="46.03845" lon="5.47922">
        <ele>683.8</ele>
        <time>2026-05-09T14:19:18Z</time>
      </trkpt>
      <trkpt lat="46.03843" lon="5.47922">
        <ele>683.8</ele>
        <time>2026-05-09T14:19:19Z</time>
      </trkpt>
      <trkpt lat="46.0384" lon="5.47922">
        <ele>683.8</ele>
        <time>2026-05-09T14:19:20Z</time>
      </trkpt>
      <trkpt lat="46.03839" lon="5.47922">
        <ele>683.8</ele>
        <time>2026-05-09T14:19:21Z</time>
      </trkpt>
      <trkpt lat="46.03838" lon="5.47922">
        <ele>683.8</ele>
        <time>2026-05-09T14:19:22Z</time>
      </trkpt>
      <trkpt lat="46.03837" lon="5.47922">
        <ele>683.8</ele>
        <time>2026-05-09T14:19:23Z</time>
      </trkpt>
      <trkpt lat="46.03836" lon="5.47922">
        <ele>683.8</ele>
        <time>2026-05-09T14:19:24Z</time>
      </trkpt>
      <trkpt lat="46.03834" lon="5.47922">
        <ele>683.8</ele>
        <time>2026-05-09T14:19:25Z</time>
      </trkpt>
      <trkpt lat="46.03832" lon="5.47921">
        <ele>683.8</ele>
        <time>2026-05-09T14:19:26Z</time>
      </trkpt>
      <trkpt lat="46.0383" lon="5.4792">
        <ele>684</ele>
        <time>2026-05-09T14:19:27Z</time>
      </trkpt>
      <trkpt lat="46.03829" lon="5.47919">
        <ele>684</ele>
        <time>2026-05-09T14:19:28Z</time>
      </trkpt>
      <trkpt lat="46.03827" lon="5.47918">
        <ele>684</ele>
        <time>2026-05-09T14:19:29Z</time>
      </trkpt>
      <trkpt lat="46.03825" lon="5.47917">
        <ele>684.4</ele>
        <time>2026-05-09T14:19:30Z</time>
      </trkpt>
      <trkpt lat="46.03823" lon="5.47917">
        <ele>684.4</ele>
        <time>2026-05-09T14:19:31Z</time>
      </trkpt>
      <trkpt lat="46.03822" lon="5.47916">
        <ele>684.6</ele>
        <time>2026-05-09T14:19:32Z</time>
      </trkpt>
      <trkpt lat="46.0382" lon="5.47916">
        <ele>684.6</ele>
        <time>2026-05-09T14:19:33Z</time>
      </trkpt>
      <trkpt lat="46.03818" lon="5.47915">
        <ele>684.6</ele>
        <time>2026-05-09T14:19:34Z</time>
      </trkpt>
      <trkpt lat="46.03816" lon="5.47914">
        <ele>684.8</ele>
        <time>2026-05-09T14:19:35Z</time>
      </trkpt>
      <trkpt lat="46.03815" lon="5.47914">
        <ele>684.2</ele>
        <time>2026-05-09T14:19:36Z</time>
      </trkpt>
      <trkpt lat="46.03813" lon="5.47913">
        <ele>684.6</ele>
        <time>2026-05-09T14:19:37Z</time>
      </trkpt>
      <trkpt lat="46.0381" lon="5.47913">
        <ele>684.8</ele>
        <time>2026-05-09T14:19:38Z</time>
      </trkpt>
      <trkpt lat="46.03808" lon="5.47912">
        <ele>684.8</ele>
        <time>2026-05-09T14:19:39Z</time>
      </trkpt>
      <trkpt lat="46.03807" lon="5.47911">
        <ele>685</ele>
        <time>2026-05-09T14:19:40Z</time>
      </trkpt>
      <trkpt lat="46.03804" lon="5.4791">
        <ele>685</ele>
        <time>2026-05-09T14:19:41Z</time>
      </trkpt>
      <trkpt lat="46.03802" lon="5.4791">
        <ele>685</ele>
        <time>2026-05-09T14:19:42Z</time>
      </trkpt>
      <trkpt lat="46.03801" lon="5.4791">
        <ele>685.4</ele>
        <time>2026-05-09T14:19:43Z</time>
      </trkpt>
      <trkpt lat="46.03799" lon="5.4791">
        <ele>685.4</ele>
        <time>2026-05-09T14:19:44Z</time>
      </trkpt>
      <trkpt lat="46.03797" lon="5.4791">
        <ele>685.6</ele>
        <time>2026-05-09T14:19:45Z</time>
      </trkpt>
      <trkpt lat="46.03795" lon="5.4791">
        <ele>685.6</ele>
        <time>2026-05-09T14:19:46Z</time>
      </trkpt>
      <trkpt lat="46.03792" lon="5.47909">
        <ele>685.6</ele>
        <time>2026-05-09T14:19:47Z</time>
      </trkpt>
      <trkpt lat="46.0379" lon="5.47909">
        <ele>685.6</ele>
        <time>2026-05-09T14:19:48Z</time>
      </trkpt>
      <trkpt lat="46.03788" lon="5.47909">
        <ele>685.6</ele>
        <time>2026-05-09T14:19:49Z</time>
      </trkpt>
      <trkpt lat="46.03786" lon="5.47908">
        <ele>685.6</ele>
        <time>2026-05-09T14:19:50Z</time>
      </trkpt>
      <trkpt lat="46.03784" lon="5.47908">
        <ele>686</ele>
        <time>2026-05-09T14:19:51Z</time>
      </trkpt>
      <trkpt lat="46.03782" lon="5.47907">
        <ele>686</ele>
        <time>2026-05-09T14:19:52Z</time>
      </trkpt>
      <trkpt lat="46.0378" lon="5.47907">
        <ele>686</ele>
        <time>2026-05-09T14:19:53Z</time>
      </trkpt>
      <trkpt lat="46.03778" lon="5.47906">
        <ele>686.4</ele>
        <time>2026-05-09T14:19:54Z</time>
      </trkpt>
      <trkpt lat="46.03776" lon="5.47906">
        <ele>686.4</ele>
        <time>2026-05-09T14:19:55Z</time>
      </trkpt>
      <trkpt lat="46.03774" lon="5.47906">
        <ele>686.4</ele>
        <time>2026-05-09T14:19:56Z</time>
      </trkpt>
      <trkpt lat="46.03773" lon="5.47906">
        <ele>686.4</ele>
        <time>2026-05-09T14:19:57Z</time>
      </trkpt>
      <trkpt lat="46.03771" lon="5.47906">
        <ele>686.4</ele>
        <time>2026-05-09T14:19:58Z</time>
      </trkpt>
      <trkpt lat="46.0377" lon="5.47906">
        <ele>686.4</ele>
        <time>2026-05-09T14:19:59Z</time>
      </trkpt>
      <trkpt lat="46.03768" lon="5.47905">
        <ele>686.6</ele>
        <time>2026-05-09T14:20:00Z</time>
      </trkpt>
      <trkpt lat="46.03766" lon="5.47904">
        <ele>686.6</ele>
        <time>2026-05-09T14:20:01Z</time>
      </trkpt>
      <trkpt lat="46.03764" lon="5.47903">
        <ele>686.6</ele>
        <time>2026-05-09T14:20:02Z</time>
      </trkpt>
      <trkpt lat="46.03762" lon="5.47903">
        <ele>686.6</ele>
        <time>2026-05-09T14:20:03Z</time>
      </trkpt>
      <trkpt lat="46.0376" lon="5.47903">
        <ele>686.8</ele>
        <time>2026-05-09T14:20:04Z</time>
      </trkpt>
      <trkpt lat="46.03758" lon="5.47903">
        <ele>686.8</ele>
        <time>2026-05-09T14:20:05Z</time>
      </trkpt>
      <trkpt lat="46.03757" lon="5.47903">
        <ele>687</ele>
        <time>2026-05-09T14:20:06Z</time>
      </trkpt>
      <trkpt lat="46.03756" lon="5.47903">
        <ele>687</ele>
        <time>2026-05-09T14:20:07Z</time>
      </trkpt>
      <trkpt lat="46.03754" lon="5.47903">
        <ele>687</ele>
        <time>2026-05-09T14:20:08Z</time>
      </trkpt>
      <trkpt lat="46.03752" lon="5.47903">
        <ele>687</ele>
        <time>2026-05-09T14:20:09Z</time>
      </trkpt>
      <trkpt lat="46.03751" lon="5.47903">
        <ele>687.4</ele>
        <time>2026-05-09T14:20:10Z</time>
      </trkpt>
      <trkpt lat="46.03749" lon="5.47904">
        <ele>687.4</ele>
        <time>2026-05-09T14:20:11Z</time>
      </trkpt>
      <trkpt lat="46.03747" lon="5.47904">
        <ele>687.4</ele>
        <time>2026-05-09T14:20:12Z</time>
      </trkpt>
      <trkpt lat="46.03746" lon="5.47904">
        <ele>687.4</ele>
        <time>2026-05-09T14:20:13Z</time>
      </trkpt>
      <trkpt lat="46.03744" lon="5.47904">
        <ele>687.6</ele>
        <time>2026-05-09T14:20:14Z</time>
      </trkpt>
      <trkpt lat="46.03743" lon="5.47903">
        <ele>687.6</ele>
        <time>2026-05-09T14:20:15Z</time>
      </trkpt>
      <trkpt lat="46.03741" lon="5.47903">
        <ele>688</ele>
        <time>2026-05-09T14:20:16Z</time>
      </trkpt>
      <trkpt lat="46.0374" lon="5.47902">
        <ele>688</ele>
        <time>2026-05-09T14:20:17Z</time>
      </trkpt>
      <trkpt lat="46.03738" lon="5.47902">
        <ele>688</ele>
        <time>2026-05-09T14:20:18Z</time>
      </trkpt>
      <trkpt lat="46.03738" lon="5.47902">
        <ele>688</ele>
        <time>2026-05-09T14:20:19Z</time>
      </trkpt>
      <trkpt lat="46.03736" lon="5.47901">
        <ele>688.2</ele>
        <time>2026-05-09T14:20:20Z</time>
      </trkpt>
      <trkpt lat="46.03735" lon="5.47901">
        <ele>688.2</ele>
        <time>2026-05-09T14:20:21Z</time>
      </trkpt>
      <trkpt lat="46.03734" lon="5.47901">
        <ele>688.4</ele>
        <time>2026-05-09T14:20:22Z</time>
      </trkpt>
      <trkpt lat="46.03733" lon="5.47901">
        <ele>688.4</ele>
        <time>2026-05-09T14:20:23Z</time>
      </trkpt>
      <trkpt lat="46.03731" lon="5.47901">
        <ele>688.6</ele>
        <time>2026-05-09T14:20:24Z</time>
      </trkpt>
      <trkpt lat="46.0373" lon="5.47901">
        <ele>688.6</ele>
        <time>2026-05-09T14:20:25Z</time>
      </trkpt>
      <trkpt lat="46.03728" lon="5.47901">
        <ele>689</ele>
        <time>2026-05-09T14:20:26Z</time>
      </trkpt>
      <trkpt lat="46.03727" lon="5.479">
        <ele>689</ele>
        <time>2026-05-09T14:20:27Z</time>
      </trkpt>
      <trkpt lat="46.03726" lon="5.479">
        <ele>689</ele>
        <time>2026-05-09T14:20:28Z</time>
      </trkpt>
      <trkpt lat="46.03724" lon="5.479">
        <ele>689</ele>
        <time>2026-05-09T14:20:29Z</time>
      </trkpt>
      <trkpt lat="46.03722" lon="5.47899">
        <ele>689.2</ele>
        <time>2026-05-09T14:20:30Z</time>
      </trkpt>
      <trkpt lat="46.0372" lon="5.47898">
        <ele>689.2</ele>
        <time>2026-05-09T14:20:31Z</time>
      </trkpt>
      <trkpt lat="46.03719" lon="5.47897">
        <ele>689.4</ele>
        <time>2026-05-09T14:20:32Z</time>
      </trkpt>
      <trkpt lat="46.03717" lon="5.47897">
        <ele>689.4</ele>
        <time>2026-05-09T14:20:33Z</time>
      </trkpt>
      <trkpt lat="46.03715" lon="5.47896">
        <ele>689.4</ele>
        <time>2026-05-09T14:20:34Z</time>
      </trkpt>
      <trkpt lat="46.03713" lon="5.47896">
        <ele>689.6</ele>
        <time>2026-05-09T14:20:35Z</time>
      </trkpt>
      <trkpt lat="46.03711" lon="5.47896">
        <ele>689.6</ele>
        <time>2026-05-09T14:20:36Z</time>
      </trkpt>
      <trkpt lat="46.03709" lon="5.47895">
        <ele>689.6</ele>
        <time>2026-05-09T14:20:37Z</time>
      </trkpt>
      <trkpt lat="46.03707" lon="5.47895">
        <ele>689.6</ele>
        <time>2026-05-09T14:20:38Z</time>
      </trkpt>
      <trkpt lat="46.03705" lon="5.47894">
        <ele>690</ele>
        <time>2026-05-09T14:20:39Z</time>
      </trkpt>
      <trkpt lat="46.03703" lon="5.47894">
        <ele>690</ele>
        <time>2026-05-09T14:20:40Z</time>
      </trkpt>
      <trkpt lat="46.03701" lon="5.47893">
        <ele>690</ele>
        <time>2026-05-09T14:20:41Z</time>
      </trkpt>
      <trkpt lat="46.037" lon="5.47893">
        <ele>690</ele>
        <time>2026-05-09T14:20:42Z</time>
      </trkpt>
      <trkpt lat="46.03698" lon="5.47893">
        <ele>690.2</ele>
        <time>2026-05-09T14:20:43Z</time>
      </trkpt>
      <trkpt lat="46.03696" lon="5.47893">
        <ele>690.2</ele>
        <time>2026-05-09T14:20:44Z</time>
      </trkpt>
      <trkpt lat="46.03694" lon="5.47893">
        <ele>690.2</ele>
        <time>2026-05-09T14:20:45Z</time>
      </trkpt>
      <trkpt lat="46.03692" lon="5.47892">
        <ele>690.2</ele>
        <time>2026-05-09T14:20:46Z</time>
      </trkpt>
      <trkpt lat="46.0369" lon="5.47891">
        <ele>690.6</ele>
        <time>2026-05-09T14:20:47Z</time>
      </trkpt>
      <trkpt lat="46.03689" lon="5.47891">
        <ele>690.6</ele>
        <time>2026-05-09T14:20:48Z</time>
      </trkpt>
      <trkpt lat="46.03688" lon="5.47891">
        <ele>690.6</ele>
        <time>2026-05-09T14:20:49Z</time>
      </trkpt>
      <trkpt lat="46.03686" lon="5.4789">
        <ele>690.6</ele>
        <time>2026-05-09T14:20:50Z</time>
      </trkpt>
      <trkpt lat="46.03685" lon="5.47889">
        <ele>690.6</ele>
        <time>2026-05-09T14:20:51Z</time>
      </trkpt>
      <trkpt lat="46.03684" lon="5.47888">
        <ele>691</ele>
        <time>2026-05-09T14:20:52Z</time>
      </trkpt>
      <trkpt lat="46.03683" lon="5.47887">
        <ele>691</ele>
        <time>2026-05-09T14:20:53Z</time>
      </trkpt>
      <trkpt lat="46.03681" lon="5.47886">
        <ele>691.2</ele>
        <time>2026-05-09T14:20:54Z</time>
      </trkpt>
      <trkpt lat="46.03679" lon="5.47884">
        <ele>691.2</ele>
        <time>2026-05-09T14:20:55Z</time>
      </trkpt>
      <trkpt lat="46.03678" lon="5.47883">
        <ele>691.2</ele>
        <time>2026-05-09T14:20:56Z</time>
      </trkpt>
      <trkpt lat="46.03676" lon="5.47882">
        <ele>691.4</ele>
        <time>2026-05-09T14:20:57Z</time>
      </trkpt>
      <trkpt lat="46.03675" lon="5.47881">
        <ele>691.4</ele>
        <time>2026-05-09T14:20:58Z</time>
      </trkpt>
      <trkpt lat="46.03674" lon="5.4788">
        <ele>691.8</ele>
        <time>2026-05-09T14:20:59Z</time>
      </trkpt>
      <trkpt lat="46.03672" lon="5.47879">
        <ele>692</ele>
        <time>2026-05-09T14:21:00Z</time>
      </trkpt>
      <trkpt lat="46.0367" lon="5.47878">
        <ele>692</ele>
        <time>2026-05-09T14:21:01Z</time>
      </trkpt>
      <trkpt lat="46.03669" lon="5.47877">
        <ele>692</ele>
        <time>2026-05-09T14:21:02Z</time>
      </trkpt>
      <trkpt lat="46.03668" lon="5.47876">
        <ele>692</ele>
        <time>2026-05-09T14:21:03Z</time>
      </trkpt>
      <trkpt lat="46.03666" lon="5.47875">
        <ele>692</ele>
        <time>2026-05-09T14:21:04Z</time>
      </trkpt>
      <trkpt lat="46.03664" lon="5.47873">
        <ele>691.8</ele>
        <time>2026-05-09T14:21:05Z</time>
      </trkpt>
      <trkpt lat="46.03662" lon="5.47873">
        <ele>691.8</ele>
        <time>2026-05-09T14:21:06Z</time>
      </trkpt>
      <trkpt lat="46.03661" lon="5.47872">
        <ele>691.8</ele>
        <time>2026-05-09T14:21:07Z</time>
      </trkpt>
      <trkpt lat="46.03659" lon="5.47871">
        <ele>691.8</ele>
        <time>2026-05-09T14:21:08Z</time>
      </trkpt>
      <trkpt lat="46.03657" lon="5.47869">
        <ele>691.4</ele>
        <time>2026-05-09T14:21:09Z</time>
      </trkpt>
      <trkpt lat="46.03656" lon="5.47869">
        <ele>691.4</ele>
        <time>2026-05-09T14:21:10Z</time>
      </trkpt>
      <trkpt lat="46.03654" lon="5.47868">
        <ele>691.8</ele>
        <time>2026-05-09T14:21:11Z</time>
      </trkpt>
      <trkpt lat="46.03652" lon="5.47866">
        <ele>692</ele>
        <time>2026-05-09T14:21:12Z</time>
      </trkpt>
      <trkpt lat="46.03651" lon="5.47865">
        <ele>692</ele>
        <time>2026-05-09T14:21:13Z</time>
      </trkpt>
      <trkpt lat="46.0365" lon="5.47864">
        <ele>692.2</ele>
        <time>2026-05-09T14:21:14Z</time>
      </trkpt>
      <trkpt lat="46.03649" lon="5.47864">
        <ele>692.2</ele>
        <time>2026-05-09T14:21:15Z</time>
      </trkpt>
      <trkpt lat="46.03648" lon="5.47864">
        <ele>692.2</ele>
        <time>2026-05-09T14:21:16Z</time>
      </trkpt>
      <trkpt lat="46.03646" lon="5.47863">
        <ele>692.4</ele>
        <time>2026-05-09T14:21:17Z</time>
      </trkpt>
      <trkpt lat="46.03645" lon="5.47862">
        <ele>692.6</ele>
        <time>2026-05-09T14:21:18Z</time>
      </trkpt>
      <trkpt lat="46.03643" lon="5.47861">
        <ele>692.6</ele>
        <time>2026-05-09T14:21:19Z</time>
      </trkpt>
      <trkpt lat="46.03641" lon="5.47859">
        <ele>692.8</ele>
        <time>2026-05-09T14:21:20Z</time>
      </trkpt>
      <trkpt lat="46.0364" lon="5.47859">
        <ele>692.8</ele>
        <time>2026-05-09T14:21:21Z</time>
      </trkpt>
      <trkpt lat="46.03638" lon="5.47859">
        <ele>692.8</ele>
        <time>2026-05-09T14:21:22Z</time>
      </trkpt>
      <trkpt lat="46.03636" lon="5.47857">
        <ele>692.8</ele>
        <time>2026-05-09T14:21:23Z</time>
      </trkpt>
      <trkpt lat="46.03634" lon="5.47856">
        <ele>692.8</ele>
        <time>2026-05-09T14:21:24Z</time>
      </trkpt>
      <trkpt lat="46.03632" lon="5.47854">
        <ele>693.2</ele>
        <time>2026-05-09T14:21:25Z</time>
      </trkpt>
      <trkpt lat="46.0363" lon="5.47853">
        <ele>693.2</ele>
        <time>2026-05-09T14:21:26Z</time>
      </trkpt>
      <trkpt lat="46.03628" lon="5.47852">
        <ele>693.2</ele>
        <time>2026-05-09T14:21:27Z</time>
      </trkpt>
      <trkpt lat="46.03627" lon="5.47852">
        <ele>693.2</ele>
        <time>2026-05-09T14:21:28Z</time>
      </trkpt>
      <trkpt lat="46.03626" lon="5.47852">
        <ele>693.2</ele>
        <time>2026-05-09T14:21:29Z</time>
      </trkpt>
      <trkpt lat="46.03625" lon="5.47852">
        <ele>693.4</ele>
        <time>2026-05-09T14:21:30Z</time>
      </trkpt>
      <trkpt lat="46.03623" lon="5.47851">
        <ele>693.4</ele>
        <time>2026-05-09T14:21:31Z</time>
      </trkpt>
      <trkpt lat="46.03621" lon="5.4785">
        <ele>693.4</ele>
        <time>2026-05-09T14:21:32Z</time>
      </trkpt>
      <trkpt lat="46.03619" lon="5.47849">
        <ele>693.4</ele>
        <time>2026-05-09T14:21:33Z</time>
      </trkpt>
      <trkpt lat="46.03618" lon="5.47849">
        <ele>693.4</ele>
        <time>2026-05-09T14:21:34Z</time>
      </trkpt>
      <trkpt lat="46.03617" lon="5.47849">
        <ele>693.8</ele>
        <time>2026-05-09T14:21:35Z</time>
      </trkpt>
      <trkpt lat="46.03615" lon="5.47848">
        <ele>693.8</ele>
        <time>2026-05-09T14:21:36Z</time>
      </trkpt>
      <trkpt lat="46.03613" lon="5.47846">
        <ele>694</ele>
        <time>2026-05-09T14:21:37Z</time>
      </trkpt>
      <trkpt lat="46.03611" lon="5.47845">
        <ele>694</ele>
        <time>2026-05-09T14:21:38Z</time>
      </trkpt>
      <trkpt lat="46.03609" lon="5.47844">
        <ele>694.2</ele>
        <time>2026-05-09T14:21:39Z</time>
      </trkpt>
      <trkpt lat="46.03608" lon="5.47843">
        <ele>694.2</ele>
        <time>2026-05-09T14:21:40Z</time>
      </trkpt>
      <trkpt lat="46.03606" lon="5.47842">
        <ele>694.2</ele>
        <time>2026-05-09T14:21:41Z</time>
      </trkpt>
      <trkpt lat="46.03602" lon="5.4784">
        <ele>694.2</ele>
        <time>2026-05-09T14:21:42Z</time>
      </trkpt>
      <trkpt lat="46.036" lon="5.47839">
        <ele>694.6</ele>
        <time>2026-05-09T14:21:43Z</time>
      </trkpt>
      <trkpt lat="46.03598" lon="5.47838">
        <ele>694.6</ele>
        <time>2026-05-09T14:21:44Z</time>
      </trkpt>
      <trkpt lat="46.03596" lon="5.47836">
        <ele>694.6</ele>
        <time>2026-05-09T14:21:45Z</time>
      </trkpt>
      <trkpt lat="46.03594" lon="5.47835">
        <ele>694.6</ele>
        <time>2026-05-09T14:21:46Z</time>
      </trkpt>
      <trkpt lat="46.03592" lon="5.47833">
        <ele>694.6</ele>
        <time>2026-05-09T14:21:47Z</time>
      </trkpt>
      <trkpt lat="46.0359" lon="5.47832">
        <ele>694.8</ele>
        <time>2026-05-09T14:21:48Z</time>
      </trkpt>
      <trkpt lat="46.03589" lon="5.47831">
        <ele>694.8</ele>
        <time>2026-05-09T14:21:49Z</time>
      </trkpt>
      <trkpt lat="46.03587" lon="5.4783">
        <ele>694.8</ele>
        <time>2026-05-09T14:21:50Z</time>
      </trkpt>
      <trkpt lat="46.03585" lon="5.47829">
        <ele>694.8</ele>
        <time>2026-05-09T14:21:51Z</time>
      </trkpt>
      <trkpt lat="46.03584" lon="5.47828">
        <ele>695.2</ele>
        <time>2026-05-09T14:21:52Z</time>
      </trkpt>
      <trkpt lat="46.03582" lon="5.47827">
        <ele>695.2</ele>
        <time>2026-05-09T14:21:53Z</time>
      </trkpt>
      <trkpt lat="46.0358" lon="5.47825">
        <ele>695.6</ele>
        <time>2026-05-09T14:21:54Z</time>
      </trkpt>
      <trkpt lat="46.03578" lon="5.47824">
        <ele>695.6</ele>
        <time>2026-05-09T14:21:55Z</time>
      </trkpt>
      <trkpt lat="46.03576" lon="5.47822">
        <ele>695.8</ele>
        <time>2026-05-09T14:21:56Z</time>
      </trkpt>
      <trkpt lat="46.03574" lon="5.4782">
        <ele>695.8</ele>
        <time>2026-05-09T14:21:57Z</time>
      </trkpt>
      <trkpt lat="46.03573" lon="5.47819">
        <ele>695.8</ele>
        <time>2026-05-09T14:21:58Z</time>
      </trkpt>
      <trkpt lat="46.03571" lon="5.47817">
        <ele>695.8</ele>
        <time>2026-05-09T14:21:59Z</time>
      </trkpt>
      <trkpt lat="46.0357" lon="5.47816">
        <ele>696.2</ele>
        <time>2026-05-09T14:22:00Z</time>
      </trkpt>
      <trkpt lat="46.03568" lon="5.47814">
        <ele>696.2</ele>
        <time>2026-05-09T14:22:01Z</time>
      </trkpt>
      <trkpt lat="46.03566" lon="5.47812">
        <ele>696.2</ele>
        <time>2026-05-09T14:22:02Z</time>
      </trkpt>
      <trkpt lat="46.03564" lon="5.47811">
        <ele>696.4</ele>
        <time>2026-05-09T14:22:03Z</time>
      </trkpt>
      <trkpt lat="46.03563" lon="5.4781">
        <ele>696.4</ele>
        <time>2026-05-09T14:22:04Z</time>
      </trkpt>
      <trkpt lat="46.03562" lon="5.47808">
        <ele>696.6</ele>
        <time>2026-05-09T14:22:05Z</time>
      </trkpt>
      <trkpt lat="46.0356" lon="5.47807">
        <ele>696.6</ele>
        <time>2026-05-09T14:22:06Z</time>
      </trkpt>
      <trkpt lat="46.03559" lon="5.47805">
        <ele>696.6</ele>
        <time>2026-05-09T14:22:07Z</time>
      </trkpt>
      <trkpt lat="46.03557" lon="5.47803">
        <ele>696.8</ele>
        <time>2026-05-09T14:22:08Z</time>
      </trkpt>
      <trkpt lat="46.03556" lon="5.47802">
        <ele>696.8</ele>
        <time>2026-05-09T14:22:09Z</time>
      </trkpt>
      <trkpt lat="46.03554" lon="5.47799">
        <ele>697.2</ele>
        <time>2026-05-09T14:22:10Z</time>
      </trkpt>
      <trkpt lat="46.03553" lon="5.47798">
        <ele>697.2</ele>
        <time>2026-05-09T14:22:11Z</time>
      </trkpt>
      <trkpt lat="46.03551" lon="5.47797">
        <ele>697.4</ele>
        <time>2026-05-09T14:22:12Z</time>
      </trkpt>
      <trkpt lat="46.0355" lon="5.47795">
        <ele>697.4</ele>
        <time>2026-05-09T14:22:13Z</time>
      </trkpt>
      <trkpt lat="46.03548" lon="5.47794">
        <ele>697.4</ele>
        <time>2026-05-09T14:22:14Z</time>
      </trkpt>
      <trkpt lat="46.03546" lon="5.47793">
        <ele>698</ele>
        <time>2026-05-09T14:22:15Z</time>
      </trkpt>
      <trkpt lat="46.03544" lon="5.47792">
        <ele>698</ele>
        <time>2026-05-09T14:22:16Z</time>
      </trkpt>
      <trkpt lat="46.03542" lon="5.47791">
        <ele>698</ele>
        <time>2026-05-09T14:22:17Z</time>
      </trkpt>
      <trkpt lat="46.0354" lon="5.47791">
        <ele>698</ele>
        <time>2026-05-09T14:22:18Z</time>
      </trkpt>
      <trkpt lat="46.03538" lon="5.4779">
        <ele>698</ele>
        <time>2026-05-09T14:22:19Z</time>
      </trkpt>
      <trkpt lat="46.03536" lon="5.4779">
        <ele>698</ele>
        <time>2026-05-09T14:22:20Z</time>
      </trkpt>
      <trkpt lat="46.03533" lon="5.47789">
        <ele>698</ele>
        <time>2026-05-09T14:22:21Z</time>
      </trkpt>
      <trkpt lat="46.03531" lon="5.47789">
        <ele>698.2</ele>
        <time>2026-05-09T14:22:22Z</time>
      </trkpt>
      <trkpt lat="46.03528" lon="5.4779">
        <ele>698.2</ele>
        <time>2026-05-09T14:22:23Z</time>
      </trkpt>
      <trkpt lat="46.03526" lon="5.4779">
        <ele>698.6</ele>
        <time>2026-05-09T14:22:24Z</time>
      </trkpt>
      <trkpt lat="46.03524" lon="5.47791">
        <ele>698.6</ele>
        <time>2026-05-09T14:22:25Z</time>
      </trkpt>
      <trkpt lat="46.03522" lon="5.47791">
        <ele>698.6</ele>
        <time>2026-05-09T14:22:26Z</time>
      </trkpt>
      <trkpt lat="46.0352" lon="5.47792">
        <ele>698.6</ele>
        <time>2026-05-09T14:22:27Z</time>
      </trkpt>
      <trkpt lat="46.03519" lon="5.47793">
        <ele>698.8</ele>
        <time>2026-05-09T14:22:28Z</time>
      </trkpt>
      <trkpt lat="46.03517" lon="5.47794">
        <ele>698.8</ele>
        <time>2026-05-09T14:22:29Z</time>
      </trkpt>
      <trkpt lat="46.03515" lon="5.47796">
        <ele>698.8</ele>
        <time>2026-05-09T14:22:30Z</time>
      </trkpt>
      <trkpt lat="46.03514" lon="5.47797">
        <ele>698.8</ele>
        <time>2026-05-09T14:22:31Z</time>
      </trkpt>
      <trkpt lat="46.03512" lon="5.478">
        <ele>699.2</ele>
        <time>2026-05-09T14:22:32Z</time>
      </trkpt>
      <trkpt lat="46.03511" lon="5.47802">
        <ele>699.2</ele>
        <time>2026-05-09T14:22:33Z</time>
      </trkpt>
      <trkpt lat="46.0351" lon="5.47803">
        <ele>699.4</ele>
        <time>2026-05-09T14:22:34Z</time>
      </trkpt>
      <trkpt lat="46.0351" lon="5.47806">
        <ele>699.4</ele>
        <time>2026-05-09T14:22:35Z</time>
      </trkpt>
      <trkpt lat="46.03509" lon="5.47809">
        <ele>699.4</ele>
        <time>2026-05-09T14:22:36Z</time>
      </trkpt>
      <trkpt lat="46.03509" lon="5.47812">
        <ele>699.4</ele>
        <time>2026-05-09T14:22:37Z</time>
      </trkpt>
      <trkpt lat="46.03509" lon="5.47815">
        <ele>699.8</ele>
        <time>2026-05-09T14:22:38Z</time>
      </trkpt>
      <trkpt lat="46.03509" lon="5.47818">
        <ele>699.8</ele>
        <time>2026-05-09T14:22:39Z</time>
      </trkpt>
      <trkpt lat="46.0351" lon="5.47821">
        <ele>699.8</ele>
        <time>2026-05-09T14:22:40Z</time>
      </trkpt>
      <trkpt lat="46.03511" lon="5.47824">
        <ele>700</ele>
        <time>2026-05-09T14:22:41Z</time>
      </trkpt>
      <trkpt lat="46.03513" lon="5.47826">
        <ele>700</ele>
        <time>2026-05-09T14:22:42Z</time>
      </trkpt>
      <trkpt lat="46.03514" lon="5.47829">
        <ele>700</ele>
        <time>2026-05-09T14:22:43Z</time>
      </trkpt>
      <trkpt lat="46.03516" lon="5.47831">
        <ele>700</ele>
        <time>2026-05-09T14:22:44Z</time>
      </trkpt>
      <trkpt lat="46.03518" lon="5.47833">
        <ele>700</ele>
        <time>2026-05-09T14:22:45Z</time>
      </trkpt>
      <trkpt lat="46.03521" lon="5.47835">
        <ele>700</ele>
        <time>2026-05-09T14:22:46Z</time>
      </trkpt>
      <trkpt lat="46.03523" lon="5.47836">
        <ele>700.2</ele>
        <time>2026-05-09T14:22:47Z</time>
      </trkpt>
      <trkpt lat="46.03525" lon="5.47837">
        <ele>700.2</ele>
        <time>2026-05-09T14:22:48Z</time>
      </trkpt>
      <trkpt lat="46.03527" lon="5.47839">
        <ele>700.2</ele>
        <time>2026-05-09T14:22:49Z</time>
      </trkpt>
      <trkpt lat="46.0353" lon="5.47841">
        <ele>700.2</ele>
        <time>2026-05-09T14:22:50Z</time>
      </trkpt>
      <trkpt lat="46.03533" lon="5.47842">
        <ele>700.2</ele>
        <time>2026-05-09T14:22:51Z</time>
      </trkpt>
      <trkpt lat="46.03536" lon="5.47843">
        <ele>700.2</ele>
        <time>2026-05-09T14:22:52Z</time>
      </trkpt>
      <trkpt lat="46.03538" lon="5.47845">
        <ele>700.2</ele>
        <time>2026-05-09T14:22:53Z</time>
      </trkpt>
      <trkpt lat="46.0354" lon="5.47847">
        <ele>700.4</ele>
        <time>2026-05-09T14:22:54Z</time>
      </trkpt>
      <trkpt lat="46.03542" lon="5.4785">
        <ele>700.4</ele>
        <time>2026-05-09T14:22:55Z</time>
      </trkpt>
      <trkpt lat="46.03544" lon="5.47852">
        <ele>700.6</ele>
        <time>2026-05-09T14:22:56Z</time>
      </trkpt>
      <trkpt lat="46.03546" lon="5.47854">
        <ele>700.6</ele>
        <time>2026-05-09T14:22:57Z</time>
      </trkpt>
      <trkpt lat="46.03549" lon="5.47856">
        <ele>700.6</ele>
        <time>2026-05-09T14:22:58Z</time>
      </trkpt>
      <trkpt lat="46.03551" lon="5.47857">
        <ele>700.6</ele>
        <time>2026-05-09T14:22:59Z</time>
      </trkpt>
      <trkpt lat="46.03553" lon="5.47859">
        <ele>700.8</ele>
        <time>2026-05-09T14:23:00Z</time>
      </trkpt>
      <trkpt lat="46.03555" lon="5.4786">
        <ele>700.8</ele>
        <time>2026-05-09T14:23:01Z</time>
      </trkpt>
      <trkpt lat="46.03557" lon="5.47861">
        <ele>700.8</ele>
        <time>2026-05-09T14:23:02Z</time>
      </trkpt>
      <trkpt lat="46.03558" lon="5.47862">
        <ele>700.8</ele>
        <time>2026-05-09T14:23:03Z</time>
      </trkpt>
      <trkpt lat="46.0356" lon="5.47863">
        <ele>701.2</ele>
        <time>2026-05-09T14:23:04Z</time>
      </trkpt>
      <trkpt lat="46.03562" lon="5.47865">
        <ele>701.2</ele>
        <time>2026-05-09T14:23:05Z</time>
      </trkpt>
      <trkpt lat="46.03564" lon="5.47867">
        <ele>701.2</ele>
        <time>2026-05-09T14:23:06Z</time>
      </trkpt>
      <trkpt lat="46.03566" lon="5.47868">
        <ele>701.2</ele>
        <time>2026-05-09T14:23:07Z</time>
      </trkpt>
      <trkpt lat="46.03567" lon="5.47869">
        <ele>701.4</ele>
        <time>2026-05-09T14:23:08Z</time>
      </trkpt>
      <trkpt lat="46.03569" lon="5.4787">
        <ele>701.4</ele>
        <time>2026-05-09T14:23:09Z</time>
      </trkpt>
      <trkpt lat="46.03571" lon="5.47871">
        <ele>701.4</ele>
        <time>2026-05-09T14:23:10Z</time>
      </trkpt>
      <trkpt lat="46.03572" lon="5.47872">
        <ele>701.8</ele>
        <time>2026-05-09T14:23:11Z</time>
      </trkpt>
      <trkpt lat="46.03574" lon="5.47873">
        <ele>701.8</ele>
        <time>2026-05-09T14:23:12Z</time>
      </trkpt>
      <trkpt lat="46.03576" lon="5.47874">
        <ele>702</ele>
        <time>2026-05-09T14:23:13Z</time>
      </trkpt>
      <trkpt lat="46.03577" lon="5.47875">
        <ele>702</ele>
        <time>2026-05-09T14:23:14Z</time>
      </trkpt>
      <trkpt lat="46.03578" lon="5.47877">
        <ele>702</ele>
        <time>2026-05-09T14:23:15Z</time>
      </trkpt>
      <trkpt lat="46.0358" lon="5.47878">
        <ele>702</ele>
        <time>2026-05-09T14:23:16Z</time>
      </trkpt>
      <trkpt lat="46.03581" lon="5.47879">
        <ele>702.2</ele>
        <time>2026-05-09T14:23:17Z</time>
      </trkpt>
      <trkpt lat="46.03583" lon="5.4788">
        <ele>702.2</ele>
        <time>2026-05-09T14:23:18Z</time>
      </trkpt>
      <trkpt lat="46.03585" lon="5.47882">
        <ele>702.2</ele>
        <time>2026-05-09T14:23:19Z</time>
      </trkpt>
      <trkpt lat="46.03586" lon="5.47883">
        <ele>702.6</ele>
        <time>2026-05-09T14:23:20Z</time>
      </trkpt>
      <trkpt lat="46.03588" lon="5.47885">
        <ele>702.6</ele>
        <time>2026-05-09T14:23:21Z</time>
      </trkpt>
      <trkpt lat="46.0359" lon="5.47886">
        <ele>703</ele>
        <time>2026-05-09T14:23:22Z</time>
      </trkpt>
      <trkpt lat="46.03592" lon="5.47888">
        <ele>703.2</ele>
        <time>2026-05-09T14:23:23Z</time>
      </trkpt>
      <trkpt lat="46.03593" lon="5.47889">
        <ele>703.2</ele>
        <time>2026-05-09T14:23:24Z</time>
      </trkpt>
      <trkpt lat="46.03594" lon="5.4789">
        <ele>703.2</ele>
        <time>2026-05-09T14:23:25Z</time>
      </trkpt>
      <trkpt lat="46.03596" lon="5.47892">
        <ele>703.4</ele>
        <time>2026-05-09T14:23:26Z</time>
      </trkpt>
      <trkpt lat="46.03597" lon="5.47893">
        <ele>703.4</ele>
        <time>2026-05-09T14:23:27Z</time>
      </trkpt>
      <trkpt lat="46.03598" lon="5.47894">
        <ele>703.8</ele>
        <time>2026-05-09T14:23:28Z</time>
      </trkpt>
      <trkpt lat="46.03598" lon="5.47894">
        <ele>703.8</ele>
        <time>2026-05-09T14:23:29Z</time>
      </trkpt>
      <trkpt lat="46.036" lon="5.47895">
        <ele>703.8</ele>
        <time>2026-05-09T14:23:30Z</time>
      </trkpt>
      <trkpt lat="46.03602" lon="5.47896">
        <ele>704</ele>
        <time>2026-05-09T14:23:31Z</time>
      </trkpt>
      <trkpt lat="46.03603" lon="5.47898">
        <ele>704</ele>
        <time>2026-05-09T14:23:32Z</time>
      </trkpt>
      <trkpt lat="46.03604" lon="5.47899">
        <ele>704</ele>
        <time>2026-05-09T14:23:33Z</time>
      </trkpt>
      <trkpt lat="46.03606" lon="5.479">
        <ele>704.2</ele>
        <time>2026-05-09T14:23:34Z</time>
      </trkpt>
      <trkpt lat="46.03607" lon="5.47901">
        <ele>704.2</ele>
        <time>2026-05-09T14:23:35Z</time>
      </trkpt>
      <trkpt lat="46.03608" lon="5.47902">
        <ele>704.2</ele>
        <time>2026-05-09T14:23:36Z</time>
      </trkpt>
      <trkpt lat="46.0361" lon="5.47903">
        <ele>704.6</ele>
        <time>2026-05-09T14:23:37Z</time>
      </trkpt>
      <trkpt lat="46.03612" lon="5.47904">
        <ele>704.6</ele>
        <time>2026-05-09T14:23:38Z</time>
      </trkpt>
      <trkpt lat="46.03614" lon="5.47905">
        <ele>705</ele>
        <time>2026-05-09T14:23:39Z</time>
      </trkpt>
      <trkpt lat="46.03615" lon="5.47906">
        <ele>705</ele>
        <time>2026-05-09T14:23:40Z</time>
      </trkpt>
      <trkpt lat="46.03617" lon="5.47907">
        <ele>705</ele>
        <time>2026-05-09T14:23:41Z</time>
      </trkpt>
      <trkpt lat="46.03619" lon="5.47909">
        <ele>705</ele>
        <time>2026-05-09T14:23:42Z</time>
      </trkpt>
      <trkpt lat="46.0362" lon="5.4791">
        <ele>705.2</ele>
        <time>2026-05-09T14:23:43Z</time>
      </trkpt>
      <trkpt lat="46.03622" lon="5.47911">
        <ele>705.2</ele>
        <time>2026-05-09T14:23:44Z</time>
      </trkpt>
      <trkpt lat="46.03623" lon="5.47911">
        <ele>705.4</ele>
        <time>2026-05-09T14:23:45Z</time>
      </trkpt>
      <trkpt lat="46.03625" lon="5.47913">
        <ele>705.4</ele>
        <time>2026-05-09T14:23:46Z</time>
      </trkpt>
      <trkpt lat="46.03627" lon="5.47914">
        <ele>705.6</ele>
        <time>2026-05-09T14:23:47Z</time>
      </trkpt>
      <trkpt lat="46.03629" lon="5.47915">
        <ele>705.6</ele>
        <time>2026-05-09T14:23:48Z</time>
      </trkpt>
      <trkpt lat="46.0363" lon="5.47915">
        <ele>705.8</ele>
        <time>2026-05-09T14:23:49Z</time>
      </trkpt>
      <trkpt lat="46.03632" lon="5.47916">
        <ele>705.8</ele>
        <time>2026-05-09T14:23:50Z</time>
      </trkpt>
      <trkpt lat="46.03634" lon="5.47918">
        <ele>705.8</ele>
        <time>2026-05-09T14:23:51Z</time>
      </trkpt>
      <trkpt lat="46.03636" lon="5.47919">
        <ele>706.2</ele>
        <time>2026-05-09T14:23:52Z</time>
      </trkpt>
      <trkpt lat="46.03637" lon="5.47921">
        <ele>706.2</ele>
        <time>2026-05-09T14:23:53Z</time>
      </trkpt>
      <trkpt lat="46.03638" lon="5.47923">
        <ele>706.2</ele>
        <time>2026-05-09T14:23:54Z</time>
      </trkpt>
      <trkpt lat="46.0364" lon="5.47924">
        <ele>706.6</ele>
        <time>2026-05-09T14:23:55Z</time>
      </trkpt>
      <trkpt lat="46.03641" lon="5.47925">
        <ele>706.6</ele>
        <time>2026-05-09T14:23:56Z</time>
      </trkpt>
      <trkpt lat="46.03642" lon="5.47926">
        <ele>706.6</ele>
        <time>2026-05-09T14:23:57Z</time>
      </trkpt>
      <trkpt lat="46.03644" lon="5.47928">
        <ele>706.8</ele>
        <time>2026-05-09T14:23:58Z</time>
      </trkpt>
      <trkpt lat="46.03645" lon="5.47929">
        <ele>706.8</ele>
        <time>2026-05-09T14:23:59Z</time>
      </trkpt>
      <trkpt lat="46.03647" lon="5.47931">
        <ele>706.8</ele>
        <time>2026-05-09T14:24:00Z</time>
      </trkpt>
      <trkpt lat="46.03649" lon="5.47932">
        <ele>706.8</ele>
        <time>2026-05-09T14:24:01Z</time>
      </trkpt>
      <trkpt lat="46.03651" lon="5.47933">
        <ele>707.2</ele>
        <time>2026-05-09T14:24:02Z</time>
      </trkpt>
      <trkpt lat="46.03653" lon="5.47934">
        <ele>707.2</ele>
        <time>2026-05-09T14:24:03Z</time>
      </trkpt>
      <trkpt lat="46.03655" lon="5.47935">
        <ele>707.2</ele>
        <time>2026-05-09T14:24:04Z</time>
      </trkpt>
      <trkpt lat="46.03656" lon="5.47935">
        <ele>707.4</ele>
        <time>2026-05-09T14:24:05Z</time>
      </trkpt>
      <trkpt lat="46.03658" lon="5.47936">
        <ele>707.4</ele>
        <time>2026-05-09T14:24:06Z</time>
      </trkpt>
      <trkpt lat="46.03659" lon="5.47936">
        <ele>707.4</ele>
        <time>2026-05-09T14:24:07Z</time>
      </trkpt>
      <trkpt lat="46.03661" lon="5.47936">
        <ele>707.4</ele>
        <time>2026-05-09T14:24:08Z</time>
      </trkpt>
      <trkpt lat="46.03663" lon="5.47937">
        <ele>707.8</ele>
        <time>2026-05-09T14:24:09Z</time>
      </trkpt>
      <trkpt lat="46.03665" lon="5.47937">
        <ele>708</ele>
        <time>2026-05-09T14:24:10Z</time>
      </trkpt>
      <trkpt lat="46.03667" lon="5.47938">
        <ele>708</ele>
        <time>2026-05-09T14:24:11Z</time>
      </trkpt>
      <trkpt lat="46.03668" lon="5.47938">
        <ele>708</ele>
        <time>2026-05-09T14:24:12Z</time>
      </trkpt>
      <trkpt lat="46.0367" lon="5.47939">
        <ele>708.2</ele>
        <time>2026-05-09T14:24:13Z</time>
      </trkpt>
      <trkpt lat="46.03672" lon="5.4794">
        <ele>708.2</ele>
        <time>2026-05-09T14:24:14Z</time>
      </trkpt>
      <trkpt lat="46.03673" lon="5.47942">
        <ele>708.2</ele>
        <time>2026-05-09T14:24:15Z</time>
      </trkpt>
      <trkpt lat="46.03675" lon="5.47943">
        <ele>708.4</ele>
        <time>2026-05-09T14:24:16Z</time>
      </trkpt>
      <trkpt lat="46.03676" lon="5.47944">
        <ele>708.4</ele>
        <time>2026-05-09T14:24:17Z</time>
      </trkpt>
      <trkpt lat="46.03678" lon="5.47945">
        <ele>708.6</ele>
        <time>2026-05-09T14:24:18Z</time>
      </trkpt>
      <trkpt lat="46.0368" lon="5.47946">
        <ele>708.6</ele>
        <time>2026-05-09T14:24:19Z</time>
      </trkpt>
      <trkpt lat="46.03682" lon="5.47947">
        <ele>709</ele>
        <time>2026-05-09T14:24:20Z</time>
      </trkpt>
      <trkpt lat="46.03684" lon="5.47947">
        <ele>709</ele>
        <time>2026-05-09T14:24:21Z</time>
      </trkpt>
      <trkpt lat="46.03686" lon="5.47947">
        <ele>709.2</ele>
        <time>2026-05-09T14:24:22Z</time>
      </trkpt>
      <trkpt lat="46.03688" lon="5.47948">
        <ele>709.2</ele>
        <time>2026-05-09T14:24:23Z</time>
      </trkpt>
      <trkpt lat="46.03689" lon="5.47949">
        <ele>709.4</ele>
        <time>2026-05-09T14:24:24Z</time>
      </trkpt>
      <trkpt lat="46.03691" lon="5.47951">
        <ele>709.4</ele>
        <time>2026-05-09T14:24:25Z</time>
      </trkpt>
      <trkpt lat="46.03693" lon="5.47953">
        <ele>709.4</ele>
        <time>2026-05-09T14:24:26Z</time>
      </trkpt>
      <trkpt lat="46.03694" lon="5.47955">
        <ele>709.8</ele>
        <time>2026-05-09T14:24:27Z</time>
      </trkpt>
      <trkpt lat="46.03696" lon="5.47957">
        <ele>709.8</ele>
        <time>2026-05-09T14:24:28Z</time>
      </trkpt>
      <trkpt lat="46.03697" lon="5.47958">
        <ele>709.8</ele>
        <time>2026-05-09T14:24:29Z</time>
      </trkpt>
      <trkpt lat="46.03699" lon="5.47959">
        <ele>710</ele>
        <time>2026-05-09T14:24:30Z</time>
      </trkpt>
      <trkpt lat="46.03701" lon="5.47959">
        <ele>710</ele>
        <time>2026-05-09T14:24:31Z</time>
      </trkpt>
      <trkpt lat="46.03703" lon="5.4796">
        <ele>710</ele>
        <time>2026-05-09T14:24:32Z</time>
      </trkpt>
      <trkpt lat="46.03705" lon="5.47961">
        <ele>710</ele>
        <time>2026-05-09T14:24:33Z</time>
      </trkpt>
      <trkpt lat="46.03707" lon="5.47961">
        <ele>710</ele>
        <time>2026-05-09T14:24:34Z</time>
      </trkpt>
      <trkpt lat="46.03709" lon="5.47962">
        <ele>710.4</ele>
        <time>2026-05-09T14:24:35Z</time>
      </trkpt>
      <trkpt lat="46.03711" lon="5.47963">
        <ele>710.4</ele>
        <time>2026-05-09T14:24:36Z</time>
      </trkpt>
      <trkpt lat="46.03713" lon="5.47963">
        <ele>710.4</ele>
        <time>2026-05-09T14:24:37Z</time>
      </trkpt>
      <trkpt lat="46.03715" lon="5.47964">
        <ele>710.6</ele>
        <time>2026-05-09T14:24:38Z</time>
      </trkpt>
      <trkpt lat="46.03717" lon="5.47964">
        <ele>710.6</ele>
        <time>2026-05-09T14:24:39Z</time>
      </trkpt>
      <trkpt lat="46.03719" lon="5.47965">
        <ele>710.6</ele>
        <time>2026-05-09T14:24:40Z</time>
      </trkpt>
      <trkpt lat="46.0372" lon="5.47966">
        <ele>710.8</ele>
        <time>2026-05-09T14:24:41Z</time>
      </trkpt>
      <trkpt lat="46.03722" lon="5.47967">
        <ele>710.8</ele>
        <time>2026-05-09T14:24:42Z</time>
      </trkpt>
      <trkpt lat="46.03724" lon="5.47968">
        <ele>710.8</ele>
        <time>2026-05-09T14:24:43Z</time>
      </trkpt>
      <trkpt lat="46.03726" lon="5.47968">
        <ele>710.8</ele>
        <time>2026-05-09T14:24:44Z</time>
      </trkpt>
      <trkpt lat="46.03728" lon="5.47969">
        <ele>711</ele>
        <time>2026-05-09T14:24:45Z</time>
      </trkpt>
      <trkpt lat="46.03731" lon="5.47969">
        <ele>711.2</ele>
        <time>2026-05-09T14:24:46Z</time>
      </trkpt>
      <trkpt lat="46.03733" lon="5.4797">
        <ele>711.2</ele>
        <time>2026-05-09T14:24:47Z</time>
      </trkpt>
      <trkpt lat="46.03735" lon="5.4797">
        <ele>711.2</ele>
        <time>2026-05-09T14:24:48Z</time>
      </trkpt>
      <trkpt lat="46.03737" lon="5.4797">
        <ele>711.4</ele>
        <time>2026-05-09T14:24:49Z</time>
      </trkpt>
      <trkpt lat="46.03738" lon="5.4797">
        <ele>711.4</ele>
        <time>2026-05-09T14:24:50Z</time>
      </trkpt>
      <trkpt lat="46.0374" lon="5.4797">
        <ele>711.8</ele>
        <time>2026-05-09T14:24:51Z</time>
      </trkpt>
      <trkpt lat="46.03743" lon="5.47971">
        <ele>711.8</ele>
        <time>2026-05-09T14:24:52Z</time>
      </trkpt>
      <trkpt lat="46.03744" lon="5.47971">
        <ele>711.8</ele>
        <time>2026-05-09T14:24:53Z</time>
      </trkpt>
      <trkpt lat="46.03745" lon="5.47972">
        <ele>711.8</ele>
        <time>2026-05-09T14:24:54Z</time>
      </trkpt>
      <trkpt lat="46.03746" lon="5.47972">
        <ele>712</ele>
        <time>2026-05-09T14:24:55Z</time>
      </trkpt>
      <trkpt lat="46.03748" lon="5.47973">
        <ele>712</ele>
        <time>2026-05-09T14:24:56Z</time>
      </trkpt>
      <trkpt lat="46.03751" lon="5.47974">
        <ele>712.2</ele>
        <time>2026-05-09T14:24:57Z</time>
      </trkpt>
      <trkpt lat="46.03753" lon="5.47974">
        <ele>712.2</ele>
        <time>2026-05-09T14:24:58Z</time>
      </trkpt>
      <trkpt lat="46.03755" lon="5.47974">
        <ele>712.4</ele>
        <time>2026-05-09T14:24:59Z</time>
      </trkpt>
      <trkpt lat="46.03757" lon="5.47974">
        <ele>712.4</ele>
        <time>2026-05-09T14:25:00Z</time>
      </trkpt>
      <trkpt lat="46.03758" lon="5.47975">
        <ele>712.8</ele>
        <time>2026-05-09T14:25:01Z</time>
      </trkpt>
      <trkpt lat="46.03759" lon="5.47976">
        <ele>712.8</ele>
        <time>2026-05-09T14:25:02Z</time>
      </trkpt>
      <trkpt lat="46.0376" lon="5.47976">
        <ele>712.8</ele>
        <time>2026-05-09T14:25:03Z</time>
      </trkpt>
      <trkpt lat="46.03762" lon="5.47977">
        <ele>713</ele>
        <time>2026-05-09T14:25:04Z</time>
      </trkpt>
      <trkpt lat="46.03764" lon="5.47977">
        <ele>713</ele>
        <time>2026-05-09T14:25:05Z</time>
      </trkpt>
      <trkpt lat="46.03766" lon="5.47977">
        <ele>713</ele>
        <time>2026-05-09T14:25:06Z</time>
      </trkpt>
      <trkpt lat="46.03768" lon="5.47978">
        <ele>713.2</ele>
        <time>2026-05-09T14:25:07Z</time>
      </trkpt>
      <trkpt lat="46.0377" lon="5.47978">
        <ele>713.6</ele>
        <time>2026-05-09T14:25:08Z</time>
      </trkpt>
      <trkpt lat="46.03771" lon="5.47979">
        <ele>713.6</ele>
        <time>2026-05-09T14:25:09Z</time>
      </trkpt>
      <trkpt lat="46.03773" lon="5.4798">
        <ele>713.6</ele>
        <time>2026-05-09T14:25:10Z</time>
      </trkpt>
      <trkpt lat="46.03775" lon="5.4798">
        <ele>713.8</ele>
        <time>2026-05-09T14:25:11Z</time>
      </trkpt>
      <trkpt lat="46.03777" lon="5.47981">
        <ele>713.8</ele>
        <time>2026-05-09T14:25:12Z</time>
      </trkpt>
      <trkpt lat="46.03779" lon="5.47982">
        <ele>713.8</ele>
        <time>2026-05-09T14:25:13Z</time>
      </trkpt>
      <trkpt lat="46.0378" lon="5.47983">
        <ele>713.8</ele>
        <time>2026-05-09T14:25:14Z</time>
      </trkpt>
      <trkpt lat="46.03782" lon="5.47984">
        <ele>713.8</ele>
        <time>2026-05-09T14:25:15Z</time>
      </trkpt>
      <trkpt lat="46.03784" lon="5.47984">
        <ele>714</ele>
        <time>2026-05-09T14:25:16Z</time>
      </trkpt>
      <trkpt lat="46.03786" lon="5.47985">
        <ele>714</ele>
        <time>2026-05-09T14:25:17Z</time>
      </trkpt>
      <trkpt lat="46.03787" lon="5.47986">
        <ele>714</ele>
        <time>2026-05-09T14:25:18Z</time>
      </trkpt>
      <trkpt lat="46.03789" lon="5.47986">
        <ele>714</ele>
        <time>2026-05-09T14:25:19Z</time>
      </trkpt>
      <trkpt lat="46.03791" lon="5.47987">
        <ele>714.4</ele>
        <time>2026-05-09T14:25:20Z</time>
      </trkpt>
      <trkpt lat="46.03793" lon="5.47987">
        <ele>714.4</ele>
        <time>2026-05-09T14:25:21Z</time>
      </trkpt>
      <trkpt lat="46.03795" lon="5.47987">
        <ele>714.4</ele>
        <time>2026-05-09T14:25:22Z</time>
      </trkpt>
      <trkpt lat="46.03797" lon="5.47988">
        <ele>714.6</ele>
        <time>2026-05-09T14:25:23Z</time>
      </trkpt>
      <trkpt lat="46.03799" lon="5.47989">
        <ele>714.6</ele>
        <time>2026-05-09T14:25:24Z</time>
      </trkpt>
      <trkpt lat="46.03801" lon="5.4799">
        <ele>714.6</ele>
        <time>2026-05-09T14:25:25Z</time>
      </trkpt>
      <trkpt lat="46.03803" lon="5.47991">
        <ele>714.8</ele>
        <time>2026-05-09T14:25:26Z</time>
      </trkpt>
      <trkpt lat="46.03805" lon="5.47992">
        <ele>714.8</ele>
        <time>2026-05-09T14:25:27Z</time>
      </trkpt>
      <trkpt lat="46.03807" lon="5.47993">
        <ele>715</ele>
        <time>2026-05-09T14:25:28Z</time>
      </trkpt>
      <trkpt lat="46.03808" lon="5.47993">
        <ele>715</ele>
        <time>2026-05-09T14:25:29Z</time>
      </trkpt>
      <trkpt lat="46.0381" lon="5.47993">
        <ele>715.4</ele>
        <time>2026-05-09T14:25:30Z</time>
      </trkpt>
      <trkpt lat="46.0381" lon="5.47993">
        <ele>715.4</ele>
        <time>2026-05-09T14:25:31Z</time>
      </trkpt>
      <trkpt lat="46.03812" lon="5.47994">
        <ele>715.6</ele>
        <time>2026-05-09T14:25:32Z</time>
      </trkpt>
      <trkpt lat="46.03813" lon="5.47996">
        <ele>715.6</ele>
        <time>2026-05-09T14:25:33Z</time>
      </trkpt>
      <trkpt lat="46.03815" lon="5.47998">
        <ele>715.6</ele>
        <time>2026-05-09T14:25:34Z</time>
      </trkpt>
      <trkpt lat="46.03817" lon="5.47999">
        <ele>715.8</ele>
        <time>2026-05-09T14:25:35Z</time>
      </trkpt>
      <trkpt lat="46.03819" lon="5.48">
        <ele>715.8</ele>
        <time>2026-05-09T14:25:36Z</time>
      </trkpt>
      <trkpt lat="46.03821" lon="5.48001">
        <ele>715.8</ele>
        <time>2026-05-09T14:25:37Z</time>
      </trkpt>
      <trkpt lat="46.03823" lon="5.48001">
        <ele>715.8</ele>
        <time>2026-05-09T14:25:38Z</time>
      </trkpt>
      <trkpt lat="46.03825" lon="5.48002">
        <ele>715.8</ele>
        <time>2026-05-09T14:25:39Z</time>
      </trkpt>
      <trkpt lat="46.03827" lon="5.48002">
        <ele>716.2</ele>
        <time>2026-05-09T14:25:40Z</time>
      </trkpt>
      <trkpt lat="46.03829" lon="5.48003">
        <ele>716.2</ele>
        <time>2026-05-09T14:25:41Z</time>
      </trkpt>
      <trkpt lat="46.03831" lon="5.48004">
        <ele>716.2</ele>
        <time>2026-05-09T14:25:42Z</time>
      </trkpt>
      <trkpt lat="46.03832" lon="5.48006">
        <ele>716.2</ele>
        <time>2026-05-09T14:25:43Z</time>
      </trkpt>
      <trkpt lat="46.03834" lon="5.48007">
        <ele>716.6</ele>
        <time>2026-05-09T14:25:44Z</time>
      </trkpt>
      <trkpt lat="46.03836" lon="5.48009">
        <ele>716.6</ele>
        <time>2026-05-09T14:25:45Z</time>
      </trkpt>
      <trkpt lat="46.03837" lon="5.4801">
        <ele>716.6</ele>
        <time>2026-05-09T14:25:46Z</time>
      </trkpt>
      <trkpt lat="46.03838" lon="5.48012">
        <ele>717</ele>
        <time>2026-05-09T14:25:47Z</time>
      </trkpt>
      <trkpt lat="46.0384" lon="5.48013">
        <ele>717</ele>
        <time>2026-05-09T14:25:48Z</time>
      </trkpt>
      <trkpt lat="46.03842" lon="5.48014">
        <ele>717</ele>
        <time>2026-05-09T14:25:49Z</time>
      </trkpt>
      <trkpt lat="46.03844" lon="5.48014">
        <ele>717.2</ele>
        <time>2026-05-09T14:25:50Z</time>
      </trkpt>
      <trkpt lat="46.03846" lon="5.48015">
        <ele>717.2</ele>
        <time>2026-05-09T14:25:51Z</time>
      </trkpt>
      <trkpt lat="46.03847" lon="5.48015">
        <ele>717.4</ele>
        <time>2026-05-09T14:25:52Z</time>
      </trkpt>
      <trkpt lat="46.03849" lon="5.48016">
        <ele>717.4</ele>
        <time>2026-05-09T14:25:53Z</time>
      </trkpt>
      <trkpt lat="46.0385" lon="5.48017">
        <ele>717.4</ele>
        <time>2026-05-09T14:25:54Z</time>
      </trkpt>
      <trkpt lat="46.03852" lon="5.48018">
        <ele>717.6</ele>
        <time>2026-05-09T14:25:55Z</time>
      </trkpt>
      <trkpt lat="46.03853" lon="5.48019">
        <ele>717.6</ele>
        <time>2026-05-09T14:25:56Z</time>
      </trkpt>
      <trkpt lat="46.03855" lon="5.48021">
        <ele>717.6</ele>
        <time>2026-05-09T14:25:57Z</time>
      </trkpt>
      <trkpt lat="46.03857" lon="5.48021">
        <ele>717.8</ele>
        <time>2026-05-09T14:25:58Z</time>
      </trkpt>
      <trkpt lat="46.03859" lon="5.48022">
        <ele>717.8</ele>
        <time>2026-05-09T14:25:59Z</time>
      </trkpt>
      <trkpt lat="46.0386" lon="5.48022">
        <ele>717.8</ele>
        <time>2026-05-09T14:26:00Z</time>
      </trkpt>
      <trkpt lat="46.03862" lon="5.48022">
        <ele>717.8</ele>
        <time>2026-05-09T14:26:01Z</time>
      </trkpt>
      <trkpt lat="46.03864" lon="5.48023">
        <ele>717.8</ele>
        <time>2026-05-09T14:26:02Z</time>
      </trkpt>
      <trkpt lat="46.03866" lon="5.48023">
        <ele>718.2</ele>
        <time>2026-05-09T14:26:03Z</time>
      </trkpt>
      <trkpt lat="46.03867" lon="5.48024">
        <ele>718.2</ele>
        <time>2026-05-09T14:26:04Z</time>
      </trkpt>
      <trkpt lat="46.03869" lon="5.48025">
        <ele>718.6</ele>
        <time>2026-05-09T14:26:05Z</time>
      </trkpt>
      <trkpt lat="46.0387" lon="5.48026">
        <ele>718.6</ele>
        <time>2026-05-09T14:26:06Z</time>
      </trkpt>
      <trkpt lat="46.03872" lon="5.48027">
        <ele>718.8</ele>
        <time>2026-05-09T14:26:07Z</time>
      </trkpt>
      <trkpt lat="46.03873" lon="5.48028">
        <ele>718.8</ele>
        <time>2026-05-09T14:26:08Z</time>
      </trkpt>
      <trkpt lat="46.03875" lon="5.48029">
        <ele>719.2</ele>
        <time>2026-05-09T14:26:09Z</time>
      </trkpt>
      <trkpt lat="46.03877" lon="5.48029">
        <ele>719.2</ele>
        <time>2026-05-09T14:26:10Z</time>
      </trkpt>
      <trkpt lat="46.03879" lon="5.4803">
        <ele>719.2</ele>
        <time>2026-05-09T14:26:11Z</time>
      </trkpt>
      <trkpt lat="46.03881" lon="5.4803">
        <ele>719.4</ele>
        <time>2026-05-09T14:26:12Z</time>
      </trkpt>
      <trkpt lat="46.03883" lon="5.48031">
        <ele>719.4</ele>
        <time>2026-05-09T14:26:13Z</time>
      </trkpt>
      <trkpt lat="46.03885" lon="5.48032">
        <ele>719.4</ele>
        <time>2026-05-09T14:26:14Z</time>
      </trkpt>
      <trkpt lat="46.03886" lon="5.48034">
        <ele>719.6</ele>
        <time>2026-05-09T14:26:15Z</time>
      </trkpt>
      <trkpt lat="46.03888" lon="5.48035">
        <ele>719.6</ele>
        <time>2026-05-09T14:26:16Z</time>
      </trkpt>
      <trkpt lat="46.03889" lon="5.48035">
        <ele>719.6</ele>
        <time>2026-05-09T14:26:17Z</time>
      </trkpt>
      <trkpt lat="46.03891" lon="5.48036">
        <ele>719.6</ele>
        <time>2026-05-09T14:26:18Z</time>
      </trkpt>
      <trkpt lat="46.03893" lon="5.48036">
        <ele>720</ele>
        <time>2026-05-09T14:26:19Z</time>
      </trkpt>
      <trkpt lat="46.03894" lon="5.48036">
        <ele>720</ele>
        <time>2026-05-09T14:26:20Z</time>
      </trkpt>
      <trkpt lat="46.03896" lon="5.48037">
        <ele>720</ele>
        <time>2026-05-09T14:26:21Z</time>
      </trkpt>
      <trkpt lat="46.03898" lon="5.48038">
        <ele>720</ele>
        <time>2026-05-09T14:26:22Z</time>
      </trkpt>
      <trkpt lat="46.03899" lon="5.48038">
        <ele>720</ele>
        <time>2026-05-09T14:26:23Z</time>
      </trkpt>
      <trkpt lat="46.03899" lon="5.48038">
        <ele>720.4</ele>
        <time>2026-05-09T14:26:24Z</time>
      </trkpt>
      <trkpt lat="46.03901" lon="5.48038">
        <ele>720.4</ele>
        <time>2026-05-09T14:26:25Z</time>
      </trkpt>
      <trkpt lat="46.03902" lon="5.48039">
        <ele>720.6</ele>
        <time>2026-05-09T14:26:26Z</time>
      </trkpt>
      <trkpt lat="46.03905" lon="5.4804">
        <ele>720.6</ele>
        <time>2026-05-09T14:26:27Z</time>
      </trkpt>
      <trkpt lat="46.03907" lon="5.48042">
        <ele>720.6</ele>
        <time>2026-05-09T14:26:28Z</time>
      </trkpt>
      <trkpt lat="46.03909" lon="5.48043">
        <ele>720.6</ele>
        <time>2026-05-09T14:26:29Z</time>
      </trkpt>
      <trkpt lat="46.0391" lon="5.48044">
        <ele>720.6</ele>
        <time>2026-05-09T14:26:30Z</time>
      </trkpt>
      <trkpt lat="46.03912" lon="5.48045">
        <ele>720.8</ele>
        <time>2026-05-09T14:26:31Z</time>
      </trkpt>
      <trkpt lat="46.03914" lon="5.48046">
        <ele>720.8</ele>
        <time>2026-05-09T14:26:32Z</time>
      </trkpt>
      <trkpt lat="46.03916" lon="5.48047">
        <ele>721</ele>
        <time>2026-05-09T14:26:33Z</time>
      </trkpt>
      <trkpt lat="46.03918" lon="5.48048">
        <ele>721</ele>
        <time>2026-05-09T14:26:34Z</time>
      </trkpt>
      <trkpt lat="46.03919" lon="5.48049">
        <ele>721</ele>
        <time>2026-05-09T14:26:35Z</time>
      </trkpt>
      <trkpt lat="46.03921" lon="5.4805">
        <ele>721</ele>
        <time>2026-05-09T14:26:36Z</time>
      </trkpt>
      <trkpt lat="46.03922" lon="5.48051">
        <ele>721.4</ele>
        <time>2026-05-09T14:26:37Z</time>
      </trkpt>
      <trkpt lat="46.03924" lon="5.48052">
        <ele>721.6</ele>
        <time>2026-05-09T14:26:38Z</time>
      </trkpt>
      <trkpt lat="46.03925" lon="5.48053">
        <ele>721.6</ele>
        <time>2026-05-09T14:26:39Z</time>
      </trkpt>
      <trkpt lat="46.03927" lon="5.48053">
        <ele>721.6</ele>
        <time>2026-05-09T14:26:40Z</time>
      </trkpt>
      <trkpt lat="46.03928" lon="5.48054">
        <ele>722</ele>
        <time>2026-05-09T14:26:41Z</time>
      </trkpt>
      <trkpt lat="46.0393" lon="5.48055">
        <ele>722</ele>
        <time>2026-05-09T14:26:42Z</time>
      </trkpt>
      <trkpt lat="46.03932" lon="5.48056">
        <ele>722.2</ele>
        <time>2026-05-09T14:26:43Z</time>
      </trkpt>
      <trkpt lat="46.03934" lon="5.48057">
        <ele>722.2</ele>
        <time>2026-05-09T14:26:44Z</time>
      </trkpt>
      <trkpt lat="46.03936" lon="5.48057">
        <ele>722.2</ele>
        <time>2026-05-09T14:26:45Z</time>
      </trkpt>
      <trkpt lat="46.03937" lon="5.48058">
        <ele>722.2</ele>
        <time>2026-05-09T14:26:46Z</time>
      </trkpt>
      <trkpt lat="46.03939" lon="5.48059">
        <ele>722.6</ele>
        <time>2026-05-09T14:26:47Z</time>
      </trkpt>
      <trkpt lat="46.0394" lon="5.48059">
        <ele>722.6</ele>
        <time>2026-05-09T14:26:48Z</time>
      </trkpt>
      <trkpt lat="46.03942" lon="5.4806">
        <ele>722.6</ele>
        <time>2026-05-09T14:26:49Z</time>
      </trkpt>
      <trkpt lat="46.03944" lon="5.48062">
        <ele>722.6</ele>
        <time>2026-05-09T14:26:50Z</time>
      </trkpt>
      <trkpt lat="46.03945" lon="5.48063">
        <ele>723</ele>
        <time>2026-05-09T14:26:51Z</time>
      </trkpt>
      <trkpt lat="46.03947" lon="5.48065">
        <ele>723</ele>
        <time>2026-05-09T14:26:52Z</time>
      </trkpt>
      <trkpt lat="46.03949" lon="5.48066">
        <ele>723</ele>
        <time>2026-05-09T14:26:53Z</time>
      </trkpt>
      <trkpt lat="46.03951" lon="5.48067">
        <ele>723</ele>
        <time>2026-05-09T14:26:54Z</time>
      </trkpt>
      <trkpt lat="46.03952" lon="5.48068">
        <ele>723</ele>
        <time>2026-05-09T14:26:55Z</time>
      </trkpt>
      <trkpt lat="46.03953" lon="5.48069">
        <ele>723.2</ele>
        <time>2026-05-09T14:26:56Z</time>
      </trkpt>
      <trkpt lat="46.03955" lon="5.4807">
        <ele>723.4</ele>
        <time>2026-05-09T14:26:57Z</time>
      </trkpt>
      <trkpt lat="46.03957" lon="5.48071">
        <ele>723.4</ele>
        <time>2026-05-09T14:26:58Z</time>
      </trkpt>
      <trkpt lat="46.03959" lon="5.48072">
        <ele>723.4</ele>
        <time>2026-05-09T14:26:59Z</time>
      </trkpt>
      <trkpt lat="46.0396" lon="5.48074">
        <ele>723.6</ele>
        <time>2026-05-09T14:27:00Z</time>
      </trkpt>
      <trkpt lat="46.03962" lon="5.48076">
        <ele>723.6</ele>
        <time>2026-05-09T14:27:01Z</time>
      </trkpt>
      <trkpt lat="46.03963" lon="5.48078">
        <ele>723.6</ele>
        <time>2026-05-09T14:27:02Z</time>
      </trkpt>
      <trkpt lat="46.03965" lon="5.48079">
        <ele>723.6</ele>
        <time>2026-05-09T14:27:03Z</time>
      </trkpt>
      <trkpt lat="46.03966" lon="5.4808">
        <ele>724</ele>
        <time>2026-05-09T14:27:04Z</time>
      </trkpt>
      <trkpt lat="46.03968" lon="5.48082">
        <ele>724</ele>
        <time>2026-05-09T14:27:05Z</time>
      </trkpt>
      <trkpt lat="46.03969" lon="5.48083">
        <ele>724</ele>
        <time>2026-05-09T14:27:06Z</time>
      </trkpt>
      <trkpt lat="46.03971" lon="5.48084">
        <ele>724.2</ele>
        <time>2026-05-09T14:27:07Z</time>
      </trkpt>
      <trkpt lat="46.03973" lon="5.48085">
        <ele>724.2</ele>
        <time>2026-05-09T14:27:08Z</time>
      </trkpt>
      <trkpt lat="46.03975" lon="5.48086">
        <ele>724.2</ele>
        <time>2026-05-09T14:27:09Z</time>
      </trkpt>
      <trkpt lat="46.03976" lon="5.48087">
        <ele>724.2</ele>
        <time>2026-05-09T14:27:10Z</time>
      </trkpt>
      <trkpt lat="46.03977" lon="5.48088">
        <ele>724.4</ele>
        <time>2026-05-09T14:27:11Z</time>
      </trkpt>
      <trkpt lat="46.03979" lon="5.48089">
        <ele>724.4</ele>
        <time>2026-05-09T14:27:12Z</time>
      </trkpt>
      <trkpt lat="46.0398" lon="5.4809">
        <ele>724.8</ele>
        <time>2026-05-09T14:27:13Z</time>
      </trkpt>
      <trkpt lat="46.03982" lon="5.48092">
        <ele>724.8</ele>
        <time>2026-05-09T14:27:14Z</time>
      </trkpt>
      <trkpt lat="46.03984" lon="5.48093">
        <ele>725.2</ele>
        <time>2026-05-09T14:27:15Z</time>
      </trkpt>
      <trkpt lat="46.03985" lon="5.48094">
        <ele>725.2</ele>
        <time>2026-05-09T14:27:16Z</time>
      </trkpt>
      <trkpt lat="46.03987" lon="5.48095">
        <ele>725.4</ele>
        <time>2026-05-09T14:27:17Z</time>
      </trkpt>
      <trkpt lat="46.03989" lon="5.48097">
        <ele>725.4</ele>
        <time>2026-05-09T14:27:18Z</time>
      </trkpt>
      <trkpt lat="46.03991" lon="5.48098">
        <ele>725.4</ele>
        <time>2026-05-09T14:27:19Z</time>
      </trkpt>
      <trkpt lat="46.03992" lon="5.48099">
        <ele>725.6</ele>
        <time>2026-05-09T14:27:20Z</time>
      </trkpt>
      <trkpt lat="46.03994" lon="5.481">
        <ele>725.6</ele>
        <time>2026-05-09T14:27:21Z</time>
      </trkpt>
      <trkpt lat="46.03995" lon="5.48101">
        <ele>725.6</ele>
        <time>2026-05-09T14:27:22Z</time>
      </trkpt>
      <trkpt lat="46.03997" lon="5.48102">
        <ele>725.8</ele>
        <time>2026-05-09T14:27:23Z</time>
      </trkpt>
      <trkpt lat="46.03998" lon="5.48103">
        <ele>725.8</ele>
        <time>2026-05-09T14:27:24Z</time>
      </trkpt>
      <trkpt lat="46.04" lon="5.48105">
        <ele>725.8</ele>
        <time>2026-05-09T14:27:25Z</time>
      </trkpt>
      <trkpt lat="46.04002" lon="5.48106">
        <ele>725.8</ele>
        <time>2026-05-09T14:27:26Z</time>
      </trkpt>
      <trkpt lat="46.04004" lon="5.48107">
        <ele>724.8</ele>
        <time>2026-05-09T14:27:27Z</time>
      </trkpt>
      <trkpt lat="46.04004" lon="5.48107">
        <ele>725.2</ele>
        <time>2026-05-09T14:27:28Z</time>
      </trkpt>
      <trkpt lat="46.04004" lon="5.48107">
        <ele>725.2</ele>
        <time>2026-05-09T14:27:29Z</time>
      </trkpt>
      <trkpt lat="46.04011" lon="5.48114">
        <ele>725.6</ele>
        <time>2026-05-09T14:27:30Z</time>
      </trkpt>
      <trkpt lat="46.04012" lon="5.48116">
        <ele>726</ele>
        <time>2026-05-09T14:27:31Z</time>
      </trkpt>
      <trkpt lat="46.04014" lon="5.48118">
        <ele>726</ele>
        <time>2026-05-09T14:27:32Z</time>
      </trkpt>
      <trkpt lat="46.04015" lon="5.48119">
        <ele>726</ele>
        <time>2026-05-09T14:27:33Z</time>
      </trkpt>
      <trkpt lat="46.04017" lon="5.48122">
        <ele>726.2</ele>
        <time>2026-05-09T14:27:34Z</time>
      </trkpt>
      <trkpt lat="46.04019" lon="5.48124">
        <ele>726.4</ele>
        <time>2026-05-09T14:27:35Z</time>
      </trkpt>
      <trkpt lat="46.04021" lon="5.48126">
        <ele>726.8</ele>
        <time>2026-05-09T14:27:36Z</time>
      </trkpt>
      <trkpt lat="46.04022" lon="5.48128">
        <ele>726.8</ele>
        <time>2026-05-09T14:27:37Z</time>
      </trkpt>
      <trkpt lat="46.04024" lon="5.4813">
        <ele>727</ele>
        <time>2026-05-09T14:27:38Z</time>
      </trkpt>
      <trkpt lat="46.04024" lon="5.4813">
        <ele>727</ele>
        <time>2026-05-09T14:27:39Z</time>
      </trkpt>
      <trkpt lat="46.04025" lon="5.48133">
        <ele>727</ele>
        <time>2026-05-09T14:27:40Z</time>
      </trkpt>
      <trkpt lat="46.04026" lon="5.48135">
        <ele>727</ele>
        <time>2026-05-09T14:27:41Z</time>
      </trkpt>
      <trkpt lat="46.04028" lon="5.48138">
        <ele>727.2</ele>
        <time>2026-05-09T14:27:42Z</time>
      </trkpt>
      <trkpt lat="46.04029" lon="5.48141">
        <ele>727.2</ele>
        <time>2026-05-09T14:27:43Z</time>
      </trkpt>
      <trkpt lat="46.04031" lon="5.48143">
        <ele>727.2</ele>
        <time>2026-05-09T14:27:44Z</time>
      </trkpt>
      <trkpt lat="46.04032" lon="5.48146">
        <ele>727.2</ele>
        <time>2026-05-09T14:27:45Z</time>
      </trkpt>
      <trkpt lat="46.04032" lon="5.48149">
        <ele>727.6</ele>
        <time>2026-05-09T14:27:46Z</time>
      </trkpt>
      <trkpt lat="46.04033" lon="5.48153">
        <ele>728</ele>
        <time>2026-05-09T14:27:47Z</time>
      </trkpt>
      <trkpt lat="46.04034" lon="5.48156">
        <ele>728</ele>
        <time>2026-05-09T14:27:48Z</time>
      </trkpt>
      <trkpt lat="46.04035" lon="5.48159">
        <ele>728.2</ele>
        <time>2026-05-09T14:27:49Z</time>
      </trkpt>
      <trkpt lat="46.04036" lon="5.48162">
        <ele>728.4</ele>
        <time>2026-05-09T14:27:50Z</time>
      </trkpt>
      <trkpt lat="46.04037" lon="5.48165">
        <ele>728.4</ele>
        <time>2026-05-09T14:27:51Z</time>
      </trkpt>
      <trkpt lat="46.04037" lon="5.48168">
        <ele>728.4</ele>
        <time>2026-05-09T14:27:52Z</time>
      </trkpt>
      <trkpt lat="46.04038" lon="5.48171">
        <ele>728.6</ele>
        <time>2026-05-09T14:27:53Z</time>
      </trkpt>
      <trkpt lat="46.04039" lon="5.48174">
        <ele>728.6</ele>
        <time>2026-05-09T14:27:54Z</time>
      </trkpt>
      <trkpt lat="46.0404" lon="5.48178">
        <ele>728.6</ele>
        <time>2026-05-09T14:27:55Z</time>
      </trkpt>
      <trkpt lat="46.0404" lon="5.48181">
        <ele>729</ele>
        <time>2026-05-09T14:27:56Z</time>
      </trkpt>
      <trkpt lat="46.04041" lon="5.48183">
        <ele>729</ele>
        <time>2026-05-09T14:27:57Z</time>
      </trkpt>
      <trkpt lat="46.04041" lon="5.48186">
        <ele>729</ele>
        <time>2026-05-09T14:27:58Z</time>
      </trkpt>
      <trkpt lat="46.04041" lon="5.48189">
        <ele>729</ele>
        <time>2026-05-09T14:27:59Z</time>
      </trkpt>
      <trkpt lat="46.04042" lon="5.48193">
        <ele>729</ele>
        <time>2026-05-09T14:28:00Z</time>
      </trkpt>
      <trkpt lat="46.04042" lon="5.48197">
        <ele>729.2</ele>
        <time>2026-05-09T14:28:01Z</time>
      </trkpt>
      <trkpt lat="46.04043" lon="5.482">
        <ele>729.2</ele>
        <time>2026-05-09T14:28:02Z</time>
      </trkpt>
      <trkpt lat="46.04043" lon="5.48204">
        <ele>729.2</ele>
        <time>2026-05-09T14:28:03Z</time>
      </trkpt>
      <trkpt lat="46.04043" lon="5.48207">
        <ele>729.6</ele>
        <time>2026-05-09T14:28:04Z</time>
      </trkpt>
      <trkpt lat="46.04043" lon="5.48211">
        <ele>729.6</ele>
        <time>2026-05-09T14:28:05Z</time>
      </trkpt>
      <trkpt lat="46.04044" lon="5.48214">
        <ele>729.8</ele>
        <time>2026-05-09T14:28:06Z</time>
      </trkpt>
      <trkpt lat="46.04044" lon="5.48218">
        <ele>729.8</ele>
        <time>2026-05-09T14:28:07Z</time>
      </trkpt>
      <trkpt lat="46.04044" lon="5.48221">
        <ele>729.8</ele>
        <time>2026-05-09T14:28:08Z</time>
      </trkpt>
      <trkpt lat="46.04044" lon="5.48225">
        <ele>729.8</ele>
        <time>2026-05-09T14:28:09Z</time>
      </trkpt>
      <trkpt lat="46.04044" lon="5.48228">
        <ele>729.8</ele>
        <time>2026-05-09T14:28:10Z</time>
      </trkpt>
      <trkpt lat="46.04044" lon="5.48232">
        <ele>730</ele>
        <time>2026-05-09T14:28:11Z</time>
      </trkpt>
      <trkpt lat="46.04044" lon="5.48235">
        <ele>730</ele>
        <time>2026-05-09T14:28:12Z</time>
      </trkpt>
      <trkpt lat="46.04044" lon="5.48239">
        <ele>730.4</ele>
        <time>2026-05-09T14:28:13Z</time>
      </trkpt>
      <trkpt lat="46.04043" lon="5.48242">
        <ele>730.4</ele>
        <time>2026-05-09T14:28:14Z</time>
      </trkpt>
      <trkpt lat="46.04042" lon="5.48246">
        <ele>730.6</ele>
        <time>2026-05-09T14:28:15Z</time>
      </trkpt>
      <trkpt lat="46.04042" lon="5.4825">
        <ele>730.6</ele>
        <time>2026-05-09T14:28:16Z</time>
      </trkpt>
      <trkpt lat="46.04041" lon="5.48253">
        <ele>730.6</ele>
        <time>2026-05-09T14:28:17Z</time>
      </trkpt>
      <trkpt lat="46.0404" lon="5.48257">
        <ele>730.6</ele>
        <time>2026-05-09T14:28:18Z</time>
      </trkpt>
      <trkpt lat="46.04038" lon="5.48261">
        <ele>730.6</ele>
        <time>2026-05-09T14:28:19Z</time>
      </trkpt>
      <trkpt lat="46.04037" lon="5.48265">
        <ele>730.8</ele>
        <time>2026-05-09T14:28:20Z</time>
      </trkpt>
      <trkpt lat="46.04036" lon="5.48268">
        <ele>730.8</ele>
        <time>2026-05-09T14:28:21Z</time>
      </trkpt>
      <trkpt lat="46.04035" lon="5.48271">
        <ele>730.8</ele>
        <time>2026-05-09T14:28:22Z</time>
      </trkpt>
      <trkpt lat="46.04034" lon="5.48274">
        <ele>730.8</ele>
        <time>2026-05-09T14:28:23Z</time>
      </trkpt>
      <trkpt lat="46.04034" lon="5.48277">
        <ele>730.8</ele>
        <time>2026-05-09T14:28:24Z</time>
      </trkpt>
      <trkpt lat="46.04033" lon="5.48281">
        <ele>731.2</ele>
        <time>2026-05-09T14:28:25Z</time>
      </trkpt>
      <trkpt lat="46.04031" lon="5.48286">
        <ele>731.2</ele>
        <time>2026-05-09T14:28:26Z</time>
      </trkpt>
      <trkpt lat="46.0403" lon="5.4829">
        <ele>731.2</ele>
        <time>2026-05-09T14:28:27Z</time>
      </trkpt>
      <trkpt lat="46.04028" lon="5.48294">
        <ele>731.2</ele>
        <time>2026-05-09T14:28:28Z</time>
      </trkpt>
      <trkpt lat="46.04026" lon="5.48297">
        <ele>731.2</ele>
        <time>2026-05-09T14:28:29Z</time>
      </trkpt>
      <trkpt lat="46.04025" lon="5.48301">
        <ele>731.2</ele>
        <time>2026-05-09T14:28:30Z</time>
      </trkpt>
      <trkpt lat="46.04023" lon="5.48305">
        <ele>731.2</ele>
        <time>2026-05-09T14:28:31Z</time>
      </trkpt>
      <trkpt lat="46.04021" lon="5.4831">
        <ele>731.2</ele>
        <time>2026-05-09T14:28:32Z</time>
      </trkpt>
      <trkpt lat="46.04019" lon="5.48314">
        <ele>731.2</ele>
        <time>2026-05-09T14:28:33Z</time>
      </trkpt>
      <trkpt lat="46.04018" lon="5.48318">
        <ele>731.2</ele>
        <time>2026-05-09T14:28:34Z</time>
      </trkpt>
      <trkpt lat="46.04016" lon="5.48322">
        <ele>731.2</ele>
        <time>2026-05-09T14:28:35Z</time>
      </trkpt>
      <trkpt lat="46.04011" lon="5.48329">
        <ele>731.2</ele>
        <time>2026-05-09T14:28:36Z</time>
      </trkpt>
      <trkpt lat="46.04009" lon="5.48333">
        <ele>731.2</ele>
        <time>2026-05-09T14:28:37Z</time>
      </trkpt>
      <trkpt lat="46.04006" lon="5.48337">
        <ele>731.2</ele>
        <time>2026-05-09T14:28:38Z</time>
      </trkpt>
      <trkpt lat="46.04004" lon="5.48341">
        <ele>731.2</ele>
        <time>2026-05-09T14:28:39Z</time>
      </trkpt>
      <trkpt lat="46.04001" lon="5.48345">
        <ele>731.4</ele>
        <time>2026-05-09T14:28:40Z</time>
      </trkpt>
      <trkpt lat="46.03999" lon="5.48349">
        <ele>731.4</ele>
        <time>2026-05-09T14:28:41Z</time>
      </trkpt>
      <trkpt lat="46.03996" lon="5.48352">
        <ele>731.4</ele>
        <time>2026-05-09T14:28:42Z</time>
      </trkpt>
      <trkpt lat="46.03993" lon="5.48355">
        <ele>731.6</ele>
        <time>2026-05-09T14:28:43Z</time>
      </trkpt>
      <trkpt lat="46.0399" lon="5.48357">
        <ele>731.6</ele>
        <time>2026-05-09T14:28:44Z</time>
      </trkpt>
      <trkpt lat="46.03987" lon="5.48359">
        <ele>731.6</ele>
        <time>2026-05-09T14:28:45Z</time>
      </trkpt>
      <trkpt lat="46.03984" lon="5.48362">
        <ele>732</ele>
        <time>2026-05-09T14:28:46Z</time>
      </trkpt>
      <trkpt lat="46.03981" lon="5.48364">
        <ele>732</ele>
        <time>2026-05-09T14:28:47Z</time>
      </trkpt>
      <trkpt lat="46.03978" lon="5.48366">
        <ele>732</ele>
        <time>2026-05-09T14:28:48Z</time>
      </trkpt>
      <trkpt lat="46.03975" lon="5.48367">
        <ele>732</ele>
        <time>2026-05-09T14:28:49Z</time>
      </trkpt>
      <trkpt lat="46.03972" lon="5.48368">
        <ele>732</ele>
        <time>2026-05-09T14:28:50Z</time>
      </trkpt>
      <trkpt lat="46.03969" lon="5.48369">
        <ele>732.2</ele>
        <time>2026-05-09T14:28:51Z</time>
      </trkpt>
      <trkpt lat="46.03966" lon="5.4837">
        <ele>732.2</ele>
        <time>2026-05-09T14:28:52Z</time>
      </trkpt>
      <trkpt lat="46.03963" lon="5.48371">
        <ele>732.4</ele>
        <time>2026-05-09T14:28:53Z</time>
      </trkpt>
      <trkpt lat="46.0396" lon="5.48373">
        <ele>732.4</ele>
        <time>2026-05-09T14:28:54Z</time>
      </trkpt>
      <trkpt lat="46.03958" lon="5.48375">
        <ele>732.4</ele>
        <time>2026-05-09T14:28:55Z</time>
      </trkpt>
      <trkpt lat="46.03955" lon="5.48377">
        <ele>732.6</ele>
        <time>2026-05-09T14:28:56Z</time>
      </trkpt>
      <trkpt lat="46.03952" lon="5.48378">
        <ele>732.6</ele>
        <time>2026-05-09T14:28:57Z</time>
      </trkpt>
      <trkpt lat="46.0395" lon="5.4838">
        <ele>732.6</ele>
        <time>2026-05-09T14:28:58Z</time>
      </trkpt>
      <trkpt lat="46.03947" lon="5.48382">
        <ele>732.6</ele>
        <time>2026-05-09T14:28:59Z</time>
      </trkpt>
      <trkpt lat="46.03945" lon="5.48385">
        <ele>732.6</ele>
        <time>2026-05-09T14:29:00Z</time>
      </trkpt>
      <trkpt lat="46.03944" lon="5.48386">
        <ele>733</ele>
        <time>2026-05-09T14:29:01Z</time>
      </trkpt>
      <trkpt lat="46.03943" lon="5.48387">
        <ele>733</ele>
        <time>2026-05-09T14:29:02Z</time>
      </trkpt>
      <trkpt lat="46.03941" lon="5.48389">
        <ele>733.2</ele>
        <time>2026-05-09T14:29:03Z</time>
      </trkpt>
      <trkpt lat="46.03939" lon="5.48389">
        <ele>733.2</ele>
        <time>2026-05-09T14:29:04Z</time>
      </trkpt>
      <trkpt lat="46.03937" lon="5.4839">
        <ele>733.6</ele>
        <time>2026-05-09T14:29:05Z</time>
      </trkpt>
      <trkpt lat="46.03935" lon="5.4839">
        <ele>733.8</ele>
        <time>2026-05-09T14:29:06Z</time>
      </trkpt>
      <trkpt lat="46.03934" lon="5.4839">
        <ele>733.8</ele>
        <time>2026-05-09T14:29:07Z</time>
      </trkpt>
      <trkpt lat="46.03932" lon="5.4839">
        <ele>734.2</ele>
        <time>2026-05-09T14:29:08Z</time>
      </trkpt>
      <trkpt lat="46.0393" lon="5.4839">
        <ele>734.4</ele>
        <time>2026-05-09T14:29:09Z</time>
      </trkpt>
      <trkpt lat="46.03929" lon="5.4839">
        <ele>734.4</ele>
        <time>2026-05-09T14:29:10Z</time>
      </trkpt>
      <trkpt lat="46.03927" lon="5.48391">
        <ele>734.4</ele>
        <time>2026-05-09T14:29:11Z</time>
      </trkpt>
      <trkpt lat="46.03925" lon="5.48391">
        <ele>734.8</ele>
        <time>2026-05-09T14:29:12Z</time>
      </trkpt>
      <trkpt lat="46.03924" lon="5.48391">
        <ele>734.8</ele>
        <time>2026-05-09T14:29:13Z</time>
      </trkpt>
      <trkpt lat="46.03922" lon="5.48392">
        <ele>735</ele>
        <time>2026-05-09T14:29:14Z</time>
      </trkpt>
      <trkpt lat="46.0392" lon="5.48392">
        <ele>735.2</ele>
        <time>2026-05-09T14:29:15Z</time>
      </trkpt>
      <trkpt lat="46.03918" lon="5.48393">
        <ele>735.2</ele>
        <time>2026-05-09T14:29:16Z</time>
      </trkpt>
      <trkpt lat="46.03917" lon="5.48393">
        <ele>735.6</ele>
        <time>2026-05-09T14:29:17Z</time>
      </trkpt>
      <trkpt lat="46.03915" lon="5.48393">
        <ele>735.6</ele>
        <time>2026-05-09T14:29:18Z</time>
      </trkpt>
      <trkpt lat="46.03913" lon="5.48394">
        <ele>735.6</ele>
        <time>2026-05-09T14:29:19Z</time>
      </trkpt>
      <trkpt lat="46.03912" lon="5.48394">
        <ele>735.8</ele>
        <time>2026-05-09T14:29:20Z</time>
      </trkpt>
      <trkpt lat="46.0391" lon="5.48394">
        <ele>735.8</ele>
        <time>2026-05-09T14:29:21Z</time>
      </trkpt>
      <trkpt lat="46.03908" lon="5.48395">
        <ele>735.8</ele>
        <time>2026-05-09T14:29:22Z</time>
      </trkpt>
      <trkpt lat="46.03907" lon="5.48395">
        <ele>736.2</ele>
        <time>2026-05-09T14:29:23Z</time>
      </trkpt>
      <trkpt lat="46.03905" lon="5.48395">
        <ele>736.2</ele>
        <time>2026-05-09T14:29:24Z</time>
      </trkpt>
      <trkpt lat="46.03903" lon="5.48395">
        <ele>736.4</ele>
        <time>2026-05-09T14:29:25Z</time>
      </trkpt>
      <trkpt lat="46.03902" lon="5.48395">
        <ele>736.4</ele>
        <time>2026-05-09T14:29:26Z</time>
      </trkpt>
      <trkpt lat="46.039" lon="5.48396">
        <ele>736.6</ele>
        <time>2026-05-09T14:29:27Z</time>
      </trkpt>
      <trkpt lat="46.03898" lon="5.48396">
        <ele>736.6</ele>
        <time>2026-05-09T14:29:28Z</time>
      </trkpt>
      <trkpt lat="46.03896" lon="5.48397">
        <ele>737</ele>
        <time>2026-05-09T14:29:29Z</time>
      </trkpt>
      <trkpt lat="46.03894" lon="5.48397">
        <ele>737</ele>
        <time>2026-05-09T14:29:30Z</time>
      </trkpt>
      <trkpt lat="46.03892" lon="5.48398">
        <ele>737.2</ele>
        <time>2026-05-09T14:29:31Z</time>
      </trkpt>
      <trkpt lat="46.03889" lon="5.48398">
        <ele>737.2</ele>
        <time>2026-05-09T14:29:32Z</time>
      </trkpt>
      <trkpt lat="46.03888" lon="5.48399">
        <ele>737.2</ele>
        <time>2026-05-09T14:29:33Z</time>
      </trkpt>
      <trkpt lat="46.03886" lon="5.48399">
        <ele>737.4</ele>
        <time>2026-05-09T14:29:34Z</time>
      </trkpt>
      <trkpt lat="46.03884" lon="5.484">
        <ele>737.4</ele>
        <time>2026-05-09T14:29:35Z</time>
      </trkpt>
      <trkpt lat="46.03881" lon="5.48401">
        <ele>737.4</ele>
        <time>2026-05-09T14:29:36Z</time>
      </trkpt>
      <trkpt lat="46.03879" lon="5.48401">
        <ele>737.8</ele>
        <time>2026-05-09T14:29:37Z</time>
      </trkpt>
      <trkpt lat="46.03877" lon="5.48402">
        <ele>738</ele>
        <time>2026-05-09T14:29:38Z</time>
      </trkpt>
      <trkpt lat="46.03876" lon="5.48403">
        <ele>738</ele>
        <time>2026-05-09T14:29:39Z</time>
      </trkpt>
      <trkpt lat="46.03874" lon="5.48404">
        <ele>738.2</ele>
        <time>2026-05-09T14:29:40Z</time>
      </trkpt>
      <trkpt lat="46.03872" lon="5.48406">
        <ele>738.2</ele>
        <time>2026-05-09T14:29:41Z</time>
      </trkpt>
      <trkpt lat="46.0387" lon="5.48407">
        <ele>738.6</ele>
        <time>2026-05-09T14:29:42Z</time>
      </trkpt>
      <trkpt lat="46.03869" lon="5.48408">
        <ele>738.6</ele>
        <time>2026-05-09T14:29:43Z</time>
      </trkpt>
      <trkpt lat="46.03867" lon="5.48409">
        <ele>738.6</ele>
        <time>2026-05-09T14:29:44Z</time>
      </trkpt>
      <trkpt lat="46.03865" lon="5.48411">
        <ele>738.8</ele>
        <time>2026-05-09T14:29:45Z</time>
      </trkpt>
      <trkpt lat="46.03863" lon="5.48412">
        <ele>739</ele>
        <time>2026-05-09T14:29:46Z</time>
      </trkpt>
      <trkpt lat="46.03862" lon="5.48413">
        <ele>739</ele>
        <time>2026-05-09T14:29:47Z</time>
      </trkpt>
      <trkpt lat="46.03861" lon="5.48414">
        <ele>739.4</ele>
        <time>2026-05-09T14:29:48Z</time>
      </trkpt>
      <trkpt lat="46.0386" lon="5.48416">
        <ele>739.4</ele>
        <time>2026-05-09T14:29:49Z</time>
      </trkpt>
      <trkpt lat="46.03858" lon="5.48417">
        <ele>739.6</ele>
        <time>2026-05-09T14:29:50Z</time>
      </trkpt>
      <trkpt lat="46.03856" lon="5.48418">
        <ele>739.6</ele>
        <time>2026-05-09T14:29:51Z</time>
      </trkpt>
      <trkpt lat="46.03855" lon="5.48419">
        <ele>739.8</ele>
        <time>2026-05-09T14:29:52Z</time>
      </trkpt>
      <trkpt lat="46.03855" lon="5.48419">
        <ele>739.8</ele>
        <time>2026-05-09T14:29:53Z</time>
      </trkpt>
      <trkpt lat="46.03854" lon="5.4842">
        <ele>739.8</ele>
        <time>2026-05-09T14:29:54Z</time>
      </trkpt>
      <trkpt lat="46.03853" lon="5.48422">
        <ele>740</ele>
        <time>2026-05-09T14:29:55Z</time>
      </trkpt>
      <trkpt lat="46.03851" lon="5.48424">
        <ele>740</ele>
        <time>2026-05-09T14:29:56Z</time>
      </trkpt>
      <trkpt lat="46.0385" lon="5.48426">
        <ele>740</ele>
        <time>2026-05-09T14:29:57Z</time>
      </trkpt>
      <trkpt lat="46.03848" lon="5.48427">
        <ele>740.4</ele>
        <time>2026-05-09T14:29:58Z</time>
      </trkpt>
      <trkpt lat="46.03847" lon="5.48428">
        <ele>740.4</ele>
        <time>2026-05-09T14:29:59Z</time>
      </trkpt>
      <trkpt lat="46.03846" lon="5.4843">
        <ele>740.4</ele>
        <time>2026-05-09T14:30:00Z</time>
      </trkpt>
      <trkpt lat="46.03844" lon="5.48432">
        <ele>740.6</ele>
        <time>2026-05-09T14:30:01Z</time>
      </trkpt>
      <trkpt lat="46.03843" lon="5.48434">
        <ele>741</ele>
        <time>2026-05-09T14:30:02Z</time>
      </trkpt>
      <trkpt lat="46.03842" lon="5.48436">
        <ele>741</ele>
        <time>2026-05-09T14:30:03Z</time>
      </trkpt>
      <trkpt lat="46.03841" lon="5.48438">
        <ele>741.2</ele>
        <time>2026-05-09T14:30:04Z</time>
      </trkpt>
      <trkpt lat="46.0384" lon="5.4844">
        <ele>741.2</ele>
        <time>2026-05-09T14:30:05Z</time>
      </trkpt>
      <trkpt lat="46.03839" lon="5.48441">
        <ele>741.2</ele>
        <time>2026-05-09T14:30:06Z</time>
      </trkpt>
      <trkpt lat="46.03838" lon="5.48444">
        <ele>741.2</ele>
        <time>2026-05-09T14:30:07Z</time>
      </trkpt>
      <trkpt lat="46.03838" lon="5.48446">
        <ele>741.4</ele>
        <time>2026-05-09T14:30:08Z</time>
      </trkpt>
      <trkpt lat="46.03838" lon="5.48446">
        <ele>741.4</ele>
        <time>2026-05-09T14:30:09Z</time>
      </trkpt>
      <trkpt lat="46.03837" lon="5.48448">
        <ele>741.4</ele>
        <time>2026-05-09T14:30:10Z</time>
      </trkpt>
      <trkpt lat="46.03836" lon="5.48451">
        <ele>741.8</ele>
        <time>2026-05-09T14:30:11Z</time>
      </trkpt>
      <trkpt lat="46.03836" lon="5.48453">
        <ele>741.8</ele>
        <time>2026-05-09T14:30:12Z</time>
      </trkpt>
      <trkpt lat="46.03835" lon="5.48455">
        <ele>742</ele>
        <time>2026-05-09T14:30:13Z</time>
      </trkpt>
      <trkpt lat="46.03835" lon="5.48457">
        <ele>742</ele>
        <time>2026-05-09T14:30:14Z</time>
      </trkpt>
      <trkpt lat="46.03835" lon="5.48458">
        <ele>742.2</ele>
        <time>2026-05-09T14:30:15Z</time>
      </trkpt>
      <trkpt lat="46.03834" lon="5.4846">
        <ele>742.4</ele>
        <time>2026-05-09T14:30:16Z</time>
      </trkpt>
      <trkpt lat="46.03834" lon="5.48462">
        <ele>742.4</ele>
        <time>2026-05-09T14:30:17Z</time>
      </trkpt>
      <trkpt lat="46.03834" lon="5.48464">
        <ele>742.4</ele>
        <time>2026-05-09T14:30:18Z</time>
      </trkpt>
      <trkpt lat="46.03834" lon="5.48466">
        <ele>742.4</ele>
        <time>2026-05-09T14:30:19Z</time>
      </trkpt>
      <trkpt lat="46.03834" lon="5.48467">
        <ele>742.8</ele>
        <time>2026-05-09T14:30:20Z</time>
      </trkpt>
      <trkpt lat="46.03834" lon="5.48469">
        <ele>742.8</ele>
        <time>2026-05-09T14:30:21Z</time>
      </trkpt>
      <trkpt lat="46.03835" lon="5.48472">
        <ele>742.8</ele>
        <time>2026-05-09T14:30:22Z</time>
      </trkpt>
      <trkpt lat="46.03835" lon="5.48475">
        <ele>743.2</ele>
        <time>2026-05-09T14:30:23Z</time>
      </trkpt>
      <trkpt lat="46.03835" lon="5.48477">
        <ele>743.2</ele>
        <time>2026-05-09T14:30:24Z</time>
      </trkpt>
      <trkpt lat="46.03835" lon="5.4848">
        <ele>743.4</ele>
        <time>2026-05-09T14:30:25Z</time>
      </trkpt>
      <trkpt lat="46.03834" lon="5.48483">
        <ele>743.4</ele>
        <time>2026-05-09T14:30:26Z</time>
      </trkpt>
      <trkpt lat="46.03834" lon="5.48486">
        <ele>743.8</ele>
        <time>2026-05-09T14:30:27Z</time>
      </trkpt>
      <trkpt lat="46.03834" lon="5.48489">
        <ele>744</ele>
        <time>2026-05-09T14:30:28Z</time>
      </trkpt>
      <trkpt lat="46.03834" lon="5.48491">
        <ele>744</ele>
        <time>2026-05-09T14:30:29Z</time>
      </trkpt>
      <trkpt lat="46.03835" lon="5.48494">
        <ele>744.2</ele>
        <time>2026-05-09T14:30:30Z</time>
      </trkpt>
      <trkpt lat="46.03835" lon="5.48496">
        <ele>744.2</ele>
        <time>2026-05-09T14:30:31Z</time>
      </trkpt>
      <trkpt lat="46.03836" lon="5.48499">
        <ele>744.4</ele>
        <time>2026-05-09T14:30:32Z</time>
      </trkpt>
      <trkpt lat="46.03836" lon="5.48501">
        <ele>744.8</ele>
        <time>2026-05-09T14:30:33Z</time>
      </trkpt>
      <trkpt lat="46.03837" lon="5.48504">
        <ele>744.8</ele>
        <time>2026-05-09T14:30:34Z</time>
      </trkpt>
      <trkpt lat="46.03837" lon="5.48506">
        <ele>744.8</ele>
        <time>2026-05-09T14:30:35Z</time>
      </trkpt>
      <trkpt lat="46.03838" lon="5.48509">
        <ele>745.2</ele>
        <time>2026-05-09T14:30:36Z</time>
      </trkpt>
      <trkpt lat="46.03838" lon="5.48511">
        <ele>745.2</ele>
        <time>2026-05-09T14:30:37Z</time>
      </trkpt>
      <trkpt lat="46.03839" lon="5.48513">
        <ele>745.4</ele>
        <time>2026-05-09T14:30:38Z</time>
      </trkpt>
      <trkpt lat="46.03839" lon="5.48516">
        <ele>745.4</ele>
        <time>2026-05-09T14:30:39Z</time>
      </trkpt>
      <trkpt lat="46.03839" lon="5.48518">
        <ele>745.4</ele>
        <time>2026-05-09T14:30:40Z</time>
      </trkpt>
      <trkpt lat="46.0384" lon="5.4852">
        <ele>745.6</ele>
        <time>2026-05-09T14:30:41Z</time>
      </trkpt>
      <trkpt lat="46.0384" lon="5.48522">
        <ele>745.6</ele>
        <time>2026-05-09T14:30:42Z</time>
      </trkpt>
      <trkpt lat="46.0384" lon="5.48524">
        <ele>745.8</ele>
        <time>2026-05-09T14:30:43Z</time>
      </trkpt>
      <trkpt lat="46.03841" lon="5.48527">
        <ele>745.8</ele>
        <time>2026-05-09T14:30:44Z</time>
      </trkpt>
      <trkpt lat="46.03841" lon="5.48529">
        <ele>745.8</ele>
        <time>2026-05-09T14:30:45Z</time>
      </trkpt>
      <trkpt lat="46.03842" lon="5.48532">
        <ele>746.2</ele>
        <time>2026-05-09T14:30:46Z</time>
      </trkpt>
      <trkpt lat="46.03843" lon="5.48534">
        <ele>746.2</ele>
        <time>2026-05-09T14:30:47Z</time>
      </trkpt>
      <trkpt lat="46.03844" lon="5.48536">
        <ele>746.2</ele>
        <time>2026-05-09T14:30:48Z</time>
      </trkpt>
      <trkpt lat="46.03845" lon="5.48538">
        <ele>746.2</ele>
        <time>2026-05-09T14:30:49Z</time>
      </trkpt>
      <trkpt lat="46.03846" lon="5.4854">
        <ele>746.2</ele>
        <time>2026-05-09T14:30:50Z</time>
      </trkpt>
      <trkpt lat="46.03847" lon="5.48543">
        <ele>746.6</ele>
        <time>2026-05-09T14:30:51Z</time>
      </trkpt>
      <trkpt lat="46.03848" lon="5.48546">
        <ele>746.8</ele>
        <time>2026-05-09T14:30:52Z</time>
      </trkpt>
      <trkpt lat="46.03849" lon="5.48548">
        <ele>746.8</ele>
        <time>2026-05-09T14:30:53Z</time>
      </trkpt>
      <trkpt lat="46.0385" lon="5.48551">
        <ele>746.8</ele>
        <time>2026-05-09T14:30:54Z</time>
      </trkpt>
      <trkpt lat="46.03851" lon="5.48553">
        <ele>746.8</ele>
        <time>2026-05-09T14:30:55Z</time>
      </trkpt>
      <trkpt lat="46.03852" lon="5.48555">
        <ele>747</ele>
        <time>2026-05-09T14:30:56Z</time>
      </trkpt>
      <trkpt lat="46.03852" lon="5.48557">
        <ele>747</ele>
        <time>2026-05-09T14:30:57Z</time>
      </trkpt>
      <trkpt lat="46.03853" lon="5.4856">
        <ele>747</ele>
        <time>2026-05-09T14:30:58Z</time>
      </trkpt>
      <trkpt lat="46.03855" lon="5.48562">
        <ele>747.2</ele>
        <time>2026-05-09T14:30:59Z</time>
      </trkpt>
      <trkpt lat="46.03856" lon="5.48565">
        <ele>747.2</ele>
        <time>2026-05-09T14:31:00Z</time>
      </trkpt>
      <trkpt lat="46.03857" lon="5.48567">
        <ele>747.2</ele>
        <time>2026-05-09T14:31:01Z</time>
      </trkpt>
      <trkpt lat="46.03858" lon="5.4857">
        <ele>747.8</ele>
        <time>2026-05-09T14:31:02Z</time>
      </trkpt>
      <trkpt lat="46.03859" lon="5.48572">
        <ele>747.8</ele>
        <time>2026-05-09T14:31:03Z</time>
      </trkpt>
      <trkpt lat="46.0386" lon="5.48575">
        <ele>747.8</ele>
        <time>2026-05-09T14:31:04Z</time>
      </trkpt>
      <trkpt lat="46.03862" lon="5.48578">
        <ele>747.8</ele>
        <time>2026-05-09T14:31:05Z</time>
      </trkpt>
      <trkpt lat="46.03863" lon="5.48581">
        <ele>748</ele>
        <time>2026-05-09T14:31:06Z</time>
      </trkpt>
      <trkpt lat="46.03865" lon="5.48583">
        <ele>748</ele>
        <time>2026-05-09T14:31:07Z</time>
      </trkpt>
      <trkpt lat="46.03866" lon="5.48586">
        <ele>748</ele>
        <time>2026-05-09T14:31:08Z</time>
      </trkpt>
      <trkpt lat="46.03867" lon="5.48589">
        <ele>748.2</ele>
        <time>2026-05-09T14:31:09Z</time>
      </trkpt>
      <trkpt lat="46.03868" lon="5.48592">
        <ele>748.2</ele>
        <time>2026-05-09T14:31:10Z</time>
      </trkpt>
      <trkpt lat="46.03869" lon="5.48594">
        <ele>748.4</ele>
        <time>2026-05-09T14:31:11Z</time>
      </trkpt>
      <trkpt lat="46.0387" lon="5.48597">
        <ele>748.4</ele>
        <time>2026-05-09T14:31:12Z</time>
      </trkpt>
      <trkpt lat="46.03871" lon="5.486">
        <ele>748.4</ele>
        <time>2026-05-09T14:31:13Z</time>
      </trkpt>
      <trkpt lat="46.03872" lon="5.48603">
        <ele>748.4</ele>
        <time>2026-05-09T14:31:14Z</time>
      </trkpt>
      <trkpt lat="46.03872" lon="5.48605">
        <ele>748.6</ele>
        <time>2026-05-09T14:31:15Z</time>
      </trkpt>
      <trkpt lat="46.03873" lon="5.48608">
        <ele>748.6</ele>
        <time>2026-05-09T14:31:16Z</time>
      </trkpt>
      <trkpt lat="46.03873" lon="5.48611">
        <ele>748.6</ele>
        <time>2026-05-09T14:31:17Z</time>
      </trkpt>
      <trkpt lat="46.03874" lon="5.48614">
        <ele>748.6</ele>
        <time>2026-05-09T14:31:18Z</time>
      </trkpt>
      <trkpt lat="46.03875" lon="5.48617">
        <ele>748.6</ele>
        <time>2026-05-09T14:31:19Z</time>
      </trkpt>
      <trkpt lat="46.03876" lon="5.4862">
        <ele>748.6</ele>
        <time>2026-05-09T14:31:20Z</time>
      </trkpt>
      <trkpt lat="46.03877" lon="5.48624">
        <ele>749.2</ele>
        <time>2026-05-09T14:31:21Z</time>
      </trkpt>
      <trkpt lat="46.03878" lon="5.48627">
        <ele>749.4</ele>
        <time>2026-05-09T14:31:22Z</time>
      </trkpt>
      <trkpt lat="46.03879" lon="5.48631">
        <ele>749.4</ele>
        <time>2026-05-09T14:31:23Z</time>
      </trkpt>
      <trkpt lat="46.03879" lon="5.48634">
        <ele>749.4</ele>
        <time>2026-05-09T14:31:24Z</time>
      </trkpt>
      <trkpt lat="46.03879" lon="5.48638">
        <ele>749.4</ele>
        <time>2026-05-09T14:31:25Z</time>
      </trkpt>
      <trkpt lat="46.0388" lon="5.48642">
        <ele>749.4</ele>
        <time>2026-05-09T14:31:26Z</time>
      </trkpt>
      <trkpt lat="46.0388" lon="5.48646">
        <ele>749.6</ele>
        <time>2026-05-09T14:31:27Z</time>
      </trkpt>
      <trkpt lat="46.0388" lon="5.4865">
        <ele>749.6</ele>
        <time>2026-05-09T14:31:28Z</time>
      </trkpt>
      <trkpt lat="46.0388" lon="5.48654">
        <ele>749.6</ele>
        <time>2026-05-09T14:31:29Z</time>
      </trkpt>
      <trkpt lat="46.03881" lon="5.48658">
        <ele>749.6</ele>
        <time>2026-05-09T14:31:30Z</time>
      </trkpt>
      <trkpt lat="46.03881" lon="5.48663">
        <ele>749.6</ele>
        <time>2026-05-09T14:31:31Z</time>
      </trkpt>
      <trkpt lat="46.03882" lon="5.48672">
        <ele>749.6</ele>
        <time>2026-05-09T14:31:32Z</time>
      </trkpt>
      <trkpt lat="46.03883" lon="5.48676">
        <ele>749.6</ele>
        <time>2026-05-09T14:31:33Z</time>
      </trkpt>
      <trkpt lat="46.03883" lon="5.48681">
        <ele>749.6</ele>
        <time>2026-05-09T14:31:34Z</time>
      </trkpt>
      <trkpt lat="46.03883" lon="5.48686">
        <ele>749.6</ele>
        <time>2026-05-09T14:31:35Z</time>
      </trkpt>
      <trkpt lat="46.03883" lon="5.48691">
        <ele>749.6</ele>
        <time>2026-05-09T14:31:36Z</time>
      </trkpt>
      <trkpt lat="46.03883" lon="5.48696">
        <ele>749.6</ele>
        <time>2026-05-09T14:31:37Z</time>
      </trkpt>
      <trkpt lat="46.03883" lon="5.48701">
        <ele>749.6</ele>
        <time>2026-05-09T14:31:38Z</time>
      </trkpt>
      <trkpt lat="46.03883" lon="5.48707">
        <ele>749.6</ele>
        <time>2026-05-09T14:31:39Z</time>
      </trkpt>
      <trkpt lat="46.03883" lon="5.48713">
        <ele>749.6</ele>
        <time>2026-05-09T14:31:40Z</time>
      </trkpt>
      <trkpt lat="46.03883" lon="5.48719">
        <ele>749.4</ele>
        <time>2026-05-09T14:31:41Z</time>
      </trkpt>
      <trkpt lat="46.03883" lon="5.48725">
        <ele>749.4</ele>
        <time>2026-05-09T14:31:42Z</time>
      </trkpt>
      <trkpt lat="46.03883" lon="5.48732">
        <ele>749</ele>
        <time>2026-05-09T14:31:43Z</time>
      </trkpt>
      <trkpt lat="46.03882" lon="5.48739">
        <ele>748.6</ele>
        <time>2026-05-09T14:31:44Z</time>
      </trkpt>
      <trkpt lat="46.03883" lon="5.48747">
        <ele>748.4</ele>
        <time>2026-05-09T14:31:45Z</time>
      </trkpt>
      <trkpt lat="46.03881" lon="5.48755">
        <ele>748.4</ele>
        <time>2026-05-09T14:31:46Z</time>
      </trkpt>
      <trkpt lat="46.0388" lon="5.48764">
        <ele>748</ele>
        <time>2026-05-09T14:31:47Z</time>
      </trkpt>
      <trkpt lat="46.03879" lon="5.48773">
        <ele>747.8</ele>
        <time>2026-05-09T14:31:48Z</time>
      </trkpt>
      <trkpt lat="46.03878" lon="5.48783">
        <ele>747.4</ele>
        <time>2026-05-09T14:31:49Z</time>
      </trkpt>
      <trkpt lat="46.03877" lon="5.48794">
        <ele>747</ele>
        <time>2026-05-09T14:31:50Z</time>
      </trkpt>
      <trkpt lat="46.03875" lon="5.48804">
        <ele>746.8</ele>
        <time>2026-05-09T14:31:51Z</time>
      </trkpt>
      <trkpt lat="46.03874" lon="5.48815">
        <ele>746.2</ele>
        <time>2026-05-09T14:31:52Z</time>
      </trkpt>
      <trkpt lat="46.03871" lon="5.48826">
        <ele>745.8</ele>
        <time>2026-05-09T14:31:53Z</time>
      </trkpt>
      <trkpt lat="46.03869" lon="5.48837">
        <ele>745.8</ele>
        <time>2026-05-09T14:31:54Z</time>
      </trkpt>
      <trkpt lat="46.03865" lon="5.48847">
        <ele>745.2</ele>
        <time>2026-05-09T14:31:55Z</time>
      </trkpt>
      <trkpt lat="46.03862" lon="5.48858">
        <ele>745</ele>
        <time>2026-05-09T14:31:56Z</time>
      </trkpt>
      <trkpt lat="46.03858" lon="5.48868">
        <ele>744.8</ele>
        <time>2026-05-09T14:31:57Z</time>
      </trkpt>
      <trkpt lat="46.03854" lon="5.48877">
        <ele>744.4</ele>
        <time>2026-05-09T14:31:58Z</time>
      </trkpt>
      <trkpt lat="46.0385" lon="5.48887">
        <ele>744.2</ele>
        <time>2026-05-09T14:31:59Z</time>
      </trkpt>
      <trkpt lat="46.03846" lon="5.48895">
        <ele>744.2</ele>
        <time>2026-05-09T14:32:00Z</time>
      </trkpt>
      <trkpt lat="46.03841" lon="5.48904">
        <ele>744.2</ele>
        <time>2026-05-09T14:32:01Z</time>
      </trkpt>
      <trkpt lat="46.03838" lon="5.48913">
        <ele>743.8</ele>
        <time>2026-05-09T14:32:02Z</time>
      </trkpt>
      <trkpt lat="46.03833" lon="5.4892">
        <ele>743.8</ele>
        <time>2026-05-09T14:32:03Z</time>
      </trkpt>
      <trkpt lat="46.03829" lon="5.48927">
        <ele>743.8</ele>
        <time>2026-05-09T14:32:04Z</time>
      </trkpt>
      <trkpt lat="46.03825" lon="5.48934">
        <ele>743.8</ele>
        <time>2026-05-09T14:32:05Z</time>
      </trkpt>
      <trkpt lat="46.03821" lon="5.48939">
        <ele>743.8</ele>
        <time>2026-05-09T14:32:06Z</time>
      </trkpt>
      <trkpt lat="46.03818" lon="5.48944">
        <ele>743.8</ele>
        <time>2026-05-09T14:32:07Z</time>
      </trkpt>
      <trkpt lat="46.03815" lon="5.48948">
        <ele>743.8</ele>
        <time>2026-05-09T14:32:08Z</time>
      </trkpt>
      <trkpt lat="46.03812" lon="5.48952">
        <ele>743.8</ele>
        <time>2026-05-09T14:32:09Z</time>
      </trkpt>
      <trkpt lat="46.03808" lon="5.48957">
        <ele>744.2</ele>
        <time>2026-05-09T14:32:10Z</time>
      </trkpt>
      <trkpt lat="46.03805" lon="5.48961">
        <ele>744.4</ele>
        <time>2026-05-09T14:32:11Z</time>
      </trkpt>
      <trkpt lat="46.03802" lon="5.48964">
        <ele>744.8</ele>
        <time>2026-05-09T14:32:12Z</time>
      </trkpt>
      <trkpt lat="46.03799" lon="5.48968">
        <ele>745</ele>
        <time>2026-05-09T14:32:13Z</time>
      </trkpt>
      <trkpt lat="46.03797" lon="5.48971">
        <ele>745.4</ele>
        <time>2026-05-09T14:32:14Z</time>
      </trkpt>
      <trkpt lat="46.03794" lon="5.48973">
        <ele>745.4</ele>
        <time>2026-05-09T14:32:15Z</time>
      </trkpt>
      <trkpt lat="46.03792" lon="5.48976">
        <ele>745.4</ele>
        <time>2026-05-09T14:32:16Z</time>
      </trkpt>
      <trkpt lat="46.03789" lon="5.48979">
        <ele>745.4</ele>
        <time>2026-05-09T14:32:17Z</time>
      </trkpt>
      <trkpt lat="46.03787" lon="5.48981">
        <ele>745.4</ele>
        <time>2026-05-09T14:32:18Z</time>
      </trkpt>
      <trkpt lat="46.03784" lon="5.48984">
        <ele>745.4</ele>
        <time>2026-05-09T14:32:19Z</time>
      </trkpt>
      <trkpt lat="46.03782" lon="5.48986">
        <ele>745.4</ele>
        <time>2026-05-09T14:32:20Z</time>
      </trkpt>
      <trkpt lat="46.0378" lon="5.48988">
        <ele>745.8</ele>
        <time>2026-05-09T14:32:21Z</time>
      </trkpt>
      <trkpt lat="46.03778" lon="5.48991">
        <ele>745.8</ele>
        <time>2026-05-09T14:32:22Z</time>
      </trkpt>
      <trkpt lat="46.03776" lon="5.48993">
        <ele>746</ele>
        <time>2026-05-09T14:32:23Z</time>
      </trkpt>
      <trkpt lat="46.03775" lon="5.48995">
        <ele>746</ele>
        <time>2026-05-09T14:32:24Z</time>
      </trkpt>
      <trkpt lat="46.03774" lon="5.48996">
        <ele>746</ele>
        <time>2026-05-09T14:32:25Z</time>
      </trkpt>
      <trkpt lat="46.03773" lon="5.48996">
        <ele>746</ele>
        <time>2026-05-09T14:32:26Z</time>
      </trkpt>
      <trkpt lat="46.03773" lon="5.48997">
        <ele>746</ele>
        <time>2026-05-09T14:32:27Z</time>
      </trkpt>
      <trkpt lat="46.03774" lon="5.48997">
        <ele>746</ele>
        <time>2026-05-09T14:32:28Z</time>
      </trkpt>
      <trkpt lat="46.03774" lon="5.48996">
        <ele>746</ele>
        <time>2026-05-09T14:32:34Z</time>
      </trkpt>
      <trkpt lat="46.03773" lon="5.48996">
        <ele>746</ele>
        <time>2026-05-09T14:32:35Z</time>
      </trkpt>
      <trkpt lat="46.03773" lon="5.48996">
        <ele>746</ele>
        <time>2026-05-09T14:32:36Z</time>
      </trkpt>
      <trkpt lat="46.03773" lon="5.48995">
        <ele>745.6</ele>
        <time>2026-05-09T14:32:37Z</time>
      </trkpt>
      <trkpt lat="46.03772" lon="5.48994">
        <ele>745.6</ele>
        <time>2026-05-09T14:32:38Z</time>
      </trkpt>
      <trkpt lat="46.03772" lon="5.48993">
        <ele>745.6</ele>
        <time>2026-05-09T14:32:39Z</time>
      </trkpt>
      <trkpt lat="46.03772" lon="5.48992">
        <ele>745.6</ele>
        <time>2026-05-09T14:32:40Z</time>
      </trkpt>
      <trkpt lat="46.03772" lon="5.48993">
        <ele>745.6</ele>
        <time>2026-05-09T14:32:41Z</time>
      </trkpt>
      <trkpt lat="46.03771" lon="5.48993">
        <ele>745.6</ele>
        <time>2026-05-09T14:32:42Z</time>
      </trkpt>
      <trkpt lat="46.0377" lon="5.48994">
        <ele>745.6</ele>
        <time>2026-05-09T14:32:43Z</time>
      </trkpt>
      <trkpt lat="46.03769" lon="5.48994">
        <ele>745.6</ele>
        <time>2026-05-09T14:32:44Z</time>
      </trkpt>
      <trkpt lat="46.0377" lon="5.48994">
        <ele>745.6</ele>
        <time>2026-05-09T14:32:45Z</time>
      </trkpt>
      <trkpt lat="46.0377" lon="5.48994">
        <ele>745.4</ele>
        <time>2026-05-09T14:32:46Z</time>
      </trkpt>
      <trkpt lat="46.0377" lon="5.48997">
        <ele>745.4</ele>
        <time>2026-05-09T14:32:49Z</time>
      </trkpt>
      <trkpt lat="46.0377" lon="5.48999">
        <ele>745.4</ele>
        <time>2026-05-09T14:32:50Z</time>
      </trkpt>
      <trkpt lat="46.03771" lon="5.49">
        <ele>745.4</ele>
        <time>2026-05-09T14:32:51Z</time>
      </trkpt>
      <trkpt lat="46.03771" lon="5.49">
        <ele>745.4</ele>
        <time>2026-05-09T14:32:52Z</time>
      </trkpt>
      <trkpt lat="46.03772" lon="5.49001">
        <ele>745.6</ele>
        <time>2026-05-09T14:32:53Z</time>
      </trkpt>
      <trkpt lat="46.03773" lon="5.49">
        <ele>745.6</ele>
        <time>2026-05-09T14:32:54Z</time>
      </trkpt>
      <trkpt lat="46.03773" lon="5.49">
        <ele>745.6</ele>
        <time>2026-05-09T14:32:55Z</time>
      </trkpt>
      <trkpt lat="46.03773" lon="5.48999">
        <ele>745.8</ele>
        <time>2026-05-09T14:38:25Z</time>
      </trkpt>
      <trkpt lat="46.03773" lon="5.48999">
        <ele>745.8</ele>
        <time>2026-05-09T14:38:26Z</time>
      </trkpt>
      <trkpt lat="46.03773" lon="5.48999">
        <ele>745.8</ele>
        <time>2026-05-09T14:38:27Z</time>
      </trkpt>
      <trkpt lat="46.03773" lon="5.48999">
        <ele>745.8</ele>
        <time>2026-05-09T14:38:28Z</time>
      </trkpt>
      <trkpt lat="46.03774" lon="5.49003">
        <ele>745.6</ele>
        <time>2026-05-09T14:38:29Z</time>
      </trkpt>
      <trkpt lat="46.0377" lon="5.49003">
        <ele>745.6</ele>
        <time>2026-05-09T14:38:37Z</time>
      </trkpt>
      <trkpt lat="46.03768" lon="5.49005">
        <ele>745.6</ele>
        <time>2026-05-09T14:38:38Z</time>
      </trkpt>
      <trkpt lat="46.03767" lon="5.49006">
        <ele>745.8</ele>
        <time>2026-05-09T14:38:39Z</time>
      </trkpt>
      <trkpt lat="46.03766" lon="5.49008">
        <ele>745.8</ele>
        <time>2026-05-09T14:38:40Z</time>
      </trkpt>
      <trkpt lat="46.03765" lon="5.4901">
        <ele>746.2</ele>
        <time>2026-05-09T14:38:41Z</time>
      </trkpt>
      <trkpt lat="46.03764" lon="5.49012">
        <ele>746.2</ele>
        <time>2026-05-09T14:38:42Z</time>
      </trkpt>
      <trkpt lat="46.03763" lon="5.49014">
        <ele>746.2</ele>
        <time>2026-05-09T14:38:43Z</time>
      </trkpt>
      <trkpt lat="46.03762" lon="5.49016">
        <ele>746.2</ele>
        <time>2026-05-09T14:38:44Z</time>
      </trkpt>
      <trkpt lat="46.0376" lon="5.49018">
        <ele>746.4</ele>
        <time>2026-05-09T14:38:45Z</time>
      </trkpt>
      <trkpt lat="46.03759" lon="5.49019">
        <ele>746.4</ele>
        <time>2026-05-09T14:38:46Z</time>
      </trkpt>
      <trkpt lat="46.03757" lon="5.49021">
        <ele>746.4</ele>
        <time>2026-05-09T14:38:47Z</time>
      </trkpt>
      <trkpt lat="46.03756" lon="5.49022">
        <ele>746.4</ele>
        <time>2026-05-09T14:38:48Z</time>
      </trkpt>
      <trkpt lat="46.03755" lon="5.49024">
        <ele>746.4</ele>
        <time>2026-05-09T14:38:49Z</time>
      </trkpt>
      <trkpt lat="46.03753" lon="5.49026">
        <ele>746.6</ele>
        <time>2026-05-09T14:38:50Z</time>
      </trkpt>
      <trkpt lat="46.03751" lon="5.49027">
        <ele>746.6</ele>
        <time>2026-05-09T14:38:51Z</time>
      </trkpt>
      <trkpt lat="46.03749" lon="5.49029">
        <ele>746.6</ele>
        <time>2026-05-09T14:38:52Z</time>
      </trkpt>
      <trkpt lat="46.03747" lon="5.49031">
        <ele>747</ele>
        <time>2026-05-09T14:38:53Z</time>
      </trkpt>
      <trkpt lat="46.03744" lon="5.49032">
        <ele>747</ele>
        <time>2026-05-09T14:38:54Z</time>
      </trkpt>
      <trkpt lat="46.03742" lon="5.49034">
        <ele>747</ele>
        <time>2026-05-09T14:38:55Z</time>
      </trkpt>
      <trkpt lat="46.0374" lon="5.49036">
        <ele>746.8</ele>
        <time>2026-05-09T14:38:56Z</time>
      </trkpt>
      <trkpt lat="46.03738" lon="5.49039">
        <ele>746.8</ele>
        <time>2026-05-09T14:38:57Z</time>
      </trkpt>
      <trkpt lat="46.03735" lon="5.49041">
        <ele>746.8</ele>
        <time>2026-05-09T14:38:58Z</time>
      </trkpt>
      <trkpt lat="46.03732" lon="5.49044">
        <ele>747</ele>
        <time>2026-05-09T14:38:59Z</time>
      </trkpt>
      <trkpt lat="46.03732" lon="5.49044">
        <ele>747</ele>
        <time>2026-05-09T14:39:00Z</time>
      </trkpt>
      <trkpt lat="46.03732" lon="5.49044">
        <ele>747.2</ele>
        <time>2026-05-09T14:39:01Z</time>
      </trkpt>
      <trkpt lat="46.03725" lon="5.49051">
        <ele>747.2</ele>
        <time>2026-05-09T14:39:02Z</time>
      </trkpt>
      <trkpt lat="46.03723" lon="5.49054">
        <ele>747.6</ele>
        <time>2026-05-09T14:39:03Z</time>
      </trkpt>
      <trkpt lat="46.03721" lon="5.49058">
        <ele>747.6</ele>
        <time>2026-05-09T14:39:04Z</time>
      </trkpt>
      <trkpt lat="46.03718" lon="5.49061">
        <ele>747.6</ele>
        <time>2026-05-09T14:39:05Z</time>
      </trkpt>
      <trkpt lat="46.03715" lon="5.49064">
        <ele>747.6</ele>
        <time>2026-05-09T14:39:06Z</time>
      </trkpt>
      <trkpt lat="46.03712" lon="5.49067">
        <ele>747.6</ele>
        <time>2026-05-09T14:39:07Z</time>
      </trkpt>
      <trkpt lat="46.03709" lon="5.49071">
        <ele>747.6</ele>
        <time>2026-05-09T14:39:08Z</time>
      </trkpt>
      <trkpt lat="46.03706" lon="5.49074">
        <ele>747.6</ele>
        <time>2026-05-09T14:39:09Z</time>
      </trkpt>
      <trkpt lat="46.03703" lon="5.49077">
        <ele>747.6</ele>
        <time>2026-05-09T14:39:10Z</time>
      </trkpt>
      <trkpt lat="46.037" lon="5.49081">
        <ele>747.6</ele>
        <time>2026-05-09T14:39:11Z</time>
      </trkpt>
      <trkpt lat="46.03697" lon="5.49084">
        <ele>747.6</ele>
        <time>2026-05-09T14:39:12Z</time>
      </trkpt>
      <trkpt lat="46.03694" lon="5.49087">
        <ele>748</ele>
        <time>2026-05-09T14:39:13Z</time>
      </trkpt>
      <trkpt lat="46.03691" lon="5.49091">
        <ele>748</ele>
        <time>2026-05-09T14:39:14Z</time>
      </trkpt>
      <trkpt lat="46.03688" lon="5.49094">
        <ele>748</ele>
        <time>2026-05-09T14:39:15Z</time>
      </trkpt>
      <trkpt lat="46.03685" lon="5.49098">
        <ele>748</ele>
        <time>2026-05-09T14:39:16Z</time>
      </trkpt>
      <trkpt lat="46.03682" lon="5.49101">
        <ele>748</ele>
        <time>2026-05-09T14:39:17Z</time>
      </trkpt>
      <trkpt lat="46.03679" lon="5.49105">
        <ele>748</ele>
        <time>2026-05-09T14:39:18Z</time>
      </trkpt>
      <trkpt lat="46.03676" lon="5.49108">
        <ele>748</ele>
        <time>2026-05-09T14:39:19Z</time>
      </trkpt>
      <trkpt lat="46.03673" lon="5.49111">
        <ele>748</ele>
        <time>2026-05-09T14:39:20Z</time>
      </trkpt>
      <trkpt lat="46.03671" lon="5.49114">
        <ele>748</ele>
        <time>2026-05-09T14:39:21Z</time>
      </trkpt>
      <trkpt lat="46.03668" lon="5.49117">
        <ele>748</ele>
        <time>2026-05-09T14:39:22Z</time>
      </trkpt>
      <trkpt lat="46.03666" lon="5.4912">
        <ele>748</ele>
        <time>2026-05-09T14:39:23Z</time>
      </trkpt>
      <trkpt lat="46.03663" lon="5.49123">
        <ele>748.2</ele>
        <time>2026-05-09T14:39:24Z</time>
      </trkpt>
      <trkpt lat="46.0366" lon="5.49126">
        <ele>748.2</ele>
        <time>2026-05-09T14:39:25Z</time>
      </trkpt>
      <trkpt lat="46.03657" lon="5.49129">
        <ele>748.2</ele>
        <time>2026-05-09T14:39:26Z</time>
      </trkpt>
      <trkpt lat="46.03655" lon="5.49132">
        <ele>748.2</ele>
        <time>2026-05-09T14:39:27Z</time>
      </trkpt>
      <trkpt lat="46.03652" lon="5.49135">
        <ele>748.2</ele>
        <time>2026-05-09T14:39:28Z</time>
      </trkpt>
      <trkpt lat="46.03649" lon="5.49138">
        <ele>748.2</ele>
        <time>2026-05-09T14:39:29Z</time>
      </trkpt>
      <trkpt lat="46.03647" lon="5.49141">
        <ele>748.4</ele>
        <time>2026-05-09T14:39:30Z</time>
      </trkpt>
      <trkpt lat="46.03644" lon="5.49144">
        <ele>748.4</ele>
        <time>2026-05-09T14:39:31Z</time>
      </trkpt>
      <trkpt lat="46.03641" lon="5.49147">
        <ele>748.4</ele>
        <time>2026-05-09T14:39:32Z</time>
      </trkpt>
      <trkpt lat="46.03639" lon="5.4915">
        <ele>748.4</ele>
        <time>2026-05-09T14:39:33Z</time>
      </trkpt>
      <trkpt lat="46.03636" lon="5.49153">
        <ele>748.4</ele>
        <time>2026-05-09T14:39:34Z</time>
      </trkpt>
      <trkpt lat="46.03633" lon="5.49156">
        <ele>748.4</ele>
        <time>2026-05-09T14:39:35Z</time>
      </trkpt>
      <trkpt lat="46.03631" lon="5.49158">
        <ele>748.6</ele>
        <time>2026-05-09T14:39:36Z</time>
      </trkpt>
      <trkpt lat="46.03628" lon="5.49161">
        <ele>748.6</ele>
        <time>2026-05-09T14:39:37Z</time>
      </trkpt>
      <trkpt lat="46.03625" lon="5.49164">
        <ele>748.6</ele>
        <time>2026-05-09T14:39:38Z</time>
      </trkpt>
      <trkpt lat="46.03623" lon="5.49166">
        <ele>748.6</ele>
        <time>2026-05-09T14:39:39Z</time>
      </trkpt>
      <trkpt lat="46.0362" lon="5.49169">
        <ele>748.6</ele>
        <time>2026-05-09T14:39:40Z</time>
      </trkpt>
      <trkpt lat="46.03617" lon="5.49172">
        <ele>749</ele>
        <time>2026-05-09T14:39:41Z</time>
      </trkpt>
      <trkpt lat="46.03614" lon="5.49175">
        <ele>749</ele>
        <time>2026-05-09T14:39:42Z</time>
      </trkpt>
      <trkpt lat="46.03612" lon="5.49178">
        <ele>749.2</ele>
        <time>2026-05-09T14:39:43Z</time>
      </trkpt>
      <trkpt lat="46.03609" lon="5.49181">
        <ele>749.2</ele>
        <time>2026-05-09T14:39:44Z</time>
      </trkpt>
      <trkpt lat="46.03607" lon="5.49184">
        <ele>749.2</ele>
        <time>2026-05-09T14:39:45Z</time>
      </trkpt>
      <trkpt lat="46.03604" lon="5.49187">
        <ele>749.4</ele>
        <time>2026-05-09T14:39:46Z</time>
      </trkpt>
      <trkpt lat="46.03601" lon="5.49189">
        <ele>749.4</ele>
        <time>2026-05-09T14:39:47Z</time>
      </trkpt>
      <trkpt lat="46.03599" lon="5.49192">
        <ele>749.4</ele>
        <time>2026-05-09T14:39:48Z</time>
      </trkpt>
      <trkpt lat="46.03596" lon="5.49195">
        <ele>749.4</ele>
        <time>2026-05-09T14:39:49Z</time>
      </trkpt>
      <trkpt lat="46.03594" lon="5.49197">
        <ele>749.4</ele>
        <time>2026-05-09T14:39:50Z</time>
      </trkpt>
      <trkpt lat="46.03591" lon="5.492">
        <ele>749.8</ele>
        <time>2026-05-09T14:39:51Z</time>
      </trkpt>
      <trkpt lat="46.03589" lon="5.49203">
        <ele>750</ele>
        <time>2026-05-09T14:39:52Z</time>
      </trkpt>
      <trkpt lat="46.03586" lon="5.49206">
        <ele>750</ele>
        <time>2026-05-09T14:39:53Z</time>
      </trkpt>
      <trkpt lat="46.03583" lon="5.49209">
        <ele>750</ele>
        <time>2026-05-09T14:39:54Z</time>
      </trkpt>
      <trkpt lat="46.03581" lon="5.49212">
        <ele>750.2</ele>
        <time>2026-05-09T14:39:55Z</time>
      </trkpt>
      <trkpt lat="46.03579" lon="5.49214">
        <ele>750.2</ele>
        <time>2026-05-09T14:39:56Z</time>
      </trkpt>
      <trkpt lat="46.03576" lon="5.49217">
        <ele>750.2</ele>
        <time>2026-05-09T14:39:57Z</time>
      </trkpt>
      <trkpt lat="46.03574" lon="5.49219">
        <ele>750.4</ele>
        <time>2026-05-09T14:39:58Z</time>
      </trkpt>
      <trkpt lat="46.03571" lon="5.49222">
        <ele>750.4</ele>
        <time>2026-05-09T14:39:59Z</time>
      </trkpt>
      <trkpt lat="46.03569" lon="5.49225">
        <ele>750.4</ele>
        <time>2026-05-09T14:40:00Z</time>
      </trkpt>
      <trkpt lat="46.03567" lon="5.49227">
        <ele>750.4</ele>
        <time>2026-05-09T14:40:01Z</time>
      </trkpt>
      <trkpt lat="46.03564" lon="5.4923">
        <ele>750.6</ele>
        <time>2026-05-09T14:40:02Z</time>
      </trkpt>
      <trkpt lat="46.03562" lon="5.49233">
        <ele>750.6</ele>
        <time>2026-05-09T14:40:03Z</time>
      </trkpt>
      <trkpt lat="46.0356" lon="5.49235">
        <ele>750.6</ele>
        <time>2026-05-09T14:40:04Z</time>
      </trkpt>
      <trkpt lat="46.03557" lon="5.49238">
        <ele>751</ele>
        <time>2026-05-09T14:40:05Z</time>
      </trkpt>
      <trkpt lat="46.03555" lon="5.4924">
        <ele>751.2</ele>
        <time>2026-05-09T14:40:06Z</time>
      </trkpt>
      <trkpt lat="46.03552" lon="5.49242">
        <ele>751.2</ele>
        <time>2026-05-09T14:40:07Z</time>
      </trkpt>
      <trkpt lat="46.0355" lon="5.49245">
        <ele>751.2</ele>
        <time>2026-05-09T14:40:08Z</time>
      </trkpt>
      <trkpt lat="46.03548" lon="5.49247">
        <ele>751.4</ele>
        <time>2026-05-09T14:40:09Z</time>
      </trkpt>
      <trkpt lat="46.03546" lon="5.4925">
        <ele>751.4</ele>
        <time>2026-05-09T14:40:10Z</time>
      </trkpt>
      <trkpt lat="46.03544" lon="5.49252">
        <ele>751.8</ele>
        <time>2026-05-09T14:40:11Z</time>
      </trkpt>
      <trkpt lat="46.03541" lon="5.49255">
        <ele>752</ele>
        <time>2026-05-09T14:40:12Z</time>
      </trkpt>
      <trkpt lat="46.03539" lon="5.49257">
        <ele>752</ele>
        <time>2026-05-09T14:40:13Z</time>
      </trkpt>
      <trkpt lat="46.03537" lon="5.4926">
        <ele>752</ele>
        <time>2026-05-09T14:40:14Z</time>
      </trkpt>
      <trkpt lat="46.03534" lon="5.49263">
        <ele>752</ele>
        <time>2026-05-09T14:40:15Z</time>
      </trkpt>
      <trkpt lat="46.03532" lon="5.49265">
        <ele>752</ele>
        <time>2026-05-09T14:40:16Z</time>
      </trkpt>
      <trkpt lat="46.03529" lon="5.49268">
        <ele>752.2</ele>
        <time>2026-05-09T14:40:17Z</time>
      </trkpt>
      <trkpt lat="46.03529" lon="5.49268">
        <ele>752.4</ele>
        <time>2026-05-09T14:40:18Z</time>
      </trkpt>
      <trkpt lat="46.03527" lon="5.49271">
        <ele>752.4</ele>
        <time>2026-05-09T14:40:19Z</time>
      </trkpt>
      <trkpt lat="46.03525" lon="5.49273">
        <ele>752.4</ele>
        <time>2026-05-09T14:40:20Z</time>
      </trkpt>
      <trkpt lat="46.03522" lon="5.49276">
        <ele>752.8</ele>
        <time>2026-05-09T14:40:21Z</time>
      </trkpt>
      <trkpt lat="46.0352" lon="5.49278">
        <ele>752.8</ele>
        <time>2026-05-09T14:40:22Z</time>
      </trkpt>
      <trkpt lat="46.03518" lon="5.49281">
        <ele>753.2</ele>
        <time>2026-05-09T14:40:23Z</time>
      </trkpt>
      <trkpt lat="46.03516" lon="5.49283">
        <ele>753.2</ele>
        <time>2026-05-09T14:40:24Z</time>
      </trkpt>
      <trkpt lat="46.03514" lon="5.49286">
        <ele>753.2</ele>
        <time>2026-05-09T14:40:25Z</time>
      </trkpt>
      <trkpt lat="46.03512" lon="5.49289">
        <ele>753.6</ele>
        <time>2026-05-09T14:40:26Z</time>
      </trkpt>
      <trkpt lat="46.0351" lon="5.49291">
        <ele>753.6</ele>
        <time>2026-05-09T14:40:27Z</time>
      </trkpt>
      <trkpt lat="46.03508" lon="5.49294">
        <ele>753.6</ele>
        <time>2026-05-09T14:40:28Z</time>
      </trkpt>
      <trkpt lat="46.03506" lon="5.49296">
        <ele>753.6</ele>
        <time>2026-05-09T14:40:29Z</time>
      </trkpt>
      <trkpt lat="46.03504" lon="5.49298">
        <ele>753.8</ele>
        <time>2026-05-09T14:40:30Z</time>
      </trkpt>
      <trkpt lat="46.03502" lon="5.49301">
        <ele>753.8</ele>
        <time>2026-05-09T14:40:31Z</time>
      </trkpt>
      <trkpt lat="46.03499" lon="5.49303">
        <ele>753.8</ele>
        <time>2026-05-09T14:40:32Z</time>
      </trkpt>
      <trkpt lat="46.03497" lon="5.49305">
        <ele>754</ele>
        <time>2026-05-09T14:40:33Z</time>
      </trkpt>
      <trkpt lat="46.03495" lon="5.49307">
        <ele>754</ele>
        <time>2026-05-09T14:40:34Z</time>
      </trkpt>
      <trkpt lat="46.03493" lon="5.4931">
        <ele>754.4</ele>
        <time>2026-05-09T14:40:35Z</time>
      </trkpt>
      <trkpt lat="46.0349" lon="5.49312">
        <ele>754.4</ele>
        <time>2026-05-09T14:40:36Z</time>
      </trkpt>
      <trkpt lat="46.03488" lon="5.49314">
        <ele>754.8</ele>
        <time>2026-05-09T14:40:37Z</time>
      </trkpt>
      <trkpt lat="46.03486" lon="5.49316">
        <ele>754.8</ele>
        <time>2026-05-09T14:40:38Z</time>
      </trkpt>
      <trkpt lat="46.03483" lon="5.49318">
        <ele>754.8</ele>
        <time>2026-05-09T14:40:39Z</time>
      </trkpt>
      <trkpt lat="46.03481" lon="5.49321">
        <ele>755</ele>
        <time>2026-05-09T14:40:40Z</time>
      </trkpt>
      <trkpt lat="46.03479" lon="5.49323">
        <ele>755</ele>
        <time>2026-05-09T14:40:41Z</time>
      </trkpt>
      <trkpt lat="46.03476" lon="5.49325">
        <ele>755.2</ele>
        <time>2026-05-09T14:40:42Z</time>
      </trkpt>
      <trkpt lat="46.03474" lon="5.49327">
        <ele>755.2</ele>
        <time>2026-05-09T14:40:43Z</time>
      </trkpt>
      <trkpt lat="46.03471" lon="5.49329">
        <ele>755.2</ele>
        <time>2026-05-09T14:40:44Z</time>
      </trkpt>
      <trkpt lat="46.03469" lon="5.49331">
        <ele>755.6</ele>
        <time>2026-05-09T14:40:45Z</time>
      </trkpt>
      <trkpt lat="46.03467" lon="5.49333">
        <ele>755.6</ele>
        <time>2026-05-09T14:40:46Z</time>
      </trkpt>
      <trkpt lat="46.03465" lon="5.49335">
        <ele>755.6</ele>
        <time>2026-05-09T14:40:47Z</time>
      </trkpt>
      <trkpt lat="46.03462" lon="5.49337">
        <ele>756</ele>
        <time>2026-05-09T14:40:48Z</time>
      </trkpt>
      <trkpt lat="46.0346" lon="5.49339">
        <ele>756</ele>
        <time>2026-05-09T14:40:49Z</time>
      </trkpt>
      <trkpt lat="46.03458" lon="5.4934">
        <ele>756</ele>
        <time>2026-05-09T14:40:50Z</time>
      </trkpt>
      <trkpt lat="46.03455" lon="5.49342">
        <ele>756</ele>
        <time>2026-05-09T14:40:51Z</time>
      </trkpt>
      <trkpt lat="46.03453" lon="5.49344">
        <ele>756</ele>
        <time>2026-05-09T14:40:52Z</time>
      </trkpt>
      <trkpt lat="46.0345" lon="5.49346">
        <ele>756.2</ele>
        <time>2026-05-09T14:40:53Z</time>
      </trkpt>
      <trkpt lat="46.03448" lon="5.49347">
        <ele>756.2</ele>
        <time>2026-05-09T14:40:54Z</time>
      </trkpt>
      <trkpt lat="46.03446" lon="5.49349">
        <ele>756.2</ele>
        <time>2026-05-09T14:40:55Z</time>
      </trkpt>
      <trkpt lat="46.03443" lon="5.49351">
        <ele>756.2</ele>
        <time>2026-05-09T14:40:56Z</time>
      </trkpt>
      <trkpt lat="46.03441" lon="5.49353">
        <ele>756.6</ele>
        <time>2026-05-09T14:40:57Z</time>
      </trkpt>
      <trkpt lat="46.03438" lon="5.49354">
        <ele>756.6</ele>
        <time>2026-05-09T14:40:58Z</time>
      </trkpt>
      <trkpt lat="46.03436" lon="5.49356">
        <ele>756.6</ele>
        <time>2026-05-09T14:40:59Z</time>
      </trkpt>
      <trkpt lat="46.03433" lon="5.49358">
        <ele>756.8</ele>
        <time>2026-05-09T14:41:00Z</time>
      </trkpt>
      <trkpt lat="46.03431" lon="5.49359">
        <ele>756.8</ele>
        <time>2026-05-09T14:41:01Z</time>
      </trkpt>
      <trkpt lat="46.03429" lon="5.49361">
        <ele>756.8</ele>
        <time>2026-05-09T14:41:02Z</time>
      </trkpt>
      <trkpt lat="46.03426" lon="5.49362">
        <ele>757.2</ele>
        <time>2026-05-09T14:41:03Z</time>
      </trkpt>
      <trkpt lat="46.03424" lon="5.49364">
        <ele>757.4</ele>
        <time>2026-05-09T14:41:04Z</time>
      </trkpt>
      <trkpt lat="46.03421" lon="5.49365">
        <ele>757.4</ele>
        <time>2026-05-09T14:41:05Z</time>
      </trkpt>
      <trkpt lat="46.03419" lon="5.49367">
        <ele>757.4</ele>
        <time>2026-05-09T14:41:06Z</time>
      </trkpt>
      <trkpt lat="46.03417" lon="5.49369">
        <ele>757.4</ele>
        <time>2026-05-09T14:41:07Z</time>
      </trkpt>
      <trkpt lat="46.03415" lon="5.49371">
        <ele>757.4</ele>
        <time>2026-05-09T14:41:08Z</time>
      </trkpt>
      <trkpt lat="46.03412" lon="5.49372">
        <ele>757.4</ele>
        <time>2026-05-09T14:41:09Z</time>
      </trkpt>
      <trkpt lat="46.03409" lon="5.49374">
        <ele>757.4</ele>
        <time>2026-05-09T14:41:10Z</time>
      </trkpt>
      <trkpt lat="46.03407" lon="5.49376">
        <ele>757.4</ele>
        <time>2026-05-09T14:41:11Z</time>
      </trkpt>
      <trkpt lat="46.03405" lon="5.49377">
        <ele>757.4</ele>
        <time>2026-05-09T14:41:12Z</time>
      </trkpt>
      <trkpt lat="46.03402" lon="5.49379">
        <ele>757.6</ele>
        <time>2026-05-09T14:41:13Z</time>
      </trkpt>
      <trkpt lat="46.034" lon="5.49381">
        <ele>757.6</ele>
        <time>2026-05-09T14:41:14Z</time>
      </trkpt>
      <trkpt lat="46.03397" lon="5.49383">
        <ele>757.8</ele>
        <time>2026-05-09T14:41:15Z</time>
      </trkpt>
      <trkpt lat="46.03395" lon="5.49384">
        <ele>757.8</ele>
        <time>2026-05-09T14:41:16Z</time>
      </trkpt>
      <trkpt lat="46.03393" lon="5.49386">
        <ele>757.8</ele>
        <time>2026-05-09T14:41:17Z</time>
      </trkpt>
      <trkpt lat="46.0339" lon="5.49388">
        <ele>757.8</ele>
        <time>2026-05-09T14:41:18Z</time>
      </trkpt>
      <trkpt lat="46.03388" lon="5.49389">
        <ele>758.2</ele>
        <time>2026-05-09T14:41:19Z</time>
      </trkpt>
      <trkpt lat="46.03385" lon="5.49391">
        <ele>758.2</ele>
        <time>2026-05-09T14:41:20Z</time>
      </trkpt>
      <trkpt lat="46.03383" lon="5.49393">
        <ele>758.2</ele>
        <time>2026-05-09T14:41:21Z</time>
      </trkpt>
      <trkpt lat="46.03381" lon="5.49395">
        <ele>758.4</ele>
        <time>2026-05-09T14:41:22Z</time>
      </trkpt>
      <trkpt lat="46.03379" lon="5.49396">
        <ele>758.6</ele>
        <time>2026-05-09T14:41:23Z</time>
      </trkpt>
      <trkpt lat="46.03376" lon="5.49398">
        <ele>758.6</ele>
        <time>2026-05-09T14:41:24Z</time>
      </trkpt>
      <trkpt lat="46.03374" lon="5.494">
        <ele>759</ele>
        <time>2026-05-09T14:41:25Z</time>
      </trkpt>
      <trkpt lat="46.03372" lon="5.49402">
        <ele>759</ele>
        <time>2026-05-09T14:41:26Z</time>
      </trkpt>
      <trkpt lat="46.0337" lon="5.49403">
        <ele>759.4</ele>
        <time>2026-05-09T14:41:27Z</time>
      </trkpt>
      <trkpt lat="46.03367" lon="5.49405">
        <ele>759.4</ele>
        <time>2026-05-09T14:41:28Z</time>
      </trkpt>
      <trkpt lat="46.03365" lon="5.49407">
        <ele>759.6</ele>
        <time>2026-05-09T14:41:29Z</time>
      </trkpt>
      <trkpt lat="46.03363" lon="5.49408">
        <ele>759.6</ele>
        <time>2026-05-09T14:41:30Z</time>
      </trkpt>
      <trkpt lat="46.03361" lon="5.4941">
        <ele>759.6</ele>
        <time>2026-05-09T14:41:31Z</time>
      </trkpt>
      <trkpt lat="46.03359" lon="5.49412">
        <ele>759.8</ele>
        <time>2026-05-09T14:41:32Z</time>
      </trkpt>
      <trkpt lat="46.03357" lon="5.49414">
        <ele>759.8</ele>
        <time>2026-05-09T14:41:33Z</time>
      </trkpt>
      <trkpt lat="46.03354" lon="5.49417">
        <ele>760</ele>
        <time>2026-05-09T14:41:34Z</time>
      </trkpt>
      <trkpt lat="46.03352" lon="5.49418">
        <ele>760</ele>
        <time>2026-05-09T14:41:35Z</time>
      </trkpt>
      <trkpt lat="46.0335" lon="5.4942">
        <ele>760</ele>
        <time>2026-05-09T14:41:36Z</time>
      </trkpt>
      <trkpt lat="46.03348" lon="5.49423">
        <ele>760</ele>
        <time>2026-05-09T14:41:37Z</time>
      </trkpt>
      <trkpt lat="46.03346" lon="5.49425">
        <ele>760</ele>
        <time>2026-05-09T14:41:38Z</time>
      </trkpt>
      <trkpt lat="46.03344" lon="5.49427">
        <ele>760</ele>
        <time>2026-05-09T14:41:39Z</time>
      </trkpt>
      <trkpt lat="46.03342" lon="5.49429">
        <ele>760.4</ele>
        <time>2026-05-09T14:41:40Z</time>
      </trkpt>
      <trkpt lat="46.0334" lon="5.49431">
        <ele>760.4</ele>
        <time>2026-05-09T14:41:41Z</time>
      </trkpt>
      <trkpt lat="46.03338" lon="5.49433">
        <ele>760.6</ele>
        <time>2026-05-09T14:41:42Z</time>
      </trkpt>
      <trkpt lat="46.03334" lon="5.49437">
        <ele>760.6</ele>
        <time>2026-05-09T14:41:43Z</time>
      </trkpt>
      <trkpt lat="46.03332" lon="5.49439">
        <ele>760.6</ele>
        <time>2026-05-09T14:41:44Z</time>
      </trkpt>
      <trkpt lat="46.0333" lon="5.49441">
        <ele>760.6</ele>
        <time>2026-05-09T14:41:45Z</time>
      </trkpt>
      <trkpt lat="46.03328" lon="5.49443">
        <ele>760.6</ele>
        <time>2026-05-09T14:41:46Z</time>
      </trkpt>
      <trkpt lat="46.03326" lon="5.49446">
        <ele>761</ele>
        <time>2026-05-09T14:41:47Z</time>
      </trkpt>
      <trkpt lat="46.03325" lon="5.49448">
        <ele>761</ele>
        <time>2026-05-09T14:41:48Z</time>
      </trkpt>
      <trkpt lat="46.03323" lon="5.4945">
        <ele>761.2</ele>
        <time>2026-05-09T14:41:49Z</time>
      </trkpt>
      <trkpt lat="46.03321" lon="5.49453">
        <ele>761.2</ele>
        <time>2026-05-09T14:41:50Z</time>
      </trkpt>
      <trkpt lat="46.03318" lon="5.49455">
        <ele>761.4</ele>
        <time>2026-05-09T14:41:51Z</time>
      </trkpt>
      <trkpt lat="46.03316" lon="5.49458">
        <ele>761.4</ele>
        <time>2026-05-09T14:41:52Z</time>
      </trkpt>
      <trkpt lat="46.03314" lon="5.4946">
        <ele>761.8</ele>
        <time>2026-05-09T14:41:53Z</time>
      </trkpt>
      <trkpt lat="46.03312" lon="5.49463">
        <ele>761.8</ele>
        <time>2026-05-09T14:41:54Z</time>
      </trkpt>
      <trkpt lat="46.0331" lon="5.49466">
        <ele>761.8</ele>
        <time>2026-05-09T14:41:55Z</time>
      </trkpt>
      <trkpt lat="46.03308" lon="5.49469">
        <ele>761.8</ele>
        <time>2026-05-09T14:41:56Z</time>
      </trkpt>
      <trkpt lat="46.03306" lon="5.49471">
        <ele>761.8</ele>
        <time>2026-05-09T14:41:57Z</time>
      </trkpt>
      <trkpt lat="46.03304" lon="5.49474">
        <ele>762</ele>
        <time>2026-05-09T14:41:58Z</time>
      </trkpt>
      <trkpt lat="46.03302" lon="5.49476">
        <ele>762</ele>
        <time>2026-05-09T14:41:59Z</time>
      </trkpt>
      <trkpt lat="46.033" lon="5.49478">
        <ele>762.4</ele>
        <time>2026-05-09T14:42:00Z</time>
      </trkpt>
      <trkpt lat="46.03298" lon="5.49481">
        <ele>762.4</ele>
        <time>2026-05-09T14:42:01Z</time>
      </trkpt>
      <trkpt lat="46.03296" lon="5.49484">
        <ele>762.4</ele>
        <time>2026-05-09T14:42:02Z</time>
      </trkpt>
      <trkpt lat="46.03295" lon="5.49486">
        <ele>762.4</ele>
        <time>2026-05-09T14:42:03Z</time>
      </trkpt>
      <trkpt lat="46.03293" lon="5.49489">
        <ele>762.8</ele>
        <time>2026-05-09T14:42:04Z</time>
      </trkpt>
      <trkpt lat="46.03291" lon="5.49491">
        <ele>762.8</ele>
        <time>2026-05-09T14:42:05Z</time>
      </trkpt>
      <trkpt lat="46.0329" lon="5.49493">
        <ele>763</ele>
        <time>2026-05-09T14:42:06Z</time>
      </trkpt>
      <trkpt lat="46.03288" lon="5.49495">
        <ele>763.4</ele>
        <time>2026-05-09T14:42:07Z</time>
      </trkpt>
      <trkpt lat="46.03286" lon="5.49498">
        <ele>763.4</ele>
        <time>2026-05-09T14:42:08Z</time>
      </trkpt>
      <trkpt lat="46.03284" lon="5.495">
        <ele>763.6</ele>
        <time>2026-05-09T14:42:09Z</time>
      </trkpt>
      <trkpt lat="46.03283" lon="5.49502">
        <ele>763.6</ele>
        <time>2026-05-09T14:42:10Z</time>
      </trkpt>
      <trkpt lat="46.03282" lon="5.49505">
        <ele>763.8</ele>
        <time>2026-05-09T14:42:11Z</time>
      </trkpt>
      <trkpt lat="46.0328" lon="5.49507">
        <ele>763.8</ele>
        <time>2026-05-09T14:42:12Z</time>
      </trkpt>
      <trkpt lat="46.03278" lon="5.49509">
        <ele>764.2</ele>
        <time>2026-05-09T14:42:13Z</time>
      </trkpt>
      <trkpt lat="46.03276" lon="5.49512">
        <ele>764.2</ele>
        <time>2026-05-09T14:42:14Z</time>
      </trkpt>
      <trkpt lat="46.03274" lon="5.49515">
        <ele>764.6</ele>
        <time>2026-05-09T14:42:15Z</time>
      </trkpt>
      <trkpt lat="46.03272" lon="5.49518">
        <ele>764.6</ele>
        <time>2026-05-09T14:42:16Z</time>
      </trkpt>
      <trkpt lat="46.0327" lon="5.49521">
        <ele>765</ele>
        <time>2026-05-09T14:42:17Z</time>
      </trkpt>
      <trkpt lat="46.03268" lon="5.49524">
        <ele>765</ele>
        <time>2026-05-09T14:42:18Z</time>
      </trkpt>
      <trkpt lat="46.03267" lon="5.49527">
        <ele>765</ele>
        <time>2026-05-09T14:42:19Z</time>
      </trkpt>
      <trkpt lat="46.03265" lon="5.49531">
        <ele>765</ele>
        <time>2026-05-09T14:42:20Z</time>
      </trkpt>
      <trkpt lat="46.03264" lon="5.49534">
        <ele>765.2</ele>
        <time>2026-05-09T14:42:21Z</time>
      </trkpt>
      <trkpt lat="46.03262" lon="5.49536">
        <ele>765.2</ele>
        <time>2026-05-09T14:42:22Z</time>
      </trkpt>
      <trkpt lat="46.03261" lon="5.49539">
        <ele>765.2</ele>
        <time>2026-05-09T14:42:23Z</time>
      </trkpt>
      <trkpt lat="46.03259" lon="5.49542">
        <ele>765.4</ele>
        <time>2026-05-09T14:42:24Z</time>
      </trkpt>
      <trkpt lat="46.03258" lon="5.49544">
        <ele>765.4</ele>
        <time>2026-05-09T14:42:25Z</time>
      </trkpt>
      <trkpt lat="46.03256" lon="5.49546">
        <ele>765.6</ele>
        <time>2026-05-09T14:42:26Z</time>
      </trkpt>
      <trkpt lat="46.03255" lon="5.49548">
        <ele>765.8</ele>
        <time>2026-05-09T14:42:27Z</time>
      </trkpt>
      <trkpt lat="46.03253" lon="5.4955">
        <ele>765.8</ele>
        <time>2026-05-09T14:42:28Z</time>
      </trkpt>
      <trkpt lat="46.03252" lon="5.49553">
        <ele>766.2</ele>
        <time>2026-05-09T14:42:29Z</time>
      </trkpt>
      <trkpt lat="46.0325" lon="5.49555">
        <ele>766.2</ele>
        <time>2026-05-09T14:42:30Z</time>
      </trkpt>
      <trkpt lat="46.03249" lon="5.49557">
        <ele>766.2</ele>
        <time>2026-05-09T14:42:31Z</time>
      </trkpt>
      <trkpt lat="46.03247" lon="5.4956">
        <ele>766.2</ele>
        <time>2026-05-09T14:42:32Z</time>
      </trkpt>
      <trkpt lat="46.03246" lon="5.49564">
        <ele>766.2</ele>
        <time>2026-05-09T14:42:33Z</time>
      </trkpt>
      <trkpt lat="46.03244" lon="5.49567">
        <ele>766.2</ele>
        <time>2026-05-09T14:42:34Z</time>
      </trkpt>
      <trkpt lat="46.03243" lon="5.4957">
        <ele>766.4</ele>
        <time>2026-05-09T14:42:35Z</time>
      </trkpt>
      <trkpt lat="46.03241" lon="5.49573">
        <ele>766.4</ele>
        <time>2026-05-09T14:42:36Z</time>
      </trkpt>
      <trkpt lat="46.0324" lon="5.49575">
        <ele>766.6</ele>
        <time>2026-05-09T14:42:37Z</time>
      </trkpt>
      <trkpt lat="46.03238" lon="5.49578">
        <ele>766.6</ele>
        <time>2026-05-09T14:42:38Z</time>
      </trkpt>
      <trkpt lat="46.03237" lon="5.4958">
        <ele>766.6</ele>
        <time>2026-05-09T14:42:39Z</time>
      </trkpt>
      <trkpt lat="46.03235" lon="5.49583">
        <ele>766.6</ele>
        <time>2026-05-09T14:42:40Z</time>
      </trkpt>
      <trkpt lat="46.03234" lon="5.49585">
        <ele>766.6</ele>
        <time>2026-05-09T14:42:41Z</time>
      </trkpt>
      <trkpt lat="46.03232" lon="5.49588">
        <ele>766.8</ele>
        <time>2026-05-09T14:42:42Z</time>
      </trkpt>
      <trkpt lat="46.03231" lon="5.4959">
        <ele>766.8</ele>
        <time>2026-05-09T14:42:43Z</time>
      </trkpt>
      <trkpt lat="46.03229" lon="5.49593">
        <ele>766.8</ele>
        <time>2026-05-09T14:42:44Z</time>
      </trkpt>
      <trkpt lat="46.03227" lon="5.49595">
        <ele>767.2</ele>
        <time>2026-05-09T14:42:45Z</time>
      </trkpt>
      <trkpt lat="46.03226" lon="5.49597">
        <ele>767.2</ele>
        <time>2026-05-09T14:42:46Z</time>
      </trkpt>
      <trkpt lat="46.03224" lon="5.496">
        <ele>767.4</ele>
        <time>2026-05-09T14:42:47Z</time>
      </trkpt>
      <trkpt lat="46.03223" lon="5.49603">
        <ele>767.4</ele>
        <time>2026-05-09T14:42:48Z</time>
      </trkpt>
      <trkpt lat="46.03221" lon="5.49605">
        <ele>767.8</ele>
        <time>2026-05-09T14:42:49Z</time>
      </trkpt>
      <trkpt lat="46.0322" lon="5.49607">
        <ele>767.8</ele>
        <time>2026-05-09T14:42:50Z</time>
      </trkpt>
      <trkpt lat="46.03218" lon="5.4961">
        <ele>768</ele>
        <time>2026-05-09T14:42:51Z</time>
      </trkpt>
      <trkpt lat="46.03217" lon="5.49612">
        <ele>768</ele>
        <time>2026-05-09T14:42:52Z</time>
      </trkpt>
      <trkpt lat="46.03215" lon="5.49614">
        <ele>768</ele>
        <time>2026-05-09T14:42:53Z</time>
      </trkpt>
      <trkpt lat="46.03214" lon="5.49617">
        <ele>768.2</ele>
        <time>2026-05-09T14:42:54Z</time>
      </trkpt>
      <trkpt lat="46.03212" lon="5.49619">
        <ele>768.2</ele>
        <time>2026-05-09T14:42:55Z</time>
      </trkpt>
      <trkpt lat="46.03211" lon="5.49621">
        <ele>768.4</ele>
        <time>2026-05-09T14:42:56Z</time>
      </trkpt>
      <trkpt lat="46.03209" lon="5.49623">
        <ele>768.4</ele>
        <time>2026-05-09T14:42:57Z</time>
      </trkpt>
      <trkpt lat="46.03208" lon="5.49625">
        <ele>768.4</ele>
        <time>2026-05-09T14:42:58Z</time>
      </trkpt>
      <trkpt lat="46.03206" lon="5.49627">
        <ele>768.6</ele>
        <time>2026-05-09T14:42:59Z</time>
      </trkpt>
      <trkpt lat="46.03204" lon="5.49629">
        <ele>768.8</ele>
        <time>2026-05-09T14:43:00Z</time>
      </trkpt>
      <trkpt lat="46.03203" lon="5.49631">
        <ele>768.8</ele>
        <time>2026-05-09T14:43:01Z</time>
      </trkpt>
      <trkpt lat="46.03201" lon="5.49633">
        <ele>768.8</ele>
        <time>2026-05-09T14:43:02Z</time>
      </trkpt>
      <trkpt lat="46.032" lon="5.49635">
        <ele>769.2</ele>
        <time>2026-05-09T14:43:03Z</time>
      </trkpt>
      <trkpt lat="46.03198" lon="5.49637">
        <ele>769.2</ele>
        <time>2026-05-09T14:43:04Z</time>
      </trkpt>
      <trkpt lat="46.03196" lon="5.49639">
        <ele>769.2</ele>
        <time>2026-05-09T14:43:05Z</time>
      </trkpt>
      <trkpt lat="46.03195" lon="5.49641">
        <ele>769.2</ele>
        <time>2026-05-09T14:43:06Z</time>
      </trkpt>
      <trkpt lat="46.03193" lon="5.49642">
        <ele>769.6</ele>
        <time>2026-05-09T14:43:07Z</time>
      </trkpt>
      <trkpt lat="46.03192" lon="5.49644">
        <ele>769.8</ele>
        <time>2026-05-09T14:43:08Z</time>
      </trkpt>
      <trkpt lat="46.0319" lon="5.49645">
        <ele>769.8</ele>
        <time>2026-05-09T14:43:09Z</time>
      </trkpt>
      <trkpt lat="46.03188" lon="5.49646">
        <ele>770.2</ele>
        <time>2026-05-09T14:43:10Z</time>
      </trkpt>
      <trkpt lat="46.03186" lon="5.49648">
        <ele>770.2</ele>
        <time>2026-05-09T14:43:11Z</time>
      </trkpt>
      <trkpt lat="46.03184" lon="5.4965">
        <ele>770.2</ele>
        <time>2026-05-09T14:43:12Z</time>
      </trkpt>
      <trkpt lat="46.03183" lon="5.49652">
        <ele>770.2</ele>
        <time>2026-05-09T14:43:13Z</time>
      </trkpt>
      <trkpt lat="46.03181" lon="5.49654">
        <ele>770.6</ele>
        <time>2026-05-09T14:43:14Z</time>
      </trkpt>
      <trkpt lat="46.03179" lon="5.49656">
        <ele>770.6</ele>
        <time>2026-05-09T14:43:15Z</time>
      </trkpt>
      <trkpt lat="46.03177" lon="5.49658">
        <ele>770.6</ele>
        <time>2026-05-09T14:43:16Z</time>
      </trkpt>
      <trkpt lat="46.03177" lon="5.49658">
        <ele>770.8</ele>
        <time>2026-05-09T14:43:17Z</time>
      </trkpt>
      <trkpt lat="46.03175" lon="5.4966">
        <ele>770.8</ele>
        <time>2026-05-09T14:43:18Z</time>
      </trkpt>
      <trkpt lat="46.03173" lon="5.49663">
        <ele>771.2</ele>
        <time>2026-05-09T14:43:19Z</time>
      </trkpt>
      <trkpt lat="46.03171" lon="5.49665">
        <ele>771.2</ele>
        <time>2026-05-09T14:43:20Z</time>
      </trkpt>
      <trkpt lat="46.03169" lon="5.49667">
        <ele>771.4</ele>
        <time>2026-05-09T14:43:21Z</time>
      </trkpt>
      <trkpt lat="46.03168" lon="5.49669">
        <ele>771.4</ele>
        <time>2026-05-09T14:43:22Z</time>
      </trkpt>
      <trkpt lat="46.03166" lon="5.49672">
        <ele>771.8</ele>
        <time>2026-05-09T14:43:23Z</time>
      </trkpt>
      <trkpt lat="46.03164" lon="5.49674">
        <ele>771.8</ele>
        <time>2026-05-09T14:43:24Z</time>
      </trkpt>
      <trkpt lat="46.03162" lon="5.49676">
        <ele>771.8</ele>
        <time>2026-05-09T14:43:25Z</time>
      </trkpt>
      <trkpt lat="46.0316" lon="5.49678">
        <ele>772</ele>
        <time>2026-05-09T14:43:26Z</time>
      </trkpt>
      <trkpt lat="46.03159" lon="5.4968">
        <ele>772</ele>
        <time>2026-05-09T14:43:27Z</time>
      </trkpt>
      <trkpt lat="46.03157" lon="5.49682">
        <ele>772</ele>
        <time>2026-05-09T14:43:28Z</time>
      </trkpt>
      <trkpt lat="46.03156" lon="5.49685">
        <ele>772</ele>
        <time>2026-05-09T14:43:29Z</time>
      </trkpt>
      <trkpt lat="46.03154" lon="5.49687">
        <ele>772.2</ele>
        <time>2026-05-09T14:43:30Z</time>
      </trkpt>
      <trkpt lat="46.03152" lon="5.49689">
        <ele>772.2</ele>
        <time>2026-05-09T14:43:31Z</time>
      </trkpt>
      <trkpt lat="46.03151" lon="5.49691">
        <ele>772.2</ele>
        <time>2026-05-09T14:43:32Z</time>
      </trkpt>
      <trkpt lat="46.03149" lon="5.49693">
        <ele>772.2</ele>
        <time>2026-05-09T14:43:33Z</time>
      </trkpt>
      <trkpt lat="46.03147" lon="5.49696">
        <ele>772.2</ele>
        <time>2026-05-09T14:43:34Z</time>
      </trkpt>
      <trkpt lat="46.03145" lon="5.49698">
        <ele>772.4</ele>
        <time>2026-05-09T14:43:35Z</time>
      </trkpt>
      <trkpt lat="46.03143" lon="5.497">
        <ele>772.4</ele>
        <time>2026-05-09T14:43:36Z</time>
      </trkpt>
      <trkpt lat="46.03142" lon="5.49702">
        <ele>772.4</ele>
        <time>2026-05-09T14:43:37Z</time>
      </trkpt>
      <trkpt lat="46.0314" lon="5.49705">
        <ele>772.4</ele>
        <time>2026-05-09T14:43:38Z</time>
      </trkpt>
      <trkpt lat="46.03139" lon="5.49707">
        <ele>772.6</ele>
        <time>2026-05-09T14:43:39Z</time>
      </trkpt>
      <trkpt lat="46.03137" lon="5.4971">
        <ele>772.6</ele>
        <time>2026-05-09T14:43:40Z</time>
      </trkpt>
      <trkpt lat="46.03135" lon="5.49712">
        <ele>772.6</ele>
        <time>2026-05-09T14:43:41Z</time>
      </trkpt>
      <trkpt lat="46.03133" lon="5.49714">
        <ele>773</ele>
        <time>2026-05-09T14:43:42Z</time>
      </trkpt>
      <trkpt lat="46.03132" lon="5.49717">
        <ele>773</ele>
        <time>2026-05-09T14:43:43Z</time>
      </trkpt>
      <trkpt lat="46.0313" lon="5.49719">
        <ele>773</ele>
        <time>2026-05-09T14:43:44Z</time>
      </trkpt>
      <trkpt lat="46.03128" lon="5.49721">
        <ele>773.2</ele>
        <time>2026-05-09T14:43:45Z</time>
      </trkpt>
      <trkpt lat="46.03127" lon="5.49724">
        <ele>773.2</ele>
        <time>2026-05-09T14:43:46Z</time>
      </trkpt>
      <trkpt lat="46.03125" lon="5.49726">
        <ele>773.4</ele>
        <time>2026-05-09T14:43:47Z</time>
      </trkpt>
      <trkpt lat="46.03124" lon="5.49728">
        <ele>773.4</ele>
        <time>2026-05-09T14:43:48Z</time>
      </trkpt>
      <trkpt lat="46.03122" lon="5.49731">
        <ele>773.4</ele>
        <time>2026-05-09T14:43:49Z</time>
      </trkpt>
      <trkpt lat="46.0312" lon="5.49733">
        <ele>773.4</ele>
        <time>2026-05-09T14:43:50Z</time>
      </trkpt>
      <trkpt lat="46.03119" lon="5.49735">
        <ele>773.6</ele>
        <time>2026-05-09T14:43:51Z</time>
      </trkpt>
      <trkpt lat="46.03118" lon="5.49738">
        <ele>773.6</ele>
        <time>2026-05-09T14:43:52Z</time>
      </trkpt>
      <trkpt lat="46.03116" lon="5.49741">
        <ele>773.6</ele>
        <time>2026-05-09T14:43:53Z</time>
      </trkpt>
      <trkpt lat="46.03114" lon="5.49743">
        <ele>774</ele>
        <time>2026-05-09T14:43:54Z</time>
      </trkpt>
      <trkpt lat="46.03112" lon="5.49746">
        <ele>774</ele>
        <time>2026-05-09T14:43:55Z</time>
      </trkpt>
      <trkpt lat="46.0311" lon="5.49748">
        <ele>774</ele>
        <time>2026-05-09T14:43:56Z</time>
      </trkpt>
      <trkpt lat="46.03109" lon="5.4975">
        <ele>774.4</ele>
        <time>2026-05-09T14:43:57Z</time>
      </trkpt>
      <trkpt lat="46.03107" lon="5.49753">
        <ele>774.4</ele>
        <time>2026-05-09T14:43:58Z</time>
      </trkpt>
      <trkpt lat="46.03106" lon="5.49756">
        <ele>774.4</ele>
        <time>2026-05-09T14:43:59Z</time>
      </trkpt>
      <trkpt lat="46.03104" lon="5.49758">
        <ele>774.4</ele>
        <time>2026-05-09T14:44:00Z</time>
      </trkpt>
      <trkpt lat="46.03102" lon="5.49761">
        <ele>774.4</ele>
        <time>2026-05-09T14:44:01Z</time>
      </trkpt>
      <trkpt lat="46.03101" lon="5.49763">
        <ele>774.6</ele>
        <time>2026-05-09T14:44:02Z</time>
      </trkpt>
      <trkpt lat="46.031" lon="5.49766">
        <ele>774.6</ele>
        <time>2026-05-09T14:44:03Z</time>
      </trkpt>
      <trkpt lat="46.03099" lon="5.49769">
        <ele>774.6</ele>
        <time>2026-05-09T14:44:04Z</time>
      </trkpt>
      <trkpt lat="46.03097" lon="5.49771">
        <ele>774.8</ele>
        <time>2026-05-09T14:44:05Z</time>
      </trkpt>
      <trkpt lat="46.03096" lon="5.49773">
        <ele>774.8</ele>
        <time>2026-05-09T14:44:06Z</time>
      </trkpt>
      <trkpt lat="46.03095" lon="5.49776">
        <ele>775</ele>
        <time>2026-05-09T14:44:07Z</time>
      </trkpt>
      <trkpt lat="46.03094" lon="5.49778">
        <ele>775</ele>
        <time>2026-05-09T14:44:08Z</time>
      </trkpt>
      <trkpt lat="46.03092" lon="5.4978">
        <ele>775</ele>
        <time>2026-05-09T14:44:09Z</time>
      </trkpt>
      <trkpt lat="46.03091" lon="5.49781">
        <ele>775.4</ele>
        <time>2026-05-09T14:44:10Z</time>
      </trkpt>
      <trkpt lat="46.0309" lon="5.49782">
        <ele>775.4</ele>
        <time>2026-05-09T14:44:11Z</time>
      </trkpt>
      <trkpt lat="46.03088" lon="5.49784">
        <ele>775.4</ele>
        <time>2026-05-09T14:44:12Z</time>
      </trkpt>
      <trkpt lat="46.03086" lon="5.49786">
        <ele>775.4</ele>
        <time>2026-05-09T14:44:13Z</time>
      </trkpt>
      <trkpt lat="46.03085" lon="5.49789">
        <ele>775.4</ele>
        <time>2026-05-09T14:44:14Z</time>
      </trkpt>
      <trkpt lat="46.03083" lon="5.49791">
        <ele>775.4</ele>
        <time>2026-05-09T14:44:15Z</time>
      </trkpt>
      <trkpt lat="46.03082" lon="5.49794">
        <ele>775.6</ele>
        <time>2026-05-09T14:44:16Z</time>
      </trkpt>
      <trkpt lat="46.0308" lon="5.49796">
        <ele>775.6</ele>
        <time>2026-05-09T14:44:17Z</time>
      </trkpt>
      <trkpt lat="46.03078" lon="5.49799">
        <ele>775.8</ele>
        <time>2026-05-09T14:44:18Z</time>
      </trkpt>
      <trkpt lat="46.03076" lon="5.49802">
        <ele>775.8</ele>
        <time>2026-05-09T14:44:19Z</time>
      </trkpt>
      <trkpt lat="46.03075" lon="5.49804">
        <ele>775.8</ele>
        <time>2026-05-09T14:44:20Z</time>
      </trkpt>
      <trkpt lat="46.03073" lon="5.49807">
        <ele>775.8</ele>
        <time>2026-05-09T14:44:21Z</time>
      </trkpt>
      <trkpt lat="46.03071" lon="5.49809">
        <ele>775.8</ele>
        <time>2026-05-09T14:44:22Z</time>
      </trkpt>
      <trkpt lat="46.0307" lon="5.49812">
        <ele>776</ele>
        <time>2026-05-09T14:44:23Z</time>
      </trkpt>
      <trkpt lat="46.03068" lon="5.49815">
        <ele>776</ele>
        <time>2026-05-09T14:44:24Z</time>
      </trkpt>
      <trkpt lat="46.03067" lon="5.49818">
        <ele>776.4</ele>
        <time>2026-05-09T14:44:25Z</time>
      </trkpt>
      <trkpt lat="46.03065" lon="5.4982">
        <ele>776.4</ele>
        <time>2026-05-09T14:44:26Z</time>
      </trkpt>
      <trkpt lat="46.03063" lon="5.49823">
        <ele>776.4</ele>
        <time>2026-05-09T14:44:27Z</time>
      </trkpt>
      <trkpt lat="46.03061" lon="5.49825">
        <ele>776.4</ele>
        <time>2026-05-09T14:44:28Z</time>
      </trkpt>
      <trkpt lat="46.03059" lon="5.49827">
        <ele>776.4</ele>
        <time>2026-05-09T14:44:29Z</time>
      </trkpt>
      <trkpt lat="46.03057" lon="5.4983">
        <ele>776.4</ele>
        <time>2026-05-09T14:44:30Z</time>
      </trkpt>
      <trkpt lat="46.03056" lon="5.49833">
        <ele>776.4</ele>
        <time>2026-05-09T14:44:31Z</time>
      </trkpt>
      <trkpt lat="46.03054" lon="5.49836">
        <ele>776.4</ele>
        <time>2026-05-09T14:44:32Z</time>
      </trkpt>
      <trkpt lat="46.03052" lon="5.49839">
        <ele>776.4</ele>
        <time>2026-05-09T14:44:33Z</time>
      </trkpt>
      <trkpt lat="46.03049" lon="5.49845">
        <ele>776.6</ele>
        <time>2026-05-09T14:44:34Z</time>
      </trkpt>
      <trkpt lat="46.03048" lon="5.49847">
        <ele>776.6</ele>
        <time>2026-05-09T14:44:35Z</time>
      </trkpt>
      <trkpt lat="46.03046" lon="5.4985">
        <ele>776.8</ele>
        <time>2026-05-09T14:44:36Z</time>
      </trkpt>
      <trkpt lat="46.03044" lon="5.49853">
        <ele>776.8</ele>
        <time>2026-05-09T14:44:37Z</time>
      </trkpt>
      <trkpt lat="46.03043" lon="5.49856">
        <ele>776.8</ele>
        <time>2026-05-09T14:44:38Z</time>
      </trkpt>
      <trkpt lat="46.03042" lon="5.4986">
        <ele>776.8</ele>
        <time>2026-05-09T14:44:39Z</time>
      </trkpt>
      <trkpt lat="46.0304" lon="5.49863">
        <ele>776.8</ele>
        <time>2026-05-09T14:44:40Z</time>
      </trkpt>
      <trkpt lat="46.03039" lon="5.49866">
        <ele>776.8</ele>
        <time>2026-05-09T14:44:41Z</time>
      </trkpt>
      <trkpt lat="46.03038" lon="5.49869">
        <ele>776.8</ele>
        <time>2026-05-09T14:44:42Z</time>
      </trkpt>
      <trkpt lat="46.03037" lon="5.49872">
        <ele>776.8</ele>
        <time>2026-05-09T14:44:43Z</time>
      </trkpt>
      <trkpt lat="46.03035" lon="5.49875">
        <ele>776.8</ele>
        <time>2026-05-09T14:44:44Z</time>
      </trkpt>
      <trkpt lat="46.03034" lon="5.49877">
        <ele>776.8</ele>
        <time>2026-05-09T14:44:45Z</time>
      </trkpt>
      <trkpt lat="46.03032" lon="5.4988">
        <ele>776.8</ele>
        <time>2026-05-09T14:44:46Z</time>
      </trkpt>
      <trkpt lat="46.0303" lon="5.49883">
        <ele>776.8</ele>
        <time>2026-05-09T14:44:47Z</time>
      </trkpt>
      <trkpt lat="46.03028" lon="5.49887">
        <ele>776.8</ele>
        <time>2026-05-09T14:44:48Z</time>
      </trkpt>
      <trkpt lat="46.03025" lon="5.4989">
        <ele>776.8</ele>
        <time>2026-05-09T14:44:49Z</time>
      </trkpt>
      <trkpt lat="46.0302" lon="5.49893">
        <ele>776.8</ele>
        <time>2026-05-09T14:44:50Z</time>
      </trkpt>
      <trkpt lat="46.03017" lon="5.49897">
        <ele>776.6</ele>
        <time>2026-05-09T14:44:51Z</time>
      </trkpt>
      <trkpt lat="46.03013" lon="5.49901">
        <ele>776.6</ele>
        <time>2026-05-09T14:44:52Z</time>
      </trkpt>
      <trkpt lat="46.03009" lon="5.49906">
        <ele>776.6</ele>
        <time>2026-05-09T14:44:53Z</time>
      </trkpt>
      <trkpt lat="46.03005" lon="5.4991">
        <ele>776.2</ele>
        <time>2026-05-09T14:44:54Z</time>
      </trkpt>
      <trkpt lat="46.02999" lon="5.49914">
        <ele>776.2</ele>
        <time>2026-05-09T14:44:55Z</time>
      </trkpt>
      <trkpt lat="46.02994" lon="5.49918">
        <ele>776.2</ele>
        <time>2026-05-09T14:44:56Z</time>
      </trkpt>
      <trkpt lat="46.02988" lon="5.49922">
        <ele>776</ele>
        <time>2026-05-09T14:44:57Z</time>
      </trkpt>
      <trkpt lat="46.02983" lon="5.49926">
        <ele>775.8</ele>
        <time>2026-05-09T14:44:58Z</time>
      </trkpt>
      <trkpt lat="46.02977" lon="5.4993">
        <ele>775.8</ele>
        <time>2026-05-09T14:44:59Z</time>
      </trkpt>
      <trkpt lat="46.02971" lon="5.49934">
        <ele>775.2</ele>
        <time>2026-05-09T14:45:00Z</time>
      </trkpt>
      <trkpt lat="46.02966" lon="5.49938">
        <ele>775</ele>
        <time>2026-05-09T14:45:01Z</time>
      </trkpt>
      <trkpt lat="46.0296" lon="5.49942">
        <ele>774.6</ele>
        <time>2026-05-09T14:45:02Z</time>
      </trkpt>
      <trkpt lat="46.02954" lon="5.49946">
        <ele>774.4</ele>
        <time>2026-05-09T14:45:03Z</time>
      </trkpt>
      <trkpt lat="46.02948" lon="5.4995">
        <ele>774.4</ele>
        <time>2026-05-09T14:45:04Z</time>
      </trkpt>
      <trkpt lat="46.02942" lon="5.49954">
        <ele>774.2</ele>
        <time>2026-05-09T14:45:05Z</time>
      </trkpt>
      <trkpt lat="46.02937" lon="5.49957">
        <ele>774.2</ele>
        <time>2026-05-09T14:45:06Z</time>
      </trkpt>
      <trkpt lat="46.02931" lon="5.4996">
        <ele>773.6</ele>
        <time>2026-05-09T14:45:07Z</time>
      </trkpt>
      <trkpt lat="46.02925" lon="5.49961">
        <ele>773.2</ele>
        <time>2026-05-09T14:45:08Z</time>
      </trkpt>
      <trkpt lat="46.02919" lon="5.4996">
        <ele>773</ele>
        <time>2026-05-09T14:45:09Z</time>
      </trkpt>
      <trkpt lat="46.02914" lon="5.49959">
        <ele>773.4</ele>
        <time>2026-05-09T14:45:10Z</time>
      </trkpt>
      <trkpt lat="46.02908" lon="5.4996">
        <ele>773.4</ele>
        <time>2026-05-09T14:45:11Z</time>
      </trkpt>
      <trkpt lat="46.02902" lon="5.49963">
        <ele>773</ele>
        <time>2026-05-09T14:45:12Z</time>
      </trkpt>
      <trkpt lat="46.02898" lon="5.49967">
        <ele>773</ele>
        <time>2026-05-09T14:45:13Z</time>
      </trkpt>
      <trkpt lat="46.02895" lon="5.49973">
        <ele>773</ele>
        <time>2026-05-09T14:45:14Z</time>
      </trkpt>
      <trkpt lat="46.02892" lon="5.49979">
        <ele>773</ele>
        <time>2026-05-09T14:45:15Z</time>
      </trkpt>
      <trkpt lat="46.02889" lon="5.49987">
        <ele>773</ele>
        <time>2026-05-09T14:45:16Z</time>
      </trkpt>
      <trkpt lat="46.02887" lon="5.49994">
        <ele>773</ele>
        <time>2026-05-09T14:45:17Z</time>
      </trkpt>
      <trkpt lat="46.02885" lon="5.50003">
        <ele>773</ele>
        <time>2026-05-09T14:45:18Z</time>
      </trkpt>
      <trkpt lat="46.02884" lon="5.50011">
        <ele>772.6</ele>
        <time>2026-05-09T14:45:19Z</time>
      </trkpt>
      <trkpt lat="46.02882" lon="5.5002">
        <ele>772.6</ele>
        <time>2026-05-09T14:45:20Z</time>
      </trkpt>
      <trkpt lat="46.02879" lon="5.50029">
        <ele>772.6</ele>
        <time>2026-05-09T14:45:21Z</time>
      </trkpt>
      <trkpt lat="46.02876" lon="5.50036">
        <ele>772.2</ele>
        <time>2026-05-09T14:45:22Z</time>
      </trkpt>
      <trkpt lat="46.02872" lon="5.50043">
        <ele>772.2</ele>
        <time>2026-05-09T14:45:23Z</time>
      </trkpt>
      <trkpt lat="46.02868" lon="5.5005">
        <ele>772.2</ele>
        <time>2026-05-09T14:45:24Z</time>
      </trkpt>
      <trkpt lat="46.02864" lon="5.50057">
        <ele>771.8</ele>
        <time>2026-05-09T14:45:25Z</time>
      </trkpt>
      <trkpt lat="46.0286" lon="5.50065">
        <ele>771.8</ele>
        <time>2026-05-09T14:45:26Z</time>
      </trkpt>
      <trkpt lat="46.02856" lon="5.5007">
        <ele>771.4</ele>
        <time>2026-05-09T14:45:27Z</time>
      </trkpt>
      <trkpt lat="46.02852" lon="5.50077">
        <ele>771.4</ele>
        <time>2026-05-09T14:45:28Z</time>
      </trkpt>
      <trkpt lat="46.02848" lon="5.50084">
        <ele>771.4</ele>
        <time>2026-05-09T14:45:29Z</time>
      </trkpt>
      <trkpt lat="46.02843" lon="5.5009">
        <ele>771.4</ele>
        <time>2026-05-09T14:45:30Z</time>
      </trkpt>
      <trkpt lat="46.02838" lon="5.50097">
        <ele>771.4</ele>
        <time>2026-05-09T14:45:31Z</time>
      </trkpt>
      <trkpt lat="46.02833" lon="5.50103">
        <ele>771.4</ele>
        <time>2026-05-09T14:45:32Z</time>
      </trkpt>
      <trkpt lat="46.02828" lon="5.50109">
        <ele>771.4</ele>
        <time>2026-05-09T14:45:33Z</time>
      </trkpt>
      <trkpt lat="46.02822" lon="5.50115">
        <ele>771.4</ele>
        <time>2026-05-09T14:45:34Z</time>
      </trkpt>
      <trkpt lat="46.02817" lon="5.50121">
        <ele>771.4</ele>
        <time>2026-05-09T14:45:35Z</time>
      </trkpt>
      <trkpt lat="46.02811" lon="5.50127">
        <ele>771.2</ele>
        <time>2026-05-09T14:45:36Z</time>
      </trkpt>
      <trkpt lat="46.02805" lon="5.50133">
        <ele>771.2</ele>
        <time>2026-05-09T14:45:37Z</time>
      </trkpt>
      <trkpt lat="46.02799" lon="5.5014">
        <ele>771.2</ele>
        <time>2026-05-09T14:45:38Z</time>
      </trkpt>
      <trkpt lat="46.02794" lon="5.50145">
        <ele>771.2</ele>
        <time>2026-05-09T14:45:39Z</time>
      </trkpt>
      <trkpt lat="46.02789" lon="5.50151">
        <ele>771.2</ele>
        <time>2026-05-09T14:45:40Z</time>
      </trkpt>
      <trkpt lat="46.02784" lon="5.50156">
        <ele>770.8</ele>
        <time>2026-05-09T14:45:41Z</time>
      </trkpt>
      <trkpt lat="46.02778" lon="5.50161">
        <ele>770.8</ele>
        <time>2026-05-09T14:45:42Z</time>
      </trkpt>
      <trkpt lat="46.02773" lon="5.50167">
        <ele>770.6</ele>
        <time>2026-05-09T14:45:43Z</time>
      </trkpt>
      <trkpt lat="46.02768" lon="5.50172">
        <ele>770.6</ele>
        <time>2026-05-09T14:45:44Z</time>
      </trkpt>
      <trkpt lat="46.02763" lon="5.50177">
        <ele>770.4</ele>
        <time>2026-05-09T14:45:45Z</time>
      </trkpt>
      <trkpt lat="46.02758" lon="5.50181">
        <ele>770.4</ele>
        <time>2026-05-09T14:45:46Z</time>
      </trkpt>
      <trkpt lat="46.02753" lon="5.50186">
        <ele>770.4</ele>
        <time>2026-05-09T14:45:47Z</time>
      </trkpt>
      <trkpt lat="46.02748" lon="5.50191">
        <ele>770.4</ele>
        <time>2026-05-09T14:45:48Z</time>
      </trkpt>
      <trkpt lat="46.02742" lon="5.50194">
        <ele>770.4</ele>
        <time>2026-05-09T14:45:49Z</time>
      </trkpt>
      <trkpt lat="46.02737" lon="5.50198">
        <ele>770.4</ele>
        <time>2026-05-09T14:45:50Z</time>
      </trkpt>
      <trkpt lat="46.02731" lon="5.50202">
        <ele>770.4</ele>
        <time>2026-05-09T14:45:51Z</time>
      </trkpt>
      <trkpt lat="46.02725" lon="5.50204">
        <ele>770.8</ele>
        <time>2026-05-09T14:45:52Z</time>
      </trkpt>
      <trkpt lat="46.02719" lon="5.50206">
        <ele>770.8</ele>
        <time>2026-05-09T14:45:53Z</time>
      </trkpt>
      <trkpt lat="46.02713" lon="5.50208">
        <ele>770.8</ele>
        <time>2026-05-09T14:45:54Z</time>
      </trkpt>
      <trkpt lat="46.02707" lon="5.5021">
        <ele>770.8</ele>
        <time>2026-05-09T14:45:55Z</time>
      </trkpt>
      <trkpt lat="46.02701" lon="5.50211">
        <ele>770.4</ele>
        <time>2026-05-09T14:45:56Z</time>
      </trkpt>
      <trkpt lat="46.02695" lon="5.50212">
        <ele>770.4</ele>
        <time>2026-05-09T14:45:57Z</time>
      </trkpt>
      <trkpt lat="46.02689" lon="5.50214">
        <ele>770.2</ele>
        <time>2026-05-09T14:45:58Z</time>
      </trkpt>
      <trkpt lat="46.02683" lon="5.50215">
        <ele>770.2</ele>
        <time>2026-05-09T14:45:59Z</time>
      </trkpt>
      <trkpt lat="46.02677" lon="5.50217">
        <ele>770.2</ele>
        <time>2026-05-09T14:46:00Z</time>
      </trkpt>
      <trkpt lat="46.02671" lon="5.50218">
        <ele>770.2</ele>
        <time>2026-05-09T14:46:01Z</time>
      </trkpt>
      <trkpt lat="46.02665" lon="5.5022">
        <ele>770.2</ele>
        <time>2026-05-09T14:46:02Z</time>
      </trkpt>
      <trkpt lat="46.02659" lon="5.50221">
        <ele>769.8</ele>
        <time>2026-05-09T14:46:03Z</time>
      </trkpt>
      <trkpt lat="46.02659" lon="5.50221">
        <ele>769.8</ele>
        <time>2026-05-09T14:46:04Z</time>
      </trkpt>
      <trkpt lat="46.02653" lon="5.50223">
        <ele>769.8</ele>
        <time>2026-05-09T14:46:05Z</time>
      </trkpt>
      <trkpt lat="46.02647" lon="5.50224">
        <ele>769.8</ele>
        <time>2026-05-09T14:46:06Z</time>
      </trkpt>
      <trkpt lat="46.02641" lon="5.50226">
        <ele>769.4</ele>
        <time>2026-05-09T14:46:07Z</time>
      </trkpt>
      <trkpt lat="46.02635" lon="5.50228">
        <ele>769.4</ele>
        <time>2026-05-09T14:46:08Z</time>
      </trkpt>
      <trkpt lat="46.02629" lon="5.50229">
        <ele>769.2</ele>
        <time>2026-05-09T14:46:09Z</time>
      </trkpt>
      <trkpt lat="46.02623" lon="5.5023">
        <ele>769.2</ele>
        <time>2026-05-09T14:46:10Z</time>
      </trkpt>
      <trkpt lat="46.02616" lon="5.50232">
        <ele>769.2</ele>
        <time>2026-05-09T14:46:11Z</time>
      </trkpt>
      <trkpt lat="46.0261" lon="5.50234">
        <ele>769</ele>
        <time>2026-05-09T14:46:12Z</time>
      </trkpt>
      <trkpt lat="46.02604" lon="5.50235">
        <ele>769</ele>
        <time>2026-05-09T14:46:13Z</time>
      </trkpt>
      <trkpt lat="46.02597" lon="5.50236">
        <ele>768.6</ele>
        <time>2026-05-09T14:46:14Z</time>
      </trkpt>
      <trkpt lat="46.02591" lon="5.50238">
        <ele>768.6</ele>
        <time>2026-05-09T14:46:15Z</time>
      </trkpt>
      <trkpt lat="46.02585" lon="5.50239">
        <ele>768.6</ele>
        <time>2026-05-09T14:46:16Z</time>
      </trkpt>
      <trkpt lat="46.02579" lon="5.5024">
        <ele>768.4</ele>
        <time>2026-05-09T14:46:17Z</time>
      </trkpt>
      <trkpt lat="46.02573" lon="5.50242">
        <ele>768.4</ele>
        <time>2026-05-09T14:46:18Z</time>
      </trkpt>
      <trkpt lat="46.02567" lon="5.50244">
        <ele>768.2</ele>
        <time>2026-05-09T14:46:19Z</time>
      </trkpt>
      <trkpt lat="46.02561" lon="5.50245">
        <ele>768.2</ele>
        <time>2026-05-09T14:46:20Z</time>
      </trkpt>
      <trkpt lat="46.02555" lon="5.50246">
        <ele>768.2</ele>
        <time>2026-05-09T14:46:21Z</time>
      </trkpt>
      <trkpt lat="46.02549" lon="5.50248">
        <ele>768</ele>
        <time>2026-05-09T14:46:22Z</time>
      </trkpt>
      <trkpt lat="46.02543" lon="5.5025">
        <ele>768</ele>
        <time>2026-05-09T14:46:23Z</time>
      </trkpt>
      <trkpt lat="46.02538" lon="5.50253">
        <ele>767.8</ele>
        <time>2026-05-09T14:46:24Z</time>
      </trkpt>
      <trkpt lat="46.02532" lon="5.50255">
        <ele>767.8</ele>
        <time>2026-05-09T14:46:25Z</time>
      </trkpt>
      <trkpt lat="46.02526" lon="5.50257">
        <ele>768.2</ele>
        <time>2026-05-09T14:46:26Z</time>
      </trkpt>
      <trkpt lat="46.02521" lon="5.5026">
        <ele>768.2</ele>
        <time>2026-05-09T14:46:27Z</time>
      </trkpt>
      <trkpt lat="46.02515" lon="5.50263">
        <ele>767.8</ele>
        <time>2026-05-09T14:46:28Z</time>
      </trkpt>
      <trkpt lat="46.02508" lon="5.50263">
        <ele>767.8</ele>
        <time>2026-05-09T14:46:29Z</time>
      </trkpt>
      <trkpt lat="46.02503" lon="5.50268">
        <ele>767.6</ele>
        <time>2026-05-09T14:46:30Z</time>
      </trkpt>
      <trkpt lat="46.02498" lon="5.5027">
        <ele>767.6</ele>
        <time>2026-05-09T14:46:31Z</time>
      </trkpt>
      <trkpt lat="46.02493" lon="5.50273">
        <ele>767.6</ele>
        <time>2026-05-09T14:46:32Z</time>
      </trkpt>
      <trkpt lat="46.02488" lon="5.50277">
        <ele>767.4</ele>
        <time>2026-05-09T14:46:33Z</time>
      </trkpt>
      <trkpt lat="46.02482" lon="5.5028">
        <ele>767.4</ele>
        <time>2026-05-09T14:46:34Z</time>
      </trkpt>
      <trkpt lat="46.02477" lon="5.50284">
        <ele>767.4</ele>
        <time>2026-05-09T14:46:35Z</time>
      </trkpt>
      <trkpt lat="46.02472" lon="5.50288">
        <ele>767.4</ele>
        <time>2026-05-09T14:46:36Z</time>
      </trkpt>
      <trkpt lat="46.02467" lon="5.50291">
        <ele>767.4</ele>
        <time>2026-05-09T14:46:37Z</time>
      </trkpt>
      <trkpt lat="46.02462" lon="5.50295">
        <ele>767.4</ele>
        <time>2026-05-09T14:46:38Z</time>
      </trkpt>
      <trkpt lat="46.02456" lon="5.503">
        <ele>767.4</ele>
        <time>2026-05-09T14:46:39Z</time>
      </trkpt>
      <trkpt lat="46.02451" lon="5.50305">
        <ele>767.2</ele>
        <time>2026-05-09T14:46:40Z</time>
      </trkpt>
      <trkpt lat="46.02447" lon="5.5031">
        <ele>767.2</ele>
        <time>2026-05-09T14:46:41Z</time>
      </trkpt>
      <trkpt lat="46.02442" lon="5.50314">
        <ele>767.2</ele>
        <time>2026-05-09T14:46:42Z</time>
      </trkpt>
      <trkpt lat="46.02437" lon="5.50319">
        <ele>767.2</ele>
        <time>2026-05-09T14:46:43Z</time>
      </trkpt>
      <trkpt lat="46.02432" lon="5.50324">
        <ele>766.8</ele>
        <time>2026-05-09T14:46:44Z</time>
      </trkpt>
      <trkpt lat="46.02427" lon="5.5033">
        <ele>766.8</ele>
        <time>2026-05-09T14:46:45Z</time>
      </trkpt>
      <trkpt lat="46.02422" lon="5.50336">
        <ele>766.6</ele>
        <time>2026-05-09T14:46:46Z</time>
      </trkpt>
      <trkpt lat="46.02417" lon="5.50342">
        <ele>766.6</ele>
        <time>2026-05-09T14:46:47Z</time>
      </trkpt>
      <trkpt lat="46.02413" lon="5.50349">
        <ele>766.2</ele>
        <time>2026-05-09T14:46:48Z</time>
      </trkpt>
      <trkpt lat="46.02408" lon="5.50356">
        <ele>766.2</ele>
        <time>2026-05-09T14:46:49Z</time>
      </trkpt>
      <trkpt lat="46.02403" lon="5.50363">
        <ele>766</ele>
        <time>2026-05-09T14:46:50Z</time>
      </trkpt>
      <trkpt lat="46.02398" lon="5.50369">
        <ele>766</ele>
        <time>2026-05-09T14:46:51Z</time>
      </trkpt>
      <trkpt lat="46.02393" lon="5.50377">
        <ele>766</ele>
        <time>2026-05-09T14:46:52Z</time>
      </trkpt>
      <trkpt lat="46.02389" lon="5.50385">
        <ele>766</ele>
        <time>2026-05-09T14:46:53Z</time>
      </trkpt>
      <trkpt lat="46.02385" lon="5.50393">
        <ele>766</ele>
        <time>2026-05-09T14:46:54Z</time>
      </trkpt>
      <trkpt lat="46.0238" lon="5.50402">
        <ele>766</ele>
        <time>2026-05-09T14:46:55Z</time>
      </trkpt>
      <trkpt lat="46.02376" lon="5.5041">
        <ele>765.8</ele>
        <time>2026-05-09T14:46:56Z</time>
      </trkpt>
      <trkpt lat="46.02372" lon="5.50419">
        <ele>765.8</ele>
        <time>2026-05-09T14:46:57Z</time>
      </trkpt>
      <trkpt lat="46.02368" lon="5.50428">
        <ele>765.6</ele>
        <time>2026-05-09T14:46:58Z</time>
      </trkpt>
      <trkpt lat="46.02364" lon="5.50436">
        <ele>765.6</ele>
        <time>2026-05-09T14:46:59Z</time>
      </trkpt>
      <trkpt lat="46.02361" lon="5.50445">
        <ele>765.6</ele>
        <time>2026-05-09T14:47:00Z</time>
      </trkpt>
      <trkpt lat="46.02357" lon="5.50454">
        <ele>765.6</ele>
        <time>2026-05-09T14:47:01Z</time>
      </trkpt>
      <trkpt lat="46.02354" lon="5.50462">
        <ele>765.4</ele>
        <time>2026-05-09T14:47:02Z</time>
      </trkpt>
      <trkpt lat="46.02351" lon="5.50471">
        <ele>765.4</ele>
        <time>2026-05-09T14:47:03Z</time>
      </trkpt>
      <trkpt lat="46.02349" lon="5.5048">
        <ele>765.4</ele>
        <time>2026-05-09T14:47:04Z</time>
      </trkpt>
      <trkpt lat="46.02346" lon="5.50488">
        <ele>765.4</ele>
        <time>2026-05-09T14:47:05Z</time>
      </trkpt>
      <trkpt lat="46.02344" lon="5.50497">
        <ele>765.4</ele>
        <time>2026-05-09T14:47:06Z</time>
      </trkpt>
      <trkpt lat="46.02341" lon="5.50505">
        <ele>765.8</ele>
        <time>2026-05-09T14:47:07Z</time>
      </trkpt>
      <trkpt lat="46.0234" lon="5.50514">
        <ele>766</ele>
        <time>2026-05-09T14:47:08Z</time>
      </trkpt>
      <trkpt lat="46.02338" lon="5.50522">
        <ele>766</ele>
        <time>2026-05-09T14:47:09Z</time>
      </trkpt>
      <trkpt lat="46.02336" lon="5.50531">
        <ele>766.2</ele>
        <time>2026-05-09T14:47:10Z</time>
      </trkpt>
      <trkpt lat="46.02334" lon="5.50548">
        <ele>766.2</ele>
        <time>2026-05-09T14:47:11Z</time>
      </trkpt>
      <trkpt lat="46.02332" lon="5.50556">
        <ele>766.4</ele>
        <time>2026-05-09T14:47:12Z</time>
      </trkpt>
      <trkpt lat="46.02331" lon="5.50565">
        <ele>766.4</ele>
        <time>2026-05-09T14:47:13Z</time>
      </trkpt>
      <trkpt lat="46.0233" lon="5.50573">
        <ele>766.4</ele>
        <time>2026-05-09T14:47:14Z</time>
      </trkpt>
      <trkpt lat="46.02329" lon="5.50582">
        <ele>766.4</ele>
        <time>2026-05-09T14:47:15Z</time>
      </trkpt>
      <trkpt lat="46.02328" lon="5.5059">
        <ele>766.4</ele>
        <time>2026-05-09T14:47:16Z</time>
      </trkpt>
      <trkpt lat="46.02327" lon="5.506">
        <ele>766.4</ele>
        <time>2026-05-09T14:47:17Z</time>
      </trkpt>
      <trkpt lat="46.02327" lon="5.50608">
        <ele>766.4</ele>
        <time>2026-05-09T14:47:18Z</time>
      </trkpt>
      <trkpt lat="46.02326" lon="5.50617">
        <ele>766.4</ele>
        <time>2026-05-09T14:47:19Z</time>
      </trkpt>
      <trkpt lat="46.02326" lon="5.50626">
        <ele>766.4</ele>
        <time>2026-05-09T14:47:20Z</time>
      </trkpt>
      <trkpt lat="46.02326" lon="5.50634">
        <ele>766.4</ele>
        <time>2026-05-09T14:47:21Z</time>
      </trkpt>
      <trkpt lat="46.02326" lon="5.50643">
        <ele>766.4</ele>
        <time>2026-05-09T14:47:22Z</time>
      </trkpt>
      <trkpt lat="46.02326" lon="5.50652">
        <ele>766.2</ele>
        <time>2026-05-09T14:47:23Z</time>
      </trkpt>
      <trkpt lat="46.02326" lon="5.50662">
        <ele>766.2</ele>
        <time>2026-05-09T14:47:24Z</time>
      </trkpt>
      <trkpt lat="46.02326" lon="5.50671">
        <ele>765.8</ele>
        <time>2026-05-09T14:47:25Z</time>
      </trkpt>
      <trkpt lat="46.02327" lon="5.5068">
        <ele>765.8</ele>
        <time>2026-05-09T14:47:26Z</time>
      </trkpt>
      <trkpt lat="46.02328" lon="5.50689">
        <ele>765.6</ele>
        <time>2026-05-09T14:47:27Z</time>
      </trkpt>
      <trkpt lat="46.02329" lon="5.50698">
        <ele>765.2</ele>
        <time>2026-05-09T14:47:28Z</time>
      </trkpt>
      <trkpt lat="46.0233" lon="5.50708">
        <ele>765.2</ele>
        <time>2026-05-09T14:47:29Z</time>
      </trkpt>
      <trkpt lat="46.02332" lon="5.50717">
        <ele>765.2</ele>
        <time>2026-05-09T14:47:30Z</time>
      </trkpt>
      <trkpt lat="46.02333" lon="5.50727">
        <ele>765</ele>
        <time>2026-05-09T14:47:31Z</time>
      </trkpt>
      <trkpt lat="46.02335" lon="5.50737">
        <ele>765</ele>
        <time>2026-05-09T14:47:32Z</time>
      </trkpt>
      <trkpt lat="46.02337" lon="5.50747">
        <ele>764.6</ele>
        <time>2026-05-09T14:47:33Z</time>
      </trkpt>
      <trkpt lat="46.02339" lon="5.50757">
        <ele>764.2</ele>
        <time>2026-05-09T14:47:34Z</time>
      </trkpt>
      <trkpt lat="46.02341" lon="5.50767">
        <ele>764.2</ele>
        <time>2026-05-09T14:47:35Z</time>
      </trkpt>
      <trkpt lat="46.02343" lon="5.50777">
        <ele>764.2</ele>
        <time>2026-05-09T14:47:36Z</time>
      </trkpt>
      <trkpt lat="46.02344" lon="5.50788">
        <ele>763.8</ele>
        <time>2026-05-09T14:47:37Z</time>
      </trkpt>
      <trkpt lat="46.02346" lon="5.50798">
        <ele>762.6</ele>
        <time>2026-05-09T14:47:38Z</time>
      </trkpt>
      <trkpt lat="46.02348" lon="5.50809">
        <ele>762.6</ele>
        <time>2026-05-09T14:47:39Z</time>
      </trkpt>
      <trkpt lat="46.02349" lon="5.5082">
        <ele>762.4</ele>
        <time>2026-05-09T14:47:40Z</time>
      </trkpt>
      <trkpt lat="46.02351" lon="5.50832">
        <ele>762</ele>
        <time>2026-05-09T14:47:41Z</time>
      </trkpt>
      <trkpt lat="46.02351" lon="5.50844">
        <ele>761.8</ele>
        <time>2026-05-09T14:47:42Z</time>
      </trkpt>
      <trkpt lat="46.02352" lon="5.50856">
        <ele>761.8</ele>
        <time>2026-05-09T14:47:43Z</time>
      </trkpt>
      <trkpt lat="46.02352" lon="5.50868">
        <ele>761.6</ele>
        <time>2026-05-09T14:47:44Z</time>
      </trkpt>
      <trkpt lat="46.02351" lon="5.5088">
        <ele>761.2</ele>
        <time>2026-05-09T14:47:45Z</time>
      </trkpt>
      <trkpt lat="46.0235" lon="5.50893">
        <ele>761.2</ele>
        <time>2026-05-09T14:47:46Z</time>
      </trkpt>
      <trkpt lat="46.02347" lon="5.50905">
        <ele>761</ele>
        <time>2026-05-09T14:47:47Z</time>
      </trkpt>
      <trkpt lat="46.02344" lon="5.50918">
        <ele>760.8</ele>
        <time>2026-05-09T14:47:48Z</time>
      </trkpt>
      <trkpt lat="46.0234" lon="5.50931">
        <ele>760.4</ele>
        <time>2026-05-09T14:47:49Z</time>
      </trkpt>
      <trkpt lat="46.02336" lon="5.50943">
        <ele>760.2</ele>
        <time>2026-05-09T14:47:50Z</time>
      </trkpt>
      <trkpt lat="46.02332" lon="5.50954">
        <ele>759.8</ele>
        <time>2026-05-09T14:47:51Z</time>
      </trkpt>
      <trkpt lat="46.02328" lon="5.50966">
        <ele>759.8</ele>
        <time>2026-05-09T14:47:52Z</time>
      </trkpt>
      <trkpt lat="46.02323" lon="5.50977">
        <ele>759.6</ele>
        <time>2026-05-09T14:47:53Z</time>
      </trkpt>
      <trkpt lat="46.02318" lon="5.50987">
        <ele>759.6</ele>
        <time>2026-05-09T14:47:54Z</time>
      </trkpt>
      <trkpt lat="46.02313" lon="5.50998">
        <ele>759.6</ele>
        <time>2026-05-09T14:47:55Z</time>
      </trkpt>
      <trkpt lat="46.02309" lon="5.51008">
        <ele>759.6</ele>
        <time>2026-05-09T14:47:56Z</time>
      </trkpt>
      <trkpt lat="46.02304" lon="5.51017">
        <ele>759.6</ele>
        <time>2026-05-09T14:47:57Z</time>
      </trkpt>
      <trkpt lat="46.023" lon="5.51027">
        <ele>759.6</ele>
        <time>2026-05-09T14:47:58Z</time>
      </trkpt>
      <trkpt lat="46.02296" lon="5.51037">
        <ele>759.4</ele>
        <time>2026-05-09T14:47:59Z</time>
      </trkpt>
      <trkpt lat="46.02292" lon="5.51046">
        <ele>759.4</ele>
        <time>2026-05-09T14:48:00Z</time>
      </trkpt>
      <trkpt lat="46.02288" lon="5.51056">
        <ele>759.4</ele>
        <time>2026-05-09T14:48:01Z</time>
      </trkpt>
      <trkpt lat="46.02283" lon="5.51066">
        <ele>759.4</ele>
        <time>2026-05-09T14:48:02Z</time>
      </trkpt>
      <trkpt lat="46.02279" lon="5.51076">
        <ele>759.4</ele>
        <time>2026-05-09T14:48:03Z</time>
      </trkpt>
      <trkpt lat="46.02275" lon="5.51085">
        <ele>759.4</ele>
        <time>2026-05-09T14:48:04Z</time>
      </trkpt>
      <trkpt lat="46.02271" lon="5.51094">
        <ele>759.8</ele>
        <time>2026-05-09T14:48:05Z</time>
      </trkpt>
      <trkpt lat="46.02267" lon="5.51103">
        <ele>759.8</ele>
        <time>2026-05-09T14:48:06Z</time>
      </trkpt>
      <trkpt lat="46.02263" lon="5.51112">
        <ele>759.8</ele>
        <time>2026-05-09T14:48:07Z</time>
      </trkpt>
      <trkpt lat="46.02259" lon="5.51121">
        <ele>759.8</ele>
        <time>2026-05-09T14:48:08Z</time>
      </trkpt>
      <trkpt lat="46.02256" lon="5.5113">
        <ele>759.8</ele>
        <time>2026-05-09T14:48:09Z</time>
      </trkpt>
      <trkpt lat="46.02252" lon="5.51139">
        <ele>759.8</ele>
        <time>2026-05-09T14:48:10Z</time>
      </trkpt>
      <trkpt lat="46.02249" lon="5.51146">
        <ele>759.8</ele>
        <time>2026-05-09T14:48:11Z</time>
      </trkpt>
      <trkpt lat="46.02245" lon="5.51155">
        <ele>759.8</ele>
        <time>2026-05-09T14:48:12Z</time>
      </trkpt>
      <trkpt lat="46.02241" lon="5.51162">
        <ele>759.8</ele>
        <time>2026-05-09T14:48:13Z</time>
      </trkpt>
      <trkpt lat="46.02238" lon="5.5117">
        <ele>759.8</ele>
        <time>2026-05-09T14:48:14Z</time>
      </trkpt>
      <trkpt lat="46.02235" lon="5.51177">
        <ele>760.2</ele>
        <time>2026-05-09T14:48:15Z</time>
      </trkpt>
      <trkpt lat="46.02231" lon="5.51185">
        <ele>760.2</ele>
        <time>2026-05-09T14:48:16Z</time>
      </trkpt>
      <trkpt lat="46.02228" lon="5.51193">
        <ele>760.4</ele>
        <time>2026-05-09T14:48:17Z</time>
      </trkpt>
      <trkpt lat="46.02225" lon="5.512">
        <ele>760.4</ele>
        <time>2026-05-09T14:48:18Z</time>
      </trkpt>
      <trkpt lat="46.02222" lon="5.51207">
        <ele>760.4</ele>
        <time>2026-05-09T14:48:19Z</time>
      </trkpt>
      <trkpt lat="46.02218" lon="5.51215">
        <ele>760.6</ele>
        <time>2026-05-09T14:48:20Z</time>
      </trkpt>
      <trkpt lat="46.02215" lon="5.51222">
        <ele>760.6</ele>
        <time>2026-05-09T14:48:21Z</time>
      </trkpt>
      <trkpt lat="46.02212" lon="5.51229">
        <ele>760.8</ele>
        <time>2026-05-09T14:48:22Z</time>
      </trkpt>
      <trkpt lat="46.02209" lon="5.51236">
        <ele>760.8</ele>
        <time>2026-05-09T14:48:23Z</time>
      </trkpt>
      <trkpt lat="46.02206" lon="5.51243">
        <ele>761.4</ele>
        <time>2026-05-09T14:48:24Z</time>
      </trkpt>
      <trkpt lat="46.02204" lon="5.51249">
        <ele>761.6</ele>
        <time>2026-05-09T14:48:25Z</time>
      </trkpt>
      <trkpt lat="46.022" lon="5.51255">
        <ele>761.6</ele>
        <time>2026-05-09T14:48:26Z</time>
      </trkpt>
      <trkpt lat="46.02198" lon="5.51262">
        <ele>761.8</ele>
        <time>2026-05-09T14:48:27Z</time>
      </trkpt>
      <trkpt lat="46.02195" lon="5.51268">
        <ele>761.8</ele>
        <time>2026-05-09T14:48:28Z</time>
      </trkpt>
      <trkpt lat="46.02192" lon="5.51275">
        <ele>762.2</ele>
        <time>2026-05-09T14:48:29Z</time>
      </trkpt>
      <trkpt lat="46.02189" lon="5.51281">
        <ele>762.2</ele>
        <time>2026-05-09T14:48:30Z</time>
      </trkpt>
      <trkpt lat="46.02186" lon="5.51287">
        <ele>762.2</ele>
        <time>2026-05-09T14:48:31Z</time>
      </trkpt>
      <trkpt lat="46.02183" lon="5.51293">
        <ele>762.2</ele>
        <time>2026-05-09T14:48:32Z</time>
      </trkpt>
      <trkpt lat="46.02183" lon="5.51293">
        <ele>762.4</ele>
        <time>2026-05-09T14:48:33Z</time>
      </trkpt>
      <trkpt lat="46.0218" lon="5.51299">
        <ele>762.4</ele>
        <time>2026-05-09T14:48:34Z</time>
      </trkpt>
      <trkpt lat="46.02177" lon="5.51305">
        <ele>762.4</ele>
        <time>2026-05-09T14:48:35Z</time>
      </trkpt>
      <trkpt lat="46.02174" lon="5.51311">
        <ele>762.6</ele>
        <time>2026-05-09T14:48:36Z</time>
      </trkpt>
      <trkpt lat="46.02172" lon="5.51318">
        <ele>762.6</ele>
        <time>2026-05-09T14:48:37Z</time>
      </trkpt>
      <trkpt lat="46.02169" lon="5.51325">
        <ele>762.6</ele>
        <time>2026-05-09T14:48:38Z</time>
      </trkpt>
      <trkpt lat="46.02166" lon="5.51331">
        <ele>762.6</ele>
        <time>2026-05-09T14:48:39Z</time>
      </trkpt>
      <trkpt lat="46.02163" lon="5.51338">
        <ele>762.6</ele>
        <time>2026-05-09T14:48:40Z</time>
      </trkpt>
      <trkpt lat="46.0216" lon="5.51344">
        <ele>762.6</ele>
        <time>2026-05-09T14:48:41Z</time>
      </trkpt>
      <trkpt lat="46.02157" lon="5.51351">
        <ele>762.4</ele>
        <time>2026-05-09T14:48:42Z</time>
      </trkpt>
      <trkpt lat="46.02154" lon="5.51359">
        <ele>762.4</ele>
        <time>2026-05-09T14:48:43Z</time>
      </trkpt>
      <trkpt lat="46.02151" lon="5.51366">
        <ele>760.8</ele>
        <time>2026-05-09T14:48:44Z</time>
      </trkpt>
      <trkpt lat="46.02151" lon="5.51366">
        <ele>761</ele>
        <time>2026-05-09T14:48:45Z</time>
      </trkpt>
      <trkpt lat="46.02151" lon="5.51366">
        <ele>761</ele>
        <time>2026-05-09T14:48:46Z</time>
      </trkpt>
      <trkpt lat="46.02137" lon="5.51395">
        <ele>761</ele>
        <time>2026-05-09T14:48:47Z</time>
      </trkpt>
      <trkpt lat="46.02133" lon="5.51402">
        <ele>761</ele>
        <time>2026-05-09T14:48:48Z</time>
      </trkpt>
      <trkpt lat="46.0213" lon="5.5141">
        <ele>761</ele>
        <time>2026-05-09T14:48:49Z</time>
      </trkpt>
      <trkpt lat="46.02127" lon="5.51416">
        <ele>761.2</ele>
        <time>2026-05-09T14:48:50Z</time>
      </trkpt>
      <trkpt lat="46.02124" lon="5.51423">
        <ele>761.6</ele>
        <time>2026-05-09T14:48:51Z</time>
      </trkpt>
      <trkpt lat="46.0212" lon="5.5143">
        <ele>761.6</ele>
        <time>2026-05-09T14:48:52Z</time>
      </trkpt>
      <trkpt lat="46.0212" lon="5.5143">
        <ele>761.8</ele>
        <time>2026-05-09T14:48:53Z</time>
      </trkpt>
      <trkpt lat="46.02118" lon="5.51436">
        <ele>762</ele>
        <time>2026-05-09T14:48:54Z</time>
      </trkpt>
      <trkpt lat="46.02115" lon="5.51443">
        <ele>762</ele>
        <time>2026-05-09T14:48:55Z</time>
      </trkpt>
      <trkpt lat="46.02112" lon="5.51449">
        <ele>762.4</ele>
        <time>2026-05-09T14:48:56Z</time>
      </trkpt>
      <trkpt lat="46.02109" lon="5.51455">
        <ele>762.4</ele>
        <time>2026-05-09T14:48:57Z</time>
      </trkpt>
      <trkpt lat="46.02106" lon="5.51461">
        <ele>762.4</ele>
        <time>2026-05-09T14:48:58Z</time>
      </trkpt>
      <trkpt lat="46.02104" lon="5.51467">
        <ele>763</ele>
        <time>2026-05-09T14:48:59Z</time>
      </trkpt>
      <trkpt lat="46.02101" lon="5.51473">
        <ele>763.2</ele>
        <time>2026-05-09T14:49:00Z</time>
      </trkpt>
      <trkpt lat="46.02099" lon="5.51479">
        <ele>763.2</ele>
        <time>2026-05-09T14:49:01Z</time>
      </trkpt>
      <trkpt lat="46.02096" lon="5.51484">
        <ele>763.2</ele>
        <time>2026-05-09T14:49:02Z</time>
      </trkpt>
      <trkpt lat="46.02094" lon="5.51491">
        <ele>763.4</ele>
        <time>2026-05-09T14:49:03Z</time>
      </trkpt>
      <trkpt lat="46.02092" lon="5.51497">
        <ele>763.4</ele>
        <time>2026-05-09T14:49:04Z</time>
      </trkpt>
      <trkpt lat="46.0209" lon="5.51503">
        <ele>763.4</ele>
        <time>2026-05-09T14:49:05Z</time>
      </trkpt>
      <trkpt lat="46.02088" lon="5.51509">
        <ele>763.8</ele>
        <time>2026-05-09T14:49:06Z</time>
      </trkpt>
      <trkpt lat="46.02087" lon="5.51515">
        <ele>763.8</ele>
        <time>2026-05-09T14:49:07Z</time>
      </trkpt>
      <trkpt lat="46.02086" lon="5.51521">
        <ele>763.8</ele>
        <time>2026-05-09T14:49:08Z</time>
      </trkpt>
      <trkpt lat="46.02085" lon="5.51526">
        <ele>763.8</ele>
        <time>2026-05-09T14:49:09Z</time>
      </trkpt>
      <trkpt lat="46.02084" lon="5.51532">
        <ele>764.2</ele>
        <time>2026-05-09T14:49:10Z</time>
      </trkpt>
      <trkpt lat="46.02083" lon="5.51537">
        <ele>764.2</ele>
        <time>2026-05-09T14:49:11Z</time>
      </trkpt>
      <trkpt lat="46.02082" lon="5.51543">
        <ele>764.2</ele>
        <time>2026-05-09T14:49:12Z</time>
      </trkpt>
      <trkpt lat="46.02081" lon="5.51549">
        <ele>764.6</ele>
        <time>2026-05-09T14:49:13Z</time>
      </trkpt>
      <trkpt lat="46.0208" lon="5.51554">
        <ele>764.8</ele>
        <time>2026-05-09T14:49:14Z</time>
      </trkpt>
      <trkpt lat="46.02079" lon="5.51559">
        <ele>764.8</ele>
        <time>2026-05-09T14:49:15Z</time>
      </trkpt>
      <trkpt lat="46.02079" lon="5.51564">
        <ele>765.2</ele>
        <time>2026-05-09T14:49:16Z</time>
      </trkpt>
      <trkpt lat="46.02079" lon="5.51569">
        <ele>765.2</ele>
        <time>2026-05-09T14:49:17Z</time>
      </trkpt>
      <trkpt lat="46.02078" lon="5.51574">
        <ele>765.4</ele>
        <time>2026-05-09T14:49:18Z</time>
      </trkpt>
      <trkpt lat="46.02077" lon="5.51579">
        <ele>765.8</ele>
        <time>2026-05-09T14:49:19Z</time>
      </trkpt>
      <trkpt lat="46.02076" lon="5.51584">
        <ele>765.8</ele>
        <time>2026-05-09T14:49:20Z</time>
      </trkpt>
      <trkpt lat="46.02076" lon="5.51588">
        <ele>766</ele>
        <time>2026-05-09T14:49:21Z</time>
      </trkpt>
      <trkpt lat="46.02075" lon="5.51593">
        <ele>766</ele>
        <time>2026-05-09T14:49:22Z</time>
      </trkpt>
      <trkpt lat="46.02075" lon="5.51598">
        <ele>766.2</ele>
        <time>2026-05-09T14:49:23Z</time>
      </trkpt>
      <trkpt lat="46.02074" lon="5.51602">
        <ele>766.4</ele>
        <time>2026-05-09T14:49:24Z</time>
      </trkpt>
      <trkpt lat="46.02074" lon="5.51602">
        <ele>766.4</ele>
        <time>2026-05-09T14:49:25Z</time>
      </trkpt>
      <trkpt lat="46.02073" lon="5.51616">
        <ele>766.6</ele>
        <time>2026-05-09T14:49:26Z</time>
      </trkpt>
      <trkpt lat="46.02072" lon="5.5162">
        <ele>767</ele>
        <time>2026-05-09T14:49:27Z</time>
      </trkpt>
      <trkpt lat="46.02072" lon="5.51625">
        <ele>767.4</ele>
        <time>2026-05-09T14:49:28Z</time>
      </trkpt>
      <trkpt lat="46.02072" lon="5.51629">
        <ele>767.8</ele>
        <time>2026-05-09T14:49:29Z</time>
      </trkpt>
      <trkpt lat="46.02071" lon="5.51634">
        <ele>767.8</ele>
        <time>2026-05-09T14:49:30Z</time>
      </trkpt>
      <trkpt lat="46.0207" lon="5.51638">
        <ele>768</ele>
        <time>2026-05-09T14:49:31Z</time>
      </trkpt>
      <trkpt lat="46.0207" lon="5.51643">
        <ele>768.2</ele>
        <time>2026-05-09T14:49:32Z</time>
      </trkpt>
      <trkpt lat="46.02069" lon="5.51647">
        <ele>768.2</ele>
        <time>2026-05-09T14:49:33Z</time>
      </trkpt>
      <trkpt lat="46.02069" lon="5.51651">
        <ele>768.4</ele>
        <time>2026-05-09T14:49:34Z</time>
      </trkpt>
      <trkpt lat="46.02068" lon="5.51655">
        <ele>768.4</ele>
        <time>2026-05-09T14:49:35Z</time>
      </trkpt>
      <trkpt lat="46.02068" lon="5.51659">
        <ele>768.8</ele>
        <time>2026-05-09T14:49:36Z</time>
      </trkpt>
      <trkpt lat="46.02068" lon="5.51663">
        <ele>768.8</ele>
        <time>2026-05-09T14:49:37Z</time>
      </trkpt>
      <trkpt lat="46.02067" lon="5.51667">
        <ele>768.8</ele>
        <time>2026-05-09T14:49:38Z</time>
      </trkpt>
      <trkpt lat="46.02067" lon="5.51671">
        <ele>768.8</ele>
        <time>2026-05-09T14:49:39Z</time>
      </trkpt>
      <trkpt lat="46.02067" lon="5.51675">
        <ele>769</ele>
        <time>2026-05-09T14:49:40Z</time>
      </trkpt>
      <trkpt lat="46.02066" lon="5.51679">
        <ele>769</ele>
        <time>2026-05-09T14:49:41Z</time>
      </trkpt>
      <trkpt lat="46.02066" lon="5.51683">
        <ele>769</ele>
        <time>2026-05-09T14:49:42Z</time>
      </trkpt>
      <trkpt lat="46.02066" lon="5.51687">
        <ele>769.4</ele>
        <time>2026-05-09T14:49:43Z</time>
      </trkpt>
      <trkpt lat="46.02065" lon="5.51691">
        <ele>769.4</ele>
        <time>2026-05-09T14:49:44Z</time>
      </trkpt>
      <trkpt lat="46.02065" lon="5.51695">
        <ele>769.4</ele>
        <time>2026-05-09T14:49:45Z</time>
      </trkpt>
      <trkpt lat="46.02065" lon="5.51699">
        <ele>769.8</ele>
        <time>2026-05-09T14:49:46Z</time>
      </trkpt>
      <trkpt lat="46.02064" lon="5.51703">
        <ele>769.8</ele>
        <time>2026-05-09T14:49:47Z</time>
      </trkpt>
      <trkpt lat="46.02064" lon="5.51706">
        <ele>769.8</ele>
        <time>2026-05-09T14:49:48Z</time>
      </trkpt>
      <trkpt lat="46.02064" lon="5.5171">
        <ele>770</ele>
        <time>2026-05-09T14:49:49Z</time>
      </trkpt>
      <trkpt lat="46.02063" lon="5.51713">
        <ele>770</ele>
        <time>2026-05-09T14:49:50Z</time>
      </trkpt>
      <trkpt lat="46.02063" lon="5.51717">
        <ele>770.4</ele>
        <time>2026-05-09T14:49:51Z</time>
      </trkpt>
      <trkpt lat="46.02062" lon="5.5172">
        <ele>770.4</ele>
        <time>2026-05-09T14:49:52Z</time>
      </trkpt>
      <trkpt lat="46.02061" lon="5.51723">
        <ele>770.4</ele>
        <time>2026-05-09T14:49:53Z</time>
      </trkpt>
      <trkpt lat="46.02061" lon="5.51727">
        <ele>770.4</ele>
        <time>2026-05-09T14:49:54Z</time>
      </trkpt>
      <trkpt lat="46.0206" lon="5.51731">
        <ele>770.4</ele>
        <time>2026-05-09T14:49:55Z</time>
      </trkpt>
      <trkpt lat="46.0206" lon="5.51734">
        <ele>770.4</ele>
        <time>2026-05-09T14:49:56Z</time>
      </trkpt>
      <trkpt lat="46.02059" lon="5.51737">
        <ele>770.6</ele>
        <time>2026-05-09T14:49:57Z</time>
      </trkpt>
      <trkpt lat="46.02058" lon="5.5174">
        <ele>770.6</ele>
        <time>2026-05-09T14:49:58Z</time>
      </trkpt>
      <trkpt lat="46.02057" lon="5.51743">
        <ele>771</ele>
        <time>2026-05-09T14:49:59Z</time>
      </trkpt>
      <trkpt lat="46.02057" lon="5.51746">
        <ele>771</ele>
        <time>2026-05-09T14:50:00Z</time>
      </trkpt>
      <trkpt lat="46.02056" lon="5.51749">
        <ele>771.2</ele>
        <time>2026-05-09T14:50:01Z</time>
      </trkpt>
      <trkpt lat="46.02055" lon="5.51752">
        <ele>771.2</ele>
        <time>2026-05-09T14:50:02Z</time>
      </trkpt>
      <trkpt lat="46.02054" lon="5.51754">
        <ele>771.2</ele>
        <time>2026-05-09T14:50:03Z</time>
      </trkpt>
      <trkpt lat="46.02053" lon="5.51757">
        <ele>771.4</ele>
        <time>2026-05-09T14:50:04Z</time>
      </trkpt>
      <trkpt lat="46.02052" lon="5.51759">
        <ele>771.4</ele>
        <time>2026-05-09T14:50:05Z</time>
      </trkpt>
      <trkpt lat="46.02051" lon="5.51762">
        <ele>771.8</ele>
        <time>2026-05-09T14:50:06Z</time>
      </trkpt>
      <trkpt lat="46.0205" lon="5.51764">
        <ele>771.8</ele>
        <time>2026-05-09T14:50:07Z</time>
      </trkpt>
      <trkpt lat="46.02049" lon="5.51767">
        <ele>772.2</ele>
        <time>2026-05-09T14:50:08Z</time>
      </trkpt>
      <trkpt lat="46.02048" lon="5.51769">
        <ele>772.6</ele>
        <time>2026-05-09T14:50:09Z</time>
      </trkpt>
      <trkpt lat="46.02047" lon="5.51771">
        <ele>772.8</ele>
        <time>2026-05-09T14:50:10Z</time>
      </trkpt>
      <trkpt lat="46.02046" lon="5.51773">
        <ele>772.8</ele>
        <time>2026-05-09T14:50:11Z</time>
      </trkpt>
      <trkpt lat="46.02045" lon="5.51775">
        <ele>772.8</ele>
        <time>2026-05-09T14:50:12Z</time>
      </trkpt>
      <trkpt lat="46.02044" lon="5.51777">
        <ele>773</ele>
        <time>2026-05-09T14:50:13Z</time>
      </trkpt>
      <trkpt lat="46.02043" lon="5.51779">
        <ele>773</ele>
        <time>2026-05-09T14:50:14Z</time>
      </trkpt>
      <trkpt lat="46.02042" lon="5.51782">
        <ele>773.4</ele>
        <time>2026-05-09T14:50:15Z</time>
      </trkpt>
      <trkpt lat="46.02041" lon="5.51784">
        <ele>773.4</ele>
        <time>2026-05-09T14:50:16Z</time>
      </trkpt>
      <trkpt lat="46.0204" lon="5.51786">
        <ele>773.8</ele>
        <time>2026-05-09T14:50:17Z</time>
      </trkpt>
      <trkpt lat="46.02039" lon="5.51788">
        <ele>773.8</ele>
        <time>2026-05-09T14:50:18Z</time>
      </trkpt>
      <trkpt lat="46.02038" lon="5.5179">
        <ele>774</ele>
        <time>2026-05-09T14:50:19Z</time>
      </trkpt>
      <trkpt lat="46.02037" lon="5.51792">
        <ele>774</ele>
        <time>2026-05-09T14:50:20Z</time>
      </trkpt>
      <trkpt lat="46.02036" lon="5.51794">
        <ele>774</ele>
        <time>2026-05-09T14:50:21Z</time>
      </trkpt>
      <trkpt lat="46.02035" lon="5.51796">
        <ele>774.2</ele>
        <time>2026-05-09T14:50:22Z</time>
      </trkpt>
      <trkpt lat="46.02034" lon="5.51798">
        <ele>774.2</ele>
        <time>2026-05-09T14:50:23Z</time>
      </trkpt>
      <trkpt lat="46.02033" lon="5.518">
        <ele>774.2</ele>
        <time>2026-05-09T14:50:24Z</time>
      </trkpt>
      <trkpt lat="46.02032" lon="5.51802">
        <ele>774.6</ele>
        <time>2026-05-09T14:50:25Z</time>
      </trkpt>
      <trkpt lat="46.0203" lon="5.51805">
        <ele>774.6</ele>
        <time>2026-05-09T14:50:26Z</time>
      </trkpt>
      <trkpt lat="46.02029" lon="5.51806">
        <ele>774.6</ele>
        <time>2026-05-09T14:50:27Z</time>
      </trkpt>
      <trkpt lat="46.02028" lon="5.51809">
        <ele>774.8</ele>
        <time>2026-05-09T14:50:28Z</time>
      </trkpt>
      <trkpt lat="46.02027" lon="5.51811">
        <ele>774.8</ele>
        <time>2026-05-09T14:50:29Z</time>
      </trkpt>
      <trkpt lat="46.02026" lon="5.51813">
        <ele>775</ele>
        <time>2026-05-09T14:50:30Z</time>
      </trkpt>
      <trkpt lat="46.02024" lon="5.51815">
        <ele>775</ele>
        <time>2026-05-09T14:50:31Z</time>
      </trkpt>
      <trkpt lat="46.02024" lon="5.51815">
        <ele>775</ele>
        <time>2026-05-09T14:50:32Z</time>
      </trkpt>
      <trkpt lat="46.02023" lon="5.51817">
        <ele>775</ele>
        <time>2026-05-09T14:50:33Z</time>
      </trkpt>
      <trkpt lat="46.02022" lon="5.51819">
        <ele>775</ele>
        <time>2026-05-09T14:50:34Z</time>
      </trkpt>
      <trkpt lat="46.02022" lon="5.5182">
        <ele>775.2</ele>
        <time>2026-05-09T14:50:35Z</time>
      </trkpt>
      <trkpt lat="46.02021" lon="5.51823">
        <ele>775.2</ele>
        <time>2026-05-09T14:50:36Z</time>
      </trkpt>
      <trkpt lat="46.0202" lon="5.51825">
        <ele>775.4</ele>
        <time>2026-05-09T14:50:37Z</time>
      </trkpt>
      <trkpt lat="46.02018" lon="5.51826">
        <ele>775.4</ele>
        <time>2026-05-09T14:50:38Z</time>
      </trkpt>
      <trkpt lat="46.02017" lon="5.51828">
        <ele>775.8</ele>
        <time>2026-05-09T14:50:39Z</time>
      </trkpt>
      <trkpt lat="46.02015" lon="5.51829">
        <ele>775.8</ele>
        <time>2026-05-09T14:50:40Z</time>
      </trkpt>
      <trkpt lat="46.02014" lon="5.51831">
        <ele>775.8</ele>
        <time>2026-05-09T14:50:41Z</time>
      </trkpt>
      <trkpt lat="46.02012" lon="5.51832">
        <ele>775.8</ele>
        <time>2026-05-09T14:50:42Z</time>
      </trkpt>
      <trkpt lat="46.02011" lon="5.51834">
        <ele>776</ele>
        <time>2026-05-09T14:50:43Z</time>
      </trkpt>
      <trkpt lat="46.0201" lon="5.51836">
        <ele>776</ele>
        <time>2026-05-09T14:50:44Z</time>
      </trkpt>
      <trkpt lat="46.02008" lon="5.51837">
        <ele>776.4</ele>
        <time>2026-05-09T14:50:45Z</time>
      </trkpt>
      <trkpt lat="46.02006" lon="5.51839">
        <ele>776.4</ele>
        <time>2026-05-09T14:50:46Z</time>
      </trkpt>
      <trkpt lat="46.02005" lon="5.5184">
        <ele>776.6</ele>
        <time>2026-05-09T14:50:47Z</time>
      </trkpt>
      <trkpt lat="46.02003" lon="5.51842">
        <ele>776.6</ele>
        <time>2026-05-09T14:50:48Z</time>
      </trkpt>
      <trkpt lat="46.02001" lon="5.51844">
        <ele>776.6</ele>
        <time>2026-05-09T14:50:49Z</time>
      </trkpt>
      <trkpt lat="46.01999" lon="5.51846">
        <ele>776.8</ele>
        <time>2026-05-09T14:50:50Z</time>
      </trkpt>
      <trkpt lat="46.01997" lon="5.51847">
        <ele>776.8</ele>
        <time>2026-05-09T14:50:51Z</time>
      </trkpt>
      <trkpt lat="46.01996" lon="5.51848">
        <ele>776.8</ele>
        <time>2026-05-09T14:50:52Z</time>
      </trkpt>
      <trkpt lat="46.01995" lon="5.5185">
        <ele>777.2</ele>
        <time>2026-05-09T14:50:53Z</time>
      </trkpt>
      <trkpt lat="46.01993" lon="5.51851">
        <ele>777.2</ele>
        <time>2026-05-09T14:50:54Z</time>
      </trkpt>
      <trkpt lat="46.01992" lon="5.51853">
        <ele>777.4</ele>
        <time>2026-05-09T14:50:55Z</time>
      </trkpt>
      <trkpt lat="46.01991" lon="5.51855">
        <ele>777.6</ele>
        <time>2026-05-09T14:50:56Z</time>
      </trkpt>
      <trkpt lat="46.01989" lon="5.51856">
        <ele>777.6</ele>
        <time>2026-05-09T14:50:57Z</time>
      </trkpt>
      <trkpt lat="46.01988" lon="5.51857">
        <ele>778.2</ele>
        <time>2026-05-09T14:50:58Z</time>
      </trkpt>
      <trkpt lat="46.01986" lon="5.51859">
        <ele>778.2</ele>
        <time>2026-05-09T14:50:59Z</time>
      </trkpt>
      <trkpt lat="46.01984" lon="5.5186">
        <ele>778.6</ele>
        <time>2026-05-09T14:51:00Z</time>
      </trkpt>
      <trkpt lat="46.01982" lon="5.51861">
        <ele>778.8</ele>
        <time>2026-05-09T14:51:01Z</time>
      </trkpt>
      <trkpt lat="46.0198" lon="5.51863">
        <ele>778.8</ele>
        <time>2026-05-09T14:51:02Z</time>
      </trkpt>
      <trkpt lat="46.01978" lon="5.51864">
        <ele>779.2</ele>
        <time>2026-05-09T14:51:03Z</time>
      </trkpt>
      <trkpt lat="46.01977" lon="5.51865">
        <ele>779.4</ele>
        <time>2026-05-09T14:51:04Z</time>
      </trkpt>
      <trkpt lat="46.01975" lon="5.51866">
        <ele>779.4</ele>
        <time>2026-05-09T14:51:05Z</time>
      </trkpt>
      <trkpt lat="46.01973" lon="5.51868">
        <ele>779.6</ele>
        <time>2026-05-09T14:51:06Z</time>
      </trkpt>
      <trkpt lat="46.01972" lon="5.51869">
        <ele>779.6</ele>
        <time>2026-05-09T14:51:07Z</time>
      </trkpt>
      <trkpt lat="46.0197" lon="5.5187">
        <ele>779.8</ele>
        <time>2026-05-09T14:51:08Z</time>
      </trkpt>
      <trkpt lat="46.01969" lon="5.51871">
        <ele>780</ele>
        <time>2026-05-09T14:51:09Z</time>
      </trkpt>
      <trkpt lat="46.01968" lon="5.51872">
        <ele>780</ele>
        <time>2026-05-09T14:51:10Z</time>
      </trkpt>
      <trkpt lat="46.01966" lon="5.51874">
        <ele>780</ele>
        <time>2026-05-09T14:51:11Z</time>
      </trkpt>
      <trkpt lat="46.01964" lon="5.51876">
        <ele>780</ele>
        <time>2026-05-09T14:51:12Z</time>
      </trkpt>
      <trkpt lat="46.01963" lon="5.51877">
        <ele>780</ele>
        <time>2026-05-09T14:51:13Z</time>
      </trkpt>
      <trkpt lat="46.01962" lon="5.51879">
        <ele>780.2</ele>
        <time>2026-05-09T14:51:14Z</time>
      </trkpt>
      <trkpt lat="46.0196" lon="5.5188">
        <ele>780.2</ele>
        <time>2026-05-09T14:51:15Z</time>
      </trkpt>
      <trkpt lat="46.01959" lon="5.51882">
        <ele>780.2</ele>
        <time>2026-05-09T14:51:16Z</time>
      </trkpt>
      <trkpt lat="46.01958" lon="5.51883">
        <ele>780.6</ele>
        <time>2026-05-09T14:51:17Z</time>
      </trkpt>
      <trkpt lat="46.01957" lon="5.51885">
        <ele>780.6</ele>
        <time>2026-05-09T14:51:18Z</time>
      </trkpt>
      <trkpt lat="46.01955" lon="5.51886">
        <ele>780.8</ele>
        <time>2026-05-09T14:51:19Z</time>
      </trkpt>
      <trkpt lat="46.01954" lon="5.51888">
        <ele>781</ele>
        <time>2026-05-09T14:51:20Z</time>
      </trkpt>
      <trkpt lat="46.01953" lon="5.51889">
        <ele>781</ele>
        <time>2026-05-09T14:51:21Z</time>
      </trkpt>
      <trkpt lat="46.01952" lon="5.51891">
        <ele>781.2</ele>
        <time>2026-05-09T14:51:22Z</time>
      </trkpt>
      <trkpt lat="46.0195" lon="5.51893">
        <ele>781.2</ele>
        <time>2026-05-09T14:51:23Z</time>
      </trkpt>
      <trkpt lat="46.01949" lon="5.51895">
        <ele>781.2</ele>
        <time>2026-05-09T14:51:24Z</time>
      </trkpt>
      <trkpt lat="46.01948" lon="5.51897">
        <ele>781.6</ele>
        <time>2026-05-09T14:51:25Z</time>
      </trkpt>
      <trkpt lat="46.01946" lon="5.51899">
        <ele>781.6</ele>
        <time>2026-05-09T14:51:26Z</time>
      </trkpt>
      <trkpt lat="46.01945" lon="5.51901">
        <ele>781.8</ele>
        <time>2026-05-09T14:51:27Z</time>
      </trkpt>
      <trkpt lat="46.01944" lon="5.51902">
        <ele>781.8</ele>
        <time>2026-05-09T14:51:28Z</time>
      </trkpt>
      <trkpt lat="46.01942" lon="5.51904">
        <ele>781.8</ele>
        <time>2026-05-09T14:51:29Z</time>
      </trkpt>
      <trkpt lat="46.01941" lon="5.51905">
        <ele>781.8</ele>
        <time>2026-05-09T14:51:30Z</time>
      </trkpt>
      <trkpt lat="46.0194" lon="5.51907">
        <ele>782</ele>
        <time>2026-05-09T14:51:31Z</time>
      </trkpt>
      <trkpt lat="46.01938" lon="5.51909">
        <ele>782.2</ele>
        <time>2026-05-09T14:51:32Z</time>
      </trkpt>
      <trkpt lat="46.01937" lon="5.5191">
        <ele>782.2</ele>
        <time>2026-05-09T14:51:33Z</time>
      </trkpt>
      <trkpt lat="46.01935" lon="5.51912">
        <ele>782.2</ele>
        <time>2026-05-09T14:51:34Z</time>
      </trkpt>
      <trkpt lat="46.01934" lon="5.51914">
        <ele>782.2</ele>
        <time>2026-05-09T14:51:35Z</time>
      </trkpt>
      <trkpt lat="46.01933" lon="5.51916">
        <ele>782.2</ele>
        <time>2026-05-09T14:51:36Z</time>
      </trkpt>
      <trkpt lat="46.01932" lon="5.51918">
        <ele>782.4</ele>
        <time>2026-05-09T14:51:37Z</time>
      </trkpt>
      <trkpt lat="46.01931" lon="5.5192">
        <ele>782.4</ele>
        <time>2026-05-09T14:51:38Z</time>
      </trkpt>
      <trkpt lat="46.01929" lon="5.51922">
        <ele>782.8</ele>
        <time>2026-05-09T14:51:39Z</time>
      </trkpt>
      <trkpt lat="46.01928" lon="5.51924">
        <ele>782.8</ele>
        <time>2026-05-09T14:51:40Z</time>
      </trkpt>
      <trkpt lat="46.01927" lon="5.51926">
        <ele>782.8</ele>
        <time>2026-05-09T14:51:41Z</time>
      </trkpt>
      <trkpt lat="46.01926" lon="5.51929">
        <ele>783</ele>
        <time>2026-05-09T14:51:42Z</time>
      </trkpt>
      <trkpt lat="46.01924" lon="5.51932">
        <ele>783</ele>
        <time>2026-05-09T14:51:43Z</time>
      </trkpt>
      <trkpt lat="46.01922" lon="5.51935">
        <ele>783</ele>
        <time>2026-05-09T14:51:44Z</time>
      </trkpt>
      <trkpt lat="46.01921" lon="5.51938">
        <ele>783</ele>
        <time>2026-05-09T14:51:45Z</time>
      </trkpt>
      <trkpt lat="46.01918" lon="5.51943">
        <ele>783.4</ele>
        <time>2026-05-09T14:51:46Z</time>
      </trkpt>
      <trkpt lat="46.01917" lon="5.51945">
        <ele>783.4</ele>
        <time>2026-05-09T14:51:47Z</time>
      </trkpt>
      <trkpt lat="46.01916" lon="5.51948">
        <ele>783.8</ele>
        <time>2026-05-09T14:51:48Z</time>
      </trkpt>
      <trkpt lat="46.01915" lon="5.5195">
        <ele>783.8</ele>
        <time>2026-05-09T14:51:49Z</time>
      </trkpt>
      <trkpt lat="46.01913" lon="5.51953">
        <ele>784.2</ele>
        <time>2026-05-09T14:51:50Z</time>
      </trkpt>
      <trkpt lat="46.01912" lon="5.51955">
        <ele>784.2</ele>
        <time>2026-05-09T14:51:51Z</time>
      </trkpt>
      <trkpt lat="46.01911" lon="5.51958">
        <ele>784.4</ele>
        <time>2026-05-09T14:51:52Z</time>
      </trkpt>
      <trkpt lat="46.0191" lon="5.51961">
        <ele>784.6</ele>
        <time>2026-05-09T14:51:53Z</time>
      </trkpt>
      <trkpt lat="46.01909" lon="5.51963">
        <ele>784.6</ele>
        <time>2026-05-09T14:51:54Z</time>
      </trkpt>
      <trkpt lat="46.01908" lon="5.51966">
        <ele>784.8</ele>
        <time>2026-05-09T14:51:55Z</time>
      </trkpt>
      <trkpt lat="46.01906" lon="5.51968">
        <ele>785</ele>
        <time>2026-05-09T14:51:56Z</time>
      </trkpt>
      <trkpt lat="46.01905" lon="5.51971">
        <ele>785</ele>
        <time>2026-05-09T14:51:57Z</time>
      </trkpt>
      <trkpt lat="46.01904" lon="5.51973">
        <ele>785</ele>
        <time>2026-05-09T14:51:58Z</time>
      </trkpt>
      <trkpt lat="46.01904" lon="5.51976">
        <ele>785.4</ele>
        <time>2026-05-09T14:51:59Z</time>
      </trkpt>
      <trkpt lat="46.01903" lon="5.51978">
        <ele>785.4</ele>
        <time>2026-05-09T14:52:00Z</time>
      </trkpt>
      <trkpt lat="46.01902" lon="5.51981">
        <ele>785.4</ele>
        <time>2026-05-09T14:52:01Z</time>
      </trkpt>
      <trkpt lat="46.01901" lon="5.51984">
        <ele>785.6</ele>
        <time>2026-05-09T14:52:02Z</time>
      </trkpt>
      <trkpt lat="46.019" lon="5.51987">
        <ele>785.6</ele>
        <time>2026-05-09T14:52:03Z</time>
      </trkpt>
      <trkpt lat="46.019" lon="5.51989">
        <ele>785.6</ele>
        <time>2026-05-09T14:52:04Z</time>
      </trkpt>
      <trkpt lat="46.01899" lon="5.51992">
        <ele>786</ele>
        <time>2026-05-09T14:52:05Z</time>
      </trkpt>
      <trkpt lat="46.01898" lon="5.51995">
        <ele>786</ele>
        <time>2026-05-09T14:52:06Z</time>
      </trkpt>
      <trkpt lat="46.01898" lon="5.51997">
        <ele>786.2</ele>
        <time>2026-05-09T14:52:07Z</time>
      </trkpt>
      <trkpt lat="46.01897" lon="5.52">
        <ele>786.2</ele>
        <time>2026-05-09T14:52:08Z</time>
      </trkpt>
      <trkpt lat="46.01896" lon="5.52003">
        <ele>786.2</ele>
        <time>2026-05-09T14:52:09Z</time>
      </trkpt>
      <trkpt lat="46.01895" lon="5.52006">
        <ele>786.6</ele>
        <time>2026-05-09T14:52:10Z</time>
      </trkpt>
      <trkpt lat="46.01894" lon="5.52009">
        <ele>786.6</ele>
        <time>2026-05-09T14:52:11Z</time>
      </trkpt>
      <trkpt lat="46.01893" lon="5.52011">
        <ele>786.6</ele>
        <time>2026-05-09T14:52:12Z</time>
      </trkpt>
      <trkpt lat="46.01892" lon="5.52014">
        <ele>786.8</ele>
        <time>2026-05-09T14:52:13Z</time>
      </trkpt>
      <trkpt lat="46.01892" lon="5.52017">
        <ele>786.8</ele>
        <time>2026-05-09T14:52:14Z</time>
      </trkpt>
      <trkpt lat="46.01891" lon="5.52019">
        <ele>786.8</ele>
        <time>2026-05-09T14:52:15Z</time>
      </trkpt>
      <trkpt lat="46.0189" lon="5.52022">
        <ele>787</ele>
        <time>2026-05-09T14:52:16Z</time>
      </trkpt>
      <trkpt lat="46.01889" lon="5.52025">
        <ele>787</ele>
        <time>2026-05-09T14:52:17Z</time>
      </trkpt>
      <trkpt lat="46.01889" lon="5.52028">
        <ele>787.4</ele>
        <time>2026-05-09T14:52:18Z</time>
      </trkpt>
      <trkpt lat="46.01888" lon="5.5203">
        <ele>787.4</ele>
        <time>2026-05-09T14:52:19Z</time>
      </trkpt>
      <trkpt lat="46.01887" lon="5.52033">
        <ele>787.8</ele>
        <time>2026-05-09T14:52:20Z</time>
      </trkpt>
      <trkpt lat="46.01886" lon="5.52036">
        <ele>787.8</ele>
        <time>2026-05-09T14:52:21Z</time>
      </trkpt>
      <trkpt lat="46.01885" lon="5.52039">
        <ele>788</ele>
        <time>2026-05-09T14:52:22Z</time>
      </trkpt>
      <trkpt lat="46.01884" lon="5.52042">
        <ele>788</ele>
        <time>2026-05-09T14:52:23Z</time>
      </trkpt>
      <trkpt lat="46.01883" lon="5.52044">
        <ele>788.2</ele>
        <time>2026-05-09T14:52:24Z</time>
      </trkpt>
      <trkpt lat="46.01883" lon="5.52047">
        <ele>788.4</ele>
        <time>2026-05-09T14:52:25Z</time>
      </trkpt>
      <trkpt lat="46.01882" lon="5.5205">
        <ele>788.4</ele>
        <time>2026-05-09T14:52:26Z</time>
      </trkpt>
      <trkpt lat="46.01881" lon="5.52053">
        <ele>788.4</ele>
        <time>2026-05-09T14:52:27Z</time>
      </trkpt>
      <trkpt lat="46.0188" lon="5.52055">
        <ele>788.4</ele>
        <time>2026-05-09T14:52:28Z</time>
      </trkpt>
      <trkpt lat="46.01879" lon="5.52058">
        <ele>788.8</ele>
        <time>2026-05-09T14:52:29Z</time>
      </trkpt>
      <trkpt lat="46.01878" lon="5.52061">
        <ele>788.8</ele>
        <time>2026-05-09T14:52:30Z</time>
      </trkpt>
      <trkpt lat="46.01877" lon="5.52064">
        <ele>788.8</ele>
        <time>2026-05-09T14:52:31Z</time>
      </trkpt>
      <trkpt lat="46.01876" lon="5.52067">
        <ele>789.2</ele>
        <time>2026-05-09T14:52:32Z</time>
      </trkpt>
      <trkpt lat="46.01875" lon="5.5207">
        <ele>789.2</ele>
        <time>2026-05-09T14:52:33Z</time>
      </trkpt>
      <trkpt lat="46.01874" lon="5.52073">
        <ele>789.4</ele>
        <time>2026-05-09T14:52:34Z</time>
      </trkpt>
      <trkpt lat="46.01874" lon="5.52076">
        <ele>789.4</ele>
        <time>2026-05-09T14:52:35Z</time>
      </trkpt>
      <trkpt lat="46.01874" lon="5.52079">
        <ele>789.6</ele>
        <time>2026-05-09T14:52:36Z</time>
      </trkpt>
      <trkpt lat="46.01873" lon="5.52081">
        <ele>790</ele>
        <time>2026-05-09T14:52:37Z</time>
      </trkpt>
      <trkpt lat="46.01873" lon="5.52084">
        <ele>790.2</ele>
        <time>2026-05-09T14:52:38Z</time>
      </trkpt>
      <trkpt lat="46.01872" lon="5.52087">
        <ele>790.2</ele>
        <time>2026-05-09T14:52:39Z</time>
      </trkpt>
      <trkpt lat="46.01872" lon="5.52089">
        <ele>790.6</ele>
        <time>2026-05-09T14:52:40Z</time>
      </trkpt>
      <trkpt lat="46.01871" lon="5.52092">
        <ele>790.8</ele>
        <time>2026-05-09T14:52:41Z</time>
      </trkpt>
      <trkpt lat="46.01871" lon="5.52095">
        <ele>791</ele>
        <time>2026-05-09T14:52:42Z</time>
      </trkpt>
      <trkpt lat="46.0187" lon="5.52097">
        <ele>791</ele>
        <time>2026-05-09T14:52:43Z</time>
      </trkpt>
      <trkpt lat="46.01869" lon="5.52099">
        <ele>791</ele>
        <time>2026-05-09T14:52:44Z</time>
      </trkpt>
      <trkpt lat="46.01868" lon="5.52102">
        <ele>791.4</ele>
        <time>2026-05-09T14:52:45Z</time>
      </trkpt>
      <trkpt lat="46.01868" lon="5.52104">
        <ele>791.4</ele>
        <time>2026-05-09T14:52:46Z</time>
      </trkpt>
      <trkpt lat="46.01867" lon="5.52106">
        <ele>791.6</ele>
        <time>2026-05-09T14:52:47Z</time>
      </trkpt>
      <trkpt lat="46.01866" lon="5.52109">
        <ele>791.6</ele>
        <time>2026-05-09T14:52:48Z</time>
      </trkpt>
      <trkpt lat="46.01866" lon="5.52111">
        <ele>792</ele>
        <time>2026-05-09T14:52:49Z</time>
      </trkpt>
      <trkpt lat="46.01865" lon="5.52113">
        <ele>792</ele>
        <time>2026-05-09T14:52:50Z</time>
      </trkpt>
      <trkpt lat="46.01864" lon="5.52116">
        <ele>792</ele>
        <time>2026-05-09T14:52:51Z</time>
      </trkpt>
      <trkpt lat="46.01863" lon="5.52119">
        <ele>792</ele>
        <time>2026-05-09T14:52:52Z</time>
      </trkpt>
      <trkpt lat="46.01862" lon="5.52121">
        <ele>792</ele>
        <time>2026-05-09T14:52:53Z</time>
      </trkpt>
      <trkpt lat="46.01862" lon="5.52124">
        <ele>792</ele>
        <time>2026-05-09T14:52:54Z</time>
      </trkpt>
      <trkpt lat="46.01861" lon="5.52127">
        <ele>792</ele>
        <time>2026-05-09T14:52:55Z</time>
      </trkpt>
      <trkpt lat="46.01861" lon="5.52129">
        <ele>792</ele>
        <time>2026-05-09T14:52:56Z</time>
      </trkpt>
      <trkpt lat="46.0186" lon="5.52132">
        <ele>792</ele>
        <time>2026-05-09T14:52:57Z</time>
      </trkpt>
      <trkpt lat="46.01859" lon="5.52134">
        <ele>792</ele>
        <time>2026-05-09T14:52:58Z</time>
      </trkpt>
      <trkpt lat="46.01859" lon="5.52137">
        <ele>792</ele>
        <time>2026-05-09T14:52:59Z</time>
      </trkpt>
      <trkpt lat="46.01859" lon="5.52139">
        <ele>792.2</ele>
        <time>2026-05-09T14:53:00Z</time>
      </trkpt>
      <trkpt lat="46.01858" lon="5.52142">
        <ele>792.2</ele>
        <time>2026-05-09T14:53:01Z</time>
      </trkpt>
      <trkpt lat="46.01858" lon="5.52145">
        <ele>792.2</ele>
        <time>2026-05-09T14:53:02Z</time>
      </trkpt>
      <trkpt lat="46.01858" lon="5.52147">
        <ele>792.2</ele>
        <time>2026-05-09T14:53:03Z</time>
      </trkpt>
      <trkpt lat="46.01857" lon="5.5215">
        <ele>792.2</ele>
        <time>2026-05-09T14:53:04Z</time>
      </trkpt>
      <trkpt lat="46.01856" lon="5.52152">
        <ele>792.2</ele>
        <time>2026-05-09T14:53:05Z</time>
      </trkpt>
      <trkpt lat="46.01855" lon="5.52155">
        <ele>792.6</ele>
        <time>2026-05-09T14:53:06Z</time>
      </trkpt>
      <trkpt lat="46.01854" lon="5.52158">
        <ele>792.6</ele>
        <time>2026-05-09T14:53:07Z</time>
      </trkpt>
      <trkpt lat="46.01854" lon="5.52161">
        <ele>792.6</ele>
        <time>2026-05-09T14:53:08Z</time>
      </trkpt>
      <trkpt lat="46.01853" lon="5.52163">
        <ele>792.6</ele>
        <time>2026-05-09T14:53:09Z</time>
      </trkpt>
      <trkpt lat="46.01852" lon="5.52166">
        <ele>792.2</ele>
        <time>2026-05-09T14:53:10Z</time>
      </trkpt>
      <trkpt lat="46.0185" lon="5.52169">
        <ele>792.2</ele>
        <time>2026-05-09T14:53:11Z</time>
      </trkpt>
      <trkpt lat="46.01849" lon="5.52172">
        <ele>792.6</ele>
        <time>2026-05-09T14:53:12Z</time>
      </trkpt>
      <trkpt lat="46.01848" lon="5.52174">
        <ele>792.6</ele>
        <time>2026-05-09T14:53:13Z</time>
      </trkpt>
      <trkpt lat="46.01848" lon="5.52174">
        <ele>792.6</ele>
        <time>2026-05-09T14:53:14Z</time>
      </trkpt>
      <trkpt lat="46.01847" lon="5.52177">
        <ele>793</ele>
        <time>2026-05-09T14:53:15Z</time>
      </trkpt>
      <trkpt lat="46.01846" lon="5.52179">
        <ele>793.2</ele>
        <time>2026-05-09T14:53:16Z</time>
      </trkpt>
      <trkpt lat="46.01845" lon="5.52183">
        <ele>793.2</ele>
        <time>2026-05-09T14:53:17Z</time>
      </trkpt>
      <trkpt lat="46.01844" lon="5.52186">
        <ele>793.2</ele>
        <time>2026-05-09T14:53:18Z</time>
      </trkpt>
      <trkpt lat="46.01842" lon="5.52189">
        <ele>793.2</ele>
        <time>2026-05-09T14:53:19Z</time>
      </trkpt>
      <trkpt lat="46.01841" lon="5.52192">
        <ele>793.6</ele>
        <time>2026-05-09T14:53:20Z</time>
      </trkpt>
      <trkpt lat="46.01839" lon="5.52196">
        <ele>793.6</ele>
        <time>2026-05-09T14:53:21Z</time>
      </trkpt>
      <trkpt lat="46.01838" lon="5.522">
        <ele>793.6</ele>
        <time>2026-05-09T14:53:22Z</time>
      </trkpt>
      <trkpt lat="46.01836" lon="5.52204">
        <ele>793.6</ele>
        <time>2026-05-09T14:53:23Z</time>
      </trkpt>
      <trkpt lat="46.01834" lon="5.52208">
        <ele>793.8</ele>
        <time>2026-05-09T14:53:24Z</time>
      </trkpt>
      <trkpt lat="46.01831" lon="5.52213">
        <ele>793.8</ele>
        <time>2026-05-09T14:53:25Z</time>
      </trkpt>
      <trkpt lat="46.01829" lon="5.52217">
        <ele>793.8</ele>
        <time>2026-05-09T14:53:26Z</time>
      </trkpt>
      <trkpt lat="46.01827" lon="5.52221">
        <ele>793.8</ele>
        <time>2026-05-09T14:53:27Z</time>
      </trkpt>
      <trkpt lat="46.01824" lon="5.52226">
        <ele>794</ele>
        <time>2026-05-09T14:53:28Z</time>
      </trkpt>
      <trkpt lat="46.0182" lon="5.52231">
        <ele>794</ele>
        <time>2026-05-09T14:53:29Z</time>
      </trkpt>
      <trkpt lat="46.01817" lon="5.52234">
        <ele>794</ele>
        <time>2026-05-09T14:53:30Z</time>
      </trkpt>
      <trkpt lat="46.01814" lon="5.52239">
        <ele>794</ele>
        <time>2026-05-09T14:53:31Z</time>
      </trkpt>
      <trkpt lat="46.01811" lon="5.52243">
        <ele>794</ele>
        <time>2026-05-09T14:53:32Z</time>
      </trkpt>
      <trkpt lat="46.01808" lon="5.52247">
        <ele>794</ele>
        <time>2026-05-09T14:53:33Z</time>
      </trkpt>
      <trkpt lat="46.01804" lon="5.52252">
        <ele>794</ele>
        <time>2026-05-09T14:53:34Z</time>
      </trkpt>
      <trkpt lat="46.01799" lon="5.52256">
        <ele>794</ele>
        <time>2026-05-09T14:53:35Z</time>
      </trkpt>
      <trkpt lat="46.01796" lon="5.52261">
        <ele>794</ele>
        <time>2026-05-09T14:53:36Z</time>
      </trkpt>
      <trkpt lat="46.01792" lon="5.52266">
        <ele>793.8</ele>
        <time>2026-05-09T14:53:37Z</time>
      </trkpt>
      <trkpt lat="46.01788" lon="5.5227">
        <ele>793.8</ele>
        <time>2026-05-09T14:53:38Z</time>
      </trkpt>
      <trkpt lat="46.01783" lon="5.52275">
        <ele>793.6</ele>
        <time>2026-05-09T14:53:39Z</time>
      </trkpt>
      <trkpt lat="46.01779" lon="5.5228">
        <ele>793.6</ele>
        <time>2026-05-09T14:53:40Z</time>
      </trkpt>
      <trkpt lat="46.01775" lon="5.52284">
        <ele>793.6</ele>
        <time>2026-05-09T14:53:41Z</time>
      </trkpt>
      <trkpt lat="46.01771" lon="5.52289">
        <ele>793.6</ele>
        <time>2026-05-09T14:53:42Z</time>
      </trkpt>
      <trkpt lat="46.01767" lon="5.52292">
        <ele>793.6</ele>
        <time>2026-05-09T14:53:43Z</time>
      </trkpt>
      <trkpt lat="46.01763" lon="5.52298">
        <ele>793.4</ele>
        <time>2026-05-09T14:53:44Z</time>
      </trkpt>
      <trkpt lat="46.01758" lon="5.52302">
        <ele>793.4</ele>
        <time>2026-05-09T14:53:45Z</time>
      </trkpt>
      <trkpt lat="46.01754" lon="5.52307">
        <ele>793</ele>
        <time>2026-05-09T14:53:46Z</time>
      </trkpt>
      <trkpt lat="46.01749" lon="5.52312">
        <ele>793</ele>
        <time>2026-05-09T14:53:47Z</time>
      </trkpt>
      <trkpt lat="46.01745" lon="5.52318">
        <ele>793</ele>
        <time>2026-05-09T14:53:48Z</time>
      </trkpt>
      <trkpt lat="46.0174" lon="5.52322">
        <ele>793</ele>
        <time>2026-05-09T14:53:49Z</time>
      </trkpt>
      <trkpt lat="46.01735" lon="5.52326">
        <ele>793</ele>
        <time>2026-05-09T14:53:50Z</time>
      </trkpt>
      <trkpt lat="46.0173" lon="5.52331">
        <ele>793</ele>
        <time>2026-05-09T14:53:51Z</time>
      </trkpt>
      <trkpt lat="46.01726" lon="5.52335">
        <ele>793</ele>
        <time>2026-05-09T14:53:52Z</time>
      </trkpt>
      <trkpt lat="46.0172" lon="5.52339">
        <ele>793.4</ele>
        <time>2026-05-09T14:53:53Z</time>
      </trkpt>
      <trkpt lat="46.01714" lon="5.52343">
        <ele>793.4</ele>
        <time>2026-05-09T14:53:54Z</time>
      </trkpt>
      <trkpt lat="46.0171" lon="5.52348">
        <ele>793.4</ele>
        <time>2026-05-09T14:53:55Z</time>
      </trkpt>
      <trkpt lat="46.01706" lon="5.52352">
        <ele>793.6</ele>
        <time>2026-05-09T14:53:56Z</time>
      </trkpt>
      <trkpt lat="46.017" lon="5.52354">
        <ele>793.6</ele>
        <time>2026-05-09T14:53:57Z</time>
      </trkpt>
      <trkpt lat="46.01696" lon="5.52358">
        <ele>793.6</ele>
        <time>2026-05-09T14:53:58Z</time>
      </trkpt>
      <trkpt lat="46.01691" lon="5.5236">
        <ele>793.8</ele>
        <time>2026-05-09T14:53:59Z</time>
      </trkpt>
      <trkpt lat="46.01687" lon="5.52364">
        <ele>793.8</ele>
        <time>2026-05-09T14:54:00Z</time>
      </trkpt>
      <trkpt lat="46.01683" lon="5.52367">
        <ele>793.8</ele>
        <time>2026-05-09T14:54:01Z</time>
      </trkpt>
      <trkpt lat="46.01679" lon="5.5237">
        <ele>794</ele>
        <time>2026-05-09T14:54:02Z</time>
      </trkpt>
      <trkpt lat="46.01675" lon="5.52373">
        <ele>794.4</ele>
        <time>2026-05-09T14:54:03Z</time>
      </trkpt>
      <trkpt lat="46.01671" lon="5.52375">
        <ele>794.4</ele>
        <time>2026-05-09T14:54:04Z</time>
      </trkpt>
      <trkpt lat="46.01666" lon="5.52378">
        <ele>794.6</ele>
        <time>2026-05-09T14:54:05Z</time>
      </trkpt>
      <trkpt lat="46.01663" lon="5.5238">
        <ele>794.6</ele>
        <time>2026-05-09T14:54:06Z</time>
      </trkpt>
      <trkpt lat="46.01659" lon="5.52382">
        <ele>794.8</ele>
        <time>2026-05-09T14:54:07Z</time>
      </trkpt>
      <trkpt lat="46.01656" lon="5.52385">
        <ele>795.2</ele>
        <time>2026-05-09T14:54:08Z</time>
      </trkpt>
      <trkpt lat="46.01653" lon="5.52387">
        <ele>795.2</ele>
        <time>2026-05-09T14:54:09Z</time>
      </trkpt>
      <trkpt lat="46.01649" lon="5.52389">
        <ele>795.2</ele>
        <time>2026-05-09T14:54:10Z</time>
      </trkpt>
      <trkpt lat="46.01647" lon="5.52391">
        <ele>795.4</ele>
        <time>2026-05-09T14:54:11Z</time>
      </trkpt>
      <trkpt lat="46.01644" lon="5.52394">
        <ele>795.6</ele>
        <time>2026-05-09T14:54:12Z</time>
      </trkpt>
      <trkpt lat="46.01641" lon="5.52395">
        <ele>795.6</ele>
        <time>2026-05-09T14:54:13Z</time>
      </trkpt>
      <trkpt lat="46.01639" lon="5.52396">
        <ele>795.8</ele>
        <time>2026-05-09T14:54:14Z</time>
      </trkpt>
      <trkpt lat="46.01636" lon="5.52398">
        <ele>795.8</ele>
        <time>2026-05-09T14:54:15Z</time>
      </trkpt>
      <trkpt lat="46.01633" lon="5.52399">
        <ele>795.8</ele>
        <time>2026-05-09T14:54:16Z</time>
      </trkpt>
      <trkpt lat="46.01631" lon="5.524">
        <ele>795.8</ele>
        <time>2026-05-09T14:54:17Z</time>
      </trkpt>
      <trkpt lat="46.01628" lon="5.52401">
        <ele>796</ele>
        <time>2026-05-09T14:54:18Z</time>
      </trkpt>
      <trkpt lat="46.01626" lon="5.52402">
        <ele>796</ele>
        <time>2026-05-09T14:54:19Z</time>
      </trkpt>
      <trkpt lat="46.01623" lon="5.52403">
        <ele>796.6</ele>
        <time>2026-05-09T14:54:20Z</time>
      </trkpt>
      <trkpt lat="46.01621" lon="5.52403">
        <ele>796.8</ele>
        <time>2026-05-09T14:54:21Z</time>
      </trkpt>
      <trkpt lat="46.01618" lon="5.52404">
        <ele>796.8</ele>
        <time>2026-05-09T14:54:22Z</time>
      </trkpt>
      <trkpt lat="46.01615" lon="5.52405">
        <ele>796.8</ele>
        <time>2026-05-09T14:54:23Z</time>
      </trkpt>
      <trkpt lat="46.01613" lon="5.52405">
        <ele>797</ele>
        <time>2026-05-09T14:54:24Z</time>
      </trkpt>
      <trkpt lat="46.0161" lon="5.52406">
        <ele>797</ele>
        <time>2026-05-09T14:54:25Z</time>
      </trkpt>
      <trkpt lat="46.01607" lon="5.52407">
        <ele>797</ele>
        <time>2026-05-09T14:54:26Z</time>
      </trkpt>
      <trkpt lat="46.01605" lon="5.52408">
        <ele>797</ele>
        <time>2026-05-09T14:54:27Z</time>
      </trkpt>
      <trkpt lat="46.01602" lon="5.52408">
        <ele>797</ele>
        <time>2026-05-09T14:54:28Z</time>
      </trkpt>
      <trkpt lat="46.016" lon="5.52409">
        <ele>797</ele>
        <time>2026-05-09T14:54:29Z</time>
      </trkpt>
      <trkpt lat="46.01597" lon="5.5241">
        <ele>797.4</ele>
        <time>2026-05-09T14:54:30Z</time>
      </trkpt>
      <trkpt lat="46.01595" lon="5.52411">
        <ele>797.4</ele>
        <time>2026-05-09T14:54:31Z</time>
      </trkpt>
      <trkpt lat="46.01592" lon="5.52411">
        <ele>797.4</ele>
        <time>2026-05-09T14:54:32Z</time>
      </trkpt>
      <trkpt lat="46.01587" lon="5.52413">
        <ele>797.6</ele>
        <time>2026-05-09T14:54:33Z</time>
      </trkpt>
      <trkpt lat="46.01585" lon="5.52414">
        <ele>797.6</ele>
        <time>2026-05-09T14:54:34Z</time>
      </trkpt>
      <trkpt lat="46.01582" lon="5.52414">
        <ele>797.6</ele>
        <time>2026-05-09T14:54:35Z</time>
      </trkpt>
      <trkpt lat="46.0158" lon="5.52415">
        <ele>797.8</ele>
        <time>2026-05-09T14:54:36Z</time>
      </trkpt>
      <trkpt lat="46.01577" lon="5.52416">
        <ele>797.8</ele>
        <time>2026-05-09T14:54:37Z</time>
      </trkpt>
      <trkpt lat="46.01574" lon="5.52417">
        <ele>798.2</ele>
        <time>2026-05-09T14:54:38Z</time>
      </trkpt>
      <trkpt lat="46.01572" lon="5.52417">
        <ele>798.2</ele>
        <time>2026-05-09T14:54:39Z</time>
      </trkpt>
      <trkpt lat="46.01569" lon="5.52418">
        <ele>798.4</ele>
        <time>2026-05-09T14:54:40Z</time>
      </trkpt>
      <trkpt lat="46.01567" lon="5.52418">
        <ele>798.4</ele>
        <time>2026-05-09T14:54:41Z</time>
      </trkpt>
      <trkpt lat="46.01564" lon="5.52419">
        <ele>798.4</ele>
        <time>2026-05-09T14:54:42Z</time>
      </trkpt>
      <trkpt lat="46.01562" lon="5.5242">
        <ele>798.8</ele>
        <time>2026-05-09T14:54:43Z</time>
      </trkpt>
      <trkpt lat="46.01559" lon="5.5242">
        <ele>798.8</ele>
        <time>2026-05-09T14:54:44Z</time>
      </trkpt>
      <trkpt lat="46.01556" lon="5.52421">
        <ele>798.8</ele>
        <time>2026-05-09T14:54:45Z</time>
      </trkpt>
      <trkpt lat="46.01554" lon="5.52422">
        <ele>799</ele>
        <time>2026-05-09T14:54:46Z</time>
      </trkpt>
      <trkpt lat="46.01551" lon="5.52422">
        <ele>799</ele>
        <time>2026-05-09T14:54:47Z</time>
      </trkpt>
      <trkpt lat="46.01548" lon="5.52423">
        <ele>799</ele>
        <time>2026-05-09T14:54:48Z</time>
      </trkpt>
      <trkpt lat="46.01546" lon="5.52424">
        <ele>799.2</ele>
        <time>2026-05-09T14:54:49Z</time>
      </trkpt>
      <trkpt lat="46.01543" lon="5.52426">
        <ele>799.4</ele>
        <time>2026-05-09T14:54:50Z</time>
      </trkpt>
      <trkpt lat="46.0154" lon="5.52427">
        <ele>799.8</ele>
        <time>2026-05-09T14:54:51Z</time>
      </trkpt>
      <trkpt lat="46.01538" lon="5.52428">
        <ele>800</ele>
        <time>2026-05-09T14:54:52Z</time>
      </trkpt>
      <trkpt lat="46.01535" lon="5.52429">
        <ele>799.6</ele>
        <time>2026-05-09T14:54:53Z</time>
      </trkpt>
      <trkpt lat="46.01532" lon="5.5243">
        <ele>799.8</ele>
        <time>2026-05-09T14:54:54Z</time>
      </trkpt>
      <trkpt lat="46.0153" lon="5.52431">
        <ele>799.8</ele>
        <time>2026-05-09T14:54:55Z</time>
      </trkpt>
      <trkpt lat="46.01528" lon="5.52432">
        <ele>799.8</ele>
        <time>2026-05-09T14:54:56Z</time>
      </trkpt>
      <trkpt lat="46.01526" lon="5.52434">
        <ele>799.8</ele>
        <time>2026-05-09T14:54:57Z</time>
      </trkpt>
      <trkpt lat="46.01523" lon="5.52435">
        <ele>799.8</ele>
        <time>2026-05-09T14:54:58Z</time>
      </trkpt>
      <trkpt lat="46.0152" lon="5.52436">
        <ele>800.2</ele>
        <time>2026-05-09T14:54:59Z</time>
      </trkpt>
      <trkpt lat="46.01518" lon="5.52437">
        <ele>800.4</ele>
        <time>2026-05-09T14:55:00Z</time>
      </trkpt>
      <trkpt lat="46.01515" lon="5.52438">
        <ele>800.4</ele>
        <time>2026-05-09T14:55:01Z</time>
      </trkpt>
      <trkpt lat="46.01513" lon="5.52438">
        <ele>800.4</ele>
        <time>2026-05-09T14:55:02Z</time>
      </trkpt>
      <trkpt lat="46.0151" lon="5.52439">
        <ele>800.4</ele>
        <time>2026-05-09T14:55:03Z</time>
      </trkpt>
      <trkpt lat="46.01507" lon="5.5244">
        <ele>800.4</ele>
        <time>2026-05-09T14:55:04Z</time>
      </trkpt>
      <trkpt lat="46.01505" lon="5.52441">
        <ele>800.6</ele>
        <time>2026-05-09T14:55:05Z</time>
      </trkpt>
      <trkpt lat="46.01502" lon="5.52442">
        <ele>800.6</ele>
        <time>2026-05-09T14:55:06Z</time>
      </trkpt>
      <trkpt lat="46.015" lon="5.52444">
        <ele>801</ele>
        <time>2026-05-09T14:55:07Z</time>
      </trkpt>
      <trkpt lat="46.01497" lon="5.52445">
        <ele>801</ele>
        <time>2026-05-09T14:55:08Z</time>
      </trkpt>
      <trkpt lat="46.01494" lon="5.52446">
        <ele>801</ele>
        <time>2026-05-09T14:55:09Z</time>
      </trkpt>
      <trkpt lat="46.01491" lon="5.52448">
        <ele>801</ele>
        <time>2026-05-09T14:55:10Z</time>
      </trkpt>
      <trkpt lat="46.01488" lon="5.52449">
        <ele>801.2</ele>
        <time>2026-05-09T14:55:11Z</time>
      </trkpt>
      <trkpt lat="46.01486" lon="5.52451">
        <ele>801.2</ele>
        <time>2026-05-09T14:55:12Z</time>
      </trkpt>
      <trkpt lat="46.01484" lon="5.52452">
        <ele>801.2</ele>
        <time>2026-05-09T14:55:13Z</time>
      </trkpt>
      <trkpt lat="46.01482" lon="5.52454">
        <ele>801.2</ele>
        <time>2026-05-09T14:55:14Z</time>
      </trkpt>
      <trkpt lat="46.01479" lon="5.52456">
        <ele>801.4</ele>
        <time>2026-05-09T14:55:15Z</time>
      </trkpt>
      <trkpt lat="46.01476" lon="5.52457">
        <ele>801.4</ele>
        <time>2026-05-09T14:55:16Z</time>
      </trkpt>
      <trkpt lat="46.01474" lon="5.52459">
        <ele>801.8</ele>
        <time>2026-05-09T14:55:17Z</time>
      </trkpt>
      <trkpt lat="46.01472" lon="5.52461">
        <ele>801.8</ele>
        <time>2026-05-09T14:55:18Z</time>
      </trkpt>
      <trkpt lat="46.01469" lon="5.52462">
        <ele>801.8</ele>
        <time>2026-05-09T14:55:19Z</time>
      </trkpt>
      <trkpt lat="46.01466" lon="5.52464">
        <ele>802</ele>
        <time>2026-05-09T14:55:20Z</time>
      </trkpt>
      <trkpt lat="46.01464" lon="5.52466">
        <ele>802</ele>
        <time>2026-05-09T14:55:21Z</time>
      </trkpt>
      <trkpt lat="46.01461" lon="5.52468">
        <ele>802</ele>
        <time>2026-05-09T14:55:22Z</time>
      </trkpt>
      <trkpt lat="46.01459" lon="5.5247">
        <ele>802</ele>
        <time>2026-05-09T14:55:23Z</time>
      </trkpt>
      <trkpt lat="46.01457" lon="5.52471">
        <ele>802.2</ele>
        <time>2026-05-09T14:55:24Z</time>
      </trkpt>
      <trkpt lat="46.01454" lon="5.52473">
        <ele>802.2</ele>
        <time>2026-05-09T14:55:25Z</time>
      </trkpt>
      <trkpt lat="46.01452" lon="5.52475">
        <ele>802.2</ele>
        <time>2026-05-09T14:55:26Z</time>
      </trkpt>
      <trkpt lat="46.0145" lon="5.52477">
        <ele>802.2</ele>
        <time>2026-05-09T14:55:27Z</time>
      </trkpt>
      <trkpt lat="46.01448" lon="5.52479">
        <ele>802.4</ele>
        <time>2026-05-09T14:55:28Z</time>
      </trkpt>
      <trkpt lat="46.01446" lon="5.52481">
        <ele>802.4</ele>
        <time>2026-05-09T14:55:29Z</time>
      </trkpt>
      <trkpt lat="46.01443" lon="5.52483">
        <ele>802.6</ele>
        <time>2026-05-09T14:55:30Z</time>
      </trkpt>
      <trkpt lat="46.01441" lon="5.52484">
        <ele>803</ele>
        <time>2026-05-09T14:55:31Z</time>
      </trkpt>
      <trkpt lat="46.01439" lon="5.52487">
        <ele>803</ele>
        <time>2026-05-09T14:55:32Z</time>
      </trkpt>
      <trkpt lat="46.01437" lon="5.52489">
        <ele>803.4</ele>
        <time>2026-05-09T14:55:33Z</time>
      </trkpt>
      <trkpt lat="46.01434" lon="5.52491">
        <ele>803.4</ele>
        <time>2026-05-09T14:55:34Z</time>
      </trkpt>
      <trkpt lat="46.01431" lon="5.52494">
        <ele>803.4</ele>
        <time>2026-05-09T14:55:35Z</time>
      </trkpt>
      <trkpt lat="46.01429" lon="5.52496">
        <ele>803.6</ele>
        <time>2026-05-09T14:55:36Z</time>
      </trkpt>
      <trkpt lat="46.01426" lon="5.52498">
        <ele>803.6</ele>
        <time>2026-05-09T14:55:37Z</time>
      </trkpt>
      <trkpt lat="46.01424" lon="5.525">
        <ele>803.6</ele>
        <time>2026-05-09T14:55:38Z</time>
      </trkpt>
      <trkpt lat="46.01422" lon="5.52503">
        <ele>803.6</ele>
        <time>2026-05-09T14:55:39Z</time>
      </trkpt>
      <trkpt lat="46.0142" lon="5.52505">
        <ele>803.8</ele>
        <time>2026-05-09T14:55:40Z</time>
      </trkpt>
      <trkpt lat="46.01417" lon="5.52508">
        <ele>803.8</ele>
        <time>2026-05-09T14:55:41Z</time>
      </trkpt>
      <trkpt lat="46.01415" lon="5.5251">
        <ele>804</ele>
        <time>2026-05-09T14:55:42Z</time>
      </trkpt>
      <trkpt lat="46.01412" lon="5.52513">
        <ele>804</ele>
        <time>2026-05-09T14:55:43Z</time>
      </trkpt>
      <trkpt lat="46.0141" lon="5.52516">
        <ele>804</ele>
        <time>2026-05-09T14:55:44Z</time>
      </trkpt>
      <trkpt lat="46.01407" lon="5.52519">
        <ele>804</ele>
        <time>2026-05-09T14:55:45Z</time>
      </trkpt>
      <trkpt lat="46.01404" lon="5.52521">
        <ele>804</ele>
        <time>2026-05-09T14:55:46Z</time>
      </trkpt>
      <trkpt lat="46.01401" lon="5.52524">
        <ele>804</ele>
        <time>2026-05-09T14:55:47Z</time>
      </trkpt>
      <trkpt lat="46.01398" lon="5.52527">
        <ele>804</ele>
        <time>2026-05-09T14:55:48Z</time>
      </trkpt>
      <trkpt lat="46.01395" lon="5.52531">
        <ele>804</ele>
        <time>2026-05-09T14:55:49Z</time>
      </trkpt>
      <trkpt lat="46.01392" lon="5.52535">
        <ele>804</ele>
        <time>2026-05-09T14:55:50Z</time>
      </trkpt>
      <trkpt lat="46.01388" lon="5.52538">
        <ele>804</ele>
        <time>2026-05-09T14:55:51Z</time>
      </trkpt>
      <trkpt lat="46.01385" lon="5.52542">
        <ele>804</ele>
        <time>2026-05-09T14:55:52Z</time>
      </trkpt>
      <trkpt lat="46.01381" lon="5.52545">
        <ele>803.8</ele>
        <time>2026-05-09T14:55:53Z</time>
      </trkpt>
      <trkpt lat="46.01378" lon="5.52548">
        <ele>803.8</ele>
        <time>2026-05-09T14:55:54Z</time>
      </trkpt>
      <trkpt lat="46.01374" lon="5.52552">
        <ele>803.8</ele>
        <time>2026-05-09T14:55:55Z</time>
      </trkpt>
      <trkpt lat="46.01371" lon="5.52555">
        <ele>803.8</ele>
        <time>2026-05-09T14:55:56Z</time>
      </trkpt>
      <trkpt lat="46.01368" lon="5.52558">
        <ele>803.8</ele>
        <time>2026-05-09T14:55:57Z</time>
      </trkpt>
      <trkpt lat="46.01364" lon="5.52562">
        <ele>803.4</ele>
        <time>2026-05-09T14:55:58Z</time>
      </trkpt>
      <trkpt lat="46.01362" lon="5.52566">
        <ele>803.4</ele>
        <time>2026-05-09T14:55:59Z</time>
      </trkpt>
      <trkpt lat="46.01358" lon="5.52569">
        <ele>803.4</ele>
        <time>2026-05-09T14:56:00Z</time>
      </trkpt>
      <trkpt lat="46.01355" lon="5.52573">
        <ele>803.4</ele>
        <time>2026-05-09T14:56:01Z</time>
      </trkpt>
      <trkpt lat="46.01351" lon="5.52576">
        <ele>803.2</ele>
        <time>2026-05-09T14:56:02Z</time>
      </trkpt>
      <trkpt lat="46.01348" lon="5.5258">
        <ele>803.2</ele>
        <time>2026-05-09T14:56:03Z</time>
      </trkpt>
      <trkpt lat="46.01344" lon="5.52583">
        <ele>803.2</ele>
        <time>2026-05-09T14:56:04Z</time>
      </trkpt>
      <trkpt lat="46.01341" lon="5.52587">
        <ele>803.2</ele>
        <time>2026-05-09T14:56:05Z</time>
      </trkpt>
      <trkpt lat="46.01337" lon="5.5259">
        <ele>803.2</ele>
        <time>2026-05-09T14:56:06Z</time>
      </trkpt>
      <trkpt lat="46.01334" lon="5.52594">
        <ele>803.2</ele>
        <time>2026-05-09T14:56:07Z</time>
      </trkpt>
      <trkpt lat="46.01331" lon="5.52598">
        <ele>803.2</ele>
        <time>2026-05-09T14:56:08Z</time>
      </trkpt>
      <trkpt lat="46.01327" lon="5.52601">
        <ele>803.2</ele>
        <time>2026-05-09T14:56:09Z</time>
      </trkpt>
      <trkpt lat="46.01324" lon="5.52605">
        <ele>803.2</ele>
        <time>2026-05-09T14:56:10Z</time>
      </trkpt>
      <trkpt lat="46.01324" lon="5.52605">
        <ele>803.2</ele>
        <time>2026-05-09T14:56:11Z</time>
      </trkpt>
      <trkpt lat="46.01321" lon="5.52608">
        <ele>803.6</ele>
        <time>2026-05-09T14:56:12Z</time>
      </trkpt>
      <trkpt lat="46.01317" lon="5.52612">
        <ele>803.6</ele>
        <time>2026-05-09T14:56:13Z</time>
      </trkpt>
      <trkpt lat="46.01314" lon="5.52615">
        <ele>803.6</ele>
        <time>2026-05-09T14:56:14Z</time>
      </trkpt>
      <trkpt lat="46.01311" lon="5.52618">
        <ele>803.6</ele>
        <time>2026-05-09T14:56:15Z</time>
      </trkpt>
      <trkpt lat="46.01308" lon="5.52621">
        <ele>803.8</ele>
        <time>2026-05-09T14:56:16Z</time>
      </trkpt>
      <trkpt lat="46.01305" lon="5.52625">
        <ele>803.8</ele>
        <time>2026-05-09T14:56:17Z</time>
      </trkpt>
      <trkpt lat="46.01302" lon="5.52628">
        <ele>803.8</ele>
        <time>2026-05-09T14:56:18Z</time>
      </trkpt>
      <trkpt lat="46.01299" lon="5.52631">
        <ele>804.2</ele>
        <time>2026-05-09T14:56:19Z</time>
      </trkpt>
      <trkpt lat="46.01296" lon="5.52634">
        <ele>804.2</ele>
        <time>2026-05-09T14:56:20Z</time>
      </trkpt>
      <trkpt lat="46.01293" lon="5.52637">
        <ele>804.4</ele>
        <time>2026-05-09T14:56:21Z</time>
      </trkpt>
      <trkpt lat="46.0129" lon="5.5264">
        <ele>804.4</ele>
        <time>2026-05-09T14:56:22Z</time>
      </trkpt>
      <trkpt lat="46.01287" lon="5.52642">
        <ele>804.4</ele>
        <time>2026-05-09T14:56:23Z</time>
      </trkpt>
      <trkpt lat="46.01284" lon="5.52645">
        <ele>804.4</ele>
        <time>2026-05-09T14:56:24Z</time>
      </trkpt>
      <trkpt lat="46.01282" lon="5.52648">
        <ele>804.6</ele>
        <time>2026-05-09T14:56:25Z</time>
      </trkpt>
      <trkpt lat="46.01279" lon="5.52651">
        <ele>804.8</ele>
        <time>2026-05-09T14:56:26Z</time>
      </trkpt>
      <trkpt lat="46.01276" lon="5.52653">
        <ele>804.8</ele>
        <time>2026-05-09T14:56:27Z</time>
      </trkpt>
      <trkpt lat="46.01273" lon="5.52656">
        <ele>805.2</ele>
        <time>2026-05-09T14:56:28Z</time>
      </trkpt>
      <trkpt lat="46.01271" lon="5.52658">
        <ele>805.2</ele>
        <time>2026-05-09T14:56:29Z</time>
      </trkpt>
      <trkpt lat="46.01268" lon="5.5266">
        <ele>805.2</ele>
        <time>2026-05-09T14:56:30Z</time>
      </trkpt>
      <trkpt lat="46.01266" lon="5.52663">
        <ele>805.2</ele>
        <time>2026-05-09T14:56:31Z</time>
      </trkpt>
      <trkpt lat="46.01263" lon="5.52665">
        <ele>805.6</ele>
        <time>2026-05-09T14:56:32Z</time>
      </trkpt>
      <trkpt lat="46.01261" lon="5.52667">
        <ele>805.8</ele>
        <time>2026-05-09T14:56:33Z</time>
      </trkpt>
      <trkpt lat="46.01259" lon="5.52668">
        <ele>805.8</ele>
        <time>2026-05-09T14:56:34Z</time>
      </trkpt>
      <trkpt lat="46.01256" lon="5.5267">
        <ele>806.2</ele>
        <time>2026-05-09T14:56:35Z</time>
      </trkpt>
      <trkpt lat="46.01254" lon="5.52671">
        <ele>806.2</ele>
        <time>2026-05-09T14:56:36Z</time>
      </trkpt>
      <trkpt lat="46.01252" lon="5.52673">
        <ele>806.4</ele>
        <time>2026-05-09T14:56:37Z</time>
      </trkpt>
      <trkpt lat="46.0125" lon="5.52674">
        <ele>806.8</ele>
        <time>2026-05-09T14:56:38Z</time>
      </trkpt>
      <trkpt lat="46.01248" lon="5.52676">
        <ele>807</ele>
        <time>2026-05-09T14:56:39Z</time>
      </trkpt>
      <trkpt lat="46.01245" lon="5.52677">
        <ele>807</ele>
        <time>2026-05-09T14:56:40Z</time>
      </trkpt>
      <trkpt lat="46.01243" lon="5.52679">
        <ele>807.4</ele>
        <time>2026-05-09T14:56:41Z</time>
      </trkpt>
      <trkpt lat="46.0124" lon="5.5268">
        <ele>807.4</ele>
        <time>2026-05-09T14:56:42Z</time>
      </trkpt>
      <trkpt lat="46.01238" lon="5.52682">
        <ele>807.8</ele>
        <time>2026-05-09T14:56:43Z</time>
      </trkpt>
      <trkpt lat="46.01235" lon="5.52683">
        <ele>807.8</ele>
        <time>2026-05-09T14:56:44Z</time>
      </trkpt>
      <trkpt lat="46.01233" lon="5.52684">
        <ele>807.8</ele>
        <time>2026-05-09T14:56:45Z</time>
      </trkpt>
      <trkpt lat="46.01231" lon="5.52686">
        <ele>808.2</ele>
        <time>2026-05-09T14:56:46Z</time>
      </trkpt>
      <trkpt lat="46.0123" lon="5.52687">
        <ele>808.4</ele>
        <time>2026-05-09T14:56:47Z</time>
      </trkpt>
      <trkpt lat="46.01228" lon="5.52688">
        <ele>808.6</ele>
        <time>2026-05-09T14:56:48Z</time>
      </trkpt>
      <trkpt lat="46.01226" lon="5.52689">
        <ele>808.8</ele>
        <time>2026-05-09T14:56:49Z</time>
      </trkpt>
      <trkpt lat="46.01224" lon="5.5269">
        <ele>808.8</ele>
        <time>2026-05-09T14:56:50Z</time>
      </trkpt>
      <trkpt lat="46.01222" lon="5.52691">
        <ele>809</ele>
        <time>2026-05-09T14:56:51Z</time>
      </trkpt>
      <trkpt lat="46.0122" lon="5.52692">
        <ele>809</ele>
        <time>2026-05-09T14:56:52Z</time>
      </trkpt>
      <trkpt lat="46.01218" lon="5.52694">
        <ele>809</ele>
        <time>2026-05-09T14:56:53Z</time>
      </trkpt>
      <trkpt lat="46.01215" lon="5.52695">
        <ele>809</ele>
        <time>2026-05-09T14:56:54Z</time>
      </trkpt>
      <trkpt lat="46.01213" lon="5.52696">
        <ele>809.4</ele>
        <time>2026-05-09T14:56:55Z</time>
      </trkpt>
      <trkpt lat="46.01211" lon="5.52697">
        <ele>809.4</ele>
        <time>2026-05-09T14:56:56Z</time>
      </trkpt>
      <trkpt lat="46.01208" lon="5.52698">
        <ele>809.8</ele>
        <time>2026-05-09T14:56:57Z</time>
      </trkpt>
      <trkpt lat="46.01206" lon="5.52699">
        <ele>809.8</ele>
        <time>2026-05-09T14:56:58Z</time>
      </trkpt>
      <trkpt lat="46.01203" lon="5.52699">
        <ele>810</ele>
        <time>2026-05-09T14:56:59Z</time>
      </trkpt>
      <trkpt lat="46.01201" lon="5.527">
        <ele>810</ele>
        <time>2026-05-09T14:57:00Z</time>
      </trkpt>
      <trkpt lat="46.01199" lon="5.52701">
        <ele>810</ele>
        <time>2026-05-09T14:57:01Z</time>
      </trkpt>
      <trkpt lat="46.01197" lon="5.52703">
        <ele>810.2</ele>
        <time>2026-05-09T14:57:02Z</time>
      </trkpt>
      <trkpt lat="46.01195" lon="5.52704">
        <ele>810.2</ele>
        <time>2026-05-09T14:57:03Z</time>
      </trkpt>
      <trkpt lat="46.01193" lon="5.52705">
        <ele>810.6</ele>
        <time>2026-05-09T14:57:04Z</time>
      </trkpt>
      <trkpt lat="46.0119" lon="5.52706">
        <ele>810.6</ele>
        <time>2026-05-09T14:57:05Z</time>
      </trkpt>
      <trkpt lat="46.01188" lon="5.52707">
        <ele>810.6</ele>
        <time>2026-05-09T14:57:06Z</time>
      </trkpt>
      <trkpt lat="46.01186" lon="5.52708">
        <ele>810.8</ele>
        <time>2026-05-09T14:57:07Z</time>
      </trkpt>
      <trkpt lat="46.01184" lon="5.5271">
        <ele>810.8</ele>
        <time>2026-05-09T14:57:08Z</time>
      </trkpt>
      <trkpt lat="46.01182" lon="5.52711">
        <ele>811.2</ele>
        <time>2026-05-09T14:57:09Z</time>
      </trkpt>
      <trkpt lat="46.01181" lon="5.52712">
        <ele>811.4</ele>
        <time>2026-05-09T14:57:10Z</time>
      </trkpt>
      <trkpt lat="46.01179" lon="5.52713">
        <ele>811.8</ele>
        <time>2026-05-09T14:57:11Z</time>
      </trkpt>
      <trkpt lat="46.01177" lon="5.52714">
        <ele>811.8</ele>
        <time>2026-05-09T14:57:12Z</time>
      </trkpt>
      <trkpt lat="46.01174" lon="5.52715">
        <ele>811.8</ele>
        <time>2026-05-09T14:57:13Z</time>
      </trkpt>
      <trkpt lat="46.01172" lon="5.52717">
        <ele>812</ele>
        <time>2026-05-09T14:57:14Z</time>
      </trkpt>
      <trkpt lat="46.0117" lon="5.52718">
        <ele>812</ele>
        <time>2026-05-09T14:57:15Z</time>
      </trkpt>
      <trkpt lat="46.01167" lon="5.5272">
        <ele>812.2</ele>
        <time>2026-05-09T14:57:16Z</time>
      </trkpt>
      <trkpt lat="46.01165" lon="5.52721">
        <ele>812.2</ele>
        <time>2026-05-09T14:57:17Z</time>
      </trkpt>
      <trkpt lat="46.01163" lon="5.52723">
        <ele>812.2</ele>
        <time>2026-05-09T14:57:18Z</time>
      </trkpt>
      <trkpt lat="46.0116" lon="5.52725">
        <ele>812.6</ele>
        <time>2026-05-09T14:57:19Z</time>
      </trkpt>
      <trkpt lat="46.01158" lon="5.52727">
        <ele>812.6</ele>
        <time>2026-05-09T14:57:20Z</time>
      </trkpt>
      <trkpt lat="46.01156" lon="5.52729">
        <ele>812.6</ele>
        <time>2026-05-09T14:57:21Z</time>
      </trkpt>
      <trkpt lat="46.01153" lon="5.52733">
        <ele>812.6</ele>
        <time>2026-05-09T14:57:22Z</time>
      </trkpt>
      <trkpt lat="46.0115" lon="5.52734">
        <ele>812.8</ele>
        <time>2026-05-09T14:57:23Z</time>
      </trkpt>
      <trkpt lat="46.01148" lon="5.52735">
        <ele>812.8</ele>
        <time>2026-05-09T14:57:24Z</time>
      </trkpt>
      <trkpt lat="46.01146" lon="5.52737">
        <ele>812.8</ele>
        <time>2026-05-09T14:57:25Z</time>
      </trkpt>
      <trkpt lat="46.01145" lon="5.52739">
        <ele>813</ele>
        <time>2026-05-09T14:57:26Z</time>
      </trkpt>
      <trkpt lat="46.01143" lon="5.52741">
        <ele>813</ele>
        <time>2026-05-09T14:57:27Z</time>
      </trkpt>
      <trkpt lat="46.01142" lon="5.52743">
        <ele>813.4</ele>
        <time>2026-05-09T14:57:28Z</time>
      </trkpt>
      <trkpt lat="46.0114" lon="5.52746">
        <ele>813.4</ele>
        <time>2026-05-09T14:57:29Z</time>
      </trkpt>
      <trkpt lat="46.01138" lon="5.52748">
        <ele>813.8</ele>
        <time>2026-05-09T14:57:30Z</time>
      </trkpt>
      <trkpt lat="46.01136" lon="5.5275">
        <ele>813.8</ele>
        <time>2026-05-09T14:57:31Z</time>
      </trkpt>
      <trkpt lat="46.01135" lon="5.52752">
        <ele>814</ele>
        <time>2026-05-09T14:57:32Z</time>
      </trkpt>
      <trkpt lat="46.01133" lon="5.52755">
        <ele>814</ele>
        <time>2026-05-09T14:57:33Z</time>
      </trkpt>
      <trkpt lat="46.01131" lon="5.52757">
        <ele>814</ele>
        <time>2026-05-09T14:57:34Z</time>
      </trkpt>
      <trkpt lat="46.0113" lon="5.52759">
        <ele>814.4</ele>
        <time>2026-05-09T14:57:35Z</time>
      </trkpt>
      <trkpt lat="46.01128" lon="5.52761">
        <ele>814.4</ele>
        <time>2026-05-09T14:57:36Z</time>
      </trkpt>
      <trkpt lat="46.01127" lon="5.52763">
        <ele>814.4</ele>
        <time>2026-05-09T14:57:37Z</time>
      </trkpt>
      <trkpt lat="46.01126" lon="5.52765">
        <ele>814.6</ele>
        <time>2026-05-09T14:57:38Z</time>
      </trkpt>
      <trkpt lat="46.01124" lon="5.52767">
        <ele>814.6</ele>
        <time>2026-05-09T14:57:39Z</time>
      </trkpt>
      <trkpt lat="46.01122" lon="5.52769">
        <ele>814.6</ele>
        <time>2026-05-09T14:57:40Z</time>
      </trkpt>
      <trkpt lat="46.01121" lon="5.52771">
        <ele>814.8</ele>
        <time>2026-05-09T14:57:41Z</time>
      </trkpt>
      <trkpt lat="46.01119" lon="5.52773">
        <ele>814.8</ele>
        <time>2026-05-09T14:57:42Z</time>
      </trkpt>
      <trkpt lat="46.01118" lon="5.52776">
        <ele>814.8</ele>
        <time>2026-05-09T14:57:43Z</time>
      </trkpt>
      <trkpt lat="46.01116" lon="5.52778">
        <ele>815</ele>
        <time>2026-05-09T14:57:44Z</time>
      </trkpt>
      <trkpt lat="46.01115" lon="5.5278">
        <ele>815</ele>
        <time>2026-05-09T14:57:45Z</time>
      </trkpt>
      <trkpt lat="46.01114" lon="5.52781">
        <ele>815</ele>
        <time>2026-05-09T14:57:46Z</time>
      </trkpt>
      <trkpt lat="46.01112" lon="5.52784">
        <ele>815</ele>
        <time>2026-05-09T14:57:47Z</time>
      </trkpt>
      <trkpt lat="46.0111" lon="5.52786">
        <ele>815.4</ele>
        <time>2026-05-09T14:57:48Z</time>
      </trkpt>
      <trkpt lat="46.01109" lon="5.52788">
        <ele>815.4</ele>
        <time>2026-05-09T14:57:49Z</time>
      </trkpt>
      <trkpt lat="46.01107" lon="5.5279">
        <ele>815.4</ele>
        <time>2026-05-09T14:57:50Z</time>
      </trkpt>
      <trkpt lat="46.01105" lon="5.52792">
        <ele>815.4</ele>
        <time>2026-05-09T14:57:51Z</time>
      </trkpt>
      <trkpt lat="46.01103" lon="5.52794">
        <ele>815.4</ele>
        <time>2026-05-09T14:57:52Z</time>
      </trkpt>
      <trkpt lat="46.01102" lon="5.52796">
        <ele>815.4</ele>
        <time>2026-05-09T14:57:53Z</time>
      </trkpt>
      <trkpt lat="46.011" lon="5.52798">
        <ele>815.4</ele>
        <time>2026-05-09T14:57:54Z</time>
      </trkpt>
      <trkpt lat="46.01099" lon="5.528">
        <ele>815.6</ele>
        <time>2026-05-09T14:57:55Z</time>
      </trkpt>
      <trkpt lat="46.01097" lon="5.52802">
        <ele>815.6</ele>
        <time>2026-05-09T14:57:56Z</time>
      </trkpt>
      <trkpt lat="46.01096" lon="5.52804">
        <ele>815.6</ele>
        <time>2026-05-09T14:57:57Z</time>
      </trkpt>
      <trkpt lat="46.01094" lon="5.52806">
        <ele>815.8</ele>
        <time>2026-05-09T14:57:58Z</time>
      </trkpt>
      <trkpt lat="46.01093" lon="5.52808">
        <ele>815.8</ele>
        <time>2026-05-09T14:57:59Z</time>
      </trkpt>
      <trkpt lat="46.01092" lon="5.5281">
        <ele>815.8</ele>
        <time>2026-05-09T14:58:00Z</time>
      </trkpt>
      <trkpt lat="46.01091" lon="5.52812">
        <ele>815.8</ele>
        <time>2026-05-09T14:58:01Z</time>
      </trkpt>
      <trkpt lat="46.0109" lon="5.52814">
        <ele>815.8</ele>
        <time>2026-05-09T14:58:02Z</time>
      </trkpt>
      <trkpt lat="46.01088" lon="5.52815">
        <ele>816</ele>
        <time>2026-05-09T14:58:03Z</time>
      </trkpt>
      <trkpt lat="46.01087" lon="5.52817">
        <ele>816</ele>
        <time>2026-05-09T14:58:04Z</time>
      </trkpt>
      <trkpt lat="46.01086" lon="5.52819">
        <ele>816</ele>
        <time>2026-05-09T14:58:05Z</time>
      </trkpt>
      <trkpt lat="46.01085" lon="5.5282">
        <ele>816.2</ele>
        <time>2026-05-09T14:58:06Z</time>
      </trkpt>
      <trkpt lat="46.01083" lon="5.52822">
        <ele>816.2</ele>
        <time>2026-05-09T14:58:07Z</time>
      </trkpt>
      <trkpt lat="46.01082" lon="5.52824">
        <ele>816.2</ele>
        <time>2026-05-09T14:58:08Z</time>
      </trkpt>
      <trkpt lat="46.01081" lon="5.52825">
        <ele>816.6</ele>
        <time>2026-05-09T14:58:09Z</time>
      </trkpt>
      <trkpt lat="46.0108" lon="5.52827">
        <ele>816.6</ele>
        <time>2026-05-09T14:58:10Z</time>
      </trkpt>
      <trkpt lat="46.01078" lon="5.52829">
        <ele>816.6</ele>
        <time>2026-05-09T14:58:11Z</time>
      </trkpt>
      <trkpt lat="46.01077" lon="5.52831">
        <ele>816.6</ele>
        <time>2026-05-09T14:58:12Z</time>
      </trkpt>
      <trkpt lat="46.01076" lon="5.52833">
        <ele>816.8</ele>
        <time>2026-05-09T14:58:13Z</time>
      </trkpt>
      <trkpt lat="46.01075" lon="5.52835">
        <ele>816.8</ele>
        <time>2026-05-09T14:58:14Z</time>
      </trkpt>
      <trkpt lat="46.01073" lon="5.52837">
        <ele>817</ele>
        <time>2026-05-09T14:58:15Z</time>
      </trkpt>
      <trkpt lat="46.01072" lon="5.52839">
        <ele>817</ele>
        <time>2026-05-09T14:58:16Z</time>
      </trkpt>
      <trkpt lat="46.01071" lon="5.52841">
        <ele>817</ele>
        <time>2026-05-09T14:58:17Z</time>
      </trkpt>
      <trkpt lat="46.01069" lon="5.52843">
        <ele>817.4</ele>
        <time>2026-05-09T14:58:18Z</time>
      </trkpt>
      <trkpt lat="46.01068" lon="5.52845">
        <ele>817.4</ele>
        <time>2026-05-09T14:58:19Z</time>
      </trkpt>
      <trkpt lat="46.01067" lon="5.52847">
        <ele>817.6</ele>
        <time>2026-05-09T14:58:20Z</time>
      </trkpt>
      <trkpt lat="46.01065" lon="5.52849">
        <ele>817.6</ele>
        <time>2026-05-09T14:58:21Z</time>
      </trkpt>
      <trkpt lat="46.01064" lon="5.52851">
        <ele>818</ele>
        <time>2026-05-09T14:58:22Z</time>
      </trkpt>
      <trkpt lat="46.01063" lon="5.52853">
        <ele>818</ele>
        <time>2026-05-09T14:58:23Z</time>
      </trkpt>
      <trkpt lat="46.01061" lon="5.52856">
        <ele>818</ele>
        <time>2026-05-09T14:58:24Z</time>
      </trkpt>
      <trkpt lat="46.0106" lon="5.52858">
        <ele>818</ele>
        <time>2026-05-09T14:58:25Z</time>
      </trkpt>
      <trkpt lat="46.01059" lon="5.5286">
        <ele>818</ele>
        <time>2026-05-09T14:58:26Z</time>
      </trkpt>
      <trkpt lat="46.01057" lon="5.52863">
        <ele>818.4</ele>
        <time>2026-05-09T14:58:27Z</time>
      </trkpt>
      <trkpt lat="46.01056" lon="5.52865">
        <ele>818.4</ele>
        <time>2026-05-09T14:58:28Z</time>
      </trkpt>
      <trkpt lat="46.01055" lon="5.52867">
        <ele>818.4</ele>
        <time>2026-05-09T14:58:29Z</time>
      </trkpt>
      <trkpt lat="46.01054" lon="5.5287">
        <ele>818.4</ele>
        <time>2026-05-09T14:58:30Z</time>
      </trkpt>
      <trkpt lat="46.01052" lon="5.52872">
        <ele>818.4</ele>
        <time>2026-05-09T14:58:31Z</time>
      </trkpt>
      <trkpt lat="46.0105" lon="5.52874">
        <ele>818.4</ele>
        <time>2026-05-09T14:58:32Z</time>
      </trkpt>
      <trkpt lat="46.01049" lon="5.52876">
        <ele>818.4</ele>
        <time>2026-05-09T14:58:33Z</time>
      </trkpt>
      <trkpt lat="46.01048" lon="5.52878">
        <ele>818.4</ele>
        <time>2026-05-09T14:58:34Z</time>
      </trkpt>
      <trkpt lat="46.01047" lon="5.5288">
        <ele>818.4</ele>
        <time>2026-05-09T14:58:35Z</time>
      </trkpt>
      <trkpt lat="46.01046" lon="5.52882">
        <ele>818.4</ele>
        <time>2026-05-09T14:58:36Z</time>
      </trkpt>
      <trkpt lat="46.01045" lon="5.52884">
        <ele>818.8</ele>
        <time>2026-05-09T14:58:37Z</time>
      </trkpt>
      <trkpt lat="46.01044" lon="5.52886">
        <ele>818.8</ele>
        <time>2026-05-09T14:58:38Z</time>
      </trkpt>
      <trkpt lat="46.01043" lon="5.52888">
        <ele>818.8</ele>
        <time>2026-05-09T14:58:39Z</time>
      </trkpt>
      <trkpt lat="46.01042" lon="5.5289">
        <ele>819</ele>
        <time>2026-05-09T14:58:40Z</time>
      </trkpt>
      <trkpt lat="46.01041" lon="5.52892">
        <ele>819</ele>
        <time>2026-05-09T14:58:41Z</time>
      </trkpt>
      <trkpt lat="46.01039" lon="5.52894">
        <ele>819</ele>
        <time>2026-05-09T14:58:42Z</time>
      </trkpt>
      <trkpt lat="46.01039" lon="5.52894">
        <ele>819</ele>
        <time>2026-05-09T14:58:43Z</time>
      </trkpt>
      <trkpt lat="46.01038" lon="5.52896">
        <ele>819.4</ele>
        <time>2026-05-09T14:58:44Z</time>
      </trkpt>
      <trkpt lat="46.01037" lon="5.52898">
        <ele>819.4</ele>
        <time>2026-05-09T14:58:45Z</time>
      </trkpt>
      <trkpt lat="46.01036" lon="5.529">
        <ele>819.4</ele>
        <time>2026-05-09T14:58:46Z</time>
      </trkpt>
      <trkpt lat="46.01035" lon="5.52902">
        <ele>819.4</ele>
        <time>2026-05-09T14:58:47Z</time>
      </trkpt>
      <trkpt lat="46.01034" lon="5.52904">
        <ele>819.4</ele>
        <time>2026-05-09T14:58:48Z</time>
      </trkpt>
      <trkpt lat="46.01033" lon="5.52906">
        <ele>819.4</ele>
        <time>2026-05-09T14:58:49Z</time>
      </trkpt>
      <trkpt lat="46.01032" lon="5.52908">
        <ele>819.8</ele>
        <time>2026-05-09T14:58:50Z</time>
      </trkpt>
      <trkpt lat="46.01031" lon="5.5291">
        <ele>819.8</ele>
        <time>2026-05-09T14:58:51Z</time>
      </trkpt>
      <trkpt lat="46.01029" lon="5.52912">
        <ele>820</ele>
        <time>2026-05-09T14:58:52Z</time>
      </trkpt>
      <trkpt lat="46.01028" lon="5.52914">
        <ele>820</ele>
        <time>2026-05-09T14:58:53Z</time>
      </trkpt>
      <trkpt lat="46.01027" lon="5.52916">
        <ele>820</ele>
        <time>2026-05-09T14:58:54Z</time>
      </trkpt>
      <trkpt lat="46.01025" lon="5.52918">
        <ele>820</ele>
        <time>2026-05-09T14:58:55Z</time>
      </trkpt>
      <trkpt lat="46.01024" lon="5.5292">
        <ele>820.6</ele>
        <time>2026-05-09T14:58:56Z</time>
      </trkpt>
      <trkpt lat="46.01023" lon="5.52922">
        <ele>820.8</ele>
        <time>2026-05-09T14:58:57Z</time>
      </trkpt>
      <trkpt lat="46.01021" lon="5.52924">
        <ele>820.8</ele>
        <time>2026-05-09T14:58:58Z</time>
      </trkpt>
      <trkpt lat="46.0102" lon="5.52926">
        <ele>821</ele>
        <time>2026-05-09T14:58:59Z</time>
      </trkpt>
      <trkpt lat="46.01019" lon="5.52928">
        <ele>821</ele>
        <time>2026-05-09T14:59:00Z</time>
      </trkpt>
      <trkpt lat="46.01017" lon="5.5293">
        <ele>821.4</ele>
        <time>2026-05-09T14:59:01Z</time>
      </trkpt>
      <trkpt lat="46.01016" lon="5.52932">
        <ele>821.6</ele>
        <time>2026-05-09T14:59:02Z</time>
      </trkpt>
      <trkpt lat="46.01015" lon="5.52934">
        <ele>821.8</ele>
        <time>2026-05-09T14:59:03Z</time>
      </trkpt>
      <trkpt lat="46.01014" lon="5.52936">
        <ele>821.8</ele>
        <time>2026-05-09T14:59:04Z</time>
      </trkpt>
      <trkpt lat="46.01012" lon="5.52939">
        <ele>821.8</ele>
        <time>2026-05-09T14:59:05Z</time>
      </trkpt>
      <trkpt lat="46.01011" lon="5.52941">
        <ele>822.2</ele>
        <time>2026-05-09T14:59:06Z</time>
      </trkpt>
      <trkpt lat="46.0101" lon="5.52943">
        <ele>822.4</ele>
        <time>2026-05-09T14:59:07Z</time>
      </trkpt>
      <trkpt lat="46.01009" lon="5.52945">
        <ele>822.4</ele>
        <time>2026-05-09T14:59:08Z</time>
      </trkpt>
      <trkpt lat="46.01009" lon="5.52945">
        <ele>822.6</ele>
        <time>2026-05-09T14:59:09Z</time>
      </trkpt>
      <trkpt lat="46.01009" lon="5.52945">
        <ele>822.6</ele>
        <time>2026-05-09T14:59:10Z</time>
      </trkpt>
      <trkpt lat="46.01004" lon="5.52953">
        <ele>822.8</ele>
        <time>2026-05-09T14:59:12Z</time>
      </trkpt>
      <trkpt lat="46.01002" lon="5.52955">
        <ele>822.8</ele>
        <time>2026-05-09T14:59:13Z</time>
      </trkpt>
      <trkpt lat="46.01001" lon="5.52957">
        <ele>823</ele>
        <time>2026-05-09T14:59:14Z</time>
      </trkpt>
      <trkpt lat="46.01" lon="5.52958">
        <ele>823</ele>
        <time>2026-05-09T14:59:15Z</time>
      </trkpt>
      <trkpt lat="46.00999" lon="5.5296">
        <ele>823</ele>
        <time>2026-05-09T14:59:16Z</time>
      </trkpt>
      <trkpt lat="46.00998" lon="5.52963">
        <ele>823.6</ele>
        <time>2026-05-09T14:59:17Z</time>
      </trkpt>
      <trkpt lat="46.00996" lon="5.52965">
        <ele>823.8</ele>
        <time>2026-05-09T14:59:18Z</time>
      </trkpt>
      <trkpt lat="46.00995" lon="5.52967">
        <ele>823.8</ele>
        <time>2026-05-09T14:59:19Z</time>
      </trkpt>
      <trkpt lat="46.00994" lon="5.52969">
        <ele>824.2</ele>
        <time>2026-05-09T14:59:20Z</time>
      </trkpt>
      <trkpt lat="46.00994" lon="5.52971">
        <ele>824.2</ele>
        <time>2026-05-09T14:59:21Z</time>
      </trkpt>
      <trkpt lat="46.00993" lon="5.52973">
        <ele>824.2</ele>
        <time>2026-05-09T14:59:22Z</time>
      </trkpt>
      <trkpt lat="46.00992" lon="5.52976">
        <ele>824.4</ele>
        <time>2026-05-09T14:59:23Z</time>
      </trkpt>
      <trkpt lat="46.00991" lon="5.52977">
        <ele>824.4</ele>
        <time>2026-05-09T14:59:24Z</time>
      </trkpt>
      <trkpt lat="46.0099" lon="5.52979">
        <ele>824.8</ele>
        <time>2026-05-09T14:59:25Z</time>
      </trkpt>
      <trkpt lat="46.00989" lon="5.52982">
        <ele>824.8</ele>
        <time>2026-05-09T14:59:26Z</time>
      </trkpt>
      <trkpt lat="46.00988" lon="5.52984">
        <ele>825</ele>
        <time>2026-05-09T14:59:27Z</time>
      </trkpt>
      <trkpt lat="46.00987" lon="5.52986">
        <ele>825</ele>
        <time>2026-05-09T14:59:28Z</time>
      </trkpt>
      <trkpt lat="46.00986" lon="5.52989">
        <ele>825.2</ele>
        <time>2026-05-09T14:59:29Z</time>
      </trkpt>
      <trkpt lat="46.00984" lon="5.52991">
        <ele>825.2</ele>
        <time>2026-05-09T14:59:30Z</time>
      </trkpt>
      <trkpt lat="46.00983" lon="5.52993">
        <ele>825.2</ele>
        <time>2026-05-09T14:59:31Z</time>
      </trkpt>
      <trkpt lat="46.00982" lon="5.52995">
        <ele>825.4</ele>
        <time>2026-05-09T14:59:32Z</time>
      </trkpt>
      <trkpt lat="46.00981" lon="5.52997">
        <ele>825.4</ele>
        <time>2026-05-09T14:59:33Z</time>
      </trkpt>
      <trkpt lat="46.0098" lon="5.52999">
        <ele>825.4</ele>
        <time>2026-05-09T14:59:34Z</time>
      </trkpt>
      <trkpt lat="46.00979" lon="5.53002">
        <ele>825.8</ele>
        <time>2026-05-09T14:59:35Z</time>
      </trkpt>
      <trkpt lat="46.00978" lon="5.53004">
        <ele>825.8</ele>
        <time>2026-05-09T14:59:36Z</time>
      </trkpt>
      <trkpt lat="46.00977" lon="5.53009">
        <ele>826</ele>
        <time>2026-05-09T14:59:37Z</time>
      </trkpt>
      <trkpt lat="46.00976" lon="5.53011">
        <ele>826</ele>
        <time>2026-05-09T14:59:38Z</time>
      </trkpt>
      <trkpt lat="46.00975" lon="5.53012">
        <ele>826.2</ele>
        <time>2026-05-09T14:59:39Z</time>
      </trkpt>
      <trkpt lat="46.00974" lon="5.53014">
        <ele>826.2</ele>
        <time>2026-05-09T14:59:40Z</time>
      </trkpt>
      <trkpt lat="46.00973" lon="5.53016">
        <ele>826.2</ele>
        <time>2026-05-09T14:59:41Z</time>
      </trkpt>
      <trkpt lat="46.00972" lon="5.53018">
        <ele>826.2</ele>
        <time>2026-05-09T14:59:42Z</time>
      </trkpt>
      <trkpt lat="46.00971" lon="5.5302">
        <ele>826.6</ele>
        <time>2026-05-09T14:59:43Z</time>
      </trkpt>
      <trkpt lat="46.00971" lon="5.53022">
        <ele>826.6</ele>
        <time>2026-05-09T14:59:44Z</time>
      </trkpt>
      <trkpt lat="46.0097" lon="5.53025">
        <ele>826.6</ele>
        <time>2026-05-09T14:59:45Z</time>
      </trkpt>
      <trkpt lat="46.00969" lon="5.53027">
        <ele>827</ele>
        <time>2026-05-09T14:59:46Z</time>
      </trkpt>
      <trkpt lat="46.00969" lon="5.5303">
        <ele>827.2</ele>
        <time>2026-05-09T14:59:47Z</time>
      </trkpt>
      <trkpt lat="46.00968" lon="5.53032">
        <ele>827.4</ele>
        <time>2026-05-09T14:59:48Z</time>
      </trkpt>
      <trkpt lat="46.00967" lon="5.53035">
        <ele>827.4</ele>
        <time>2026-05-09T14:59:49Z</time>
      </trkpt>
      <trkpt lat="46.00967" lon="5.53037">
        <ele>827.4</ele>
        <time>2026-05-09T14:59:50Z</time>
      </trkpt>
      <trkpt lat="46.00966" lon="5.5304">
        <ele>827.8</ele>
        <time>2026-05-09T14:59:51Z</time>
      </trkpt>
      <trkpt lat="46.00966" lon="5.53043">
        <ele>828</ele>
        <time>2026-05-09T14:59:52Z</time>
      </trkpt>
      <trkpt lat="46.00965" lon="5.53045">
        <ele>828</ele>
        <time>2026-05-09T14:59:53Z</time>
      </trkpt>
      <trkpt lat="46.00965" lon="5.53048">
        <ele>828.2</ele>
        <time>2026-05-09T14:59:54Z</time>
      </trkpt>
      <trkpt lat="46.00964" lon="5.5305">
        <ele>828.4</ele>
        <time>2026-05-09T14:59:55Z</time>
      </trkpt>
      <trkpt lat="46.00964" lon="5.53053">
        <ele>828.4</ele>
        <time>2026-05-09T14:59:56Z</time>
      </trkpt>
      <trkpt lat="46.00963" lon="5.53055">
        <ele>828.6</ele>
        <time>2026-05-09T14:59:57Z</time>
      </trkpt>
      <trkpt lat="46.00962" lon="5.53058">
        <ele>828.6</ele>
        <time>2026-05-09T14:59:58Z</time>
      </trkpt>
      <trkpt lat="46.00962" lon="5.5306">
        <ele>828.6</ele>
        <time>2026-05-09T14:59:59Z</time>
      </trkpt>
      <trkpt lat="46.00961" lon="5.53063">
        <ele>829</ele>
        <time>2026-05-09T15:00:00Z</time>
      </trkpt>
      <trkpt lat="46.00961" lon="5.53066">
        <ele>829</ele>
        <time>2026-05-09T15:00:01Z</time>
      </trkpt>
      <trkpt lat="46.00961" lon="5.53069">
        <ele>829.2</ele>
        <time>2026-05-09T15:00:02Z</time>
      </trkpt>
      <trkpt lat="46.0096" lon="5.53071">
        <ele>829.2</ele>
        <time>2026-05-09T15:00:03Z</time>
      </trkpt>
      <trkpt lat="46.0096" lon="5.53074">
        <ele>829.6</ele>
        <time>2026-05-09T15:00:04Z</time>
      </trkpt>
      <trkpt lat="46.00959" lon="5.53077">
        <ele>829.8</ele>
        <time>2026-05-09T15:00:05Z</time>
      </trkpt>
      <trkpt lat="46.00959" lon="5.5308">
        <ele>829.8</ele>
        <time>2026-05-09T15:00:06Z</time>
      </trkpt>
      <trkpt lat="46.00959" lon="5.53083">
        <ele>830</ele>
        <time>2026-05-09T15:00:07Z</time>
      </trkpt>
      <trkpt lat="46.00958" lon="5.53085">
        <ele>830</ele>
        <time>2026-05-09T15:00:08Z</time>
      </trkpt>
      <trkpt lat="46.00958" lon="5.53088">
        <ele>830</ele>
        <time>2026-05-09T15:00:09Z</time>
      </trkpt>
      <trkpt lat="46.00958" lon="5.53091">
        <ele>830</ele>
        <time>2026-05-09T15:00:10Z</time>
      </trkpt>
      <trkpt lat="46.00957" lon="5.53094">
        <ele>830.4</ele>
        <time>2026-05-09T15:00:11Z</time>
      </trkpt>
      <trkpt lat="46.00957" lon="5.53096">
        <ele>830.4</ele>
        <time>2026-05-09T15:00:12Z</time>
      </trkpt>
      <trkpt lat="46.00956" lon="5.53099">
        <ele>830.6</ele>
        <time>2026-05-09T15:00:13Z</time>
      </trkpt>
      <trkpt lat="46.00956" lon="5.53101">
        <ele>830.6</ele>
        <time>2026-05-09T15:00:14Z</time>
      </trkpt>
      <trkpt lat="46.00955" lon="5.53104">
        <ele>831</ele>
        <time>2026-05-09T15:00:15Z</time>
      </trkpt>
      <trkpt lat="46.00954" lon="5.53107">
        <ele>831</ele>
        <time>2026-05-09T15:00:16Z</time>
      </trkpt>
      <trkpt lat="46.00953" lon="5.5311">
        <ele>831</ele>
        <time>2026-05-09T15:00:17Z</time>
      </trkpt>
      <trkpt lat="46.00953" lon="5.53113">
        <ele>831</ele>
        <time>2026-05-09T15:00:18Z</time>
      </trkpt>
      <trkpt lat="46.00952" lon="5.53116">
        <ele>831</ele>
        <time>2026-05-09T15:00:19Z</time>
      </trkpt>
      <trkpt lat="46.00952" lon="5.53119">
        <ele>831</ele>
        <time>2026-05-09T15:00:20Z</time>
      </trkpt>
      <trkpt lat="46.00951" lon="5.53122">
        <ele>831</ele>
        <time>2026-05-09T15:00:21Z</time>
      </trkpt>
      <trkpt lat="46.0095" lon="5.53125">
        <ele>831</ele>
        <time>2026-05-09T15:00:22Z</time>
      </trkpt>
      <trkpt lat="46.00949" lon="5.53127">
        <ele>831.2</ele>
        <time>2026-05-09T15:00:23Z</time>
      </trkpt>
      <trkpt lat="46.00948" lon="5.5313">
        <ele>831.2</ele>
        <time>2026-05-09T15:00:24Z</time>
      </trkpt>
      <trkpt lat="46.00947" lon="5.53134">
        <ele>831.2</ele>
        <time>2026-05-09T15:00:25Z</time>
      </trkpt>
      <trkpt lat="46.00946" lon="5.53137">
        <ele>831.2</ele>
        <time>2026-05-09T15:00:26Z</time>
      </trkpt>
      <trkpt lat="46.00945" lon="5.53141">
        <ele>831.4</ele>
        <time>2026-05-09T15:00:27Z</time>
      </trkpt>
      <trkpt lat="46.00945" lon="5.53145">
        <ele>831.4</ele>
        <time>2026-05-09T15:00:28Z</time>
      </trkpt>
      <trkpt lat="46.00944" lon="5.53149">
        <ele>831.4</ele>
        <time>2026-05-09T15:00:29Z</time>
      </trkpt>
      <trkpt lat="46.00942" lon="5.53152">
        <ele>831.4</ele>
        <time>2026-05-09T15:00:30Z</time>
      </trkpt>
      <trkpt lat="46.00941" lon="5.53156">
        <ele>831.8</ele>
        <time>2026-05-09T15:00:31Z</time>
      </trkpt>
      <trkpt lat="46.0094" lon="5.53159">
        <ele>831.8</ele>
        <time>2026-05-09T15:00:32Z</time>
      </trkpt>
      <trkpt lat="46.00939" lon="5.53162">
        <ele>831.8</ele>
        <time>2026-05-09T15:00:33Z</time>
      </trkpt>
      <trkpt lat="46.00938" lon="5.53166">
        <ele>831.8</ele>
        <time>2026-05-09T15:00:34Z</time>
      </trkpt>
      <trkpt lat="46.00936" lon="5.53169">
        <ele>831.8</ele>
        <time>2026-05-09T15:00:35Z</time>
      </trkpt>
      <trkpt lat="46.00935" lon="5.53173">
        <ele>831.8</ele>
        <time>2026-05-09T15:00:36Z</time>
      </trkpt>
      <trkpt lat="46.00933" lon="5.53176">
        <ele>831.8</ele>
        <time>2026-05-09T15:00:37Z</time>
      </trkpt>
      <trkpt lat="46.00932" lon="5.5318">
        <ele>831.8</ele>
        <time>2026-05-09T15:00:38Z</time>
      </trkpt>
      <trkpt lat="46.0093" lon="5.53183">
        <ele>832</ele>
        <time>2026-05-09T15:00:39Z</time>
      </trkpt>
      <trkpt lat="46.00929" lon="5.53186">
        <ele>832</ele>
        <time>2026-05-09T15:00:40Z</time>
      </trkpt>
      <trkpt lat="46.00927" lon="5.5319">
        <ele>832.2</ele>
        <time>2026-05-09T15:00:41Z</time>
      </trkpt>
      <trkpt lat="46.00925" lon="5.53193">
        <ele>832.2</ele>
        <time>2026-05-09T15:00:42Z</time>
      </trkpt>
      <trkpt lat="46.00923" lon="5.53195">
        <ele>832.2</ele>
        <time>2026-05-09T15:00:43Z</time>
      </trkpt>
      <trkpt lat="46.00922" lon="5.53198">
        <ele>832.2</ele>
        <time>2026-05-09T15:00:44Z</time>
      </trkpt>
      <trkpt lat="46.0092" lon="5.53201">
        <ele>832.2</ele>
        <time>2026-05-09T15:00:45Z</time>
      </trkpt>
      <trkpt lat="46.00918" lon="5.53204">
        <ele>832.2</ele>
        <time>2026-05-09T15:00:46Z</time>
      </trkpt>
      <trkpt lat="46.00916" lon="5.53207">
        <ele>832.2</ele>
        <time>2026-05-09T15:00:47Z</time>
      </trkpt>
      <trkpt lat="46.00914" lon="5.5321">
        <ele>832.2</ele>
        <time>2026-05-09T15:00:48Z</time>
      </trkpt>
      <trkpt lat="46.00912" lon="5.53213">
        <ele>832.2</ele>
        <time>2026-05-09T15:00:49Z</time>
      </trkpt>
      <trkpt lat="46.0091" lon="5.53216">
        <ele>832.4</ele>
        <time>2026-05-09T15:00:50Z</time>
      </trkpt>
      <trkpt lat="46.00908" lon="5.53219">
        <ele>832.4</ele>
        <time>2026-05-09T15:00:51Z</time>
      </trkpt>
      <trkpt lat="46.00906" lon="5.53222">
        <ele>832.4</ele>
        <time>2026-05-09T15:00:52Z</time>
      </trkpt>
      <trkpt lat="46.00904" lon="5.53225">
        <ele>832.6</ele>
        <time>2026-05-09T15:00:53Z</time>
      </trkpt>
      <trkpt lat="46.00902" lon="5.53228">
        <ele>832.6</ele>
        <time>2026-05-09T15:00:54Z</time>
      </trkpt>
      <trkpt lat="46.009" lon="5.53231">
        <ele>832.6</ele>
        <time>2026-05-09T15:00:55Z</time>
      </trkpt>
      <trkpt lat="46.00898" lon="5.53235">
        <ele>832.6</ele>
        <time>2026-05-09T15:00:56Z</time>
      </trkpt>
      <trkpt lat="46.00898" lon="5.53235">
        <ele>832.6</ele>
        <time>2026-05-09T15:00:57Z</time>
      </trkpt>
      <trkpt lat="46.00898" lon="5.53235">
        <ele>833</ele>
        <time>2026-05-09T15:00:58Z</time>
      </trkpt>
      <trkpt lat="46.00898" lon="5.53235">
        <ele>833</ele>
        <time>2026-05-09T15:00:59Z</time>
      </trkpt>
      <trkpt lat="46.00892" lon="5.53244">
        <ele>832.6</ele>
        <time>2026-05-09T15:01:00Z</time>
      </trkpt>
      <trkpt lat="46.0089" lon="5.53247">
        <ele>832.6</ele>
        <time>2026-05-09T15:01:01Z</time>
      </trkpt>
      <trkpt lat="46.00888" lon="5.53251">
        <ele>832.2</ele>
        <time>2026-05-09T15:01:02Z</time>
      </trkpt>
      <trkpt lat="46.00886" lon="5.53254">
        <ele>832.2</ele>
        <time>2026-05-09T15:01:03Z</time>
      </trkpt>
      <trkpt lat="46.00884" lon="5.53257">
        <ele>832.4</ele>
        <time>2026-05-09T15:01:04Z</time>
      </trkpt>
      <trkpt lat="46.00882" lon="5.53261">
        <ele>832.4</ele>
        <time>2026-05-09T15:01:05Z</time>
      </trkpt>
      <trkpt lat="46.0088" lon="5.53264">
        <ele>832.6</ele>
        <time>2026-05-09T15:01:06Z</time>
      </trkpt>
      <trkpt lat="46.00878" lon="5.53267">
        <ele>832.6</ele>
        <time>2026-05-09T15:01:07Z</time>
      </trkpt>
      <trkpt lat="46.00876" lon="5.5327">
        <ele>832.6</ele>
        <time>2026-05-09T15:01:08Z</time>
      </trkpt>
      <trkpt lat="46.00874" lon="5.53274">
        <ele>833</ele>
        <time>2026-05-09T15:01:09Z</time>
      </trkpt>
      <trkpt lat="46.00872" lon="5.53277">
        <ele>833</ele>
        <time>2026-05-09T15:01:10Z</time>
      </trkpt>
      <trkpt lat="46.00871" lon="5.5328">
        <ele>833</ele>
        <time>2026-05-09T15:01:11Z</time>
      </trkpt>
      <trkpt lat="46.00869" lon="5.53283">
        <ele>833.2</ele>
        <time>2026-05-09T15:01:12Z</time>
      </trkpt>
      <trkpt lat="46.00867" lon="5.53286">
        <ele>833.2</ele>
        <time>2026-05-09T15:01:13Z</time>
      </trkpt>
      <trkpt lat="46.00865" lon="5.53289">
        <ele>833.6</ele>
        <time>2026-05-09T15:01:14Z</time>
      </trkpt>
      <trkpt lat="46.00863" lon="5.53292">
        <ele>833.6</ele>
        <time>2026-05-09T15:01:15Z</time>
      </trkpt>
      <trkpt lat="46.00861" lon="5.53295">
        <ele>833.6</ele>
        <time>2026-05-09T15:01:16Z</time>
      </trkpt>
      <trkpt lat="46.00859" lon="5.53298">
        <ele>833.8</ele>
        <time>2026-05-09T15:01:17Z</time>
      </trkpt>
      <trkpt lat="46.00858" lon="5.53301">
        <ele>833.8</ele>
        <time>2026-05-09T15:01:18Z</time>
      </trkpt>
      <trkpt lat="46.00856" lon="5.53304">
        <ele>833.8</ele>
        <time>2026-05-09T15:01:19Z</time>
      </trkpt>
      <trkpt lat="46.00854" lon="5.53306">
        <ele>833.8</ele>
        <time>2026-05-09T15:01:20Z</time>
      </trkpt>
      <trkpt lat="46.00852" lon="5.53309">
        <ele>834</ele>
        <time>2026-05-09T15:01:21Z</time>
      </trkpt>
      <trkpt lat="46.00851" lon="5.53312">
        <ele>834</ele>
        <time>2026-05-09T15:01:22Z</time>
      </trkpt>
      <trkpt lat="46.00849" lon="5.53314">
        <ele>834.2</ele>
        <time>2026-05-09T15:01:23Z</time>
      </trkpt>
      <trkpt lat="46.00848" lon="5.53317">
        <ele>834.6</ele>
        <time>2026-05-09T15:01:24Z</time>
      </trkpt>
      <trkpt lat="46.00846" lon="5.5332">
        <ele>834.6</ele>
        <time>2026-05-09T15:01:25Z</time>
      </trkpt>
      <trkpt lat="46.00844" lon="5.53322">
        <ele>834.6</ele>
        <time>2026-05-09T15:01:26Z</time>
      </trkpt>
      <trkpt lat="46.00843" lon="5.53325">
        <ele>834.6</ele>
        <time>2026-05-09T15:01:27Z</time>
      </trkpt>
      <trkpt lat="46.00841" lon="5.53327">
        <ele>834.8</ele>
        <time>2026-05-09T15:01:28Z</time>
      </trkpt>
      <trkpt lat="46.00839" lon="5.5333">
        <ele>834.8</ele>
        <time>2026-05-09T15:01:29Z</time>
      </trkpt>
      <trkpt lat="46.00837" lon="5.53333">
        <ele>834.8</ele>
        <time>2026-05-09T15:01:30Z</time>
      </trkpt>
      <trkpt lat="46.00835" lon="5.53336">
        <ele>835.2</ele>
        <time>2026-05-09T15:01:31Z</time>
      </trkpt>
      <trkpt lat="46.00834" lon="5.53338">
        <ele>835.2</ele>
        <time>2026-05-09T15:01:32Z</time>
      </trkpt>
      <trkpt lat="46.00832" lon="5.53341">
        <ele>835.2</ele>
        <time>2026-05-09T15:01:33Z</time>
      </trkpt>
      <trkpt lat="46.00831" lon="5.53344">
        <ele>835.4</ele>
        <time>2026-05-09T15:01:34Z</time>
      </trkpt>
      <trkpt lat="46.00829" lon="5.53347">
        <ele>835.6</ele>
        <time>2026-05-09T15:01:35Z</time>
      </trkpt>
      <trkpt lat="46.00828" lon="5.53349">
        <ele>835.6</ele>
        <time>2026-05-09T15:01:36Z</time>
      </trkpt>
      <trkpt lat="46.00826" lon="5.53352">
        <ele>836</ele>
        <time>2026-05-09T15:01:37Z</time>
      </trkpt>
      <trkpt lat="46.00825" lon="5.53354">
        <ele>836</ele>
        <time>2026-05-09T15:01:38Z</time>
      </trkpt>
      <trkpt lat="46.00823" lon="5.53357">
        <ele>836</ele>
        <time>2026-05-09T15:01:39Z</time>
      </trkpt>
      <trkpt lat="46.00821" lon="5.53359">
        <ele>836.4</ele>
        <time>2026-05-09T15:01:40Z</time>
      </trkpt>
      <trkpt lat="46.0082" lon="5.53362">
        <ele>836.4</ele>
        <time>2026-05-09T15:01:41Z</time>
      </trkpt>
      <trkpt lat="46.00818" lon="5.53365">
        <ele>836.4</ele>
        <time>2026-05-09T15:01:42Z</time>
      </trkpt>
      <trkpt lat="46.00816" lon="5.53368">
        <ele>836.6</ele>
        <time>2026-05-09T15:01:43Z</time>
      </trkpt>
      <trkpt lat="46.00814" lon="5.5337">
        <ele>836.6</ele>
        <time>2026-05-09T15:01:44Z</time>
      </trkpt>
      <trkpt lat="46.00813" lon="5.53373">
        <ele>837</ele>
        <time>2026-05-09T15:01:45Z</time>
      </trkpt>
      <trkpt lat="46.00811" lon="5.53376">
        <ele>837.2</ele>
        <time>2026-05-09T15:01:46Z</time>
      </trkpt>
      <trkpt lat="46.0081" lon="5.53378">
        <ele>837.2</ele>
        <time>2026-05-09T15:01:47Z</time>
      </trkpt>
      <trkpt lat="46.00808" lon="5.53381">
        <ele>837.2</ele>
        <time>2026-05-09T15:01:48Z</time>
      </trkpt>
      <trkpt lat="46.00806" lon="5.53384">
        <ele>837.2</ele>
        <time>2026-05-09T15:01:49Z</time>
      </trkpt>
      <trkpt lat="46.00805" lon="5.53386">
        <ele>837.2</ele>
        <time>2026-05-09T15:01:50Z</time>
      </trkpt>
      <trkpt lat="46.00803" lon="5.53389">
        <ele>837.2</ele>
        <time>2026-05-09T15:01:51Z</time>
      </trkpt>
      <trkpt lat="46.00801" lon="5.53391">
        <ele>837.2</ele>
        <time>2026-05-09T15:01:52Z</time>
      </trkpt>
      <trkpt lat="46.008" lon="5.53393">
        <ele>837.2</ele>
        <time>2026-05-09T15:01:53Z</time>
      </trkpt>
      <trkpt lat="46.00799" lon="5.53395">
        <ele>837.4</ele>
        <time>2026-05-09T15:01:54Z</time>
      </trkpt>
      <trkpt lat="46.00797" lon="5.53397">
        <ele>837.4</ele>
        <time>2026-05-09T15:01:55Z</time>
      </trkpt>
      <trkpt lat="46.00795" lon="5.534">
        <ele>837.6</ele>
        <time>2026-05-09T15:01:56Z</time>
      </trkpt>
      <trkpt lat="46.00794" lon="5.53402">
        <ele>837.6</ele>
        <time>2026-05-09T15:01:57Z</time>
      </trkpt>
      <trkpt lat="46.00792" lon="5.53405">
        <ele>837.6</ele>
        <time>2026-05-09T15:01:58Z</time>
      </trkpt>
      <trkpt lat="46.0079" lon="5.53408">
        <ele>837.8</ele>
        <time>2026-05-09T15:01:59Z</time>
      </trkpt>
      <trkpt lat="46.00789" lon="5.53411">
        <ele>837.8</ele>
        <time>2026-05-09T15:02:00Z</time>
      </trkpt>
      <trkpt lat="46.00787" lon="5.53414">
        <ele>837.8</ele>
        <time>2026-05-09T15:02:01Z</time>
      </trkpt>
      <trkpt lat="46.00786" lon="5.53416">
        <ele>838.2</ele>
        <time>2026-05-09T15:02:02Z</time>
      </trkpt>
      <trkpt lat="46.00784" lon="5.53419">
        <ele>838.4</ele>
        <time>2026-05-09T15:02:03Z</time>
      </trkpt>
      <trkpt lat="46.00783" lon="5.53421">
        <ele>838.4</ele>
        <time>2026-05-09T15:02:04Z</time>
      </trkpt>
      <trkpt lat="46.00781" lon="5.53423">
        <ele>838.6</ele>
        <time>2026-05-09T15:02:05Z</time>
      </trkpt>
      <trkpt lat="46.0078" lon="5.53425">
        <ele>838.8</ele>
        <time>2026-05-09T15:02:06Z</time>
      </trkpt>
      <trkpt lat="46.00778" lon="5.53428">
        <ele>838.8</ele>
        <time>2026-05-09T15:02:07Z</time>
      </trkpt>
      <trkpt lat="46.00777" lon="5.53429">
        <ele>838.8</ele>
        <time>2026-05-09T15:02:08Z</time>
      </trkpt>
      <trkpt lat="46.00775" lon="5.53431">
        <ele>838.8</ele>
        <time>2026-05-09T15:02:09Z</time>
      </trkpt>
      <trkpt lat="46.00774" lon="5.53434">
        <ele>839.2</ele>
        <time>2026-05-09T15:02:10Z</time>
      </trkpt>
      <trkpt lat="46.00772" lon="5.53437">
        <ele>839.4</ele>
        <time>2026-05-09T15:02:11Z</time>
      </trkpt>
      <trkpt lat="46.0077" lon="5.5344">
        <ele>839.4</ele>
        <time>2026-05-09T15:02:12Z</time>
      </trkpt>
      <trkpt lat="46.00768" lon="5.53443">
        <ele>839.4</ele>
        <time>2026-05-09T15:02:13Z</time>
      </trkpt>
      <trkpt lat="46.00767" lon="5.53446">
        <ele>839.8</ele>
        <time>2026-05-09T15:02:14Z</time>
      </trkpt>
      <trkpt lat="46.00765" lon="5.53449">
        <ele>839.8</ele>
        <time>2026-05-09T15:02:15Z</time>
      </trkpt>
      <trkpt lat="46.00761" lon="5.53454">
        <ele>840</ele>
        <time>2026-05-09T15:02:16Z</time>
      </trkpt>
      <trkpt lat="46.0076" lon="5.53457">
        <ele>840</ele>
        <time>2026-05-09T15:02:17Z</time>
      </trkpt>
      <trkpt lat="46.00758" lon="5.5346">
        <ele>840</ele>
        <time>2026-05-09T15:02:18Z</time>
      </trkpt>
      <trkpt lat="46.00756" lon="5.53462">
        <ele>840.2</ele>
        <time>2026-05-09T15:02:19Z</time>
      </trkpt>
      <trkpt lat="46.00754" lon="5.53465">
        <ele>840.6</ele>
        <time>2026-05-09T15:02:20Z</time>
      </trkpt>
      <trkpt lat="46.00753" lon="5.53468">
        <ele>840.6</ele>
        <time>2026-05-09T15:02:21Z</time>
      </trkpt>
      <trkpt lat="46.00751" lon="5.53471">
        <ele>840.6</ele>
        <time>2026-05-09T15:02:22Z</time>
      </trkpt>
      <trkpt lat="46.00749" lon="5.53474">
        <ele>840.8</ele>
        <time>2026-05-09T15:02:23Z</time>
      </trkpt>
      <trkpt lat="46.00748" lon="5.53477">
        <ele>840.8</ele>
        <time>2026-05-09T15:02:24Z</time>
      </trkpt>
      <trkpt lat="46.00746" lon="5.5348">
        <ele>840.8</ele>
        <time>2026-05-09T15:02:25Z</time>
      </trkpt>
      <trkpt lat="46.00744" lon="5.53483">
        <ele>840.8</ele>
        <time>2026-05-09T15:02:26Z</time>
      </trkpt>
      <trkpt lat="46.00743" lon="5.53486">
        <ele>840.8</ele>
        <time>2026-05-09T15:02:27Z</time>
      </trkpt>
      <trkpt lat="46.00741" lon="5.53488">
        <ele>840.8</ele>
        <time>2026-05-09T15:02:28Z</time>
      </trkpt>
      <trkpt lat="46.00739" lon="5.53491">
        <ele>840.8</ele>
        <time>2026-05-09T15:02:29Z</time>
      </trkpt>
      <trkpt lat="46.00738" lon="5.53494">
        <ele>841</ele>
        <time>2026-05-09T15:02:30Z</time>
      </trkpt>
      <trkpt lat="46.00736" lon="5.53497">
        <ele>841</ele>
        <time>2026-05-09T15:02:31Z</time>
      </trkpt>
      <trkpt lat="46.00735" lon="5.535">
        <ele>841.2</ele>
        <time>2026-05-09T15:02:32Z</time>
      </trkpt>
      <trkpt lat="46.00733" lon="5.53503">
        <ele>841.2</ele>
        <time>2026-05-09T15:02:33Z</time>
      </trkpt>
      <trkpt lat="46.00731" lon="5.53506">
        <ele>841.2</ele>
        <time>2026-05-09T15:02:34Z</time>
      </trkpt>
      <trkpt lat="46.00729" lon="5.53508">
        <ele>841.2</ele>
        <time>2026-05-09T15:02:35Z</time>
      </trkpt>
      <trkpt lat="46.00728" lon="5.53511">
        <ele>841.4</ele>
        <time>2026-05-09T15:02:36Z</time>
      </trkpt>
      <trkpt lat="46.00726" lon="5.53514">
        <ele>841.4</ele>
        <time>2026-05-09T15:02:37Z</time>
      </trkpt>
      <trkpt lat="46.00724" lon="5.53517">
        <ele>841.8</ele>
        <time>2026-05-09T15:02:38Z</time>
      </trkpt>
      <trkpt lat="46.00723" lon="5.5352">
        <ele>841.8</ele>
        <time>2026-05-09T15:02:39Z</time>
      </trkpt>
      <trkpt lat="46.00721" lon="5.53523">
        <ele>841.8</ele>
        <time>2026-05-09T15:02:40Z</time>
      </trkpt>
      <trkpt lat="46.00719" lon="5.53527">
        <ele>841.8</ele>
        <time>2026-05-09T15:02:41Z</time>
      </trkpt>
      <trkpt lat="46.00717" lon="5.5353">
        <ele>841.8</ele>
        <time>2026-05-09T15:02:42Z</time>
      </trkpt>
      <trkpt lat="46.00716" lon="5.53533">
        <ele>841.8</ele>
        <time>2026-05-09T15:02:43Z</time>
      </trkpt>
      <trkpt lat="46.00714" lon="5.53535">
        <ele>842.2</ele>
        <time>2026-05-09T15:02:44Z</time>
      </trkpt>
      <trkpt lat="46.00713" lon="5.53538">
        <ele>842.2</ele>
        <time>2026-05-09T15:02:45Z</time>
      </trkpt>
      <trkpt lat="46.00712" lon="5.5354">
        <ele>842.2</ele>
        <time>2026-05-09T15:02:46Z</time>
      </trkpt>
      <trkpt lat="46.0071" lon="5.53543">
        <ele>842.2</ele>
        <time>2026-05-09T15:02:47Z</time>
      </trkpt>
      <trkpt lat="46.00709" lon="5.53546">
        <ele>842.2</ele>
        <time>2026-05-09T15:02:48Z</time>
      </trkpt>
      <trkpt lat="46.00707" lon="5.53548">
        <ele>842.2</ele>
        <time>2026-05-09T15:02:49Z</time>
      </trkpt>
      <trkpt lat="46.00706" lon="5.53551">
        <ele>842.4</ele>
        <time>2026-05-09T15:02:50Z</time>
      </trkpt>
      <trkpt lat="46.00704" lon="5.53554">
        <ele>842.4</ele>
        <time>2026-05-09T15:02:51Z</time>
      </trkpt>
      <trkpt lat="46.00703" lon="5.53557">
        <ele>842.6</ele>
        <time>2026-05-09T15:02:52Z</time>
      </trkpt>
      <trkpt lat="46.00702" lon="5.53559">
        <ele>842.6</ele>
        <time>2026-05-09T15:02:53Z</time>
      </trkpt>
      <trkpt lat="46.007" lon="5.53562">
        <ele>843</ele>
        <time>2026-05-09T15:02:54Z</time>
      </trkpt>
      <trkpt lat="46.00699" lon="5.53564">
        <ele>843</ele>
        <time>2026-05-09T15:02:55Z</time>
      </trkpt>
      <trkpt lat="46.00697" lon="5.53567">
        <ele>843.2</ele>
        <time>2026-05-09T15:02:56Z</time>
      </trkpt>
      <trkpt lat="46.00695" lon="5.53569">
        <ele>843.2</ele>
        <time>2026-05-09T15:02:57Z</time>
      </trkpt>
      <trkpt lat="46.00694" lon="5.53572">
        <ele>843.4</ele>
        <time>2026-05-09T15:02:58Z</time>
      </trkpt>
      <trkpt lat="46.00692" lon="5.53575">
        <ele>843.4</ele>
        <time>2026-05-09T15:02:59Z</time>
      </trkpt>
      <trkpt lat="46.00691" lon="5.53578">
        <ele>843.8</ele>
        <time>2026-05-09T15:03:00Z</time>
      </trkpt>
      <trkpt lat="46.00689" lon="5.53581">
        <ele>843.8</ele>
        <time>2026-05-09T15:03:01Z</time>
      </trkpt>
      <trkpt lat="46.00688" lon="5.53583">
        <ele>844</ele>
        <time>2026-05-09T15:03:02Z</time>
      </trkpt>
      <trkpt lat="46.00686" lon="5.53586">
        <ele>844</ele>
        <time>2026-05-09T15:03:03Z</time>
      </trkpt>
      <trkpt lat="46.00685" lon="5.53588">
        <ele>844</ele>
        <time>2026-05-09T15:03:04Z</time>
      </trkpt>
      <trkpt lat="46.00683" lon="5.5359">
        <ele>844</ele>
        <time>2026-05-09T15:03:05Z</time>
      </trkpt>
      <trkpt lat="46.00682" lon="5.53593">
        <ele>844</ele>
        <time>2026-05-09T15:03:06Z</time>
      </trkpt>
      <trkpt lat="46.0068" lon="5.53595">
        <ele>844.2</ele>
        <time>2026-05-09T15:03:07Z</time>
      </trkpt>
      <trkpt lat="46.00679" lon="5.53597">
        <ele>844.2</ele>
        <time>2026-05-09T15:03:08Z</time>
      </trkpt>
      <trkpt lat="46.00677" lon="5.53599">
        <ele>844.6</ele>
        <time>2026-05-09T15:03:09Z</time>
      </trkpt>
      <trkpt lat="46.00676" lon="5.53601">
        <ele>844.6</ele>
        <time>2026-05-09T15:03:10Z</time>
      </trkpt>
      <trkpt lat="46.00674" lon="5.53604">
        <ele>844.6</ele>
        <time>2026-05-09T15:03:11Z</time>
      </trkpt>
      <trkpt lat="46.00672" lon="5.53606">
        <ele>844.6</ele>
        <time>2026-05-09T15:03:12Z</time>
      </trkpt>
      <trkpt lat="46.00671" lon="5.53608">
        <ele>844.6</ele>
        <time>2026-05-09T15:03:13Z</time>
      </trkpt>
      <trkpt lat="46.00669" lon="5.5361">
        <ele>844.6</ele>
        <time>2026-05-09T15:03:14Z</time>
      </trkpt>
      <trkpt lat="46.00667" lon="5.53613">
        <ele>844.8</ele>
        <time>2026-05-09T15:03:15Z</time>
      </trkpt>
      <trkpt lat="46.00665" lon="5.53615">
        <ele>844.8</ele>
        <time>2026-05-09T15:03:16Z</time>
      </trkpt>
      <trkpt lat="46.00663" lon="5.53617">
        <ele>844.8</ele>
        <time>2026-05-09T15:03:17Z</time>
      </trkpt>
      <trkpt lat="46.00661" lon="5.53619">
        <ele>844.8</ele>
        <time>2026-05-09T15:03:18Z</time>
      </trkpt>
      <trkpt lat="46.00659" lon="5.53621">
        <ele>845</ele>
        <time>2026-05-09T15:03:19Z</time>
      </trkpt>
      <trkpt lat="46.00656" lon="5.53623">
        <ele>845</ele>
        <time>2026-05-09T15:03:20Z</time>
      </trkpt>
      <trkpt lat="46.00654" lon="5.53624">
        <ele>845</ele>
        <time>2026-05-09T15:03:21Z</time>
      </trkpt>
      <trkpt lat="46.00652" lon="5.53625">
        <ele>845</ele>
        <time>2026-05-09T15:03:22Z</time>
      </trkpt>
      <trkpt lat="46.0065" lon="5.53627">
        <ele>845</ele>
        <time>2026-05-09T15:03:23Z</time>
      </trkpt>
      <trkpt lat="46.00647" lon="5.53629">
        <ele>845</ele>
        <time>2026-05-09T15:03:24Z</time>
      </trkpt>
      <trkpt lat="46.00645" lon="5.5363">
        <ele>845.2</ele>
        <time>2026-05-09T15:03:25Z</time>
      </trkpt>
      <trkpt lat="46.00642" lon="5.53632">
        <ele>845.2</ele>
        <time>2026-05-09T15:03:26Z</time>
      </trkpt>
      <trkpt lat="46.0064" lon="5.53632">
        <ele>845.2</ele>
        <time>2026-05-09T15:03:27Z</time>
      </trkpt>
      <trkpt lat="46.00637" lon="5.53633">
        <ele>845.6</ele>
        <time>2026-05-09T15:03:28Z</time>
      </trkpt>
      <trkpt lat="46.00634" lon="5.53635">
        <ele>845.6</ele>
        <time>2026-05-09T15:03:29Z</time>
      </trkpt>
      <trkpt lat="46.00631" lon="5.53636">
        <ele>845.6</ele>
        <time>2026-05-09T15:03:30Z</time>
      </trkpt>
      <trkpt lat="46.00629" lon="5.53637">
        <ele>845.6</ele>
        <time>2026-05-09T15:03:31Z</time>
      </trkpt>
      <trkpt lat="46.00626" lon="5.53637">
        <ele>845.8</ele>
        <time>2026-05-09T15:03:32Z</time>
      </trkpt>
      <trkpt lat="46.00623" lon="5.53638">
        <ele>845.8</ele>
        <time>2026-05-09T15:03:33Z</time>
      </trkpt>
      <trkpt lat="46.0062" lon="5.53638">
        <ele>845.8</ele>
        <time>2026-05-09T15:03:34Z</time>
      </trkpt>
      <trkpt lat="46.00617" lon="5.53638">
        <ele>846</ele>
        <time>2026-05-09T15:03:35Z</time>
      </trkpt>
      <trkpt lat="46.00613" lon="5.53639">
        <ele>846</ele>
        <time>2026-05-09T15:03:36Z</time>
      </trkpt>
      <trkpt lat="46.0061" lon="5.53639">
        <ele>846</ele>
        <time>2026-05-09T15:03:37Z</time>
      </trkpt>
      <trkpt lat="46.00607" lon="5.53639">
        <ele>846.4</ele>
        <time>2026-05-09T15:03:38Z</time>
      </trkpt>
      <trkpt lat="46.00604" lon="5.5364">
        <ele>846.4</ele>
        <time>2026-05-09T15:03:39Z</time>
      </trkpt>
      <trkpt lat="46.00601" lon="5.5364">
        <ele>846.4</ele>
        <time>2026-05-09T15:03:40Z</time>
      </trkpt>
      <trkpt lat="46.00598" lon="5.5364">
        <ele>846.4</ele>
        <time>2026-05-09T15:03:41Z</time>
      </trkpt>
      <trkpt lat="46.00595" lon="5.53639">
        <ele>846.4</ele>
        <time>2026-05-09T15:03:42Z</time>
      </trkpt>
      <trkpt lat="46.00592" lon="5.53639">
        <ele>846.4</ele>
        <time>2026-05-09T15:03:43Z</time>
      </trkpt>
      <trkpt lat="46.00589" lon="5.53639">
        <ele>846.4</ele>
        <time>2026-05-09T15:03:44Z</time>
      </trkpt>
      <trkpt lat="46.00586" lon="5.53639">
        <ele>846.4</ele>
        <time>2026-05-09T15:03:45Z</time>
      </trkpt>
      <trkpt lat="46.00583" lon="5.53639">
        <ele>846.4</ele>
        <time>2026-05-09T15:03:46Z</time>
      </trkpt>
      <trkpt lat="46.0058" lon="5.53639">
        <ele>846.4</ele>
        <time>2026-05-09T15:03:47Z</time>
      </trkpt>
      <trkpt lat="46.00577" lon="5.53639">
        <ele>846.6</ele>
        <time>2026-05-09T15:03:48Z</time>
      </trkpt>
      <trkpt lat="46.00575" lon="5.53638">
        <ele>846.6</ele>
        <time>2026-05-09T15:03:49Z</time>
      </trkpt>
      <trkpt lat="46.00572" lon="5.53638">
        <ele>846.6</ele>
        <time>2026-05-09T15:03:50Z</time>
      </trkpt>
      <trkpt lat="46.00568" lon="5.53637">
        <ele>846.6</ele>
        <time>2026-05-09T15:03:51Z</time>
      </trkpt>
      <trkpt lat="46.00565" lon="5.53637">
        <ele>846.6</ele>
        <time>2026-05-09T15:03:52Z</time>
      </trkpt>
      <trkpt lat="46.00562" lon="5.53638">
        <ele>846.6</ele>
        <time>2026-05-09T15:03:53Z</time>
      </trkpt>
      <trkpt lat="46.00559" lon="5.53638">
        <ele>846.6</ele>
        <time>2026-05-09T15:03:54Z</time>
      </trkpt>
      <trkpt lat="46.00556" lon="5.53639">
        <ele>846.6</ele>
        <time>2026-05-09T15:03:55Z</time>
      </trkpt>
      <trkpt lat="46.00552" lon="5.53639">
        <ele>846.8</ele>
        <time>2026-05-09T15:03:56Z</time>
      </trkpt>
      <trkpt lat="46.00549" lon="5.53639">
        <ele>846.8</ele>
        <time>2026-05-09T15:03:57Z</time>
      </trkpt>
      <trkpt lat="46.00546" lon="5.5364">
        <ele>846.8</ele>
        <time>2026-05-09T15:03:58Z</time>
      </trkpt>
      <trkpt lat="46.00542" lon="5.5364">
        <ele>847.2</ele>
        <time>2026-05-09T15:03:59Z</time>
      </trkpt>
      <trkpt lat="46.00539" lon="5.5364">
        <ele>847.2</ele>
        <time>2026-05-09T15:04:00Z</time>
      </trkpt>
      <trkpt lat="46.00536" lon="5.53641">
        <ele>847.2</ele>
        <time>2026-05-09T15:04:01Z</time>
      </trkpt>
      <trkpt lat="46.00533" lon="5.53641">
        <ele>847.2</ele>
        <time>2026-05-09T15:04:02Z</time>
      </trkpt>
      <trkpt lat="46.0053" lon="5.53641">
        <ele>847.2</ele>
        <time>2026-05-09T15:04:03Z</time>
      </trkpt>
      <trkpt lat="46.00527" lon="5.53642">
        <ele>847.2</ele>
        <time>2026-05-09T15:04:04Z</time>
      </trkpt>
      <trkpt lat="46.00527" lon="5.53642">
        <ele>847.2</ele>
        <time>2026-05-09T15:04:05Z</time>
      </trkpt>
      <trkpt lat="46.00523" lon="5.53642">
        <ele>847.2</ele>
        <time>2026-05-09T15:04:06Z</time>
      </trkpt>
      <trkpt lat="46.0052" lon="5.53643">
        <ele>847.4</ele>
        <time>2026-05-09T15:04:07Z</time>
      </trkpt>
      <trkpt lat="46.00517" lon="5.53643">
        <ele>847.6</ele>
        <time>2026-05-09T15:04:08Z</time>
      </trkpt>
      <trkpt lat="46.00514" lon="5.53644">
        <ele>847.6</ele>
        <time>2026-05-09T15:04:09Z</time>
      </trkpt>
      <trkpt lat="46.0051" lon="5.53645">
        <ele>847.6</ele>
        <time>2026-05-09T15:04:10Z</time>
      </trkpt>
      <trkpt lat="46.00506" lon="5.53646">
        <ele>847.6</ele>
        <time>2026-05-09T15:04:11Z</time>
      </trkpt>
      <trkpt lat="46.00503" lon="5.53647">
        <ele>847.6</ele>
        <time>2026-05-09T15:04:12Z</time>
      </trkpt>
      <trkpt lat="46.00499" lon="5.53648">
        <ele>847.6</ele>
        <time>2026-05-09T15:04:13Z</time>
      </trkpt>
      <trkpt lat="46.00495" lon="5.5365">
        <ele>847.6</ele>
        <time>2026-05-09T15:04:14Z</time>
      </trkpt>
      <trkpt lat="46.00492" lon="5.53651">
        <ele>847.6</ele>
        <time>2026-05-09T15:04:15Z</time>
      </trkpt>
      <trkpt lat="46.00488" lon="5.53653">
        <ele>847.6</ele>
        <time>2026-05-09T15:04:16Z</time>
      </trkpt>
      <trkpt lat="46.00485" lon="5.53654">
        <ele>847.6</ele>
        <time>2026-05-09T15:04:17Z</time>
      </trkpt>
      <trkpt lat="46.00481" lon="5.53655">
        <ele>847.6</ele>
        <time>2026-05-09T15:04:18Z</time>
      </trkpt>
      <trkpt lat="46.00478" lon="5.53657">
        <ele>847.6</ele>
        <time>2026-05-09T15:04:19Z</time>
      </trkpt>
      <trkpt lat="46.00475" lon="5.53658">
        <ele>847.6</ele>
        <time>2026-05-09T15:04:20Z</time>
      </trkpt>
      <trkpt lat="46.00471" lon="5.53659">
        <ele>847.6</ele>
        <time>2026-05-09T15:04:21Z</time>
      </trkpt>
      <trkpt lat="46.00467" lon="5.53661">
        <ele>847.6</ele>
        <time>2026-05-09T15:04:22Z</time>
      </trkpt>
      <trkpt lat="46.00464" lon="5.53663">
        <ele>847.6</ele>
        <time>2026-05-09T15:04:23Z</time>
      </trkpt>
      <trkpt lat="46.0046" lon="5.53665">
        <ele>847.6</ele>
        <time>2026-05-09T15:04:24Z</time>
      </trkpt>
      <trkpt lat="46.00456" lon="5.53668">
        <ele>847.6</ele>
        <time>2026-05-09T15:04:25Z</time>
      </trkpt>
      <trkpt lat="46.00452" lon="5.53671">
        <ele>847.6</ele>
        <time>2026-05-09T15:04:26Z</time>
      </trkpt>
      <trkpt lat="46.00449" lon="5.53674">
        <ele>848</ele>
        <time>2026-05-09T15:04:27Z</time>
      </trkpt>
      <trkpt lat="46.00445" lon="5.53676">
        <ele>848</ele>
        <time>2026-05-09T15:04:28Z</time>
      </trkpt>
      <trkpt lat="46.00442" lon="5.53679">
        <ele>848</ele>
        <time>2026-05-09T15:04:29Z</time>
      </trkpt>
      <trkpt lat="46.00438" lon="5.53682">
        <ele>848</ele>
        <time>2026-05-09T15:04:30Z</time>
      </trkpt>
      <trkpt lat="46.00434" lon="5.53686">
        <ele>848</ele>
        <time>2026-05-09T15:04:31Z</time>
      </trkpt>
      <trkpt lat="46.00431" lon="5.53689">
        <ele>848</ele>
        <time>2026-05-09T15:04:32Z</time>
      </trkpt>
      <trkpt lat="46.00427" lon="5.53693">
        <ele>848</ele>
        <time>2026-05-09T15:04:33Z</time>
      </trkpt>
      <trkpt lat="46.00424" lon="5.53696">
        <ele>848</ele>
        <time>2026-05-09T15:04:34Z</time>
      </trkpt>
      <trkpt lat="46.0042" lon="5.537">
        <ele>848</ele>
        <time>2026-05-09T15:04:35Z</time>
      </trkpt>
      <trkpt lat="46.00417" lon="5.53703">
        <ele>848</ele>
        <time>2026-05-09T15:04:36Z</time>
      </trkpt>
      <trkpt lat="46.00413" lon="5.53706">
        <ele>848</ele>
        <time>2026-05-09T15:04:37Z</time>
      </trkpt>
      <trkpt lat="46.00409" lon="5.5371">
        <ele>848</ele>
        <time>2026-05-09T15:04:38Z</time>
      </trkpt>
      <trkpt lat="46.00405" lon="5.53713">
        <ele>848</ele>
        <time>2026-05-09T15:04:39Z</time>
      </trkpt>
      <trkpt lat="46.00401" lon="5.53717">
        <ele>848</ele>
        <time>2026-05-09T15:04:40Z</time>
      </trkpt>
      <trkpt lat="46.00397" lon="5.5372">
        <ele>848</ele>
        <time>2026-05-09T15:04:41Z</time>
      </trkpt>
      <trkpt lat="46.00392" lon="5.53724">
        <ele>848</ele>
        <time>2026-05-09T15:04:42Z</time>
      </trkpt>
      <trkpt lat="46.00388" lon="5.53729">
        <ele>848</ele>
        <time>2026-05-09T15:04:43Z</time>
      </trkpt>
      <trkpt lat="46.00383" lon="5.53732">
        <ele>848</ele>
        <time>2026-05-09T15:04:44Z</time>
      </trkpt>
      <trkpt lat="46.00379" lon="5.53736">
        <ele>848</ele>
        <time>2026-05-09T15:04:45Z</time>
      </trkpt>
      <trkpt lat="46.00374" lon="5.5374">
        <ele>847.6</ele>
        <time>2026-05-09T15:04:46Z</time>
      </trkpt>
      <trkpt lat="46.00368" lon="5.53744">
        <ele>847.6</ele>
        <time>2026-05-09T15:04:47Z</time>
      </trkpt>
      <trkpt lat="46.00363" lon="5.53749">
        <ele>847.4</ele>
        <time>2026-05-09T15:04:48Z</time>
      </trkpt>
      <trkpt lat="46.00358" lon="5.53753">
        <ele>847.4</ele>
        <time>2026-05-09T15:04:49Z</time>
      </trkpt>
      <trkpt lat="46.00353" lon="5.53758">
        <ele>847.2</ele>
        <time>2026-05-09T15:04:50Z</time>
      </trkpt>
      <trkpt lat="46.00347" lon="5.53763">
        <ele>847.2</ele>
        <time>2026-05-09T15:04:51Z</time>
      </trkpt>
      <trkpt lat="46.00342" lon="5.53769">
        <ele>846.8</ele>
        <time>2026-05-09T15:04:52Z</time>
      </trkpt>
      <trkpt lat="46.00336" lon="5.53775">
        <ele>846.8</ele>
        <time>2026-05-09T15:04:53Z</time>
      </trkpt>
      <trkpt lat="46.0033" lon="5.53781">
        <ele>846.4</ele>
        <time>2026-05-09T15:04:54Z</time>
      </trkpt>
      <trkpt lat="46.00325" lon="5.53788">
        <ele>846</ele>
        <time>2026-05-09T15:04:55Z</time>
      </trkpt>
      <trkpt lat="46.00319" lon="5.53795">
        <ele>845.6</ele>
        <time>2026-05-09T15:04:56Z</time>
      </trkpt>
      <trkpt lat="46.00312" lon="5.53802">
        <ele>845.4</ele>
        <time>2026-05-09T15:04:57Z</time>
      </trkpt>
      <trkpt lat="46.00306" lon="5.53809">
        <ele>844.8</ele>
        <time>2026-05-09T15:04:58Z</time>
      </trkpt>
      <trkpt lat="46.003" lon="5.53816">
        <ele>844.2</ele>
        <time>2026-05-09T15:04:59Z</time>
      </trkpt>
      <trkpt lat="46.00293" lon="5.53824">
        <ele>844.2</ele>
        <time>2026-05-09T15:05:00Z</time>
      </trkpt>
      <trkpt lat="46.00287" lon="5.53832">
        <ele>844</ele>
        <time>2026-05-09T15:05:01Z</time>
      </trkpt>
      <trkpt lat="46.0028" lon="5.53839">
        <ele>844</ele>
        <time>2026-05-09T15:05:02Z</time>
      </trkpt>
      <trkpt lat="46.00274" lon="5.53846">
        <ele>844</ele>
        <time>2026-05-09T15:05:03Z</time>
      </trkpt>
      <trkpt lat="46.00268" lon="5.53853">
        <ele>843.6</ele>
        <time>2026-05-09T15:05:04Z</time>
      </trkpt>
      <trkpt lat="46.00261" lon="5.5386">
        <ele>843.6</ele>
        <time>2026-05-09T15:05:05Z</time>
      </trkpt>
      <trkpt lat="46.00255" lon="5.53866">
        <ele>843.4</ele>
        <time>2026-05-09T15:05:06Z</time>
      </trkpt>
      <trkpt lat="46.00249" lon="5.53873">
        <ele>843</ele>
        <time>2026-05-09T15:05:07Z</time>
      </trkpt>
      <trkpt lat="46.00243" lon="5.53879">
        <ele>843</ele>
        <time>2026-05-09T15:05:08Z</time>
      </trkpt>
      <trkpt lat="46.00238" lon="5.53886">
        <ele>843</ele>
        <time>2026-05-09T15:05:09Z</time>
      </trkpt>
      <trkpt lat="46.00231" lon="5.53891">
        <ele>843</ele>
        <time>2026-05-09T15:05:10Z</time>
      </trkpt>
      <trkpt lat="46.00226" lon="5.53897">
        <ele>842.8</ele>
        <time>2026-05-09T15:05:11Z</time>
      </trkpt>
      <trkpt lat="46.0022" lon="5.53904">
        <ele>842.8</ele>
        <time>2026-05-09T15:05:12Z</time>
      </trkpt>
      <trkpt lat="46.00214" lon="5.5391">
        <ele>842.8</ele>
        <time>2026-05-09T15:05:13Z</time>
      </trkpt>
      <trkpt lat="46.00208" lon="5.53916">
        <ele>842.8</ele>
        <time>2026-05-09T15:05:14Z</time>
      </trkpt>
      <trkpt lat="46.00203" lon="5.53921">
        <ele>842.8</ele>
        <time>2026-05-09T15:05:15Z</time>
      </trkpt>
      <trkpt lat="46.00197" lon="5.53927">
        <ele>842.8</ele>
        <time>2026-05-09T15:05:16Z</time>
      </trkpt>
      <trkpt lat="46.00191" lon="5.53934">
        <ele>842.8</ele>
        <time>2026-05-09T15:05:17Z</time>
      </trkpt>
      <trkpt lat="46.00185" lon="5.53939">
        <ele>842.8</ele>
        <time>2026-05-09T15:05:18Z</time>
      </trkpt>
      <trkpt lat="46.00179" lon="5.53945">
        <ele>842.8</ele>
        <time>2026-05-09T15:05:19Z</time>
      </trkpt>
      <trkpt lat="46.00174" lon="5.5395">
        <ele>842.8</ele>
        <time>2026-05-09T15:05:20Z</time>
      </trkpt>
      <trkpt lat="46.00168" lon="5.53956">
        <ele>842.8</ele>
        <time>2026-05-09T15:05:21Z</time>
      </trkpt>
      <trkpt lat="46.00162" lon="5.53962">
        <ele>842.8</ele>
        <time>2026-05-09T15:05:22Z</time>
      </trkpt>
      <trkpt lat="46.00157" lon="5.53967">
        <ele>842.4</ele>
        <time>2026-05-09T15:05:23Z</time>
      </trkpt>
      <trkpt lat="46.00146" lon="5.53979">
        <ele>842.4</ele>
        <time>2026-05-09T15:05:24Z</time>
      </trkpt>
      <trkpt lat="46.00141" lon="5.53984">
        <ele>842.8</ele>
        <time>2026-05-09T15:05:25Z</time>
      </trkpt>
      <trkpt lat="46.00135" lon="5.53988">
        <ele>842.8</ele>
        <time>2026-05-09T15:05:26Z</time>
      </trkpt>
      <trkpt lat="46.00129" lon="5.53994">
        <ele>843</ele>
        <time>2026-05-09T15:05:27Z</time>
      </trkpt>
      <trkpt lat="46.00124" lon="5.53998">
        <ele>843</ele>
        <time>2026-05-09T15:05:28Z</time>
      </trkpt>
      <trkpt lat="46.00118" lon="5.54003">
        <ele>843</ele>
        <time>2026-05-09T15:05:29Z</time>
      </trkpt>
      <trkpt lat="46.00112" lon="5.54009">
        <ele>843</ele>
        <time>2026-05-09T15:05:30Z</time>
      </trkpt>
      <trkpt lat="46.00106" lon="5.54013">
        <ele>843.2</ele>
        <time>2026-05-09T15:05:31Z</time>
      </trkpt>
      <trkpt lat="46.00102" lon="5.54017">
        <ele>843.6</ele>
        <time>2026-05-09T15:05:32Z</time>
      </trkpt>
      <trkpt lat="46.00096" lon="5.54021">
        <ele>843.6</ele>
        <time>2026-05-09T15:05:33Z</time>
      </trkpt>
      <trkpt lat="46.00091" lon="5.54024">
        <ele>843.6</ele>
        <time>2026-05-09T15:05:34Z</time>
      </trkpt>
      <trkpt lat="46.00086" lon="5.54028">
        <ele>843.6</ele>
        <time>2026-05-09T15:05:35Z</time>
      </trkpt>
      <trkpt lat="46.00081" lon="5.54031">
        <ele>843.4</ele>
        <time>2026-05-09T15:05:36Z</time>
      </trkpt>
      <trkpt lat="46.00075" lon="5.54035">
        <ele>843.4</ele>
        <time>2026-05-09T15:05:37Z</time>
      </trkpt>
      <trkpt lat="46.0007" lon="5.54039">
        <ele>843.4</ele>
        <time>2026-05-09T15:05:38Z</time>
      </trkpt>
      <trkpt lat="46.00065" lon="5.54042">
        <ele>843.4</ele>
        <time>2026-05-09T15:05:39Z</time>
      </trkpt>
      <trkpt lat="46.0006" lon="5.54045">
        <ele>843.4</ele>
        <time>2026-05-09T15:05:40Z</time>
      </trkpt>
      <trkpt lat="46.00055" lon="5.54048">
        <ele>843.4</ele>
        <time>2026-05-09T15:05:41Z</time>
      </trkpt>
      <trkpt lat="46.0005" lon="5.54051">
        <ele>843.4</ele>
        <time>2026-05-09T15:05:42Z</time>
      </trkpt>
      <trkpt lat="46.00045" lon="5.54054">
        <ele>843.4</ele>
        <time>2026-05-09T15:05:43Z</time>
      </trkpt>
      <trkpt lat="46.00041" lon="5.54057">
        <ele>843.4</ele>
        <time>2026-05-09T15:05:44Z</time>
      </trkpt>
      <trkpt lat="46.00036" lon="5.54059">
        <ele>843.4</ele>
        <time>2026-05-09T15:05:45Z</time>
      </trkpt>
      <trkpt lat="46.00032" lon="5.54062">
        <ele>843.6</ele>
        <time>2026-05-09T15:05:46Z</time>
      </trkpt>
      <trkpt lat="46.00028" lon="5.54064">
        <ele>843.6</ele>
        <time>2026-05-09T15:05:47Z</time>
      </trkpt>
      <trkpt lat="46.00024" lon="5.54067">
        <ele>843.6</ele>
        <time>2026-05-09T15:05:48Z</time>
      </trkpt>
      <trkpt lat="46.00019" lon="5.5407">
        <ele>843.6</ele>
        <time>2026-05-09T15:05:49Z</time>
      </trkpt>
      <trkpt lat="46.00014" lon="5.54073">
        <ele>844</ele>
        <time>2026-05-09T15:05:50Z</time>
      </trkpt>
      <trkpt lat="46.0001" lon="5.54076">
        <ele>844</ele>
        <time>2026-05-09T15:05:51Z</time>
      </trkpt>
      <trkpt lat="46.00005" lon="5.54079">
        <ele>844</ele>
        <time>2026-05-09T15:05:52Z</time>
      </trkpt>
      <trkpt lat="46.00001" lon="5.54081">
        <ele>844</ele>
        <time>2026-05-09T15:05:53Z</time>
      </trkpt>
      <trkpt lat="45.99997" lon="5.54083">
        <ele>844</ele>
        <time>2026-05-09T15:05:54Z</time>
      </trkpt>
      <trkpt lat="45.99993" lon="5.54085">
        <ele>844.4</ele>
        <time>2026-05-09T15:05:55Z</time>
      </trkpt>
      <trkpt lat="45.99989" lon="5.54088">
        <ele>844.4</ele>
        <time>2026-05-09T15:05:56Z</time>
      </trkpt>
      <trkpt lat="45.99985" lon="5.5409">
        <ele>844.4</ele>
        <time>2026-05-09T15:05:57Z</time>
      </trkpt>
      <trkpt lat="45.9998" lon="5.54092">
        <ele>844.8</ele>
        <time>2026-05-09T15:05:58Z</time>
      </trkpt>
      <trkpt lat="45.99976" lon="5.54094">
        <ele>844.8</ele>
        <time>2026-05-09T15:05:59Z</time>
      </trkpt>
      <trkpt lat="45.99972" lon="5.54097">
        <ele>845</ele>
        <time>2026-05-09T15:06:00Z</time>
      </trkpt>
      <trkpt lat="45.99968" lon="5.541">
        <ele>845.2</ele>
        <time>2026-05-09T15:06:01Z</time>
      </trkpt>
      <trkpt lat="45.99963" lon="5.54102">
        <ele>845.2</ele>
        <time>2026-05-09T15:06:02Z</time>
      </trkpt>
      <trkpt lat="45.99959" lon="5.54104">
        <ele>845.2</ele>
        <time>2026-05-09T15:06:03Z</time>
      </trkpt>
      <trkpt lat="45.99954" lon="5.54107">
        <ele>845.2</ele>
        <time>2026-05-09T15:06:04Z</time>
      </trkpt>
      <trkpt lat="45.99951" lon="5.54109">
        <ele>845.2</ele>
        <time>2026-05-09T15:06:05Z</time>
      </trkpt>
      <trkpt lat="45.99946" lon="5.54111">
        <ele>845.2</ele>
        <time>2026-05-09T15:06:06Z</time>
      </trkpt>
      <trkpt lat="45.99942" lon="5.54115">
        <ele>845.2</ele>
        <time>2026-05-09T15:06:07Z</time>
      </trkpt>
      <trkpt lat="45.99938" lon="5.54117">
        <ele>845.2</ele>
        <time>2026-05-09T15:06:08Z</time>
      </trkpt>
      <trkpt lat="45.99933" lon="5.5412">
        <ele>845.4</ele>
        <time>2026-05-09T15:06:09Z</time>
      </trkpt>
      <trkpt lat="45.9993" lon="5.54122">
        <ele>845.4</ele>
        <time>2026-05-09T15:06:10Z</time>
      </trkpt>
      <trkpt lat="45.99926" lon="5.54124">
        <ele>845.4</ele>
        <time>2026-05-09T15:06:11Z</time>
      </trkpt>
      <trkpt lat="45.99922" lon="5.54125">
        <ele>845.4</ele>
        <time>2026-05-09T15:06:12Z</time>
      </trkpt>
      <trkpt lat="45.99919" lon="5.54126">
        <ele>845.4</ele>
        <time>2026-05-09T15:06:13Z</time>
      </trkpt>
      <trkpt lat="45.99915" lon="5.54128">
        <ele>845.8</ele>
        <time>2026-05-09T15:06:14Z</time>
      </trkpt>
      <trkpt lat="45.99912" lon="5.5413">
        <ele>845.8</ele>
        <time>2026-05-09T15:06:15Z</time>
      </trkpt>
      <trkpt lat="45.99908" lon="5.54132">
        <ele>845.8</ele>
        <time>2026-05-09T15:06:16Z</time>
      </trkpt>
      <trkpt lat="45.99904" lon="5.54135">
        <ele>845.8</ele>
        <time>2026-05-09T15:06:17Z</time>
      </trkpt>
      <trkpt lat="45.999" lon="5.54137">
        <ele>845.8</ele>
        <time>2026-05-09T15:06:18Z</time>
      </trkpt>
      <trkpt lat="45.99896" lon="5.54139">
        <ele>845.8</ele>
        <time>2026-05-09T15:06:19Z</time>
      </trkpt>
      <trkpt lat="45.99891" lon="5.54142">
        <ele>845.8</ele>
        <time>2026-05-09T15:06:20Z</time>
      </trkpt>
      <trkpt lat="45.99887" lon="5.54145">
        <ele>845.8</ele>
        <time>2026-05-09T15:06:21Z</time>
      </trkpt>
      <trkpt lat="45.99884" lon="5.54146">
        <ele>845.8</ele>
        <time>2026-05-09T15:06:22Z</time>
      </trkpt>
      <trkpt lat="45.99879" lon="5.54149">
        <ele>846.2</ele>
        <time>2026-05-09T15:06:23Z</time>
      </trkpt>
      <trkpt lat="45.99875" lon="5.54152">
        <ele>846.2</ele>
        <time>2026-05-09T15:06:24Z</time>
      </trkpt>
      <trkpt lat="45.9987" lon="5.54154">
        <ele>846.4</ele>
        <time>2026-05-09T15:06:25Z</time>
      </trkpt>
      <trkpt lat="45.99866" lon="5.54157">
        <ele>846.4</ele>
        <time>2026-05-09T15:06:26Z</time>
      </trkpt>
      <trkpt lat="45.99863" lon="5.54159">
        <ele>846.4</ele>
        <time>2026-05-09T15:06:27Z</time>
      </trkpt>
      <trkpt lat="45.99859" lon="5.54161">
        <ele>846.4</ele>
        <time>2026-05-09T15:06:28Z</time>
      </trkpt>
      <trkpt lat="45.99855" lon="5.54163">
        <ele>846.6</ele>
        <time>2026-05-09T15:06:29Z</time>
      </trkpt>
      <trkpt lat="45.99852" lon="5.54165">
        <ele>846.6</ele>
        <time>2026-05-09T15:06:30Z</time>
      </trkpt>
      <trkpt lat="45.99848" lon="5.54168">
        <ele>846.6</ele>
        <time>2026-05-09T15:06:31Z</time>
      </trkpt>
      <trkpt lat="45.99845" lon="5.5417">
        <ele>846.6</ele>
        <time>2026-05-09T15:06:32Z</time>
      </trkpt>
      <trkpt lat="45.99842" lon="5.54172">
        <ele>846.6</ele>
        <time>2026-05-09T15:06:33Z</time>
      </trkpt>
      <trkpt lat="45.99839" lon="5.54174">
        <ele>846.8</ele>
        <time>2026-05-09T15:06:34Z</time>
      </trkpt>
      <trkpt lat="45.99836" lon="5.54176">
        <ele>846.8</ele>
        <time>2026-05-09T15:06:35Z</time>
      </trkpt>
      <trkpt lat="45.99833" lon="5.54178">
        <ele>847.2</ele>
        <time>2026-05-09T15:06:36Z</time>
      </trkpt>
      <trkpt lat="45.9983" lon="5.5418">
        <ele>847.2</ele>
        <time>2026-05-09T15:06:37Z</time>
      </trkpt>
      <trkpt lat="45.99827" lon="5.54182">
        <ele>847.6</ele>
        <time>2026-05-09T15:06:38Z</time>
      </trkpt>
      <trkpt lat="45.99824" lon="5.54183">
        <ele>848</ele>
        <time>2026-05-09T15:06:39Z</time>
      </trkpt>
      <trkpt lat="45.99821" lon="5.54185">
        <ele>848</ele>
        <time>2026-05-09T15:06:40Z</time>
      </trkpt>
      <trkpt lat="45.99819" lon="5.54186">
        <ele>848</ele>
        <time>2026-05-09T15:06:41Z</time>
      </trkpt>
      <trkpt lat="45.99816" lon="5.54188">
        <ele>848</ele>
        <time>2026-05-09T15:06:42Z</time>
      </trkpt>
      <trkpt lat="45.99813" lon="5.5419">
        <ele>848</ele>
        <time>2026-05-09T15:06:43Z</time>
      </trkpt>
      <trkpt lat="45.9981" lon="5.54192">
        <ele>848.6</ele>
        <time>2026-05-09T15:06:44Z</time>
      </trkpt>
      <trkpt lat="45.99808" lon="5.54195">
        <ele>848.8</ele>
        <time>2026-05-09T15:06:45Z</time>
      </trkpt>
      <trkpt lat="45.99805" lon="5.54197">
        <ele>848.8</ele>
        <time>2026-05-09T15:06:46Z</time>
      </trkpt>
      <trkpt lat="45.99803" lon="5.54199">
        <ele>848.8</ele>
        <time>2026-05-09T15:06:47Z</time>
      </trkpt>
      <trkpt lat="45.99801" lon="5.54201">
        <ele>849</ele>
        <time>2026-05-09T15:06:48Z</time>
      </trkpt>
      <trkpt lat="45.99798" lon="5.54204">
        <ele>849.2</ele>
        <time>2026-05-09T15:06:49Z</time>
      </trkpt>
      <trkpt lat="45.99795" lon="5.54206">
        <ele>849.2</ele>
        <time>2026-05-09T15:06:50Z</time>
      </trkpt>
      <trkpt lat="45.99792" lon="5.54207">
        <ele>849.2</ele>
        <time>2026-05-09T15:06:51Z</time>
      </trkpt>
      <trkpt lat="45.9979" lon="5.54209">
        <ele>849.4</ele>
        <time>2026-05-09T15:06:52Z</time>
      </trkpt>
      <trkpt lat="45.99787" lon="5.54211">
        <ele>849.8</ele>
        <time>2026-05-09T15:06:53Z</time>
      </trkpt>
      <trkpt lat="45.99785" lon="5.54213">
        <ele>850</ele>
        <time>2026-05-09T15:06:54Z</time>
      </trkpt>
      <trkpt lat="45.99782" lon="5.54215">
        <ele>850</ele>
        <time>2026-05-09T15:06:55Z</time>
      </trkpt>
      <trkpt lat="45.9978" lon="5.54217">
        <ele>850</ele>
        <time>2026-05-09T15:06:56Z</time>
      </trkpt>
      <trkpt lat="45.99777" lon="5.54218">
        <ele>850.2</ele>
        <time>2026-05-09T15:06:57Z</time>
      </trkpt>
      <trkpt lat="45.99775" lon="5.54219">
        <ele>850.2</ele>
        <time>2026-05-09T15:06:58Z</time>
      </trkpt>
      <trkpt lat="45.99773" lon="5.54221">
        <ele>850.6</ele>
        <time>2026-05-09T15:06:59Z</time>
      </trkpt>
      <trkpt lat="45.99771" lon="5.54224">
        <ele>850.8</ele>
        <time>2026-05-09T15:07:00Z</time>
      </trkpt>
      <trkpt lat="45.99769" lon="5.54226">
        <ele>850.8</ele>
        <time>2026-05-09T15:07:01Z</time>
      </trkpt>
      <trkpt lat="45.99767" lon="5.54228">
        <ele>850.8</ele>
        <time>2026-05-09T15:07:02Z</time>
      </trkpt>
      <trkpt lat="45.99764" lon="5.54229">
        <ele>850.8</ele>
        <time>2026-05-09T15:07:03Z</time>
      </trkpt>
      <trkpt lat="45.99762" lon="5.54231">
        <ele>851</ele>
        <time>2026-05-09T15:07:04Z</time>
      </trkpt>
      <trkpt lat="45.9976" lon="5.54233">
        <ele>851</ele>
        <time>2026-05-09T15:07:05Z</time>
      </trkpt>
      <trkpt lat="45.99758" lon="5.54234">
        <ele>851.4</ele>
        <time>2026-05-09T15:07:06Z</time>
      </trkpt>
      <trkpt lat="45.99756" lon="5.54236">
        <ele>851.4</ele>
        <time>2026-05-09T15:07:07Z</time>
      </trkpt>
      <trkpt lat="45.99754" lon="5.54238">
        <ele>851.8</ele>
        <time>2026-05-09T15:07:08Z</time>
      </trkpt>
      <trkpt lat="45.99754" lon="5.54238">
        <ele>851.8</ele>
        <time>2026-05-09T15:07:09Z</time>
      </trkpt>
      <trkpt lat="45.99751" lon="5.5424">
        <ele>851.8</ele>
        <time>2026-05-09T15:07:10Z</time>
      </trkpt>
      <trkpt lat="45.99749" lon="5.54242">
        <ele>851.8</ele>
        <time>2026-05-09T15:07:11Z</time>
      </trkpt>
      <trkpt lat="45.99747" lon="5.54244">
        <ele>852.2</ele>
        <time>2026-05-09T15:07:12Z</time>
      </trkpt>
      <trkpt lat="45.99745" lon="5.54246">
        <ele>852.2</ele>
        <time>2026-05-09T15:07:13Z</time>
      </trkpt>
      <trkpt lat="45.99742" lon="5.54248">
        <ele>852.6</ele>
        <time>2026-05-09T15:07:14Z</time>
      </trkpt>
      <trkpt lat="45.9974" lon="5.5425">
        <ele>852.6</ele>
        <time>2026-05-09T15:07:15Z</time>
      </trkpt>
      <trkpt lat="45.99738" lon="5.54253">
        <ele>852.6</ele>
        <time>2026-05-09T15:07:16Z</time>
      </trkpt>
      <trkpt lat="45.99736" lon="5.54256">
        <ele>852.8</ele>
        <time>2026-05-09T15:07:17Z</time>
      </trkpt>
      <trkpt lat="45.99734" lon="5.54259">
        <ele>852.8</ele>
        <time>2026-05-09T15:07:18Z</time>
      </trkpt>
      <trkpt lat="45.99732" lon="5.54261">
        <ele>852.8</ele>
        <time>2026-05-09T15:07:19Z</time>
      </trkpt>
      <trkpt lat="45.9973" lon="5.54264">
        <ele>852.8</ele>
        <time>2026-05-09T15:07:20Z</time>
      </trkpt>
      <trkpt lat="45.99727" lon="5.54266">
        <ele>852.8</ele>
        <time>2026-05-09T15:07:21Z</time>
      </trkpt>
      <trkpt lat="45.99724" lon="5.54268">
        <ele>852.8</ele>
        <time>2026-05-09T15:07:22Z</time>
      </trkpt>
      <trkpt lat="45.9972" lon="5.5427">
        <ele>853</ele>
        <time>2026-05-09T15:07:23Z</time>
      </trkpt>
      <trkpt lat="45.99717" lon="5.54272">
        <ele>853</ele>
        <time>2026-05-09T15:07:24Z</time>
      </trkpt>
      <trkpt lat="45.99715" lon="5.54274">
        <ele>852.8</ele>
        <time>2026-05-09T15:07:25Z</time>
      </trkpt>
      <trkpt lat="45.99712" lon="5.54277">
        <ele>852.8</ele>
        <time>2026-05-09T15:07:26Z</time>
      </trkpt>
      <trkpt lat="45.99709" lon="5.5428">
        <ele>852.8</ele>
        <time>2026-05-09T15:07:27Z</time>
      </trkpt>
      <trkpt lat="45.99706" lon="5.54283">
        <ele>852.8</ele>
        <time>2026-05-09T15:07:28Z</time>
      </trkpt>
      <trkpt lat="45.99703" lon="5.54286">
        <ele>852.8</ele>
        <time>2026-05-09T15:07:29Z</time>
      </trkpt>
      <trkpt lat="45.997" lon="5.5429">
        <ele>852.8</ele>
        <time>2026-05-09T15:07:30Z</time>
      </trkpt>
      <trkpt lat="45.99697" lon="5.54294">
        <ele>853</ele>
        <time>2026-05-09T15:07:31Z</time>
      </trkpt>
      <trkpt lat="45.99694" lon="5.54298">
        <ele>853</ele>
        <time>2026-05-09T15:07:32Z</time>
      </trkpt>
      <trkpt lat="45.99691" lon="5.54302">
        <ele>853</ele>
        <time>2026-05-09T15:07:33Z</time>
      </trkpt>
      <trkpt lat="45.99687" lon="5.54307">
        <ele>853</ele>
        <time>2026-05-09T15:07:34Z</time>
      </trkpt>
      <trkpt lat="45.99683" lon="5.54312">
        <ele>852.8</ele>
        <time>2026-05-09T15:07:35Z</time>
      </trkpt>
      <trkpt lat="45.99681" lon="5.54319">
        <ele>852.6</ele>
        <time>2026-05-09T15:07:36Z</time>
      </trkpt>
      <trkpt lat="45.9968" lon="5.54327">
        <ele>852.4</ele>
        <time>2026-05-09T15:07:37Z</time>
      </trkpt>
      <trkpt lat="45.99676" lon="5.54334">
        <ele>852.4</ele>
        <time>2026-05-09T15:07:38Z</time>
      </trkpt>
      <trkpt lat="45.99676" lon="5.54343">
        <ele>852.4</ele>
        <time>2026-05-09T15:07:39Z</time>
      </trkpt>
      <trkpt lat="45.99672" lon="5.54349">
        <ele>852.4</ele>
        <time>2026-05-09T15:07:40Z</time>
      </trkpt>
      <trkpt lat="45.99669" lon="5.54355">
        <ele>852</ele>
        <time>2026-05-09T15:07:41Z</time>
      </trkpt>
      <trkpt lat="45.99668" lon="5.54363">
        <ele>852</ele>
        <time>2026-05-09T15:07:42Z</time>
      </trkpt>
      <trkpt lat="45.99666" lon="5.54371">
        <ele>852</ele>
        <time>2026-05-09T15:07:43Z</time>
      </trkpt>
      <trkpt lat="45.99662" lon="5.54377">
        <ele>851.8</ele>
        <time>2026-05-09T15:07:44Z</time>
      </trkpt>
      <trkpt lat="45.99658" lon="5.54383">
        <ele>851.6</ele>
        <time>2026-05-09T15:07:45Z</time>
      </trkpt>
      <trkpt lat="45.99655" lon="5.54389">
        <ele>851.2</ele>
        <time>2026-05-09T15:07:46Z</time>
      </trkpt>
      <trkpt lat="45.99651" lon="5.54395">
        <ele>851.2</ele>
        <time>2026-05-09T15:07:47Z</time>
      </trkpt>
      <trkpt lat="45.99646" lon="5.54401">
        <ele>851.2</ele>
        <time>2026-05-09T15:07:48Z</time>
      </trkpt>
      <trkpt lat="45.99643" lon="5.54408">
        <ele>851</ele>
        <time>2026-05-09T15:07:49Z</time>
      </trkpt>
      <trkpt lat="45.99639" lon="5.54414">
        <ele>851</ele>
        <time>2026-05-09T15:07:50Z</time>
      </trkpt>
      <trkpt lat="45.99634" lon="5.54421">
        <ele>851</ele>
        <time>2026-05-09T15:07:51Z</time>
      </trkpt>
      <trkpt lat="45.9963" lon="5.54429">
        <ele>851</ele>
        <time>2026-05-09T15:07:52Z</time>
      </trkpt>
      <trkpt lat="45.99626" lon="5.54435">
        <ele>851</ele>
        <time>2026-05-09T15:07:53Z</time>
      </trkpt>
      <trkpt lat="45.99622" lon="5.54444">
        <ele>851</ele>
        <time>2026-05-09T15:07:54Z</time>
      </trkpt>
      <trkpt lat="45.99618" lon="5.54451">
        <ele>850.6</ele>
        <time>2026-05-09T15:07:55Z</time>
      </trkpt>
      <trkpt lat="45.99613" lon="5.54458">
        <ele>850</ele>
        <time>2026-05-09T15:07:56Z</time>
      </trkpt>
      <trkpt lat="45.99609" lon="5.54467">
        <ele>850</ele>
        <time>2026-05-09T15:07:57Z</time>
      </trkpt>
      <trkpt lat="45.99607" lon="5.54476">
        <ele>849.6</ele>
        <time>2026-05-09T15:07:58Z</time>
      </trkpt>
      <trkpt lat="45.99603" lon="5.54484">
        <ele>849.4</ele>
        <time>2026-05-09T15:07:59Z</time>
      </trkpt>
      <trkpt lat="45.996" lon="5.54493">
        <ele>849.2</ele>
        <time>2026-05-09T15:08:00Z</time>
      </trkpt>
      <trkpt lat="45.99596" lon="5.54502">
        <ele>848.8</ele>
        <time>2026-05-09T15:08:01Z</time>
      </trkpt>
      <trkpt lat="45.99593" lon="5.54511">
        <ele>848.8</ele>
        <time>2026-05-09T15:08:02Z</time>
      </trkpt>
      <trkpt lat="45.99591" lon="5.54519">
        <ele>848.8</ele>
        <time>2026-05-09T15:08:03Z</time>
      </trkpt>
      <trkpt lat="45.99588" lon="5.54528">
        <ele>848.8</ele>
        <time>2026-05-09T15:08:04Z</time>
      </trkpt>
      <trkpt lat="45.99585" lon="5.54537">
        <ele>848.8</ele>
        <time>2026-05-09T15:08:05Z</time>
      </trkpt>
      <trkpt lat="45.99582" lon="5.54545">
        <ele>848.8</ele>
        <time>2026-05-09T15:08:06Z</time>
      </trkpt>
      <trkpt lat="45.9958" lon="5.54554">
        <ele>848.8</ele>
        <time>2026-05-09T15:08:07Z</time>
      </trkpt>
      <trkpt lat="45.99577" lon="5.54562">
        <ele>848.8</ele>
        <time>2026-05-09T15:08:08Z</time>
      </trkpt>
      <trkpt lat="45.99575" lon="5.5457">
        <ele>849.2</ele>
        <time>2026-05-09T15:08:09Z</time>
      </trkpt>
      <trkpt lat="45.99573" lon="5.54578">
        <ele>849.2</ele>
        <time>2026-05-09T15:08:10Z</time>
      </trkpt>
      <trkpt lat="45.9957" lon="5.54585">
        <ele>849.4</ele>
        <time>2026-05-09T15:08:11Z</time>
      </trkpt>
      <trkpt lat="45.99568" lon="5.54591">
        <ele>849.4</ele>
        <time>2026-05-09T15:08:12Z</time>
      </trkpt>
      <trkpt lat="45.99566" lon="5.54597">
        <ele>849.8</ele>
        <time>2026-05-09T15:08:13Z</time>
      </trkpt>
      <trkpt lat="45.99564" lon="5.54602">
        <ele>849.8</ele>
        <time>2026-05-09T15:08:14Z</time>
      </trkpt>
      <trkpt lat="45.99563" lon="5.54608">
        <ele>849.8</ele>
        <time>2026-05-09T15:08:15Z</time>
      </trkpt>
      <trkpt lat="45.99561" lon="5.54613">
        <ele>850.2</ele>
        <time>2026-05-09T15:08:16Z</time>
      </trkpt>
      <trkpt lat="45.99559" lon="5.54618">
        <ele>850.2</ele>
        <time>2026-05-09T15:08:17Z</time>
      </trkpt>
      <trkpt lat="45.99558" lon="5.54623">
        <ele>850.6</ele>
        <time>2026-05-09T15:08:18Z</time>
      </trkpt>
      <trkpt lat="45.99556" lon="5.54628">
        <ele>850.6</ele>
        <time>2026-05-09T15:08:19Z</time>
      </trkpt>
      <trkpt lat="45.99555" lon="5.54632">
        <ele>850.8</ele>
        <time>2026-05-09T15:08:20Z</time>
      </trkpt>
      <trkpt lat="45.99554" lon="5.54635">
        <ele>850.8</ele>
        <time>2026-05-09T15:08:21Z</time>
      </trkpt>
      <trkpt lat="45.99553" lon="5.54638">
        <ele>850.8</ele>
        <time>2026-05-09T15:08:22Z</time>
      </trkpt>
      <trkpt lat="45.99552" lon="5.54643">
        <ele>851.2</ele>
        <time>2026-05-09T15:08:23Z</time>
      </trkpt>
      <trkpt lat="45.99551" lon="5.54646">
        <ele>851.4</ele>
        <time>2026-05-09T15:08:24Z</time>
      </trkpt>
      <trkpt lat="45.9955" lon="5.5465">
        <ele>851.8</ele>
        <time>2026-05-09T15:08:25Z</time>
      </trkpt>
      <trkpt lat="45.99549" lon="5.54654">
        <ele>851.8</ele>
        <time>2026-05-09T15:08:26Z</time>
      </trkpt>
      <trkpt lat="45.99548" lon="5.54657">
        <ele>851.8</ele>
        <time>2026-05-09T15:08:27Z</time>
      </trkpt>
      <trkpt lat="45.99547" lon="5.5466">
        <ele>852</ele>
        <time>2026-05-09T15:08:28Z</time>
      </trkpt>
      <trkpt lat="45.99545" lon="5.54663">
        <ele>852</ele>
        <time>2026-05-09T15:08:29Z</time>
      </trkpt>
      <trkpt lat="45.99543" lon="5.54667">
        <ele>852.2</ele>
        <time>2026-05-09T15:08:30Z</time>
      </trkpt>
      <trkpt lat="45.99542" lon="5.5467">
        <ele>852.6</ele>
        <time>2026-05-09T15:08:31Z</time>
      </trkpt>
      <trkpt lat="45.99541" lon="5.54674">
        <ele>852.8</ele>
        <time>2026-05-09T15:08:32Z</time>
      </trkpt>
      <trkpt lat="45.9954" lon="5.54677">
        <ele>852.8</ele>
        <time>2026-05-09T15:08:33Z</time>
      </trkpt>
      <trkpt lat="45.99539" lon="5.54681">
        <ele>852.8</ele>
        <time>2026-05-09T15:08:34Z</time>
      </trkpt>
      <trkpt lat="45.99538" lon="5.54684">
        <ele>852.8</ele>
        <time>2026-05-09T15:08:35Z</time>
      </trkpt>
      <trkpt lat="45.99537" lon="5.54688">
        <ele>853.2</ele>
        <time>2026-05-09T15:08:36Z</time>
      </trkpt>
      <trkpt lat="45.99535" lon="5.54693">
        <ele>853.2</ele>
        <time>2026-05-09T15:08:37Z</time>
      </trkpt>
      <trkpt lat="45.99533" lon="5.54697">
        <ele>853.6</ele>
        <time>2026-05-09T15:08:38Z</time>
      </trkpt>
      <trkpt lat="45.99532" lon="5.547">
        <ele>853.6</ele>
        <time>2026-05-09T15:08:39Z</time>
      </trkpt>
      <trkpt lat="45.99531" lon="5.54703">
        <ele>853.8</ele>
        <time>2026-05-09T15:08:40Z</time>
      </trkpt>
      <trkpt lat="45.9953" lon="5.54706">
        <ele>853.8</ele>
        <time>2026-05-09T15:08:41Z</time>
      </trkpt>
      <trkpt lat="45.99529" lon="5.5471">
        <ele>853.8</ele>
        <time>2026-05-09T15:08:42Z</time>
      </trkpt>
      <trkpt lat="45.99528" lon="5.54713">
        <ele>854.2</ele>
        <time>2026-05-09T15:08:43Z</time>
      </trkpt>
      <trkpt lat="45.99526" lon="5.54716">
        <ele>854.2</ele>
        <time>2026-05-09T15:08:44Z</time>
      </trkpt>
      <trkpt lat="45.99526" lon="5.5472">
        <ele>854.2</ele>
        <time>2026-05-09T15:08:45Z</time>
      </trkpt>
      <trkpt lat="45.99525" lon="5.54724">
        <ele>854.4</ele>
        <time>2026-05-09T15:08:46Z</time>
      </trkpt>
      <trkpt lat="45.99524" lon="5.54727">
        <ele>854.4</ele>
        <time>2026-05-09T15:08:47Z</time>
      </trkpt>
      <trkpt lat="45.99524" lon="5.5473">
        <ele>854.4</ele>
        <time>2026-05-09T15:08:48Z</time>
      </trkpt>
      <trkpt lat="45.99523" lon="5.54733">
        <ele>854.8</ele>
        <time>2026-05-09T15:08:49Z</time>
      </trkpt>
      <trkpt lat="45.99521" lon="5.54735">
        <ele>854.8</ele>
        <time>2026-05-09T15:08:50Z</time>
      </trkpt>
      <trkpt lat="45.9952" lon="5.54738">
        <ele>854.8</ele>
        <time>2026-05-09T15:08:51Z</time>
      </trkpt>
      <trkpt lat="45.99519" lon="5.5474">
        <ele>855.2</ele>
        <time>2026-05-09T15:08:52Z</time>
      </trkpt>
      <trkpt lat="45.99518" lon="5.54743">
        <ele>855.2</ele>
        <time>2026-05-09T15:08:53Z</time>
      </trkpt>
      <trkpt lat="45.99517" lon="5.54745">
        <ele>855.4</ele>
        <time>2026-05-09T15:08:54Z</time>
      </trkpt>
      <trkpt lat="45.99516" lon="5.54748">
        <ele>855.4</ele>
        <time>2026-05-09T15:08:55Z</time>
      </trkpt>
      <trkpt lat="45.99514" lon="5.54751">
        <ele>855.6</ele>
        <time>2026-05-09T15:08:56Z</time>
      </trkpt>
      <trkpt lat="45.99512" lon="5.54754">
        <ele>855.6</ele>
        <time>2026-05-09T15:08:57Z</time>
      </trkpt>
      <trkpt lat="45.99511" lon="5.54757">
        <ele>856</ele>
        <time>2026-05-09T15:08:58Z</time>
      </trkpt>
      <trkpt lat="45.99509" lon="5.5476">
        <ele>856</ele>
        <time>2026-05-09T15:08:59Z</time>
      </trkpt>
      <trkpt lat="45.99507" lon="5.54764">
        <ele>856</ele>
        <time>2026-05-09T15:09:00Z</time>
      </trkpt>
      <trkpt lat="45.99507" lon="5.54767">
        <ele>856.4</ele>
        <time>2026-05-09T15:09:01Z</time>
      </trkpt>
      <trkpt lat="45.99507" lon="5.5477">
        <ele>856.4</ele>
        <time>2026-05-09T15:09:02Z</time>
      </trkpt>
      <trkpt lat="45.99507" lon="5.54773">
        <ele>856.4</ele>
        <time>2026-05-09T15:09:03Z</time>
      </trkpt>
      <trkpt lat="45.99507" lon="5.54777">
        <ele>856.8</ele>
        <time>2026-05-09T15:09:04Z</time>
      </trkpt>
      <trkpt lat="45.99507" lon="5.5478">
        <ele>856.8</ele>
        <time>2026-05-09T15:09:05Z</time>
      </trkpt>
      <trkpt lat="45.99508" lon="5.54783">
        <ele>856.8</ele>
        <time>2026-05-09T15:09:06Z</time>
      </trkpt>
      <trkpt lat="45.99508" lon="5.54786">
        <ele>857</ele>
        <time>2026-05-09T15:09:07Z</time>
      </trkpt>
      <trkpt lat="45.99508" lon="5.5479">
        <ele>857</ele>
        <time>2026-05-09T15:09:08Z</time>
      </trkpt>
      <trkpt lat="45.99508" lon="5.54794">
        <ele>857</ele>
        <time>2026-05-09T15:09:09Z</time>
      </trkpt>
      <trkpt lat="45.99507" lon="5.54798">
        <ele>857</ele>
        <time>2026-05-09T15:09:10Z</time>
      </trkpt>
      <trkpt lat="45.99507" lon="5.54801">
        <ele>857.6</ele>
        <time>2026-05-09T15:09:11Z</time>
      </trkpt>
      <trkpt lat="45.99506" lon="5.54805">
        <ele>857.8</ele>
        <time>2026-05-09T15:09:12Z</time>
      </trkpt>
      <trkpt lat="45.99505" lon="5.54809">
        <ele>857.8</ele>
        <time>2026-05-09T15:09:13Z</time>
      </trkpt>
      <trkpt lat="45.99505" lon="5.54812">
        <ele>858</ele>
        <time>2026-05-09T15:09:14Z</time>
      </trkpt>
      <trkpt lat="45.99504" lon="5.54815">
        <ele>858</ele>
        <time>2026-05-09T15:09:15Z</time>
      </trkpt>
      <trkpt lat="45.99504" lon="5.54818">
        <ele>858</ele>
        <time>2026-05-09T15:09:16Z</time>
      </trkpt>
      <trkpt lat="45.99503" lon="5.54822">
        <ele>858.2</ele>
        <time>2026-05-09T15:09:17Z</time>
      </trkpt>
      <trkpt lat="45.99502" lon="5.54825">
        <ele>858.2</ele>
        <time>2026-05-09T15:09:18Z</time>
      </trkpt>
      <trkpt lat="45.99501" lon="5.54828">
        <ele>858.4</ele>
        <time>2026-05-09T15:09:19Z</time>
      </trkpt>
      <trkpt lat="45.995" lon="5.5483">
        <ele>858.8</ele>
        <time>2026-05-09T15:09:20Z</time>
      </trkpt>
      <trkpt lat="45.995" lon="5.54833">
        <ele>859</ele>
        <time>2026-05-09T15:09:21Z</time>
      </trkpt>
      <trkpt lat="45.99499" lon="5.54836">
        <ele>859</ele>
        <time>2026-05-09T15:09:22Z</time>
      </trkpt>
      <trkpt lat="45.99498" lon="5.54839">
        <ele>859.2</ele>
        <time>2026-05-09T15:09:23Z</time>
      </trkpt>
      <trkpt lat="45.99497" lon="5.54842">
        <ele>859.2</ele>
        <time>2026-05-09T15:09:24Z</time>
      </trkpt>
      <trkpt lat="45.99496" lon="5.54845">
        <ele>859.2</ele>
        <time>2026-05-09T15:09:25Z</time>
      </trkpt>
      <trkpt lat="45.99495" lon="5.54848">
        <ele>859.2</ele>
        <time>2026-05-09T15:09:26Z</time>
      </trkpt>
      <trkpt lat="45.99494" lon="5.54851">
        <ele>859.4</ele>
        <time>2026-05-09T15:09:27Z</time>
      </trkpt>
      <trkpt lat="45.99493" lon="5.54854">
        <ele>859.4</ele>
        <time>2026-05-09T15:09:28Z</time>
      </trkpt>
      <trkpt lat="45.99493" lon="5.54857">
        <ele>859.6</ele>
        <time>2026-05-09T15:09:29Z</time>
      </trkpt>
      <trkpt lat="45.99492" lon="5.5486">
        <ele>859.6</ele>
        <time>2026-05-09T15:09:30Z</time>
      </trkpt>
      <trkpt lat="45.99491" lon="5.54864">
        <ele>859.8</ele>
        <time>2026-05-09T15:09:31Z</time>
      </trkpt>
      <trkpt lat="45.9949" lon="5.54867">
        <ele>859.8</ele>
        <time>2026-05-09T15:09:32Z</time>
      </trkpt>
      <trkpt lat="45.9949" lon="5.5487">
        <ele>860.2</ele>
        <time>2026-05-09T15:09:33Z</time>
      </trkpt>
      <trkpt lat="45.99489" lon="5.54873">
        <ele>860.2</ele>
        <time>2026-05-09T15:09:34Z</time>
      </trkpt>
      <trkpt lat="45.99488" lon="5.54877">
        <ele>860.2</ele>
        <time>2026-05-09T15:09:35Z</time>
      </trkpt>
      <trkpt lat="45.99488" lon="5.54881">
        <ele>860.2</ele>
        <time>2026-05-09T15:09:36Z</time>
      </trkpt>
      <trkpt lat="45.99487" lon="5.54884">
        <ele>860.2</ele>
        <time>2026-05-09T15:09:37Z</time>
      </trkpt>
      <trkpt lat="45.99487" lon="5.54888">
        <ele>860.2</ele>
        <time>2026-05-09T15:09:38Z</time>
      </trkpt>
      <trkpt lat="45.99487" lon="5.54892">
        <ele>860.6</ele>
        <time>2026-05-09T15:09:39Z</time>
      </trkpt>
      <trkpt lat="45.99486" lon="5.54895">
        <ele>860.6</ele>
        <time>2026-05-09T15:09:40Z</time>
      </trkpt>
      <trkpt lat="45.99486" lon="5.54899">
        <ele>860.6</ele>
        <time>2026-05-09T15:09:41Z</time>
      </trkpt>
      <trkpt lat="45.99485" lon="5.54902">
        <ele>860.8</ele>
        <time>2026-05-09T15:09:42Z</time>
      </trkpt>
      <trkpt lat="45.99484" lon="5.54906">
        <ele>860.8</ele>
        <time>2026-05-09T15:09:43Z</time>
      </trkpt>
      <trkpt lat="45.99483" lon="5.5491">
        <ele>860.8</ele>
        <time>2026-05-09T15:09:44Z</time>
      </trkpt>
      <trkpt lat="45.99482" lon="5.54915">
        <ele>860.8</ele>
        <time>2026-05-09T15:09:45Z</time>
      </trkpt>
      <trkpt lat="45.99481" lon="5.54919">
        <ele>861.4</ele>
        <time>2026-05-09T15:09:46Z</time>
      </trkpt>
      <trkpt lat="45.9948" lon="5.54923">
        <ele>861.4</ele>
        <time>2026-05-09T15:09:47Z</time>
      </trkpt>
      <trkpt lat="45.9948" lon="5.54928">
        <ele>861.6</ele>
        <time>2026-05-09T15:09:48Z</time>
      </trkpt>
      <trkpt lat="45.99479" lon="5.54932">
        <ele>861.8</ele>
        <time>2026-05-09T15:09:49Z</time>
      </trkpt>
      <trkpt lat="45.99478" lon="5.54937">
        <ele>861.8</ele>
        <time>2026-05-09T15:09:50Z</time>
      </trkpt>
      <trkpt lat="45.99477" lon="5.54941">
        <ele>861.8</ele>
        <time>2026-05-09T15:09:51Z</time>
      </trkpt>
      <trkpt lat="45.99477" lon="5.54944">
        <ele>861.8</ele>
        <time>2026-05-09T15:09:52Z</time>
      </trkpt>
      <trkpt lat="45.99476" lon="5.54948">
        <ele>861.8</ele>
        <time>2026-05-09T15:09:53Z</time>
      </trkpt>
      <trkpt lat="45.99475" lon="5.54952">
        <ele>861.8</ele>
        <time>2026-05-09T15:09:54Z</time>
      </trkpt>
      <trkpt lat="45.99473" lon="5.54956">
        <ele>862</ele>
        <time>2026-05-09T15:09:55Z</time>
      </trkpt>
      <trkpt lat="45.99472" lon="5.5496">
        <ele>862</ele>
        <time>2026-05-09T15:09:56Z</time>
      </trkpt>
      <trkpt lat="45.99471" lon="5.54963">
        <ele>862.2</ele>
        <time>2026-05-09T15:09:57Z</time>
      </trkpt>
      <trkpt lat="45.9947" lon="5.54967">
        <ele>862.2</ele>
        <time>2026-05-09T15:09:58Z</time>
      </trkpt>
      <trkpt lat="45.9947" lon="5.54971">
        <ele>862.2</ele>
        <time>2026-05-09T15:09:59Z</time>
      </trkpt>
      <trkpt lat="45.99469" lon="5.54975">
        <ele>862</ele>
        <time>2026-05-09T15:10:00Z</time>
      </trkpt>
      <trkpt lat="45.99468" lon="5.54979">
        <ele>862</ele>
        <time>2026-05-09T15:10:01Z</time>
      </trkpt>
      <trkpt lat="45.99467" lon="5.54982">
        <ele>862</ele>
        <time>2026-05-09T15:10:02Z</time>
      </trkpt>
      <trkpt lat="45.99467" lon="5.54986">
        <ele>862</ele>
        <time>2026-05-09T15:10:03Z</time>
      </trkpt>
      <trkpt lat="45.99466" lon="5.54989">
        <ele>862</ele>
        <time>2026-05-09T15:10:04Z</time>
      </trkpt>
      <trkpt lat="45.99465" lon="5.54994">
        <ele>862.4</ele>
        <time>2026-05-09T15:10:05Z</time>
      </trkpt>
      <trkpt lat="45.99464" lon="5.54998">
        <ele>862.4</ele>
        <time>2026-05-09T15:10:06Z</time>
      </trkpt>
      <trkpt lat="45.99464" lon="5.55001">
        <ele>862.4</ele>
        <time>2026-05-09T15:10:07Z</time>
      </trkpt>
      <trkpt lat="45.99463" lon="5.55005">
        <ele>862.4</ele>
        <time>2026-05-09T15:10:08Z</time>
      </trkpt>
      <trkpt lat="45.99462" lon="5.55009">
        <ele>862.2</ele>
        <time>2026-05-09T15:10:09Z</time>
      </trkpt>
      <trkpt lat="45.99462" lon="5.55013">
        <ele>862.2</ele>
        <time>2026-05-09T15:10:10Z</time>
      </trkpt>
      <trkpt lat="45.99461" lon="5.55016">
        <ele>862.2</ele>
        <time>2026-05-09T15:10:11Z</time>
      </trkpt>
      <trkpt lat="45.9946" lon="5.55021">
        <ele>862.2</ele>
        <time>2026-05-09T15:10:12Z</time>
      </trkpt>
      <trkpt lat="45.9946" lon="5.55025">
        <ele>862.4</ele>
        <time>2026-05-09T15:10:13Z</time>
      </trkpt>
      <trkpt lat="45.99459" lon="5.5503">
        <ele>862.4</ele>
        <time>2026-05-09T15:10:14Z</time>
      </trkpt>
      <trkpt lat="45.99458" lon="5.55034">
        <ele>862.4</ele>
        <time>2026-05-09T15:10:15Z</time>
      </trkpt>
      <trkpt lat="45.99457" lon="5.55038">
        <ele>862.4</ele>
        <time>2026-05-09T15:10:16Z</time>
      </trkpt>
      <trkpt lat="45.99456" lon="5.55041">
        <ele>862.4</ele>
        <time>2026-05-09T15:10:17Z</time>
      </trkpt>
      <trkpt lat="45.99455" lon="5.55045">
        <ele>862.4</ele>
        <time>2026-05-09T15:10:18Z</time>
      </trkpt>
      <trkpt lat="45.99454" lon="5.5505">
        <ele>862.4</ele>
        <time>2026-05-09T15:10:19Z</time>
      </trkpt>
      <trkpt lat="45.99453" lon="5.55054">
        <ele>862.4</ele>
        <time>2026-05-09T15:10:20Z</time>
      </trkpt>
      <trkpt lat="45.99452" lon="5.55058">
        <ele>862.4</ele>
        <time>2026-05-09T15:10:21Z</time>
      </trkpt>
      <trkpt lat="45.99451" lon="5.55062">
        <ele>862.4</ele>
        <time>2026-05-09T15:10:22Z</time>
      </trkpt>
      <trkpt lat="45.9945" lon="5.55066">
        <ele>862.4</ele>
        <time>2026-05-09T15:10:23Z</time>
      </trkpt>
      <trkpt lat="45.99449" lon="5.5507">
        <ele>862.6</ele>
        <time>2026-05-09T15:10:24Z</time>
      </trkpt>
      <trkpt lat="45.99448" lon="5.55074">
        <ele>862.6</ele>
        <time>2026-05-09T15:10:25Z</time>
      </trkpt>
      <trkpt lat="45.99448" lon="5.55074">
        <ele>862.6</ele>
        <time>2026-05-09T15:10:26Z</time>
      </trkpt>
      <trkpt lat="45.99448" lon="5.55079">
        <ele>862.6</ele>
        <time>2026-05-09T15:10:27Z</time>
      </trkpt>
      <trkpt lat="45.99447" lon="5.55083">
        <ele>862.6</ele>
        <time>2026-05-09T15:10:28Z</time>
      </trkpt>
      <trkpt lat="45.99446" lon="5.55087">
        <ele>862.6</ele>
        <time>2026-05-09T15:10:29Z</time>
      </trkpt>
      <trkpt lat="45.99445" lon="5.55092">
        <ele>862.8</ele>
        <time>2026-05-09T15:10:30Z</time>
      </trkpt>
      <trkpt lat="45.99445" lon="5.55097">
        <ele>862.8</ele>
        <time>2026-05-09T15:10:31Z</time>
      </trkpt>
      <trkpt lat="45.99445" lon="5.55103">
        <ele>862.8</ele>
        <time>2026-05-09T15:10:32Z</time>
      </trkpt>
      <trkpt lat="45.99444" lon="5.55108">
        <ele>862.8</ele>
        <time>2026-05-09T15:10:33Z</time>
      </trkpt>
      <trkpt lat="45.99444" lon="5.55114">
        <ele>862.8</ele>
        <time>2026-05-09T15:10:34Z</time>
      </trkpt>
      <trkpt lat="45.99444" lon="5.55119">
        <ele>862.8</ele>
        <time>2026-05-09T15:10:35Z</time>
      </trkpt>
      <trkpt lat="45.99443" lon="5.55125">
        <ele>862.8</ele>
        <time>2026-05-09T15:10:36Z</time>
      </trkpt>
      <trkpt lat="45.99443" lon="5.5513">
        <ele>862.6</ele>
        <time>2026-05-09T15:10:37Z</time>
      </trkpt>
      <trkpt lat="45.99442" lon="5.55137">
        <ele>862.6</ele>
        <time>2026-05-09T15:10:38Z</time>
      </trkpt>
      <trkpt lat="45.99441" lon="5.55143">
        <ele>862.6</ele>
        <time>2026-05-09T15:10:39Z</time>
      </trkpt>
      <trkpt lat="45.99439" lon="5.5515">
        <ele>862.4</ele>
        <time>2026-05-09T15:10:40Z</time>
      </trkpt>
      <trkpt lat="45.99436" lon="5.55156">
        <ele>862</ele>
        <time>2026-05-09T15:10:41Z</time>
      </trkpt>
      <trkpt lat="45.99433" lon="5.55163">
        <ele>861.8</ele>
        <time>2026-05-09T15:10:42Z</time>
      </trkpt>
      <trkpt lat="45.9943" lon="5.5517">
        <ele>861.8</ele>
        <time>2026-05-09T15:10:43Z</time>
      </trkpt>
      <trkpt lat="45.99426" lon="5.55177">
        <ele>861.2</ele>
        <time>2026-05-09T15:10:44Z</time>
      </trkpt>
      <trkpt lat="45.99422" lon="5.55184">
        <ele>860.8</ele>
        <time>2026-05-09T15:10:45Z</time>
      </trkpt>
      <trkpt lat="45.99418" lon="5.55193">
        <ele>860.2</ele>
        <time>2026-05-09T15:10:46Z</time>
      </trkpt>
      <trkpt lat="45.99411" lon="5.55199">
        <ele>859.8</ele>
        <time>2026-05-09T15:10:47Z</time>
      </trkpt>
      <trkpt lat="45.99405" lon="5.55205">
        <ele>859.2</ele>
        <time>2026-05-09T15:10:48Z</time>
      </trkpt>
      <trkpt lat="45.99399" lon="5.55213">
        <ele>858.6</ele>
        <time>2026-05-09T15:10:49Z</time>
      </trkpt>
      <trkpt lat="45.99393" lon="5.5522">
        <ele>858.2</ele>
        <time>2026-05-09T15:10:50Z</time>
      </trkpt>
      <trkpt lat="45.99386" lon="5.55228">
        <ele>857.8</ele>
        <time>2026-05-09T15:10:51Z</time>
      </trkpt>
      <trkpt lat="45.99378" lon="5.55235">
        <ele>857.4</ele>
        <time>2026-05-09T15:10:52Z</time>
      </trkpt>
      <trkpt lat="45.99369" lon="5.5524">
        <ele>857</ele>
        <time>2026-05-09T15:10:53Z</time>
      </trkpt>
      <trkpt lat="45.99363" lon="5.55248">
        <ele>856.4</ele>
        <time>2026-05-09T15:10:54Z</time>
      </trkpt>
      <trkpt lat="45.99355" lon="5.55254">
        <ele>855.8</ele>
        <time>2026-05-09T15:10:55Z</time>
      </trkpt>
      <trkpt lat="45.99349" lon="5.55263">
        <ele>855.4</ele>
        <time>2026-05-09T15:10:56Z</time>
      </trkpt>
      <trkpt lat="45.99341" lon="5.55271">
        <ele>855</ele>
        <time>2026-05-09T15:10:57Z</time>
      </trkpt>
      <trkpt lat="45.99333" lon="5.55278">
        <ele>854.6</ele>
        <time>2026-05-09T15:10:58Z</time>
      </trkpt>
      <trkpt lat="45.99325" lon="5.55286">
        <ele>853.6</ele>
        <time>2026-05-09T15:10:59Z</time>
      </trkpt>
      <trkpt lat="45.99316" lon="5.55293">
        <ele>853.2</ele>
        <time>2026-05-09T15:11:00Z</time>
      </trkpt>
      <trkpt lat="45.99307" lon="5.55299">
        <ele>852.4</ele>
        <time>2026-05-09T15:11:01Z</time>
      </trkpt>
      <trkpt lat="45.99297" lon="5.55304">
        <ele>851.8</ele>
        <time>2026-05-09T15:11:02Z</time>
      </trkpt>
      <trkpt lat="45.99286" lon="5.55308">
        <ele>851.4</ele>
        <time>2026-05-09T15:11:03Z</time>
      </trkpt>
      <trkpt lat="45.99275" lon="5.55311">
        <ele>850.6</ele>
        <time>2026-05-09T15:11:04Z</time>
      </trkpt>
      <trkpt lat="45.99265" lon="5.55315">
        <ele>850</ele>
        <time>2026-05-09T15:11:05Z</time>
      </trkpt>
      <trkpt lat="45.99256" lon="5.5532">
        <ele>849.6</ele>
        <time>2026-05-09T15:11:06Z</time>
      </trkpt>
      <trkpt lat="45.99245" lon="5.55324">
        <ele>849</ele>
        <time>2026-05-09T15:11:07Z</time>
      </trkpt>
      <trkpt lat="45.99235" lon="5.55328">
        <ele>848.4</ele>
        <time>2026-05-09T15:11:08Z</time>
      </trkpt>
      <trkpt lat="45.99223" lon="5.55332">
        <ele>847.8</ele>
        <time>2026-05-09T15:11:09Z</time>
      </trkpt>
      <trkpt lat="45.99213" lon="5.55338">
        <ele>847.2</ele>
        <time>2026-05-09T15:11:10Z</time>
      </trkpt>
      <trkpt lat="45.99202" lon="5.55345">
        <ele>846.4</ele>
        <time>2026-05-09T15:11:11Z</time>
      </trkpt>
      <trkpt lat="45.99192" lon="5.55351">
        <ele>845.8</ele>
        <time>2026-05-09T15:11:12Z</time>
      </trkpt>
      <trkpt lat="45.99182" lon="5.55359">
        <ele>845.2</ele>
        <time>2026-05-09T15:11:13Z</time>
      </trkpt>
      <trkpt lat="45.99172" lon="5.55366">
        <ele>844.8</ele>
        <time>2026-05-09T15:11:14Z</time>
      </trkpt>
      <trkpt lat="45.99161" lon="5.55373">
        <ele>844.4</ele>
        <time>2026-05-09T15:11:15Z</time>
      </trkpt>
      <trkpt lat="45.9915" lon="5.55379">
        <ele>843.8</ele>
        <time>2026-05-09T15:11:16Z</time>
      </trkpt>
      <trkpt lat="45.99139" lon="5.55385">
        <ele>843.8</ele>
        <time>2026-05-09T15:11:17Z</time>
      </trkpt>
      <trkpt lat="45.99129" lon="5.55389">
        <ele>843.2</ele>
        <time>2026-05-09T15:11:18Z</time>
      </trkpt>
      <trkpt lat="45.99121" lon="5.55399">
        <ele>842.8</ele>
        <time>2026-05-09T15:11:19Z</time>
      </trkpt>
      <trkpt lat="45.99111" lon="5.55406">
        <ele>842.4</ele>
        <time>2026-05-09T15:11:20Z</time>
      </trkpt>
      <trkpt lat="45.99105" lon="5.55417">
        <ele>842.4</ele>
        <time>2026-05-09T15:11:21Z</time>
      </trkpt>
      <trkpt lat="45.99097" lon="5.55425">
        <ele>841.8</ele>
        <time>2026-05-09T15:11:22Z</time>
      </trkpt>
      <trkpt lat="45.99088" lon="5.55434">
        <ele>841.4</ele>
        <time>2026-05-09T15:11:23Z</time>
      </trkpt>
      <trkpt lat="45.99081" lon="5.55443">
        <ele>840.8</ele>
        <time>2026-05-09T15:11:24Z</time>
      </trkpt>
      <trkpt lat="45.99074" lon="5.55453">
        <ele>840.6</ele>
        <time>2026-05-09T15:11:25Z</time>
      </trkpt>
      <trkpt lat="45.99067" lon="5.55462">
        <ele>840.2</ele>
        <time>2026-05-09T15:11:26Z</time>
      </trkpt>
      <trkpt lat="45.99059" lon="5.5547">
        <ele>840</ele>
        <time>2026-05-09T15:11:27Z</time>
      </trkpt>
      <trkpt lat="45.99052" lon="5.55479">
        <ele>840</ele>
        <time>2026-05-09T15:11:28Z</time>
      </trkpt>
      <trkpt lat="45.99044" lon="5.55487">
        <ele>839.4</ele>
        <time>2026-05-09T15:11:29Z</time>
      </trkpt>
      <trkpt lat="45.99039" lon="5.55497">
        <ele>839.4</ele>
        <time>2026-05-09T15:11:30Z</time>
      </trkpt>
      <trkpt lat="45.99031" lon="5.55505">
        <ele>839</ele>
        <time>2026-05-09T15:11:31Z</time>
      </trkpt>
      <trkpt lat="45.99025" lon="5.55513">
        <ele>839</ele>
        <time>2026-05-09T15:11:32Z</time>
      </trkpt>
      <trkpt lat="45.9902" lon="5.55523">
        <ele>839</ele>
        <time>2026-05-09T15:11:33Z</time>
      </trkpt>
      <trkpt lat="45.99013" lon="5.55531">
        <ele>838.6</ele>
        <time>2026-05-09T15:11:34Z</time>
      </trkpt>
      <trkpt lat="45.99006" lon="5.5554">
        <ele>838.6</ele>
        <time>2026-05-09T15:11:35Z</time>
      </trkpt>
      <trkpt lat="45.99" lon="5.55548">
        <ele>838.4</ele>
        <time>2026-05-09T15:11:36Z</time>
      </trkpt>
      <trkpt lat="45.98994" lon="5.55557">
        <ele>838.4</ele>
        <time>2026-05-09T15:11:37Z</time>
      </trkpt>
      <trkpt lat="45.98988" lon="5.55565">
        <ele>838</ele>
        <time>2026-05-09T15:11:38Z</time>
      </trkpt>
      <trkpt lat="45.98982" lon="5.55574">
        <ele>838</ele>
        <time>2026-05-09T15:11:39Z</time>
      </trkpt>
      <trkpt lat="45.98976" lon="5.55582">
        <ele>838</ele>
        <time>2026-05-09T15:11:40Z</time>
      </trkpt>
      <trkpt lat="45.9897" lon="5.55589">
        <ele>838</ele>
        <time>2026-05-09T15:11:41Z</time>
      </trkpt>
      <trkpt lat="45.98964" lon="5.55597">
        <ele>837.6</ele>
        <time>2026-05-09T15:11:42Z</time>
      </trkpt>
      <trkpt lat="45.98958" lon="5.55604">
        <ele>837.6</ele>
        <time>2026-05-09T15:11:43Z</time>
      </trkpt>
      <trkpt lat="45.98953" lon="5.55611">
        <ele>837.4</ele>
        <time>2026-05-09T15:11:44Z</time>
      </trkpt>
      <trkpt lat="45.98947" lon="5.5562">
        <ele>837</ele>
        <time>2026-05-09T15:11:45Z</time>
      </trkpt>
      <trkpt lat="45.9894" lon="5.55629">
        <ele>836.6</ele>
        <time>2026-05-09T15:11:46Z</time>
      </trkpt>
      <trkpt lat="45.98934" lon="5.55639">
        <ele>836.6</ele>
        <time>2026-05-09T15:11:47Z</time>
      </trkpt>
      <trkpt lat="45.98927" lon="5.55649">
        <ele>836.2</ele>
        <time>2026-05-09T15:11:48Z</time>
      </trkpt>
      <trkpt lat="45.98921" lon="5.55659">
        <ele>836</ele>
        <time>2026-05-09T15:11:49Z</time>
      </trkpt>
      <trkpt lat="45.98914" lon="5.5567">
        <ele>835.4</ele>
        <time>2026-05-09T15:11:50Z</time>
      </trkpt>
      <trkpt lat="45.98908" lon="5.55681">
        <ele>834.8</ele>
        <time>2026-05-09T15:11:51Z</time>
      </trkpt>
      <trkpt lat="45.98905" lon="5.55697">
        <ele>834.4</ele>
        <time>2026-05-09T15:11:52Z</time>
      </trkpt>
      <trkpt lat="45.98899" lon="5.55709">
        <ele>834</ele>
        <time>2026-05-09T15:11:53Z</time>
      </trkpt>
      <trkpt lat="45.98893" lon="5.55722">
        <ele>833.4</ele>
        <time>2026-05-09T15:11:54Z</time>
      </trkpt>
      <trkpt lat="45.98887" lon="5.55734">
        <ele>832.8</ele>
        <time>2026-05-09T15:11:55Z</time>
      </trkpt>
      <trkpt lat="45.98874" lon="5.5576">
        <ele>832.2</ele>
        <time>2026-05-09T15:11:56Z</time>
      </trkpt>
      <trkpt lat="45.98868" lon="5.55774">
        <ele>831.8</ele>
        <time>2026-05-09T15:11:57Z</time>
      </trkpt>
      <trkpt lat="45.98863" lon="5.55788">
        <ele>831.4</ele>
        <time>2026-05-09T15:11:58Z</time>
      </trkpt>
      <trkpt lat="45.98857" lon="5.55802">
        <ele>830.2</ele>
        <time>2026-05-09T15:11:59Z</time>
      </trkpt>
      <trkpt lat="45.98852" lon="5.55817">
        <ele>829.8</ele>
        <time>2026-05-09T15:12:00Z</time>
      </trkpt>
      <trkpt lat="45.98845" lon="5.5583">
        <ele>829.2</ele>
        <time>2026-05-09T15:12:01Z</time>
      </trkpt>
      <trkpt lat="45.9884" lon="5.55845">
        <ele>828.8</ele>
        <time>2026-05-09T15:12:02Z</time>
      </trkpt>
      <trkpt lat="45.98834" lon="5.5586">
        <ele>828</ele>
        <time>2026-05-09T15:12:03Z</time>
      </trkpt>
      <trkpt lat="45.98828" lon="5.55875">
        <ele>827.2</ele>
        <time>2026-05-09T15:12:04Z</time>
      </trkpt>
      <trkpt lat="45.98822" lon="5.55889">
        <ele>826.6</ele>
        <time>2026-05-09T15:12:05Z</time>
      </trkpt>
      <trkpt lat="45.98816" lon="5.55904">
        <ele>825.6</ele>
        <time>2026-05-09T15:12:06Z</time>
      </trkpt>
      <trkpt lat="45.9881" lon="5.55918">
        <ele>824.8</ele>
        <time>2026-05-09T15:12:07Z</time>
      </trkpt>
      <trkpt lat="45.98803" lon="5.55933">
        <ele>824.2</ele>
        <time>2026-05-09T15:12:08Z</time>
      </trkpt>
      <trkpt lat="45.98798" lon="5.55948">
        <ele>823.4</ele>
        <time>2026-05-09T15:12:09Z</time>
      </trkpt>
      <trkpt lat="45.98792" lon="5.55963">
        <ele>822.8</ele>
        <time>2026-05-09T15:12:10Z</time>
      </trkpt>
      <trkpt lat="45.98787" lon="5.55979">
        <ele>822.4</ele>
        <time>2026-05-09T15:12:11Z</time>
      </trkpt>
      <trkpt lat="45.98781" lon="5.55993">
        <ele>821.4</ele>
        <time>2026-05-09T15:12:12Z</time>
      </trkpt>
      <trkpt lat="45.98774" lon="5.56008">
        <ele>820.8</ele>
        <time>2026-05-09T15:12:13Z</time>
      </trkpt>
      <trkpt lat="45.98769" lon="5.56023">
        <ele>820.2</ele>
        <time>2026-05-09T15:12:14Z</time>
      </trkpt>
      <trkpt lat="45.98764" lon="5.56038">
        <ele>820</ele>
        <time>2026-05-09T15:12:15Z</time>
      </trkpt>
      <trkpt lat="45.98757" lon="5.56051">
        <ele>819.4</ele>
        <time>2026-05-09T15:12:16Z</time>
      </trkpt>
      <trkpt lat="45.98751" lon="5.56066">
        <ele>819</ele>
        <time>2026-05-09T15:12:17Z</time>
      </trkpt>
      <trkpt lat="45.98746" lon="5.5608">
        <ele>818.4</ele>
        <time>2026-05-09T15:12:18Z</time>
      </trkpt>
      <trkpt lat="45.98739" lon="5.56093">
        <ele>817.8</ele>
        <time>2026-05-09T15:12:19Z</time>
      </trkpt>
      <trkpt lat="45.98731" lon="5.56106">
        <ele>817.4</ele>
        <time>2026-05-09T15:12:20Z</time>
      </trkpt>
      <trkpt lat="45.98724" lon="5.56118">
        <ele>817</ele>
        <time>2026-05-09T15:12:21Z</time>
      </trkpt>
      <trkpt lat="45.98716" lon="5.5613">
        <ele>816.6</ele>
        <time>2026-05-09T15:12:22Z</time>
      </trkpt>
      <trkpt lat="45.98708" lon="5.5614">
        <ele>816.4</ele>
        <time>2026-05-09T15:12:23Z</time>
      </trkpt>
      <trkpt lat="45.987" lon="5.5615">
        <ele>816</ele>
        <time>2026-05-09T15:12:24Z</time>
      </trkpt>
      <trkpt lat="45.98692" lon="5.5616">
        <ele>815.4</ele>
        <time>2026-05-09T15:12:25Z</time>
      </trkpt>
      <trkpt lat="45.98683" lon="5.56168">
        <ele>815.2</ele>
        <time>2026-05-09T15:12:26Z</time>
      </trkpt>
      <trkpt lat="45.98675" lon="5.56175">
        <ele>815.2</ele>
        <time>2026-05-09T15:12:27Z</time>
      </trkpt>
      <trkpt lat="45.98666" lon="5.56181">
        <ele>815.2</ele>
        <time>2026-05-09T15:12:28Z</time>
      </trkpt>
      <trkpt lat="45.98658" lon="5.56187">
        <ele>814.8</ele>
        <time>2026-05-09T15:12:29Z</time>
      </trkpt>
      <trkpt lat="45.98651" lon="5.56192">
        <ele>815</ele>
        <time>2026-05-09T15:12:30Z</time>
      </trkpt>
      <trkpt lat="45.98643" lon="5.56198">
        <ele>815</ele>
        <time>2026-05-09T15:12:31Z</time>
      </trkpt>
      <trkpt lat="45.98637" lon="5.56202">
        <ele>815</ele>
        <time>2026-05-09T15:12:32Z</time>
      </trkpt>
      <trkpt lat="45.98631" lon="5.56205">
        <ele>815</ele>
        <time>2026-05-09T15:12:33Z</time>
      </trkpt>
      <trkpt lat="45.98625" lon="5.56209">
        <ele>815.4</ele>
        <time>2026-05-09T15:12:34Z</time>
      </trkpt>
      <trkpt lat="45.9862" lon="5.56212">
        <ele>815.4</ele>
        <time>2026-05-09T15:12:35Z</time>
      </trkpt>
      <trkpt lat="45.98615" lon="5.56214">
        <ele>815.8</ele>
        <time>2026-05-09T15:12:36Z</time>
      </trkpt>
      <trkpt lat="45.98611" lon="5.56216">
        <ele>816</ele>
        <time>2026-05-09T15:12:37Z</time>
      </trkpt>
      <trkpt lat="45.98607" lon="5.56218">
        <ele>816</ele>
        <time>2026-05-09T15:12:38Z</time>
      </trkpt>
      <trkpt lat="45.98604" lon="5.56221">
        <ele>816.2</ele>
        <time>2026-05-09T15:12:39Z</time>
      </trkpt>
      <trkpt lat="45.98601" lon="5.56224">
        <ele>816.6</ele>
        <time>2026-05-09T15:12:40Z</time>
      </trkpt>
      <trkpt lat="45.986" lon="5.56228">
        <ele>816.6</ele>
        <time>2026-05-09T15:12:41Z</time>
      </trkpt>
      <trkpt lat="45.986" lon="5.56233">
        <ele>817</ele>
        <time>2026-05-09T15:12:42Z</time>
      </trkpt>
      <trkpt lat="45.98601" lon="5.56239">
        <ele>817</ele>
        <time>2026-05-09T15:12:43Z</time>
      </trkpt>
      <trkpt lat="45.98603" lon="5.56243">
        <ele>817</ele>
        <time>2026-05-09T15:12:44Z</time>
      </trkpt>
      <trkpt lat="45.98605" lon="5.56247">
        <ele>817.2</ele>
        <time>2026-05-09T15:12:45Z</time>
      </trkpt>
      <trkpt lat="45.98607" lon="5.56251">
        <ele>817.4</ele>
        <time>2026-05-09T15:12:46Z</time>
      </trkpt>
      <trkpt lat="45.98609" lon="5.56254">
        <ele>817.6</ele>
        <time>2026-05-09T15:12:47Z</time>
      </trkpt>
      <trkpt lat="45.98611" lon="5.56257">
        <ele>817.6</ele>
        <time>2026-05-09T15:12:48Z</time>
      </trkpt>
      <trkpt lat="45.98613" lon="5.56259">
        <ele>817.6</ele>
        <time>2026-05-09T15:12:49Z</time>
      </trkpt>
      <trkpt lat="45.98615" lon="5.56261">
        <ele>818</ele>
        <time>2026-05-09T15:12:50Z</time>
      </trkpt>
      <trkpt lat="45.98616" lon="5.56263">
        <ele>818.2</ele>
        <time>2026-05-09T15:12:51Z</time>
      </trkpt>
      <trkpt lat="45.98617" lon="5.56265">
        <ele>818.2</ele>
        <time>2026-05-09T15:12:52Z</time>
      </trkpt>
      <trkpt lat="45.98619" lon="5.56268">
        <ele>818.2</ele>
        <time>2026-05-09T15:12:53Z</time>
      </trkpt>
      <trkpt lat="45.98621" lon="5.56271">
        <ele>818.4</ele>
        <time>2026-05-09T15:12:54Z</time>
      </trkpt>
      <trkpt lat="45.98622" lon="5.56273">
        <ele>818.4</ele>
        <time>2026-05-09T15:12:55Z</time>
      </trkpt>
      <trkpt lat="45.98624" lon="5.56275">
        <ele>818.4</ele>
        <time>2026-05-09T15:12:56Z</time>
      </trkpt>
      <trkpt lat="45.98625" lon="5.56278">
        <ele>818.8</ele>
        <time>2026-05-09T15:12:57Z</time>
      </trkpt>
      <trkpt lat="45.98626" lon="5.5628">
        <ele>819.2</ele>
        <time>2026-05-09T15:12:58Z</time>
      </trkpt>
      <trkpt lat="45.98627" lon="5.56282">
        <ele>819.2</ele>
        <time>2026-05-09T15:12:59Z</time>
      </trkpt>
      <trkpt lat="45.98628" lon="5.56285">
        <ele>819.2</ele>
        <time>2026-05-09T15:13:00Z</time>
      </trkpt>
      <trkpt lat="45.98628" lon="5.56288">
        <ele>819.6</ele>
        <time>2026-05-09T15:13:01Z</time>
      </trkpt>
      <trkpt lat="45.98629" lon="5.5629">
        <ele>819.8</ele>
        <time>2026-05-09T15:13:02Z</time>
      </trkpt>
      <trkpt lat="45.98629" lon="5.56292">
        <ele>819.8</ele>
        <time>2026-05-09T15:13:03Z</time>
      </trkpt>
      <trkpt lat="45.98629" lon="5.56295">
        <ele>820.2</ele>
        <time>2026-05-09T15:13:04Z</time>
      </trkpt>
      <trkpt lat="45.98629" lon="5.56298">
        <ele>820.2</ele>
        <time>2026-05-09T15:13:05Z</time>
      </trkpt>
      <trkpt lat="45.9863" lon="5.563">
        <ele>820.4</ele>
        <time>2026-05-09T15:13:06Z</time>
      </trkpt>
      <trkpt lat="45.98631" lon="5.56303">
        <ele>820.6</ele>
        <time>2026-05-09T15:13:07Z</time>
      </trkpt>
      <trkpt lat="45.98633" lon="5.56305">
        <ele>821</ele>
        <time>2026-05-09T15:13:08Z</time>
      </trkpt>
      <trkpt lat="45.98634" lon="5.56308">
        <ele>821.2</ele>
        <time>2026-05-09T15:13:09Z</time>
      </trkpt>
      <trkpt lat="45.98635" lon="5.56311">
        <ele>821.2</ele>
        <time>2026-05-09T15:13:10Z</time>
      </trkpt>
      <trkpt lat="45.98636" lon="5.56314">
        <ele>821.2</ele>
        <time>2026-05-09T15:13:11Z</time>
      </trkpt>
      <trkpt lat="45.98637" lon="5.56318">
        <ele>821.2</ele>
        <time>2026-05-09T15:13:12Z</time>
      </trkpt>
      <trkpt lat="45.98638" lon="5.56322">
        <ele>821.2</ele>
        <time>2026-05-09T15:13:13Z</time>
      </trkpt>
      <trkpt lat="45.98638" lon="5.56326">
        <ele>821.6</ele>
        <time>2026-05-09T15:13:14Z</time>
      </trkpt>
      <trkpt lat="45.98638" lon="5.56329">
        <ele>821.6</ele>
        <time>2026-05-09T15:13:15Z</time>
      </trkpt>
      <trkpt lat="45.98637" lon="5.56332">
        <ele>822</ele>
        <time>2026-05-09T15:13:16Z</time>
      </trkpt>
      <trkpt lat="45.98636" lon="5.56335">
        <ele>822</ele>
        <time>2026-05-09T15:13:17Z</time>
      </trkpt>
      <trkpt lat="45.98635" lon="5.56338">
        <ele>822</ele>
        <time>2026-05-09T15:13:18Z</time>
      </trkpt>
      <trkpt lat="45.98634" lon="5.5634">
        <ele>822.4</ele>
        <time>2026-05-09T15:13:19Z</time>
      </trkpt>
      <trkpt lat="45.98634" lon="5.56343">
        <ele>822.6</ele>
        <time>2026-05-09T15:13:20Z</time>
      </trkpt>
      <trkpt lat="45.98634" lon="5.56346">
        <ele>822.8</ele>
        <time>2026-05-09T15:13:21Z</time>
      </trkpt>
      <trkpt lat="45.98633" lon="5.5635">
        <ele>822.8</ele>
        <time>2026-05-09T15:13:22Z</time>
      </trkpt>
      <trkpt lat="45.98633" lon="5.56353">
        <ele>822.8</ele>
        <time>2026-05-09T15:13:23Z</time>
      </trkpt>
      <trkpt lat="45.98633" lon="5.56356">
        <ele>822.8</ele>
        <time>2026-05-09T15:13:24Z</time>
      </trkpt>
      <trkpt lat="45.98633" lon="5.56359">
        <ele>822.8</ele>
        <time>2026-05-09T15:13:25Z</time>
      </trkpt>
      <trkpt lat="45.98632" lon="5.56362">
        <ele>823.2</ele>
        <time>2026-05-09T15:13:26Z</time>
      </trkpt>
      <trkpt lat="45.98632" lon="5.56364">
        <ele>823.2</ele>
        <time>2026-05-09T15:13:27Z</time>
      </trkpt>
      <trkpt lat="45.98631" lon="5.56367">
        <ele>823.2</ele>
        <time>2026-05-09T15:13:28Z</time>
      </trkpt>
      <trkpt lat="45.98631" lon="5.56371">
        <ele>823.4</ele>
        <time>2026-05-09T15:13:29Z</time>
      </trkpt>
      <trkpt lat="45.9863" lon="5.56374">
        <ele>823.4</ele>
        <time>2026-05-09T15:13:30Z</time>
      </trkpt>
      <trkpt lat="45.9863" lon="5.56377">
        <ele>823.6</ele>
        <time>2026-05-09T15:13:31Z</time>
      </trkpt>
      <trkpt lat="45.98631" lon="5.56379">
        <ele>823.6</ele>
        <time>2026-05-09T15:13:32Z</time>
      </trkpt>
      <trkpt lat="45.98631" lon="5.56379">
        <ele>824</ele>
        <time>2026-05-09T15:13:33Z</time>
      </trkpt>
      <trkpt lat="45.98631" lon="5.56379">
        <ele>824</ele>
        <time>2026-05-09T15:13:34Z</time>
      </trkpt>
      <trkpt lat="45.98631" lon="5.56378">
        <ele>824</ele>
        <time>2026-05-09T15:13:35Z</time>
      </trkpt>
      <trkpt lat="45.9863" lon="5.56377">
        <ele>824.2</ele>
        <time>2026-05-09T15:13:45Z</time>
      </trkpt>
      <trkpt lat="45.9863" lon="5.56376">
        <ele>824.2</ele>
        <time>2026-05-09T15:13:46Z</time>
      </trkpt>
      <trkpt lat="45.98629" lon="5.56375">
        <ele>824.2</ele>
        <time>2026-05-09T15:13:47Z</time>
      </trkpt>
      <trkpt lat="45.98629" lon="5.56374">
        <ele>824.2</ele>
        <time>2026-05-09T15:13:48Z</time>
      </trkpt>
      <trkpt lat="45.98628" lon="5.56373">
        <ele>824.2</ele>
        <time>2026-05-09T15:13:49Z</time>
      </trkpt>
      <trkpt lat="45.98628" lon="5.56372">
        <ele>824.2</ele>
        <time>2026-05-09T15:13:50Z</time>
      </trkpt>
      <trkpt lat="45.98627" lon="5.56371">
        <ele>824.2</ele>
        <time>2026-05-09T15:13:51Z</time>
      </trkpt>
      <trkpt lat="45.98627" lon="5.56371">
        <ele>824.2</ele>
        <time>2026-05-09T15:13:52Z</time>
      </trkpt>
      <trkpt lat="45.98625" lon="5.5637">
        <ele>824.4</ele>
        <time>2026-05-09T15:13:55Z</time>
      </trkpt>
      <trkpt lat="45.98624" lon="5.56369">
        <ele>824.4</ele>
        <time>2026-05-09T15:13:56Z</time>
      </trkpt>
      <trkpt lat="45.98624" lon="5.56369">
        <ele>824.4</ele>
        <time>2026-05-09T15:13:57Z</time>
      </trkpt>
      <trkpt lat="45.98624" lon="5.56369">
        <ele>824.4</ele>
        <time>2026-05-09T15:13:58Z</time>
      </trkpt>
      <trkpt lat="45.98629" lon="5.56372">
        <ele>824.6</ele>
        <time>2026-05-09T15:20:20Z</time>
      </trkpt>
      <trkpt lat="45.9863" lon="5.56373">
        <ele>824.6</ele>
        <time>2026-05-09T15:20:21Z</time>
      </trkpt>
      <trkpt lat="45.9863" lon="5.56373">
        <ele>824.6</ele>
        <time>2026-05-09T15:20:22Z</time>
      </trkpt>
      <trkpt lat="45.98633" lon="5.56382">
        <ele>824.6</ele>
        <time>2026-05-09T15:20:23Z</time>
      </trkpt>
      <trkpt lat="45.98633" lon="5.56384">
        <ele>824.6</ele>
        <time>2026-05-09T15:20:24Z</time>
      </trkpt>
      <trkpt lat="45.98633" lon="5.56387">
        <ele>824.6</ele>
        <time>2026-05-09T15:20:25Z</time>
      </trkpt>
      <trkpt lat="45.98634" lon="5.5639">
        <ele>824.6</ele>
        <time>2026-05-09T15:20:26Z</time>
      </trkpt>
      <trkpt lat="45.98634" lon="5.5639">
        <ele>824.6</ele>
        <time>2026-05-09T15:20:27Z</time>
      </trkpt>
      <trkpt lat="45.98634" lon="5.56393">
        <ele>824.8</ele>
        <time>2026-05-09T15:20:28Z</time>
      </trkpt>
      <trkpt lat="45.98635" lon="5.56396">
        <ele>824.8</ele>
        <time>2026-05-09T15:20:29Z</time>
      </trkpt>
      <trkpt lat="45.98636" lon="5.56399">
        <ele>824.8</ele>
        <time>2026-05-09T15:20:30Z</time>
      </trkpt>
      <trkpt lat="45.98636" lon="5.56401">
        <ele>824.8</ele>
        <time>2026-05-09T15:20:31Z</time>
      </trkpt>
      <trkpt lat="45.98637" lon="5.56404">
        <ele>825.2</ele>
        <time>2026-05-09T15:20:32Z</time>
      </trkpt>
      <trkpt lat="45.98638" lon="5.56408">
        <ele>825.2</ele>
        <time>2026-05-09T15:20:33Z</time>
      </trkpt>
      <trkpt lat="45.98639" lon="5.56411">
        <ele>825.4</ele>
        <time>2026-05-09T15:20:34Z</time>
      </trkpt>
      <trkpt lat="45.9864" lon="5.56414">
        <ele>825.6</ele>
        <time>2026-05-09T15:20:35Z</time>
      </trkpt>
      <trkpt lat="45.98641" lon="5.56417">
        <ele>825.8</ele>
        <time>2026-05-09T15:20:36Z</time>
      </trkpt>
      <trkpt lat="45.98642" lon="5.5642">
        <ele>825.8</ele>
        <time>2026-05-09T15:20:37Z</time>
      </trkpt>
      <trkpt lat="45.98643" lon="5.56424">
        <ele>825.8</ele>
        <time>2026-05-09T15:20:38Z</time>
      </trkpt>
      <trkpt lat="45.98644" lon="5.56428">
        <ele>825.8</ele>
        <time>2026-05-09T15:20:39Z</time>
      </trkpt>
      <trkpt lat="45.98644" lon="5.56431">
        <ele>826.2</ele>
        <time>2026-05-09T15:20:40Z</time>
      </trkpt>
      <trkpt lat="45.98645" lon="5.56434">
        <ele>826.2</ele>
        <time>2026-05-09T15:20:41Z</time>
      </trkpt>
      <trkpt lat="45.98645" lon="5.56438">
        <ele>826.2</ele>
        <time>2026-05-09T15:20:42Z</time>
      </trkpt>
      <trkpt lat="45.98646" lon="5.56442">
        <ele>826.6</ele>
        <time>2026-05-09T15:20:43Z</time>
      </trkpt>
      <trkpt lat="45.98646" lon="5.56444">
        <ele>826.6</ele>
        <time>2026-05-09T15:20:44Z</time>
      </trkpt>
      <trkpt lat="45.98646" lon="5.56445">
        <ele>826.6</ele>
        <time>2026-05-09T15:20:45Z</time>
      </trkpt>
      <trkpt lat="45.98646" lon="5.56448">
        <ele>827</ele>
        <time>2026-05-09T15:20:46Z</time>
      </trkpt>
      <trkpt lat="45.98647" lon="5.56449">
        <ele>827</ele>
        <time>2026-05-09T15:20:47Z</time>
      </trkpt>
      <trkpt lat="45.98647" lon="5.5645">
        <ele>827.2</ele>
        <time>2026-05-09T15:20:48Z</time>
      </trkpt>
      <trkpt lat="45.98647" lon="5.56451">
        <ele>827.2</ele>
        <time>2026-05-09T15:20:49Z</time>
      </trkpt>
      <trkpt lat="45.98648" lon="5.56452">
        <ele>827.2</ele>
        <time>2026-05-09T15:20:50Z</time>
      </trkpt>
      <trkpt lat="45.98648" lon="5.56453">
        <ele>827.4</ele>
        <time>2026-05-09T15:20:51Z</time>
      </trkpt>
      <trkpt lat="45.98649" lon="5.56455">
        <ele>827.4</ele>
        <time>2026-05-09T15:20:52Z</time>
      </trkpt>
      <trkpt lat="45.9865" lon="5.56456">
        <ele>827.4</ele>
        <time>2026-05-09T15:20:53Z</time>
      </trkpt>
      <trkpt lat="45.9865" lon="5.56457">
        <ele>827.8</ele>
        <time>2026-05-09T15:20:54Z</time>
      </trkpt>
      <trkpt lat="45.98651" lon="5.56459">
        <ele>827.8</ele>
        <time>2026-05-09T15:20:55Z</time>
      </trkpt>
      <trkpt lat="45.98651" lon="5.5646">
        <ele>827</ele>
        <time>2026-05-09T15:20:56Z</time>
      </trkpt>
      <trkpt lat="45.98652" lon="5.56461">
        <ele>827</ele>
        <time>2026-05-09T15:20:57Z</time>
      </trkpt>
      <trkpt lat="45.98653" lon="5.56463">
        <ele>827.8</ele>
        <time>2026-05-09T15:20:58Z</time>
      </trkpt>
      <trkpt lat="45.98655" lon="5.56464">
        <ele>827.6</ele>
        <time>2026-05-09T15:20:59Z</time>
      </trkpt>
      <trkpt lat="45.98655" lon="5.56465">
        <ele>828.2</ele>
        <time>2026-05-09T15:21:00Z</time>
      </trkpt>
      <trkpt lat="45.98656" lon="5.56467">
        <ele>828.2</ele>
        <time>2026-05-09T15:21:01Z</time>
      </trkpt>
      <trkpt lat="45.98657" lon="5.56468">
        <ele>827.8</ele>
        <time>2026-05-09T15:21:02Z</time>
      </trkpt>
      <trkpt lat="45.98657" lon="5.56469">
        <ele>828.6</ele>
        <time>2026-05-09T15:21:03Z</time>
      </trkpt>
      <trkpt lat="45.98658" lon="5.5647">
        <ele>828.8</ele>
        <time>2026-05-09T15:21:04Z</time>
      </trkpt>
      <trkpt lat="45.98659" lon="5.56472">
        <ele>828.8</ele>
        <time>2026-05-09T15:21:05Z</time>
      </trkpt>
      <trkpt lat="45.9866" lon="5.56473">
        <ele>828.8</ele>
        <time>2026-05-09T15:21:06Z</time>
      </trkpt>
      <trkpt lat="45.98661" lon="5.56476">
        <ele>828.8</ele>
        <time>2026-05-09T15:21:07Z</time>
      </trkpt>
      <trkpt lat="45.98661" lon="5.56477">
        <ele>828.8</ele>
        <time>2026-05-09T15:21:08Z</time>
      </trkpt>
      <trkpt lat="45.98662" lon="5.56479">
        <ele>828.8</ele>
        <time>2026-05-09T15:21:09Z</time>
      </trkpt>
      <trkpt lat="45.98664" lon="5.5648">
        <ele>828.8</ele>
        <time>2026-05-09T15:21:10Z</time>
      </trkpt>
      <trkpt lat="45.98665" lon="5.56482">
        <ele>828.4</ele>
        <time>2026-05-09T15:21:11Z</time>
      </trkpt>
      <trkpt lat="45.98666" lon="5.56484">
        <ele>829</ele>
        <time>2026-05-09T15:21:12Z</time>
      </trkpt>
      <trkpt lat="45.98667" lon="5.56485">
        <ele>829.2</ele>
        <time>2026-05-09T15:21:13Z</time>
      </trkpt>
      <trkpt lat="45.98668" lon="5.56486">
        <ele>829.2</ele>
        <time>2026-05-09T15:21:14Z</time>
      </trkpt>
      <trkpt lat="45.98669" lon="5.56488">
        <ele>829.4</ele>
        <time>2026-05-09T15:21:15Z</time>
      </trkpt>
      <trkpt lat="45.98671" lon="5.5649">
        <ele>829.4</ele>
        <time>2026-05-09T15:21:16Z</time>
      </trkpt>
      <trkpt lat="45.98672" lon="5.56491">
        <ele>829.4</ele>
        <time>2026-05-09T15:21:17Z</time>
      </trkpt>
      <trkpt lat="45.98673" lon="5.56493">
        <ele>829.4</ele>
        <time>2026-05-09T15:21:18Z</time>
      </trkpt>
      <trkpt lat="45.98674" lon="5.56495">
        <ele>829.8</ele>
        <time>2026-05-09T15:21:19Z</time>
      </trkpt>
      <trkpt lat="45.98676" lon="5.56497">
        <ele>829.8</ele>
        <time>2026-05-09T15:21:20Z</time>
      </trkpt>
      <trkpt lat="45.98677" lon="5.56499">
        <ele>829.8</ele>
        <time>2026-05-09T15:21:21Z</time>
      </trkpt>
      <trkpt lat="45.98678" lon="5.565">
        <ele>829.8</ele>
        <time>2026-05-09T15:21:22Z</time>
      </trkpt>
      <trkpt lat="45.98679" lon="5.56503">
        <ele>830</ele>
        <time>2026-05-09T15:21:23Z</time>
      </trkpt>
      <trkpt lat="45.98681" lon="5.56505">
        <ele>830</ele>
        <time>2026-05-09T15:21:24Z</time>
      </trkpt>
      <trkpt lat="45.98682" lon="5.56507">
        <ele>830</ele>
        <time>2026-05-09T15:21:25Z</time>
      </trkpt>
      <trkpt lat="45.98683" lon="5.56508">
        <ele>830.4</ele>
        <time>2026-05-09T15:21:26Z</time>
      </trkpt>
      <trkpt lat="45.98685" lon="5.5651">
        <ele>830.4</ele>
        <time>2026-05-09T15:21:27Z</time>
      </trkpt>
      <trkpt lat="45.98686" lon="5.56512">
        <ele>830.6</ele>
        <time>2026-05-09T15:21:28Z</time>
      </trkpt>
      <trkpt lat="45.98687" lon="5.56514">
        <ele>830.8</ele>
        <time>2026-05-09T15:21:29Z</time>
      </trkpt>
      <trkpt lat="45.98689" lon="5.56516">
        <ele>830.8</ele>
        <time>2026-05-09T15:21:30Z</time>
      </trkpt>
      <trkpt lat="45.9869" lon="5.56518">
        <ele>830.8</ele>
        <time>2026-05-09T15:21:31Z</time>
      </trkpt>
      <trkpt lat="45.98691" lon="5.5652">
        <ele>831.2</ele>
        <time>2026-05-09T15:21:32Z</time>
      </trkpt>
      <trkpt lat="45.98692" lon="5.56523">
        <ele>831.2</ele>
        <time>2026-05-09T15:21:33Z</time>
      </trkpt>
      <trkpt lat="45.98693" lon="5.56525">
        <ele>831.2</ele>
        <time>2026-05-09T15:21:34Z</time>
      </trkpt>
      <trkpt lat="45.98694" lon="5.56527">
        <ele>831.2</ele>
        <time>2026-05-09T15:21:35Z</time>
      </trkpt>
      <trkpt lat="45.98695" lon="5.56529">
        <ele>831.2</ele>
        <time>2026-05-09T15:21:36Z</time>
      </trkpt>
      <trkpt lat="45.98697" lon="5.56534">
        <ele>831.2</ele>
        <time>2026-05-09T15:21:37Z</time>
      </trkpt>
      <trkpt lat="45.98698" lon="5.56536">
        <ele>831.6</ele>
        <time>2026-05-09T15:21:38Z</time>
      </trkpt>
      <trkpt lat="45.98699" lon="5.56538">
        <ele>831.6</ele>
        <time>2026-05-09T15:21:39Z</time>
      </trkpt>
      <trkpt lat="45.987" lon="5.5654">
        <ele>831.6</ele>
        <time>2026-05-09T15:21:40Z</time>
      </trkpt>
      <trkpt lat="45.98701" lon="5.56543">
        <ele>831.8</ele>
        <time>2026-05-09T15:21:41Z</time>
      </trkpt>
      <trkpt lat="45.98702" lon="5.56545">
        <ele>831.8</ele>
        <time>2026-05-09T15:21:42Z</time>
      </trkpt>
      <trkpt lat="45.98703" lon="5.56547">
        <ele>831.8</ele>
        <time>2026-05-09T15:21:43Z</time>
      </trkpt>
      <trkpt lat="45.98704" lon="5.56549">
        <ele>832</ele>
        <time>2026-05-09T15:21:44Z</time>
      </trkpt>
      <trkpt lat="45.98705" lon="5.56552">
        <ele>832</ele>
        <time>2026-05-09T15:21:45Z</time>
      </trkpt>
      <trkpt lat="45.98706" lon="5.56554">
        <ele>832</ele>
        <time>2026-05-09T15:21:46Z</time>
      </trkpt>
      <trkpt lat="45.98707" lon="5.56556">
        <ele>832.2</ele>
        <time>2026-05-09T15:21:47Z</time>
      </trkpt>
      <trkpt lat="45.98708" lon="5.56558">
        <ele>832.2</ele>
        <time>2026-05-09T15:21:48Z</time>
      </trkpt>
      <trkpt lat="45.98709" lon="5.5656">
        <ele>832.2</ele>
        <time>2026-05-09T15:21:49Z</time>
      </trkpt>
      <trkpt lat="45.9871" lon="5.56562">
        <ele>832.4</ele>
        <time>2026-05-09T15:21:50Z</time>
      </trkpt>
      <trkpt lat="45.98711" lon="5.56564">
        <ele>832.4</ele>
        <time>2026-05-09T15:21:51Z</time>
      </trkpt>
      <trkpt lat="45.98712" lon="5.56566">
        <ele>832.4</ele>
        <time>2026-05-09T15:21:52Z</time>
      </trkpt>
      <trkpt lat="45.98714" lon="5.56568">
        <ele>832.4</ele>
        <time>2026-05-09T15:21:53Z</time>
      </trkpt>
      <trkpt lat="45.98715" lon="5.5657">
        <ele>832.8</ele>
        <time>2026-05-09T15:21:54Z</time>
      </trkpt>
      <trkpt lat="45.98716" lon="5.56572">
        <ele>833</ele>
        <time>2026-05-09T15:21:55Z</time>
      </trkpt>
      <trkpt lat="45.98717" lon="5.56574">
        <ele>833</ele>
        <time>2026-05-09T15:21:56Z</time>
      </trkpt>
      <trkpt lat="45.98718" lon="5.56576">
        <ele>833.2</ele>
        <time>2026-05-09T15:21:57Z</time>
      </trkpt>
      <trkpt lat="45.9872" lon="5.56578">
        <ele>833.2</ele>
        <time>2026-05-09T15:21:58Z</time>
      </trkpt>
      <trkpt lat="45.98721" lon="5.5658">
        <ele>833.2</ele>
        <time>2026-05-09T15:21:59Z</time>
      </trkpt>
      <trkpt lat="45.98722" lon="5.56583">
        <ele>833.6</ele>
        <time>2026-05-09T15:22:00Z</time>
      </trkpt>
      <trkpt lat="45.98724" lon="5.56585">
        <ele>833.6</ele>
        <time>2026-05-09T15:22:01Z</time>
      </trkpt>
      <trkpt lat="45.98725" lon="5.56588">
        <ele>833.6</ele>
        <time>2026-05-09T15:22:02Z</time>
      </trkpt>
      <trkpt lat="45.98726" lon="5.5659">
        <ele>833.8</ele>
        <time>2026-05-09T15:22:03Z</time>
      </trkpt>
      <trkpt lat="45.98727" lon="5.56593">
        <ele>833.8</ele>
        <time>2026-05-09T15:22:04Z</time>
      </trkpt>
      <trkpt lat="45.98728" lon="5.56595">
        <ele>834.2</ele>
        <time>2026-05-09T15:22:05Z</time>
      </trkpt>
      <trkpt lat="45.98729" lon="5.56597">
        <ele>834.2</ele>
        <time>2026-05-09T15:22:06Z</time>
      </trkpt>
      <trkpt lat="45.9873" lon="5.566">
        <ele>834.2</ele>
        <time>2026-05-09T15:22:07Z</time>
      </trkpt>
      <trkpt lat="45.98732" lon="5.56602">
        <ele>834.6</ele>
        <time>2026-05-09T15:22:08Z</time>
      </trkpt>
      <trkpt lat="45.98733" lon="5.56604">
        <ele>834.6</ele>
        <time>2026-05-09T15:22:09Z</time>
      </trkpt>
      <trkpt lat="45.98734" lon="5.56606">
        <ele>834.6</ele>
        <time>2026-05-09T15:22:10Z</time>
      </trkpt>
      <trkpt lat="45.98735" lon="5.56608">
        <ele>834.8</ele>
        <time>2026-05-09T15:22:11Z</time>
      </trkpt>
      <trkpt lat="45.98737" lon="5.56611">
        <ele>834.8</ele>
        <time>2026-05-09T15:22:12Z</time>
      </trkpt>
      <trkpt lat="45.98738" lon="5.56613">
        <ele>835</ele>
        <time>2026-05-09T15:22:13Z</time>
      </trkpt>
      <trkpt lat="45.98739" lon="5.56616">
        <ele>835</ele>
        <time>2026-05-09T15:22:14Z</time>
      </trkpt>
      <trkpt lat="45.98741" lon="5.56618">
        <ele>835.2</ele>
        <time>2026-05-09T15:22:15Z</time>
      </trkpt>
      <trkpt lat="45.98742" lon="5.5662">
        <ele>835.2</ele>
        <time>2026-05-09T15:22:16Z</time>
      </trkpt>
      <trkpt lat="45.98743" lon="5.56623">
        <ele>835.6</ele>
        <time>2026-05-09T15:22:17Z</time>
      </trkpt>
      <trkpt lat="45.98744" lon="5.56625">
        <ele>835.6</ele>
        <time>2026-05-09T15:22:18Z</time>
      </trkpt>
      <trkpt lat="45.98746" lon="5.56628">
        <ele>836</ele>
        <time>2026-05-09T15:22:19Z</time>
      </trkpt>
      <trkpt lat="45.98747" lon="5.5663">
        <ele>836.2</ele>
        <time>2026-05-09T15:22:20Z</time>
      </trkpt>
      <trkpt lat="45.98748" lon="5.56632">
        <ele>836.2</ele>
        <time>2026-05-09T15:22:21Z</time>
      </trkpt>
      <trkpt lat="45.9875" lon="5.56634">
        <ele>836.2</ele>
        <time>2026-05-09T15:22:22Z</time>
      </trkpt>
      <trkpt lat="45.98752" lon="5.56637">
        <ele>836.6</ele>
        <time>2026-05-09T15:22:23Z</time>
      </trkpt>
      <trkpt lat="45.98754" lon="5.56639">
        <ele>836.6</ele>
        <time>2026-05-09T15:22:24Z</time>
      </trkpt>
      <trkpt lat="45.98756" lon="5.5664">
        <ele>837</ele>
        <time>2026-05-09T15:22:25Z</time>
      </trkpt>
      <trkpt lat="45.98758" lon="5.56641">
        <ele>837</ele>
        <time>2026-05-09T15:22:26Z</time>
      </trkpt>
      <trkpt lat="45.98759" lon="5.56643">
        <ele>837.2</ele>
        <time>2026-05-09T15:22:27Z</time>
      </trkpt>
      <trkpt lat="45.9876" lon="5.56645">
        <ele>837.2</ele>
        <time>2026-05-09T15:22:28Z</time>
      </trkpt>
      <trkpt lat="45.98761" lon="5.56647">
        <ele>837.2</ele>
        <time>2026-05-09T15:22:29Z</time>
      </trkpt>
      <trkpt lat="45.98762" lon="5.56649">
        <ele>837.4</ele>
        <time>2026-05-09T15:22:30Z</time>
      </trkpt>
      <trkpt lat="45.98764" lon="5.56651">
        <ele>837.4</ele>
        <time>2026-05-09T15:22:31Z</time>
      </trkpt>
      <trkpt lat="45.98765" lon="5.56653">
        <ele>837.8</ele>
        <time>2026-05-09T15:22:32Z</time>
      </trkpt>
      <trkpt lat="45.98766" lon="5.56655">
        <ele>837.8</ele>
        <time>2026-05-09T15:22:33Z</time>
      </trkpt>
      <trkpt lat="45.98768" lon="5.56657">
        <ele>837.8</ele>
        <time>2026-05-09T15:22:34Z</time>
      </trkpt>
      <trkpt lat="45.98769" lon="5.56659">
        <ele>838</ele>
        <time>2026-05-09T15:22:35Z</time>
      </trkpt>
      <trkpt lat="45.98771" lon="5.5666">
        <ele>838</ele>
        <time>2026-05-09T15:22:36Z</time>
      </trkpt>
      <trkpt lat="45.98772" lon="5.56662">
        <ele>838.4</ele>
        <time>2026-05-09T15:22:37Z</time>
      </trkpt>
      <trkpt lat="45.98773" lon="5.56664">
        <ele>838.4</ele>
        <time>2026-05-09T15:22:38Z</time>
      </trkpt>
      <trkpt lat="45.98775" lon="5.56667">
        <ele>838.8</ele>
        <time>2026-05-09T15:22:39Z</time>
      </trkpt>
      <trkpt lat="45.98776" lon="5.5667">
        <ele>838.8</ele>
        <time>2026-05-09T15:22:40Z</time>
      </trkpt>
      <trkpt lat="45.98778" lon="5.56672">
        <ele>839</ele>
        <time>2026-05-09T15:22:41Z</time>
      </trkpt>
      <trkpt lat="45.98779" lon="5.56675">
        <ele>839</ele>
        <time>2026-05-09T15:22:42Z</time>
      </trkpt>
      <trkpt lat="45.9878" lon="5.56677">
        <ele>839</ele>
        <time>2026-05-09T15:22:43Z</time>
      </trkpt>
      <trkpt lat="45.98781" lon="5.5668">
        <ele>839</ele>
        <time>2026-05-09T15:22:44Z</time>
      </trkpt>
      <trkpt lat="45.98782" lon="5.56683">
        <ele>839.2</ele>
        <time>2026-05-09T15:22:45Z</time>
      </trkpt>
      <trkpt lat="45.98783" lon="5.56686">
        <ele>839.4</ele>
        <time>2026-05-09T15:22:46Z</time>
      </trkpt>
      <trkpt lat="45.98783" lon="5.56688">
        <ele>839.4</ele>
        <time>2026-05-09T15:22:47Z</time>
      </trkpt>
      <trkpt lat="45.98784" lon="5.56691">
        <ele>839.6</ele>
        <time>2026-05-09T15:22:48Z</time>
      </trkpt>
      <trkpt lat="45.98785" lon="5.56694">
        <ele>839.6</ele>
        <time>2026-05-09T15:22:49Z</time>
      </trkpt>
      <trkpt lat="45.98785" lon="5.56697">
        <ele>840</ele>
        <time>2026-05-09T15:22:50Z</time>
      </trkpt>
      <trkpt lat="45.98786" lon="5.567">
        <ele>840</ele>
        <time>2026-05-09T15:22:51Z</time>
      </trkpt>
      <trkpt lat="45.98786" lon="5.56703">
        <ele>840</ele>
        <time>2026-05-09T15:22:52Z</time>
      </trkpt>
      <trkpt lat="45.98786" lon="5.56706">
        <ele>840.2</ele>
        <time>2026-05-09T15:22:53Z</time>
      </trkpt>
      <trkpt lat="45.98786" lon="5.56709">
        <ele>840.2</ele>
        <time>2026-05-09T15:22:54Z</time>
      </trkpt>
      <trkpt lat="45.98787" lon="5.56712">
        <ele>840.6</ele>
        <time>2026-05-09T15:22:55Z</time>
      </trkpt>
      <trkpt lat="45.98787" lon="5.56715">
        <ele>840.8</ele>
        <time>2026-05-09T15:22:56Z</time>
      </trkpt>
      <trkpt lat="45.98788" lon="5.56718">
        <ele>840.8</ele>
        <time>2026-05-09T15:22:57Z</time>
      </trkpt>
      <trkpt lat="45.98788" lon="5.56721">
        <ele>841</ele>
        <time>2026-05-09T15:22:58Z</time>
      </trkpt>
      <trkpt lat="45.98788" lon="5.56725">
        <ele>841</ele>
        <time>2026-05-09T15:22:59Z</time>
      </trkpt>
      <trkpt lat="45.98787" lon="5.56728">
        <ele>841.2</ele>
        <time>2026-05-09T15:23:00Z</time>
      </trkpt>
      <trkpt lat="45.98787" lon="5.56731">
        <ele>841.2</ele>
        <time>2026-05-09T15:23:01Z</time>
      </trkpt>
      <trkpt lat="45.98787" lon="5.56735">
        <ele>841.2</ele>
        <time>2026-05-09T15:23:02Z</time>
      </trkpt>
      <trkpt lat="45.98786" lon="5.56737">
        <ele>841.6</ele>
        <time>2026-05-09T15:23:03Z</time>
      </trkpt>
      <trkpt lat="45.98786" lon="5.5674">
        <ele>841.6</ele>
        <time>2026-05-09T15:23:04Z</time>
      </trkpt>
      <trkpt lat="45.98785" lon="5.56743">
        <ele>841.8</ele>
        <time>2026-05-09T15:23:05Z</time>
      </trkpt>
      <trkpt lat="45.98784" lon="5.56745">
        <ele>841.8</ele>
        <time>2026-05-09T15:23:06Z</time>
      </trkpt>
      <trkpt lat="45.98783" lon="5.56748">
        <ele>842</ele>
        <time>2026-05-09T15:23:07Z</time>
      </trkpt>
      <trkpt lat="45.98781" lon="5.5675">
        <ele>842</ele>
        <time>2026-05-09T15:23:08Z</time>
      </trkpt>
      <trkpt lat="45.9878" lon="5.56752">
        <ele>842.2</ele>
        <time>2026-05-09T15:23:09Z</time>
      </trkpt>
      <trkpt lat="45.98779" lon="5.56754">
        <ele>842.2</ele>
        <time>2026-05-09T15:23:10Z</time>
      </trkpt>
      <trkpt lat="45.98778" lon="5.56757">
        <ele>842.2</ele>
        <time>2026-05-09T15:23:11Z</time>
      </trkpt>
      <trkpt lat="45.98777" lon="5.56759">
        <ele>842.6</ele>
        <time>2026-05-09T15:23:12Z</time>
      </trkpt>
      <trkpt lat="45.98776" lon="5.56762">
        <ele>842.8</ele>
        <time>2026-05-09T15:23:13Z</time>
      </trkpt>
      <trkpt lat="45.98776" lon="5.56764">
        <ele>843</ele>
        <time>2026-05-09T15:23:14Z</time>
      </trkpt>
      <trkpt lat="45.98775" lon="5.56766">
        <ele>843</ele>
        <time>2026-05-09T15:23:15Z</time>
      </trkpt>
      <trkpt lat="45.98774" lon="5.56768">
        <ele>843.2</ele>
        <time>2026-05-09T15:23:16Z</time>
      </trkpt>
      <trkpt lat="45.98772" lon="5.5677">
        <ele>843.2</ele>
        <time>2026-05-09T15:23:17Z</time>
      </trkpt>
      <trkpt lat="45.9877" lon="5.56771">
        <ele>843.6</ele>
        <time>2026-05-09T15:23:18Z</time>
      </trkpt>
      <trkpt lat="45.9877" lon="5.56771">
        <ele>843.6</ele>
        <time>2026-05-09T15:23:19Z</time>
      </trkpt>
      <trkpt lat="45.98769" lon="5.56773">
        <ele>843.8</ele>
        <time>2026-05-09T15:23:20Z</time>
      </trkpt>
      <trkpt lat="45.98768" lon="5.56775">
        <ele>843.8</ele>
        <time>2026-05-09T15:23:21Z</time>
      </trkpt>
      <trkpt lat="45.98767" lon="5.56777">
        <ele>843.8</ele>
        <time>2026-05-09T15:23:22Z</time>
      </trkpt>
      <trkpt lat="45.98767" lon="5.5678">
        <ele>844</ele>
        <time>2026-05-09T15:23:23Z</time>
      </trkpt>
      <trkpt lat="45.98766" lon="5.56782">
        <ele>844</ele>
        <time>2026-05-09T15:23:24Z</time>
      </trkpt>
      <trkpt lat="45.98765" lon="5.56785">
        <ele>844</ele>
        <time>2026-05-09T15:23:25Z</time>
      </trkpt>
      <trkpt lat="45.98764" lon="5.56788">
        <ele>844.2</ele>
        <time>2026-05-09T15:23:26Z</time>
      </trkpt>
      <trkpt lat="45.98764" lon="5.56791">
        <ele>844.2</ele>
        <time>2026-05-09T15:23:27Z</time>
      </trkpt>
      <trkpt lat="45.98763" lon="5.56794">
        <ele>844.4</ele>
        <time>2026-05-09T15:23:28Z</time>
      </trkpt>
      <trkpt lat="45.98762" lon="5.56797">
        <ele>844.4</ele>
        <time>2026-05-09T15:23:29Z</time>
      </trkpt>
      <trkpt lat="45.98762" lon="5.56799">
        <ele>844.4</ele>
        <time>2026-05-09T15:23:30Z</time>
      </trkpt>
      <trkpt lat="45.98762" lon="5.56802">
        <ele>844.4</ele>
        <time>2026-05-09T15:23:31Z</time>
      </trkpt>
      <trkpt lat="45.98761" lon="5.56805">
        <ele>844.6</ele>
        <time>2026-05-09T15:23:32Z</time>
      </trkpt>
      <trkpt lat="45.9876" lon="5.56807">
        <ele>844.6</ele>
        <time>2026-05-09T15:23:33Z</time>
      </trkpt>
      <trkpt lat="45.98759" lon="5.56809">
        <ele>844.6</ele>
        <time>2026-05-09T15:23:34Z</time>
      </trkpt>
      <trkpt lat="45.98758" lon="5.56812">
        <ele>844.6</ele>
        <time>2026-05-09T15:23:35Z</time>
      </trkpt>
      <trkpt lat="45.98757" lon="5.56814">
        <ele>844.6</ele>
        <time>2026-05-09T15:23:36Z</time>
      </trkpt>
      <trkpt lat="45.98756" lon="5.56816">
        <ele>845</ele>
        <time>2026-05-09T15:23:37Z</time>
      </trkpt>
      <trkpt lat="45.98755" lon="5.56819">
        <ele>845</ele>
        <time>2026-05-09T15:23:38Z</time>
      </trkpt>
      <trkpt lat="45.98754" lon="5.56822">
        <ele>845.4</ele>
        <time>2026-05-09T15:23:39Z</time>
      </trkpt>
      <trkpt lat="45.98753" lon="5.56825">
        <ele>845.4</ele>
        <time>2026-05-09T15:23:40Z</time>
      </trkpt>
      <trkpt lat="45.98752" lon="5.56827">
        <ele>845.4</ele>
        <time>2026-05-09T15:23:41Z</time>
      </trkpt>
      <trkpt lat="45.98752" lon="5.56829">
        <ele>845.4</ele>
        <time>2026-05-09T15:23:42Z</time>
      </trkpt>
      <trkpt lat="45.98751" lon="5.56832">
        <ele>845.4</ele>
        <time>2026-05-09T15:23:43Z</time>
      </trkpt>
      <trkpt lat="45.9875" lon="5.56836">
        <ele>845.6</ele>
        <time>2026-05-09T15:23:44Z</time>
      </trkpt>
      <trkpt lat="45.98749" lon="5.5684">
        <ele>845.6</ele>
        <time>2026-05-09T15:23:45Z</time>
      </trkpt>
      <trkpt lat="45.98748" lon="5.56843">
        <ele>845.6</ele>
        <time>2026-05-09T15:23:46Z</time>
      </trkpt>
      <trkpt lat="45.98747" lon="5.56846">
        <ele>846.2</ele>
        <time>2026-05-09T15:23:47Z</time>
      </trkpt>
      <trkpt lat="45.98746" lon="5.56849">
        <ele>846.2</ele>
        <time>2026-05-09T15:23:48Z</time>
      </trkpt>
      <trkpt lat="45.98746" lon="5.56852">
        <ele>846.4</ele>
        <time>2026-05-09T15:23:49Z</time>
      </trkpt>
      <trkpt lat="45.98745" lon="5.56855">
        <ele>846.4</ele>
        <time>2026-05-09T15:23:50Z</time>
      </trkpt>
      <trkpt lat="45.98745" lon="5.56859">
        <ele>846.4</ele>
        <time>2026-05-09T15:23:51Z</time>
      </trkpt>
      <trkpt lat="45.98745" lon="5.56863">
        <ele>846.8</ele>
        <time>2026-05-09T15:23:52Z</time>
      </trkpt>
      <trkpt lat="45.98744" lon="5.56866">
        <ele>846.8</ele>
        <time>2026-05-09T15:23:53Z</time>
      </trkpt>
      <trkpt lat="45.98743" lon="5.56868">
        <ele>847.2</ele>
        <time>2026-05-09T15:23:54Z</time>
      </trkpt>
      <trkpt lat="45.98743" lon="5.56871">
        <ele>847.2</ele>
        <time>2026-05-09T15:23:55Z</time>
      </trkpt>
      <trkpt lat="45.98743" lon="5.56873">
        <ele>847.2</ele>
        <time>2026-05-09T15:23:56Z</time>
      </trkpt>
      <trkpt lat="45.98742" lon="5.56876">
        <ele>847.4</ele>
        <time>2026-05-09T15:23:57Z</time>
      </trkpt>
      <trkpt lat="45.98742" lon="5.56879">
        <ele>847.4</ele>
        <time>2026-05-09T15:23:58Z</time>
      </trkpt>
      <trkpt lat="45.98742" lon="5.56882">
        <ele>847.6</ele>
        <time>2026-05-09T15:23:59Z</time>
      </trkpt>
      <trkpt lat="45.98742" lon="5.56885">
        <ele>847.8</ele>
        <time>2026-05-09T15:24:00Z</time>
      </trkpt>
      <trkpt lat="45.98742" lon="5.56888">
        <ele>848</ele>
        <time>2026-05-09T15:24:01Z</time>
      </trkpt>
      <trkpt lat="45.98742" lon="5.56891">
        <ele>848</ele>
        <time>2026-05-09T15:24:02Z</time>
      </trkpt>
      <trkpt lat="45.98741" lon="5.56893">
        <ele>848.4</ele>
        <time>2026-05-09T15:24:03Z</time>
      </trkpt>
      <trkpt lat="45.98741" lon="5.56895">
        <ele>848.4</ele>
        <time>2026-05-09T15:24:04Z</time>
      </trkpt>
      <trkpt lat="45.98741" lon="5.56898">
        <ele>848.6</ele>
        <time>2026-05-09T15:24:05Z</time>
      </trkpt>
      <trkpt lat="45.98741" lon="5.56902">
        <ele>848.6</ele>
        <time>2026-05-09T15:24:06Z</time>
      </trkpt>
      <trkpt lat="45.98741" lon="5.56905">
        <ele>848.6</ele>
        <time>2026-05-09T15:24:07Z</time>
      </trkpt>
      <trkpt lat="45.98741" lon="5.56908">
        <ele>849</ele>
        <time>2026-05-09T15:24:08Z</time>
      </trkpt>
      <trkpt lat="45.98742" lon="5.56911">
        <ele>849</ele>
        <time>2026-05-09T15:24:09Z</time>
      </trkpt>
      <trkpt lat="45.98741" lon="5.56913">
        <ele>849.2</ele>
        <time>2026-05-09T15:24:10Z</time>
      </trkpt>
      <trkpt lat="45.98741" lon="5.56916">
        <ele>849.2</ele>
        <time>2026-05-09T15:24:11Z</time>
      </trkpt>
      <trkpt lat="45.9874" lon="5.56919">
        <ele>849.2</ele>
        <time>2026-05-09T15:24:12Z</time>
      </trkpt>
      <trkpt lat="45.9874" lon="5.56922">
        <ele>849.6</ele>
        <time>2026-05-09T15:24:13Z</time>
      </trkpt>
      <trkpt lat="45.98739" lon="5.56925">
        <ele>849.6</ele>
        <time>2026-05-09T15:24:14Z</time>
      </trkpt>
      <trkpt lat="45.98739" lon="5.56928">
        <ele>849.6</ele>
        <time>2026-05-09T15:24:15Z</time>
      </trkpt>
      <trkpt lat="45.98739" lon="5.5693">
        <ele>849.8</ele>
        <time>2026-05-09T15:24:16Z</time>
      </trkpt>
      <trkpt lat="45.98738" lon="5.56933">
        <ele>850</ele>
        <time>2026-05-09T15:24:17Z</time>
      </trkpt>
      <trkpt lat="45.98738" lon="5.56936">
        <ele>850</ele>
        <time>2026-05-09T15:24:18Z</time>
      </trkpt>
      <trkpt lat="45.98738" lon="5.5694">
        <ele>850</ele>
        <time>2026-05-09T15:24:19Z</time>
      </trkpt>
      <trkpt lat="45.98738" lon="5.56943">
        <ele>850</ele>
        <time>2026-05-09T15:24:20Z</time>
      </trkpt>
      <trkpt lat="45.98738" lon="5.56946">
        <ele>850</ele>
        <time>2026-05-09T15:24:21Z</time>
      </trkpt>
      <trkpt lat="45.98737" lon="5.56949">
        <ele>850</ele>
        <time>2026-05-09T15:24:22Z</time>
      </trkpt>
      <trkpt lat="45.98737" lon="5.56953">
        <ele>850</ele>
        <time>2026-05-09T15:24:23Z</time>
      </trkpt>
      <trkpt lat="45.98736" lon="5.56957">
        <ele>850</ele>
        <time>2026-05-09T15:24:24Z</time>
      </trkpt>
      <trkpt lat="45.98736" lon="5.5696">
        <ele>850</ele>
        <time>2026-05-09T15:24:25Z</time>
      </trkpt>
      <trkpt lat="45.98735" lon="5.56964">
        <ele>850</ele>
        <time>2026-05-09T15:24:26Z</time>
      </trkpt>
      <trkpt lat="45.98735" lon="5.56966">
        <ele>850</ele>
        <time>2026-05-09T15:24:27Z</time>
      </trkpt>
      <trkpt lat="45.98736" lon="5.56967">
        <ele>850</ele>
        <time>2026-05-09T15:24:28Z</time>
      </trkpt>
      <trkpt lat="45.98736" lon="5.56967">
        <ele>850</ele>
        <time>2026-05-09T15:24:29Z</time>
      </trkpt>
      <trkpt lat="45.98737" lon="5.56967">
        <ele>850</ele>
        <time>2026-05-09T15:24:30Z</time>
      </trkpt>
      <trkpt lat="45.98739" lon="5.56967">
        <ele>850</ele>
        <time>2026-05-09T15:26:00Z</time>
      </trkpt>
      <trkpt lat="45.98739" lon="5.56969">
        <ele>849.8</ele>
        <time>2026-05-09T15:26:01Z</time>
      </trkpt>
      <trkpt lat="45.98738" lon="5.56971">
        <ele>849.8</ele>
        <time>2026-05-09T15:26:02Z</time>
      </trkpt>
      <trkpt lat="45.98738" lon="5.56973">
        <ele>849.8</ele>
        <time>2026-05-09T15:26:03Z</time>
      </trkpt>
      <trkpt lat="45.98737" lon="5.56975">
        <ele>849.8</ele>
        <time>2026-05-09T15:26:04Z</time>
      </trkpt>
      <trkpt lat="45.98736" lon="5.56977">
        <ele>849.8</ele>
        <time>2026-05-09T15:26:05Z</time>
      </trkpt>
      <trkpt lat="45.98736" lon="5.56978">
        <ele>849.8</ele>
        <time>2026-05-09T15:26:06Z</time>
      </trkpt>
      <trkpt lat="45.98735" lon="5.5698">
        <ele>849.8</ele>
        <time>2026-05-09T15:26:07Z</time>
      </trkpt>
      <trkpt lat="45.98734" lon="5.56982">
        <ele>849.8</ele>
        <time>2026-05-09T15:26:08Z</time>
      </trkpt>
      <trkpt lat="45.98733" lon="5.56983">
        <ele>849.8</ele>
        <time>2026-05-09T15:26:09Z</time>
      </trkpt>
      <trkpt lat="45.98733" lon="5.56983">
        <ele>849.8</ele>
        <time>2026-05-09T15:26:10Z</time>
      </trkpt>
      <trkpt lat="45.98733" lon="5.56984">
        <ele>849.8</ele>
        <time>2026-05-09T15:26:11Z</time>
      </trkpt>
      <trkpt lat="45.98732" lon="5.56985">
        <ele>849.8</ele>
        <time>2026-05-09T15:26:12Z</time>
      </trkpt>
      <trkpt lat="45.98731" lon="5.56987">
        <ele>849.8</ele>
        <time>2026-05-09T15:26:13Z</time>
      </trkpt>
      <trkpt lat="45.98731" lon="5.56988">
        <ele>849.8</ele>
        <time>2026-05-09T15:26:14Z</time>
      </trkpt>
      <trkpt lat="45.9873" lon="5.5699">
        <ele>849.8</ele>
        <time>2026-05-09T15:26:15Z</time>
      </trkpt>
      <trkpt lat="45.9873" lon="5.56991">
        <ele>849.8</ele>
        <time>2026-05-09T15:26:16Z</time>
      </trkpt>
      <trkpt lat="45.98729" lon="5.56992">
        <ele>849.8</ele>
        <time>2026-05-09T15:26:17Z</time>
      </trkpt>
      <trkpt lat="45.98729" lon="5.56993">
        <ele>849.8</ele>
        <time>2026-05-09T15:26:18Z</time>
      </trkpt>
      <trkpt lat="45.98728" lon="5.56994">
        <ele>849.8</ele>
        <time>2026-05-09T15:26:19Z</time>
      </trkpt>
      <trkpt lat="45.98727" lon="5.56995">
        <ele>849.8</ele>
        <time>2026-05-09T15:26:20Z</time>
      </trkpt>
      <trkpt lat="45.98726" lon="5.56995">
        <ele>849.8</ele>
        <time>2026-05-09T15:26:21Z</time>
      </trkpt>
      <trkpt lat="45.98725" lon="5.56995">
        <ele>849.8</ele>
        <time>2026-05-09T15:26:22Z</time>
      </trkpt>
      <trkpt lat="45.98725" lon="5.56996">
        <ele>849.8</ele>
        <time>2026-05-09T15:26:23Z</time>
      </trkpt>
      <trkpt lat="45.98725" lon="5.56996">
        <ele>849.8</ele>
        <time>2026-05-09T15:26:24Z</time>
      </trkpt>
      <trkpt lat="45.98725" lon="5.56996">
        <ele>849.8</ele>
        <time>2026-05-09T15:26:25Z</time>
      </trkpt>
      <trkpt lat="45.98724" lon="5.56998">
        <ele>849.8</ele>
        <time>2026-05-09T15:27:02Z</time>
      </trkpt>
      <trkpt lat="45.98724" lon="5.56999">
        <ele>849.8</ele>
        <time>2026-05-09T15:27:03Z</time>
      </trkpt>
      <trkpt lat="45.98725" lon="5.57">
        <ele>849.8</ele>
        <time>2026-05-09T15:27:04Z</time>
      </trkpt>
      <trkpt lat="45.98726" lon="5.57">
        <ele>849.8</ele>
        <time>2026-05-09T15:27:05Z</time>
      </trkpt>
      <trkpt lat="45.98727" lon="5.56999">
        <ele>849.8</ele>
        <time>2026-05-09T15:27:06Z</time>
      </trkpt>
      <trkpt lat="45.98728" lon="5.56998">
        <ele>849.8</ele>
        <time>2026-05-09T15:27:07Z</time>
      </trkpt>
      <trkpt lat="45.98728" lon="5.56996">
        <ele>849.8</ele>
        <time>2026-05-09T15:27:08Z</time>
      </trkpt>
      <trkpt lat="45.98729" lon="5.56994">
        <ele>849.8</ele>
        <time>2026-05-09T15:27:09Z</time>
      </trkpt>
      <trkpt lat="45.98729" lon="5.56992">
        <ele>849.8</ele>
        <time>2026-05-09T15:27:10Z</time>
      </trkpt>
      <trkpt lat="45.9873" lon="5.5699">
        <ele>849.8</ele>
        <time>2026-05-09T15:27:11Z</time>
      </trkpt>
      <trkpt lat="45.9873" lon="5.56989">
        <ele>849.8</ele>
        <time>2026-05-09T15:27:12Z</time>
      </trkpt>
      <trkpt lat="45.9873" lon="5.56987">
        <ele>849.8</ele>
        <time>2026-05-09T15:27:13Z</time>
      </trkpt>
      <trkpt lat="45.98731" lon="5.56985">
        <ele>849.8</ele>
        <time>2026-05-09T15:27:14Z</time>
      </trkpt>
      <trkpt lat="45.98731" lon="5.56984">
        <ele>849.8</ele>
        <time>2026-05-09T15:27:15Z</time>
      </trkpt>
      <trkpt lat="45.98732" lon="5.56983">
        <ele>849.8</ele>
        <time>2026-05-09T15:27:16Z</time>
      </trkpt>
      <trkpt lat="45.98733" lon="5.56982">
        <ele>849.8</ele>
        <time>2026-05-09T15:27:17Z</time>
      </trkpt>
      <trkpt lat="45.98733" lon="5.56982">
        <ele>849.8</ele>
        <time>2026-05-09T15:27:18Z</time>
      </trkpt>
      <trkpt lat="45.98733" lon="5.56982">
        <ele>849.8</ele>
        <time>2026-05-09T15:27:19Z</time>
      </trkpt>
      <trkpt lat="45.98735" lon="5.56982">
        <ele>850</ele>
        <time>2026-05-09T15:27:38Z</time>
      </trkpt>
      <trkpt lat="45.98735" lon="5.56981">
        <ele>850</ele>
        <time>2026-05-09T15:27:39Z</time>
      </trkpt>
      <trkpt lat="45.98734" lon="5.5698">
        <ele>850</ele>
        <time>2026-05-09T15:27:40Z</time>
      </trkpt>
      <trkpt lat="45.98733" lon="5.56981">
        <ele>850</ele>
        <time>2026-05-09T15:27:41Z</time>
      </trkpt>
      <trkpt lat="45.98732" lon="5.56983">
        <ele>850.2</ele>
        <time>2026-05-09T15:27:42Z</time>
      </trkpt>
      <trkpt lat="45.98732" lon="5.56985">
        <ele>850.2</ele>
        <time>2026-05-09T15:27:43Z</time>
      </trkpt>
      <trkpt lat="45.98731" lon="5.56986">
        <ele>850.2</ele>
        <time>2026-05-09T15:27:44Z</time>
      </trkpt>
      <trkpt lat="45.98731" lon="5.56988">
        <ele>850.2</ele>
        <time>2026-05-09T15:27:45Z</time>
      </trkpt>
      <trkpt lat="45.98731" lon="5.56989">
        <ele>850.2</ele>
        <time>2026-05-09T15:27:46Z</time>
      </trkpt>
      <trkpt lat="45.98731" lon="5.5699">
        <ele>850.2</ele>
        <time>2026-05-09T15:27:47Z</time>
      </trkpt>
      <trkpt lat="45.98731" lon="5.56992">
        <ele>850.2</ele>
        <time>2026-05-09T15:27:48Z</time>
      </trkpt>
      <trkpt lat="45.9873" lon="5.56993">
        <ele>850.2</ele>
        <time>2026-05-09T15:27:49Z</time>
      </trkpt>
      <trkpt lat="45.9873" lon="5.56995">
        <ele>850.2</ele>
        <time>2026-05-09T15:27:50Z</time>
      </trkpt>
      <trkpt lat="45.98729" lon="5.56996">
        <ele>850.2</ele>
        <time>2026-05-09T15:27:51Z</time>
      </trkpt>
      <trkpt lat="45.98729" lon="5.56998">
        <ele>850.2</ele>
        <time>2026-05-09T15:27:52Z</time>
      </trkpt>
      <trkpt lat="45.98728" lon="5.56999">
        <ele>850.4</ele>
        <time>2026-05-09T15:27:53Z</time>
      </trkpt>
      <trkpt lat="45.98727" lon="5.57001">
        <ele>850.4</ele>
        <time>2026-05-09T15:27:54Z</time>
      </trkpt>
      <trkpt lat="45.98727" lon="5.57003">
        <ele>850.4</ele>
        <time>2026-05-09T15:27:55Z</time>
      </trkpt>
      <trkpt lat="45.98726" lon="5.57005">
        <ele>850.4</ele>
        <time>2026-05-09T15:27:56Z</time>
      </trkpt>
      <trkpt lat="45.98724" lon="5.57007">
        <ele>850.4</ele>
        <time>2026-05-09T15:27:57Z</time>
      </trkpt>
      <trkpt lat="45.98723" lon="5.57009">
        <ele>850.4</ele>
        <time>2026-05-09T15:27:58Z</time>
      </trkpt>
      <trkpt lat="45.98722" lon="5.57011">
        <ele>850.2</ele>
        <time>2026-05-09T15:27:59Z</time>
      </trkpt>
      <trkpt lat="45.98721" lon="5.57012">
        <ele>850.2</ele>
        <time>2026-05-09T15:28:00Z</time>
      </trkpt>
      <trkpt lat="45.9872" lon="5.57013">
        <ele>850.2</ele>
        <time>2026-05-09T15:28:01Z</time>
      </trkpt>
      <trkpt lat="45.9872" lon="5.57015">
        <ele>850.2</ele>
        <time>2026-05-09T15:28:02Z</time>
      </trkpt>
      <trkpt lat="45.98719" lon="5.57017">
        <ele>850.2</ele>
        <time>2026-05-09T15:28:03Z</time>
      </trkpt>
      <trkpt lat="45.98718" lon="5.57019">
        <ele>849.8</ele>
        <time>2026-05-09T15:28:04Z</time>
      </trkpt>
      <trkpt lat="45.98717" lon="5.5702">
        <ele>849.8</ele>
        <time>2026-05-09T15:28:05Z</time>
      </trkpt>
      <trkpt lat="45.98716" lon="5.57021">
        <ele>849.8</ele>
        <time>2026-05-09T15:28:06Z</time>
      </trkpt>
      <trkpt lat="45.98715" lon="5.57023">
        <ele>849.8</ele>
        <time>2026-05-09T15:28:07Z</time>
      </trkpt>
      <trkpt lat="45.98714" lon="5.57025">
        <ele>849.8</ele>
        <time>2026-05-09T15:28:08Z</time>
      </trkpt>
      <trkpt lat="45.98713" lon="5.57027">
        <ele>849.8</ele>
        <time>2026-05-09T15:28:09Z</time>
      </trkpt>
      <trkpt lat="45.98712" lon="5.5703">
        <ele>849.6</ele>
        <time>2026-05-09T15:28:10Z</time>
      </trkpt>
      <trkpt lat="45.9871" lon="5.57032">
        <ele>849.6</ele>
        <time>2026-05-09T15:28:11Z</time>
      </trkpt>
      <trkpt lat="45.98708" lon="5.57034">
        <ele>849.6</ele>
        <time>2026-05-09T15:28:12Z</time>
      </trkpt>
      <trkpt lat="45.98706" lon="5.57036">
        <ele>849.6</ele>
        <time>2026-05-09T15:28:13Z</time>
      </trkpt>
      <trkpt lat="45.98705" lon="5.57038">
        <ele>849.8</ele>
        <time>2026-05-09T15:28:14Z</time>
      </trkpt>
      <trkpt lat="45.98702" lon="5.5704">
        <ele>849.8</ele>
        <time>2026-05-09T15:28:15Z</time>
      </trkpt>
      <trkpt lat="45.98701" lon="5.57042">
        <ele>849.4</ele>
        <time>2026-05-09T15:28:16Z</time>
      </trkpt>
      <trkpt lat="45.987" lon="5.57044">
        <ele>849.4</ele>
        <time>2026-05-09T15:28:17Z</time>
      </trkpt>
      <trkpt lat="45.98698" lon="5.57048">
        <ele>849.4</ele>
        <time>2026-05-09T15:28:18Z</time>
      </trkpt>
      <trkpt lat="45.98696" lon="5.57051">
        <ele>849.2</ele>
        <time>2026-05-09T15:28:19Z</time>
      </trkpt>
      <trkpt lat="45.98694" lon="5.57054">
        <ele>849.2</ele>
        <time>2026-05-09T15:28:20Z</time>
      </trkpt>
      <trkpt lat="45.98692" lon="5.57057">
        <ele>849</ele>
        <time>2026-05-09T15:28:21Z</time>
      </trkpt>
      <trkpt lat="45.9869" lon="5.5706">
        <ele>849</ele>
        <time>2026-05-09T15:28:22Z</time>
      </trkpt>
      <trkpt lat="45.98688" lon="5.57064">
        <ele>849</ele>
        <time>2026-05-09T15:28:23Z</time>
      </trkpt>
      <trkpt lat="45.98686" lon="5.57068">
        <ele>849</ele>
        <time>2026-05-09T15:28:24Z</time>
      </trkpt>
      <trkpt lat="45.98684" lon="5.57072">
        <ele>849</ele>
        <time>2026-05-09T15:28:25Z</time>
      </trkpt>
      <trkpt lat="45.98683" lon="5.57077">
        <ele>849</ele>
        <time>2026-05-09T15:28:26Z</time>
      </trkpt>
      <trkpt lat="45.98681" lon="5.57082">
        <ele>849</ele>
        <time>2026-05-09T15:28:27Z</time>
      </trkpt>
      <trkpt lat="45.9868" lon="5.57088">
        <ele>849</ele>
        <time>2026-05-09T15:28:28Z</time>
      </trkpt>
      <trkpt lat="45.98678" lon="5.57096">
        <ele>849</ele>
        <time>2026-05-09T15:28:29Z</time>
      </trkpt>
      <trkpt lat="45.98677" lon="5.57101">
        <ele>849</ele>
        <time>2026-05-09T15:28:30Z</time>
      </trkpt>
      <trkpt lat="45.98675" lon="5.57107">
        <ele>848.8</ele>
        <time>2026-05-09T15:28:31Z</time>
      </trkpt>
      <trkpt lat="45.98673" lon="5.57113">
        <ele>848.4</ele>
        <time>2026-05-09T15:28:32Z</time>
      </trkpt>
      <trkpt lat="45.98672" lon="5.57118">
        <ele>848.4</ele>
        <time>2026-05-09T15:28:33Z</time>
      </trkpt>
      <trkpt lat="45.98671" lon="5.57124">
        <ele>848.4</ele>
        <time>2026-05-09T15:28:34Z</time>
      </trkpt>
      <trkpt lat="45.9867" lon="5.5713">
        <ele>848.4</ele>
        <time>2026-05-09T15:28:35Z</time>
      </trkpt>
      <trkpt lat="45.98669" lon="5.57136">
        <ele>848.2</ele>
        <time>2026-05-09T15:28:36Z</time>
      </trkpt>
      <trkpt lat="45.98669" lon="5.57141">
        <ele>848.2</ele>
        <time>2026-05-09T15:28:37Z</time>
      </trkpt>
      <trkpt lat="45.98669" lon="5.57141">
        <ele>848.2</ele>
        <time>2026-05-09T15:28:38Z</time>
      </trkpt>
      <trkpt lat="45.98669" lon="5.57146">
        <ele>848.4</ele>
        <time>2026-05-09T15:28:39Z</time>
      </trkpt>
      <trkpt lat="45.98669" lon="5.57152">
        <ele>848.4</ele>
        <time>2026-05-09T15:28:40Z</time>
      </trkpt>
      <trkpt lat="45.98669" lon="5.57157">
        <ele>848.4</ele>
        <time>2026-05-09T15:28:41Z</time>
      </trkpt>
      <trkpt lat="45.9867" lon="5.57163">
        <ele>848.4</ele>
        <time>2026-05-09T15:28:42Z</time>
      </trkpt>
      <trkpt lat="45.98671" lon="5.57168">
        <ele>848.4</ele>
        <time>2026-05-09T15:28:43Z</time>
      </trkpt>
      <trkpt lat="45.98671" lon="5.57173">
        <ele>848.6</ele>
        <time>2026-05-09T15:28:44Z</time>
      </trkpt>
      <trkpt lat="45.98672" lon="5.57178">
        <ele>848.6</ele>
        <time>2026-05-09T15:28:45Z</time>
      </trkpt>
      <trkpt lat="45.98673" lon="5.57182">
        <ele>849</ele>
        <time>2026-05-09T15:28:46Z</time>
      </trkpt>
      <trkpt lat="45.98674" lon="5.57187">
        <ele>849</ele>
        <time>2026-05-09T15:28:47Z</time>
      </trkpt>
      <trkpt lat="45.98676" lon="5.57192">
        <ele>849.2</ele>
        <time>2026-05-09T15:28:48Z</time>
      </trkpt>
      <trkpt lat="45.98677" lon="5.57197">
        <ele>849.2</ele>
        <time>2026-05-09T15:28:49Z</time>
      </trkpt>
      <trkpt lat="45.98678" lon="5.57203">
        <ele>849.2</ele>
        <time>2026-05-09T15:28:50Z</time>
      </trkpt>
      <trkpt lat="45.98679" lon="5.57208">
        <ele>849.2</ele>
        <time>2026-05-09T15:28:51Z</time>
      </trkpt>
      <trkpt lat="45.9868" lon="5.57213">
        <ele>849.2</ele>
        <time>2026-05-09T15:28:52Z</time>
      </trkpt>
      <trkpt lat="45.98681" lon="5.57218">
        <ele>849.2</ele>
        <time>2026-05-09T15:28:53Z</time>
      </trkpt>
      <trkpt lat="45.98682" lon="5.57223">
        <ele>849.2</ele>
        <time>2026-05-09T15:28:54Z</time>
      </trkpt>
      <trkpt lat="45.98682" lon="5.57227">
        <ele>849.2</ele>
        <time>2026-05-09T15:28:55Z</time>
      </trkpt>
      <trkpt lat="45.98682" lon="5.57232">
        <ele>849.6</ele>
        <time>2026-05-09T15:28:56Z</time>
      </trkpt>
      <trkpt lat="45.98682" lon="5.57238">
        <ele>849.6</ele>
        <time>2026-05-09T15:28:57Z</time>
      </trkpt>
      <trkpt lat="45.98682" lon="5.57243">
        <ele>849.6</ele>
        <time>2026-05-09T15:28:58Z</time>
      </trkpt>
      <trkpt lat="45.98682" lon="5.57249">
        <ele>849.6</ele>
        <time>2026-05-09T15:28:59Z</time>
      </trkpt>
      <trkpt lat="45.98682" lon="5.57255">
        <ele>849.6</ele>
        <time>2026-05-09T15:29:00Z</time>
      </trkpt>
      <trkpt lat="45.98682" lon="5.57261">
        <ele>849.8</ele>
        <time>2026-05-09T15:29:01Z</time>
      </trkpt>
      <trkpt lat="45.98683" lon="5.57267">
        <ele>849.8</ele>
        <time>2026-05-09T15:29:02Z</time>
      </trkpt>
      <trkpt lat="45.98684" lon="5.57272">
        <ele>849.8</ele>
        <time>2026-05-09T15:29:03Z</time>
      </trkpt>
      <trkpt lat="45.98684" lon="5.57278">
        <ele>850</ele>
        <time>2026-05-09T15:29:04Z</time>
      </trkpt>
      <trkpt lat="45.98685" lon="5.57283">
        <ele>850</ele>
        <time>2026-05-09T15:29:05Z</time>
      </trkpt>
      <trkpt lat="45.98685" lon="5.57289">
        <ele>850</ele>
        <time>2026-05-09T15:29:06Z</time>
      </trkpt>
      <trkpt lat="45.98686" lon="5.57295">
        <ele>850</ele>
        <time>2026-05-09T15:29:07Z</time>
      </trkpt>
      <trkpt lat="45.98686" lon="5.57301">
        <ele>850</ele>
        <time>2026-05-09T15:29:08Z</time>
      </trkpt>
      <trkpt lat="45.98687" lon="5.57307">
        <ele>850</ele>
        <time>2026-05-09T15:29:09Z</time>
      </trkpt>
      <trkpt lat="45.98689" lon="5.57313">
        <ele>850</ele>
        <time>2026-05-09T15:29:10Z</time>
      </trkpt>
      <trkpt lat="45.98689" lon="5.57318">
        <ele>850</ele>
        <time>2026-05-09T15:29:11Z</time>
      </trkpt>
      <trkpt lat="45.98689" lon="5.57324">
        <ele>850</ele>
        <time>2026-05-09T15:29:12Z</time>
      </trkpt>
      <trkpt lat="45.98688" lon="5.5733">
        <ele>850</ele>
        <time>2026-05-09T15:29:13Z</time>
      </trkpt>
      <trkpt lat="45.98686" lon="5.57338">
        <ele>850</ele>
        <time>2026-05-09T15:29:14Z</time>
      </trkpt>
      <trkpt lat="45.98685" lon="5.57344">
        <ele>850</ele>
        <time>2026-05-09T15:29:15Z</time>
      </trkpt>
      <trkpt lat="45.98685" lon="5.5735">
        <ele>850</ele>
        <time>2026-05-09T15:29:16Z</time>
      </trkpt>
      <trkpt lat="45.98684" lon="5.57355">
        <ele>850</ele>
        <time>2026-05-09T15:29:17Z</time>
      </trkpt>
      <trkpt lat="45.98685" lon="5.57361">
        <ele>850.2</ele>
        <time>2026-05-09T15:29:18Z</time>
      </trkpt>
      <trkpt lat="45.98684" lon="5.57368">
        <ele>850.2</ele>
        <time>2026-05-09T15:29:19Z</time>
      </trkpt>
      <trkpt lat="45.98684" lon="5.57372">
        <ele>850.2</ele>
        <time>2026-05-09T15:29:20Z</time>
      </trkpt>
      <trkpt lat="45.98683" lon="5.57378">
        <ele>850.6</ele>
        <time>2026-05-09T15:29:21Z</time>
      </trkpt>
      <trkpt lat="45.98684" lon="5.57384">
        <ele>850.6</ele>
        <time>2026-05-09T15:29:22Z</time>
      </trkpt>
      <trkpt lat="45.98683" lon="5.5739">
        <ele>850.6</ele>
        <time>2026-05-09T15:29:23Z</time>
      </trkpt>
      <trkpt lat="45.98684" lon="5.57395">
        <ele>850.2</ele>
        <time>2026-05-09T15:29:24Z</time>
      </trkpt>
      <trkpt lat="45.98683" lon="5.57401">
        <ele>850.2</ele>
        <time>2026-05-09T15:29:25Z</time>
      </trkpt>
      <trkpt lat="45.98683" lon="5.57407">
        <ele>850.6</ele>
        <time>2026-05-09T15:29:26Z</time>
      </trkpt>
      <trkpt lat="45.98683" lon="5.57413">
        <ele>850.6</ele>
        <time>2026-05-09T15:29:27Z</time>
      </trkpt>
      <trkpt lat="45.98682" lon="5.57418">
        <ele>850.6</ele>
        <time>2026-05-09T15:29:28Z</time>
      </trkpt>
      <trkpt lat="45.98682" lon="5.57424">
        <ele>850.6</ele>
        <time>2026-05-09T15:29:29Z</time>
      </trkpt>
      <trkpt lat="45.98682" lon="5.5743">
        <ele>850.6</ele>
        <time>2026-05-09T15:29:30Z</time>
      </trkpt>
      <trkpt lat="45.98682" lon="5.57436">
        <ele>850.6</ele>
        <time>2026-05-09T15:29:31Z</time>
      </trkpt>
      <trkpt lat="45.98682" lon="5.57441">
        <ele>850.8</ele>
        <time>2026-05-09T15:29:32Z</time>
      </trkpt>
      <trkpt lat="45.98682" lon="5.57447">
        <ele>850.8</ele>
        <time>2026-05-09T15:29:33Z</time>
      </trkpt>
      <trkpt lat="45.98682" lon="5.57452">
        <ele>850.8</ele>
        <time>2026-05-09T15:29:34Z</time>
      </trkpt>
      <trkpt lat="45.98682" lon="5.57458">
        <ele>850.8</ele>
        <time>2026-05-09T15:29:35Z</time>
      </trkpt>
      <trkpt lat="45.98682" lon="5.57463">
        <ele>850.8</ele>
        <time>2026-05-09T15:29:36Z</time>
      </trkpt>
      <trkpt lat="45.98682" lon="5.5747">
        <ele>850.8</ele>
        <time>2026-05-09T15:29:37Z</time>
      </trkpt>
      <trkpt lat="45.98682" lon="5.57476">
        <ele>850.8</ele>
        <time>2026-05-09T15:29:38Z</time>
      </trkpt>
      <trkpt lat="45.98682" lon="5.57483">
        <ele>850.8</ele>
        <time>2026-05-09T15:29:39Z</time>
      </trkpt>
      <trkpt lat="45.98682" lon="5.57489">
        <ele>850.8</ele>
        <time>2026-05-09T15:29:40Z</time>
      </trkpt>
      <trkpt lat="45.98682" lon="5.57496">
        <ele>850</ele>
        <time>2026-05-09T15:29:41Z</time>
      </trkpt>
      <trkpt lat="45.98682" lon="5.57502">
        <ele>850</ele>
        <time>2026-05-09T15:29:42Z</time>
      </trkpt>
      <trkpt lat="45.98682" lon="5.57507">
        <ele>850.2</ele>
        <time>2026-05-09T15:29:43Z</time>
      </trkpt>
      <trkpt lat="45.98682" lon="5.57511">
        <ele>850.4</ele>
        <time>2026-05-09T15:29:44Z</time>
      </trkpt>
      <trkpt lat="45.98681" lon="5.57517">
        <ele>850.4</ele>
        <time>2026-05-09T15:29:45Z</time>
      </trkpt>
      <trkpt lat="45.98681" lon="5.57522">
        <ele>850.4</ele>
        <time>2026-05-09T15:29:46Z</time>
      </trkpt>
      <trkpt lat="45.9868" lon="5.57528">
        <ele>850.4</ele>
        <time>2026-05-09T15:29:47Z</time>
      </trkpt>
      <trkpt lat="45.9868" lon="5.57533">
        <ele>850.6</ele>
        <time>2026-05-09T15:29:48Z</time>
      </trkpt>
      <trkpt lat="45.9868" lon="5.57538">
        <ele>851</ele>
        <time>2026-05-09T15:29:49Z</time>
      </trkpt>
      <trkpt lat="45.9868" lon="5.57544">
        <ele>851</ele>
        <time>2026-05-09T15:29:50Z</time>
      </trkpt>
      <trkpt lat="45.98679" lon="5.57549">
        <ele>851</ele>
        <time>2026-05-09T15:29:51Z</time>
      </trkpt>
      <trkpt lat="45.98679" lon="5.57554">
        <ele>851</ele>
        <time>2026-05-09T15:29:52Z</time>
      </trkpt>
      <trkpt lat="45.98678" lon="5.5756">
        <ele>851</ele>
        <time>2026-05-09T15:29:53Z</time>
      </trkpt>
      <trkpt lat="45.98678" lon="5.57565">
        <ele>851.4</ele>
        <time>2026-05-09T15:29:54Z</time>
      </trkpt>
      <trkpt lat="45.98678" lon="5.57571">
        <ele>851.4</ele>
        <time>2026-05-09T15:29:55Z</time>
      </trkpt>
      <trkpt lat="45.98677" lon="5.57582">
        <ele>851.6</ele>
        <time>2026-05-09T15:29:56Z</time>
      </trkpt>
      <trkpt lat="45.98677" lon="5.57588">
        <ele>851.6</ele>
        <time>2026-05-09T15:29:57Z</time>
      </trkpt>
      <trkpt lat="45.98677" lon="5.57594">
        <ele>851.6</ele>
        <time>2026-05-09T15:29:58Z</time>
      </trkpt>
      <trkpt lat="45.98677" lon="5.576">
        <ele>851.6</ele>
        <time>2026-05-09T15:29:59Z</time>
      </trkpt>
      <trkpt lat="45.98679" lon="5.57606">
        <ele>851.6</ele>
        <time>2026-05-09T15:30:00Z</time>
      </trkpt>
      <trkpt lat="45.9868" lon="5.57613">
        <ele>851.6</ele>
        <time>2026-05-09T15:30:01Z</time>
      </trkpt>
      <trkpt lat="45.98682" lon="5.57619">
        <ele>851.4</ele>
        <time>2026-05-09T15:30:02Z</time>
      </trkpt>
      <trkpt lat="45.98685" lon="5.57625">
        <ele>851.4</ele>
        <time>2026-05-09T15:30:03Z</time>
      </trkpt>
      <trkpt lat="45.98686" lon="5.5763">
        <ele>851.4</ele>
        <time>2026-05-09T15:30:04Z</time>
      </trkpt>
      <trkpt lat="45.98689" lon="5.57635">
        <ele>851.4</ele>
        <time>2026-05-09T15:30:05Z</time>
      </trkpt>
      <trkpt lat="45.98691" lon="5.5764">
        <ele>851.4</ele>
        <time>2026-05-09T15:30:06Z</time>
      </trkpt>
      <trkpt lat="45.98693" lon="5.57646">
        <ele>851.4</ele>
        <time>2026-05-09T15:30:07Z</time>
      </trkpt>
      <trkpt lat="45.98695" lon="5.57651">
        <ele>851.4</ele>
        <time>2026-05-09T15:30:08Z</time>
      </trkpt>
      <trkpt lat="45.98697" lon="5.57656">
        <ele>851.4</ele>
        <time>2026-05-09T15:30:09Z</time>
      </trkpt>
      <trkpt lat="45.98699" lon="5.57661">
        <ele>851.4</ele>
        <time>2026-05-09T15:30:10Z</time>
      </trkpt>
      <trkpt lat="45.987" lon="5.57667">
        <ele>851</ele>
        <time>2026-05-09T15:30:11Z</time>
      </trkpt>
      <trkpt lat="45.98702" lon="5.57673">
        <ele>851</ele>
        <time>2026-05-09T15:30:12Z</time>
      </trkpt>
      <trkpt lat="45.98704" lon="5.57679">
        <ele>851</ele>
        <time>2026-05-09T15:30:13Z</time>
      </trkpt>
      <trkpt lat="45.98706" lon="5.57685">
        <ele>851</ele>
        <time>2026-05-09T15:30:14Z</time>
      </trkpt>
      <trkpt lat="45.98707" lon="5.57692">
        <ele>851</ele>
        <time>2026-05-09T15:30:15Z</time>
      </trkpt>
      <trkpt lat="45.98709" lon="5.57698">
        <ele>851</ele>
        <time>2026-05-09T15:30:16Z</time>
      </trkpt>
      <trkpt lat="45.98711" lon="5.57704">
        <ele>850.6</ele>
        <time>2026-05-09T15:30:17Z</time>
      </trkpt>
      <trkpt lat="45.98713" lon="5.57711">
        <ele>850.6</ele>
        <time>2026-05-09T15:30:18Z</time>
      </trkpt>
      <trkpt lat="45.98713" lon="5.57717">
        <ele>850.6</ele>
        <time>2026-05-09T15:30:19Z</time>
      </trkpt>
      <trkpt lat="45.98715" lon="5.57723">
        <ele>850.6</ele>
        <time>2026-05-09T15:30:20Z</time>
      </trkpt>
      <trkpt lat="45.98715" lon="5.5773">
        <ele>850.4</ele>
        <time>2026-05-09T15:30:21Z</time>
      </trkpt>
      <trkpt lat="45.98716" lon="5.57737">
        <ele>850.2</ele>
        <time>2026-05-09T15:30:22Z</time>
      </trkpt>
      <trkpt lat="45.98715" lon="5.57744">
        <ele>850.2</ele>
        <time>2026-05-09T15:30:23Z</time>
      </trkpt>
      <trkpt lat="45.98714" lon="5.57751">
        <ele>850.2</ele>
        <time>2026-05-09T15:30:24Z</time>
      </trkpt>
      <trkpt lat="45.98713" lon="5.57758">
        <ele>850.2</ele>
        <time>2026-05-09T15:30:25Z</time>
      </trkpt>
      <trkpt lat="45.98712" lon="5.57765">
        <ele>849.8</ele>
        <time>2026-05-09T15:30:26Z</time>
      </trkpt>
      <trkpt lat="45.9871" lon="5.57772">
        <ele>849.4</ele>
        <time>2026-05-09T15:30:27Z</time>
      </trkpt>
      <trkpt lat="45.98707" lon="5.5778">
        <ele>849</ele>
        <time>2026-05-09T15:30:28Z</time>
      </trkpt>
      <trkpt lat="45.98704" lon="5.5779">
        <ele>848.8</ele>
        <time>2026-05-09T15:30:29Z</time>
      </trkpt>
      <trkpt lat="45.98701" lon="5.578">
        <ele>848.4</ele>
        <time>2026-05-09T15:30:30Z</time>
      </trkpt>
      <trkpt lat="45.98698" lon="5.5781">
        <ele>847.2</ele>
        <time>2026-05-09T15:30:31Z</time>
      </trkpt>
      <trkpt lat="45.98694" lon="5.57821">
        <ele>847</ele>
        <time>2026-05-09T15:30:32Z</time>
      </trkpt>
      <trkpt lat="45.98691" lon="5.57831">
        <ele>845.8</ele>
        <time>2026-05-09T15:30:33Z</time>
      </trkpt>
      <trkpt lat="45.98688" lon="5.57841">
        <ele>844.8</ele>
        <time>2026-05-09T15:30:34Z</time>
      </trkpt>
      <trkpt lat="45.98685" lon="5.57852">
        <ele>843.8</ele>
        <time>2026-05-09T15:30:35Z</time>
      </trkpt>
      <trkpt lat="45.98682" lon="5.57863">
        <ele>842.8</ele>
        <time>2026-05-09T15:30:36Z</time>
      </trkpt>
      <trkpt lat="45.9868" lon="5.57873">
        <ele>842.2</ele>
        <time>2026-05-09T15:30:37Z</time>
      </trkpt>
      <trkpt lat="45.98677" lon="5.5788">
        <ele>841.4</ele>
        <time>2026-05-09T15:30:38Z</time>
      </trkpt>
      <trkpt lat="45.98675" lon="5.57891">
        <ele>840.6</ele>
        <time>2026-05-09T15:30:39Z</time>
      </trkpt>
      <trkpt lat="45.98673" lon="5.579">
        <ele>840.2</ele>
        <time>2026-05-09T15:30:40Z</time>
      </trkpt>
      <trkpt lat="45.98672" lon="5.57908">
        <ele>839.6</ele>
        <time>2026-05-09T15:30:41Z</time>
      </trkpt>
      <trkpt lat="45.98669" lon="5.57915">
        <ele>839.4</ele>
        <time>2026-05-09T15:30:42Z</time>
      </trkpt>
      <trkpt lat="45.98672" lon="5.57927">
        <ele>839.4</ele>
        <time>2026-05-09T15:30:43Z</time>
      </trkpt>
      <trkpt lat="45.98672" lon="5.57934">
        <ele>838.8</ele>
        <time>2026-05-09T15:30:44Z</time>
      </trkpt>
      <trkpt lat="45.98674" lon="5.57941">
        <ele>838.4</ele>
        <time>2026-05-09T15:30:45Z</time>
      </trkpt>
      <trkpt lat="45.98673" lon="5.57949">
        <ele>838.2</ele>
        <time>2026-05-09T15:30:46Z</time>
      </trkpt>
      <trkpt lat="45.98674" lon="5.57954">
        <ele>838.2</ele>
        <time>2026-05-09T15:30:47Z</time>
      </trkpt>
      <trkpt lat="45.98672" lon="5.5796">
        <ele>837.8</ele>
        <time>2026-05-09T15:30:48Z</time>
      </trkpt>
      <trkpt lat="45.98672" lon="5.57966">
        <ele>837.6</ele>
        <time>2026-05-09T15:30:49Z</time>
      </trkpt>
      <trkpt lat="45.98671" lon="5.57971">
        <ele>837.6</ele>
        <time>2026-05-09T15:30:50Z</time>
      </trkpt>
      <trkpt lat="45.9867" lon="5.57976">
        <ele>837.6</ele>
        <time>2026-05-09T15:30:51Z</time>
      </trkpt>
      <trkpt lat="45.9867" lon="5.57983">
        <ele>837.6</ele>
        <time>2026-05-09T15:30:52Z</time>
      </trkpt>
      <trkpt lat="45.98669" lon="5.57988">
        <ele>837.4</ele>
        <time>2026-05-09T15:30:53Z</time>
      </trkpt>
      <trkpt lat="45.98668" lon="5.57993">
        <ele>837.4</ele>
        <time>2026-05-09T15:30:54Z</time>
      </trkpt>
      <trkpt lat="45.98668" lon="5.58">
        <ele>837.4</ele>
        <time>2026-05-09T15:30:55Z</time>
      </trkpt>
      <trkpt lat="45.98667" lon="5.58005">
        <ele>837.4</ele>
        <time>2026-05-09T15:30:56Z</time>
      </trkpt>
      <trkpt lat="45.98667" lon="5.58011">
        <ele>837.4</ele>
        <time>2026-05-09T15:30:57Z</time>
      </trkpt>
      <trkpt lat="45.98665" lon="5.58015">
        <ele>837</ele>
        <time>2026-05-09T15:30:58Z</time>
      </trkpt>
      <trkpt lat="45.98664" lon="5.58021">
        <ele>837</ele>
        <time>2026-05-09T15:30:59Z</time>
      </trkpt>
      <trkpt lat="45.98662" lon="5.58026">
        <ele>836.8</ele>
        <time>2026-05-09T15:31:00Z</time>
      </trkpt>
      <trkpt lat="45.98662" lon="5.58031">
        <ele>836.8</ele>
        <time>2026-05-09T15:31:01Z</time>
      </trkpt>
      <trkpt lat="45.98661" lon="5.58038">
        <ele>836.8</ele>
        <time>2026-05-09T15:31:02Z</time>
      </trkpt>
      <trkpt lat="45.98663" lon="5.58042">
        <ele>836.8</ele>
        <time>2026-05-09T15:31:03Z</time>
      </trkpt>
      <trkpt lat="45.98663" lon="5.58049">
        <ele>836.8</ele>
        <time>2026-05-09T15:31:04Z</time>
      </trkpt>
      <trkpt lat="45.98661" lon="5.58056">
        <ele>836.6</ele>
        <time>2026-05-09T15:31:05Z</time>
      </trkpt>
      <trkpt lat="45.9866" lon="5.58062">
        <ele>836.2</ele>
        <time>2026-05-09T15:31:06Z</time>
      </trkpt>
      <trkpt lat="45.98658" lon="5.58068">
        <ele>836</ele>
        <time>2026-05-09T15:31:07Z</time>
      </trkpt>
      <trkpt lat="45.98657" lon="5.58077">
        <ele>836</ele>
        <time>2026-05-09T15:31:08Z</time>
      </trkpt>
      <trkpt lat="45.98656" lon="5.58084">
        <ele>835.8</ele>
        <time>2026-05-09T15:31:09Z</time>
      </trkpt>
      <trkpt lat="45.98653" lon="5.5809">
        <ele>835.6</ele>
        <time>2026-05-09T15:31:10Z</time>
      </trkpt>
      <trkpt lat="45.98651" lon="5.58099">
        <ele>835.2</ele>
        <time>2026-05-09T15:31:11Z</time>
      </trkpt>
      <trkpt lat="45.98649" lon="5.58107">
        <ele>834.8</ele>
        <time>2026-05-09T15:31:12Z</time>
      </trkpt>
      <trkpt lat="45.98648" lon="5.58117">
        <ele>833.8</ele>
        <time>2026-05-09T15:31:13Z</time>
      </trkpt>
      <trkpt lat="45.98647" lon="5.58129">
        <ele>833.8</ele>
        <time>2026-05-09T15:31:14Z</time>
      </trkpt>
      <trkpt lat="45.98644" lon="5.5814">
        <ele>833.4</ele>
        <time>2026-05-09T15:31:15Z</time>
      </trkpt>
      <trkpt lat="45.98642" lon="5.58151">
        <ele>832.6</ele>
        <time>2026-05-09T15:31:16Z</time>
      </trkpt>
      <trkpt lat="45.98642" lon="5.58163">
        <ele>831.8</ele>
        <time>2026-05-09T15:31:17Z</time>
      </trkpt>
      <trkpt lat="45.9864" lon="5.58172">
        <ele>831.4</ele>
        <time>2026-05-09T15:31:18Z</time>
      </trkpt>
      <trkpt lat="45.98639" lon="5.58182">
        <ele>831</ele>
        <time>2026-05-09T15:31:19Z</time>
      </trkpt>
      <trkpt lat="45.98639" lon="5.58193">
        <ele>830.2</ele>
        <time>2026-05-09T15:31:20Z</time>
      </trkpt>
      <trkpt lat="45.98639" lon="5.58203">
        <ele>829.6</ele>
        <time>2026-05-09T15:31:21Z</time>
      </trkpt>
      <trkpt lat="45.98639" lon="5.58213">
        <ele>829.6</ele>
        <time>2026-05-09T15:31:22Z</time>
      </trkpt>
      <trkpt lat="45.98638" lon="5.58223">
        <ele>829.2</ele>
        <time>2026-05-09T15:31:23Z</time>
      </trkpt>
      <trkpt lat="45.98638" lon="5.58233">
        <ele>828.6</ele>
        <time>2026-05-09T15:31:24Z</time>
      </trkpt>
      <trkpt lat="45.9864" lon="5.58244">
        <ele>828.2</ele>
        <time>2026-05-09T15:31:25Z</time>
      </trkpt>
      <trkpt lat="45.98641" lon="5.58254">
        <ele>827.4</ele>
        <time>2026-05-09T15:31:26Z</time>
      </trkpt>
      <trkpt lat="45.98642" lon="5.58264">
        <ele>826.8</ele>
        <time>2026-05-09T15:31:27Z</time>
      </trkpt>
      <trkpt lat="45.98642" lon="5.58274">
        <ele>826.8</ele>
        <time>2026-05-09T15:31:28Z</time>
      </trkpt>
      <trkpt lat="45.98642" lon="5.58283">
        <ele>826</ele>
        <time>2026-05-09T15:31:29Z</time>
      </trkpt>
      <trkpt lat="45.98642" lon="5.58294">
        <ele>825.2</ele>
        <time>2026-05-09T15:31:30Z</time>
      </trkpt>
      <trkpt lat="45.98641" lon="5.58304">
        <ele>825</ele>
        <time>2026-05-09T15:31:31Z</time>
      </trkpt>
      <trkpt lat="45.9864" lon="5.58313">
        <ele>824.6</ele>
        <time>2026-05-09T15:31:32Z</time>
      </trkpt>
      <trkpt lat="45.98639" lon="5.58324">
        <ele>824</ele>
        <time>2026-05-09T15:31:33Z</time>
      </trkpt>
      <trkpt lat="45.98638" lon="5.58334">
        <ele>823.4</ele>
        <time>2026-05-09T15:31:34Z</time>
      </trkpt>
      <trkpt lat="45.98638" lon="5.58344">
        <ele>822.8</ele>
        <time>2026-05-09T15:31:35Z</time>
      </trkpt>
      <trkpt lat="45.98638" lon="5.58353">
        <ele>821.8</ele>
        <time>2026-05-09T15:31:36Z</time>
      </trkpt>
      <trkpt lat="45.9864" lon="5.58362">
        <ele>821.6</ele>
        <time>2026-05-09T15:31:37Z</time>
      </trkpt>
      <trkpt lat="45.9864" lon="5.58362">
        <ele>821.2</ele>
        <time>2026-05-09T15:31:38Z</time>
      </trkpt>
      <trkpt lat="45.9864" lon="5.58372">
        <ele>821</ele>
        <time>2026-05-09T15:31:39Z</time>
      </trkpt>
      <trkpt lat="45.9864" lon="5.58383">
        <ele>820.8</ele>
        <time>2026-05-09T15:31:40Z</time>
      </trkpt>
      <trkpt lat="45.9864" lon="5.58393">
        <ele>820.4</ele>
        <time>2026-05-09T15:31:41Z</time>
      </trkpt>
      <trkpt lat="45.9864" lon="5.58404">
        <ele>819.6</ele>
        <time>2026-05-09T15:31:42Z</time>
      </trkpt>
      <trkpt lat="45.98639" lon="5.58417">
        <ele>818.8</ele>
        <time>2026-05-09T15:31:43Z</time>
      </trkpt>
      <trkpt lat="45.98639" lon="5.58427">
        <ele>818.2</ele>
        <time>2026-05-09T15:31:44Z</time>
      </trkpt>
      <trkpt lat="45.98639" lon="5.58438">
        <ele>817.8</ele>
        <time>2026-05-09T15:31:45Z</time>
      </trkpt>
      <trkpt lat="45.9864" lon="5.58449">
        <ele>817.2</ele>
        <time>2026-05-09T15:31:46Z</time>
      </trkpt>
      <trkpt lat="45.98641" lon="5.5846">
        <ele>816.4</ele>
        <time>2026-05-09T15:31:47Z</time>
      </trkpt>
      <trkpt lat="45.98643" lon="5.58473">
        <ele>815.6</ele>
        <time>2026-05-09T15:31:48Z</time>
      </trkpt>
      <trkpt lat="45.98646" lon="5.58485">
        <ele>814.8</ele>
        <time>2026-05-09T15:31:49Z</time>
      </trkpt>
      <trkpt lat="45.98648" lon="5.58499">
        <ele>814.6</ele>
        <time>2026-05-09T15:31:50Z</time>
      </trkpt>
      <trkpt lat="45.9865" lon="5.58512">
        <ele>813.8</ele>
        <time>2026-05-09T15:31:51Z</time>
      </trkpt>
      <trkpt lat="45.98652" lon="5.58524">
        <ele>813.2</ele>
        <time>2026-05-09T15:31:52Z</time>
      </trkpt>
      <trkpt lat="45.98652" lon="5.58536">
        <ele>812.4</ele>
        <time>2026-05-09T15:31:53Z</time>
      </trkpt>
      <trkpt lat="45.98654" lon="5.58549">
        <ele>811.8</ele>
        <time>2026-05-09T15:31:54Z</time>
      </trkpt>
      <trkpt lat="45.98655" lon="5.58562">
        <ele>811</ele>
        <time>2026-05-09T15:31:55Z</time>
      </trkpt>
      <trkpt lat="45.98655" lon="5.58574">
        <ele>810.6</ele>
        <time>2026-05-09T15:31:56Z</time>
      </trkpt>
      <trkpt lat="45.98655" lon="5.58587">
        <ele>809.8</ele>
        <time>2026-05-09T15:31:57Z</time>
      </trkpt>
      <trkpt lat="45.98655" lon="5.58599">
        <ele>809</ele>
        <time>2026-05-09T15:31:58Z</time>
      </trkpt>
      <trkpt lat="45.98653" lon="5.58611">
        <ele>808.6</ele>
        <time>2026-05-09T15:31:59Z</time>
      </trkpt>
      <trkpt lat="45.9865" lon="5.58622">
        <ele>808</ele>
        <time>2026-05-09T15:32:00Z</time>
      </trkpt>
      <trkpt lat="45.98647" lon="5.58633">
        <ele>807.2</ele>
        <time>2026-05-09T15:32:01Z</time>
      </trkpt>
      <trkpt lat="45.98643" lon="5.58644">
        <ele>806.6</ele>
        <time>2026-05-09T15:32:02Z</time>
      </trkpt>
      <trkpt lat="45.9864" lon="5.58654">
        <ele>805.6</ele>
        <time>2026-05-09T15:32:03Z</time>
      </trkpt>
      <trkpt lat="45.98637" lon="5.58667">
        <ele>805</ele>
        <time>2026-05-09T15:32:04Z</time>
      </trkpt>
      <trkpt lat="45.98635" lon="5.5868">
        <ele>804.2</ele>
        <time>2026-05-09T15:32:05Z</time>
      </trkpt>
      <trkpt lat="45.98634" lon="5.58693">
        <ele>803.4</ele>
        <time>2026-05-09T15:32:06Z</time>
      </trkpt>
      <trkpt lat="45.98633" lon="5.58707">
        <ele>802.6</ele>
        <time>2026-05-09T15:32:07Z</time>
      </trkpt>
      <trkpt lat="45.98632" lon="5.5872">
        <ele>802.4</ele>
        <time>2026-05-09T15:32:08Z</time>
      </trkpt>
      <trkpt lat="45.98632" lon="5.58731">
        <ele>801.4</ele>
        <time>2026-05-09T15:32:09Z</time>
      </trkpt>
      <trkpt lat="45.98632" lon="5.58742">
        <ele>800.4</ele>
        <time>2026-05-09T15:32:10Z</time>
      </trkpt>
      <trkpt lat="45.9863" lon="5.58752">
        <ele>799.8</ele>
        <time>2026-05-09T15:32:11Z</time>
      </trkpt>
      <trkpt lat="45.98627" lon="5.5876">
        <ele>799.2</ele>
        <time>2026-05-09T15:32:12Z</time>
      </trkpt>
      <trkpt lat="45.98623" lon="5.58766">
        <ele>798.4</ele>
        <time>2026-05-09T15:32:13Z</time>
      </trkpt>
      <trkpt lat="45.98619" lon="5.58773">
        <ele>797.8</ele>
        <time>2026-05-09T15:32:14Z</time>
      </trkpt>
      <trkpt lat="45.98612" lon="5.58773">
        <ele>797</ele>
        <time>2026-05-09T15:32:15Z</time>
      </trkpt>
      <trkpt lat="45.98605" lon="5.58775">
        <ele>796.2</ele>
        <time>2026-05-09T15:32:16Z</time>
      </trkpt>
      <trkpt lat="45.98598" lon="5.58775">
        <ele>795.8</ele>
        <time>2026-05-09T15:32:17Z</time>
      </trkpt>
      <trkpt lat="45.9859" lon="5.58774">
        <ele>795.2</ele>
        <time>2026-05-09T15:32:18Z</time>
      </trkpt>
      <trkpt lat="45.98581" lon="5.58774">
        <ele>795.2</ele>
        <time>2026-05-09T15:32:19Z</time>
      </trkpt>
      <trkpt lat="45.98574" lon="5.58774">
        <ele>794.6</ele>
        <time>2026-05-09T15:32:20Z</time>
      </trkpt>
      <trkpt lat="45.98567" lon="5.58775">
        <ele>794.2</ele>
        <time>2026-05-09T15:32:21Z</time>
      </trkpt>
      <trkpt lat="45.98557" lon="5.58777">
        <ele>794.2</ele>
        <time>2026-05-09T15:32:22Z</time>
      </trkpt>
      <trkpt lat="45.9855" lon="5.58779">
        <ele>793.2</ele>
        <time>2026-05-09T15:32:23Z</time>
      </trkpt>
      <trkpt lat="45.98541" lon="5.58782">
        <ele>792.4</ele>
        <time>2026-05-09T15:32:24Z</time>
      </trkpt>
      <trkpt lat="45.98534" lon="5.58785">
        <ele>791.2</ele>
        <time>2026-05-09T15:32:25Z</time>
      </trkpt>
      <trkpt lat="45.98526" lon="5.58788">
        <ele>790.6</ele>
        <time>2026-05-09T15:32:26Z</time>
      </trkpt>
      <trkpt lat="45.98519" lon="5.58792">
        <ele>790</ele>
        <time>2026-05-09T15:32:27Z</time>
      </trkpt>
      <trkpt lat="45.98512" lon="5.58795">
        <ele>789.4</ele>
        <time>2026-05-09T15:32:28Z</time>
      </trkpt>
      <trkpt lat="45.98504" lon="5.58799">
        <ele>788.6</ele>
        <time>2026-05-09T15:32:29Z</time>
      </trkpt>
      <trkpt lat="45.98498" lon="5.58803">
        <ele>788</ele>
        <time>2026-05-09T15:32:30Z</time>
      </trkpt>
      <trkpt lat="45.98493" lon="5.58806">
        <ele>787.4</ele>
        <time>2026-05-09T15:32:31Z</time>
      </trkpt>
      <trkpt lat="45.98487" lon="5.58809">
        <ele>786.8</ele>
        <time>2026-05-09T15:32:32Z</time>
      </trkpt>
      <trkpt lat="45.98482" lon="5.58811">
        <ele>786.2</ele>
        <time>2026-05-09T15:32:33Z</time>
      </trkpt>
      <trkpt lat="45.98478" lon="5.58811">
        <ele>785.8</ele>
        <time>2026-05-09T15:32:34Z</time>
      </trkpt>
      <trkpt lat="45.98475" lon="5.58811">
        <ele>785.6</ele>
        <time>2026-05-09T15:32:35Z</time>
      </trkpt>
      <trkpt lat="45.98473" lon="5.58813">
        <ele>785.2</ele>
        <time>2026-05-09T15:32:36Z</time>
      </trkpt>
      <trkpt lat="45.9847" lon="5.58816">
        <ele>785</ele>
        <time>2026-05-09T15:32:37Z</time>
      </trkpt>
      <trkpt lat="45.98468" lon="5.58821">
        <ele>784.6</ele>
        <time>2026-05-09T15:32:38Z</time>
      </trkpt>
      <trkpt lat="45.98468" lon="5.58827">
        <ele>784.4</ele>
        <time>2026-05-09T15:32:39Z</time>
      </trkpt>
      <trkpt lat="45.98467" lon="5.58834">
        <ele>784</ele>
        <time>2026-05-09T15:32:40Z</time>
      </trkpt>
      <trkpt lat="45.98466" lon="5.5884">
        <ele>783.8</ele>
        <time>2026-05-09T15:32:41Z</time>
      </trkpt>
      <trkpt lat="45.98465" lon="5.58848">
        <ele>783.8</ele>
        <time>2026-05-09T15:32:42Z</time>
      </trkpt>
      <trkpt lat="45.98464" lon="5.58856">
        <ele>783.4</ele>
        <time>2026-05-09T15:32:43Z</time>
      </trkpt>
      <trkpt lat="45.98463" lon="5.58864">
        <ele>783.2</ele>
        <time>2026-05-09T15:32:44Z</time>
      </trkpt>
      <trkpt lat="45.98462" lon="5.58873">
        <ele>783.2</ele>
        <time>2026-05-09T15:32:45Z</time>
      </trkpt>
      <trkpt lat="45.98461" lon="5.58882">
        <ele>782.8</ele>
        <time>2026-05-09T15:32:46Z</time>
      </trkpt>
      <trkpt lat="45.9846" lon="5.58891">
        <ele>782.8</ele>
        <time>2026-05-09T15:32:47Z</time>
      </trkpt>
      <trkpt lat="45.98459" lon="5.58901">
        <ele>782.4</ele>
        <time>2026-05-09T15:32:48Z</time>
      </trkpt>
      <trkpt lat="45.98458" lon="5.58911">
        <ele>782.2</ele>
        <time>2026-05-09T15:32:49Z</time>
      </trkpt>
      <trkpt lat="45.98456" lon="5.58922">
        <ele>782</ele>
        <time>2026-05-09T15:32:50Z</time>
      </trkpt>
      <trkpt lat="45.98455" lon="5.58933">
        <ele>781.8</ele>
        <time>2026-05-09T15:32:51Z</time>
      </trkpt>
      <trkpt lat="45.98455" lon="5.58944">
        <ele>781.8</ele>
        <time>2026-05-09T15:32:52Z</time>
      </trkpt>
      <trkpt lat="45.98454" lon="5.58955">
        <ele>781.8</ele>
        <time>2026-05-09T15:32:53Z</time>
      </trkpt>
      <trkpt lat="45.98453" lon="5.58966">
        <ele>781.4</ele>
        <time>2026-05-09T15:32:54Z</time>
      </trkpt>
      <trkpt lat="45.98452" lon="5.58976">
        <ele>781.4</ele>
        <time>2026-05-09T15:32:55Z</time>
      </trkpt>
      <trkpt lat="45.98451" lon="5.58987">
        <ele>781.4</ele>
        <time>2026-05-09T15:32:56Z</time>
      </trkpt>
      <trkpt lat="45.9845" lon="5.58998">
        <ele>781.4</ele>
        <time>2026-05-09T15:32:57Z</time>
      </trkpt>
      <trkpt lat="45.9845" lon="5.59008">
        <ele>781.4</ele>
        <time>2026-05-09T15:32:58Z</time>
      </trkpt>
      <trkpt lat="45.98449" lon="5.59018">
        <ele>781.8</ele>
        <time>2026-05-09T15:32:59Z</time>
      </trkpt>
      <trkpt lat="45.98448" lon="5.59027">
        <ele>781.8</ele>
        <time>2026-05-09T15:33:00Z</time>
      </trkpt>
      <trkpt lat="45.98446" lon="5.59044">
        <ele>781.8</ele>
        <time>2026-05-09T15:33:01Z</time>
      </trkpt>
      <trkpt lat="45.98445" lon="5.59052">
        <ele>781.8</ele>
        <time>2026-05-09T15:33:02Z</time>
      </trkpt>
      <trkpt lat="45.98443" lon="5.59059">
        <ele>781.8</ele>
        <time>2026-05-09T15:33:03Z</time>
      </trkpt>
      <trkpt lat="45.98442" lon="5.59065">
        <ele>782</ele>
        <time>2026-05-09T15:33:04Z</time>
      </trkpt>
      <trkpt lat="45.9844" lon="5.59072">
        <ele>782.2</ele>
        <time>2026-05-09T15:33:05Z</time>
      </trkpt>
      <trkpt lat="45.98438" lon="5.59078">
        <ele>782.2</ele>
        <time>2026-05-09T15:33:06Z</time>
      </trkpt>
      <trkpt lat="45.98437" lon="5.59084">
        <ele>782.4</ele>
        <time>2026-05-09T15:33:07Z</time>
      </trkpt>
      <trkpt lat="45.98435" lon="5.59088">
        <ele>782.4</ele>
        <time>2026-05-09T15:33:08Z</time>
      </trkpt>
      <trkpt lat="45.98433" lon="5.59093">
        <ele>782.8</ele>
        <time>2026-05-09T15:33:09Z</time>
      </trkpt>
      <trkpt lat="45.98431" lon="5.59097">
        <ele>783</ele>
        <time>2026-05-09T15:33:10Z</time>
      </trkpt>
      <trkpt lat="45.9843" lon="5.59101">
        <ele>783</ele>
        <time>2026-05-09T15:33:11Z</time>
      </trkpt>
      <trkpt lat="45.98428" lon="5.59105">
        <ele>783.2</ele>
        <time>2026-05-09T15:33:12Z</time>
      </trkpt>
      <trkpt lat="45.98425" lon="5.59109">
        <ele>783.2</ele>
        <time>2026-05-09T15:33:13Z</time>
      </trkpt>
      <trkpt lat="45.98423" lon="5.59114">
        <ele>783.2</ele>
        <time>2026-05-09T15:33:14Z</time>
      </trkpt>
      <trkpt lat="45.9842" lon="5.59119">
        <ele>783.2</ele>
        <time>2026-05-09T15:33:15Z</time>
      </trkpt>
      <trkpt lat="45.98417" lon="5.59123">
        <ele>783.6</ele>
        <time>2026-05-09T15:33:16Z</time>
      </trkpt>
      <trkpt lat="45.98415" lon="5.59126">
        <ele>783.6</ele>
        <time>2026-05-09T15:33:17Z</time>
      </trkpt>
      <trkpt lat="45.98412" lon="5.5913">
        <ele>783.6</ele>
        <time>2026-05-09T15:33:18Z</time>
      </trkpt>
      <trkpt lat="45.98409" lon="5.59134">
        <ele>784</ele>
        <time>2026-05-09T15:33:19Z</time>
      </trkpt>
      <trkpt lat="45.98407" lon="5.59138">
        <ele>784.2</ele>
        <time>2026-05-09T15:33:20Z</time>
      </trkpt>
      <trkpt lat="45.98404" lon="5.59141">
        <ele>784.2</ele>
        <time>2026-05-09T15:33:21Z</time>
      </trkpt>
      <trkpt lat="45.984" lon="5.59144">
        <ele>784.2</ele>
        <time>2026-05-09T15:33:22Z</time>
      </trkpt>
      <trkpt lat="45.98399" lon="5.59148">
        <ele>784.2</ele>
        <time>2026-05-09T15:33:23Z</time>
      </trkpt>
      <trkpt lat="45.98396" lon="5.59151">
        <ele>784.2</ele>
        <time>2026-05-09T15:33:24Z</time>
      </trkpt>
      <trkpt lat="45.98393" lon="5.59155">
        <ele>784.2</ele>
        <time>2026-05-09T15:33:25Z</time>
      </trkpt>
      <trkpt lat="45.98391" lon="5.59158">
        <ele>784.6</ele>
        <time>2026-05-09T15:33:26Z</time>
      </trkpt>
      <trkpt lat="45.98388" lon="5.59161">
        <ele>784.6</ele>
        <time>2026-05-09T15:33:27Z</time>
      </trkpt>
      <trkpt lat="45.98386" lon="5.59164">
        <ele>784.6</ele>
        <time>2026-05-09T15:33:28Z</time>
      </trkpt>
      <trkpt lat="45.98383" lon="5.59167">
        <ele>784.8</ele>
        <time>2026-05-09T15:33:29Z</time>
      </trkpt>
      <trkpt lat="45.98381" lon="5.5917">
        <ele>784.8</ele>
        <time>2026-05-09T15:33:30Z</time>
      </trkpt>
      <trkpt lat="45.98379" lon="5.59173">
        <ele>785</ele>
        <time>2026-05-09T15:33:31Z</time>
      </trkpt>
      <trkpt lat="45.98376" lon="5.59176">
        <ele>785</ele>
        <time>2026-05-09T15:33:32Z</time>
      </trkpt>
      <trkpt lat="45.98374" lon="5.59179">
        <ele>785</ele>
        <time>2026-05-09T15:33:33Z</time>
      </trkpt>
      <trkpt lat="45.98372" lon="5.59182">
        <ele>785.2</ele>
        <time>2026-05-09T15:33:34Z</time>
      </trkpt>
      <trkpt lat="45.98369" lon="5.59185">
        <ele>785.2</ele>
        <time>2026-05-09T15:33:35Z</time>
      </trkpt>
      <trkpt lat="45.98367" lon="5.59188">
        <ele>785.2</ele>
        <time>2026-05-09T15:33:36Z</time>
      </trkpt>
      <trkpt lat="45.98364" lon="5.59191">
        <ele>785.6</ele>
        <time>2026-05-09T15:33:37Z</time>
      </trkpt>
      <trkpt lat="45.98362" lon="5.59194">
        <ele>785.6</ele>
        <time>2026-05-09T15:33:38Z</time>
      </trkpt>
      <trkpt lat="45.9836" lon="5.59197">
        <ele>785.8</ele>
        <time>2026-05-09T15:33:39Z</time>
      </trkpt>
      <trkpt lat="45.98357" lon="5.592">
        <ele>785.8</ele>
        <time>2026-05-09T15:33:40Z</time>
      </trkpt>
      <trkpt lat="45.98355" lon="5.59203">
        <ele>785.8</ele>
        <time>2026-05-09T15:33:41Z</time>
      </trkpt>
      <trkpt lat="45.98352" lon="5.59206">
        <ele>785.8</ele>
        <time>2026-05-09T15:33:42Z</time>
      </trkpt>
      <trkpt lat="45.9835" lon="5.5921">
        <ele>785.8</ele>
        <time>2026-05-09T15:33:43Z</time>
      </trkpt>
      <trkpt lat="45.98347" lon="5.59213">
        <ele>785.8</ele>
        <time>2026-05-09T15:33:44Z</time>
      </trkpt>
      <trkpt lat="45.98345" lon="5.59216">
        <ele>785.8</ele>
        <time>2026-05-09T15:33:45Z</time>
      </trkpt>
      <trkpt lat="45.98342" lon="5.59218">
        <ele>785.8</ele>
        <time>2026-05-09T15:33:46Z</time>
      </trkpt>
      <trkpt lat="45.9834" lon="5.59221">
        <ele>786.2</ele>
        <time>2026-05-09T15:33:47Z</time>
      </trkpt>
      <trkpt lat="45.98337" lon="5.59224">
        <ele>786.2</ele>
        <time>2026-05-09T15:33:48Z</time>
      </trkpt>
      <trkpt lat="45.98335" lon="5.59227">
        <ele>786.2</ele>
        <time>2026-05-09T15:33:49Z</time>
      </trkpt>
      <trkpt lat="45.98332" lon="5.59231">
        <ele>786.2</ele>
        <time>2026-05-09T15:33:50Z</time>
      </trkpt>
      <trkpt lat="45.9833" lon="5.59234">
        <ele>786.2</ele>
        <time>2026-05-09T15:33:51Z</time>
      </trkpt>
      <trkpt lat="45.98327" lon="5.59237">
        <ele>786.4</ele>
        <time>2026-05-09T15:33:52Z</time>
      </trkpt>
      <trkpt lat="45.98325" lon="5.5924">
        <ele>786.4</ele>
        <time>2026-05-09T15:33:53Z</time>
      </trkpt>
      <trkpt lat="45.98322" lon="5.59243">
        <ele>786.4</ele>
        <time>2026-05-09T15:33:54Z</time>
      </trkpt>
      <trkpt lat="45.98319" lon="5.59246">
        <ele>786.4</ele>
        <time>2026-05-09T15:33:55Z</time>
      </trkpt>
      <trkpt lat="45.98317" lon="5.5925">
        <ele>786.4</ele>
        <time>2026-05-09T15:33:56Z</time>
      </trkpt>
      <trkpt lat="45.98314" lon="5.59253">
        <ele>786.4</ele>
        <time>2026-05-09T15:33:57Z</time>
      </trkpt>
      <trkpt lat="45.98312" lon="5.59257">
        <ele>786.4</ele>
        <time>2026-05-09T15:33:58Z</time>
      </trkpt>
      <trkpt lat="45.98309" lon="5.5926">
        <ele>786.4</ele>
        <time>2026-05-09T15:33:59Z</time>
      </trkpt>
      <trkpt lat="45.98306" lon="5.59263">
        <ele>786.6</ele>
        <time>2026-05-09T15:34:00Z</time>
      </trkpt>
      <trkpt lat="45.98303" lon="5.59267">
        <ele>786.6</ele>
        <time>2026-05-09T15:34:01Z</time>
      </trkpt>
      <trkpt lat="45.983" lon="5.5927">
        <ele>786.6</ele>
        <time>2026-05-09T15:34:02Z</time>
      </trkpt>
      <trkpt lat="45.98298" lon="5.59274">
        <ele>787</ele>
        <time>2026-05-09T15:34:03Z</time>
      </trkpt>
      <trkpt lat="45.98295" lon="5.59277">
        <ele>787.2</ele>
        <time>2026-05-09T15:34:04Z</time>
      </trkpt>
      <trkpt lat="45.98292" lon="5.59281">
        <ele>787.2</ele>
        <time>2026-05-09T15:34:05Z</time>
      </trkpt>
      <trkpt lat="45.9829" lon="5.59284">
        <ele>787.2</ele>
        <time>2026-05-09T15:34:06Z</time>
      </trkpt>
      <trkpt lat="45.98287" lon="5.59287">
        <ele>787.6</ele>
        <time>2026-05-09T15:34:07Z</time>
      </trkpt>
      <trkpt lat="45.98284" lon="5.5929">
        <ele>787.6</ele>
        <time>2026-05-09T15:34:08Z</time>
      </trkpt>
      <trkpt lat="45.98282" lon="5.59294">
        <ele>787.6</ele>
        <time>2026-05-09T15:34:09Z</time>
      </trkpt>
      <trkpt lat="45.98279" lon="5.59297">
        <ele>787.6</ele>
        <time>2026-05-09T15:34:10Z</time>
      </trkpt>
      <trkpt lat="45.98277" lon="5.593">
        <ele>787.6</ele>
        <time>2026-05-09T15:34:11Z</time>
      </trkpt>
      <trkpt lat="45.98274" lon="5.59304">
        <ele>787.8</ele>
        <time>2026-05-09T15:34:12Z</time>
      </trkpt>
      <trkpt lat="45.98272" lon="5.59307">
        <ele>787.8</ele>
        <time>2026-05-09T15:34:13Z</time>
      </trkpt>
      <trkpt lat="45.98269" lon="5.59311">
        <ele>788</ele>
        <time>2026-05-09T15:34:14Z</time>
      </trkpt>
      <trkpt lat="45.98267" lon="5.59314">
        <ele>788</ele>
        <time>2026-05-09T15:34:15Z</time>
      </trkpt>
      <trkpt lat="45.98264" lon="5.59316">
        <ele>788</ele>
        <time>2026-05-09T15:34:16Z</time>
      </trkpt>
      <trkpt lat="45.98261" lon="5.59319">
        <ele>788.8</ele>
        <time>2026-05-09T15:34:17Z</time>
      </trkpt>
      <trkpt lat="45.98259" lon="5.59322">
        <ele>789</ele>
        <time>2026-05-09T15:34:18Z</time>
      </trkpt>
      <trkpt lat="45.98256" lon="5.59325">
        <ele>789.2</ele>
        <time>2026-05-09T15:34:19Z</time>
      </trkpt>
      <trkpt lat="45.98254" lon="5.59328">
        <ele>789.4</ele>
        <time>2026-05-09T15:34:20Z</time>
      </trkpt>
      <trkpt lat="45.98252" lon="5.59331">
        <ele>789.4</ele>
        <time>2026-05-09T15:34:21Z</time>
      </trkpt>
      <trkpt lat="45.9825" lon="5.59334">
        <ele>789.8</ele>
        <time>2026-05-09T15:34:22Z</time>
      </trkpt>
      <trkpt lat="45.98247" lon="5.59337">
        <ele>790</ele>
        <time>2026-05-09T15:34:23Z</time>
      </trkpt>
      <trkpt lat="45.98245" lon="5.5934">
        <ele>790</ele>
        <time>2026-05-09T15:34:24Z</time>
      </trkpt>
      <trkpt lat="45.98243" lon="5.59342">
        <ele>790</ele>
        <time>2026-05-09T15:34:25Z</time>
      </trkpt>
      <trkpt lat="45.9824" lon="5.59345">
        <ele>790</ele>
        <time>2026-05-09T15:34:26Z</time>
      </trkpt>
      <trkpt lat="45.98238" lon="5.59348">
        <ele>790.4</ele>
        <time>2026-05-09T15:34:27Z</time>
      </trkpt>
      <trkpt lat="45.98235" lon="5.59351">
        <ele>790.4</ele>
        <time>2026-05-09T15:34:28Z</time>
      </trkpt>
      <trkpt lat="45.98233" lon="5.59354">
        <ele>790.4</ele>
        <time>2026-05-09T15:34:29Z</time>
      </trkpt>
      <trkpt lat="45.98231" lon="5.59357">
        <ele>790.8</ele>
        <time>2026-05-09T15:34:30Z</time>
      </trkpt>
      <trkpt lat="45.98228" lon="5.59361">
        <ele>790.8</ele>
        <time>2026-05-09T15:34:31Z</time>
      </trkpt>
      <trkpt lat="45.98226" lon="5.59363">
        <ele>791</ele>
        <time>2026-05-09T15:34:32Z</time>
      </trkpt>
      <trkpt lat="45.98224" lon="5.59366">
        <ele>791</ele>
        <time>2026-05-09T15:34:33Z</time>
      </trkpt>
      <trkpt lat="45.98221" lon="5.59369">
        <ele>791</ele>
        <time>2026-05-09T15:34:34Z</time>
      </trkpt>
      <trkpt lat="45.98219" lon="5.59372">
        <ele>791</ele>
        <time>2026-05-09T15:34:35Z</time>
      </trkpt>
      <trkpt lat="45.98216" lon="5.59375">
        <ele>791.2</ele>
        <time>2026-05-09T15:34:36Z</time>
      </trkpt>
      <trkpt lat="45.98214" lon="5.59378">
        <ele>791.2</ele>
        <time>2026-05-09T15:34:37Z</time>
      </trkpt>
      <trkpt lat="45.98211" lon="5.59382">
        <ele>791.2</ele>
        <time>2026-05-09T15:34:38Z</time>
      </trkpt>
      <trkpt lat="45.98208" lon="5.59385">
        <ele>791.2</ele>
        <time>2026-05-09T15:34:39Z</time>
      </trkpt>
      <trkpt lat="45.98206" lon="5.59389">
        <ele>791.2</ele>
        <time>2026-05-09T15:34:40Z</time>
      </trkpt>
      <trkpt lat="45.98203" lon="5.59392">
        <ele>791.2</ele>
        <time>2026-05-09T15:34:41Z</time>
      </trkpt>
      <trkpt lat="45.98201" lon="5.59395">
        <ele>791.2</ele>
        <time>2026-05-09T15:34:42Z</time>
      </trkpt>
      <trkpt lat="45.98198" lon="5.59398">
        <ele>791.2</ele>
        <time>2026-05-09T15:34:43Z</time>
      </trkpt>
      <trkpt lat="45.98198" lon="5.59398">
        <ele>791.2</ele>
        <time>2026-05-09T15:34:44Z</time>
      </trkpt>
      <trkpt lat="45.98195" lon="5.59402">
        <ele>791.4</ele>
        <time>2026-05-09T15:34:45Z</time>
      </trkpt>
      <trkpt lat="45.98193" lon="5.59405">
        <ele>791.4</ele>
        <time>2026-05-09T15:34:46Z</time>
      </trkpt>
      <trkpt lat="45.9819" lon="5.59408">
        <ele>791.4</ele>
        <time>2026-05-09T15:34:47Z</time>
      </trkpt>
      <trkpt lat="45.98187" lon="5.59412">
        <ele>791.4</ele>
        <time>2026-05-09T15:34:48Z</time>
      </trkpt>
      <trkpt lat="45.98184" lon="5.59416">
        <ele>791.4</ele>
        <time>2026-05-09T15:34:49Z</time>
      </trkpt>
      <trkpt lat="45.98182" lon="5.5942">
        <ele>791.4</ele>
        <time>2026-05-09T15:34:50Z</time>
      </trkpt>
      <trkpt lat="45.98179" lon="5.59424">
        <ele>791.8</ele>
        <time>2026-05-09T15:34:51Z</time>
      </trkpt>
      <trkpt lat="45.98175" lon="5.59427">
        <ele>791.8</ele>
        <time>2026-05-09T15:34:52Z</time>
      </trkpt>
      <trkpt lat="45.98172" lon="5.59431">
        <ele>791.8</ele>
        <time>2026-05-09T15:34:53Z</time>
      </trkpt>
      <trkpt lat="45.98169" lon="5.59435">
        <ele>791.8</ele>
        <time>2026-05-09T15:34:54Z</time>
      </trkpt>
      <trkpt lat="45.98166" lon="5.59439">
        <ele>791.8</ele>
        <time>2026-05-09T15:34:55Z</time>
      </trkpt>
      <trkpt lat="45.98162" lon="5.59443">
        <ele>791.8</ele>
        <time>2026-05-09T15:34:56Z</time>
      </trkpt>
      <trkpt lat="45.98159" lon="5.59447">
        <ele>791.8</ele>
        <time>2026-05-09T15:34:57Z</time>
      </trkpt>
      <trkpt lat="45.98155" lon="5.59451">
        <ele>791.8</ele>
        <time>2026-05-09T15:34:58Z</time>
      </trkpt>
      <trkpt lat="45.98152" lon="5.59456">
        <ele>791.8</ele>
        <time>2026-05-09T15:34:59Z</time>
      </trkpt>
      <trkpt lat="45.98148" lon="5.5946">
        <ele>791.8</ele>
        <time>2026-05-09T15:35:00Z</time>
      </trkpt>
      <trkpt lat="45.98145" lon="5.59465">
        <ele>791.8</ele>
        <time>2026-05-09T15:35:01Z</time>
      </trkpt>
      <trkpt lat="45.98141" lon="5.5947">
        <ele>791.8</ele>
        <time>2026-05-09T15:35:02Z</time>
      </trkpt>
      <trkpt lat="45.98137" lon="5.59475">
        <ele>791.6</ele>
        <time>2026-05-09T15:35:03Z</time>
      </trkpt>
      <trkpt lat="45.98133" lon="5.5948">
        <ele>791.6</ele>
        <time>2026-05-09T15:35:04Z</time>
      </trkpt>
      <trkpt lat="45.98129" lon="5.59485">
        <ele>791.6</ele>
        <time>2026-05-09T15:35:05Z</time>
      </trkpt>
      <trkpt lat="45.98126" lon="5.5949">
        <ele>791.6</ele>
        <time>2026-05-09T15:35:06Z</time>
      </trkpt>
      <trkpt lat="45.98122" lon="5.59494">
        <ele>791.6</ele>
        <time>2026-05-09T15:35:07Z</time>
      </trkpt>
      <trkpt lat="45.98118" lon="5.595">
        <ele>791.6</ele>
        <time>2026-05-09T15:35:08Z</time>
      </trkpt>
      <trkpt lat="45.98114" lon="5.59504">
        <ele>791.2</ele>
        <time>2026-05-09T15:35:09Z</time>
      </trkpt>
      <trkpt lat="45.98109" lon="5.5951">
        <ele>791.2</ele>
        <time>2026-05-09T15:35:10Z</time>
      </trkpt>
      <trkpt lat="45.98105" lon="5.59514">
        <ele>791.2</ele>
        <time>2026-05-09T15:35:11Z</time>
      </trkpt>
      <trkpt lat="45.98101" lon="5.5952">
        <ele>791.2</ele>
        <time>2026-05-09T15:35:12Z</time>
      </trkpt>
      <trkpt lat="45.98097" lon="5.59525">
        <ele>791.2</ele>
        <time>2026-05-09T15:35:13Z</time>
      </trkpt>
      <trkpt lat="45.98093" lon="5.5953">
        <ele>791.2</ele>
        <time>2026-05-09T15:35:14Z</time>
      </trkpt>
      <trkpt lat="45.98088" lon="5.59535">
        <ele>791.2</ele>
        <time>2026-05-09T15:35:15Z</time>
      </trkpt>
      <trkpt lat="45.98084" lon="5.5954">
        <ele>791.2</ele>
        <time>2026-05-09T15:35:16Z</time>
      </trkpt>
      <trkpt lat="45.9808" lon="5.59546">
        <ele>791.2</ele>
        <time>2026-05-09T15:35:17Z</time>
      </trkpt>
      <trkpt lat="45.98076" lon="5.59551">
        <ele>791.2</ele>
        <time>2026-05-09T15:35:18Z</time>
      </trkpt>
      <trkpt lat="45.98072" lon="5.59556">
        <ele>791.2</ele>
        <time>2026-05-09T15:35:19Z</time>
      </trkpt>
      <trkpt lat="45.98067" lon="5.59561">
        <ele>791.2</ele>
        <time>2026-05-09T15:35:20Z</time>
      </trkpt>
      <trkpt lat="45.98063" lon="5.59566">
        <ele>791.2</ele>
        <time>2026-05-09T15:35:21Z</time>
      </trkpt>
      <trkpt lat="45.9806" lon="5.5957">
        <ele>791.2</ele>
        <time>2026-05-09T15:35:22Z</time>
      </trkpt>
      <trkpt lat="45.98055" lon="5.59575">
        <ele>791.2</ele>
        <time>2026-05-09T15:35:23Z</time>
      </trkpt>
      <trkpt lat="45.98052" lon="5.5958">
        <ele>791.2</ele>
        <time>2026-05-09T15:35:24Z</time>
      </trkpt>
      <trkpt lat="45.98047" lon="5.59585">
        <ele>791.2</ele>
        <time>2026-05-09T15:35:25Z</time>
      </trkpt>
      <trkpt lat="45.98043" lon="5.5959">
        <ele>791.2</ele>
        <time>2026-05-09T15:35:26Z</time>
      </trkpt>
      <trkpt lat="45.9804" lon="5.59595">
        <ele>791.2</ele>
        <time>2026-05-09T15:35:27Z</time>
      </trkpt>
      <trkpt lat="45.98036" lon="5.596">
        <ele>791.2</ele>
        <time>2026-05-09T15:35:28Z</time>
      </trkpt>
      <trkpt lat="45.98032" lon="5.59605">
        <ele>791.2</ele>
        <time>2026-05-09T15:35:29Z</time>
      </trkpt>
      <trkpt lat="45.98028" lon="5.5961">
        <ele>791.2</ele>
        <time>2026-05-09T15:35:30Z</time>
      </trkpt>
      <trkpt lat="45.98024" lon="5.59615">
        <ele>791.2</ele>
        <time>2026-05-09T15:35:31Z</time>
      </trkpt>
      <trkpt lat="45.9802" lon="5.5962">
        <ele>791.2</ele>
        <time>2026-05-09T15:35:32Z</time>
      </trkpt>
      <trkpt lat="45.98016" lon="5.59626">
        <ele>791.2</ele>
        <time>2026-05-09T15:35:33Z</time>
      </trkpt>
      <trkpt lat="45.98012" lon="5.5963">
        <ele>791.2</ele>
        <time>2026-05-09T15:35:34Z</time>
      </trkpt>
      <trkpt lat="45.98008" lon="5.59635">
        <ele>791.2</ele>
        <time>2026-05-09T15:35:35Z</time>
      </trkpt>
      <trkpt lat="45.98004" lon="5.5964">
        <ele>791.2</ele>
        <time>2026-05-09T15:35:36Z</time>
      </trkpt>
      <trkpt lat="45.98" lon="5.59645">
        <ele>791.2</ele>
        <time>2026-05-09T15:35:37Z</time>
      </trkpt>
      <trkpt lat="45.97996" lon="5.5965">
        <ele>791.2</ele>
        <time>2026-05-09T15:35:38Z</time>
      </trkpt>
      <trkpt lat="45.97991" lon="5.59655">
        <ele>791.4</ele>
        <time>2026-05-09T15:35:39Z</time>
      </trkpt>
      <trkpt lat="45.97987" lon="5.5966">
        <ele>791.4</ele>
        <time>2026-05-09T15:35:40Z</time>
      </trkpt>
      <trkpt lat="45.97983" lon="5.59665">
        <ele>791.4</ele>
        <time>2026-05-09T15:35:41Z</time>
      </trkpt>
      <trkpt lat="45.9798" lon="5.59671">
        <ele>791.4</ele>
        <time>2026-05-09T15:35:42Z</time>
      </trkpt>
      <trkpt lat="45.97976" lon="5.59675">
        <ele>791.4</ele>
        <time>2026-05-09T15:35:43Z</time>
      </trkpt>
      <trkpt lat="45.97972" lon="5.5968">
        <ele>791.4</ele>
        <time>2026-05-09T15:35:44Z</time>
      </trkpt>
      <trkpt lat="45.97968" lon="5.59685">
        <ele>791.2</ele>
        <time>2026-05-09T15:35:45Z</time>
      </trkpt>
      <trkpt lat="45.97963" lon="5.59689">
        <ele>791.2</ele>
        <time>2026-05-09T15:35:46Z</time>
      </trkpt>
      <trkpt lat="45.97959" lon="5.59693">
        <ele>791.2</ele>
        <time>2026-05-09T15:35:47Z</time>
      </trkpt>
      <trkpt lat="45.97954" lon="5.59695">
        <ele>791.2</ele>
        <time>2026-05-09T15:35:48Z</time>
      </trkpt>
      <trkpt lat="45.9795" lon="5.59697">
        <ele>791.2</ele>
        <time>2026-05-09T15:35:49Z</time>
      </trkpt>
      <trkpt lat="45.97946" lon="5.597">
        <ele>790.8</ele>
        <time>2026-05-09T15:35:50Z</time>
      </trkpt>
      <trkpt lat="45.97943" lon="5.59705">
        <ele>790.8</ele>
        <time>2026-05-09T15:35:51Z</time>
      </trkpt>
      <trkpt lat="45.9794" lon="5.5971">
        <ele>790.8</ele>
        <time>2026-05-09T15:35:52Z</time>
      </trkpt>
      <trkpt lat="45.97938" lon="5.59717">
        <ele>790.8</ele>
        <time>2026-05-09T15:35:53Z</time>
      </trkpt>
      <trkpt lat="45.97935" lon="5.59724">
        <ele>790.8</ele>
        <time>2026-05-09T15:35:54Z</time>
      </trkpt>
      <trkpt lat="45.97933" lon="5.5973">
        <ele>790.8</ele>
        <time>2026-05-09T15:35:55Z</time>
      </trkpt>
      <trkpt lat="45.9793" lon="5.59735">
        <ele>790.8</ele>
        <time>2026-05-09T15:35:56Z</time>
      </trkpt>
      <trkpt lat="45.97927" lon="5.59739">
        <ele>790.8</ele>
        <time>2026-05-09T15:35:57Z</time>
      </trkpt>
      <trkpt lat="45.97924" lon="5.59743">
        <ele>791.2</ele>
        <time>2026-05-09T15:35:58Z</time>
      </trkpt>
      <trkpt lat="45.9792" lon="5.59746">
        <ele>791.2</ele>
        <time>2026-05-09T15:35:59Z</time>
      </trkpt>
      <trkpt lat="45.97918" lon="5.59749">
        <ele>791.4</ele>
        <time>2026-05-09T15:36:00Z</time>
      </trkpt>
      <trkpt lat="45.97912" lon="5.59757">
        <ele>791.4</ele>
        <time>2026-05-09T15:36:01Z</time>
      </trkpt>
      <trkpt lat="45.9791" lon="5.5976">
        <ele>791.4</ele>
        <time>2026-05-09T15:36:02Z</time>
      </trkpt>
      <trkpt lat="45.97907" lon="5.59762">
        <ele>791.2</ele>
        <time>2026-05-09T15:36:03Z</time>
      </trkpt>
      <trkpt lat="45.97904" lon="5.59766">
        <ele>791.2</ele>
        <time>2026-05-09T15:36:04Z</time>
      </trkpt>
      <trkpt lat="45.97902" lon="5.59769">
        <ele>791.2</ele>
        <time>2026-05-09T15:36:05Z</time>
      </trkpt>
      <trkpt lat="45.979" lon="5.59772">
        <ele>791.2</ele>
        <time>2026-05-09T15:36:06Z</time>
      </trkpt>
      <trkpt lat="45.97897" lon="5.59775">
        <ele>791.2</ele>
        <time>2026-05-09T15:36:07Z</time>
      </trkpt>
      <trkpt lat="45.97897" lon="5.59775">
        <ele>791.2</ele>
        <time>2026-05-09T15:36:08Z</time>
      </trkpt>
      <trkpt lat="45.97894" lon="5.59778">
        <ele>791.2</ele>
        <time>2026-05-09T15:36:09Z</time>
      </trkpt>
      <trkpt lat="45.97891" lon="5.59781">
        <ele>791.2</ele>
        <time>2026-05-09T15:36:10Z</time>
      </trkpt>
      <trkpt lat="45.97888" lon="5.59783">
        <ele>791.4</ele>
        <time>2026-05-09T15:36:11Z</time>
      </trkpt>
      <trkpt lat="45.97886" lon="5.59786">
        <ele>791.4</ele>
        <time>2026-05-09T15:36:12Z</time>
      </trkpt>
      <trkpt lat="45.97883" lon="5.59789">
        <ele>791.4</ele>
        <time>2026-05-09T15:36:13Z</time>
      </trkpt>
      <trkpt lat="45.97881" lon="5.59791">
        <ele>791.6</ele>
        <time>2026-05-09T15:36:14Z</time>
      </trkpt>
      <trkpt lat="45.97879" lon="5.59794">
        <ele>791.6</ele>
        <time>2026-05-09T15:36:15Z</time>
      </trkpt>
      <trkpt lat="45.97877" lon="5.59797">
        <ele>792</ele>
        <time>2026-05-09T15:36:16Z</time>
      </trkpt>
      <trkpt lat="45.97874" lon="5.598">
        <ele>792</ele>
        <time>2026-05-09T15:36:17Z</time>
      </trkpt>
      <trkpt lat="45.97872" lon="5.59803">
        <ele>792</ele>
        <time>2026-05-09T15:36:18Z</time>
      </trkpt>
      <trkpt lat="45.97869" lon="5.59806">
        <ele>792</ele>
        <time>2026-05-09T15:36:19Z</time>
      </trkpt>
      <trkpt lat="45.97867" lon="5.59808">
        <ele>792.2</ele>
        <time>2026-05-09T15:36:20Z</time>
      </trkpt>
      <trkpt lat="45.97864" lon="5.59811">
        <ele>792.2</ele>
        <time>2026-05-09T15:36:21Z</time>
      </trkpt>
      <trkpt lat="45.97862" lon="5.59813">
        <ele>792.6</ele>
        <time>2026-05-09T15:36:22Z</time>
      </trkpt>
      <trkpt lat="45.9786" lon="5.59816">
        <ele>792.6</ele>
        <time>2026-05-09T15:36:23Z</time>
      </trkpt>
      <trkpt lat="45.97857" lon="5.59819">
        <ele>792.6</ele>
        <time>2026-05-09T15:36:24Z</time>
      </trkpt>
      <trkpt lat="45.97855" lon="5.59822">
        <ele>792.8</ele>
        <time>2026-05-09T15:36:25Z</time>
      </trkpt>
      <trkpt lat="45.97852" lon="5.59824">
        <ele>792.8</ele>
        <time>2026-05-09T15:36:26Z</time>
      </trkpt>
      <trkpt lat="45.9785" lon="5.59827">
        <ele>793.2</ele>
        <time>2026-05-09T15:36:27Z</time>
      </trkpt>
      <trkpt lat="45.97848" lon="5.5983">
        <ele>793.4</ele>
        <time>2026-05-09T15:36:28Z</time>
      </trkpt>
      <trkpt lat="45.97846" lon="5.59833">
        <ele>793.4</ele>
        <time>2026-05-09T15:36:29Z</time>
      </trkpt>
      <trkpt lat="45.97844" lon="5.59836">
        <ele>793.8</ele>
        <time>2026-05-09T15:36:30Z</time>
      </trkpt>
      <trkpt lat="45.97842" lon="5.59839">
        <ele>793.8</ele>
        <time>2026-05-09T15:36:31Z</time>
      </trkpt>
      <trkpt lat="45.9784" lon="5.59842">
        <ele>793.8</ele>
        <time>2026-05-09T15:36:32Z</time>
      </trkpt>
      <trkpt lat="45.97838" lon="5.59845">
        <ele>793.8</ele>
        <time>2026-05-09T15:36:33Z</time>
      </trkpt>
      <trkpt lat="45.97836" lon="5.59848">
        <ele>794.2</ele>
        <time>2026-05-09T15:36:34Z</time>
      </trkpt>
      <trkpt lat="45.97833" lon="5.59851">
        <ele>794.2</ele>
        <time>2026-05-09T15:36:35Z</time>
      </trkpt>
      <trkpt lat="45.97831" lon="5.59854">
        <ele>794.6</ele>
        <time>2026-05-09T15:36:36Z</time>
      </trkpt>
      <trkpt lat="45.97829" lon="5.59856">
        <ele>794.6</ele>
        <time>2026-05-09T15:36:37Z</time>
      </trkpt>
      <trkpt lat="45.97827" lon="5.59859">
        <ele>794.8</ele>
        <time>2026-05-09T15:36:38Z</time>
      </trkpt>
      <trkpt lat="45.97825" lon="5.59862">
        <ele>794.8</ele>
        <time>2026-05-09T15:36:39Z</time>
      </trkpt>
      <trkpt lat="45.97823" lon="5.59865">
        <ele>794.8</ele>
        <time>2026-05-09T15:36:40Z</time>
      </trkpt>
      <trkpt lat="45.97821" lon="5.59867">
        <ele>794.8</ele>
        <time>2026-05-09T15:36:41Z</time>
      </trkpt>
      <trkpt lat="45.97819" lon="5.5987">
        <ele>795</ele>
        <time>2026-05-09T15:36:42Z</time>
      </trkpt>
      <trkpt lat="45.97817" lon="5.59872">
        <ele>795</ele>
        <time>2026-05-09T15:36:43Z</time>
      </trkpt>
      <trkpt lat="45.97815" lon="5.59875">
        <ele>795</ele>
        <time>2026-05-09T15:36:44Z</time>
      </trkpt>
      <trkpt lat="45.97813" lon="5.59877">
        <ele>795.2</ele>
        <time>2026-05-09T15:36:45Z</time>
      </trkpt>
      <trkpt lat="45.97811" lon="5.59881">
        <ele>795.2</ele>
        <time>2026-05-09T15:36:46Z</time>
      </trkpt>
      <trkpt lat="45.97809" lon="5.59885">
        <ele>795.2</ele>
        <time>2026-05-09T15:36:47Z</time>
      </trkpt>
      <trkpt lat="45.97808" lon="5.59889">
        <ele>795.4</ele>
        <time>2026-05-09T15:36:48Z</time>
      </trkpt>
      <trkpt lat="45.97807" lon="5.59894">
        <ele>795.4</ele>
        <time>2026-05-09T15:36:49Z</time>
      </trkpt>
      <trkpt lat="45.97807" lon="5.599">
        <ele>795.4</ele>
        <time>2026-05-09T15:36:50Z</time>
      </trkpt>
      <trkpt lat="45.97805" lon="5.59905">
        <ele>795.4</ele>
        <time>2026-05-09T15:36:51Z</time>
      </trkpt>
      <trkpt lat="45.97803" lon="5.59908">
        <ele>795.4</ele>
        <time>2026-05-09T15:36:52Z</time>
      </trkpt>
      <trkpt lat="45.97801" lon="5.59912">
        <ele>795.8</ele>
        <time>2026-05-09T15:36:53Z</time>
      </trkpt>
      <trkpt lat="45.97798" lon="5.59917">
        <ele>795.8</ele>
        <time>2026-05-09T15:36:54Z</time>
      </trkpt>
      <trkpt lat="45.97796" lon="5.59922">
        <ele>795.8</ele>
        <time>2026-05-09T15:36:55Z</time>
      </trkpt>
      <trkpt lat="45.97795" lon="5.59927">
        <ele>795.8</ele>
        <time>2026-05-09T15:36:56Z</time>
      </trkpt>
      <trkpt lat="45.97794" lon="5.59932">
        <ele>795.8</ele>
        <time>2026-05-09T15:36:57Z</time>
      </trkpt>
      <trkpt lat="45.97793" lon="5.59937">
        <ele>795.8</ele>
        <time>2026-05-09T15:36:58Z</time>
      </trkpt>
      <trkpt lat="45.97791" lon="5.59942">
        <ele>795.8</ele>
        <time>2026-05-09T15:36:59Z</time>
      </trkpt>
      <trkpt lat="45.9779" lon="5.59947">
        <ele>795.8</ele>
        <time>2026-05-09T15:37:00Z</time>
      </trkpt>
      <trkpt lat="45.97789" lon="5.59951">
        <ele>796</ele>
        <time>2026-05-09T15:37:01Z</time>
      </trkpt>
      <trkpt lat="45.97789" lon="5.59956">
        <ele>796.2</ele>
        <time>2026-05-09T15:37:02Z</time>
      </trkpt>
      <trkpt lat="45.97788" lon="5.59961">
        <ele>796.2</ele>
        <time>2026-05-09T15:37:03Z</time>
      </trkpt>
      <trkpt lat="45.97788" lon="5.59965">
        <ele>796.6</ele>
        <time>2026-05-09T15:37:04Z</time>
      </trkpt>
      <trkpt lat="45.97788" lon="5.5997">
        <ele>796.6</ele>
        <time>2026-05-09T15:37:05Z</time>
      </trkpt>
      <trkpt lat="45.97787" lon="5.59976">
        <ele>796.6</ele>
        <time>2026-05-09T15:37:06Z</time>
      </trkpt>
      <trkpt lat="45.97787" lon="5.5998">
        <ele>796.6</ele>
        <time>2026-05-09T15:37:07Z</time>
      </trkpt>
      <trkpt lat="45.97786" lon="5.59985">
        <ele>797</ele>
        <time>2026-05-09T15:37:08Z</time>
      </trkpt>
      <trkpt lat="45.97786" lon="5.5999">
        <ele>797.2</ele>
        <time>2026-05-09T15:37:09Z</time>
      </trkpt>
      <trkpt lat="45.97786" lon="5.59994">
        <ele>797.2</ele>
        <time>2026-05-09T15:37:10Z</time>
      </trkpt>
      <trkpt lat="45.97785" lon="5.59998">
        <ele>797.6</ele>
        <time>2026-05-09T15:37:11Z</time>
      </trkpt>
      <trkpt lat="45.97785" lon="5.60003">
        <ele>797.6</ele>
        <time>2026-05-09T15:37:12Z</time>
      </trkpt>
      <trkpt lat="45.97785" lon="5.60006">
        <ele>798</ele>
        <time>2026-05-09T15:37:13Z</time>
      </trkpt>
      <trkpt lat="45.97785" lon="5.6001">
        <ele>798</ele>
        <time>2026-05-09T15:37:14Z</time>
      </trkpt>
      <trkpt lat="45.97785" lon="5.60015">
        <ele>798.4</ele>
        <time>2026-05-09T15:37:15Z</time>
      </trkpt>
      <trkpt lat="45.97785" lon="5.60019">
        <ele>798.6</ele>
        <time>2026-05-09T15:37:16Z</time>
      </trkpt>
      <trkpt lat="45.97785" lon="5.60022">
        <ele>798.6</ele>
        <time>2026-05-09T15:37:17Z</time>
      </trkpt>
      <trkpt lat="45.97785" lon="5.60026">
        <ele>798.8</ele>
        <time>2026-05-09T15:37:18Z</time>
      </trkpt>
      <trkpt lat="45.97785" lon="5.60031">
        <ele>799.2</ele>
        <time>2026-05-09T15:37:19Z</time>
      </trkpt>
      <trkpt lat="45.97786" lon="5.60035">
        <ele>799.2</ele>
        <time>2026-05-09T15:37:20Z</time>
      </trkpt>
      <trkpt lat="45.97786" lon="5.60039">
        <ele>799.2</ele>
        <time>2026-05-09T15:37:21Z</time>
      </trkpt>
      <trkpt lat="45.97787" lon="5.60044">
        <ele>799.4</ele>
        <time>2026-05-09T15:37:22Z</time>
      </trkpt>
      <trkpt lat="45.97788" lon="5.60048">
        <ele>799.4</ele>
        <time>2026-05-09T15:37:23Z</time>
      </trkpt>
      <trkpt lat="45.97788" lon="5.60052">
        <ele>799.8</ele>
        <time>2026-05-09T15:37:24Z</time>
      </trkpt>
      <trkpt lat="45.97789" lon="5.60056">
        <ele>799.8</ele>
        <time>2026-05-09T15:37:25Z</time>
      </trkpt>
      <trkpt lat="45.9779" lon="5.6006">
        <ele>800</ele>
        <time>2026-05-09T15:37:26Z</time>
      </trkpt>
      <trkpt lat="45.97791" lon="5.60064">
        <ele>800</ele>
        <time>2026-05-09T15:37:27Z</time>
      </trkpt>
      <trkpt lat="45.97793" lon="5.60069">
        <ele>800</ele>
        <time>2026-05-09T15:37:28Z</time>
      </trkpt>
      <trkpt lat="45.97794" lon="5.60073">
        <ele>800</ele>
        <time>2026-05-09T15:37:29Z</time>
      </trkpt>
      <trkpt lat="45.97796" lon="5.60078">
        <ele>800</ele>
        <time>2026-05-09T15:37:30Z</time>
      </trkpt>
      <trkpt lat="45.97799" lon="5.60087">
        <ele>800</ele>
        <time>2026-05-09T15:37:31Z</time>
      </trkpt>
      <trkpt lat="45.978" lon="5.60091">
        <ele>800.2</ele>
        <time>2026-05-09T15:37:32Z</time>
      </trkpt>
      <trkpt lat="45.97802" lon="5.60095">
        <ele>800.2</ele>
        <time>2026-05-09T15:37:33Z</time>
      </trkpt>
      <trkpt lat="45.97803" lon="5.60099">
        <ele>800.2</ele>
        <time>2026-05-09T15:37:34Z</time>
      </trkpt>
      <trkpt lat="45.97805" lon="5.60103">
        <ele>800.2</ele>
        <time>2026-05-09T15:37:35Z</time>
      </trkpt>
      <trkpt lat="45.97806" lon="5.60106">
        <ele>800.2</ele>
        <time>2026-05-09T15:37:36Z</time>
      </trkpt>
      <trkpt lat="45.97807" lon="5.6011">
        <ele>800.2</ele>
        <time>2026-05-09T15:37:37Z</time>
      </trkpt>
      <trkpt lat="45.97806" lon="5.60113">
        <ele>800.2</ele>
        <time>2026-05-09T15:37:38Z</time>
      </trkpt>
      <trkpt lat="45.97805" lon="5.60115">
        <ele>800.4</ele>
        <time>2026-05-09T15:37:39Z</time>
      </trkpt>
      <trkpt lat="45.97803" lon="5.60117">
        <ele>800.4</ele>
        <time>2026-05-09T15:37:40Z</time>
      </trkpt>
      <trkpt lat="45.978" lon="5.60119">
        <ele>800.2</ele>
        <time>2026-05-09T15:37:41Z</time>
      </trkpt>
      <trkpt lat="45.97797" lon="5.6012">
        <ele>800.2</ele>
        <time>2026-05-09T15:37:42Z</time>
      </trkpt>
      <trkpt lat="45.97795" lon="5.6012">
        <ele>800</ele>
        <time>2026-05-09T15:37:43Z</time>
      </trkpt>
      <trkpt lat="45.97793" lon="5.6012">
        <ele>800</ele>
        <time>2026-05-09T15:37:44Z</time>
      </trkpt>
      <trkpt lat="45.97791" lon="5.6012">
        <ele>800</ele>
        <time>2026-05-09T15:37:45Z</time>
      </trkpt>
      <trkpt lat="45.97789" lon="5.60119">
        <ele>799.6</ele>
        <time>2026-05-09T15:37:46Z</time>
      </trkpt>
      <trkpt lat="45.97787" lon="5.60118">
        <ele>799.2</ele>
        <time>2026-05-09T15:37:47Z</time>
      </trkpt>
      <trkpt lat="45.97786" lon="5.60117">
        <ele>799.2</ele>
        <time>2026-05-09T15:37:48Z</time>
      </trkpt>
      <trkpt lat="45.97785" lon="5.60116">
        <ele>799</ele>
        <time>2026-05-09T15:37:49Z</time>
      </trkpt>
      <trkpt lat="45.97784" lon="5.60115">
        <ele>799</ele>
        <time>2026-05-09T15:37:50Z</time>
      </trkpt>
      <trkpt lat="45.97783" lon="5.60114">
        <ele>799</ele>
        <time>2026-05-09T15:37:51Z</time>
      </trkpt>
      <trkpt lat="45.97782" lon="5.60113">
        <ele>798.8</ele>
        <time>2026-05-09T15:37:52Z</time>
      </trkpt>
      <trkpt lat="45.97782" lon="5.60113">
        <ele>798.8</ele>
        <time>2026-05-09T15:37:53Z</time>
      </trkpt>
      <trkpt lat="45.97782" lon="5.60113">
        <ele>798.8</ele>
        <time>2026-05-09T15:37:54Z</time>
      </trkpt>
      <trkpt lat="45.9778" lon="5.60115">
        <ele>798.4</ele>
        <time>2026-05-09T15:38:25Z</time>
      </trkpt>
      <trkpt lat="45.97779" lon="5.60117">
        <ele>798.4</ele>
        <time>2026-05-09T15:38:26Z</time>
      </trkpt>
      <trkpt lat="45.9778" lon="5.60119">
        <ele>798.4</ele>
        <time>2026-05-09T15:38:27Z</time>
      </trkpt>
      <trkpt lat="45.97782" lon="5.6012">
        <ele>798.6</ele>
        <time>2026-05-09T15:38:28Z</time>
      </trkpt>
      <trkpt lat="45.97785" lon="5.6012">
        <ele>798.6</ele>
        <time>2026-05-09T15:38:29Z</time>
      </trkpt>
      <trkpt lat="45.97787" lon="5.60119">
        <ele>798.6</ele>
        <time>2026-05-09T15:38:30Z</time>
      </trkpt>
      <trkpt lat="45.97789" lon="5.60118">
        <ele>798.6</ele>
        <time>2026-05-09T15:38:31Z</time>
      </trkpt>
      <trkpt lat="45.97791" lon="5.60117">
        <ele>798.6</ele>
        <time>2026-05-09T15:38:32Z</time>
      </trkpt>
      <trkpt lat="45.97793" lon="5.60117">
        <ele>798.6</ele>
        <time>2026-05-09T15:38:33Z</time>
      </trkpt>
      <trkpt lat="45.97796" lon="5.60118">
        <ele>798.6</ele>
        <time>2026-05-09T15:38:34Z</time>
      </trkpt>
      <trkpt lat="45.97798" lon="5.60118">
        <ele>798.8</ele>
        <time>2026-05-09T15:38:35Z</time>
      </trkpt>
      <trkpt lat="45.978" lon="5.60117">
        <ele>798.8</ele>
        <time>2026-05-09T15:38:36Z</time>
      </trkpt>
      <trkpt lat="45.97802" lon="5.60116">
        <ele>798.8</ele>
        <time>2026-05-09T15:38:37Z</time>
      </trkpt>
      <trkpt lat="45.97803" lon="5.60115">
        <ele>799.2</ele>
        <time>2026-05-09T15:38:38Z</time>
      </trkpt>
      <trkpt lat="45.97805" lon="5.60114">
        <ele>799.4</ele>
        <time>2026-05-09T15:38:39Z</time>
      </trkpt>
      <trkpt lat="45.97807" lon="5.60114">
        <ele>799.6</ele>
        <time>2026-05-09T15:38:40Z</time>
      </trkpt>
      <trkpt lat="45.9781" lon="5.60113">
        <ele>800</ele>
        <time>2026-05-09T15:38:41Z</time>
      </trkpt>
      <trkpt lat="45.97811" lon="5.60113">
        <ele>800.2</ele>
        <time>2026-05-09T15:38:42Z</time>
      </trkpt>
      <trkpt lat="45.97814" lon="5.60115">
        <ele>800.4</ele>
        <time>2026-05-09T15:38:43Z</time>
      </trkpt>
      <trkpt lat="45.97816" lon="5.60119">
        <ele>800.6</ele>
        <time>2026-05-09T15:38:44Z</time>
      </trkpt>
      <trkpt lat="45.97816" lon="5.60122">
        <ele>800.8</ele>
        <time>2026-05-09T15:38:45Z</time>
      </trkpt>
      <trkpt lat="45.97816" lon="5.60122">
        <ele>800.8</ele>
        <time>2026-05-09T15:38:46Z</time>
      </trkpt>
      <trkpt lat="45.97817" lon="5.60126">
        <ele>801.2</ele>
        <time>2026-05-09T15:38:47Z</time>
      </trkpt>
      <trkpt lat="45.97819" lon="5.6013">
        <ele>801.2</ele>
        <time>2026-05-09T15:38:48Z</time>
      </trkpt>
      <trkpt lat="45.9782" lon="5.60134">
        <ele>801.2</ele>
        <time>2026-05-09T15:38:49Z</time>
      </trkpt>
      <trkpt lat="45.97821" lon="5.60138">
        <ele>801.2</ele>
        <time>2026-05-09T15:38:50Z</time>
      </trkpt>
      <trkpt lat="45.97822" lon="5.60142">
        <ele>801.2</ele>
        <time>2026-05-09T15:38:51Z</time>
      </trkpt>
      <trkpt lat="45.97823" lon="5.60147">
        <ele>801.2</ele>
        <time>2026-05-09T15:38:52Z</time>
      </trkpt>
      <trkpt lat="45.97823" lon="5.60151">
        <ele>801.2</ele>
        <time>2026-05-09T15:38:53Z</time>
      </trkpt>
      <trkpt lat="45.97823" lon="5.60156">
        <ele>801.2</ele>
        <time>2026-05-09T15:38:54Z</time>
      </trkpt>
      <trkpt lat="45.97822" lon="5.6016">
        <ele>801.2</ele>
        <time>2026-05-09T15:38:55Z</time>
      </trkpt>
      <trkpt lat="45.97822" lon="5.60165">
        <ele>801.2</ele>
        <time>2026-05-09T15:38:56Z</time>
      </trkpt>
      <trkpt lat="45.97821" lon="5.60168">
        <ele>801.2</ele>
        <time>2026-05-09T15:38:57Z</time>
      </trkpt>
      <trkpt lat="45.9782" lon="5.60171">
        <ele>801.6</ele>
        <time>2026-05-09T15:38:58Z</time>
      </trkpt>
      <trkpt lat="45.97818" lon="5.60174">
        <ele>801.6</ele>
        <time>2026-05-09T15:38:59Z</time>
      </trkpt>
      <trkpt lat="45.97817" lon="5.60177">
        <ele>801.6</ele>
        <time>2026-05-09T15:39:00Z</time>
      </trkpt>
      <trkpt lat="45.97815" lon="5.60181">
        <ele>801.8</ele>
        <time>2026-05-09T15:39:01Z</time>
      </trkpt>
      <trkpt lat="45.97814" lon="5.60184">
        <ele>801.8</ele>
        <time>2026-05-09T15:39:02Z</time>
      </trkpt>
      <trkpt lat="45.97812" lon="5.60187">
        <ele>802.2</ele>
        <time>2026-05-09T15:39:03Z</time>
      </trkpt>
      <trkpt lat="45.97809" lon="5.60188">
        <ele>802.2</ele>
        <time>2026-05-09T15:39:04Z</time>
      </trkpt>
      <trkpt lat="45.97807" lon="5.60189">
        <ele>802.2</ele>
        <time>2026-05-09T15:39:05Z</time>
      </trkpt>
      <trkpt lat="45.97804" lon="5.60189">
        <ele>802.6</ele>
        <time>2026-05-09T15:39:06Z</time>
      </trkpt>
      <trkpt lat="45.97801" lon="5.60189">
        <ele>802.6</ele>
        <time>2026-05-09T15:39:07Z</time>
      </trkpt>
      <trkpt lat="45.97798" lon="5.60189">
        <ele>802.8</ele>
        <time>2026-05-09T15:39:08Z</time>
      </trkpt>
      <trkpt lat="45.97796" lon="5.60188">
        <ele>802.8</ele>
        <time>2026-05-09T15:39:09Z</time>
      </trkpt>
      <trkpt lat="45.97793" lon="5.60188">
        <ele>803.2</ele>
        <time>2026-05-09T15:39:10Z</time>
      </trkpt>
      <trkpt lat="45.97791" lon="5.60187">
        <ele>803.2</ele>
        <time>2026-05-09T15:39:11Z</time>
      </trkpt>
      <trkpt lat="45.97789" lon="5.60186">
        <ele>803.4</ele>
        <time>2026-05-09T15:39:12Z</time>
      </trkpt>
      <trkpt lat="45.97787" lon="5.60185">
        <ele>803.6</ele>
        <time>2026-05-09T15:39:13Z</time>
      </trkpt>
      <trkpt lat="45.97784" lon="5.60184">
        <ele>804</ele>
        <time>2026-05-09T15:39:14Z</time>
      </trkpt>
      <trkpt lat="45.97782" lon="5.60183">
        <ele>804.2</ele>
        <time>2026-05-09T15:39:15Z</time>
      </trkpt>
      <trkpt lat="45.9778" lon="5.60183">
        <ele>804.4</ele>
        <time>2026-05-09T15:39:16Z</time>
      </trkpt>
      <trkpt lat="45.97777" lon="5.60182">
        <ele>804.8</ele>
        <time>2026-05-09T15:39:17Z</time>
      </trkpt>
      <trkpt lat="45.97775" lon="5.60181">
        <ele>805</ele>
        <time>2026-05-09T15:39:18Z</time>
      </trkpt>
      <trkpt lat="45.97773" lon="5.6018">
        <ele>805</ele>
        <time>2026-05-09T15:39:19Z</time>
      </trkpt>
      <trkpt lat="45.97771" lon="5.60179">
        <ele>805.2</ele>
        <time>2026-05-09T15:39:20Z</time>
      </trkpt>
      <trkpt lat="45.97769" lon="5.60178">
        <ele>805.2</ele>
        <time>2026-05-09T15:39:21Z</time>
      </trkpt>
      <trkpt lat="45.97767" lon="5.60178">
        <ele>805.6</ele>
        <time>2026-05-09T15:39:22Z</time>
      </trkpt>
      <trkpt lat="45.97765" lon="5.60177">
        <ele>805.6</ele>
        <time>2026-05-09T15:39:23Z</time>
      </trkpt>
      <trkpt lat="45.97763" lon="5.60176">
        <ele>806</ele>
        <time>2026-05-09T15:39:24Z</time>
      </trkpt>
      <trkpt lat="45.97761" lon="5.60176">
        <ele>806.4</ele>
        <time>2026-05-09T15:39:25Z</time>
      </trkpt>
      <trkpt lat="45.97758" lon="5.60176">
        <ele>806.8</ele>
        <time>2026-05-09T15:39:26Z</time>
      </trkpt>
      <trkpt lat="45.97756" lon="5.60176">
        <ele>807</ele>
        <time>2026-05-09T15:39:27Z</time>
      </trkpt>
      <trkpt lat="45.97754" lon="5.60176">
        <ele>807.2</ele>
        <time>2026-05-09T15:39:28Z</time>
      </trkpt>
      <trkpt lat="45.97752" lon="5.60175">
        <ele>807.2</ele>
        <time>2026-05-09T15:39:29Z</time>
      </trkpt>
      <trkpt lat="45.9775" lon="5.60176">
        <ele>807.2</ele>
        <time>2026-05-09T15:39:30Z</time>
      </trkpt>
      <trkpt lat="45.97747" lon="5.60176">
        <ele>807.6</ele>
        <time>2026-05-09T15:39:31Z</time>
      </trkpt>
      <trkpt lat="45.97745" lon="5.60176">
        <ele>807.6</ele>
        <time>2026-05-09T15:39:32Z</time>
      </trkpt>
      <trkpt lat="45.97743" lon="5.60177">
        <ele>807.6</ele>
        <time>2026-05-09T15:39:33Z</time>
      </trkpt>
      <trkpt lat="45.97741" lon="5.60178">
        <ele>807.6</ele>
        <time>2026-05-09T15:39:34Z</time>
      </trkpt>
      <trkpt lat="45.97739" lon="5.60179">
        <ele>807.6</ele>
        <time>2026-05-09T15:39:35Z</time>
      </trkpt>
      <trkpt lat="45.97737" lon="5.6018">
        <ele>807.8</ele>
        <time>2026-05-09T15:39:36Z</time>
      </trkpt>
      <trkpt lat="45.97734" lon="5.60181">
        <ele>807.8</ele>
        <time>2026-05-09T15:39:37Z</time>
      </trkpt>
      <trkpt lat="45.97732" lon="5.60182">
        <ele>808</ele>
        <time>2026-05-09T15:39:38Z</time>
      </trkpt>
      <trkpt lat="45.9773" lon="5.60183">
        <ele>808</ele>
        <time>2026-05-09T15:39:39Z</time>
      </trkpt>
      <trkpt lat="45.97728" lon="5.60185">
        <ele>808.4</ele>
        <time>2026-05-09T15:39:40Z</time>
      </trkpt>
      <trkpt lat="45.97727" lon="5.60186">
        <ele>808.4</ele>
        <time>2026-05-09T15:39:41Z</time>
      </trkpt>
      <trkpt lat="45.97725" lon="5.60186">
        <ele>808.6</ele>
        <time>2026-05-09T15:39:42Z</time>
      </trkpt>
      <trkpt lat="45.97723" lon="5.60187">
        <ele>808.6</ele>
        <time>2026-05-09T15:39:43Z</time>
      </trkpt>
      <trkpt lat="45.97721" lon="5.60187">
        <ele>809</ele>
        <time>2026-05-09T15:39:44Z</time>
      </trkpt>
      <trkpt lat="45.97719" lon="5.60188">
        <ele>809</ele>
        <time>2026-05-09T15:39:45Z</time>
      </trkpt>
      <trkpt lat="45.97718" lon="5.60189">
        <ele>809.2</ele>
        <time>2026-05-09T15:39:46Z</time>
      </trkpt>
      <trkpt lat="45.97717" lon="5.6019">
        <ele>809.2</ele>
        <time>2026-05-09T15:39:47Z</time>
      </trkpt>
      <trkpt lat="45.97716" lon="5.60191">
        <ele>809.2</ele>
        <time>2026-05-09T15:39:48Z</time>
      </trkpt>
      <trkpt lat="45.97715" lon="5.60193">
        <ele>809.2</ele>
        <time>2026-05-09T15:39:49Z</time>
      </trkpt>
      <trkpt lat="45.97715" lon="5.60194">
        <ele>809.2</ele>
        <time>2026-05-09T15:39:50Z</time>
      </trkpt>
      <trkpt lat="45.97716" lon="5.60196">
        <ele>809.2</ele>
        <time>2026-05-09T15:39:51Z</time>
      </trkpt>
      <trkpt lat="45.97718" lon="5.60197">
        <ele>809.2</ele>
        <time>2026-05-09T15:39:52Z</time>
      </trkpt>
      <trkpt lat="45.97719" lon="5.60198">
        <ele>809.2</ele>
        <time>2026-05-09T15:39:53Z</time>
      </trkpt>
      <trkpt lat="45.97721" lon="5.60198">
        <ele>809.2</ele>
        <time>2026-05-09T15:39:54Z</time>
      </trkpt>
      <trkpt lat="45.97723" lon="5.60197">
        <ele>809.2</ele>
        <time>2026-05-09T15:39:55Z</time>
      </trkpt>
      <trkpt lat="45.97724" lon="5.60196">
        <ele>809.2</ele>
        <time>2026-05-09T15:39:56Z</time>
      </trkpt>
      <trkpt lat="45.97726" lon="5.60196">
        <ele>809.2</ele>
        <time>2026-05-09T15:39:57Z</time>
      </trkpt>
      <trkpt lat="45.97726" lon="5.60195">
        <ele>809.2</ele>
        <time>2026-05-09T15:39:58Z</time>
      </trkpt>
      <trkpt lat="45.97726" lon="5.60195">
        <ele>809.2</ele>
        <time>2026-05-09T15:39:59Z</time>
      </trkpt>
      <trkpt lat="45.97727" lon="5.60195">
        <ele>809.2</ele>
        <time>2026-05-09T15:40:02Z</time>
      </trkpt>
      <trkpt lat="45.97728" lon="5.60194">
        <ele>809.2</ele>
        <time>2026-05-09T15:40:03Z</time>
      </trkpt>
      <trkpt lat="45.9773" lon="5.60193">
        <ele>809.2</ele>
        <time>2026-05-09T15:40:04Z</time>
      </trkpt>
      <trkpt lat="45.9773" lon="5.60193">
        <ele>809.2</ele>
        <time>2026-05-09T15:40:05Z</time>
      </trkpt>
      <trkpt lat="45.97731" lon="5.60193">
        <ele>809</ele>
        <time>2026-05-09T15:40:06Z</time>
      </trkpt>
      <trkpt lat="45.97731" lon="5.60193">
        <ele>809</ele>
        <time>2026-05-09T15:40:07Z</time>
      </trkpt>
      <trkpt lat="45.97731" lon="5.60193">
        <ele>809</ele>
        <time>2026-05-09T15:40:08Z</time>
      </trkpt>
      <trkpt lat="45.97732" lon="5.60193">
        <ele>809</ele>
        <time>2026-05-09T15:40:09Z</time>
      </trkpt>
      <trkpt lat="45.97733" lon="5.60192">
        <ele>809</ele>
        <time>2026-05-09T15:40:10Z</time>
      </trkpt>
      <trkpt lat="45.97733" lon="5.60192">
        <ele>809.2</ele>
        <time>2026-05-09T15:40:11Z</time>
      </trkpt>
      <trkpt lat="45.97733" lon="5.60193">
        <ele>809.2</ele>
        <time>2026-05-09T15:40:12Z</time>
      </trkpt>
      <trkpt lat="45.97734" lon="5.60194">
        <ele>809.2</ele>
        <time>2026-05-09T15:40:13Z</time>
      </trkpt>
      <trkpt lat="45.97734" lon="5.60195">
        <ele>809.2</ele>
        <time>2026-05-09T15:40:14Z</time>
      </trkpt>
      <trkpt lat="45.97735" lon="5.60195">
        <ele>809.2</ele>
        <time>2026-05-09T15:40:15Z</time>
      </trkpt>
      <trkpt lat="45.97735" lon="5.60195">
        <ele>809.2</ele>
        <time>2026-05-09T15:40:16Z</time>
      </trkpt>
      <trkpt lat="45.97735" lon="5.60195">
        <ele>809.2</ele>
        <time>2026-05-09T15:40:17Z</time>
      </trkpt>
      <trkpt lat="45.97735" lon="5.60195">
        <ele>809.2</ele>
        <time>2026-05-09T15:40:18Z</time>
      </trkpt>
    </trkseg>
  </trk>
</gpx>